<?xml version="1.0" encoding="UTF-8" standalone="no" ?>
<gpx xmlns="http://www.topografix.com/GPX/1/1" xmlns:xsi="http://www.w3.org/2001/XMLSchema-instance" xsi:schemaLocation="http://www.topografix.com/GPX/1/1 http://www.topografix.com/GPX/1/1/gpx.xsd" version="1.1" creator="VisuGPX - https://www.visugpx.com">
  <metadata>
    <name>Le Poil et la Pierre plantée</name>
    <desc><![CDATA[Itinéraire utilisant principalement des pistes.
Passage au très beau village ruiné du Poil (fontaine).
La descente sur Barrême par le col du Robinat est très ludique.
Quelques vilains poussages après la Maurelière.

itinéraire adaptable en gravel si on enlève la descente sur Barrême. Dans ce cas, continuer au col de la pierre plantée par les piste pour récupérer Gévaudan puis la route.
De même, ne pas arriver au Poil par le chemin mais bien suivre le panneau indicatif sur la piste au point 1322 "Le poil" (on prendra à droite et non à gauche comme sur la trace). On pourra éviter aussi le mauvais chemin de la Maurelière en empruntant la route Napoléon de la Tuilière à Senez.]]></desc>
  </metadata>
  <trk>
    <name><![CDATA[Journée au Poil avec Sandrine]]></name>
    <trkseg>
      <trkpt lat="43.95285" lon="6.36843">
        <ele>730.3</ele>
        <time>2019-11-01T08:03:10Z</time>
      </trkpt>
      <trkpt lat="43.95289" lon="6.3684">
        <ele>730.6</ele>
        <time>2019-11-01T08:03:18Z</time>
      </trkpt>
      <trkpt lat="43.95295" lon="6.36843">
        <ele>731</ele>
        <time>2019-11-01T08:06:13Z</time>
      </trkpt>
      <trkpt lat="43.95297" lon="6.36837">
        <ele>731.4</ele>
        <time>2019-11-01T08:06:17Z</time>
      </trkpt>
      <trkpt lat="43.95297" lon="6.36833">
        <ele>731.6</ele>
        <time>2019-11-01T08:06:20Z</time>
      </trkpt>
      <trkpt lat="43.95301" lon="6.36831">
        <ele>732</ele>
        <time>2019-11-01T08:06:21Z</time>
      </trkpt>
      <trkpt lat="43.95304" lon="6.3683">
        <ele>732.2</ele>
        <time>2019-11-01T08:06:22Z</time>
      </trkpt>
      <trkpt lat="43.95307" lon="6.36828">
        <ele>732.4</ele>
        <time>2019-11-01T08:06:24Z</time>
      </trkpt>
      <trkpt lat="43.95311" lon="6.36827">
        <ele>732.8</ele>
        <time>2019-11-01T08:06:26Z</time>
      </trkpt>
      <trkpt lat="43.95315" lon="6.36825">
        <ele>733</ele>
        <time>2019-11-01T08:06:29Z</time>
      </trkpt>
      <trkpt lat="43.95319" lon="6.36823">
        <ele>733.4</ele>
        <time>2019-11-01T08:06:32Z</time>
      </trkpt>
      <trkpt lat="43.9532" lon="6.36818">
        <ele>733.5</ele>
        <time>2019-11-01T08:06:34Z</time>
      </trkpt>
      <trkpt lat="43.95318" lon="6.36809">
        <ele>733.7</ele>
        <time>2019-11-01T08:06:36Z</time>
      </trkpt>
      <trkpt lat="43.95314" lon="6.368">
        <ele>734.3</ele>
        <time>2019-11-01T08:06:38Z</time>
      </trkpt>
      <trkpt lat="43.95311" lon="6.3679">
        <ele>734.9</ele>
        <time>2019-11-01T08:06:40Z</time>
      </trkpt>
      <trkpt lat="43.95309" lon="6.36784">
        <ele>735.2</ele>
        <time>2019-11-01T08:06:42Z</time>
      </trkpt>
      <trkpt lat="43.95306" lon="6.36776">
        <ele>735.7</ele>
        <time>2019-11-01T08:06:44Z</time>
      </trkpt>
      <trkpt lat="43.95304" lon="6.36769">
        <ele>736</ele>
        <time>2019-11-01T08:06:46Z</time>
      </trkpt>
      <trkpt lat="43.95302" lon="6.36764">
        <ele>736.3</ele>
        <time>2019-11-01T08:06:47Z</time>
      </trkpt>
      <trkpt lat="43.95299" lon="6.36759">
        <ele>736.6</ele>
        <time>2019-11-01T08:06:49Z</time>
      </trkpt>
      <trkpt lat="43.95295" lon="6.36748">
        <ele>737</ele>
        <time>2019-11-01T08:06:52Z</time>
      </trkpt>
      <trkpt lat="43.95292" lon="6.3674">
        <ele>737.4</ele>
        <time>2019-11-01T08:06:54Z</time>
      </trkpt>
      <trkpt lat="43.9529" lon="6.36733">
        <ele>737.5</ele>
        <time>2019-11-01T08:06:56Z</time>
      </trkpt>
      <trkpt lat="43.95285" lon="6.36724">
        <ele>737.6</ele>
        <time>2019-11-01T08:06:58Z</time>
      </trkpt>
      <trkpt lat="43.9528" lon="6.36714">
        <ele>737.5</ele>
        <time>2019-11-01T08:07:00Z</time>
      </trkpt>
      <trkpt lat="43.95277" lon="6.36708">
        <ele>737.4</ele>
        <time>2019-11-01T08:07:01Z</time>
      </trkpt>
      <trkpt lat="43.95272" lon="6.36699">
        <ele>736.8</ele>
        <time>2019-11-01T08:07:03Z</time>
      </trkpt>
      <trkpt lat="43.95269" lon="6.36694">
        <ele>736.6</ele>
        <time>2019-11-01T08:07:04Z</time>
      </trkpt>
      <trkpt lat="43.95266" lon="6.3669">
        <ele>736.5</ele>
        <time>2019-11-01T08:07:05Z</time>
      </trkpt>
      <trkpt lat="43.95259" lon="6.36681">
        <ele>735.2</ele>
        <time>2019-11-01T08:07:07Z</time>
      </trkpt>
      <trkpt lat="43.95253" lon="6.36674">
        <ele>734.3</ele>
        <time>2019-11-01T08:07:09Z</time>
      </trkpt>
      <trkpt lat="43.95247" lon="6.36667">
        <ele>733.4</ele>
        <time>2019-11-01T08:07:11Z</time>
      </trkpt>
      <trkpt lat="43.95241" lon="6.3666">
        <ele>732.4</ele>
        <time>2019-11-01T08:07:13Z</time>
      </trkpt>
      <trkpt lat="43.95238" lon="6.36657">
        <ele>731.9</ele>
        <time>2019-11-01T08:07:14Z</time>
      </trkpt>
      <trkpt lat="43.95231" lon="6.36651">
        <ele>730.9</ele>
        <time>2019-11-01T08:07:16Z</time>
      </trkpt>
      <trkpt lat="43.95224" lon="6.36646">
        <ele>729.9</ele>
        <time>2019-11-01T08:07:18Z</time>
      </trkpt>
      <trkpt lat="43.9522" lon="6.36644">
        <ele>729.4</ele>
        <time>2019-11-01T08:07:19Z</time>
      </trkpt>
      <trkpt lat="43.95213" lon="6.36641">
        <ele>728.5</ele>
        <time>2019-11-01T08:07:21Z</time>
      </trkpt>
      <trkpt lat="43.95209" lon="6.36639">
        <ele>728.2</ele>
        <time>2019-11-01T08:07:22Z</time>
      </trkpt>
      <trkpt lat="43.95203" lon="6.36634">
        <ele>727.3</ele>
        <time>2019-11-01T08:07:24Z</time>
      </trkpt>
      <trkpt lat="43.95197" lon="6.36629">
        <ele>726.9</ele>
        <time>2019-11-01T08:07:26Z</time>
      </trkpt>
      <trkpt lat="43.95186" lon="6.36631">
        <ele>725.1</ele>
        <time>2019-11-01T08:07:29Z</time>
      </trkpt>
      <trkpt lat="43.95183" lon="6.36634">
        <ele>725.1</ele>
        <time>2019-11-01T08:07:30Z</time>
      </trkpt>
      <trkpt lat="43.95177" lon="6.36642">
        <ele>724.2</ele>
        <time>2019-11-01T08:07:32Z</time>
      </trkpt>
      <trkpt lat="43.95174" lon="6.36646">
        <ele>724</ele>
        <time>2019-11-01T08:07:33Z</time>
      </trkpt>
      <trkpt lat="43.95169" lon="6.36656">
        <ele>723.6</ele>
        <time>2019-11-01T08:07:36Z</time>
      </trkpt>
      <trkpt lat="43.95164" lon="6.36661">
        <ele>723.3</ele>
        <time>2019-11-01T08:07:38Z</time>
      </trkpt>
      <trkpt lat="43.95156" lon="6.36646">
        <ele>722.1</ele>
        <time>2019-11-01T08:07:41Z</time>
      </trkpt>
      <trkpt lat="43.95151" lon="6.36634">
        <ele>721.9</ele>
        <time>2019-11-01T08:07:43Z</time>
      </trkpt>
      <trkpt lat="43.95148" lon="6.36628">
        <ele>721.9</ele>
        <time>2019-11-01T08:07:45Z</time>
      </trkpt>
      <trkpt lat="43.95145" lon="6.36624">
        <ele>721.9</ele>
        <time>2019-11-01T08:07:46Z</time>
      </trkpt>
      <trkpt lat="43.95144" lon="6.36615">
        <ele>721.9</ele>
        <time>2019-11-01T08:07:48Z</time>
      </trkpt>
      <trkpt lat="43.95143" lon="6.36612">
        <ele>721.9</ele>
        <time>2019-11-01T08:07:49Z</time>
      </trkpt>
      <trkpt lat="43.9514" lon="6.36607">
        <ele>721.9</ele>
        <time>2019-11-01T08:07:50Z</time>
      </trkpt>
      <trkpt lat="43.95137" lon="6.36599">
        <ele>722</ele>
        <time>2019-11-01T08:07:52Z</time>
      </trkpt>
      <trkpt lat="43.95135" lon="6.36593">
        <ele>721.9</ele>
        <time>2019-11-01T08:07:53Z</time>
      </trkpt>
      <trkpt lat="43.95133" lon="6.36587">
        <ele>721.8</ele>
        <time>2019-11-01T08:07:55Z</time>
      </trkpt>
      <trkpt lat="43.95129" lon="6.36571">
        <ele>721.6</ele>
        <time>2019-11-01T08:07:57Z</time>
      </trkpt>
      <trkpt lat="43.95128" lon="6.36564">
        <ele>721.4</ele>
        <time>2019-11-01T08:07:58Z</time>
      </trkpt>
      <trkpt lat="43.95127" lon="6.36556">
        <ele>721.2</ele>
        <time>2019-11-01T08:08:00Z</time>
      </trkpt>
      <trkpt lat="43.95121" lon="6.3653">
        <ele>720.5</ele>
        <time>2019-11-01T08:08:03Z</time>
      </trkpt>
      <trkpt lat="43.9512" lon="6.36523">
        <ele>720.5</ele>
        <time>2019-11-01T08:08:04Z</time>
      </trkpt>
      <trkpt lat="43.95117" lon="6.36517">
        <ele>720.4</ele>
        <time>2019-11-01T08:08:05Z</time>
      </trkpt>
      <trkpt lat="43.95114" lon="6.36513">
        <ele>720.4</ele>
        <time>2019-11-01T08:08:06Z</time>
      </trkpt>
      <trkpt lat="43.95104" lon="6.36512">
        <ele>720.3</ele>
        <time>2019-11-01T08:08:08Z</time>
      </trkpt>
      <trkpt lat="43.951" lon="6.3651">
        <ele>720.3</ele>
        <time>2019-11-01T08:08:09Z</time>
      </trkpt>
      <trkpt lat="43.95091" lon="6.36504">
        <ele>720.2</ele>
        <time>2019-11-01T08:08:11Z</time>
      </trkpt>
      <trkpt lat="43.95084" lon="6.36497">
        <ele>720.2</ele>
        <time>2019-11-01T08:08:13Z</time>
      </trkpt>
      <trkpt lat="43.95077" lon="6.36489">
        <ele>720.3</ele>
        <time>2019-11-01T08:08:15Z</time>
      </trkpt>
      <trkpt lat="43.95074" lon="6.36485">
        <ele>720.3</ele>
        <time>2019-11-01T08:08:16Z</time>
      </trkpt>
      <trkpt lat="43.95066" lon="6.36477">
        <ele>720.4</ele>
        <time>2019-11-01T08:08:18Z</time>
      </trkpt>
      <trkpt lat="43.95063" lon="6.36472">
        <ele>720.5</ele>
        <time>2019-11-01T08:08:19Z</time>
      </trkpt>
      <trkpt lat="43.95056" lon="6.36466">
        <ele>720.6</ele>
        <time>2019-11-01T08:08:21Z</time>
      </trkpt>
      <trkpt lat="43.95049" lon="6.3646">
        <ele>720.7</ele>
        <time>2019-11-01T08:08:23Z</time>
      </trkpt>
      <trkpt lat="43.95041" lon="6.36453">
        <ele>720.9</ele>
        <time>2019-11-01T08:08:25Z</time>
      </trkpt>
      <trkpt lat="43.95037" lon="6.3645">
        <ele>721.1</ele>
        <time>2019-11-01T08:08:26Z</time>
      </trkpt>
      <trkpt lat="43.95028" lon="6.36448">
        <ele>721.5</ele>
        <time>2019-11-01T08:08:28Z</time>
      </trkpt>
      <trkpt lat="43.95019" lon="6.36452">
        <ele>722</ele>
        <time>2019-11-01T08:08:30Z</time>
      </trkpt>
      <trkpt lat="43.95015" lon="6.36455">
        <ele>722.3</ele>
        <time>2019-11-01T08:08:31Z</time>
      </trkpt>
      <trkpt lat="43.95007" lon="6.36462">
        <ele>722.8</ele>
        <time>2019-11-01T08:08:33Z</time>
      </trkpt>
      <trkpt lat="43.95003" lon="6.36465">
        <ele>723</ele>
        <time>2019-11-01T08:08:34Z</time>
      </trkpt>
      <trkpt lat="43.94999" lon="6.36467">
        <ele>723.3</ele>
        <time>2019-11-01T08:08:35Z</time>
      </trkpt>
      <trkpt lat="43.94992" lon="6.36469">
        <ele>723.8</ele>
        <time>2019-11-01T08:08:37Z</time>
      </trkpt>
      <trkpt lat="43.94985" lon="6.36465">
        <ele>724.6</ele>
        <time>2019-11-01T08:08:39Z</time>
      </trkpt>
      <trkpt lat="43.94981" lon="6.36458">
        <ele>725.4</ele>
        <time>2019-11-01T08:08:41Z</time>
      </trkpt>
      <trkpt lat="43.94978" lon="6.36454">
        <ele>725.8</ele>
        <time>2019-11-01T08:08:42Z</time>
      </trkpt>
      <trkpt lat="43.94976" lon="6.3645">
        <ele>726.1</ele>
        <time>2019-11-01T08:08:44Z</time>
      </trkpt>
      <trkpt lat="43.94967" lon="6.36435">
        <ele>727.7</ele>
        <time>2019-11-01T08:08:49Z</time>
      </trkpt>
      <trkpt lat="43.9496" lon="6.3643">
        <ele>728.5</ele>
        <time>2019-11-01T08:08:50Z</time>
      </trkpt>
      <trkpt lat="43.94957" lon="6.36431">
        <ele>728.8</ele>
        <time>2019-11-01T08:08:52Z</time>
      </trkpt>
      <trkpt lat="43.94951" lon="6.36434">
        <ele>729.3</ele>
        <time>2019-11-01T08:08:55Z</time>
      </trkpt>
      <trkpt lat="43.94946" lon="6.36437">
        <ele>729.8</ele>
        <time>2019-11-01T08:08:57Z</time>
      </trkpt>
      <trkpt lat="43.9494" lon="6.36441">
        <ele>730.6</ele>
        <time>2019-11-01T08:09:01Z</time>
      </trkpt>
      <trkpt lat="43.94936" lon="6.36442">
        <ele>730.9</ele>
        <time>2019-11-01T08:09:04Z</time>
      </trkpt>
      <trkpt lat="43.94929" lon="6.36444">
        <ele>731.7</ele>
        <time>2019-11-01T08:09:08Z</time>
      </trkpt>
      <trkpt lat="43.94926" lon="6.36447">
        <ele>731.9</ele>
        <time>2019-11-01T08:09:10Z</time>
      </trkpt>
      <trkpt lat="43.94923" lon="6.3645">
        <ele>732.1</ele>
        <time>2019-11-01T08:09:53Z</time>
      </trkpt>
      <trkpt lat="43.94921" lon="6.36455">
        <ele>732.3</ele>
        <time>2019-11-01T08:09:55Z</time>
      </trkpt>
      <trkpt lat="43.94919" lon="6.36463">
        <ele>732.6</ele>
        <time>2019-11-01T08:09:59Z</time>
      </trkpt>
      <trkpt lat="43.94917" lon="6.3647">
        <ele>732.7</ele>
        <time>2019-11-01T08:10:01Z</time>
      </trkpt>
      <trkpt lat="43.94915" lon="6.36475">
        <ele>732.7</ele>
        <time>2019-11-01T08:10:03Z</time>
      </trkpt>
      <trkpt lat="43.94905" lon="6.36492">
        <ele>732.6</ele>
        <time>2019-11-01T08:10:05Z</time>
      </trkpt>
      <trkpt lat="43.949" lon="6.36498">
        <ele>732.4</ele>
        <time>2019-11-01T08:10:06Z</time>
      </trkpt>
      <trkpt lat="43.94892" lon="6.36509">
        <ele>732</ele>
        <time>2019-11-01T08:10:08Z</time>
      </trkpt>
      <trkpt lat="43.94886" lon="6.36512">
        <ele>732.1</ele>
        <time>2019-11-01T08:10:11Z</time>
      </trkpt>
      <trkpt lat="43.94883" lon="6.36512">
        <ele>732.9</ele>
        <time>2019-11-01T08:10:12Z</time>
      </trkpt>
      <trkpt lat="43.94876" lon="6.36511">
        <ele>734.1</ele>
        <time>2019-11-01T08:10:15Z</time>
      </trkpt>
      <trkpt lat="43.94872" lon="6.3651">
        <ele>734.8</ele>
        <time>2019-11-01T08:10:17Z</time>
      </trkpt>
      <trkpt lat="43.94867" lon="6.36508">
        <ele>735.9</ele>
        <time>2019-11-01T08:10:20Z</time>
      </trkpt>
      <trkpt lat="43.94863" lon="6.36508">
        <ele>736.9</ele>
        <time>2019-11-01T08:10:22Z</time>
      </trkpt>
      <trkpt lat="43.94858" lon="6.36507">
        <ele>737.7</ele>
        <time>2019-11-01T08:10:24Z</time>
      </trkpt>
      <trkpt lat="43.94856" lon="6.36508">
        <ele>738.2</ele>
        <time>2019-11-01T08:10:26Z</time>
      </trkpt>
      <trkpt lat="43.94852" lon="6.36509">
        <ele>739.6</ele>
        <time>2019-11-01T08:10:27Z</time>
      </trkpt>
      <trkpt lat="43.94849" lon="6.3651">
        <ele>740.7</ele>
        <time>2019-11-01T08:10:29Z</time>
      </trkpt>
      <trkpt lat="43.94842" lon="6.36514">
        <ele>741.9</ele>
        <time>2019-11-01T08:10:34Z</time>
      </trkpt>
      <trkpt lat="43.94839" lon="6.36515">
        <ele>742.5</ele>
        <time>2019-11-01T08:10:35Z</time>
      </trkpt>
      <trkpt lat="43.94836" lon="6.36517">
        <ele>743.2</ele>
        <time>2019-11-01T08:10:39Z</time>
      </trkpt>
      <trkpt lat="43.94833" lon="6.36519">
        <ele>743.9</ele>
        <time>2019-11-01T08:10:41Z</time>
      </trkpt>
      <trkpt lat="43.9483" lon="6.36521">
        <ele>744.6</ele>
        <time>2019-11-01T08:10:44Z</time>
      </trkpt>
      <trkpt lat="43.94828" lon="6.36525">
        <ele>745.4</ele>
        <time>2019-11-01T08:10:45Z</time>
      </trkpt>
      <trkpt lat="43.94824" lon="6.36529">
        <ele>745.8</ele>
        <time>2019-11-01T08:10:48Z</time>
      </trkpt>
      <trkpt lat="43.94822" lon="6.36531">
        <ele>746.1</ele>
        <time>2019-11-01T08:10:50Z</time>
      </trkpt>
      <trkpt lat="43.94818" lon="6.36535">
        <ele>746.9</ele>
        <time>2019-11-01T08:10:54Z</time>
      </trkpt>
      <trkpt lat="43.94815" lon="6.36537">
        <ele>747.8</ele>
        <time>2019-11-01T08:10:56Z</time>
      </trkpt>
      <trkpt lat="43.94812" lon="6.36538">
        <ele>748</ele>
        <time>2019-11-01T08:10:58Z</time>
      </trkpt>
      <trkpt lat="43.94809" lon="6.3654">
        <ele>747.7</ele>
        <time>2019-11-01T08:11:01Z</time>
      </trkpt>
      <trkpt lat="43.94806" lon="6.36541">
        <ele>747.6</ele>
        <time>2019-11-01T08:11:03Z</time>
      </trkpt>
      <trkpt lat="43.94803" lon="6.36542">
        <ele>748</ele>
        <time>2019-11-01T08:11:06Z</time>
      </trkpt>
      <trkpt lat="43.94799" lon="6.36547">
        <ele>748.6</ele>
        <time>2019-11-01T08:11:09Z</time>
      </trkpt>
      <trkpt lat="43.94795" lon="6.3655">
        <ele>748.7</ele>
        <time>2019-11-01T08:11:11Z</time>
      </trkpt>
      <trkpt lat="43.94791" lon="6.36553">
        <ele>749.1</ele>
        <time>2019-11-01T08:11:13Z</time>
      </trkpt>
      <trkpt lat="43.94786" lon="6.36557">
        <ele>750</ele>
        <time>2019-11-01T08:11:16Z</time>
      </trkpt>
      <trkpt lat="43.94783" lon="6.36559">
        <ele>750.5</ele>
        <time>2019-11-01T08:11:19Z</time>
      </trkpt>
      <trkpt lat="43.9478" lon="6.3656">
        <ele>751</ele>
        <time>2019-11-01T08:11:22Z</time>
      </trkpt>
      <trkpt lat="43.94777" lon="6.36562">
        <ele>751.5</ele>
        <time>2019-11-01T08:11:24Z</time>
      </trkpt>
      <trkpt lat="43.94771" lon="6.36565">
        <ele>752.6</ele>
        <time>2019-11-01T08:11:27Z</time>
      </trkpt>
      <trkpt lat="43.94766" lon="6.36567">
        <ele>753.6</ele>
        <time>2019-11-01T08:11:29Z</time>
      </trkpt>
      <trkpt lat="43.94763" lon="6.36567">
        <ele>754.4</ele>
        <time>2019-11-01T08:11:32Z</time>
      </trkpt>
      <trkpt lat="43.94759" lon="6.36568">
        <ele>755.6</ele>
        <time>2019-11-01T08:11:34Z</time>
      </trkpt>
      <trkpt lat="43.94755" lon="6.36567">
        <ele>757.3</ele>
        <time>2019-11-01T08:11:36Z</time>
      </trkpt>
      <trkpt lat="43.94751" lon="6.36564">
        <ele>758.7</ele>
        <time>2019-11-01T08:11:39Z</time>
      </trkpt>
      <trkpt lat="43.94747" lon="6.36563">
        <ele>760</ele>
        <time>2019-11-01T08:11:42Z</time>
      </trkpt>
      <trkpt lat="43.94742" lon="6.36564">
        <ele>761.4</ele>
        <time>2019-11-01T08:11:45Z</time>
      </trkpt>
      <trkpt lat="43.94738" lon="6.36566">
        <ele>762.2</ele>
        <time>2019-11-01T08:11:48Z</time>
      </trkpt>
      <trkpt lat="43.94732" lon="6.36567">
        <ele>762.8</ele>
        <time>2019-11-01T08:11:50Z</time>
      </trkpt>
      <trkpt lat="43.94729" lon="6.36569">
        <ele>763.3</ele>
        <time>2019-11-01T08:11:53Z</time>
      </trkpt>
      <trkpt lat="43.94725" lon="6.36572">
        <ele>764.1</ele>
        <time>2019-11-01T08:11:55Z</time>
      </trkpt>
      <trkpt lat="43.94721" lon="6.36576">
        <ele>765.5</ele>
        <time>2019-11-01T08:11:58Z</time>
      </trkpt>
      <trkpt lat="43.94717" lon="6.36579">
        <ele>766.1</ele>
        <time>2019-11-01T08:12:00Z</time>
      </trkpt>
      <trkpt lat="43.94714" lon="6.36581">
        <ele>766.2</ele>
        <time>2019-11-01T08:12:02Z</time>
      </trkpt>
      <trkpt lat="43.9471" lon="6.36584">
        <ele>766.8</ele>
        <time>2019-11-01T08:12:06Z</time>
      </trkpt>
      <trkpt lat="43.94707" lon="6.36585">
        <ele>767.2</ele>
        <time>2019-11-01T08:12:07Z</time>
      </trkpt>
      <trkpt lat="43.94704" lon="6.36587">
        <ele>767.8</ele>
        <time>2019-11-01T08:12:09Z</time>
      </trkpt>
      <trkpt lat="43.94702" lon="6.36589">
        <ele>768.3</ele>
        <time>2019-11-01T08:12:10Z</time>
      </trkpt>
      <trkpt lat="43.94697" lon="6.3659">
        <ele>769.2</ele>
        <time>2019-11-01T08:12:13Z</time>
      </trkpt>
      <trkpt lat="43.94693" lon="6.36591">
        <ele>770.2</ele>
        <time>2019-11-01T08:12:16Z</time>
      </trkpt>
      <trkpt lat="43.94689" lon="6.36592">
        <ele>771.1</ele>
        <time>2019-11-01T08:12:19Z</time>
      </trkpt>
      <trkpt lat="43.94685" lon="6.36593">
        <ele>771.7</ele>
        <time>2019-11-01T08:12:21Z</time>
      </trkpt>
      <trkpt lat="43.94682" lon="6.36594">
        <ele>772</ele>
        <time>2019-11-01T08:12:23Z</time>
      </trkpt>
      <trkpt lat="43.94679" lon="6.36595">
        <ele>772.3</ele>
        <time>2019-11-01T08:12:25Z</time>
      </trkpt>
      <trkpt lat="43.94675" lon="6.36596">
        <ele>772.4</ele>
        <time>2019-11-01T08:12:27Z</time>
      </trkpt>
      <trkpt lat="43.94671" lon="6.36598">
        <ele>772.5</ele>
        <time>2019-11-01T08:12:31Z</time>
      </trkpt>
      <trkpt lat="43.94668" lon="6.36599">
        <ele>772.3</ele>
        <time>2019-11-01T08:12:32Z</time>
      </trkpt>
      <trkpt lat="43.94664" lon="6.36602">
        <ele>772</ele>
        <time>2019-11-01T08:12:35Z</time>
      </trkpt>
      <trkpt lat="43.94661" lon="6.36607">
        <ele>772.1</ele>
        <time>2019-11-01T08:12:38Z</time>
      </trkpt>
      <trkpt lat="43.94659" lon="6.3661">
        <ele>772.2</ele>
        <time>2019-11-01T08:12:41Z</time>
      </trkpt>
      <trkpt lat="43.94655" lon="6.36618">
        <ele>771.4</ele>
        <time>2019-11-01T08:12:45Z</time>
      </trkpt>
      <trkpt lat="43.94653" lon="6.36621">
        <ele>771.2</ele>
        <time>2019-11-01T08:12:47Z</time>
      </trkpt>
      <trkpt lat="43.9465" lon="6.36627">
        <ele>770.8</ele>
        <time>2019-11-01T08:12:50Z</time>
      </trkpt>
      <trkpt lat="43.94649" lon="6.36629">
        <ele>770.8</ele>
        <time>2019-11-01T08:12:52Z</time>
      </trkpt>
      <trkpt lat="43.94647" lon="6.36632">
        <ele>770.8</ele>
        <time>2019-11-01T08:12:55Z</time>
      </trkpt>
      <trkpt lat="43.94643" lon="6.36634">
        <ele>771.2</ele>
        <time>2019-11-01T08:12:58Z</time>
      </trkpt>
      <trkpt lat="43.94638" lon="6.36632">
        <ele>771.8</ele>
        <time>2019-11-01T08:13:01Z</time>
      </trkpt>
      <trkpt lat="43.94635" lon="6.36632">
        <ele>772.4</ele>
        <time>2019-11-01T08:13:20Z</time>
      </trkpt>
      <trkpt lat="43.94635" lon="6.36627">
        <ele>773.2</ele>
        <time>2019-11-01T08:13:23Z</time>
      </trkpt>
      <trkpt lat="43.94635" lon="6.36622">
        <ele>773.9</ele>
        <time>2019-11-01T08:13:24Z</time>
      </trkpt>
      <trkpt lat="43.94634" lon="6.36619">
        <ele>774.4</ele>
        <time>2019-11-01T08:13:25Z</time>
      </trkpt>
      <trkpt lat="43.94632" lon="6.36615">
        <ele>774.9</ele>
        <time>2019-11-01T08:13:28Z</time>
      </trkpt>
      <trkpt lat="43.94632" lon="6.36606">
        <ele>776.7</ele>
        <time>2019-11-01T08:13:31Z</time>
      </trkpt>
      <trkpt lat="43.94632" lon="6.36599">
        <ele>777.4</ele>
        <time>2019-11-01T08:13:33Z</time>
      </trkpt>
      <trkpt lat="43.94633" lon="6.36595">
        <ele>777.4</ele>
        <time>2019-11-01T08:13:35Z</time>
      </trkpt>
      <trkpt lat="43.94637" lon="6.36591">
        <ele>777.9</ele>
        <time>2019-11-01T08:13:38Z</time>
      </trkpt>
      <trkpt lat="43.9464" lon="6.36588">
        <ele>778.6</ele>
        <time>2019-11-01T08:13:39Z</time>
      </trkpt>
      <trkpt lat="43.94644" lon="6.36584">
        <ele>779.2</ele>
        <time>2019-11-01T08:13:42Z</time>
      </trkpt>
      <trkpt lat="43.94647" lon="6.36581">
        <ele>779.7</ele>
        <time>2019-11-01T08:13:45Z</time>
      </trkpt>
      <trkpt lat="43.94651" lon="6.36573">
        <ele>780.5</ele>
        <time>2019-11-01T08:13:49Z</time>
      </trkpt>
      <trkpt lat="43.94653" lon="6.3657">
        <ele>780.7</ele>
        <time>2019-11-01T08:13:50Z</time>
      </trkpt>
      <trkpt lat="43.94656" lon="6.36566">
        <ele>780.7</ele>
        <time>2019-11-01T08:13:53Z</time>
      </trkpt>
      <trkpt lat="43.94658" lon="6.36561">
        <ele>781</ele>
        <time>2019-11-01T08:13:56Z</time>
      </trkpt>
      <trkpt lat="43.9466" lon="6.36556">
        <ele>781.5</ele>
        <time>2019-11-01T08:13:58Z</time>
      </trkpt>
      <trkpt lat="43.94664" lon="6.36551">
        <ele>782.2</ele>
        <time>2019-11-01T08:14:01Z</time>
      </trkpt>
      <trkpt lat="43.94667" lon="6.36547">
        <ele>783</ele>
        <time>2019-11-01T08:14:04Z</time>
      </trkpt>
      <trkpt lat="43.94669" lon="6.36542">
        <ele>783.5</ele>
        <time>2019-11-01T08:14:05Z</time>
      </trkpt>
      <trkpt lat="43.9467" lon="6.36539">
        <ele>784</ele>
        <time>2019-11-01T08:14:07Z</time>
      </trkpt>
      <trkpt lat="43.94672" lon="6.36536">
        <ele>784.4</ele>
        <time>2019-11-01T08:14:10Z</time>
      </trkpt>
      <trkpt lat="43.94674" lon="6.36531">
        <ele>785</ele>
        <time>2019-11-01T08:14:13Z</time>
      </trkpt>
      <trkpt lat="43.94677" lon="6.36526">
        <ele>785.8</ele>
        <time>2019-11-01T08:14:15Z</time>
      </trkpt>
      <trkpt lat="43.94679" lon="6.36521">
        <ele>786.4</ele>
        <time>2019-11-01T08:14:18Z</time>
      </trkpt>
      <trkpt lat="43.94682" lon="6.36517">
        <ele>786.9</ele>
        <time>2019-11-01T08:14:20Z</time>
      </trkpt>
      <trkpt lat="43.94684" lon="6.36514">
        <ele>787.3</ele>
        <time>2019-11-01T08:14:25Z</time>
      </trkpt>
      <trkpt lat="43.94689" lon="6.36505">
        <ele>788</ele>
        <time>2019-11-01T08:14:29Z</time>
      </trkpt>
      <trkpt lat="43.94694" lon="6.365">
        <ele>787.6</ele>
        <time>2019-11-01T08:14:32Z</time>
      </trkpt>
      <trkpt lat="43.94697" lon="6.36498">
        <ele>787.3</ele>
        <time>2019-11-01T08:14:35Z</time>
      </trkpt>
      <trkpt lat="43.947" lon="6.36497">
        <ele>787</ele>
        <time>2019-11-01T08:14:37Z</time>
      </trkpt>
      <trkpt lat="43.94703" lon="6.36497">
        <ele>786.7</ele>
        <time>2019-11-01T08:14:39Z</time>
      </trkpt>
      <trkpt lat="43.94707" lon="6.36494">
        <ele>786.4</ele>
        <time>2019-11-01T08:14:40Z</time>
      </trkpt>
      <trkpt lat="43.94709" lon="6.36492">
        <ele>786.3</ele>
        <time>2019-11-01T08:14:42Z</time>
      </trkpt>
      <trkpt lat="43.94711" lon="6.36488">
        <ele>786.4</ele>
        <time>2019-11-01T08:14:45Z</time>
      </trkpt>
      <trkpt lat="43.94713" lon="6.3648">
        <ele>787.4</ele>
        <time>2019-11-01T08:14:51Z</time>
      </trkpt>
      <trkpt lat="43.94713" lon="6.36474">
        <ele>788.2</ele>
        <time>2019-11-01T08:14:55Z</time>
      </trkpt>
      <trkpt lat="43.94712" lon="6.36471">
        <ele>788.4</ele>
        <time>2019-11-01T08:14:56Z</time>
      </trkpt>
      <trkpt lat="43.94713" lon="6.36466">
        <ele>789.1</ele>
        <time>2019-11-01T08:15:00Z</time>
      </trkpt>
      <trkpt lat="43.94714" lon="6.36459">
        <ele>790.7</ele>
        <time>2019-11-01T08:15:02Z</time>
      </trkpt>
      <trkpt lat="43.94717" lon="6.36454">
        <ele>791.7</ele>
        <time>2019-11-01T08:15:05Z</time>
      </trkpt>
      <trkpt lat="43.94719" lon="6.3645">
        <ele>792.2</ele>
        <time>2019-11-01T08:15:06Z</time>
      </trkpt>
      <trkpt lat="43.94722" lon="6.36444">
        <ele>793</ele>
        <time>2019-11-01T08:15:09Z</time>
      </trkpt>
      <trkpt lat="43.94723" lon="6.36442">
        <ele>793.3</ele>
        <time>2019-11-01T08:15:12Z</time>
      </trkpt>
      <trkpt lat="43.94723" lon="6.36438">
        <ele>793.9</ele>
        <time>2019-11-01T08:15:15Z</time>
      </trkpt>
      <trkpt lat="43.94721" lon="6.36435">
        <ele>794.6</ele>
        <time>2019-11-01T08:15:16Z</time>
      </trkpt>
      <trkpt lat="43.94719" lon="6.36432">
        <ele>795.8</ele>
        <time>2019-11-01T08:15:20Z</time>
      </trkpt>
      <trkpt lat="43.94715" lon="6.36432">
        <ele>797.3</ele>
        <time>2019-11-01T08:15:21Z</time>
      </trkpt>
      <trkpt lat="43.9471" lon="6.36435">
        <ele>799.2</ele>
        <time>2019-11-01T08:15:23Z</time>
      </trkpt>
      <trkpt lat="43.94704" lon="6.3644">
        <ele>799.8</ele>
        <time>2019-11-01T08:15:27Z</time>
      </trkpt>
      <trkpt lat="43.94703" lon="6.36442">
        <ele>799.8</ele>
        <time>2019-11-01T08:15:28Z</time>
      </trkpt>
      <trkpt lat="43.94701" lon="6.36445">
        <ele>799.8</ele>
        <time>2019-11-01T08:15:31Z</time>
      </trkpt>
      <trkpt lat="43.94697" lon="6.3645">
        <ele>800.3</ele>
        <time>2019-11-01T08:15:36Z</time>
      </trkpt>
      <trkpt lat="43.94694" lon="6.36452">
        <ele>800.6</ele>
        <time>2019-11-01T08:15:38Z</time>
      </trkpt>
      <trkpt lat="43.94691" lon="6.36458">
        <ele>800.7</ele>
        <time>2019-11-01T08:15:42Z</time>
      </trkpt>
      <trkpt lat="43.94689" lon="6.36462">
        <ele>800.6</ele>
        <time>2019-11-01T08:15:44Z</time>
      </trkpt>
      <trkpt lat="43.94686" lon="6.36465">
        <ele>800.8</ele>
        <time>2019-11-01T08:15:47Z</time>
      </trkpt>
      <trkpt lat="43.94683" lon="6.36467">
        <ele>801.1</ele>
        <time>2019-11-01T08:15:49Z</time>
      </trkpt>
      <trkpt lat="43.94681" lon="6.3647">
        <ele>801.3</ele>
        <time>2019-11-01T08:15:52Z</time>
      </trkpt>
      <trkpt lat="43.94678" lon="6.36473">
        <ele>801.3</ele>
        <time>2019-11-01T08:15:55Z</time>
      </trkpt>
      <trkpt lat="43.94674" lon="6.36476">
        <ele>801.3</ele>
        <time>2019-11-01T08:15:57Z</time>
      </trkpt>
      <trkpt lat="43.94669" lon="6.36479">
        <ele>801.4</ele>
        <time>2019-11-01T08:15:59Z</time>
      </trkpt>
      <trkpt lat="43.94667" lon="6.36481">
        <ele>801.5</ele>
        <time>2019-11-01T08:16:02Z</time>
      </trkpt>
      <trkpt lat="43.94659" lon="6.36486">
        <ele>802</ele>
        <time>2019-11-01T08:16:05Z</time>
      </trkpt>
      <trkpt lat="43.94655" lon="6.36481">
        <ele>803.2</ele>
        <time>2019-11-01T08:16:09Z</time>
      </trkpt>
      <trkpt lat="43.94654" lon="6.36479">
        <ele>804.1</ele>
        <time>2019-11-01T08:16:10Z</time>
      </trkpt>
      <trkpt lat="43.94655" lon="6.36473">
        <ele>805.4</ele>
        <time>2019-11-01T08:16:12Z</time>
      </trkpt>
      <trkpt lat="43.94657" lon="6.36469">
        <ele>806.2</ele>
        <time>2019-11-01T08:16:14Z</time>
      </trkpt>
      <trkpt lat="43.94661" lon="6.36463">
        <ele>806.9</ele>
        <time>2019-11-01T08:16:18Z</time>
      </trkpt>
      <trkpt lat="43.94663" lon="6.36459">
        <ele>807.3</ele>
        <time>2019-11-01T08:16:20Z</time>
      </trkpt>
      <trkpt lat="43.94664" lon="6.36455">
        <ele>807.7</ele>
        <time>2019-11-01T08:16:23Z</time>
      </trkpt>
      <trkpt lat="43.94668" lon="6.36449">
        <ele>808.3</ele>
        <time>2019-11-01T08:16:28Z</time>
      </trkpt>
      <trkpt lat="43.9467" lon="6.36445">
        <ele>809.2</ele>
        <time>2019-11-01T08:16:32Z</time>
      </trkpt>
      <trkpt lat="43.94675" lon="6.36435">
        <ele>812.1</ele>
        <time>2019-11-01T08:16:34Z</time>
      </trkpt>
      <trkpt lat="43.94676" lon="6.3643">
        <ele>812.9</ele>
        <time>2019-11-01T08:16:36Z</time>
      </trkpt>
      <trkpt lat="43.94675" lon="6.36425">
        <ele>814.7</ele>
        <time>2019-11-01T08:16:38Z</time>
      </trkpt>
      <trkpt lat="43.94671" lon="6.36424">
        <ele>816.5</ele>
        <time>2019-11-01T08:16:40Z</time>
      </trkpt>
      <trkpt lat="43.94666" lon="6.36427">
        <ele>816.8</ele>
        <time>2019-11-01T08:16:43Z</time>
      </trkpt>
      <trkpt lat="43.94662" lon="6.36432">
        <ele>816.7</ele>
        <time>2019-11-01T08:16:46Z</time>
      </trkpt>
      <trkpt lat="43.9466" lon="6.36435">
        <ele>816.9</ele>
        <time>2019-11-01T08:16:48Z</time>
      </trkpt>
      <trkpt lat="43.94657" lon="6.36439">
        <ele>817.2</ele>
        <time>2019-11-01T08:16:51Z</time>
      </trkpt>
      <trkpt lat="43.94654" lon="6.36442">
        <ele>817.3</ele>
        <time>2019-11-01T08:16:53Z</time>
      </trkpt>
      <trkpt lat="43.9465" lon="6.36445">
        <ele>817.5</ele>
        <time>2019-11-01T08:16:59Z</time>
      </trkpt>
      <trkpt lat="43.94648" lon="6.36447">
        <ele>817.2</ele>
        <time>2019-11-01T08:17:02Z</time>
      </trkpt>
      <trkpt lat="43.94642" lon="6.36452">
        <ele>816.6</ele>
        <time>2019-11-01T08:17:05Z</time>
      </trkpt>
      <trkpt lat="43.94639" lon="6.36454">
        <ele>816.7</ele>
        <time>2019-11-01T08:17:06Z</time>
      </trkpt>
      <trkpt lat="43.94635" lon="6.36459">
        <ele>816.9</ele>
        <time>2019-11-01T08:17:10Z</time>
      </trkpt>
      <trkpt lat="43.94632" lon="6.36465">
        <ele>817.1</ele>
        <time>2019-11-01T08:17:12Z</time>
      </trkpt>
      <trkpt lat="43.94629" lon="6.3647">
        <ele>816.6</ele>
        <time>2019-11-01T08:17:16Z</time>
      </trkpt>
      <trkpt lat="43.94626" lon="6.36476">
        <ele>815.5</ele>
        <time>2019-11-01T08:17:20Z</time>
      </trkpt>
      <trkpt lat="43.94624" lon="6.3648">
        <ele>814.6</ele>
        <time>2019-11-01T08:17:22Z</time>
      </trkpt>
      <trkpt lat="43.9462" lon="6.36482">
        <ele>813.7</ele>
        <time>2019-11-01T08:17:25Z</time>
      </trkpt>
      <trkpt lat="43.94615" lon="6.36485">
        <ele>813.8</ele>
        <time>2019-11-01T08:17:28Z</time>
      </trkpt>
      <trkpt lat="43.9461" lon="6.36481">
        <ele>815.5</ele>
        <time>2019-11-01T08:17:30Z</time>
      </trkpt>
      <trkpt lat="43.94609" lon="6.36477">
        <ele>817.1</ele>
        <time>2019-11-01T08:17:32Z</time>
      </trkpt>
      <trkpt lat="43.94608" lon="6.36467">
        <ele>818.9</ele>
        <time>2019-11-01T08:17:36Z</time>
      </trkpt>
      <trkpt lat="43.94609" lon="6.3646">
        <ele>820.8</ele>
        <time>2019-11-01T08:17:40Z</time>
      </trkpt>
      <trkpt lat="43.9461" lon="6.36456">
        <ele>822.5</ele>
        <time>2019-11-01T08:17:42Z</time>
      </trkpt>
      <trkpt lat="43.94612" lon="6.3645">
        <ele>823.9</ele>
        <time>2019-11-01T08:17:45Z</time>
      </trkpt>
      <trkpt lat="43.94614" lon="6.36446">
        <ele>824.8</ele>
        <time>2019-11-01T08:17:47Z</time>
      </trkpt>
      <trkpt lat="43.94616" lon="6.36442">
        <ele>824.8</ele>
        <time>2019-11-01T08:17:48Z</time>
      </trkpt>
      <trkpt lat="43.94618" lon="6.36438">
        <ele>824.8</ele>
        <time>2019-11-01T08:17:51Z</time>
      </trkpt>
      <trkpt lat="43.94622" lon="6.36432">
        <ele>826.1</ele>
        <time>2019-11-01T08:17:55Z</time>
      </trkpt>
      <trkpt lat="43.94624" lon="6.36428">
        <ele>826.9</ele>
        <time>2019-11-01T08:17:57Z</time>
      </trkpt>
      <trkpt lat="43.94627" lon="6.36425">
        <ele>827.5</ele>
        <time>2019-11-01T08:18:00Z</time>
      </trkpt>
      <trkpt lat="43.9463" lon="6.36421">
        <ele>827.7</ele>
        <time>2019-11-01T08:18:03Z</time>
      </trkpt>
      <trkpt lat="43.94633" lon="6.36417">
        <ele>827.6</ele>
        <time>2019-11-01T08:18:06Z</time>
      </trkpt>
      <trkpt lat="43.94636" lon="6.36414">
        <ele>827.8</ele>
        <time>2019-11-01T08:18:08Z</time>
      </trkpt>
      <trkpt lat="43.94641" lon="6.3641">
        <ele>828.2</ele>
        <time>2019-11-01T08:18:14Z</time>
      </trkpt>
      <trkpt lat="43.94643" lon="6.36408">
        <ele>828.3</ele>
        <time>2019-11-01T08:18:15Z</time>
      </trkpt>
      <trkpt lat="43.94645" lon="6.36406">
        <ele>828.5</ele>
        <time>2019-11-01T08:18:19Z</time>
      </trkpt>
      <trkpt lat="43.94648" lon="6.36402">
        <ele>828.7</ele>
        <time>2019-11-01T08:18:22Z</time>
      </trkpt>
      <trkpt lat="43.94651" lon="6.36399">
        <ele>828.4</ele>
        <time>2019-11-01T08:18:26Z</time>
      </trkpt>
      <trkpt lat="43.94656" lon="6.36395">
        <ele>828.1</ele>
        <time>2019-11-01T08:18:30Z</time>
      </trkpt>
      <trkpt lat="43.94659" lon="6.36392">
        <ele>828.2</ele>
        <time>2019-11-01T08:18:31Z</time>
      </trkpt>
      <trkpt lat="43.94662" lon="6.3639">
        <ele>828.2</ele>
        <time>2019-11-01T08:18:33Z</time>
      </trkpt>
      <trkpt lat="43.94664" lon="6.36387">
        <ele>827.8</ele>
        <time>2019-11-01T08:18:36Z</time>
      </trkpt>
      <trkpt lat="43.94667" lon="6.36383">
        <ele>827.3</ele>
        <time>2019-11-01T08:18:40Z</time>
      </trkpt>
      <trkpt lat="43.94672" lon="6.36377">
        <ele>826.9</ele>
        <time>2019-11-01T08:18:43Z</time>
      </trkpt>
      <trkpt lat="43.94675" lon="6.36374">
        <ele>826.6</ele>
        <time>2019-11-01T08:18:45Z</time>
      </trkpt>
      <trkpt lat="43.94681" lon="6.36365">
        <ele>825.7</ele>
        <time>2019-11-01T08:18:47Z</time>
      </trkpt>
      <trkpt lat="43.94684" lon="6.36358">
        <ele>826.3</ele>
        <time>2019-11-01T08:18:49Z</time>
      </trkpt>
      <trkpt lat="43.94685" lon="6.36353">
        <ele>826.8</ele>
        <time>2019-11-01T08:18:52Z</time>
      </trkpt>
      <trkpt lat="43.94683" lon="6.36349">
        <ele>828</ele>
        <time>2019-11-01T08:18:54Z</time>
      </trkpt>
      <trkpt lat="43.94679" lon="6.36344">
        <ele>829.8</ele>
        <time>2019-11-01T08:18:56Z</time>
      </trkpt>
      <trkpt lat="43.94676" lon="6.36343">
        <ele>830.4</ele>
        <time>2019-11-01T08:18:59Z</time>
      </trkpt>
      <trkpt lat="43.94673" lon="6.36343">
        <ele>831</ele>
        <time>2019-11-01T08:19:01Z</time>
      </trkpt>
      <trkpt lat="43.94668" lon="6.36347">
        <ele>833.6</ele>
        <time>2019-11-01T08:19:05Z</time>
      </trkpt>
      <trkpt lat="43.94664" lon="6.36349">
        <ele>834.5</ele>
        <time>2019-11-01T08:19:06Z</time>
      </trkpt>
      <trkpt lat="43.94661" lon="6.3635">
        <ele>835.1</ele>
        <time>2019-11-01T08:19:08Z</time>
      </trkpt>
      <trkpt lat="43.94658" lon="6.36349">
        <ele>836</ele>
        <time>2019-11-01T08:19:12Z</time>
      </trkpt>
      <trkpt lat="43.94655" lon="6.36348">
        <ele>837</ele>
        <time>2019-11-01T08:19:14Z</time>
      </trkpt>
      <trkpt lat="43.94652" lon="6.36346">
        <ele>838</ele>
        <time>2019-11-01T08:19:18Z</time>
      </trkpt>
      <trkpt lat="43.94649" lon="6.36345">
        <ele>838.9</ele>
        <time>2019-11-01T08:19:20Z</time>
      </trkpt>
      <trkpt lat="43.94646" lon="6.36345">
        <ele>840</ele>
        <time>2019-11-01T08:19:23Z</time>
      </trkpt>
      <trkpt lat="43.94642" lon="6.36344">
        <ele>841.1</ele>
        <time>2019-11-01T08:19:26Z</time>
      </trkpt>
      <trkpt lat="43.94638" lon="6.36343">
        <ele>842.1</ele>
        <time>2019-11-01T08:19:30Z</time>
      </trkpt>
      <trkpt lat="43.94634" lon="6.36342">
        <ele>842.8</ele>
        <time>2019-11-01T08:19:33Z</time>
      </trkpt>
      <trkpt lat="43.94631" lon="6.36342">
        <ele>843.9</ele>
        <time>2019-11-01T08:19:37Z</time>
      </trkpt>
      <trkpt lat="43.94627" lon="6.36341">
        <ele>845.1</ele>
        <time>2019-11-01T08:19:40Z</time>
      </trkpt>
      <trkpt lat="43.94624" lon="6.36342">
        <ele>845.8</ele>
        <time>2019-11-01T08:19:44Z</time>
      </trkpt>
      <trkpt lat="43.9462" lon="6.36341">
        <ele>846.8</ele>
        <time>2019-11-01T08:19:46Z</time>
      </trkpt>
      <trkpt lat="43.94616" lon="6.36341">
        <ele>847.9</ele>
        <time>2019-11-01T08:19:49Z</time>
      </trkpt>
      <trkpt lat="43.94612" lon="6.36341">
        <ele>849</ele>
        <time>2019-11-01T08:19:52Z</time>
      </trkpt>
      <trkpt lat="43.94608" lon="6.3634">
        <ele>849.8</ele>
        <time>2019-11-01T08:19:53Z</time>
      </trkpt>
      <trkpt lat="43.94604" lon="6.3634">
        <ele>849.8</ele>
        <time>2019-11-01T08:19:58Z</time>
      </trkpt>
      <trkpt lat="43.946" lon="6.3634">
        <ele>849.8</ele>
        <time>2019-11-01T08:20:00Z</time>
      </trkpt>
      <trkpt lat="43.94597" lon="6.3634">
        <ele>850.4</ele>
        <time>2019-11-01T08:20:04Z</time>
      </trkpt>
      <trkpt lat="43.94594" lon="6.3634">
        <ele>851.3</ele>
        <time>2019-11-01T08:20:06Z</time>
      </trkpt>
      <trkpt lat="43.94591" lon="6.3634">
        <ele>852</ele>
        <time>2019-11-01T08:20:08Z</time>
      </trkpt>
      <trkpt lat="43.94588" lon="6.3634">
        <ele>852.8</ele>
        <time>2019-11-01T08:20:09Z</time>
      </trkpt>
      <trkpt lat="43.94581" lon="6.3634">
        <ele>854.6</ele>
        <time>2019-11-01T08:20:11Z</time>
      </trkpt>
      <trkpt lat="43.94576" lon="6.3634">
        <ele>855.9</ele>
        <time>2019-11-01T08:20:14Z</time>
      </trkpt>
      <trkpt lat="43.94573" lon="6.3634">
        <ele>856.7</ele>
        <time>2019-11-01T08:20:18Z</time>
      </trkpt>
      <trkpt lat="43.94569" lon="6.3634">
        <ele>857.7</ele>
        <time>2019-11-01T08:20:21Z</time>
      </trkpt>
      <trkpt lat="43.94566" lon="6.36341">
        <ele>858.3</ele>
        <time>2019-11-01T08:20:24Z</time>
      </trkpt>
      <trkpt lat="43.94563" lon="6.36341">
        <ele>858.6</ele>
        <time>2019-11-01T08:20:26Z</time>
      </trkpt>
      <trkpt lat="43.94559" lon="6.36342">
        <ele>859</ele>
        <time>2019-11-01T08:20:30Z</time>
      </trkpt>
      <trkpt lat="43.94555" lon="6.36343">
        <ele>859.7</ele>
        <time>2019-11-01T08:20:32Z</time>
      </trkpt>
      <trkpt lat="43.94549" lon="6.36343">
        <ele>861.3</ele>
        <time>2019-11-01T08:20:36Z</time>
      </trkpt>
      <trkpt lat="43.94544" lon="6.36344">
        <ele>862.2</ele>
        <time>2019-11-01T08:20:37Z</time>
      </trkpt>
      <trkpt lat="43.94541" lon="6.36344">
        <ele>862.7</ele>
        <time>2019-11-01T08:20:41Z</time>
      </trkpt>
      <trkpt lat="43.94536" lon="6.36345">
        <ele>863.8</ele>
        <time>2019-11-01T08:20:44Z</time>
      </trkpt>
      <trkpt lat="43.94531" lon="6.36345">
        <ele>865.3</ele>
        <time>2019-11-01T08:20:48Z</time>
      </trkpt>
      <trkpt lat="43.94527" lon="6.36345">
        <ele>866</ele>
        <time>2019-11-01T08:20:52Z</time>
      </trkpt>
      <trkpt lat="43.94524" lon="6.36346">
        <ele>866.6</ele>
        <time>2019-11-01T08:20:54Z</time>
      </trkpt>
      <trkpt lat="43.94521" lon="6.36346">
        <ele>867.3</ele>
        <time>2019-11-01T08:20:57Z</time>
      </trkpt>
      <trkpt lat="43.94517" lon="6.36348">
        <ele>868.2</ele>
        <time>2019-11-01T08:20:59Z</time>
      </trkpt>
      <trkpt lat="43.94512" lon="6.3635">
        <ele>869.4</ele>
        <time>2019-11-01T08:21:03Z</time>
      </trkpt>
      <trkpt lat="43.9451" lon="6.3635">
        <ele>869.7</ele>
        <time>2019-11-01T08:21:05Z</time>
      </trkpt>
      <trkpt lat="43.94507" lon="6.36352">
        <ele>870.2</ele>
        <time>2019-11-01T08:21:07Z</time>
      </trkpt>
      <trkpt lat="43.94503" lon="6.36353">
        <ele>870.9</ele>
        <time>2019-11-01T08:21:12Z</time>
      </trkpt>
      <trkpt lat="43.945" lon="6.36353">
        <ele>871.5</ele>
        <time>2019-11-01T08:21:14Z</time>
      </trkpt>
      <trkpt lat="43.94496" lon="6.36354">
        <ele>872.2</ele>
        <time>2019-11-01T08:21:16Z</time>
      </trkpt>
      <trkpt lat="43.94492" lon="6.36355">
        <ele>872.9</ele>
        <time>2019-11-01T08:21:19Z</time>
      </trkpt>
      <trkpt lat="43.94487" lon="6.36357">
        <ele>873.6</ele>
        <time>2019-11-01T08:21:23Z</time>
      </trkpt>
      <trkpt lat="43.94484" lon="6.36358">
        <ele>874.2</ele>
        <time>2019-11-01T08:21:26Z</time>
      </trkpt>
      <trkpt lat="43.94481" lon="6.36359">
        <ele>874.9</ele>
        <time>2019-11-01T08:21:29Z</time>
      </trkpt>
      <trkpt lat="43.94477" lon="6.36361">
        <ele>875.7</ele>
        <time>2019-11-01T08:21:31Z</time>
      </trkpt>
      <trkpt lat="43.94475" lon="6.36363">
        <ele>876.1</ele>
        <time>2019-11-01T08:21:33Z</time>
      </trkpt>
      <trkpt lat="43.94472" lon="6.36364">
        <ele>876.6</ele>
        <time>2019-11-01T08:21:35Z</time>
      </trkpt>
      <trkpt lat="43.94469" lon="6.36366">
        <ele>877.1</ele>
        <time>2019-11-01T08:21:38Z</time>
      </trkpt>
      <trkpt lat="43.94466" lon="6.36367">
        <ele>877.3</ele>
        <time>2019-11-01T08:21:39Z</time>
      </trkpt>
      <trkpt lat="43.94462" lon="6.36368">
        <ele>877.5</ele>
        <time>2019-11-01T08:21:40Z</time>
      </trkpt>
      <trkpt lat="43.94458" lon="6.3637">
        <ele>877.7</ele>
        <time>2019-11-01T08:21:43Z</time>
      </trkpt>
      <trkpt lat="43.94455" lon="6.36372">
        <ele>877.9</ele>
        <time>2019-11-01T08:21:45Z</time>
      </trkpt>
      <trkpt lat="43.94452" lon="6.36374">
        <ele>878.1</ele>
        <time>2019-11-01T08:21:48Z</time>
      </trkpt>
      <trkpt lat="43.9445" lon="6.36376">
        <ele>878.1</ele>
        <time>2019-11-01T08:21:51Z</time>
      </trkpt>
      <trkpt lat="43.94447" lon="6.36377">
        <ele>878.1</ele>
        <time>2019-11-01T08:21:52Z</time>
      </trkpt>
      <trkpt lat="43.94442" lon="6.3638">
        <ele>878</ele>
        <time>2019-11-01T08:21:55Z</time>
      </trkpt>
      <trkpt lat="43.94437" lon="6.36385">
        <ele>877.9</ele>
        <time>2019-11-01T08:21:59Z</time>
      </trkpt>
      <trkpt lat="43.94435" lon="6.36389">
        <ele>877.9</ele>
        <time>2019-11-01T08:22:02Z</time>
      </trkpt>
      <trkpt lat="43.94432" lon="6.36392">
        <ele>877.9</ele>
        <time>2019-11-01T08:22:04Z</time>
      </trkpt>
      <trkpt lat="43.94428" lon="6.36394">
        <ele>877.7</ele>
        <time>2019-11-01T08:22:08Z</time>
      </trkpt>
      <trkpt lat="43.94423" lon="6.36396">
        <ele>877.3</ele>
        <time>2019-11-01T08:22:11Z</time>
      </trkpt>
      <trkpt lat="43.94421" lon="6.36397">
        <ele>877</ele>
        <time>2019-11-01T08:22:13Z</time>
      </trkpt>
      <trkpt lat="43.94417" lon="6.36398">
        <ele>876.3</ele>
        <time>2019-11-01T08:22:16Z</time>
      </trkpt>
      <trkpt lat="43.94409" lon="6.36399">
        <ele>877.2</ele>
        <time>2019-11-01T08:22:21Z</time>
      </trkpt>
      <trkpt lat="43.94406" lon="6.36399">
        <ele>877.5</ele>
        <time>2019-11-01T08:22:23Z</time>
      </trkpt>
      <trkpt lat="43.94401" lon="6.36399">
        <ele>877.9</ele>
        <time>2019-11-01T08:22:26Z</time>
      </trkpt>
      <trkpt lat="43.94397" lon="6.36399">
        <ele>878.3</ele>
        <time>2019-11-01T08:22:29Z</time>
      </trkpt>
      <trkpt lat="43.94393" lon="6.36401">
        <ele>878.6</ele>
        <time>2019-11-01T08:22:32Z</time>
      </trkpt>
      <trkpt lat="43.94389" lon="6.36402">
        <ele>878.3</ele>
        <time>2019-11-01T08:22:33Z</time>
      </trkpt>
      <trkpt lat="43.94382" lon="6.36405">
        <ele>877.5</ele>
        <time>2019-11-01T08:22:39Z</time>
      </trkpt>
      <trkpt lat="43.94379" lon="6.36406">
        <ele>877.5</ele>
        <time>2019-11-01T08:22:41Z</time>
      </trkpt>
      <trkpt lat="43.94374" lon="6.36407">
        <ele>877.8</ele>
        <time>2019-11-01T08:22:44Z</time>
      </trkpt>
      <trkpt lat="43.94371" lon="6.36407">
        <ele>878.2</ele>
        <time>2019-11-01T08:22:47Z</time>
      </trkpt>
      <trkpt lat="43.94367" lon="6.36407">
        <ele>878.5</ele>
        <time>2019-11-01T08:22:49Z</time>
      </trkpt>
      <trkpt lat="43.94364" lon="6.36407">
        <ele>878.8</ele>
        <time>2019-11-01T08:22:51Z</time>
      </trkpt>
      <trkpt lat="43.94358" lon="6.36406">
        <ele>879.2</ele>
        <time>2019-11-01T08:22:55Z</time>
      </trkpt>
      <trkpt lat="43.94354" lon="6.36406">
        <ele>879.5</ele>
        <time>2019-11-01T08:22:59Z</time>
      </trkpt>
      <trkpt lat="43.94351" lon="6.36404">
        <ele>880</ele>
        <time>2019-11-01T08:23:01Z</time>
      </trkpt>
      <trkpt lat="43.94347" lon="6.36402">
        <ele>881.1</ele>
        <time>2019-11-01T08:23:03Z</time>
      </trkpt>
      <trkpt lat="43.94342" lon="6.36398">
        <ele>882.5</ele>
        <time>2019-11-01T08:23:05Z</time>
      </trkpt>
      <trkpt lat="43.94336" lon="6.36393">
        <ele>884.1</ele>
        <time>2019-11-01T08:23:10Z</time>
      </trkpt>
      <trkpt lat="43.94333" lon="6.36391">
        <ele>884.7</ele>
        <time>2019-11-01T08:23:12Z</time>
      </trkpt>
      <trkpt lat="43.9433" lon="6.36388">
        <ele>885.7</ele>
        <time>2019-11-01T08:23:14Z</time>
      </trkpt>
      <trkpt lat="43.94327" lon="6.36385">
        <ele>886.4</ele>
        <time>2019-11-01T08:23:17Z</time>
      </trkpt>
      <trkpt lat="43.94321" lon="6.36384">
        <ele>887.7</ele>
        <time>2019-11-01T08:23:21Z</time>
      </trkpt>
      <trkpt lat="43.94317" lon="6.36382">
        <ele>888.5</ele>
        <time>2019-11-01T08:23:25Z</time>
      </trkpt>
      <trkpt lat="43.94315" lon="6.3638">
        <ele>889.2</ele>
        <time>2019-11-01T08:23:26Z</time>
      </trkpt>
      <trkpt lat="43.94312" lon="6.36378">
        <ele>890.3</ele>
        <time>2019-11-01T08:23:29Z</time>
      </trkpt>
      <trkpt lat="43.94309" lon="6.36376">
        <ele>891.5</ele>
        <time>2019-11-01T08:23:30Z</time>
      </trkpt>
      <trkpt lat="43.94306" lon="6.36373">
        <ele>892.8</ele>
        <time>2019-11-01T08:23:34Z</time>
      </trkpt>
      <trkpt lat="43.94303" lon="6.36369">
        <ele>894.1</ele>
        <time>2019-11-01T08:23:37Z</time>
      </trkpt>
      <trkpt lat="43.94299" lon="6.36365">
        <ele>895.2</ele>
        <time>2019-11-01T08:23:41Z</time>
      </trkpt>
      <trkpt lat="43.94295" lon="6.36362">
        <ele>896.3</ele>
        <time>2019-11-01T08:23:45Z</time>
      </trkpt>
      <trkpt lat="43.94293" lon="6.36361">
        <ele>896.7</ele>
        <time>2019-11-01T08:23:46Z</time>
      </trkpt>
      <trkpt lat="43.94289" lon="6.36359">
        <ele>897.5</ele>
        <time>2019-11-01T08:23:50Z</time>
      </trkpt>
      <trkpt lat="43.94284" lon="6.36356">
        <ele>898.6</ele>
        <time>2019-11-01T08:23:52Z</time>
      </trkpt>
      <trkpt lat="43.9428" lon="6.36354">
        <ele>899.8</ele>
        <time>2019-11-01T08:23:54Z</time>
      </trkpt>
      <trkpt lat="43.94276" lon="6.36351">
        <ele>900.9</ele>
        <time>2019-11-01T08:23:59Z</time>
      </trkpt>
      <trkpt lat="43.94273" lon="6.36348">
        <ele>901.3</ele>
        <time>2019-11-01T08:24:01Z</time>
      </trkpt>
      <trkpt lat="43.9427" lon="6.36346">
        <ele>901.7</ele>
        <time>2019-11-01T08:24:05Z</time>
      </trkpt>
      <trkpt lat="43.94266" lon="6.36343">
        <ele>902.2</ele>
        <time>2019-11-01T08:24:11Z</time>
      </trkpt>
      <trkpt lat="43.94264" lon="6.36341">
        <ele>902.5</ele>
        <time>2019-11-01T08:24:12Z</time>
      </trkpt>
      <trkpt lat="43.94259" lon="6.36339">
        <ele>903.3</ele>
        <time>2019-11-01T08:24:15Z</time>
      </trkpt>
      <trkpt lat="43.94255" lon="6.36338">
        <ele>904.3</ele>
        <time>2019-11-01T08:24:16Z</time>
      </trkpt>
      <trkpt lat="43.94248" lon="6.36338">
        <ele>905.4</ele>
        <time>2019-11-01T08:24:21Z</time>
      </trkpt>
      <trkpt lat="43.94244" lon="6.36335">
        <ele>905.9</ele>
        <time>2019-11-01T08:24:23Z</time>
      </trkpt>
      <trkpt lat="43.9424" lon="6.3633">
        <ele>906.5</ele>
        <time>2019-11-01T08:24:27Z</time>
      </trkpt>
      <trkpt lat="43.94238" lon="6.36326">
        <ele>906.8</ele>
        <time>2019-11-01T08:24:28Z</time>
      </trkpt>
      <trkpt lat="43.94234" lon="6.36321">
        <ele>907.2</ele>
        <time>2019-11-01T08:24:31Z</time>
      </trkpt>
      <trkpt lat="43.94231" lon="6.36316">
        <ele>907.9</ele>
        <time>2019-11-01T08:24:35Z</time>
      </trkpt>
      <trkpt lat="43.9423" lon="6.36312">
        <ele>908.8</ele>
        <time>2019-11-01T08:24:39Z</time>
      </trkpt>
      <trkpt lat="43.94229" lon="6.36309">
        <ele>909.4</ele>
        <time>2019-11-01T08:24:43Z</time>
      </trkpt>
      <trkpt lat="43.94227" lon="6.36305">
        <ele>910.1</ele>
        <time>2019-11-01T08:24:45Z</time>
      </trkpt>
      <trkpt lat="43.94225" lon="6.363">
        <ele>911.1</ele>
        <time>2019-11-01T08:24:47Z</time>
      </trkpt>
      <trkpt lat="43.94223" lon="6.36296">
        <ele>911.7</ele>
        <time>2019-11-01T08:24:50Z</time>
      </trkpt>
      <trkpt lat="43.94222" lon="6.36291">
        <ele>912.5</ele>
        <time>2019-11-01T08:24:51Z</time>
      </trkpt>
      <trkpt lat="43.9422" lon="6.36286">
        <ele>913.4</ele>
        <time>2019-11-01T08:24:54Z</time>
      </trkpt>
      <trkpt lat="43.94218" lon="6.36281">
        <ele>914.1</ele>
        <time>2019-11-01T08:24:57Z</time>
      </trkpt>
      <trkpt lat="43.94217" lon="6.36277">
        <ele>914.8</ele>
        <time>2019-11-01T08:24:58Z</time>
      </trkpt>
      <trkpt lat="43.94217" lon="6.3627">
        <ele>915.7</ele>
        <time>2019-11-01T08:25:01Z</time>
      </trkpt>
      <trkpt lat="43.94218" lon="6.36266">
        <ele>916.5</ele>
        <time>2019-11-01T08:25:03Z</time>
      </trkpt>
      <trkpt lat="43.94214" lon="6.36256">
        <ele>918</ele>
        <time>2019-11-01T08:25:09Z</time>
      </trkpt>
      <trkpt lat="43.94212" lon="6.3625">
        <ele>918.6</ele>
        <time>2019-11-01T08:25:12Z</time>
      </trkpt>
      <trkpt lat="43.94211" lon="6.36246">
        <ele>919.8</ele>
        <time>2019-11-01T08:25:16Z</time>
      </trkpt>
      <trkpt lat="43.94213" lon="6.3624">
        <ele>920.4</ele>
        <time>2019-11-01T08:25:20Z</time>
      </trkpt>
      <trkpt lat="43.94215" lon="6.36236">
        <ele>920.9</ele>
        <time>2019-11-01T08:25:21Z</time>
      </trkpt>
      <trkpt lat="43.94218" lon="6.36235">
        <ele>921.3</ele>
        <time>2019-11-01T08:25:38Z</time>
      </trkpt>
      <trkpt lat="43.94215" lon="6.36234">
        <ele>921.7</ele>
        <time>2019-11-01T08:27:13Z</time>
      </trkpt>
      <trkpt lat="43.94212" lon="6.36233">
        <ele>922.2</ele>
        <time>2019-11-01T08:27:16Z</time>
      </trkpt>
      <trkpt lat="43.94209" lon="6.36228">
        <ele>923</ele>
        <time>2019-11-01T08:27:20Z</time>
      </trkpt>
      <trkpt lat="43.94208" lon="6.36221">
        <ele>924</ele>
        <time>2019-11-01T08:27:22Z</time>
      </trkpt>
      <trkpt lat="43.94208" lon="6.36217">
        <ele>924.8</ele>
        <time>2019-11-01T08:27:24Z</time>
      </trkpt>
      <trkpt lat="43.94206" lon="6.36212">
        <ele>925.9</ele>
        <time>2019-11-01T08:27:27Z</time>
      </trkpt>
      <trkpt lat="43.94205" lon="6.36209">
        <ele>926.6</ele>
        <time>2019-11-01T08:27:29Z</time>
      </trkpt>
      <trkpt lat="43.94203" lon="6.36203">
        <ele>927.6</ele>
        <time>2019-11-01T08:27:33Z</time>
      </trkpt>
      <trkpt lat="43.94201" lon="6.36196">
        <ele>928.5</ele>
        <time>2019-11-01T08:27:39Z</time>
      </trkpt>
      <trkpt lat="43.94198" lon="6.3619">
        <ele>929.6</ele>
        <time>2019-11-01T08:27:42Z</time>
      </trkpt>
      <trkpt lat="43.94194" lon="6.36183">
        <ele>930.6</ele>
        <time>2019-11-01T08:27:45Z</time>
      </trkpt>
      <trkpt lat="43.94191" lon="6.36179">
        <ele>930.9</ele>
        <time>2019-11-01T08:27:47Z</time>
      </trkpt>
      <trkpt lat="43.94187" lon="6.36175">
        <ele>931.4</ele>
        <time>2019-11-01T08:27:50Z</time>
      </trkpt>
      <trkpt lat="43.94184" lon="6.36173">
        <ele>931.7</ele>
        <time>2019-11-01T08:27:52Z</time>
      </trkpt>
      <trkpt lat="43.9418" lon="6.3617">
        <ele>932.1</ele>
        <time>2019-11-01T08:27:56Z</time>
      </trkpt>
      <trkpt lat="43.94178" lon="6.36166">
        <ele>932.4</ele>
        <time>2019-11-01T08:27:59Z</time>
      </trkpt>
      <trkpt lat="43.94175" lon="6.36164">
        <ele>932.8</ele>
        <time>2019-11-01T08:28:00Z</time>
      </trkpt>
      <trkpt lat="43.94169" lon="6.36161">
        <ele>933.3</ele>
        <time>2019-11-01T08:28:04Z</time>
      </trkpt>
      <trkpt lat="43.94166" lon="6.36159">
        <ele>933.7</ele>
        <time>2019-11-01T08:28:06Z</time>
      </trkpt>
      <trkpt lat="43.94162" lon="6.36156">
        <ele>934.6</ele>
        <time>2019-11-01T08:28:09Z</time>
      </trkpt>
      <trkpt lat="43.94157" lon="6.36154">
        <ele>935.6</ele>
        <time>2019-11-01T08:28:11Z</time>
      </trkpt>
      <trkpt lat="43.94154" lon="6.36152">
        <ele>936.4</ele>
        <time>2019-11-01T08:28:13Z</time>
      </trkpt>
      <trkpt lat="43.9415" lon="6.36149">
        <ele>937.5</ele>
        <time>2019-11-01T08:28:16Z</time>
      </trkpt>
      <trkpt lat="43.94147" lon="6.36146">
        <ele>938.7</ele>
        <time>2019-11-01T08:28:18Z</time>
      </trkpt>
      <trkpt lat="43.94143" lon="6.36142">
        <ele>939.9</ele>
        <time>2019-11-01T08:28:21Z</time>
      </trkpt>
      <trkpt lat="43.9414" lon="6.36138">
        <ele>940.5</ele>
        <time>2019-11-01T08:28:23Z</time>
      </trkpt>
      <trkpt lat="43.94138" lon="6.36133">
        <ele>941.8</ele>
        <time>2019-11-01T08:28:26Z</time>
      </trkpt>
      <trkpt lat="43.94135" lon="6.36129">
        <ele>943.2</ele>
        <time>2019-11-01T08:28:28Z</time>
      </trkpt>
      <trkpt lat="43.94133" lon="6.36125">
        <ele>944.8</ele>
        <time>2019-11-01T08:28:30Z</time>
      </trkpt>
      <trkpt lat="43.94131" lon="6.36122">
        <ele>946.1</ele>
        <time>2019-11-01T08:28:31Z</time>
      </trkpt>
      <trkpt lat="43.94129" lon="6.36117">
        <ele>946.8</ele>
        <time>2019-11-01T08:28:34Z</time>
      </trkpt>
      <trkpt lat="43.94127" lon="6.36114">
        <ele>947.3</ele>
        <time>2019-11-01T08:28:36Z</time>
      </trkpt>
      <trkpt lat="43.94123" lon="6.36108">
        <ele>947.6</ele>
        <time>2019-11-01T08:28:38Z</time>
      </trkpt>
      <trkpt lat="43.9412" lon="6.36107">
        <ele>946.4</ele>
        <time>2019-11-01T08:28:40Z</time>
      </trkpt>
      <trkpt lat="43.94116" lon="6.36107">
        <ele>945.7</ele>
        <time>2019-11-01T08:28:43Z</time>
      </trkpt>
      <trkpt lat="43.94112" lon="6.3611">
        <ele>945.5</ele>
        <time>2019-11-01T08:28:46Z</time>
      </trkpt>
      <trkpt lat="43.94109" lon="6.36113">
        <ele>945.5</ele>
        <time>2019-11-01T08:28:48Z</time>
      </trkpt>
      <trkpt lat="43.94106" lon="6.36117">
        <ele>945.3</ele>
        <time>2019-11-01T08:28:50Z</time>
      </trkpt>
      <trkpt lat="43.94103" lon="6.36122">
        <ele>944.6</ele>
        <time>2019-11-01T08:28:53Z</time>
      </trkpt>
      <trkpt lat="43.94101" lon="6.36125">
        <ele>944.1</ele>
        <time>2019-11-01T08:28:54Z</time>
      </trkpt>
      <trkpt lat="43.94098" lon="6.36129">
        <ele>944.3</ele>
        <time>2019-11-01T08:28:57Z</time>
      </trkpt>
      <trkpt lat="43.94094" lon="6.36132">
        <ele>944.3</ele>
        <time>2019-11-01T08:28:59Z</time>
      </trkpt>
      <trkpt lat="43.94089" lon="6.36134">
        <ele>943.9</ele>
        <time>2019-11-01T08:29:02Z</time>
      </trkpt>
      <trkpt lat="43.94086" lon="6.36137">
        <ele>944.2</ele>
        <time>2019-11-01T08:29:04Z</time>
      </trkpt>
      <trkpt lat="43.94083" lon="6.36139">
        <ele>944.6</ele>
        <time>2019-11-01T08:29:06Z</time>
      </trkpt>
      <trkpt lat="43.94077" lon="6.36144">
        <ele>944.9</ele>
        <time>2019-11-01T08:29:09Z</time>
      </trkpt>
      <trkpt lat="43.94071" lon="6.36147">
        <ele>945.1</ele>
        <time>2019-11-01T08:29:11Z</time>
      </trkpt>
      <trkpt lat="43.94068" lon="6.36149">
        <ele>945.2</ele>
        <time>2019-11-01T08:29:12Z</time>
      </trkpt>
      <trkpt lat="43.94065" lon="6.36152">
        <ele>945.4</ele>
        <time>2019-11-01T08:29:14Z</time>
      </trkpt>
      <trkpt lat="43.94063" lon="6.36155">
        <ele>945.5</ele>
        <time>2019-11-01T08:29:15Z</time>
      </trkpt>
      <trkpt lat="43.9406" lon="6.36157">
        <ele>945.7</ele>
        <time>2019-11-01T08:29:16Z</time>
      </trkpt>
      <trkpt lat="43.94058" lon="6.36159">
        <ele>945.9</ele>
        <time>2019-11-01T08:29:17Z</time>
      </trkpt>
      <trkpt lat="43.94054" lon="6.36162">
        <ele>946.1</ele>
        <time>2019-11-01T08:29:19Z</time>
      </trkpt>
      <trkpt lat="43.94052" lon="6.36164">
        <ele>946</ele>
        <time>2019-11-01T08:29:20Z</time>
      </trkpt>
      <trkpt lat="43.94049" lon="6.36165">
        <ele>945.9</ele>
        <time>2019-11-01T08:29:21Z</time>
      </trkpt>
      <trkpt lat="43.94045" lon="6.36168">
        <ele>946.2</ele>
        <time>2019-11-01T08:29:23Z</time>
      </trkpt>
      <trkpt lat="43.94041" lon="6.36171">
        <ele>946.7</ele>
        <time>2019-11-01T08:29:25Z</time>
      </trkpt>
      <trkpt lat="43.94037" lon="6.36175">
        <ele>947.8</ele>
        <time>2019-11-01T08:29:26Z</time>
      </trkpt>
      <trkpt lat="43.94035" lon="6.36177">
        <ele>948.5</ele>
        <time>2019-11-01T08:29:27Z</time>
      </trkpt>
      <trkpt lat="43.94031" lon="6.3618">
        <ele>949</ele>
        <time>2019-11-01T08:29:29Z</time>
      </trkpt>
      <trkpt lat="43.94027" lon="6.36183">
        <ele>949.8</ele>
        <time>2019-11-01T08:29:30Z</time>
      </trkpt>
      <trkpt lat="43.94023" lon="6.36185">
        <ele>950.6</ele>
        <time>2019-11-01T08:29:31Z</time>
      </trkpt>
      <trkpt lat="43.9402" lon="6.36187">
        <ele>951.1</ele>
        <time>2019-11-01T08:29:33Z</time>
      </trkpt>
      <trkpt lat="43.94017" lon="6.36188">
        <ele>951.6</ele>
        <time>2019-11-01T08:29:34Z</time>
      </trkpt>
      <trkpt lat="43.94015" lon="6.3619">
        <ele>952</ele>
        <time>2019-11-01T08:29:35Z</time>
      </trkpt>
      <trkpt lat="43.94012" lon="6.36192">
        <ele>952.7</ele>
        <time>2019-11-01T08:29:36Z</time>
      </trkpt>
      <trkpt lat="43.94009" lon="6.36194">
        <ele>953.4</ele>
        <time>2019-11-01T08:29:37Z</time>
      </trkpt>
      <trkpt lat="43.94006" lon="6.36195">
        <ele>954.4</ele>
        <time>2019-11-01T08:29:38Z</time>
      </trkpt>
      <trkpt lat="43.94004" lon="6.36196">
        <ele>955.3</ele>
        <time>2019-11-01T08:29:39Z</time>
      </trkpt>
      <trkpt lat="43.94001" lon="6.36196">
        <ele>956.6</ele>
        <time>2019-11-01T08:29:40Z</time>
      </trkpt>
      <trkpt lat="43.93997" lon="6.36196">
        <ele>957.7</ele>
        <time>2019-11-01T08:29:42Z</time>
      </trkpt>
      <trkpt lat="43.93993" lon="6.36196">
        <ele>958.7</ele>
        <time>2019-11-01T08:29:43Z</time>
      </trkpt>
      <trkpt lat="43.93986" lon="6.36192">
        <ele>960.3</ele>
        <time>2019-11-01T08:29:46Z</time>
      </trkpt>
      <trkpt lat="43.93983" lon="6.3619">
        <ele>960.6</ele>
        <time>2019-11-01T08:29:47Z</time>
      </trkpt>
      <trkpt lat="43.93979" lon="6.36188">
        <ele>961</ele>
        <time>2019-11-01T08:29:49Z</time>
      </trkpt>
      <trkpt lat="43.93977" lon="6.36187">
        <ele>961.3</ele>
        <time>2019-11-01T08:29:50Z</time>
      </trkpt>
      <trkpt lat="43.93973" lon="6.36189">
        <ele>960.9</ele>
        <time>2019-11-01T08:29:52Z</time>
      </trkpt>
      <trkpt lat="43.9397" lon="6.36194">
        <ele>959.8</ele>
        <time>2019-11-01T08:29:53Z</time>
      </trkpt>
      <trkpt lat="43.93969" lon="6.36198">
        <ele>959.4</ele>
        <time>2019-11-01T08:29:55Z</time>
      </trkpt>
      <trkpt lat="43.93969" lon="6.36204">
        <ele>959</ele>
        <time>2019-11-01T08:29:56Z</time>
      </trkpt>
      <trkpt lat="43.9397" lon="6.36208">
        <ele>958.3</ele>
        <time>2019-11-01T08:29:57Z</time>
      </trkpt>
      <trkpt lat="43.93971" lon="6.36212">
        <ele>957.4</ele>
        <time>2019-11-01T08:29:58Z</time>
      </trkpt>
      <trkpt lat="43.93972" lon="6.36217">
        <ele>956.3</ele>
        <time>2019-11-01T08:29:59Z</time>
      </trkpt>
      <trkpt lat="43.93973" lon="6.36223">
        <ele>954.9</ele>
        <time>2019-11-01T08:30:00Z</time>
      </trkpt>
      <trkpt lat="43.93975" lon="6.36226">
        <ele>954.4</ele>
        <time>2019-11-01T08:30:01Z</time>
      </trkpt>
      <trkpt lat="43.93976" lon="6.3623">
        <ele>953.8</ele>
        <time>2019-11-01T08:30:05Z</time>
      </trkpt>
      <trkpt lat="43.93978" lon="6.36236">
        <ele>952.1</ele>
        <time>2019-11-01T08:30:20Z</time>
      </trkpt>
      <trkpt lat="43.93979" lon="6.3624">
        <ele>951</ele>
        <time>2019-11-01T08:30:22Z</time>
      </trkpt>
      <trkpt lat="43.93982" lon="6.36246">
        <ele>950.2</ele>
        <time>2019-11-01T08:30:23Z</time>
      </trkpt>
      <trkpt lat="43.93983" lon="6.36251">
        <ele>950.8</ele>
        <time>2019-11-01T08:30:25Z</time>
      </trkpt>
      <trkpt lat="43.93985" lon="6.36257">
        <ele>951.5</ele>
        <time>2019-11-01T08:30:26Z</time>
      </trkpt>
      <trkpt lat="43.93985" lon="6.36261">
        <ele>951.7</ele>
        <time>2019-11-01T08:30:27Z</time>
      </trkpt>
      <trkpt lat="43.93985" lon="6.36266">
        <ele>951.9</ele>
        <time>2019-11-01T08:30:29Z</time>
      </trkpt>
      <trkpt lat="43.93984" lon="6.36271">
        <ele>951.7</ele>
        <time>2019-11-01T08:30:30Z</time>
      </trkpt>
      <trkpt lat="43.93981" lon="6.36275">
        <ele>951.6</ele>
        <time>2019-11-01T08:30:31Z</time>
      </trkpt>
      <trkpt lat="43.93977" lon="6.3628">
        <ele>952.6</ele>
        <time>2019-11-01T08:30:33Z</time>
      </trkpt>
      <trkpt lat="43.93974" lon="6.36286">
        <ele>952.8</ele>
        <time>2019-11-01T08:30:34Z</time>
      </trkpt>
      <trkpt lat="43.93971" lon="6.3629">
        <ele>953.1</ele>
        <time>2019-11-01T08:30:35Z</time>
      </trkpt>
      <trkpt lat="43.93967" lon="6.36297">
        <ele>954.2</ele>
        <time>2019-11-01T08:30:36Z</time>
      </trkpt>
      <trkpt lat="43.93964" lon="6.36301">
        <ele>954.5</ele>
        <time>2019-11-01T08:30:37Z</time>
      </trkpt>
      <trkpt lat="43.93958" lon="6.36308">
        <ele>955.3</ele>
        <time>2019-11-01T08:30:39Z</time>
      </trkpt>
      <trkpt lat="43.9395" lon="6.36317">
        <ele>954.7</ele>
        <time>2019-11-01T08:30:41Z</time>
      </trkpt>
      <trkpt lat="43.93945" lon="6.36321">
        <ele>953.2</ele>
        <time>2019-11-01T08:30:42Z</time>
      </trkpt>
      <trkpt lat="43.93939" lon="6.3633">
        <ele>950.7</ele>
        <time>2019-11-01T08:30:44Z</time>
      </trkpt>
      <trkpt lat="43.93937" lon="6.36342">
        <ele>948.9</ele>
        <time>2019-11-01T08:30:46Z</time>
      </trkpt>
      <trkpt lat="43.93939" lon="6.36354">
        <ele>945.8</ele>
        <time>2019-11-01T08:30:50Z</time>
      </trkpt>
      <trkpt lat="43.93939" lon="6.3636">
        <ele>944.1</ele>
        <time>2019-11-01T08:30:51Z</time>
      </trkpt>
      <trkpt lat="43.93939" lon="6.36364">
        <ele>942.8</ele>
        <time>2019-11-01T08:30:52Z</time>
      </trkpt>
      <trkpt lat="43.93941" lon="6.3637">
        <ele>940.8</ele>
        <time>2019-11-01T08:30:53Z</time>
      </trkpt>
      <trkpt lat="43.93943" lon="6.36374">
        <ele>939.8</ele>
        <time>2019-11-01T08:30:55Z</time>
      </trkpt>
      <trkpt lat="43.93944" lon="6.36379">
        <ele>938.5</ele>
        <time>2019-11-01T08:30:56Z</time>
      </trkpt>
      <trkpt lat="43.93948" lon="6.36385">
        <ele>936.2</ele>
        <time>2019-11-01T08:30:59Z</time>
      </trkpt>
      <trkpt lat="43.93953" lon="6.36388">
        <ele>934.2</ele>
        <time>2019-11-01T08:31:01Z</time>
      </trkpt>
      <trkpt lat="43.93956" lon="6.36391">
        <ele>933.4</ele>
        <time>2019-11-01T08:31:03Z</time>
      </trkpt>
      <trkpt lat="43.93959" lon="6.36397">
        <ele>933</ele>
        <time>2019-11-01T08:31:05Z</time>
      </trkpt>
      <trkpt lat="43.93959" lon="6.36403">
        <ele>933.1</ele>
        <time>2019-11-01T08:31:08Z</time>
      </trkpt>
      <trkpt lat="43.93955" lon="6.36409">
        <ele>934.6</ele>
        <time>2019-11-01T08:31:11Z</time>
      </trkpt>
      <trkpt lat="43.93951" lon="6.36411">
        <ele>935.4</ele>
        <time>2019-11-01T08:31:12Z</time>
      </trkpt>
      <trkpt lat="43.93946" lon="6.36414">
        <ele>936.3</ele>
        <time>2019-11-01T08:31:15Z</time>
      </trkpt>
      <trkpt lat="43.93942" lon="6.36416">
        <ele>937.4</ele>
        <time>2019-11-01T08:31:17Z</time>
      </trkpt>
      <trkpt lat="43.93939" lon="6.36417">
        <ele>938.1</ele>
        <time>2019-11-01T08:31:19Z</time>
      </trkpt>
      <trkpt lat="43.93936" lon="6.36419">
        <ele>938.6</ele>
        <time>2019-11-01T08:31:20Z</time>
      </trkpt>
      <trkpt lat="43.93931" lon="6.36421">
        <ele>939.2</ele>
        <time>2019-11-01T08:31:23Z</time>
      </trkpt>
      <trkpt lat="43.93926" lon="6.36424">
        <ele>939.6</ele>
        <time>2019-11-01T08:31:25Z</time>
      </trkpt>
      <trkpt lat="43.93923" lon="6.36426">
        <ele>939.9</ele>
        <time>2019-11-01T08:31:27Z</time>
      </trkpt>
      <trkpt lat="43.93919" lon="6.36428">
        <ele>940.3</ele>
        <time>2019-11-01T08:31:29Z</time>
      </trkpt>
      <trkpt lat="43.93915" lon="6.3643">
        <ele>940.7</ele>
        <time>2019-11-01T08:31:30Z</time>
      </trkpt>
      <trkpt lat="43.93911" lon="6.36434">
        <ele>941.1</ele>
        <time>2019-11-01T08:31:33Z</time>
      </trkpt>
      <trkpt lat="43.93907" lon="6.36436">
        <ele>941.5</ele>
        <time>2019-11-01T08:31:34Z</time>
      </trkpt>
      <trkpt lat="43.93903" lon="6.36439">
        <ele>942</ele>
        <time>2019-11-01T08:31:36Z</time>
      </trkpt>
      <trkpt lat="43.939" lon="6.36441">
        <ele>942.9</ele>
        <time>2019-11-01T08:31:38Z</time>
      </trkpt>
      <trkpt lat="43.93895" lon="6.36443">
        <ele>943.8</ele>
        <time>2019-11-01T08:31:40Z</time>
      </trkpt>
      <trkpt lat="43.9389" lon="6.36444">
        <ele>944.6</ele>
        <time>2019-11-01T08:31:42Z</time>
      </trkpt>
      <trkpt lat="43.93887" lon="6.36445">
        <ele>945.3</ele>
        <time>2019-11-01T08:31:43Z</time>
      </trkpt>
      <trkpt lat="43.93884" lon="6.36445">
        <ele>946.2</ele>
        <time>2019-11-01T08:31:45Z</time>
      </trkpt>
      <trkpt lat="43.93879" lon="6.36446">
        <ele>947.9</ele>
        <time>2019-11-01T08:31:47Z</time>
      </trkpt>
      <trkpt lat="43.93877" lon="6.36446">
        <ele>948.9</ele>
        <time>2019-11-01T08:31:49Z</time>
      </trkpt>
      <trkpt lat="43.9387" lon="6.36446">
        <ele>950.6</ele>
        <time>2019-11-01T08:31:52Z</time>
      </trkpt>
      <trkpt lat="43.93864" lon="6.36446">
        <ele>952.2</ele>
        <time>2019-11-01T08:31:54Z</time>
      </trkpt>
      <trkpt lat="43.93858" lon="6.36448">
        <ele>953.7</ele>
        <time>2019-11-01T08:31:57Z</time>
      </trkpt>
      <trkpt lat="43.93853" lon="6.36449">
        <ele>954.5</ele>
        <time>2019-11-01T08:31:59Z</time>
      </trkpt>
      <trkpt lat="43.9385" lon="6.36451">
        <ele>954.9</ele>
        <time>2019-11-01T08:32:01Z</time>
      </trkpt>
      <trkpt lat="43.93845" lon="6.36453">
        <ele>955.5</ele>
        <time>2019-11-01T08:32:03Z</time>
      </trkpt>
      <trkpt lat="43.9384" lon="6.36458">
        <ele>956.5</ele>
        <time>2019-11-01T08:32:06Z</time>
      </trkpt>
      <trkpt lat="43.93837" lon="6.3646">
        <ele>956.9</ele>
        <time>2019-11-01T08:32:08Z</time>
      </trkpt>
      <trkpt lat="43.93831" lon="6.36464">
        <ele>957.2</ele>
        <time>2019-11-01T08:32:10Z</time>
      </trkpt>
      <trkpt lat="43.93828" lon="6.36466">
        <ele>958.3</ele>
        <time>2019-11-01T08:32:12Z</time>
      </trkpt>
      <trkpt lat="43.93823" lon="6.36468">
        <ele>959.6</ele>
        <time>2019-11-01T08:32:15Z</time>
      </trkpt>
      <trkpt lat="43.93818" lon="6.36469">
        <ele>960.5</ele>
        <time>2019-11-01T08:32:17Z</time>
      </trkpt>
      <trkpt lat="43.93811" lon="6.36469">
        <ele>961.9</ele>
        <time>2019-11-01T08:32:20Z</time>
      </trkpt>
      <trkpt lat="43.93807" lon="6.36468">
        <ele>963.1</ele>
        <time>2019-11-01T08:32:21Z</time>
      </trkpt>
      <trkpt lat="43.93802" lon="6.36466">
        <ele>964.6</ele>
        <time>2019-11-01T08:32:24Z</time>
      </trkpt>
      <trkpt lat="43.93796" lon="6.36464">
        <ele>966.1</ele>
        <time>2019-11-01T08:32:26Z</time>
      </trkpt>
      <trkpt lat="43.93793" lon="6.3646">
        <ele>967</ele>
        <time>2019-11-01T08:32:28Z</time>
      </trkpt>
      <trkpt lat="43.93789" lon="6.36457">
        <ele>968.5</ele>
        <time>2019-11-01T08:32:30Z</time>
      </trkpt>
      <trkpt lat="43.93786" lon="6.36454">
        <ele>969.5</ele>
        <time>2019-11-01T08:32:31Z</time>
      </trkpt>
      <trkpt lat="43.93781" lon="6.36449">
        <ele>970.9</ele>
        <time>2019-11-01T08:32:34Z</time>
      </trkpt>
      <trkpt lat="43.93777" lon="6.36447">
        <ele>972.2</ele>
        <time>2019-11-01T08:32:37Z</time>
      </trkpt>
      <trkpt lat="43.93773" lon="6.36446">
        <ele>972.8</ele>
        <time>2019-11-01T08:32:38Z</time>
      </trkpt>
      <trkpt lat="43.93768" lon="6.36447">
        <ele>973.4</ele>
        <time>2019-11-01T08:32:41Z</time>
      </trkpt>
      <trkpt lat="43.93764" lon="6.36451">
        <ele>973.2</ele>
        <time>2019-11-01T08:32:43Z</time>
      </trkpt>
      <trkpt lat="43.93762" lon="6.36456">
        <ele>972.8</ele>
        <time>2019-11-01T08:32:45Z</time>
      </trkpt>
      <trkpt lat="43.93761" lon="6.3646">
        <ele>972.6</ele>
        <time>2019-11-01T08:32:47Z</time>
      </trkpt>
      <trkpt lat="43.93763" lon="6.36466">
        <ele>972.3</ele>
        <time>2019-11-01T08:32:49Z</time>
      </trkpt>
      <trkpt lat="43.93765" lon="6.36475">
        <ele>972</ele>
        <time>2019-11-01T08:32:53Z</time>
      </trkpt>
      <trkpt lat="43.93766" lon="6.3648">
        <ele>971.7</ele>
        <time>2019-11-01T08:32:55Z</time>
      </trkpt>
      <trkpt lat="43.93767" lon="6.36484">
        <ele>971.3</ele>
        <time>2019-11-01T08:32:56Z</time>
      </trkpt>
      <trkpt lat="43.93769" lon="6.36491">
        <ele>971</ele>
        <time>2019-11-01T08:32:59Z</time>
      </trkpt>
      <trkpt lat="43.9377" lon="6.36499">
        <ele>971.1</ele>
        <time>2019-11-01T08:33:01Z</time>
      </trkpt>
      <trkpt lat="43.93771" lon="6.36506">
        <ele>971.2</ele>
        <time>2019-11-01T08:33:04Z</time>
      </trkpt>
      <trkpt lat="43.93771" lon="6.36512">
        <ele>971.3</ele>
        <time>2019-11-01T08:33:06Z</time>
      </trkpt>
      <trkpt lat="43.93771" lon="6.36518">
        <ele>971.2</ele>
        <time>2019-11-01T08:33:09Z</time>
      </trkpt>
      <trkpt lat="43.93772" lon="6.36524">
        <ele>971.3</ele>
        <time>2019-11-01T08:33:11Z</time>
      </trkpt>
      <trkpt lat="43.93772" lon="6.3653">
        <ele>971.7</ele>
        <time>2019-11-01T08:33:13Z</time>
      </trkpt>
      <trkpt lat="43.93772" lon="6.36534">
        <ele>971.9</ele>
        <time>2019-11-01T08:33:15Z</time>
      </trkpt>
      <trkpt lat="43.93774" lon="6.36542">
        <ele>972.4</ele>
        <time>2019-11-01T08:33:18Z</time>
      </trkpt>
      <trkpt lat="43.93773" lon="6.36548">
        <ele>972.6</ele>
        <time>2019-11-01T08:33:20Z</time>
      </trkpt>
      <trkpt lat="43.93774" lon="6.36556">
        <ele>972.6</ele>
        <time>2019-11-01T08:33:24Z</time>
      </trkpt>
      <trkpt lat="43.93774" lon="6.3656">
        <ele>972.8</ele>
        <time>2019-11-01T08:33:25Z</time>
      </trkpt>
      <trkpt lat="43.93775" lon="6.36564">
        <ele>973</ele>
        <time>2019-11-01T08:33:26Z</time>
      </trkpt>
      <trkpt lat="43.93775" lon="6.3657">
        <ele>973.2</ele>
        <time>2019-11-01T08:33:29Z</time>
      </trkpt>
      <trkpt lat="43.93776" lon="6.36577">
        <ele>973.1</ele>
        <time>2019-11-01T08:33:33Z</time>
      </trkpt>
      <trkpt lat="43.93776" lon="6.36581">
        <ele>973.2</ele>
        <time>2019-11-01T08:33:34Z</time>
      </trkpt>
      <trkpt lat="43.93778" lon="6.36585">
        <ele>973.5</ele>
        <time>2019-11-01T08:33:36Z</time>
      </trkpt>
      <trkpt lat="43.93778" lon="6.36589">
        <ele>973.7</ele>
        <time>2019-11-01T08:33:38Z</time>
      </trkpt>
      <trkpt lat="43.93779" lon="6.36594">
        <ele>972.9</ele>
        <time>2019-11-01T08:33:40Z</time>
      </trkpt>
      <trkpt lat="43.93781" lon="6.36599">
        <ele>971.9</ele>
        <time>2019-11-01T08:33:43Z</time>
      </trkpt>
      <trkpt lat="43.93784" lon="6.36604">
        <ele>970.8</ele>
        <time>2019-11-01T08:33:45Z</time>
      </trkpt>
      <trkpt lat="43.93787" lon="6.36609">
        <ele>969.9</ele>
        <time>2019-11-01T08:33:48Z</time>
      </trkpt>
      <trkpt lat="43.9379" lon="6.36615">
        <ele>968.6</ele>
        <time>2019-11-01T08:33:51Z</time>
      </trkpt>
      <trkpt lat="43.93793" lon="6.36619">
        <ele>967.9</ele>
        <time>2019-11-01T08:33:53Z</time>
      </trkpt>
      <trkpt lat="43.93796" lon="6.36624">
        <ele>967.5</ele>
        <time>2019-11-01T08:33:56Z</time>
      </trkpt>
      <trkpt lat="43.93798" lon="6.36628">
        <ele>966.7</ele>
        <time>2019-11-01T08:33:58Z</time>
      </trkpt>
      <trkpt lat="43.93802" lon="6.36633">
        <ele>965.3</ele>
        <time>2019-11-01T08:34:01Z</time>
      </trkpt>
      <trkpt lat="43.93804" lon="6.36636">
        <ele>964.6</ele>
        <time>2019-11-01T08:34:02Z</time>
      </trkpt>
      <trkpt lat="43.93807" lon="6.3664">
        <ele>963.6</ele>
        <time>2019-11-01T08:34:05Z</time>
      </trkpt>
      <trkpt lat="43.9381" lon="6.36644">
        <ele>962.6</ele>
        <time>2019-11-01T08:34:07Z</time>
      </trkpt>
      <trkpt lat="43.93813" lon="6.36649">
        <ele>961.7</ele>
        <time>2019-11-01T08:34:10Z</time>
      </trkpt>
      <trkpt lat="43.93816" lon="6.36653">
        <ele>961.5</ele>
        <time>2019-11-01T08:34:11Z</time>
      </trkpt>
      <trkpt lat="43.93818" lon="6.36657">
        <ele>961.4</ele>
        <time>2019-11-01T08:34:14Z</time>
      </trkpt>
      <trkpt lat="43.93821" lon="6.3666">
        <ele>960.9</ele>
        <time>2019-11-01T08:34:15Z</time>
      </trkpt>
      <trkpt lat="43.93824" lon="6.36665">
        <ele>960.1</ele>
        <time>2019-11-01T08:34:18Z</time>
      </trkpt>
      <trkpt lat="43.93827" lon="6.3667">
        <ele>959.6</ele>
        <time>2019-11-01T08:34:20Z</time>
      </trkpt>
      <trkpt lat="43.93831" lon="6.36675">
        <ele>959.1</ele>
        <time>2019-11-01T08:34:23Z</time>
      </trkpt>
      <trkpt lat="43.93834" lon="6.36679">
        <ele>959.1</ele>
        <time>2019-11-01T08:34:25Z</time>
      </trkpt>
      <trkpt lat="43.93837" lon="6.36684">
        <ele>958.8</ele>
        <time>2019-11-01T08:34:27Z</time>
      </trkpt>
      <trkpt lat="43.93839" lon="6.36687">
        <ele>958.4</ele>
        <time>2019-11-01T08:34:29Z</time>
      </trkpt>
      <trkpt lat="43.93841" lon="6.36691">
        <ele>958</ele>
        <time>2019-11-01T08:34:30Z</time>
      </trkpt>
      <trkpt lat="43.93844" lon="6.36696">
        <ele>958</ele>
        <time>2019-11-01T08:34:33Z</time>
      </trkpt>
      <trkpt lat="43.93847" lon="6.36701">
        <ele>957.9</ele>
        <time>2019-11-01T08:34:36Z</time>
      </trkpt>
      <trkpt lat="43.93849" lon="6.36704">
        <ele>957.5</ele>
        <time>2019-11-01T08:34:37Z</time>
      </trkpt>
      <trkpt lat="43.93852" lon="6.36713">
        <ele>956.9</ele>
        <time>2019-11-01T08:34:40Z</time>
      </trkpt>
      <trkpt lat="43.93854" lon="6.36717">
        <ele>956.8</ele>
        <time>2019-11-01T08:34:43Z</time>
      </trkpt>
      <trkpt lat="43.93856" lon="6.36722">
        <ele>956.7</ele>
        <time>2019-11-01T08:34:45Z</time>
      </trkpt>
      <trkpt lat="43.93858" lon="6.36727">
        <ele>956.6</ele>
        <time>2019-11-01T08:34:47Z</time>
      </trkpt>
      <trkpt lat="43.9386" lon="6.36731">
        <ele>956</ele>
        <time>2019-11-01T08:34:48Z</time>
      </trkpt>
      <trkpt lat="43.93862" lon="6.36735">
        <ele>955.6</ele>
        <time>2019-11-01T08:34:50Z</time>
      </trkpt>
      <trkpt lat="43.93865" lon="6.3674">
        <ele>955.4</ele>
        <time>2019-11-01T08:34:53Z</time>
      </trkpt>
      <trkpt lat="43.93866" lon="6.36745">
        <ele>955.5</ele>
        <time>2019-11-01T08:34:55Z</time>
      </trkpt>
      <trkpt lat="43.93868" lon="6.36752">
        <ele>955.8</ele>
        <time>2019-11-01T08:34:58Z</time>
      </trkpt>
      <trkpt lat="43.93868" lon="6.36756">
        <ele>956</ele>
        <time>2019-11-01T08:35:00Z</time>
      </trkpt>
      <trkpt lat="43.93866" lon="6.36761">
        <ele>956</ele>
        <time>2019-11-01T08:35:02Z</time>
      </trkpt>
      <trkpt lat="43.93863" lon="6.36763">
        <ele>956</ele>
        <time>2019-11-01T08:35:05Z</time>
      </trkpt>
      <trkpt lat="43.93861" lon="6.36764">
        <ele>956.3</ele>
        <time>2019-11-01T08:35:08Z</time>
      </trkpt>
      <trkpt lat="43.93858" lon="6.36761">
        <ele>956.5</ele>
        <time>2019-11-01T08:35:12Z</time>
      </trkpt>
      <trkpt lat="43.93855" lon="6.36757">
        <ele>956.3</ele>
        <time>2019-11-01T08:35:17Z</time>
      </trkpt>
      <trkpt lat="43.93854" lon="6.3675">
        <ele>956.3</ele>
        <time>2019-11-01T08:35:20Z</time>
      </trkpt>
      <trkpt lat="43.93854" lon="6.36744">
        <ele>956.4</ele>
        <time>2019-11-01T08:35:22Z</time>
      </trkpt>
      <trkpt lat="43.93853" lon="6.36739">
        <ele>956.8</ele>
        <time>2019-11-01T08:35:24Z</time>
      </trkpt>
      <trkpt lat="43.93852" lon="6.36736">
        <ele>957.1</ele>
        <time>2019-11-01T08:35:25Z</time>
      </trkpt>
      <trkpt lat="43.9385" lon="6.36732">
        <ele>957.5</ele>
        <time>2019-11-01T08:35:26Z</time>
      </trkpt>
      <trkpt lat="43.93846" lon="6.36727">
        <ele>958</ele>
        <time>2019-11-01T08:35:28Z</time>
      </trkpt>
      <trkpt lat="43.93843" lon="6.36722">
        <ele>958.4</ele>
        <time>2019-11-01T08:35:32Z</time>
      </trkpt>
      <trkpt lat="43.9384" lon="6.36717">
        <ele>958.4</ele>
        <time>2019-11-01T08:35:35Z</time>
      </trkpt>
      <trkpt lat="43.93836" lon="6.3671">
        <ele>959.5</ele>
        <time>2019-11-01T08:35:37Z</time>
      </trkpt>
      <trkpt lat="43.93832" lon="6.36704">
        <ele>961.3</ele>
        <time>2019-11-01T08:35:41Z</time>
      </trkpt>
      <trkpt lat="43.9383" lon="6.36701">
        <ele>961.8</ele>
        <time>2019-11-01T08:35:42Z</time>
      </trkpt>
      <trkpt lat="43.93827" lon="6.36699">
        <ele>962.4</ele>
        <time>2019-11-01T08:35:43Z</time>
      </trkpt>
      <trkpt lat="43.93823" lon="6.36694">
        <ele>963.1</ele>
        <time>2019-11-01T08:35:46Z</time>
      </trkpt>
      <trkpt lat="43.93821" lon="6.36692">
        <ele>963.4</ele>
        <time>2019-11-01T08:35:48Z</time>
      </trkpt>
      <trkpt lat="43.93817" lon="6.36688">
        <ele>964.1</ele>
        <time>2019-11-01T08:35:50Z</time>
      </trkpt>
      <trkpt lat="43.93815" lon="6.36686">
        <ele>965.1</ele>
        <time>2019-11-01T08:35:51Z</time>
      </trkpt>
      <trkpt lat="43.93811" lon="6.36682">
        <ele>966.6</ele>
        <time>2019-11-01T08:35:54Z</time>
      </trkpt>
      <trkpt lat="43.93808" lon="6.3668">
        <ele>967.3</ele>
        <time>2019-11-01T08:35:55Z</time>
      </trkpt>
      <trkpt lat="43.93806" lon="6.36677">
        <ele>967.9</ele>
        <time>2019-11-01T08:35:57Z</time>
      </trkpt>
      <trkpt lat="43.93802" lon="6.36674">
        <ele>969.2</ele>
        <time>2019-11-01T08:35:59Z</time>
      </trkpt>
      <trkpt lat="43.93797" lon="6.36671">
        <ele>971.3</ele>
        <time>2019-11-01T08:36:01Z</time>
      </trkpt>
      <trkpt lat="43.93794" lon="6.36668">
        <ele>972.4</ele>
        <time>2019-11-01T08:36:04Z</time>
      </trkpt>
      <trkpt lat="43.93791" lon="6.36666">
        <ele>973</ele>
        <time>2019-11-01T08:36:05Z</time>
      </trkpt>
      <trkpt lat="43.93788" lon="6.36663">
        <ele>973.6</ele>
        <time>2019-11-01T08:36:07Z</time>
      </trkpt>
      <trkpt lat="43.93784" lon="6.3666">
        <ele>974.9</ele>
        <time>2019-11-01T08:36:09Z</time>
      </trkpt>
      <trkpt lat="43.9378" lon="6.36657">
        <ele>976.3</ele>
        <time>2019-11-01T08:36:12Z</time>
      </trkpt>
      <trkpt lat="43.93777" lon="6.36655">
        <ele>977.5</ele>
        <time>2019-11-01T08:36:13Z</time>
      </trkpt>
      <trkpt lat="43.93772" lon="6.36651">
        <ele>980.1</ele>
        <time>2019-11-01T08:36:16Z</time>
      </trkpt>
      <trkpt lat="43.93767" lon="6.36647">
        <ele>982.1</ele>
        <time>2019-11-01T08:36:19Z</time>
      </trkpt>
      <trkpt lat="43.93762" lon="6.36645">
        <ele>983.7</ele>
        <time>2019-11-01T08:36:22Z</time>
      </trkpt>
      <trkpt lat="43.93759" lon="6.36642">
        <ele>984.8</ele>
        <time>2019-11-01T08:36:24Z</time>
      </trkpt>
      <trkpt lat="43.93757" lon="6.3664">
        <ele>985.8</ele>
        <time>2019-11-01T08:36:25Z</time>
      </trkpt>
      <trkpt lat="43.93754" lon="6.36637">
        <ele>987</ele>
        <time>2019-11-01T08:36:27Z</time>
      </trkpt>
      <trkpt lat="43.9375" lon="6.36634">
        <ele>987.8</ele>
        <time>2019-11-01T08:36:28Z</time>
      </trkpt>
      <trkpt lat="43.93748" lon="6.36632">
        <ele>988.5</ele>
        <time>2019-11-01T08:36:30Z</time>
      </trkpt>
      <trkpt lat="43.93745" lon="6.36627">
        <ele>990.1</ele>
        <time>2019-11-01T08:36:33Z</time>
      </trkpt>
      <trkpt lat="43.93741" lon="6.3662">
        <ele>991.6</ele>
        <time>2019-11-01T08:36:35Z</time>
      </trkpt>
      <trkpt lat="43.93739" lon="6.36614">
        <ele>991.5</ele>
        <time>2019-11-01T08:36:38Z</time>
      </trkpt>
      <trkpt lat="43.93736" lon="6.36608">
        <ele>991.5</ele>
        <time>2019-11-01T08:36:40Z</time>
      </trkpt>
      <trkpt lat="43.93734" lon="6.36601">
        <ele>991.5</ele>
        <time>2019-11-01T08:36:43Z</time>
      </trkpt>
      <trkpt lat="43.93732" lon="6.36597">
        <ele>991.3</ele>
        <time>2019-11-01T08:36:45Z</time>
      </trkpt>
      <trkpt lat="43.9373" lon="6.36593">
        <ele>991.1</ele>
        <time>2019-11-01T08:36:47Z</time>
      </trkpt>
      <trkpt lat="43.93729" lon="6.3659">
        <ele>991</ele>
        <time>2019-11-01T08:36:48Z</time>
      </trkpt>
      <trkpt lat="43.93728" lon="6.36586">
        <ele>990.9</ele>
        <time>2019-11-01T08:36:50Z</time>
      </trkpt>
      <trkpt lat="43.93725" lon="6.36579">
        <ele>990.7</ele>
        <time>2019-11-01T08:36:52Z</time>
      </trkpt>
      <trkpt lat="43.93724" lon="6.36574">
        <ele>990.5</ele>
        <time>2019-11-01T08:36:54Z</time>
      </trkpt>
      <trkpt lat="43.93722" lon="6.36569">
        <ele>990.3</ele>
        <time>2019-11-01T08:36:56Z</time>
      </trkpt>
      <trkpt lat="43.93721" lon="6.36565">
        <ele>990.3</ele>
        <time>2019-11-01T08:36:58Z</time>
      </trkpt>
      <trkpt lat="43.93719" lon="6.3656">
        <ele>990.3</ele>
        <time>2019-11-01T08:37:00Z</time>
      </trkpt>
      <trkpt lat="43.93718" lon="6.36556">
        <ele>990.2</ele>
        <time>2019-11-01T08:37:02Z</time>
      </trkpt>
      <trkpt lat="43.93716" lon="6.36551">
        <ele>990</ele>
        <time>2019-11-01T08:37:04Z</time>
      </trkpt>
      <trkpt lat="43.93714" lon="6.36545">
        <ele>990</ele>
        <time>2019-11-01T08:37:07Z</time>
      </trkpt>
      <trkpt lat="43.93712" lon="6.36538">
        <ele>990.1</ele>
        <time>2019-11-01T08:37:09Z</time>
      </trkpt>
      <trkpt lat="43.93711" lon="6.36533">
        <ele>990</ele>
        <time>2019-11-01T08:37:11Z</time>
      </trkpt>
      <trkpt lat="43.9371" lon="6.36529">
        <ele>989.8</ele>
        <time>2019-11-01T08:37:13Z</time>
      </trkpt>
      <trkpt lat="43.93707" lon="6.36523">
        <ele>989.8</ele>
        <time>2019-11-01T08:37:15Z</time>
      </trkpt>
      <trkpt lat="43.93707" lon="6.36519">
        <ele>989.9</ele>
        <time>2019-11-01T08:37:17Z</time>
      </trkpt>
      <trkpt lat="43.93705" lon="6.36515">
        <ele>989.8</ele>
        <time>2019-11-01T08:37:19Z</time>
      </trkpt>
      <trkpt lat="43.93704" lon="6.36509">
        <ele>989.6</ele>
        <time>2019-11-01T08:37:21Z</time>
      </trkpt>
      <trkpt lat="43.93701" lon="6.36503">
        <ele>990.7</ele>
        <time>2019-11-01T08:37:23Z</time>
      </trkpt>
      <trkpt lat="43.93699" lon="6.36501">
        <ele>991.8</ele>
        <time>2019-11-01T08:37:25Z</time>
      </trkpt>
      <trkpt lat="43.93695" lon="6.36495">
        <ele>993.6</ele>
        <time>2019-11-01T08:37:28Z</time>
      </trkpt>
      <trkpt lat="43.93691" lon="6.36492">
        <ele>994.6</ele>
        <time>2019-11-01T08:37:30Z</time>
      </trkpt>
      <trkpt lat="43.93686" lon="6.36489">
        <ele>996.4</ele>
        <time>2019-11-01T08:37:34Z</time>
      </trkpt>
      <trkpt lat="43.93683" lon="6.36488">
        <ele>997.3</ele>
        <time>2019-11-01T08:37:35Z</time>
      </trkpt>
      <trkpt lat="43.93681" lon="6.36486">
        <ele>998</ele>
        <time>2019-11-01T08:37:37Z</time>
      </trkpt>
      <trkpt lat="43.93678" lon="6.36483">
        <ele>998.8</ele>
        <time>2019-11-01T08:37:39Z</time>
      </trkpt>
      <trkpt lat="43.93673" lon="6.3648">
        <ele>1000.2</ele>
        <time>2019-11-01T08:37:41Z</time>
      </trkpt>
      <trkpt lat="43.93669" lon="6.36477">
        <ele>1001.6</ele>
        <time>2019-11-01T08:37:44Z</time>
      </trkpt>
      <trkpt lat="43.93666" lon="6.36475">
        <ele>1002.4</ele>
        <time>2019-11-01T08:37:46Z</time>
      </trkpt>
      <trkpt lat="43.93663" lon="6.36473">
        <ele>1003</ele>
        <time>2019-11-01T08:37:47Z</time>
      </trkpt>
      <trkpt lat="43.93658" lon="6.36468">
        <ele>1004.6</ele>
        <time>2019-11-01T08:37:51Z</time>
      </trkpt>
      <trkpt lat="43.93655" lon="6.36466">
        <ele>1005.5</ele>
        <time>2019-11-01T08:37:53Z</time>
      </trkpt>
      <trkpt lat="43.93653" lon="6.36464">
        <ele>1006.2</ele>
        <time>2019-11-01T08:37:54Z</time>
      </trkpt>
      <trkpt lat="43.9365" lon="6.36461">
        <ele>1007.1</ele>
        <time>2019-11-01T08:37:56Z</time>
      </trkpt>
      <trkpt lat="43.93646" lon="6.36457">
        <ele>1008.3</ele>
        <time>2019-11-01T08:37:59Z</time>
      </trkpt>
      <trkpt lat="43.93643" lon="6.36454">
        <ele>1009</ele>
        <time>2019-11-01T08:38:00Z</time>
      </trkpt>
      <trkpt lat="43.9364" lon="6.3645">
        <ele>1009.9</ele>
        <time>2019-11-01T08:38:02Z</time>
      </trkpt>
      <trkpt lat="43.93636" lon="6.36444">
        <ele>1010.8</ele>
        <time>2019-11-01T08:38:06Z</time>
      </trkpt>
      <trkpt lat="43.93634" lon="6.36441">
        <ele>1011</ele>
        <time>2019-11-01T08:38:08Z</time>
      </trkpt>
      <trkpt lat="43.93631" lon="6.36436">
        <ele>1011.4</ele>
        <time>2019-11-01T08:38:09Z</time>
      </trkpt>
      <trkpt lat="43.93627" lon="6.36431">
        <ele>1012.3</ele>
        <time>2019-11-01T08:38:13Z</time>
      </trkpt>
      <trkpt lat="43.93624" lon="6.36428">
        <ele>1012.8</ele>
        <time>2019-11-01T08:38:15Z</time>
      </trkpt>
      <trkpt lat="43.93621" lon="6.36424">
        <ele>1013.2</ele>
        <time>2019-11-01T08:38:17Z</time>
      </trkpt>
      <trkpt lat="43.93617" lon="6.3642">
        <ele>1013.9</ele>
        <time>2019-11-01T08:38:20Z</time>
      </trkpt>
      <trkpt lat="43.93613" lon="6.36417">
        <ele>1014.8</ele>
        <time>2019-11-01T08:38:22Z</time>
      </trkpt>
      <trkpt lat="43.93609" lon="6.36414">
        <ele>1016.4</ele>
        <time>2019-11-01T08:38:24Z</time>
      </trkpt>
      <trkpt lat="43.93606" lon="6.36413">
        <ele>1017.5</ele>
        <time>2019-11-01T08:38:26Z</time>
      </trkpt>
      <trkpt lat="43.93603" lon="6.36412">
        <ele>1018.3</ele>
        <time>2019-11-01T08:38:28Z</time>
      </trkpt>
      <trkpt lat="43.93599" lon="6.36409">
        <ele>1019.2</ele>
        <time>2019-11-01T08:38:31Z</time>
      </trkpt>
      <trkpt lat="43.93596" lon="6.36406">
        <ele>1019.9</ele>
        <time>2019-11-01T08:38:32Z</time>
      </trkpt>
      <trkpt lat="43.93595" lon="6.36403">
        <ele>1020.5</ele>
        <time>2019-11-01T08:38:34Z</time>
      </trkpt>
      <trkpt lat="43.93592" lon="6.36396">
        <ele>1020</ele>
        <time>2019-11-01T08:38:37Z</time>
      </trkpt>
      <trkpt lat="43.93591" lon="6.36391">
        <ele>1019.6</ele>
        <time>2019-11-01T08:38:38Z</time>
      </trkpt>
      <trkpt lat="43.93591" lon="6.36385">
        <ele>1019.1</ele>
        <time>2019-11-01T08:38:40Z</time>
      </trkpt>
      <trkpt lat="43.93591" lon="6.36379">
        <ele>1019.1</ele>
        <time>2019-11-01T08:38:43Z</time>
      </trkpt>
      <trkpt lat="43.9359" lon="6.36374">
        <ele>1019.2</ele>
        <time>2019-11-01T08:38:44Z</time>
      </trkpt>
      <trkpt lat="43.93589" lon="6.36367">
        <ele>1019.7</ele>
        <time>2019-11-01T08:38:47Z</time>
      </trkpt>
      <trkpt lat="43.93588" lon="6.36364">
        <ele>1020</ele>
        <time>2019-11-01T08:38:49Z</time>
      </trkpt>
      <trkpt lat="43.93586" lon="6.3636">
        <ele>1020.3</ele>
        <time>2019-11-01T08:38:50Z</time>
      </trkpt>
      <trkpt lat="43.93583" lon="6.36355">
        <ele>1021</ele>
        <time>2019-11-01T08:38:53Z</time>
      </trkpt>
      <trkpt lat="43.93581" lon="6.36351">
        <ele>1022</ele>
        <time>2019-11-01T08:38:55Z</time>
      </trkpt>
      <trkpt lat="43.93579" lon="6.36348">
        <ele>1022.9</ele>
        <time>2019-11-01T08:38:57Z</time>
      </trkpt>
      <trkpt lat="43.93576" lon="6.36346">
        <ele>1023.7</ele>
        <time>2019-11-01T08:38:58Z</time>
      </trkpt>
      <trkpt lat="43.93572" lon="6.3634">
        <ele>1024.8</ele>
        <time>2019-11-01T08:39:01Z</time>
      </trkpt>
      <trkpt lat="43.93569" lon="6.36335">
        <ele>1025.3</ele>
        <time>2019-11-01T08:39:04Z</time>
      </trkpt>
      <trkpt lat="43.93565" lon="6.36332">
        <ele>1026.1</ele>
        <time>2019-11-01T08:39:06Z</time>
      </trkpt>
      <trkpt lat="43.93562" lon="6.36329">
        <ele>1026.9</ele>
        <time>2019-11-01T08:39:08Z</time>
      </trkpt>
      <trkpt lat="43.9356" lon="6.36326">
        <ele>1027.6</ele>
        <time>2019-11-01T08:39:10Z</time>
      </trkpt>
      <trkpt lat="43.93555" lon="6.36322">
        <ele>1028.8</ele>
        <time>2019-11-01T08:39:13Z</time>
      </trkpt>
      <trkpt lat="43.93551" lon="6.36319">
        <ele>1029.8</ele>
        <time>2019-11-01T08:39:15Z</time>
      </trkpt>
      <trkpt lat="43.93547" lon="6.36315">
        <ele>1030.8</ele>
        <time>2019-11-01T08:39:18Z</time>
      </trkpt>
      <trkpt lat="43.93544" lon="6.36312">
        <ele>1031.7</ele>
        <time>2019-11-01T08:39:20Z</time>
      </trkpt>
      <trkpt lat="43.93541" lon="6.36309">
        <ele>1032.2</ele>
        <time>2019-11-01T08:39:21Z</time>
      </trkpt>
      <trkpt lat="43.93537" lon="6.36305">
        <ele>1033.2</ele>
        <time>2019-11-01T08:39:24Z</time>
      </trkpt>
      <trkpt lat="43.93533" lon="6.36302">
        <ele>1034.3</ele>
        <time>2019-11-01T08:39:27Z</time>
      </trkpt>
      <trkpt lat="43.9353" lon="6.36299">
        <ele>1035.3</ele>
        <time>2019-11-01T08:39:29Z</time>
      </trkpt>
      <trkpt lat="43.93526" lon="6.36296">
        <ele>1036</ele>
        <time>2019-11-01T08:39:31Z</time>
      </trkpt>
      <trkpt lat="43.93524" lon="6.36294">
        <ele>1036.5</ele>
        <time>2019-11-01T08:39:33Z</time>
      </trkpt>
      <trkpt lat="43.9352" lon="6.36291">
        <ele>1037.2</ele>
        <time>2019-11-01T08:39:35Z</time>
      </trkpt>
      <trkpt lat="43.93517" lon="6.36289">
        <ele>1037.6</ele>
        <time>2019-11-01T08:39:36Z</time>
      </trkpt>
      <trkpt lat="43.93514" lon="6.36286">
        <ele>1038.2</ele>
        <time>2019-11-01T08:39:38Z</time>
      </trkpt>
      <trkpt lat="43.9351" lon="6.36285">
        <ele>1038.7</ele>
        <time>2019-11-01T08:39:40Z</time>
      </trkpt>
      <trkpt lat="43.93506" lon="6.36282">
        <ele>1039.4</ele>
        <time>2019-11-01T08:39:43Z</time>
      </trkpt>
      <trkpt lat="43.93501" lon="6.36279">
        <ele>1040.2</ele>
        <time>2019-11-01T08:39:46Z</time>
      </trkpt>
      <trkpt lat="43.93498" lon="6.36278">
        <ele>1040.5</ele>
        <time>2019-11-01T08:39:47Z</time>
      </trkpt>
      <trkpt lat="43.93496" lon="6.36277">
        <ele>1040.8</ele>
        <time>2019-11-01T08:39:49Z</time>
      </trkpt>
      <trkpt lat="43.93492" lon="6.36275">
        <ele>1041.2</ele>
        <time>2019-11-01T08:39:51Z</time>
      </trkpt>
      <trkpt lat="43.93488" lon="6.36273">
        <ele>1041.8</ele>
        <time>2019-11-01T08:39:53Z</time>
      </trkpt>
      <trkpt lat="43.93485" lon="6.36272">
        <ele>1042.1</ele>
        <time>2019-11-01T08:39:55Z</time>
      </trkpt>
      <trkpt lat="43.9348" lon="6.36272">
        <ele>1042.6</ele>
        <time>2019-11-01T08:39:58Z</time>
      </trkpt>
      <trkpt lat="43.93477" lon="6.3627">
        <ele>1042.9</ele>
        <time>2019-11-01T08:39:59Z</time>
      </trkpt>
      <trkpt lat="43.93474" lon="6.36268">
        <ele>1043.2</ele>
        <time>2019-11-01T08:40:01Z</time>
      </trkpt>
      <trkpt lat="43.93472" lon="6.36265">
        <ele>1043.4</ele>
        <time>2019-11-01T08:40:02Z</time>
      </trkpt>
      <trkpt lat="43.9347" lon="6.3626">
        <ele>1043.3</ele>
        <time>2019-11-01T08:40:05Z</time>
      </trkpt>
      <trkpt lat="43.93468" lon="6.36256">
        <ele>1043.3</ele>
        <time>2019-11-01T08:40:06Z</time>
      </trkpt>
      <trkpt lat="43.93467" lon="6.3625">
        <ele>1043.2</ele>
        <time>2019-11-01T08:40:09Z</time>
      </trkpt>
      <trkpt lat="43.93465" lon="6.36243">
        <ele>1043.1</ele>
        <time>2019-11-01T08:40:11Z</time>
      </trkpt>
      <trkpt lat="43.93464" lon="6.36238">
        <ele>1043</ele>
        <time>2019-11-01T08:40:13Z</time>
      </trkpt>
      <trkpt lat="43.93462" lon="6.36234">
        <ele>1042.9</ele>
        <time>2019-11-01T08:40:14Z</time>
      </trkpt>
      <trkpt lat="43.9346" lon="6.36229">
        <ele>1042.8</ele>
        <time>2019-11-01T08:40:17Z</time>
      </trkpt>
      <trkpt lat="43.93458" lon="6.36225">
        <ele>1042.8</ele>
        <time>2019-11-01T08:40:19Z</time>
      </trkpt>
      <trkpt lat="43.93456" lon="6.36221">
        <ele>1042.8</ele>
        <time>2019-11-01T08:40:21Z</time>
      </trkpt>
      <trkpt lat="43.93453" lon="6.36218">
        <ele>1043</ele>
        <time>2019-11-01T08:40:22Z</time>
      </trkpt>
      <trkpt lat="43.93451" lon="6.36213">
        <ele>1043.3</ele>
        <time>2019-11-01T08:40:25Z</time>
      </trkpt>
      <trkpt lat="43.93449" lon="6.36209">
        <ele>1043.6</ele>
        <time>2019-11-01T08:40:27Z</time>
      </trkpt>
      <trkpt lat="43.93446" lon="6.36204">
        <ele>1043.8</ele>
        <time>2019-11-01T08:40:29Z</time>
      </trkpt>
      <trkpt lat="43.93444" lon="6.36201">
        <ele>1044</ele>
        <time>2019-11-01T08:40:30Z</time>
      </trkpt>
      <trkpt lat="43.93442" lon="6.36198">
        <ele>1044.3</ele>
        <time>2019-11-01T08:40:32Z</time>
      </trkpt>
      <trkpt lat="43.93438" lon="6.36193">
        <ele>1044.7</ele>
        <time>2019-11-01T08:40:35Z</time>
      </trkpt>
      <trkpt lat="43.93435" lon="6.36188">
        <ele>1045</ele>
        <time>2019-11-01T08:40:37Z</time>
      </trkpt>
      <trkpt lat="43.93433" lon="6.36185">
        <ele>1045.2</ele>
        <time>2019-11-01T08:40:38Z</time>
      </trkpt>
      <trkpt lat="43.9343" lon="6.36183">
        <ele>1045.4</ele>
        <time>2019-11-01T08:40:40Z</time>
      </trkpt>
      <trkpt lat="43.93427" lon="6.36177">
        <ele>1045.8</ele>
        <time>2019-11-01T08:40:43Z</time>
      </trkpt>
      <trkpt lat="43.93423" lon="6.36172">
        <ele>1046.1</ele>
        <time>2019-11-01T08:40:45Z</time>
      </trkpt>
      <trkpt lat="43.9342" lon="6.36169">
        <ele>1046.4</ele>
        <time>2019-11-01T08:40:48Z</time>
      </trkpt>
      <trkpt lat="43.93417" lon="6.36164">
        <ele>1046.7</ele>
        <time>2019-11-01T08:40:50Z</time>
      </trkpt>
      <trkpt lat="43.93413" lon="6.3616">
        <ele>1047</ele>
        <time>2019-11-01T08:40:53Z</time>
      </trkpt>
      <trkpt lat="43.93409" lon="6.36155">
        <ele>1047.3</ele>
        <time>2019-11-01T08:40:55Z</time>
      </trkpt>
      <trkpt lat="43.93405" lon="6.3615">
        <ele>1047.5</ele>
        <time>2019-11-01T08:40:58Z</time>
      </trkpt>
      <trkpt lat="43.93402" lon="6.36146">
        <ele>1047.6</ele>
        <time>2019-11-01T08:41:00Z</time>
      </trkpt>
      <trkpt lat="43.93398" lon="6.36141">
        <ele>1047.8</ele>
        <time>2019-11-01T08:41:03Z</time>
      </trkpt>
      <trkpt lat="43.93394" lon="6.36136">
        <ele>1047.9</ele>
        <time>2019-11-01T08:41:06Z</time>
      </trkpt>
      <trkpt lat="43.93392" lon="6.36133">
        <ele>1048</ele>
        <time>2019-11-01T08:41:07Z</time>
      </trkpt>
      <trkpt lat="43.93389" lon="6.3613">
        <ele>1048.2</ele>
        <time>2019-11-01T08:41:09Z</time>
      </trkpt>
      <trkpt lat="43.93385" lon="6.36125">
        <ele>1048.3</ele>
        <time>2019-11-01T08:41:12Z</time>
      </trkpt>
      <trkpt lat="43.93383" lon="6.36122">
        <ele>1048.3</ele>
        <time>2019-11-01T08:41:14Z</time>
      </trkpt>
      <trkpt lat="43.9338" lon="6.36118">
        <ele>1048.4</ele>
        <time>2019-11-01T08:41:16Z</time>
      </trkpt>
      <trkpt lat="43.93375" lon="6.36113">
        <ele>1048.5</ele>
        <time>2019-11-01T08:41:19Z</time>
      </trkpt>
      <trkpt lat="43.93371" lon="6.36108">
        <ele>1048.5</ele>
        <time>2019-11-01T08:41:21Z</time>
      </trkpt>
      <trkpt lat="43.93368" lon="6.36105">
        <ele>1048.6</ele>
        <time>2019-11-01T08:41:24Z</time>
      </trkpt>
      <trkpt lat="43.93366" lon="6.36103">
        <ele>1048.6</ele>
        <time>2019-11-01T08:41:25Z</time>
      </trkpt>
      <trkpt lat="43.93363" lon="6.36099">
        <ele>1048.7</ele>
        <time>2019-11-01T08:41:28Z</time>
      </trkpt>
      <trkpt lat="43.93361" lon="6.36097">
        <ele>1048.8</ele>
        <time>2019-11-01T08:41:29Z</time>
      </trkpt>
      <trkpt lat="43.93357" lon="6.36094">
        <ele>1048.9</ele>
        <time>2019-11-01T08:41:32Z</time>
      </trkpt>
      <trkpt lat="43.93354" lon="6.36093">
        <ele>1049</ele>
        <time>2019-11-01T08:41:35Z</time>
      </trkpt>
      <trkpt lat="43.93352" lon="6.36091">
        <ele>1049</ele>
        <time>2019-11-01T08:41:59Z</time>
      </trkpt>
      <trkpt lat="43.93352" lon="6.36086">
        <ele>1049.1</ele>
        <time>2019-11-01T08:42:01Z</time>
      </trkpt>
      <trkpt lat="43.93351" lon="6.36082">
        <ele>1049.1</ele>
        <time>2019-11-01T08:42:03Z</time>
      </trkpt>
      <trkpt lat="43.9335" lon="6.36076">
        <ele>1049.2</ele>
        <time>2019-11-01T08:42:05Z</time>
      </trkpt>
      <trkpt lat="43.93349" lon="6.36073">
        <ele>1049.3</ele>
        <time>2019-11-01T08:42:06Z</time>
      </trkpt>
      <trkpt lat="43.93348" lon="6.36069">
        <ele>1049.4</ele>
        <time>2019-11-01T08:42:08Z</time>
      </trkpt>
      <trkpt lat="43.93346" lon="6.36063">
        <ele>1049.5</ele>
        <time>2019-11-01T08:42:10Z</time>
      </trkpt>
      <trkpt lat="43.93345" lon="6.36058">
        <ele>1049.6</ele>
        <time>2019-11-01T08:42:12Z</time>
      </trkpt>
      <trkpt lat="43.93344" lon="6.36054">
        <ele>1049.7</ele>
        <time>2019-11-01T08:42:14Z</time>
      </trkpt>
      <trkpt lat="43.93343" lon="6.36049">
        <ele>1049.8</ele>
        <time>2019-11-01T08:42:16Z</time>
      </trkpt>
      <trkpt lat="43.93342" lon="6.36043">
        <ele>1049.9</ele>
        <time>2019-11-01T08:42:18Z</time>
      </trkpt>
      <trkpt lat="43.93341" lon="6.36039">
        <ele>1050.1</ele>
        <time>2019-11-01T08:42:21Z</time>
      </trkpt>
      <trkpt lat="43.9334" lon="6.36032">
        <ele>1050.3</ele>
        <time>2019-11-01T08:42:23Z</time>
      </trkpt>
      <trkpt lat="43.93339" lon="6.36029">
        <ele>1050.4</ele>
        <time>2019-11-01T08:42:24Z</time>
      </trkpt>
      <trkpt lat="43.93337" lon="6.36023">
        <ele>1050.6</ele>
        <time>2019-11-01T08:42:28Z</time>
      </trkpt>
      <trkpt lat="43.93337" lon="6.36017">
        <ele>1050.9</ele>
        <time>2019-11-01T08:42:30Z</time>
      </trkpt>
      <trkpt lat="43.93336" lon="6.36011">
        <ele>1051.2</ele>
        <time>2019-11-01T08:42:32Z</time>
      </trkpt>
      <trkpt lat="43.93333" lon="6.36006">
        <ele>1051.5</ele>
        <time>2019-11-01T08:42:35Z</time>
      </trkpt>
      <trkpt lat="43.9333" lon="6.36003">
        <ele>1051.7</ele>
        <time>2019-11-01T08:42:37Z</time>
      </trkpt>
      <trkpt lat="43.93328" lon="6.35998">
        <ele>1052.1</ele>
        <time>2019-11-01T08:42:40Z</time>
      </trkpt>
      <trkpt lat="43.93326" lon="6.35993">
        <ele>1052.5</ele>
        <time>2019-11-01T08:42:43Z</time>
      </trkpt>
      <trkpt lat="43.93324" lon="6.35989">
        <ele>1052.8</ele>
        <time>2019-11-01T08:42:45Z</time>
      </trkpt>
      <trkpt lat="43.93323" lon="6.35983">
        <ele>1053.6</ele>
        <time>2019-11-01T08:42:48Z</time>
      </trkpt>
      <trkpt lat="43.93322" lon="6.35977">
        <ele>1054.4</ele>
        <time>2019-11-01T08:42:51Z</time>
      </trkpt>
      <trkpt lat="43.93321" lon="6.3597">
        <ele>1055</ele>
        <time>2019-11-01T08:42:54Z</time>
      </trkpt>
      <trkpt lat="43.93321" lon="6.35964">
        <ele>1055.7</ele>
        <time>2019-11-01T08:42:57Z</time>
      </trkpt>
      <trkpt lat="43.93321" lon="6.35957">
        <ele>1056.4</ele>
        <time>2019-11-01T08:42:59Z</time>
      </trkpt>
      <trkpt lat="43.93322" lon="6.35951">
        <ele>1057.3</ele>
        <time>2019-11-01T08:43:01Z</time>
      </trkpt>
      <trkpt lat="43.93322" lon="6.35946">
        <ele>1058.1</ele>
        <time>2019-11-01T08:43:04Z</time>
      </trkpt>
      <trkpt lat="43.93322" lon="6.3594">
        <ele>1058.8</ele>
        <time>2019-11-01T08:43:06Z</time>
      </trkpt>
      <trkpt lat="43.93322" lon="6.35934">
        <ele>1059.5</ele>
        <time>2019-11-01T08:43:09Z</time>
      </trkpt>
      <trkpt lat="43.93321" lon="6.3593">
        <ele>1060</ele>
        <time>2019-11-01T08:43:10Z</time>
      </trkpt>
      <trkpt lat="43.93321" lon="6.35926">
        <ele>1060.6</ele>
        <time>2019-11-01T08:43:12Z</time>
      </trkpt>
      <trkpt lat="43.93321" lon="6.35922">
        <ele>1061.1</ele>
        <time>2019-11-01T08:43:14Z</time>
      </trkpt>
      <trkpt lat="43.93321" lon="6.35915">
        <ele>1062</ele>
        <time>2019-11-01T08:43:17Z</time>
      </trkpt>
      <trkpt lat="43.93321" lon="6.35911">
        <ele>1062.5</ele>
        <time>2019-11-01T08:43:18Z</time>
      </trkpt>
      <trkpt lat="43.93322" lon="6.35906">
        <ele>1063.3</ele>
        <time>2019-11-01T08:43:21Z</time>
      </trkpt>
      <trkpt lat="43.93323" lon="6.35899">
        <ele>1064</ele>
        <time>2019-11-01T08:43:23Z</time>
      </trkpt>
      <trkpt lat="43.93324" lon="6.35892">
        <ele>1064.6</ele>
        <time>2019-11-01T08:43:26Z</time>
      </trkpt>
      <trkpt lat="43.93326" lon="6.35887">
        <ele>1065.4</ele>
        <time>2019-11-01T08:43:28Z</time>
      </trkpt>
      <trkpt lat="43.93326" lon="6.35883">
        <ele>1066</ele>
        <time>2019-11-01T08:43:31Z</time>
      </trkpt>
      <trkpt lat="43.93326" lon="6.35879">
        <ele>1066.6</ele>
        <time>2019-11-01T08:43:33Z</time>
      </trkpt>
      <trkpt lat="43.93326" lon="6.35872">
        <ele>1067.4</ele>
        <time>2019-11-01T08:43:35Z</time>
      </trkpt>
      <trkpt lat="43.93327" lon="6.35865">
        <ele>1068.2</ele>
        <time>2019-11-01T08:43:38Z</time>
      </trkpt>
      <trkpt lat="43.93327" lon="6.35861">
        <ele>1068.6</ele>
        <time>2019-11-01T08:43:41Z</time>
      </trkpt>
      <trkpt lat="43.93328" lon="6.35853">
        <ele>1069.3</ele>
        <time>2019-11-01T08:43:43Z</time>
      </trkpt>
      <trkpt lat="43.93328" lon="6.35847">
        <ele>1070.1</ele>
        <time>2019-11-01T08:43:47Z</time>
      </trkpt>
      <trkpt lat="43.93328" lon="6.35841">
        <ele>1070.8</ele>
        <time>2019-11-01T08:43:48Z</time>
      </trkpt>
      <trkpt lat="43.93329" lon="6.35835">
        <ele>1071.6</ele>
        <time>2019-11-01T08:43:51Z</time>
      </trkpt>
      <trkpt lat="43.9333" lon="6.3583">
        <ele>1072.1</ele>
        <time>2019-11-01T08:43:53Z</time>
      </trkpt>
      <trkpt lat="43.9333" lon="6.35824">
        <ele>1072.7</ele>
        <time>2019-11-01T08:43:56Z</time>
      </trkpt>
      <trkpt lat="43.93331" lon="6.35818">
        <ele>1073.2</ele>
        <time>2019-11-01T08:43:59Z</time>
      </trkpt>
      <trkpt lat="43.93331" lon="6.35814">
        <ele>1073.7</ele>
        <time>2019-11-01T08:44:00Z</time>
      </trkpt>
      <trkpt lat="43.93331" lon="6.35808">
        <ele>1074.4</ele>
        <time>2019-11-01T08:44:02Z</time>
      </trkpt>
      <trkpt lat="43.93332" lon="6.35804">
        <ele>1074.8</ele>
        <time>2019-11-01T08:44:04Z</time>
      </trkpt>
      <trkpt lat="43.93332" lon="6.35799">
        <ele>1075.3</ele>
        <time>2019-11-01T08:44:06Z</time>
      </trkpt>
      <trkpt lat="43.93332" lon="6.35794">
        <ele>1075.8</ele>
        <time>2019-11-01T08:44:08Z</time>
      </trkpt>
      <trkpt lat="43.93333" lon="6.3579">
        <ele>1076.3</ele>
        <time>2019-11-01T08:44:10Z</time>
      </trkpt>
      <trkpt lat="43.93334" lon="6.35784">
        <ele>1077</ele>
        <time>2019-11-01T08:44:13Z</time>
      </trkpt>
      <trkpt lat="43.93333" lon="6.35778">
        <ele>1077.6</ele>
        <time>2019-11-01T08:44:15Z</time>
      </trkpt>
      <trkpt lat="43.93333" lon="6.35772">
        <ele>1078</ele>
        <time>2019-11-01T08:44:19Z</time>
      </trkpt>
      <trkpt lat="43.93334" lon="6.35768">
        <ele>1078.3</ele>
        <time>2019-11-01T08:44:21Z</time>
      </trkpt>
      <trkpt lat="43.93334" lon="6.35764">
        <ele>1078.6</ele>
        <time>2019-11-01T08:44:23Z</time>
      </trkpt>
      <trkpt lat="43.93336" lon="6.35757">
        <ele>1079.1</ele>
        <time>2019-11-01T08:44:25Z</time>
      </trkpt>
      <trkpt lat="43.93338" lon="6.3575">
        <ele>1079.6</ele>
        <time>2019-11-01T08:44:29Z</time>
      </trkpt>
      <trkpt lat="43.93341" lon="6.35745">
        <ele>1079.9</ele>
        <time>2019-11-01T08:44:31Z</time>
      </trkpt>
      <trkpt lat="43.93343" lon="6.3574">
        <ele>1080.4</ele>
        <time>2019-11-01T08:44:33Z</time>
      </trkpt>
      <trkpt lat="43.93346" lon="6.35735">
        <ele>1080.7</ele>
        <time>2019-11-01T08:44:36Z</time>
      </trkpt>
      <trkpt lat="43.93349" lon="6.35731">
        <ele>1081</ele>
        <time>2019-11-01T08:44:38Z</time>
      </trkpt>
      <trkpt lat="43.93352" lon="6.35728">
        <ele>1081.1</ele>
        <time>2019-11-01T08:44:40Z</time>
      </trkpt>
      <trkpt lat="43.93357" lon="6.35725">
        <ele>1081.3</ele>
        <time>2019-11-01T08:44:43Z</time>
      </trkpt>
      <trkpt lat="43.93362" lon="6.35722">
        <ele>1081.5</ele>
        <time>2019-11-01T08:44:46Z</time>
      </trkpt>
      <trkpt lat="43.93366" lon="6.35721">
        <ele>1081.5</ele>
        <time>2019-11-01T08:44:48Z</time>
      </trkpt>
      <trkpt lat="43.93372" lon="6.35719">
        <ele>1081.7</ele>
        <time>2019-11-01T08:44:51Z</time>
      </trkpt>
      <trkpt lat="43.93377" lon="6.35716">
        <ele>1081.9</ele>
        <time>2019-11-01T08:44:54Z</time>
      </trkpt>
      <trkpt lat="43.93381" lon="6.35712">
        <ele>1082.3</ele>
        <time>2019-11-01T08:44:56Z</time>
      </trkpt>
      <trkpt lat="43.93385" lon="6.3571">
        <ele>1082.6</ele>
        <time>2019-11-01T08:44:59Z</time>
      </trkpt>
      <trkpt lat="43.93388" lon="6.35708">
        <ele>1082.8</ele>
        <time>2019-11-01T08:45:01Z</time>
      </trkpt>
      <trkpt lat="43.93391" lon="6.35706">
        <ele>1082.8</ele>
        <time>2019-11-01T08:45:03Z</time>
      </trkpt>
      <trkpt lat="43.93395" lon="6.35704">
        <ele>1083</ele>
        <time>2019-11-01T08:45:05Z</time>
      </trkpt>
      <trkpt lat="43.93399" lon="6.35703">
        <ele>1083.4</ele>
        <time>2019-11-01T08:45:08Z</time>
      </trkpt>
      <trkpt lat="43.93402" lon="6.35702">
        <ele>1083.7</ele>
        <time>2019-11-01T08:45:09Z</time>
      </trkpt>
      <trkpt lat="43.93405" lon="6.357">
        <ele>1083.8</ele>
        <time>2019-11-01T08:45:11Z</time>
      </trkpt>
      <trkpt lat="43.93409" lon="6.35699">
        <ele>1083.9</ele>
        <time>2019-11-01T08:45:13Z</time>
      </trkpt>
      <trkpt lat="43.93413" lon="6.35698">
        <ele>1084.6</ele>
        <time>2019-11-01T08:45:15Z</time>
      </trkpt>
      <trkpt lat="43.93418" lon="6.35696">
        <ele>1085.5</ele>
        <time>2019-11-01T08:45:18Z</time>
      </trkpt>
      <trkpt lat="43.93423" lon="6.35695">
        <ele>1085.7</ele>
        <time>2019-11-01T08:45:20Z</time>
      </trkpt>
      <trkpt lat="43.93428" lon="6.35694">
        <ele>1086.2</ele>
        <time>2019-11-01T08:45:23Z</time>
      </trkpt>
      <trkpt lat="43.93432" lon="6.35695">
        <ele>1086.6</ele>
        <time>2019-11-01T08:45:26Z</time>
      </trkpt>
      <trkpt lat="43.93437" lon="6.35694">
        <ele>1087.1</ele>
        <time>2019-11-01T08:45:29Z</time>
      </trkpt>
      <trkpt lat="43.93441" lon="6.35695">
        <ele>1087.5</ele>
        <time>2019-11-01T08:45:31Z</time>
      </trkpt>
      <trkpt lat="43.93446" lon="6.35695">
        <ele>1088.3</ele>
        <time>2019-11-01T08:45:34Z</time>
      </trkpt>
      <trkpt lat="43.9345" lon="6.35695">
        <ele>1088.9</ele>
        <time>2019-11-01T08:45:36Z</time>
      </trkpt>
      <trkpt lat="43.93454" lon="6.35695">
        <ele>1089.5</ele>
        <time>2019-11-01T08:45:39Z</time>
      </trkpt>
      <trkpt lat="43.93458" lon="6.35695">
        <ele>1090.1</ele>
        <time>2019-11-01T08:45:42Z</time>
      </trkpt>
      <trkpt lat="43.93462" lon="6.35694">
        <ele>1091.4</ele>
        <time>2019-11-01T08:45:44Z</time>
      </trkpt>
      <trkpt lat="43.93467" lon="6.35692">
        <ele>1092.4</ele>
        <time>2019-11-01T08:45:47Z</time>
      </trkpt>
      <trkpt lat="43.93471" lon="6.35691">
        <ele>1093.1</ele>
        <time>2019-11-01T08:45:49Z</time>
      </trkpt>
      <trkpt lat="43.93474" lon="6.3569">
        <ele>1093.8</ele>
        <time>2019-11-01T08:45:51Z</time>
      </trkpt>
      <trkpt lat="43.9348" lon="6.35688">
        <ele>1095.8</ele>
        <time>2019-11-01T08:45:55Z</time>
      </trkpt>
      <trkpt lat="43.93483" lon="6.35687">
        <ele>1096.4</ele>
        <time>2019-11-01T08:45:56Z</time>
      </trkpt>
      <trkpt lat="43.93487" lon="6.35685">
        <ele>1096.8</ele>
        <time>2019-11-01T08:45:59Z</time>
      </trkpt>
      <trkpt lat="43.93492" lon="6.35685">
        <ele>1098.2</ele>
        <time>2019-11-01T08:46:02Z</time>
      </trkpt>
      <trkpt lat="43.93496" lon="6.35684">
        <ele>1099.5</ele>
        <time>2019-11-01T08:46:04Z</time>
      </trkpt>
      <trkpt lat="43.93501" lon="6.35683">
        <ele>1100.1</ele>
        <time>2019-11-01T08:46:06Z</time>
      </trkpt>
      <trkpt lat="43.93505" lon="6.35682">
        <ele>1100.5</ele>
        <time>2019-11-01T08:46:09Z</time>
      </trkpt>
      <trkpt lat="43.93509" lon="6.35682">
        <ele>1101</ele>
        <time>2019-11-01T08:46:11Z</time>
      </trkpt>
      <trkpt lat="43.93513" lon="6.35683">
        <ele>1101.6</ele>
        <time>2019-11-01T08:46:13Z</time>
      </trkpt>
      <trkpt lat="43.93518" lon="6.35683">
        <ele>1102.1</ele>
        <time>2019-11-01T08:46:16Z</time>
      </trkpt>
      <trkpt lat="43.93523" lon="6.35682">
        <ele>1102.6</ele>
        <time>2019-11-01T08:46:19Z</time>
      </trkpt>
      <trkpt lat="43.93527" lon="6.35682">
        <ele>1103.5</ele>
        <time>2019-11-01T08:46:21Z</time>
      </trkpt>
      <trkpt lat="43.93531" lon="6.35682">
        <ele>1104.4</ele>
        <time>2019-11-01T08:46:24Z</time>
      </trkpt>
      <trkpt lat="43.93535" lon="6.35681">
        <ele>1104.7</ele>
        <time>2019-11-01T08:46:25Z</time>
      </trkpt>
      <trkpt lat="43.9354" lon="6.35681">
        <ele>1105.1</ele>
        <time>2019-11-01T08:46:28Z</time>
      </trkpt>
      <trkpt lat="43.93546" lon="6.35681">
        <ele>1105.4</ele>
        <time>2019-11-01T08:46:31Z</time>
      </trkpt>
      <trkpt lat="43.93552" lon="6.35683">
        <ele>1105.5</ele>
        <time>2019-11-01T08:46:34Z</time>
      </trkpt>
      <trkpt lat="43.93556" lon="6.35683">
        <ele>1105.4</ele>
        <time>2019-11-01T08:46:36Z</time>
      </trkpt>
      <trkpt lat="43.93561" lon="6.35685">
        <ele>1105.2</ele>
        <time>2019-11-01T08:46:39Z</time>
      </trkpt>
      <trkpt lat="43.93563" lon="6.35688">
        <ele>1105</ele>
        <time>2019-11-01T08:46:41Z</time>
      </trkpt>
      <trkpt lat="43.93567" lon="6.35692">
        <ele>1105.1</ele>
        <time>2019-11-01T08:46:43Z</time>
      </trkpt>
      <trkpt lat="43.9357" lon="6.35694">
        <ele>1105.3</ele>
        <time>2019-11-01T08:46:45Z</time>
      </trkpt>
      <trkpt lat="43.93575" lon="6.35695">
        <ele>1105.4</ele>
        <time>2019-11-01T08:46:48Z</time>
      </trkpt>
      <trkpt lat="43.93578" lon="6.35695">
        <ele>1105.1</ele>
        <time>2019-11-01T08:46:49Z</time>
      </trkpt>
      <trkpt lat="43.93583" lon="6.35695">
        <ele>1105.2</ele>
        <time>2019-11-01T08:46:52Z</time>
      </trkpt>
      <trkpt lat="43.93586" lon="6.35694">
        <ele>1105.4</ele>
        <time>2019-11-01T08:46:53Z</time>
      </trkpt>
      <trkpt lat="43.93591" lon="6.35691">
        <ele>1106.4</ele>
        <time>2019-11-01T08:46:56Z</time>
      </trkpt>
      <trkpt lat="43.93593" lon="6.35689">
        <ele>1107.1</ele>
        <time>2019-11-01T08:46:57Z</time>
      </trkpt>
      <trkpt lat="43.93596" lon="6.35682">
        <ele>1108.4</ele>
        <time>2019-11-01T08:47:00Z</time>
      </trkpt>
      <trkpt lat="43.93595" lon="6.35675">
        <ele>1109.2</ele>
        <time>2019-11-01T08:47:02Z</time>
      </trkpt>
      <trkpt lat="43.93594" lon="6.35669">
        <ele>1109.2</ele>
        <time>2019-11-01T08:47:05Z</time>
      </trkpt>
      <trkpt lat="43.93589" lon="6.35667">
        <ele>1109.8</ele>
        <time>2019-11-01T08:47:07Z</time>
      </trkpt>
      <trkpt lat="43.93585" lon="6.35667">
        <ele>1109.6</ele>
        <time>2019-11-01T08:47:10Z</time>
      </trkpt>
      <trkpt lat="43.9358" lon="6.35669">
        <ele>1109.2</ele>
        <time>2019-11-01T08:47:12Z</time>
      </trkpt>
      <trkpt lat="43.93578" lon="6.35671">
        <ele>1108.7</ele>
        <time>2019-11-01T08:47:13Z</time>
      </trkpt>
      <trkpt lat="43.93573" lon="6.35674">
        <ele>1108</ele>
        <time>2019-11-01T08:47:16Z</time>
      </trkpt>
      <trkpt lat="43.93568" lon="6.35675">
        <ele>1107.6</ele>
        <time>2019-11-01T08:47:18Z</time>
      </trkpt>
      <trkpt lat="43.93564" lon="6.35674">
        <ele>1107.5</ele>
        <time>2019-11-01T08:47:20Z</time>
      </trkpt>
      <trkpt lat="43.93561" lon="6.35673">
        <ele>1107.6</ele>
        <time>2019-11-01T08:47:22Z</time>
      </trkpt>
      <trkpt lat="43.93556" lon="6.35668">
        <ele>1107.9</ele>
        <time>2019-11-01T08:47:25Z</time>
      </trkpt>
      <trkpt lat="43.93553" lon="6.35664">
        <ele>1108.7</ele>
        <time>2019-11-01T08:47:27Z</time>
      </trkpt>
      <trkpt lat="43.93549" lon="6.3566">
        <ele>1109.5</ele>
        <time>2019-11-01T08:47:30Z</time>
      </trkpt>
      <trkpt lat="43.93547" lon="6.35657">
        <ele>1109.7</ele>
        <time>2019-11-01T08:47:31Z</time>
      </trkpt>
      <trkpt lat="43.93543" lon="6.35653">
        <ele>1110.1</ele>
        <time>2019-11-01T08:47:34Z</time>
      </trkpt>
      <trkpt lat="43.9354" lon="6.3565">
        <ele>1111.1</ele>
        <time>2019-11-01T08:47:36Z</time>
      </trkpt>
      <trkpt lat="43.93538" lon="6.35648">
        <ele>1111.9</ele>
        <time>2019-11-01T08:47:38Z</time>
      </trkpt>
      <trkpt lat="43.93534" lon="6.35645">
        <ele>1112.8</ele>
        <time>2019-11-01T08:47:40Z</time>
      </trkpt>
      <trkpt lat="43.93531" lon="6.35641">
        <ele>1113.3</ele>
        <time>2019-11-01T08:47:42Z</time>
      </trkpt>
      <trkpt lat="43.93528" lon="6.35639">
        <ele>1113.9</ele>
        <time>2019-11-01T08:47:44Z</time>
      </trkpt>
      <trkpt lat="43.93523" lon="6.35637">
        <ele>1115.2</ele>
        <time>2019-11-01T08:47:47Z</time>
      </trkpt>
      <trkpt lat="43.9352" lon="6.35635">
        <ele>1116</ele>
        <time>2019-11-01T08:47:49Z</time>
      </trkpt>
      <trkpt lat="43.93516" lon="6.35632">
        <ele>1116.5</ele>
        <time>2019-11-01T08:47:51Z</time>
      </trkpt>
      <trkpt lat="43.93513" lon="6.35629">
        <ele>1116.9</ele>
        <time>2019-11-01T08:47:54Z</time>
      </trkpt>
      <trkpt lat="43.93509" lon="6.35627">
        <ele>1118.4</ele>
        <time>2019-11-01T08:47:56Z</time>
      </trkpt>
      <trkpt lat="43.93506" lon="6.35621">
        <ele>1120</ele>
        <time>2019-11-01T08:47:58Z</time>
      </trkpt>
      <trkpt lat="43.93503" lon="6.35616">
        <ele>1121.3</ele>
        <time>2019-11-01T08:48:01Z</time>
      </trkpt>
      <trkpt lat="43.93502" lon="6.3561">
        <ele>1122</ele>
        <time>2019-11-01T08:48:03Z</time>
      </trkpt>
      <trkpt lat="43.93497" lon="6.35606">
        <ele>1121.4</ele>
        <time>2019-11-01T08:48:07Z</time>
      </trkpt>
      <trkpt lat="43.93492" lon="6.35605">
        <ele>1121.4</ele>
        <time>2019-11-01T08:48:09Z</time>
      </trkpt>
      <trkpt lat="43.93488" lon="6.35604">
        <ele>1121.7</ele>
        <time>2019-11-01T08:48:11Z</time>
      </trkpt>
      <trkpt lat="43.93485" lon="6.35604">
        <ele>1121.3</ele>
        <time>2019-11-01T08:48:13Z</time>
      </trkpt>
      <trkpt lat="43.93481" lon="6.35606">
        <ele>1120.9</ele>
        <time>2019-11-01T08:48:15Z</time>
      </trkpt>
      <trkpt lat="43.93479" lon="6.35607">
        <ele>1120.9</ele>
        <time>2019-11-01T08:48:17Z</time>
      </trkpt>
      <trkpt lat="43.93474" lon="6.35606">
        <ele>1121</ele>
        <time>2019-11-01T08:48:20Z</time>
      </trkpt>
      <trkpt lat="43.93469" lon="6.35603">
        <ele>1120.9</ele>
        <time>2019-11-01T08:48:23Z</time>
      </trkpt>
      <trkpt lat="43.93465" lon="6.356">
        <ele>1120.8</ele>
        <time>2019-11-01T08:48:25Z</time>
      </trkpt>
      <trkpt lat="43.9346" lon="6.35597">
        <ele>1120.9</ele>
        <time>2019-11-01T08:48:28Z</time>
      </trkpt>
      <trkpt lat="43.93455" lon="6.35593">
        <ele>1121.4</ele>
        <time>2019-11-01T08:48:31Z</time>
      </trkpt>
      <trkpt lat="43.93452" lon="6.35589">
        <ele>1121.9</ele>
        <time>2019-11-01T08:48:33Z</time>
      </trkpt>
      <trkpt lat="43.93449" lon="6.35585">
        <ele>1122.3</ele>
        <time>2019-11-01T08:48:35Z</time>
      </trkpt>
      <trkpt lat="43.93447" lon="6.35582">
        <ele>1122.7</ele>
        <time>2019-11-01T08:48:37Z</time>
      </trkpt>
      <trkpt lat="43.93445" lon="6.35578">
        <ele>1123.2</ele>
        <time>2019-11-01T08:48:39Z</time>
      </trkpt>
      <trkpt lat="43.93444" lon="6.3557">
        <ele>1124</ele>
        <time>2019-11-01T08:48:42Z</time>
      </trkpt>
      <trkpt lat="43.93441" lon="6.35564">
        <ele>1124.7</ele>
        <time>2019-11-01T08:48:44Z</time>
      </trkpt>
      <trkpt lat="43.93439" lon="6.3556">
        <ele>1125.3</ele>
        <time>2019-11-01T08:48:47Z</time>
      </trkpt>
      <trkpt lat="43.93437" lon="6.35557">
        <ele>1125.7</ele>
        <time>2019-11-01T08:48:48Z</time>
      </trkpt>
      <trkpt lat="43.93434" lon="6.35553">
        <ele>1126.4</ele>
        <time>2019-11-01T08:48:51Z</time>
      </trkpt>
      <trkpt lat="43.93432" lon="6.35549">
        <ele>1127.1</ele>
        <time>2019-11-01T08:48:53Z</time>
      </trkpt>
      <trkpt lat="43.93431" lon="6.35545">
        <ele>1127.7</ele>
        <time>2019-11-01T08:48:55Z</time>
      </trkpt>
      <trkpt lat="43.93428" lon="6.35543">
        <ele>1128.4</ele>
        <time>2019-11-01T08:48:57Z</time>
      </trkpt>
      <trkpt lat="43.93425" lon="6.35539">
        <ele>1129.8</ele>
        <time>2019-11-01T08:48:59Z</time>
      </trkpt>
      <trkpt lat="43.93423" lon="6.35535">
        <ele>1131</ele>
        <time>2019-11-01T08:49:01Z</time>
      </trkpt>
      <trkpt lat="43.93419" lon="6.35528">
        <ele>1132.6</ele>
        <time>2019-11-01T08:49:04Z</time>
      </trkpt>
      <trkpt lat="43.93417" lon="6.35523">
        <ele>1133.4</ele>
        <time>2019-11-01T08:49:07Z</time>
      </trkpt>
      <trkpt lat="43.93415" lon="6.35518">
        <ele>1134.2</ele>
        <time>2019-11-01T08:49:09Z</time>
      </trkpt>
      <trkpt lat="43.93413" lon="6.35513">
        <ele>1135.2</ele>
        <time>2019-11-01T08:49:11Z</time>
      </trkpt>
      <trkpt lat="43.93411" lon="6.35507">
        <ele>1136.4</ele>
        <time>2019-11-01T08:49:13Z</time>
      </trkpt>
      <trkpt lat="43.9341" lon="6.35501">
        <ele>1137.5</ele>
        <time>2019-11-01T08:49:16Z</time>
      </trkpt>
      <trkpt lat="43.93408" lon="6.35496">
        <ele>1138.4</ele>
        <time>2019-11-01T08:49:19Z</time>
      </trkpt>
      <trkpt lat="43.93405" lon="6.35491">
        <ele>1139.1</ele>
        <time>2019-11-01T08:49:21Z</time>
      </trkpt>
      <trkpt lat="43.934" lon="6.35485">
        <ele>1139.3</ele>
        <time>2019-11-01T08:49:25Z</time>
      </trkpt>
      <trkpt lat="43.93397" lon="6.35483">
        <ele>1139.3</ele>
        <time>2019-11-01T08:49:27Z</time>
      </trkpt>
      <trkpt lat="43.93393" lon="6.35479">
        <ele>1139.9</ele>
        <time>2019-11-01T08:49:30Z</time>
      </trkpt>
      <trkpt lat="43.93389" lon="6.35477">
        <ele>1140.3</ele>
        <time>2019-11-01T08:49:32Z</time>
      </trkpt>
      <trkpt lat="43.93386" lon="6.35474">
        <ele>1140.2</ele>
        <time>2019-11-01T08:49:35Z</time>
      </trkpt>
      <trkpt lat="43.93382" lon="6.35471">
        <ele>1140.3</ele>
        <time>2019-11-01T08:49:37Z</time>
      </trkpt>
      <trkpt lat="43.9338" lon="6.35468">
        <ele>1140.7</ele>
        <time>2019-11-01T08:49:39Z</time>
      </trkpt>
      <trkpt lat="43.93376" lon="6.35463">
        <ele>1140.8</ele>
        <time>2019-11-01T08:49:42Z</time>
      </trkpt>
      <trkpt lat="43.93372" lon="6.35459">
        <ele>1140.3</ele>
        <time>2019-11-01T08:49:44Z</time>
      </trkpt>
      <trkpt lat="43.93367" lon="6.35454">
        <ele>1140.7</ele>
        <time>2019-11-01T08:49:47Z</time>
      </trkpt>
      <trkpt lat="43.93363" lon="6.3545">
        <ele>1140.9</ele>
        <time>2019-11-01T08:49:50Z</time>
      </trkpt>
      <trkpt lat="43.9336" lon="6.35447">
        <ele>1140.9</ele>
        <time>2019-11-01T08:49:53Z</time>
      </trkpt>
      <trkpt lat="43.93357" lon="6.35444">
        <ele>1140.8</ele>
        <time>2019-11-01T08:49:55Z</time>
      </trkpt>
      <trkpt lat="43.93353" lon="6.35441">
        <ele>1140.5</ele>
        <time>2019-11-01T08:49:57Z</time>
      </trkpt>
      <trkpt lat="43.93351" lon="6.35439">
        <ele>1140.3</ele>
        <time>2019-11-01T08:49:59Z</time>
      </trkpt>
      <trkpt lat="43.93348" lon="6.35436">
        <ele>1140.2</ele>
        <time>2019-11-01T08:50:01Z</time>
      </trkpt>
      <trkpt lat="43.93344" lon="6.35434">
        <ele>1140.2</ele>
        <time>2019-11-01T08:50:03Z</time>
      </trkpt>
      <trkpt lat="43.93341" lon="6.35434">
        <ele>1140.2</ele>
        <time>2019-11-01T08:50:05Z</time>
      </trkpt>
      <trkpt lat="43.93337" lon="6.35433">
        <ele>1140.1</ele>
        <time>2019-11-01T08:50:08Z</time>
      </trkpt>
      <trkpt lat="43.93334" lon="6.35432">
        <ele>1139.6</ele>
        <time>2019-11-01T08:50:10Z</time>
      </trkpt>
      <trkpt lat="43.93331" lon="6.35431">
        <ele>1139.2</ele>
        <time>2019-11-01T08:50:11Z</time>
      </trkpt>
      <trkpt lat="43.93328" lon="6.3543">
        <ele>1138.8</ele>
        <time>2019-11-01T08:50:12Z</time>
      </trkpt>
      <trkpt lat="43.93324" lon="6.3543">
        <ele>1139</ele>
        <time>2019-11-01T08:50:15Z</time>
      </trkpt>
      <trkpt lat="43.9332" lon="6.35429">
        <ele>1139.1</ele>
        <time>2019-11-01T08:50:17Z</time>
      </trkpt>
      <trkpt lat="43.93316" lon="6.35427">
        <ele>1139.3</ele>
        <time>2019-11-01T08:50:19Z</time>
      </trkpt>
      <trkpt lat="43.93313" lon="6.35427">
        <ele>1139.6</ele>
        <time>2019-11-01T08:50:22Z</time>
      </trkpt>
      <trkpt lat="43.9331" lon="6.35424">
        <ele>1140</ele>
        <time>2019-11-01T08:50:24Z</time>
      </trkpt>
      <trkpt lat="43.93308" lon="6.35421">
        <ele>1140.4</ele>
        <time>2019-11-01T08:50:26Z</time>
      </trkpt>
      <trkpt lat="43.93304" lon="6.35417">
        <ele>1141</ele>
        <time>2019-11-01T08:50:28Z</time>
      </trkpt>
      <trkpt lat="43.93301" lon="6.35415">
        <ele>1141.4</ele>
        <time>2019-11-01T08:50:30Z</time>
      </trkpt>
      <trkpt lat="43.93298" lon="6.35411">
        <ele>1141.9</ele>
        <time>2019-11-01T08:50:32Z</time>
      </trkpt>
      <trkpt lat="43.93296" lon="6.35408">
        <ele>1142.4</ele>
        <time>2019-11-01T08:50:34Z</time>
      </trkpt>
      <trkpt lat="43.93293" lon="6.35403">
        <ele>1143.1</ele>
        <time>2019-11-01T08:50:36Z</time>
      </trkpt>
      <trkpt lat="43.93292" lon="6.35399">
        <ele>1143.8</ele>
        <time>2019-11-01T08:50:38Z</time>
      </trkpt>
      <trkpt lat="43.9329" lon="6.35394">
        <ele>1144.6</ele>
        <time>2019-11-01T08:50:40Z</time>
      </trkpt>
      <trkpt lat="43.93289" lon="6.35389">
        <ele>1145.8</ele>
        <time>2019-11-01T08:50:43Z</time>
      </trkpt>
      <trkpt lat="43.93286" lon="6.35384">
        <ele>1147.2</ele>
        <time>2019-11-01T08:50:44Z</time>
      </trkpt>
      <trkpt lat="43.93283" lon="6.35381">
        <ele>1148.1</ele>
        <time>2019-11-01T08:50:47Z</time>
      </trkpt>
      <trkpt lat="43.93279" lon="6.35376">
        <ele>1148.8</ele>
        <time>2019-11-01T08:50:50Z</time>
      </trkpt>
      <trkpt lat="43.93277" lon="6.35372">
        <ele>1149.4</ele>
        <time>2019-11-01T08:50:52Z</time>
      </trkpt>
      <trkpt lat="43.93273" lon="6.35366">
        <ele>1150.4</ele>
        <time>2019-11-01T08:50:56Z</time>
      </trkpt>
      <trkpt lat="43.9327" lon="6.35361">
        <ele>1151.3</ele>
        <time>2019-11-01T08:50:59Z</time>
      </trkpt>
      <trkpt lat="43.93267" lon="6.35357">
        <ele>1152.1</ele>
        <time>2019-11-01T08:51:01Z</time>
      </trkpt>
      <trkpt lat="43.93264" lon="6.35351">
        <ele>1153.2</ele>
        <time>2019-11-01T08:51:04Z</time>
      </trkpt>
      <trkpt lat="43.93261" lon="6.35346">
        <ele>1154.3</ele>
        <time>2019-11-01T08:51:07Z</time>
      </trkpt>
      <trkpt lat="43.93258" lon="6.3534">
        <ele>1155.6</ele>
        <time>2019-11-01T08:51:09Z</time>
      </trkpt>
      <trkpt lat="43.93256" lon="6.35336">
        <ele>1156.8</ele>
        <time>2019-11-01T08:51:12Z</time>
      </trkpt>
      <trkpt lat="43.93253" lon="6.35331">
        <ele>1158.1</ele>
        <time>2019-11-01T08:51:15Z</time>
      </trkpt>
      <trkpt lat="43.9325" lon="6.35325">
        <ele>1159.5</ele>
        <time>2019-11-01T08:51:18Z</time>
      </trkpt>
      <trkpt lat="43.93249" lon="6.35322">
        <ele>1160.2</ele>
        <time>2019-11-01T08:51:19Z</time>
      </trkpt>
      <trkpt lat="43.93245" lon="6.35316">
        <ele>1161.1</ele>
        <time>2019-11-01T08:51:22Z</time>
      </trkpt>
      <trkpt lat="43.93242" lon="6.35313">
        <ele>1161.5</ele>
        <time>2019-11-01T08:51:25Z</time>
      </trkpt>
      <trkpt lat="43.9324" lon="6.3531">
        <ele>1161.8</ele>
        <time>2019-11-01T08:51:29Z</time>
      </trkpt>
      <trkpt lat="43.93237" lon="6.35308">
        <ele>1162</ele>
        <time>2019-11-01T08:51:32Z</time>
      </trkpt>
      <trkpt lat="43.93235" lon="6.35306">
        <ele>1162.3</ele>
        <time>2019-11-01T08:51:33Z</time>
      </trkpt>
      <trkpt lat="43.93231" lon="6.35304">
        <ele>1162.6</ele>
        <time>2019-11-01T08:51:34Z</time>
      </trkpt>
      <trkpt lat="43.93228" lon="6.35302">
        <ele>1162.9</ele>
        <time>2019-11-01T08:51:37Z</time>
      </trkpt>
      <trkpt lat="43.93225" lon="6.353">
        <ele>1163.2</ele>
        <time>2019-11-01T08:51:38Z</time>
      </trkpt>
      <trkpt lat="43.93222" lon="6.35299">
        <ele>1163.5</ele>
        <time>2019-11-01T08:51:40Z</time>
      </trkpt>
      <trkpt lat="43.93217" lon="6.35297">
        <ele>1164</ele>
        <time>2019-11-01T08:51:43Z</time>
      </trkpt>
      <trkpt lat="43.93213" lon="6.35295">
        <ele>1165.2</ele>
        <time>2019-11-01T08:51:46Z</time>
      </trkpt>
      <trkpt lat="43.9321" lon="6.35295">
        <ele>1166</ele>
        <time>2019-11-01T08:51:48Z</time>
      </trkpt>
      <trkpt lat="43.93206" lon="6.35291">
        <ele>1166.5</ele>
        <time>2019-11-01T08:51:50Z</time>
      </trkpt>
      <trkpt lat="43.93201" lon="6.35286">
        <ele>1167.2</ele>
        <time>2019-11-01T08:51:53Z</time>
      </trkpt>
      <trkpt lat="43.93199" lon="6.35283">
        <ele>1167.6</ele>
        <time>2019-11-01T08:51:56Z</time>
      </trkpt>
      <trkpt lat="43.93195" lon="6.35279">
        <ele>1168.5</ele>
        <time>2019-11-01T08:51:58Z</time>
      </trkpt>
      <trkpt lat="43.93191" lon="6.35275">
        <ele>1169.6</ele>
        <time>2019-11-01T08:52:00Z</time>
      </trkpt>
      <trkpt lat="43.93188" lon="6.35271">
        <ele>1170.2</ele>
        <time>2019-11-01T08:52:03Z</time>
      </trkpt>
      <trkpt lat="43.93185" lon="6.35268">
        <ele>1170.6</ele>
        <time>2019-11-01T08:52:05Z</time>
      </trkpt>
      <trkpt lat="43.93182" lon="6.35264">
        <ele>1171.6</ele>
        <time>2019-11-01T08:52:07Z</time>
      </trkpt>
      <trkpt lat="43.93179" lon="6.35261">
        <ele>1172.7</ele>
        <time>2019-11-01T08:52:10Z</time>
      </trkpt>
      <trkpt lat="43.93176" lon="6.35258">
        <ele>1173.4</ele>
        <time>2019-11-01T08:52:12Z</time>
      </trkpt>
      <trkpt lat="43.93172" lon="6.35254">
        <ele>1174</ele>
        <time>2019-11-01T08:52:14Z</time>
      </trkpt>
      <trkpt lat="43.93169" lon="6.35252">
        <ele>1175</ele>
        <time>2019-11-01T08:52:16Z</time>
      </trkpt>
      <trkpt lat="43.93166" lon="6.35249">
        <ele>1176.3</ele>
        <time>2019-11-01T08:52:19Z</time>
      </trkpt>
      <trkpt lat="43.93162" lon="6.35247">
        <ele>1177.2</ele>
        <time>2019-11-01T08:52:21Z</time>
      </trkpt>
      <trkpt lat="43.93159" lon="6.35244">
        <ele>1177.9</ele>
        <time>2019-11-01T08:52:24Z</time>
      </trkpt>
      <trkpt lat="43.93155" lon="6.35241">
        <ele>1178.7</ele>
        <time>2019-11-01T08:52:26Z</time>
      </trkpt>
      <trkpt lat="43.93151" lon="6.35238">
        <ele>1179.5</ele>
        <time>2019-11-01T08:52:29Z</time>
      </trkpt>
      <trkpt lat="43.93148" lon="6.35237">
        <ele>1180</ele>
        <time>2019-11-01T08:52:31Z</time>
      </trkpt>
      <trkpt lat="43.93144" lon="6.35234">
        <ele>1181</ele>
        <time>2019-11-01T08:52:34Z</time>
      </trkpt>
      <trkpt lat="43.9314" lon="6.35232">
        <ele>1181.8</ele>
        <time>2019-11-01T08:52:37Z</time>
      </trkpt>
      <trkpt lat="43.93136" lon="6.35231">
        <ele>1182.6</ele>
        <time>2019-11-01T08:52:39Z</time>
      </trkpt>
      <trkpt lat="43.93132" lon="6.3523">
        <ele>1183.4</ele>
        <time>2019-11-01T08:52:42Z</time>
      </trkpt>
      <trkpt lat="43.93128" lon="6.35227">
        <ele>1184.4</ele>
        <time>2019-11-01T08:52:44Z</time>
      </trkpt>
      <trkpt lat="43.93124" lon="6.35226">
        <ele>1185.1</ele>
        <time>2019-11-01T08:52:47Z</time>
      </trkpt>
      <trkpt lat="43.9312" lon="6.35224">
        <ele>1185.3</ele>
        <time>2019-11-01T08:52:50Z</time>
      </trkpt>
      <trkpt lat="43.93116" lon="6.35222">
        <ele>1185.4</ele>
        <time>2019-11-01T08:52:52Z</time>
      </trkpt>
      <trkpt lat="43.93113" lon="6.35221">
        <ele>1185.4</ele>
        <time>2019-11-01T08:52:55Z</time>
      </trkpt>
      <trkpt lat="43.93109" lon="6.35219">
        <ele>1185.5</ele>
        <time>2019-11-01T08:52:57Z</time>
      </trkpt>
      <trkpt lat="43.93105" lon="6.35218">
        <ele>1186</ele>
        <time>2019-11-01T08:53:00Z</time>
      </trkpt>
      <trkpt lat="43.931" lon="6.35217">
        <ele>1187.1</ele>
        <time>2019-11-01T08:53:02Z</time>
      </trkpt>
      <trkpt lat="43.93097" lon="6.35216">
        <ele>1187.3</ele>
        <time>2019-11-01T08:53:04Z</time>
      </trkpt>
      <trkpt lat="43.93093" lon="6.35216">
        <ele>1187.3</ele>
        <time>2019-11-01T08:53:07Z</time>
      </trkpt>
      <trkpt lat="43.9309" lon="6.35215">
        <ele>1187.5</ele>
        <time>2019-11-01T08:53:09Z</time>
      </trkpt>
      <trkpt lat="43.93086" lon="6.35214">
        <ele>1188.3</ele>
        <time>2019-11-01T08:53:12Z</time>
      </trkpt>
      <trkpt lat="43.93083" lon="6.35213">
        <ele>1188.9</ele>
        <time>2019-11-01T08:53:14Z</time>
      </trkpt>
      <trkpt lat="43.93078" lon="6.35213">
        <ele>1188.9</ele>
        <time>2019-11-01T08:53:17Z</time>
      </trkpt>
      <trkpt lat="43.93075" lon="6.35213">
        <ele>1188.8</ele>
        <time>2019-11-01T08:53:19Z</time>
      </trkpt>
      <trkpt lat="43.93071" lon="6.35212">
        <ele>1189.4</ele>
        <time>2019-11-01T08:53:21Z</time>
      </trkpt>
      <trkpt lat="43.93066" lon="6.35212">
        <ele>1190.1</ele>
        <time>2019-11-01T08:53:24Z</time>
      </trkpt>
      <trkpt lat="43.93062" lon="6.35212">
        <ele>1190.1</ele>
        <time>2019-11-01T08:53:27Z</time>
      </trkpt>
      <trkpt lat="43.93058" lon="6.35211">
        <ele>1189.9</ele>
        <time>2019-11-01T08:53:30Z</time>
      </trkpt>
      <trkpt lat="43.93053" lon="6.3521">
        <ele>1190.4</ele>
        <time>2019-11-01T08:53:32Z</time>
      </trkpt>
      <trkpt lat="43.93051" lon="6.35209">
        <ele>1190.8</ele>
        <time>2019-11-01T08:53:34Z</time>
      </trkpt>
      <trkpt lat="43.93047" lon="6.35207">
        <ele>1191.1</ele>
        <time>2019-11-01T08:53:37Z</time>
      </trkpt>
      <trkpt lat="43.93044" lon="6.35206">
        <ele>1190.9</ele>
        <time>2019-11-01T08:53:39Z</time>
      </trkpt>
      <trkpt lat="43.9304" lon="6.35204">
        <ele>1190.9</ele>
        <time>2019-11-01T08:53:41Z</time>
      </trkpt>
      <trkpt lat="43.93036" lon="6.35202">
        <ele>1191.3</ele>
        <time>2019-11-01T08:53:44Z</time>
      </trkpt>
      <trkpt lat="43.93032" lon="6.35201">
        <ele>1191.6</ele>
        <time>2019-11-01T08:53:47Z</time>
      </trkpt>
      <trkpt lat="43.93028" lon="6.352">
        <ele>1191.3</ele>
        <time>2019-11-01T08:53:49Z</time>
      </trkpt>
      <trkpt lat="43.93025" lon="6.35199">
        <ele>1191</ele>
        <time>2019-11-01T08:53:51Z</time>
      </trkpt>
      <trkpt lat="43.93021" lon="6.35199">
        <ele>1190.6</ele>
        <time>2019-11-01T08:53:53Z</time>
      </trkpt>
      <trkpt lat="43.93017" lon="6.35199">
        <ele>1190.3</ele>
        <time>2019-11-01T08:53:56Z</time>
      </trkpt>
      <trkpt lat="43.93012" lon="6.352">
        <ele>1189.9</ele>
        <time>2019-11-01T08:53:59Z</time>
      </trkpt>
      <trkpt lat="43.93007" lon="6.352">
        <ele>1189.5</ele>
        <time>2019-11-01T08:54:02Z</time>
      </trkpt>
      <trkpt lat="43.93003" lon="6.35201">
        <ele>1188.3</ele>
        <time>2019-11-01T08:54:05Z</time>
      </trkpt>
      <trkpt lat="43.93" lon="6.35201">
        <ele>1187.2</ele>
        <time>2019-11-01T08:54:07Z</time>
      </trkpt>
      <trkpt lat="43.92995" lon="6.35203">
        <ele>1186</ele>
        <time>2019-11-01T08:54:10Z</time>
      </trkpt>
      <trkpt lat="43.92991" lon="6.35203">
        <ele>1185.4</ele>
        <time>2019-11-01T08:54:12Z</time>
      </trkpt>
      <trkpt lat="43.92987" lon="6.35203">
        <ele>1184.7</ele>
        <time>2019-11-01T08:54:14Z</time>
      </trkpt>
      <trkpt lat="43.92984" lon="6.35204">
        <ele>1184</ele>
        <time>2019-11-01T08:54:17Z</time>
      </trkpt>
      <trkpt lat="43.9298" lon="6.35204">
        <ele>1183.2</ele>
        <time>2019-11-01T08:54:19Z</time>
      </trkpt>
      <trkpt lat="43.92977" lon="6.35205">
        <ele>1182.7</ele>
        <time>2019-11-01T08:54:21Z</time>
      </trkpt>
      <trkpt lat="43.92973" lon="6.35205">
        <ele>1182</ele>
        <time>2019-11-01T08:54:23Z</time>
      </trkpt>
      <trkpt lat="43.92969" lon="6.35206">
        <ele>1181.1</ele>
        <time>2019-11-01T08:54:25Z</time>
      </trkpt>
      <trkpt lat="43.92963" lon="6.35208">
        <ele>1178.8</ele>
        <time>2019-11-01T08:54:29Z</time>
      </trkpt>
      <trkpt lat="43.9296" lon="6.35208">
        <ele>1178.2</ele>
        <time>2019-11-01T08:54:31Z</time>
      </trkpt>
      <trkpt lat="43.92956" lon="6.35209">
        <ele>1177.8</ele>
        <time>2019-11-01T08:54:34Z</time>
      </trkpt>
      <trkpt lat="43.92951" lon="6.3521">
        <ele>1177.5</ele>
        <time>2019-11-01T08:54:36Z</time>
      </trkpt>
      <trkpt lat="43.92945" lon="6.3521">
        <ele>1177.2</ele>
        <time>2019-11-01T08:54:39Z</time>
      </trkpt>
      <trkpt lat="43.92941" lon="6.3521">
        <ele>1177.1</ele>
        <time>2019-11-01T08:54:43Z</time>
      </trkpt>
      <trkpt lat="43.92937" lon="6.3521">
        <ele>1177.2</ele>
        <time>2019-11-01T08:54:45Z</time>
      </trkpt>
      <trkpt lat="43.92934" lon="6.3521">
        <ele>1177.8</ele>
        <time>2019-11-01T08:54:47Z</time>
      </trkpt>
      <trkpt lat="43.92929" lon="6.35209">
        <ele>1178.7</ele>
        <time>2019-11-01T08:54:49Z</time>
      </trkpt>
      <trkpt lat="43.92926" lon="6.35208">
        <ele>1179.4</ele>
        <time>2019-11-01T08:54:52Z</time>
      </trkpt>
      <trkpt lat="43.92922" lon="6.35208">
        <ele>1180</ele>
        <time>2019-11-01T08:54:53Z</time>
      </trkpt>
      <trkpt lat="43.92918" lon="6.35207">
        <ele>1180.5</ele>
        <time>2019-11-01T08:54:56Z</time>
      </trkpt>
      <trkpt lat="43.92916" lon="6.35207">
        <ele>1180.9</ele>
        <time>2019-11-01T08:54:57Z</time>
      </trkpt>
      <trkpt lat="43.92912" lon="6.35206">
        <ele>1181.2</ele>
        <time>2019-11-01T08:55:00Z</time>
      </trkpt>
      <trkpt lat="43.92908" lon="6.35205">
        <ele>1182.2</ele>
        <time>2019-11-01T08:55:02Z</time>
      </trkpt>
      <trkpt lat="43.92904" lon="6.35205">
        <ele>1183.2</ele>
        <time>2019-11-01T08:55:05Z</time>
      </trkpt>
      <trkpt lat="43.92902" lon="6.35204">
        <ele>1184</ele>
        <time>2019-11-01T08:55:06Z</time>
      </trkpt>
      <trkpt lat="43.92898" lon="6.35203">
        <ele>1184.8</ele>
        <time>2019-11-01T08:55:09Z</time>
      </trkpt>
      <trkpt lat="43.92896" lon="6.35203">
        <ele>1185.4</ele>
        <time>2019-11-01T08:55:10Z</time>
      </trkpt>
      <trkpt lat="43.92892" lon="6.35201">
        <ele>1186.2</ele>
        <time>2019-11-01T08:55:12Z</time>
      </trkpt>
      <trkpt lat="43.92888" lon="6.352">
        <ele>1187.4</ele>
        <time>2019-11-01T08:55:15Z</time>
      </trkpt>
      <trkpt lat="43.92885" lon="6.352">
        <ele>1188.2</ele>
        <time>2019-11-01T08:55:16Z</time>
      </trkpt>
      <trkpt lat="43.9288" lon="6.35198">
        <ele>1189.3</ele>
        <time>2019-11-01T08:55:19Z</time>
      </trkpt>
      <trkpt lat="43.92876" lon="6.35197">
        <ele>1190.3</ele>
        <time>2019-11-01T08:55:22Z</time>
      </trkpt>
      <trkpt lat="43.92872" lon="6.35196">
        <ele>1191.1</ele>
        <time>2019-11-01T08:55:24Z</time>
      </trkpt>
      <trkpt lat="43.92869" lon="6.35195">
        <ele>1191.9</ele>
        <time>2019-11-01T08:55:26Z</time>
      </trkpt>
      <trkpt lat="43.92865" lon="6.35194">
        <ele>1192.8</ele>
        <time>2019-11-01T08:55:29Z</time>
      </trkpt>
      <trkpt lat="43.92862" lon="6.35194">
        <ele>1193.4</ele>
        <time>2019-11-01T08:55:30Z</time>
      </trkpt>
      <trkpt lat="43.92857" lon="6.35194">
        <ele>1194.6</ele>
        <time>2019-11-01T08:55:33Z</time>
      </trkpt>
      <trkpt lat="43.92854" lon="6.35193">
        <ele>1195.6</ele>
        <time>2019-11-01T08:55:36Z</time>
      </trkpt>
      <trkpt lat="43.92849" lon="6.35192">
        <ele>1196.9</ele>
        <time>2019-11-01T08:55:39Z</time>
      </trkpt>
      <trkpt lat="43.92844" lon="6.35192">
        <ele>1198</ele>
        <time>2019-11-01T08:55:42Z</time>
      </trkpt>
      <trkpt lat="43.92841" lon="6.35192">
        <ele>1198.4</ele>
        <time>2019-11-01T08:55:44Z</time>
      </trkpt>
      <trkpt lat="43.92837" lon="6.35192">
        <ele>1198.9</ele>
        <time>2019-11-01T08:55:46Z</time>
      </trkpt>
      <trkpt lat="43.92835" lon="6.35193">
        <ele>1199.2</ele>
        <time>2019-11-01T08:55:48Z</time>
      </trkpt>
      <trkpt lat="43.9283" lon="6.35194">
        <ele>1199.5</ele>
        <time>2019-11-01T08:55:51Z</time>
      </trkpt>
      <trkpt lat="43.92826" lon="6.35196">
        <ele>1199.7</ele>
        <time>2019-11-01T08:55:53Z</time>
      </trkpt>
      <trkpt lat="43.92823" lon="6.35197">
        <ele>1199.4</ele>
        <time>2019-11-01T08:55:55Z</time>
      </trkpt>
      <trkpt lat="43.9282" lon="6.35199">
        <ele>1199.2</ele>
        <time>2019-11-01T08:55:57Z</time>
      </trkpt>
      <trkpt lat="43.92816" lon="6.35202">
        <ele>1198.9</ele>
        <time>2019-11-01T08:55:59Z</time>
      </trkpt>
      <trkpt lat="43.92813" lon="6.35204">
        <ele>1198.8</ele>
        <time>2019-11-01T08:56:01Z</time>
      </trkpt>
      <trkpt lat="43.9281" lon="6.35207">
        <ele>1198.7</ele>
        <time>2019-11-01T08:56:04Z</time>
      </trkpt>
      <trkpt lat="43.92806" lon="6.35207">
        <ele>1199</ele>
        <time>2019-11-01T08:56:06Z</time>
      </trkpt>
      <trkpt lat="43.92803" lon="6.35205">
        <ele>1199.6</ele>
        <time>2019-11-01T08:56:08Z</time>
      </trkpt>
      <trkpt lat="43.928" lon="6.352">
        <ele>1201</ele>
        <time>2019-11-01T08:56:11Z</time>
      </trkpt>
      <trkpt lat="43.92799" lon="6.35196">
        <ele>1202.2</ele>
        <time>2019-11-01T08:56:12Z</time>
      </trkpt>
      <trkpt lat="43.928" lon="6.35191">
        <ele>1203.6</ele>
        <time>2019-11-01T08:56:14Z</time>
      </trkpt>
      <trkpt lat="43.92803" lon="6.35189">
        <ele>1204.6</ele>
        <time>2019-11-01T08:56:15Z</time>
      </trkpt>
      <trkpt lat="43.92807" lon="6.35186">
        <ele>1205.4</ele>
        <time>2019-11-01T08:56:18Z</time>
      </trkpt>
      <trkpt lat="43.92809" lon="6.35184">
        <ele>1205.6</ele>
        <time>2019-11-01T08:56:19Z</time>
      </trkpt>
      <trkpt lat="43.92812" lon="6.35182">
        <ele>1205.5</ele>
        <time>2019-11-01T08:56:21Z</time>
      </trkpt>
      <trkpt lat="43.92818" lon="6.35179">
        <ele>1205.5</ele>
        <time>2019-11-01T08:56:24Z</time>
      </trkpt>
      <trkpt lat="43.92822" lon="6.35178">
        <ele>1205.5</ele>
        <time>2019-11-01T08:56:27Z</time>
      </trkpt>
      <trkpt lat="43.92827" lon="6.35177">
        <ele>1205.4</ele>
        <time>2019-11-01T08:56:29Z</time>
      </trkpt>
      <trkpt lat="43.92831" lon="6.35175">
        <ele>1205.3</ele>
        <time>2019-11-01T08:56:32Z</time>
      </trkpt>
      <trkpt lat="43.92835" lon="6.35174">
        <ele>1204.8</ele>
        <time>2019-11-01T08:56:34Z</time>
      </trkpt>
      <trkpt lat="43.9284" lon="6.35172">
        <ele>1204.2</ele>
        <time>2019-11-01T08:56:36Z</time>
      </trkpt>
      <trkpt lat="43.92843" lon="6.35172">
        <ele>1203.7</ele>
        <time>2019-11-01T08:56:38Z</time>
      </trkpt>
      <trkpt lat="43.92848" lon="6.35171">
        <ele>1203</ele>
        <time>2019-11-01T08:56:40Z</time>
      </trkpt>
      <trkpt lat="43.92851" lon="6.35169">
        <ele>1203.2</ele>
        <time>2019-11-01T08:56:43Z</time>
      </trkpt>
      <trkpt lat="43.92856" lon="6.35168">
        <ele>1203.4</ele>
        <time>2019-11-01T08:56:45Z</time>
      </trkpt>
      <trkpt lat="43.92858" lon="6.35167">
        <ele>1203.5</ele>
        <time>2019-11-01T08:56:47Z</time>
      </trkpt>
      <trkpt lat="43.92862" lon="6.35165">
        <ele>1203.7</ele>
        <time>2019-11-01T08:56:49Z</time>
      </trkpt>
      <trkpt lat="43.92865" lon="6.35163">
        <ele>1203.6</ele>
        <time>2019-11-01T08:56:50Z</time>
      </trkpt>
      <trkpt lat="43.92868" lon="6.35162">
        <ele>1202.9</ele>
        <time>2019-11-01T08:56:53Z</time>
      </trkpt>
      <trkpt lat="43.92873" lon="6.3516">
        <ele>1202.4</ele>
        <time>2019-11-01T08:56:55Z</time>
      </trkpt>
      <trkpt lat="43.92877" lon="6.35158">
        <ele>1202.7</ele>
        <time>2019-11-01T08:56:58Z</time>
      </trkpt>
      <trkpt lat="43.92881" lon="6.35157">
        <ele>1203</ele>
        <time>2019-11-01T08:57:00Z</time>
      </trkpt>
      <trkpt lat="43.92885" lon="6.35154">
        <ele>1203.1</ele>
        <time>2019-11-01T08:57:03Z</time>
      </trkpt>
      <trkpt lat="43.92888" lon="6.35153">
        <ele>1203.2</ele>
        <time>2019-11-01T08:57:04Z</time>
      </trkpt>
      <trkpt lat="43.92893" lon="6.3515">
        <ele>1203.3</ele>
        <time>2019-11-01T08:57:07Z</time>
      </trkpt>
      <trkpt lat="43.92897" lon="6.35148">
        <ele>1203.6</ele>
        <time>2019-11-01T08:57:09Z</time>
      </trkpt>
      <trkpt lat="43.92901" lon="6.35146">
        <ele>1204</ele>
        <time>2019-11-01T08:57:12Z</time>
      </trkpt>
      <trkpt lat="43.92905" lon="6.35144">
        <ele>1204.4</ele>
        <time>2019-11-01T08:57:14Z</time>
      </trkpt>
      <trkpt lat="43.92909" lon="6.35142">
        <ele>1204.7</ele>
        <time>2019-11-01T08:57:16Z</time>
      </trkpt>
      <trkpt lat="43.92914" lon="6.35141">
        <ele>1204.9</ele>
        <time>2019-11-01T08:57:19Z</time>
      </trkpt>
      <trkpt lat="43.92918" lon="6.35139">
        <ele>1204.5</ele>
        <time>2019-11-01T08:57:21Z</time>
      </trkpt>
      <trkpt lat="43.92923" lon="6.35138">
        <ele>1204.8</ele>
        <time>2019-11-01T08:57:24Z</time>
      </trkpt>
      <trkpt lat="43.92927" lon="6.35136">
        <ele>1205.8</ele>
        <time>2019-11-01T08:57:26Z</time>
      </trkpt>
      <trkpt lat="43.92932" lon="6.35135">
        <ele>1207</ele>
        <time>2019-11-01T08:57:29Z</time>
      </trkpt>
      <trkpt lat="43.92936" lon="6.35134">
        <ele>1208</ele>
        <time>2019-11-01T08:57:31Z</time>
      </trkpt>
      <trkpt lat="43.92939" lon="6.35134">
        <ele>1208.1</ele>
        <time>2019-11-01T08:57:33Z</time>
      </trkpt>
      <trkpt lat="43.92944" lon="6.35132">
        <ele>1208.1</ele>
        <time>2019-11-01T08:57:36Z</time>
      </trkpt>
      <trkpt lat="43.92947" lon="6.35131">
        <ele>1209</ele>
        <time>2019-11-01T08:57:37Z</time>
      </trkpt>
      <trkpt lat="43.92951" lon="6.35129">
        <ele>1210.4</ele>
        <time>2019-11-01T08:57:40Z</time>
      </trkpt>
      <trkpt lat="43.92954" lon="6.35128">
        <ele>1211.2</ele>
        <time>2019-11-01T08:57:41Z</time>
      </trkpt>
      <trkpt lat="43.92957" lon="6.35127">
        <ele>1212.2</ele>
        <time>2019-11-01T08:57:43Z</time>
      </trkpt>
      <trkpt lat="43.92962" lon="6.35126">
        <ele>1213.3</ele>
        <time>2019-11-01T08:57:46Z</time>
      </trkpt>
      <trkpt lat="43.92967" lon="6.35126">
        <ele>1213.4</ele>
        <time>2019-11-01T08:57:48Z</time>
      </trkpt>
      <trkpt lat="43.92972" lon="6.35125">
        <ele>1213.6</ele>
        <time>2019-11-01T08:57:51Z</time>
      </trkpt>
      <trkpt lat="43.92976" lon="6.35125">
        <ele>1213.7</ele>
        <time>2019-11-01T08:57:53Z</time>
      </trkpt>
      <trkpt lat="43.92981" lon="6.35126">
        <ele>1213.8</ele>
        <time>2019-11-01T08:57:56Z</time>
      </trkpt>
      <trkpt lat="43.92984" lon="6.35126">
        <ele>1213.8</ele>
        <time>2019-11-01T08:57:58Z</time>
      </trkpt>
      <trkpt lat="43.92988" lon="6.35126">
        <ele>1214</ele>
        <time>2019-11-01T08:58:01Z</time>
      </trkpt>
      <trkpt lat="43.92992" lon="6.35125">
        <ele>1214.1</ele>
        <time>2019-11-01T08:58:03Z</time>
      </trkpt>
      <trkpt lat="43.92995" lon="6.35125">
        <ele>1214.2</ele>
        <time>2019-11-01T08:58:04Z</time>
      </trkpt>
      <trkpt lat="43.92999" lon="6.35124">
        <ele>1214.3</ele>
        <time>2019-11-01T08:58:07Z</time>
      </trkpt>
      <trkpt lat="43.93004" lon="6.35122">
        <ele>1214.9</ele>
        <time>2019-11-01T08:58:09Z</time>
      </trkpt>
      <trkpt lat="43.93009" lon="6.3512">
        <ele>1216.3</ele>
        <time>2019-11-01T08:58:12Z</time>
      </trkpt>
      <trkpt lat="43.93013" lon="6.35117">
        <ele>1217.5</ele>
        <time>2019-11-01T08:58:15Z</time>
      </trkpt>
      <trkpt lat="43.93018" lon="6.35116">
        <ele>1218.8</ele>
        <time>2019-11-01T08:58:18Z</time>
      </trkpt>
      <trkpt lat="43.93022" lon="6.35116">
        <ele>1219.8</ele>
        <time>2019-11-01T08:58:21Z</time>
      </trkpt>
      <trkpt lat="43.93024" lon="6.35115">
        <ele>1220.5</ele>
        <time>2019-11-01T08:58:22Z</time>
      </trkpt>
      <trkpt lat="43.93029" lon="6.35113">
        <ele>1221.3</ele>
        <time>2019-11-01T08:58:25Z</time>
      </trkpt>
      <trkpt lat="43.93031" lon="6.35112">
        <ele>1221.3</ele>
        <time>2019-11-01T08:58:26Z</time>
      </trkpt>
      <trkpt lat="43.93035" lon="6.35111">
        <ele>1221.3</ele>
        <time>2019-11-01T08:58:29Z</time>
      </trkpt>
      <trkpt lat="43.9304" lon="6.35109">
        <ele>1222.3</ele>
        <time>2019-11-01T08:58:31Z</time>
      </trkpt>
      <trkpt lat="43.93043" lon="6.35108">
        <ele>1222.9</ele>
        <time>2019-11-01T08:58:33Z</time>
      </trkpt>
      <trkpt lat="43.93048" lon="6.35105">
        <ele>1224</ele>
        <time>2019-11-01T08:58:36Z</time>
      </trkpt>
      <trkpt lat="43.93052" lon="6.35101">
        <ele>1225.2</ele>
        <time>2019-11-01T08:58:38Z</time>
      </trkpt>
      <trkpt lat="43.93055" lon="6.35101">
        <ele>1226</ele>
        <time>2019-11-01T08:58:41Z</time>
      </trkpt>
      <trkpt lat="43.93059" lon="6.351">
        <ele>1226.9</ele>
        <time>2019-11-01T08:58:43Z</time>
      </trkpt>
      <trkpt lat="43.93063" lon="6.35099">
        <ele>1227.9</ele>
        <time>2019-11-01T08:58:45Z</time>
      </trkpt>
      <trkpt lat="43.93067" lon="6.35099">
        <ele>1228.7</ele>
        <time>2019-11-01T08:58:48Z</time>
      </trkpt>
      <trkpt lat="43.93071" lon="6.35097">
        <ele>1229.4</ele>
        <time>2019-11-01T08:58:51Z</time>
      </trkpt>
      <trkpt lat="43.93075" lon="6.35095">
        <ele>1229.5</ele>
        <time>2019-11-01T08:58:53Z</time>
      </trkpt>
      <trkpt lat="43.93077" lon="6.35094">
        <ele>1229.6</ele>
        <time>2019-11-01T08:58:54Z</time>
      </trkpt>
      <trkpt lat="43.93083" lon="6.35091">
        <ele>1230.7</ele>
        <time>2019-11-01T08:58:57Z</time>
      </trkpt>
      <trkpt lat="43.93087" lon="6.35089">
        <ele>1231.6</ele>
        <time>2019-11-01T08:59:00Z</time>
      </trkpt>
      <trkpt lat="43.93089" lon="6.35088">
        <ele>1232.1</ele>
        <time>2019-11-01T08:59:02Z</time>
      </trkpt>
      <trkpt lat="43.93092" lon="6.35086">
        <ele>1232.7</ele>
        <time>2019-11-01T08:59:03Z</time>
      </trkpt>
      <trkpt lat="43.93095" lon="6.35084">
        <ele>1233.4</ele>
        <time>2019-11-01T08:59:06Z</time>
      </trkpt>
      <trkpt lat="43.93098" lon="6.35083">
        <ele>1234</ele>
        <time>2019-11-01T08:59:07Z</time>
      </trkpt>
      <trkpt lat="43.93101" lon="6.35081">
        <ele>1234.6</ele>
        <time>2019-11-01T08:59:09Z</time>
      </trkpt>
      <trkpt lat="43.93106" lon="6.3508">
        <ele>1235.6</ele>
        <time>2019-11-01T08:59:12Z</time>
      </trkpt>
      <trkpt lat="43.9311" lon="6.35078">
        <ele>1236.4</ele>
        <time>2019-11-01T08:59:14Z</time>
      </trkpt>
      <trkpt lat="43.93113" lon="6.35077">
        <ele>1236.6</ele>
        <time>2019-11-01T08:59:16Z</time>
      </trkpt>
      <trkpt lat="43.93117" lon="6.35076">
        <ele>1236.5</ele>
        <time>2019-11-01T08:59:18Z</time>
      </trkpt>
      <trkpt lat="43.93119" lon="6.35076">
        <ele>1236.5</ele>
        <time>2019-11-01T08:59:19Z</time>
      </trkpt>
      <trkpt lat="43.93124" lon="6.35075">
        <ele>1237.3</ele>
        <time>2019-11-01T08:59:22Z</time>
      </trkpt>
      <trkpt lat="43.93128" lon="6.35077">
        <ele>1238</ele>
        <time>2019-11-01T08:59:24Z</time>
      </trkpt>
      <trkpt lat="43.9313" lon="6.35079">
        <ele>1238</ele>
        <time>2019-11-01T08:59:26Z</time>
      </trkpt>
      <trkpt lat="43.93135" lon="6.3508">
        <ele>1237.7</ele>
        <time>2019-11-01T08:59:28Z</time>
      </trkpt>
      <trkpt lat="43.93139" lon="6.3508">
        <ele>1237.6</ele>
        <time>2019-11-01T08:59:30Z</time>
      </trkpt>
      <trkpt lat="43.93143" lon="6.3508">
        <ele>1237.4</ele>
        <time>2019-11-01T08:59:33Z</time>
      </trkpt>
      <trkpt lat="43.93147" lon="6.35079">
        <ele>1237.2</ele>
        <time>2019-11-01T08:59:35Z</time>
      </trkpt>
      <trkpt lat="43.9315" lon="6.35077">
        <ele>1236.9</ele>
        <time>2019-11-01T08:59:38Z</time>
      </trkpt>
      <trkpt lat="43.93153" lon="6.35076">
        <ele>1236.8</ele>
        <time>2019-11-01T08:59:39Z</time>
      </trkpt>
      <trkpt lat="43.93156" lon="6.35074">
        <ele>1236.6</ele>
        <time>2019-11-01T08:59:41Z</time>
      </trkpt>
      <trkpt lat="43.9316" lon="6.35071">
        <ele>1236.2</ele>
        <time>2019-11-01T08:59:44Z</time>
      </trkpt>
      <trkpt lat="43.93164" lon="6.35069">
        <ele>1235.9</ele>
        <time>2019-11-01T08:59:45Z</time>
      </trkpt>
      <trkpt lat="43.93167" lon="6.35068">
        <ele>1235.6</ele>
        <time>2019-11-01T08:59:47Z</time>
      </trkpt>
      <trkpt lat="43.9317" lon="6.35066">
        <ele>1236.3</ele>
        <time>2019-11-01T08:59:50Z</time>
      </trkpt>
      <trkpt lat="43.93175" lon="6.35065">
        <ele>1237.2</ele>
        <time>2019-11-01T08:59:52Z</time>
      </trkpt>
      <trkpt lat="43.93178" lon="6.35065">
        <ele>1237.7</ele>
        <time>2019-11-01T08:59:54Z</time>
      </trkpt>
      <trkpt lat="43.93182" lon="6.35064">
        <ele>1238.6</ele>
        <time>2019-11-01T08:59:56Z</time>
      </trkpt>
      <trkpt lat="43.93185" lon="6.35062">
        <ele>1239.3</ele>
        <time>2019-11-01T08:59:58Z</time>
      </trkpt>
      <trkpt lat="43.93189" lon="6.35061">
        <ele>1240.4</ele>
        <time>2019-11-01T09:00:01Z</time>
      </trkpt>
      <trkpt lat="43.93192" lon="6.3506">
        <ele>1240.7</ele>
        <time>2019-11-01T09:00:02Z</time>
      </trkpt>
      <trkpt lat="43.93196" lon="6.35059">
        <ele>1240.9</ele>
        <time>2019-11-01T09:00:04Z</time>
      </trkpt>
      <trkpt lat="43.932" lon="6.35058">
        <ele>1241.6</ele>
        <time>2019-11-01T09:00:06Z</time>
      </trkpt>
      <trkpt lat="43.93203" lon="6.35057">
        <ele>1242.7</ele>
        <time>2019-11-01T09:00:07Z</time>
      </trkpt>
      <trkpt lat="43.93207" lon="6.35056">
        <ele>1244.4</ele>
        <time>2019-11-01T09:00:10Z</time>
      </trkpt>
      <trkpt lat="43.9321" lon="6.35056">
        <ele>1245.7</ele>
        <time>2019-11-01T09:00:11Z</time>
      </trkpt>
      <trkpt lat="43.93213" lon="6.35056">
        <ele>1247</ele>
        <time>2019-11-01T09:00:13Z</time>
      </trkpt>
      <trkpt lat="43.93217" lon="6.35056">
        <ele>1248</ele>
        <time>2019-11-01T09:00:15Z</time>
      </trkpt>
      <trkpt lat="43.93221" lon="6.35057">
        <ele>1248.6</ele>
        <time>2019-11-01T09:00:18Z</time>
      </trkpt>
      <trkpt lat="43.93226" lon="6.35057">
        <ele>1249.3</ele>
        <time>2019-11-01T09:00:20Z</time>
      </trkpt>
      <trkpt lat="43.93231" lon="6.35057">
        <ele>1250</ele>
        <time>2019-11-01T09:00:23Z</time>
      </trkpt>
      <trkpt lat="43.93234" lon="6.35056">
        <ele>1250.5</ele>
        <time>2019-11-01T09:00:24Z</time>
      </trkpt>
      <trkpt lat="43.93238" lon="6.35056">
        <ele>1251</ele>
        <time>2019-11-01T09:00:26Z</time>
      </trkpt>
      <trkpt lat="43.93243" lon="6.35056">
        <ele>1250.8</ele>
        <time>2019-11-01T09:00:28Z</time>
      </trkpt>
      <trkpt lat="43.93246" lon="6.35054">
        <ele>1250.2</ele>
        <time>2019-11-01T09:00:30Z</time>
      </trkpt>
      <trkpt lat="43.93251" lon="6.35054">
        <ele>1250.7</ele>
        <time>2019-11-01T09:00:33Z</time>
      </trkpt>
      <trkpt lat="43.93255" lon="6.35052">
        <ele>1252.3</ele>
        <time>2019-11-01T09:00:36Z</time>
      </trkpt>
      <trkpt lat="43.93258" lon="6.35051">
        <ele>1252.9</ele>
        <time>2019-11-01T09:00:37Z</time>
      </trkpt>
      <trkpt lat="43.93262" lon="6.35051">
        <ele>1253.1</ele>
        <time>2019-11-01T09:00:40Z</time>
      </trkpt>
      <trkpt lat="43.93266" lon="6.3505">
        <ele>1253.9</ele>
        <time>2019-11-01T09:00:42Z</time>
      </trkpt>
      <trkpt lat="43.93269" lon="6.3505">
        <ele>1254.8</ele>
        <time>2019-11-01T09:00:44Z</time>
      </trkpt>
      <trkpt lat="43.93274" lon="6.35049">
        <ele>1255.5</ele>
        <time>2019-11-01T09:00:46Z</time>
      </trkpt>
      <trkpt lat="43.93278" lon="6.35046">
        <ele>1255.6</ele>
        <time>2019-11-01T09:00:49Z</time>
      </trkpt>
      <trkpt lat="43.93281" lon="6.35045">
        <ele>1255.6</ele>
        <time>2019-11-01T09:00:51Z</time>
      </trkpt>
      <trkpt lat="43.93285" lon="6.35045">
        <ele>1255.7</ele>
        <time>2019-11-01T09:00:53Z</time>
      </trkpt>
      <trkpt lat="43.93289" lon="6.35045">
        <ele>1256.3</ele>
        <time>2019-11-01T09:00:55Z</time>
      </trkpt>
      <trkpt lat="43.93294" lon="6.35045">
        <ele>1257.3</ele>
        <time>2019-11-01T09:00:57Z</time>
      </trkpt>
      <trkpt lat="43.93298" lon="6.35045">
        <ele>1257.5</ele>
        <time>2019-11-01T09:01:00Z</time>
      </trkpt>
      <trkpt lat="43.93302" lon="6.35046">
        <ele>1257.5</ele>
        <time>2019-11-01T09:01:02Z</time>
      </trkpt>
      <trkpt lat="43.93308" lon="6.35046">
        <ele>1257.4</ele>
        <time>2019-11-01T09:01:05Z</time>
      </trkpt>
      <trkpt lat="43.93311" lon="6.35047">
        <ele>1257.4</ele>
        <time>2019-11-01T09:01:08Z</time>
      </trkpt>
      <trkpt lat="43.93314" lon="6.35047">
        <ele>1257.4</ele>
        <time>2019-11-01T09:01:10Z</time>
      </trkpt>
      <trkpt lat="43.93317" lon="6.35048">
        <ele>1257.4</ele>
        <time>2019-11-01T09:01:11Z</time>
      </trkpt>
      <trkpt lat="43.93322" lon="6.35048">
        <ele>1256.6</ele>
        <time>2019-11-01T09:01:14Z</time>
      </trkpt>
      <trkpt lat="43.93328" lon="6.35048">
        <ele>1255.9</ele>
        <time>2019-11-01T09:01:17Z</time>
      </trkpt>
      <trkpt lat="43.9333" lon="6.35049">
        <ele>1255.9</ele>
        <time>2019-11-01T09:01:19Z</time>
      </trkpt>
      <trkpt lat="43.93334" lon="6.35049">
        <ele>1256</ele>
        <time>2019-11-01T09:01:21Z</time>
      </trkpt>
      <trkpt lat="43.93337" lon="6.3505">
        <ele>1256.1</ele>
        <time>2019-11-01T09:01:23Z</time>
      </trkpt>
      <trkpt lat="43.9334" lon="6.3505">
        <ele>1256.3</ele>
        <time>2019-11-01T09:01:25Z</time>
      </trkpt>
      <trkpt lat="43.93344" lon="6.3505">
        <ele>1256.4</ele>
        <time>2019-11-01T09:01:27Z</time>
      </trkpt>
      <trkpt lat="43.93348" lon="6.3505">
        <ele>1256.6</ele>
        <time>2019-11-01T09:01:29Z</time>
      </trkpt>
      <trkpt lat="43.93353" lon="6.3505">
        <ele>1257</ele>
        <time>2019-11-01T09:01:32Z</time>
      </trkpt>
      <trkpt lat="43.93356" lon="6.35049">
        <ele>1257.2</ele>
        <time>2019-11-01T09:01:33Z</time>
      </trkpt>
      <trkpt lat="43.93361" lon="6.35049">
        <ele>1257.5</ele>
        <time>2019-11-01T09:01:36Z</time>
      </trkpt>
      <trkpt lat="43.93364" lon="6.35048">
        <ele>1257.8</ele>
        <time>2019-11-01T09:01:38Z</time>
      </trkpt>
      <trkpt lat="43.93368" lon="6.35048">
        <ele>1258</ele>
        <time>2019-11-01T09:01:41Z</time>
      </trkpt>
      <trkpt lat="43.93373" lon="6.35047">
        <ele>1258.2</ele>
        <time>2019-11-01T09:01:43Z</time>
      </trkpt>
      <trkpt lat="43.93378" lon="6.35047">
        <ele>1258.5</ele>
        <time>2019-11-01T09:01:46Z</time>
      </trkpt>
      <trkpt lat="43.93381" lon="6.35046">
        <ele>1258.8</ele>
        <time>2019-11-01T09:01:48Z</time>
      </trkpt>
      <trkpt lat="43.93384" lon="6.35046">
        <ele>1259</ele>
        <time>2019-11-01T09:01:50Z</time>
      </trkpt>
      <trkpt lat="43.93388" lon="6.35046">
        <ele>1259.3</ele>
        <time>2019-11-01T09:01:52Z</time>
      </trkpt>
      <trkpt lat="43.93392" lon="6.35047">
        <ele>1259.6</ele>
        <time>2019-11-01T09:01:54Z</time>
      </trkpt>
      <trkpt lat="43.93395" lon="6.35048">
        <ele>1259.9</ele>
        <time>2019-11-01T09:01:57Z</time>
      </trkpt>
      <trkpt lat="43.93401" lon="6.35049">
        <ele>1260.3</ele>
        <time>2019-11-01T09:01:59Z</time>
      </trkpt>
      <trkpt lat="43.93405" lon="6.35047">
        <ele>1261</ele>
        <time>2019-11-01T09:02:01Z</time>
      </trkpt>
      <trkpt lat="43.9341" lon="6.35048">
        <ele>1262.1</ele>
        <time>2019-11-01T09:02:04Z</time>
      </trkpt>
      <trkpt lat="43.93413" lon="6.35047">
        <ele>1262.4</ele>
        <time>2019-11-01T09:02:06Z</time>
      </trkpt>
      <trkpt lat="43.93415" lon="6.35046">
        <ele>1262.5</ele>
        <time>2019-11-01T09:02:07Z</time>
      </trkpt>
      <trkpt lat="43.93418" lon="6.35045">
        <ele>1262.6</ele>
        <time>2019-11-01T09:02:09Z</time>
      </trkpt>
      <trkpt lat="43.93424" lon="6.35044">
        <ele>1262.8</ele>
        <time>2019-11-01T09:02:12Z</time>
      </trkpt>
      <trkpt lat="43.93427" lon="6.35044">
        <ele>1262.8</ele>
        <time>2019-11-01T09:02:14Z</time>
      </trkpt>
      <trkpt lat="43.9343" lon="6.35043">
        <ele>1262.9</ele>
        <time>2019-11-01T09:02:15Z</time>
      </trkpt>
      <trkpt lat="43.93435" lon="6.35042">
        <ele>1263</ele>
        <time>2019-11-01T09:02:19Z</time>
      </trkpt>
      <trkpt lat="43.93438" lon="6.35041">
        <ele>1263.2</ele>
        <time>2019-11-01T09:02:20Z</time>
      </trkpt>
      <trkpt lat="43.93442" lon="6.35041">
        <ele>1263.7</ele>
        <time>2019-11-01T09:02:23Z</time>
      </trkpt>
      <trkpt lat="43.93445" lon="6.35041">
        <ele>1264.2</ele>
        <time>2019-11-01T09:02:24Z</time>
      </trkpt>
      <trkpt lat="43.93448" lon="6.3504">
        <ele>1264.3</ele>
        <time>2019-11-01T09:02:26Z</time>
      </trkpt>
      <trkpt lat="43.93452" lon="6.35038">
        <ele>1264.4</ele>
        <time>2019-11-01T09:02:29Z</time>
      </trkpt>
      <trkpt lat="43.93456" lon="6.35037">
        <ele>1264.6</ele>
        <time>2019-11-01T09:02:31Z</time>
      </trkpt>
      <trkpt lat="43.9346" lon="6.35036">
        <ele>1264.7</ele>
        <time>2019-11-01T09:02:34Z</time>
      </trkpt>
      <trkpt lat="43.93463" lon="6.35036">
        <ele>1264.8</ele>
        <time>2019-11-01T09:02:35Z</time>
      </trkpt>
      <trkpt lat="43.93466" lon="6.35035">
        <ele>1264.9</ele>
        <time>2019-11-01T09:02:37Z</time>
      </trkpt>
      <trkpt lat="43.9347" lon="6.35035">
        <ele>1265.1</ele>
        <time>2019-11-01T09:02:39Z</time>
      </trkpt>
      <trkpt lat="43.93475" lon="6.35033">
        <ele>1265.2</ele>
        <time>2019-11-01T09:02:41Z</time>
      </trkpt>
      <trkpt lat="43.93479" lon="6.35033">
        <ele>1265.2</ele>
        <time>2019-11-01T09:02:43Z</time>
      </trkpt>
      <trkpt lat="43.93483" lon="6.35032">
        <ele>1265.5</ele>
        <time>2019-11-01T09:02:46Z</time>
      </trkpt>
      <trkpt lat="43.93488" lon="6.35031">
        <ele>1266.1</ele>
        <time>2019-11-01T09:02:49Z</time>
      </trkpt>
      <trkpt lat="43.93491" lon="6.35031">
        <ele>1266.3</ele>
        <time>2019-11-01T09:02:51Z</time>
      </trkpt>
      <trkpt lat="43.93495" lon="6.3503">
        <ele>1266.3</ele>
        <time>2019-11-01T09:02:54Z</time>
      </trkpt>
      <trkpt lat="43.93499" lon="6.35028">
        <ele>1266.5</ele>
        <time>2019-11-01T09:02:56Z</time>
      </trkpt>
      <trkpt lat="43.93504" lon="6.35026">
        <ele>1267.1</ele>
        <time>2019-11-01T09:02:59Z</time>
      </trkpt>
      <trkpt lat="43.93508" lon="6.35024">
        <ele>1267.6</ele>
        <time>2019-11-01T09:03:01Z</time>
      </trkpt>
      <trkpt lat="43.93513" lon="6.35022">
        <ele>1268.2</ele>
        <time>2019-11-01T09:03:04Z</time>
      </trkpt>
      <trkpt lat="43.93517" lon="6.35018">
        <ele>1268.7</ele>
        <time>2019-11-01T09:03:07Z</time>
      </trkpt>
      <trkpt lat="43.93522" lon="6.35015">
        <ele>1269.2</ele>
        <time>2019-11-01T09:03:10Z</time>
      </trkpt>
      <trkpt lat="43.93527" lon="6.35012">
        <ele>1269.6</ele>
        <time>2019-11-01T09:03:12Z</time>
      </trkpt>
      <trkpt lat="43.93531" lon="6.35009">
        <ele>1269.8</ele>
        <time>2019-11-01T09:03:15Z</time>
      </trkpt>
      <trkpt lat="43.93533" lon="6.35007">
        <ele>1269.9</ele>
        <time>2019-11-01T09:03:16Z</time>
      </trkpt>
      <trkpt lat="43.93536" lon="6.35005">
        <ele>1270</ele>
        <time>2019-11-01T09:03:18Z</time>
      </trkpt>
      <trkpt lat="43.9354" lon="6.35003">
        <ele>1270.2</ele>
        <time>2019-11-01T09:03:21Z</time>
      </trkpt>
      <trkpt lat="43.93542" lon="6.35">
        <ele>1270</ele>
        <time>2019-11-01T09:03:22Z</time>
      </trkpt>
      <trkpt lat="43.93543" lon="6.34996">
        <ele>1269.8</ele>
        <time>2019-11-01T09:03:25Z</time>
      </trkpt>
      <trkpt lat="43.93546" lon="6.34991">
        <ele>1269.5</ele>
        <time>2019-11-01T09:03:27Z</time>
      </trkpt>
      <trkpt lat="43.93547" lon="6.34987">
        <ele>1269.2</ele>
        <time>2019-11-01T09:03:29Z</time>
      </trkpt>
      <trkpt lat="43.93548" lon="6.34984">
        <ele>1269</ele>
        <time>2019-11-01T09:03:31Z</time>
      </trkpt>
      <trkpt lat="43.93549" lon="6.34979">
        <ele>1269.2</ele>
        <time>2019-11-01T09:03:33Z</time>
      </trkpt>
      <trkpt lat="43.93549" lon="6.34974">
        <ele>1269.4</ele>
        <time>2019-11-01T09:03:35Z</time>
      </trkpt>
      <trkpt lat="43.93549" lon="6.34969">
        <ele>1269.3</ele>
        <time>2019-11-01T09:03:39Z</time>
      </trkpt>
      <trkpt lat="43.93548" lon="6.34965">
        <ele>1269.3</ele>
        <time>2019-11-01T09:03:42Z</time>
      </trkpt>
      <trkpt lat="43.93546" lon="6.34962">
        <ele>1269.2</ele>
        <time>2019-11-01T09:03:45Z</time>
      </trkpt>
      <trkpt lat="43.93542" lon="6.34956">
        <ele>1269.8</ele>
        <time>2019-11-01T09:03:48Z</time>
      </trkpt>
      <trkpt lat="43.93539" lon="6.34952">
        <ele>1270.5</ele>
        <time>2019-11-01T09:03:49Z</time>
      </trkpt>
      <trkpt lat="43.93536" lon="6.34949">
        <ele>1271</ele>
        <time>2019-11-01T09:03:51Z</time>
      </trkpt>
      <trkpt lat="43.93534" lon="6.34945">
        <ele>1271.5</ele>
        <time>2019-11-01T09:03:54Z</time>
      </trkpt>
      <trkpt lat="43.93532" lon="6.3494">
        <ele>1272.1</ele>
        <time>2019-11-01T09:03:56Z</time>
      </trkpt>
      <trkpt lat="43.9353" lon="6.34937">
        <ele>1272.4</ele>
        <time>2019-11-01T09:03:58Z</time>
      </trkpt>
      <trkpt lat="43.93529" lon="6.34931">
        <ele>1273</ele>
        <time>2019-11-01T09:04:01Z</time>
      </trkpt>
      <trkpt lat="43.93527" lon="6.34928">
        <ele>1273.4</ele>
        <time>2019-11-01T09:04:02Z</time>
      </trkpt>
      <trkpt lat="43.93526" lon="6.34924">
        <ele>1273.8</ele>
        <time>2019-11-01T09:04:04Z</time>
      </trkpt>
      <trkpt lat="43.93524" lon="6.34918">
        <ele>1275</ele>
        <time>2019-11-01T09:04:08Z</time>
      </trkpt>
      <trkpt lat="43.93521" lon="6.34913">
        <ele>1276.1</ele>
        <time>2019-11-01T09:04:10Z</time>
      </trkpt>
      <trkpt lat="43.93518" lon="6.34907">
        <ele>1276.9</ele>
        <time>2019-11-01T09:04:13Z</time>
      </trkpt>
      <trkpt lat="43.93516" lon="6.34903">
        <ele>1277.4</ele>
        <time>2019-11-01T09:04:15Z</time>
      </trkpt>
      <trkpt lat="43.93513" lon="6.34897">
        <ele>1278.9</ele>
        <time>2019-11-01T09:04:18Z</time>
      </trkpt>
      <trkpt lat="43.93511" lon="6.34892">
        <ele>1280</ele>
        <time>2019-11-01T09:04:20Z</time>
      </trkpt>
      <trkpt lat="43.93509" lon="6.34887">
        <ele>1280.9</ele>
        <time>2019-11-01T09:04:23Z</time>
      </trkpt>
      <trkpt lat="43.93507" lon="6.34882">
        <ele>1281.7</ele>
        <time>2019-11-01T09:04:25Z</time>
      </trkpt>
      <trkpt lat="43.93506" lon="6.34879">
        <ele>1282.3</ele>
        <time>2019-11-01T09:04:27Z</time>
      </trkpt>
      <trkpt lat="43.93505" lon="6.34874">
        <ele>1283.2</ele>
        <time>2019-11-01T09:04:28Z</time>
      </trkpt>
      <trkpt lat="43.93503" lon="6.34867">
        <ele>1285</ele>
        <time>2019-11-01T09:04:31Z</time>
      </trkpt>
      <trkpt lat="43.93502" lon="6.34862">
        <ele>1286.4</ele>
        <time>2019-11-01T09:04:33Z</time>
      </trkpt>
      <trkpt lat="43.93501" lon="6.34857">
        <ele>1287.5</ele>
        <time>2019-11-01T09:04:35Z</time>
      </trkpt>
      <trkpt lat="43.935" lon="6.34852">
        <ele>1288.4</ele>
        <time>2019-11-01T09:04:38Z</time>
      </trkpt>
      <trkpt lat="43.935" lon="6.34847">
        <ele>1288.7</ele>
        <time>2019-11-01T09:04:40Z</time>
      </trkpt>
      <trkpt lat="43.935" lon="6.34839">
        <ele>1289.7</ele>
        <time>2019-11-01T09:04:43Z</time>
      </trkpt>
      <trkpt lat="43.935" lon="6.34832">
        <ele>1291.2</ele>
        <time>2019-11-01T09:04:46Z</time>
      </trkpt>
      <trkpt lat="43.935" lon="6.34826">
        <ele>1291.8</ele>
        <time>2019-11-01T09:04:49Z</time>
      </trkpt>
      <trkpt lat="43.935" lon="6.34818">
        <ele>1292.2</ele>
        <time>2019-11-01T09:04:52Z</time>
      </trkpt>
      <trkpt lat="43.935" lon="6.34812">
        <ele>1292.4</ele>
        <time>2019-11-01T09:04:55Z</time>
      </trkpt>
      <trkpt lat="43.935" lon="6.34807">
        <ele>1292.6</ele>
        <time>2019-11-01T09:04:57Z</time>
      </trkpt>
      <trkpt lat="43.935" lon="6.34798">
        <ele>1292.9</ele>
        <time>2019-11-01T09:05:00Z</time>
      </trkpt>
      <trkpt lat="43.935" lon="6.34793">
        <ele>1293.1</ele>
        <time>2019-11-01T09:05:02Z</time>
      </trkpt>
      <trkpt lat="43.935" lon="6.34787">
        <ele>1293.3</ele>
        <time>2019-11-01T09:05:04Z</time>
      </trkpt>
      <trkpt lat="43.93501" lon="6.34782">
        <ele>1293.4</ele>
        <time>2019-11-01T09:05:07Z</time>
      </trkpt>
      <trkpt lat="43.93501" lon="6.34776">
        <ele>1293.5</ele>
        <time>2019-11-01T09:05:10Z</time>
      </trkpt>
      <trkpt lat="43.93501" lon="6.34771">
        <ele>1293.6</ele>
        <time>2019-11-01T09:05:12Z</time>
      </trkpt>
      <trkpt lat="43.93501" lon="6.34766">
        <ele>1293.8</ele>
        <time>2019-11-01T09:05:15Z</time>
      </trkpt>
      <trkpt lat="43.93502" lon="6.34762">
        <ele>1293.9</ele>
        <time>2019-11-01T09:05:16Z</time>
      </trkpt>
      <trkpt lat="43.93503" lon="6.34757">
        <ele>1294</ele>
        <time>2019-11-01T09:05:19Z</time>
      </trkpt>
      <trkpt lat="43.93503" lon="6.34753">
        <ele>1294.2</ele>
        <time>2019-11-01T09:05:21Z</time>
      </trkpt>
      <trkpt lat="43.93503" lon="6.34746">
        <ele>1294.3</ele>
        <time>2019-11-01T09:05:23Z</time>
      </trkpt>
      <trkpt lat="43.93503" lon="6.34742">
        <ele>1294.4</ele>
        <time>2019-11-01T09:05:25Z</time>
      </trkpt>
      <trkpt lat="43.93504" lon="6.34735">
        <ele>1294.6</ele>
        <time>2019-11-01T09:05:28Z</time>
      </trkpt>
      <trkpt lat="43.93504" lon="6.34727">
        <ele>1294.9</ele>
        <time>2019-11-01T09:05:32Z</time>
      </trkpt>
      <trkpt lat="43.93503" lon="6.34722">
        <ele>1295</ele>
        <time>2019-11-01T09:05:35Z</time>
      </trkpt>
      <trkpt lat="43.93503" lon="6.34716">
        <ele>1295.1</ele>
        <time>2019-11-01T09:05:37Z</time>
      </trkpt>
      <trkpt lat="43.93502" lon="6.34711">
        <ele>1295.2</ele>
        <time>2019-11-01T09:05:40Z</time>
      </trkpt>
      <trkpt lat="43.93501" lon="6.34705">
        <ele>1295.4</ele>
        <time>2019-11-01T09:05:43Z</time>
      </trkpt>
      <trkpt lat="43.93501" lon="6.34699">
        <ele>1295.5</ele>
        <time>2019-11-01T09:05:45Z</time>
      </trkpt>
      <trkpt lat="43.935" lon="6.34692">
        <ele>1295.8</ele>
        <time>2019-11-01T09:05:48Z</time>
      </trkpt>
      <trkpt lat="43.93499" lon="6.34688">
        <ele>1295.9</ele>
        <time>2019-11-01T09:05:50Z</time>
      </trkpt>
      <trkpt lat="43.93498" lon="6.34682">
        <ele>1297.2</ele>
        <time>2019-11-01T09:05:52Z</time>
      </trkpt>
      <trkpt lat="43.93498" lon="6.34678">
        <ele>1298.5</ele>
        <time>2019-11-01T09:05:53Z</time>
      </trkpt>
      <trkpt lat="43.93497" lon="6.34672">
        <ele>1299.5</ele>
        <time>2019-11-01T09:05:56Z</time>
      </trkpt>
      <trkpt lat="43.93496" lon="6.34668">
        <ele>1299.6</ele>
        <time>2019-11-01T09:05:58Z</time>
      </trkpt>
      <trkpt lat="43.93493" lon="6.34664">
        <ele>1299.7</ele>
        <time>2019-11-01T09:06:01Z</time>
      </trkpt>
      <trkpt lat="43.93492" lon="6.34661">
        <ele>1299.8</ele>
        <time>2019-11-01T09:06:05Z</time>
      </trkpt>
      <trkpt lat="43.93496" lon="6.34653">
        <ele>1299.8</ele>
        <time>2019-11-01T09:07:20Z</time>
      </trkpt>
      <trkpt lat="43.93496" lon="6.34649">
        <ele>1299.9</ele>
        <time>2019-11-01T09:07:22Z</time>
      </trkpt>
      <trkpt lat="43.93495" lon="6.34643">
        <ele>1301</ele>
        <time>2019-11-01T09:07:25Z</time>
      </trkpt>
      <trkpt lat="43.93495" lon="6.34638">
        <ele>1302.4</ele>
        <time>2019-11-01T09:07:27Z</time>
      </trkpt>
      <trkpt lat="43.93494" lon="6.34635">
        <ele>1303.5</ele>
        <time>2019-11-01T09:07:29Z</time>
      </trkpt>
      <trkpt lat="43.93493" lon="6.34629">
        <ele>1304.8</ele>
        <time>2019-11-01T09:07:31Z</time>
      </trkpt>
      <trkpt lat="43.93493" lon="6.34622">
        <ele>1306.3</ele>
        <time>2019-11-01T09:07:34Z</time>
      </trkpt>
      <trkpt lat="43.93492" lon="6.34615">
        <ele>1306.2</ele>
        <time>2019-11-01T09:07:36Z</time>
      </trkpt>
      <trkpt lat="43.93491" lon="6.34611">
        <ele>1306.4</ele>
        <time>2019-11-01T09:07:38Z</time>
      </trkpt>
      <trkpt lat="43.9349" lon="6.34605">
        <ele>1307.6</ele>
        <time>2019-11-01T09:07:40Z</time>
      </trkpt>
      <trkpt lat="43.93489" lon="6.346">
        <ele>1308.8</ele>
        <time>2019-11-01T09:07:43Z</time>
      </trkpt>
      <trkpt lat="43.93487" lon="6.34593">
        <ele>1310.3</ele>
        <time>2019-11-01T09:07:45Z</time>
      </trkpt>
      <trkpt lat="43.93484" lon="6.34586">
        <ele>1311.9</ele>
        <time>2019-11-01T09:07:48Z</time>
      </trkpt>
      <trkpt lat="43.93482" lon="6.34581">
        <ele>1313.1</ele>
        <time>2019-11-01T09:07:50Z</time>
      </trkpt>
      <trkpt lat="43.9348" lon="6.34577">
        <ele>1312.9</ele>
        <time>2019-11-01T09:07:52Z</time>
      </trkpt>
      <trkpt lat="43.93479" lon="6.34572">
        <ele>1312.6</ele>
        <time>2019-11-01T09:07:54Z</time>
      </trkpt>
      <trkpt lat="43.93476" lon="6.34567">
        <ele>1313.2</ele>
        <time>2019-11-01T09:07:56Z</time>
      </trkpt>
      <trkpt lat="43.93474" lon="6.34561">
        <ele>1314.3</ele>
        <time>2019-11-01T09:07:59Z</time>
      </trkpt>
      <trkpt lat="43.93473" lon="6.34557">
        <ele>1315.1</ele>
        <time>2019-11-01T09:08:00Z</time>
      </trkpt>
      <trkpt lat="43.93472" lon="6.34552">
        <ele>1316.1</ele>
        <time>2019-11-01T09:08:02Z</time>
      </trkpt>
      <trkpt lat="43.93472" lon="6.34546">
        <ele>1317.6</ele>
        <time>2019-11-01T09:08:04Z</time>
      </trkpt>
      <trkpt lat="43.93472" lon="6.34541">
        <ele>1318.7</ele>
        <time>2019-11-01T09:08:06Z</time>
      </trkpt>
      <trkpt lat="43.93472" lon="6.34536">
        <ele>1318.1</ele>
        <time>2019-11-01T09:08:09Z</time>
      </trkpt>
      <trkpt lat="43.93472" lon="6.3453">
        <ele>1317.4</ele>
        <time>2019-11-01T09:08:11Z</time>
      </trkpt>
      <trkpt lat="43.93473" lon="6.34523">
        <ele>1316.6</ele>
        <time>2019-11-01T09:08:13Z</time>
      </trkpt>
      <trkpt lat="43.93473" lon="6.34518">
        <ele>1316.1</ele>
        <time>2019-11-01T09:08:15Z</time>
      </trkpt>
      <trkpt lat="43.93473" lon="6.34513">
        <ele>1315.4</ele>
        <time>2019-11-01T09:08:17Z</time>
      </trkpt>
      <trkpt lat="43.93473" lon="6.34508">
        <ele>1314.8</ele>
        <time>2019-11-01T09:08:19Z</time>
      </trkpt>
      <trkpt lat="43.93475" lon="6.34504">
        <ele>1314.2</ele>
        <time>2019-11-01T09:08:21Z</time>
      </trkpt>
      <trkpt lat="43.93476" lon="6.34498">
        <ele>1313.4</ele>
        <time>2019-11-01T09:08:24Z</time>
      </trkpt>
      <trkpt lat="43.93477" lon="6.34492">
        <ele>1312.8</ele>
        <time>2019-11-01T09:08:26Z</time>
      </trkpt>
      <trkpt lat="43.93478" lon="6.34484">
        <ele>1311.8</ele>
        <time>2019-11-01T09:08:29Z</time>
      </trkpt>
      <trkpt lat="43.93478" lon="6.34479">
        <ele>1311.4</ele>
        <time>2019-11-01T09:08:32Z</time>
      </trkpt>
      <trkpt lat="43.93479" lon="6.34475">
        <ele>1311.1</ele>
        <time>2019-11-01T09:08:34Z</time>
      </trkpt>
      <trkpt lat="43.93478" lon="6.3447">
        <ele>1310.5</ele>
        <time>2019-11-01T09:08:35Z</time>
      </trkpt>
      <trkpt lat="43.93478" lon="6.34466">
        <ele>1310.1</ele>
        <time>2019-11-01T09:08:36Z</time>
      </trkpt>
      <trkpt lat="43.93478" lon="6.34461">
        <ele>1309.5</ele>
        <time>2019-11-01T09:08:39Z</time>
      </trkpt>
      <trkpt lat="43.93477" lon="6.34456">
        <ele>1309</ele>
        <time>2019-11-01T09:08:41Z</time>
      </trkpt>
      <trkpt lat="43.93476" lon="6.34451">
        <ele>1308.5</ele>
        <time>2019-11-01T09:08:42Z</time>
      </trkpt>
      <trkpt lat="43.93474" lon="6.34444">
        <ele>1308.5</ele>
        <time>2019-11-01T09:08:45Z</time>
      </trkpt>
      <trkpt lat="43.93471" lon="6.3444">
        <ele>1309</ele>
        <time>2019-11-01T09:08:48Z</time>
      </trkpt>
      <trkpt lat="43.93468" lon="6.34434">
        <ele>1309.4</ele>
        <time>2019-11-01T09:08:50Z</time>
      </trkpt>
      <trkpt lat="43.93465" lon="6.34429">
        <ele>1309.7</ele>
        <time>2019-11-01T09:08:53Z</time>
      </trkpt>
      <trkpt lat="43.93462" lon="6.34424">
        <ele>1310.2</ele>
        <time>2019-11-01T09:08:56Z</time>
      </trkpt>
      <trkpt lat="43.9346" lon="6.3442">
        <ele>1310.7</ele>
        <time>2019-11-01T09:09:00Z</time>
      </trkpt>
      <trkpt lat="43.93459" lon="6.34417">
        <ele>1311.1</ele>
        <time>2019-11-01T09:09:02Z</time>
      </trkpt>
      <trkpt lat="43.93456" lon="6.34413">
        <ele>1311.5</ele>
        <time>2019-11-01T09:09:06Z</time>
      </trkpt>
      <trkpt lat="43.93454" lon="6.34409">
        <ele>1312.2</ele>
        <time>2019-11-01T09:09:09Z</time>
      </trkpt>
      <trkpt lat="43.93452" lon="6.34405">
        <ele>1313.3</ele>
        <time>2019-11-01T09:09:12Z</time>
      </trkpt>
      <trkpt lat="43.9345" lon="6.344">
        <ele>1314.9</ele>
        <time>2019-11-01T09:09:15Z</time>
      </trkpt>
      <trkpt lat="43.93449" lon="6.34398">
        <ele>1315.1</ele>
        <time>2019-11-01T09:09:17Z</time>
      </trkpt>
      <trkpt lat="43.93447" lon="6.34394">
        <ele>1315.4</ele>
        <time>2019-11-01T09:09:19Z</time>
      </trkpt>
      <trkpt lat="43.93445" lon="6.34389">
        <ele>1316.2</ele>
        <time>2019-11-01T09:09:21Z</time>
      </trkpt>
      <trkpt lat="43.93441" lon="6.34382">
        <ele>1319</ele>
        <time>2019-11-01T09:09:24Z</time>
      </trkpt>
      <trkpt lat="43.93439" lon="6.34378">
        <ele>1319.5</ele>
        <time>2019-11-01T09:09:26Z</time>
      </trkpt>
      <trkpt lat="43.93437" lon="6.34373">
        <ele>1320.1</ele>
        <time>2019-11-01T09:09:27Z</time>
      </trkpt>
      <trkpt lat="43.93436" lon="6.34369">
        <ele>1320.4</ele>
        <time>2019-11-01T09:09:28Z</time>
      </trkpt>
      <trkpt lat="43.93435" lon="6.34365">
        <ele>1320.6</ele>
        <time>2019-11-01T09:09:30Z</time>
      </trkpt>
      <trkpt lat="43.93432" lon="6.3436">
        <ele>1321.1</ele>
        <time>2019-11-01T09:09:33Z</time>
      </trkpt>
      <trkpt lat="43.9343" lon="6.34355">
        <ele>1322.5</ele>
        <time>2019-11-01T09:09:35Z</time>
      </trkpt>
      <trkpt lat="43.93429" lon="6.34351">
        <ele>1323.5</ele>
        <time>2019-11-01T09:09:36Z</time>
      </trkpt>
      <trkpt lat="43.93427" lon="6.34347">
        <ele>1323.9</ele>
        <time>2019-11-01T09:09:39Z</time>
      </trkpt>
      <trkpt lat="43.93426" lon="6.34341">
        <ele>1324.3</ele>
        <time>2019-11-01T09:09:42Z</time>
      </trkpt>
      <trkpt lat="43.93425" lon="6.34337">
        <ele>1324.5</ele>
        <time>2019-11-01T09:09:44Z</time>
      </trkpt>
      <trkpt lat="43.93423" lon="6.34333">
        <ele>1324.7</ele>
        <time>2019-11-01T09:09:47Z</time>
      </trkpt>
      <trkpt lat="43.93422" lon="6.34329">
        <ele>1325</ele>
        <time>2019-11-01T09:09:48Z</time>
      </trkpt>
      <trkpt lat="43.93421" lon="6.34325">
        <ele>1325.3</ele>
        <time>2019-11-01T09:09:49Z</time>
      </trkpt>
      <trkpt lat="43.9342" lon="6.34319">
        <ele>1326</ele>
        <time>2019-11-01T09:09:53Z</time>
      </trkpt>
      <trkpt lat="43.93419" lon="6.34315">
        <ele>1325.9</ele>
        <time>2019-11-01T09:09:55Z</time>
      </trkpt>
      <trkpt lat="43.93419" lon="6.3431">
        <ele>1325.5</ele>
        <time>2019-11-01T09:09:58Z</time>
      </trkpt>
      <trkpt lat="43.93418" lon="6.34304">
        <ele>1325.8</ele>
        <time>2019-11-01T09:10:00Z</time>
      </trkpt>
      <trkpt lat="43.93416" lon="6.34298">
        <ele>1326.6</ele>
        <time>2019-11-01T09:10:03Z</time>
      </trkpt>
      <trkpt lat="43.93415" lon="6.34292">
        <ele>1327.3</ele>
        <time>2019-11-01T09:10:05Z</time>
      </trkpt>
      <trkpt lat="43.93415" lon="6.34287">
        <ele>1327.9</ele>
        <time>2019-11-01T09:10:08Z</time>
      </trkpt>
      <trkpt lat="43.93414" lon="6.34279">
        <ele>1328.1</ele>
        <time>2019-11-01T09:10:11Z</time>
      </trkpt>
      <trkpt lat="43.93414" lon="6.34275">
        <ele>1328</ele>
        <time>2019-11-01T09:10:12Z</time>
      </trkpt>
      <trkpt lat="43.93413" lon="6.3427">
        <ele>1328.5</ele>
        <time>2019-11-01T09:10:15Z</time>
      </trkpt>
      <trkpt lat="43.93413" lon="6.34265">
        <ele>1329.3</ele>
        <time>2019-11-01T09:10:17Z</time>
      </trkpt>
      <trkpt lat="43.93412" lon="6.34259">
        <ele>1329.9</ele>
        <time>2019-11-01T09:10:20Z</time>
      </trkpt>
      <trkpt lat="43.93412" lon="6.34254">
        <ele>1330</ele>
        <time>2019-11-01T09:10:23Z</time>
      </trkpt>
      <trkpt lat="43.93412" lon="6.3425">
        <ele>1330.1</ele>
        <time>2019-11-01T09:10:24Z</time>
      </trkpt>
      <trkpt lat="43.93411" lon="6.34246">
        <ele>1330.3</ele>
        <time>2019-11-01T09:10:25Z</time>
      </trkpt>
      <trkpt lat="43.93411" lon="6.34237">
        <ele>1330.9</ele>
        <time>2019-11-01T09:10:29Z</time>
      </trkpt>
      <trkpt lat="43.9341" lon="6.34232">
        <ele>1331.9</ele>
        <time>2019-11-01T09:10:33Z</time>
      </trkpt>
      <trkpt lat="43.9341" lon="6.34228">
        <ele>1332.6</ele>
        <time>2019-11-01T09:10:34Z</time>
      </trkpt>
      <trkpt lat="43.93409" lon="6.34221">
        <ele>1333.1</ele>
        <time>2019-11-01T09:10:37Z</time>
      </trkpt>
      <trkpt lat="43.93409" lon="6.34215">
        <ele>1333.3</ele>
        <time>2019-11-01T09:10:40Z</time>
      </trkpt>
      <trkpt lat="43.93408" lon="6.34211">
        <ele>1333.9</ele>
        <time>2019-11-01T09:10:42Z</time>
      </trkpt>
      <trkpt lat="43.93406" lon="6.34207">
        <ele>1334.7</ele>
        <time>2019-11-01T09:10:43Z</time>
      </trkpt>
      <trkpt lat="43.93403" lon="6.34202">
        <ele>1336.3</ele>
        <time>2019-11-01T09:10:46Z</time>
      </trkpt>
      <trkpt lat="43.93401" lon="6.34195">
        <ele>1338.4</ele>
        <time>2019-11-01T09:10:50Z</time>
      </trkpt>
      <trkpt lat="43.93399" lon="6.34188">
        <ele>1339.4</ele>
        <time>2019-11-01T09:10:52Z</time>
      </trkpt>
      <trkpt lat="43.93398" lon="6.34183">
        <ele>1339.9</ele>
        <time>2019-11-01T09:10:55Z</time>
      </trkpt>
      <trkpt lat="43.93397" lon="6.34177">
        <ele>1340</ele>
        <time>2019-11-01T09:10:57Z</time>
      </trkpt>
      <trkpt lat="43.93397" lon="6.34171">
        <ele>1340</ele>
        <time>2019-11-01T09:11:00Z</time>
      </trkpt>
      <trkpt lat="43.93397" lon="6.34165">
        <ele>1340.2</ele>
        <time>2019-11-01T09:11:02Z</time>
      </trkpt>
      <trkpt lat="43.93397" lon="6.34156">
        <ele>1340.6</ele>
        <time>2019-11-01T09:11:06Z</time>
      </trkpt>
      <trkpt lat="43.93395" lon="6.34151">
        <ele>1341.5</ele>
        <time>2019-11-01T09:11:09Z</time>
      </trkpt>
      <trkpt lat="43.93394" lon="6.34146">
        <ele>1342.3</ele>
        <time>2019-11-01T09:11:12Z</time>
      </trkpt>
      <trkpt lat="43.93391" lon="6.34138">
        <ele>1344</ele>
        <time>2019-11-01T09:11:15Z</time>
      </trkpt>
      <trkpt lat="43.93389" lon="6.34135">
        <ele>1344.9</ele>
        <time>2019-11-01T09:11:17Z</time>
      </trkpt>
      <trkpt lat="43.93387" lon="6.34131">
        <ele>1345.9</ele>
        <time>2019-11-01T09:11:19Z</time>
      </trkpt>
      <trkpt lat="43.93384" lon="6.34126">
        <ele>1347.1</ele>
        <time>2019-11-01T09:11:23Z</time>
      </trkpt>
      <trkpt lat="43.93382" lon="6.34122">
        <ele>1347.6</ele>
        <time>2019-11-01T09:11:27Z</time>
      </trkpt>
      <trkpt lat="43.9338" lon="6.34116">
        <ele>1347.8</ele>
        <time>2019-11-01T09:11:30Z</time>
      </trkpt>
      <trkpt lat="43.93378" lon="6.34111">
        <ele>1348.3</ele>
        <time>2019-11-01T09:11:32Z</time>
      </trkpt>
      <trkpt lat="43.93378" lon="6.34107">
        <ele>1349.1</ele>
        <time>2019-11-01T09:11:33Z</time>
      </trkpt>
      <trkpt lat="43.93378" lon="6.34103">
        <ele>1349.8</ele>
        <time>2019-11-01T09:11:34Z</time>
      </trkpt>
      <trkpt lat="43.93377" lon="6.34098">
        <ele>1350.7</ele>
        <time>2019-11-01T09:11:37Z</time>
      </trkpt>
      <trkpt lat="43.93376" lon="6.34091">
        <ele>1352</ele>
        <time>2019-11-01T09:11:39Z</time>
      </trkpt>
      <trkpt lat="43.93377" lon="6.34087">
        <ele>1352.8</ele>
        <time>2019-11-01T09:11:41Z</time>
      </trkpt>
      <trkpt lat="43.93377" lon="6.34082">
        <ele>1353.7</ele>
        <time>2019-11-01T09:11:44Z</time>
      </trkpt>
      <trkpt lat="43.93379" lon="6.34075">
        <ele>1354.7</ele>
        <time>2019-11-01T09:11:47Z</time>
      </trkpt>
      <trkpt lat="43.93379" lon="6.34072">
        <ele>1354.5</ele>
        <time>2019-11-01T09:11:49Z</time>
      </trkpt>
      <trkpt lat="43.93381" lon="6.34069">
        <ele>1354.2</ele>
        <time>2019-11-01T09:11:51Z</time>
      </trkpt>
      <trkpt lat="43.93382" lon="6.34065">
        <ele>1354</ele>
        <time>2019-11-01T09:11:54Z</time>
      </trkpt>
      <trkpt lat="43.93383" lon="6.34062">
        <ele>1353.8</ele>
        <time>2019-11-01T09:11:56Z</time>
      </trkpt>
      <trkpt lat="43.93385" lon="6.34056">
        <ele>1353.6</ele>
        <time>2019-11-01T09:12:00Z</time>
      </trkpt>
      <trkpt lat="43.93386" lon="6.34051">
        <ele>1353.7</ele>
        <time>2019-11-01T09:12:02Z</time>
      </trkpt>
      <trkpt lat="43.93389" lon="6.34043">
        <ele>1353.9</ele>
        <time>2019-11-01T09:12:05Z</time>
      </trkpt>
      <trkpt lat="43.9339" lon="6.34038">
        <ele>1354.1</ele>
        <time>2019-11-01T09:12:08Z</time>
      </trkpt>
      <trkpt lat="43.93391" lon="6.34034">
        <ele>1354.5</ele>
        <time>2019-11-01T09:12:09Z</time>
      </trkpt>
      <trkpt lat="43.93391" lon="6.34027">
        <ele>1355.7</ele>
        <time>2019-11-01T09:12:12Z</time>
      </trkpt>
      <trkpt lat="43.93391" lon="6.34021">
        <ele>1356.7</ele>
        <time>2019-11-01T09:12:15Z</time>
      </trkpt>
      <trkpt lat="43.93391" lon="6.34015">
        <ele>1357.8</ele>
        <time>2019-11-01T09:12:17Z</time>
      </trkpt>
      <trkpt lat="43.93392" lon="6.3401">
        <ele>1358.7</ele>
        <time>2019-11-01T09:12:20Z</time>
      </trkpt>
      <trkpt lat="43.93393" lon="6.34006">
        <ele>1359.1</ele>
        <time>2019-11-01T09:12:22Z</time>
      </trkpt>
      <trkpt lat="43.93395" lon="6.34003">
        <ele>1359.6</ele>
        <time>2019-11-01T09:12:24Z</time>
      </trkpt>
      <trkpt lat="43.93398" lon="6.33996">
        <ele>1360.2</ele>
        <time>2019-11-01T09:12:27Z</time>
      </trkpt>
      <trkpt lat="43.93399" lon="6.33993">
        <ele>1360.5</ele>
        <time>2019-11-01T09:12:29Z</time>
      </trkpt>
      <trkpt lat="43.934" lon="6.33989">
        <ele>1360.7</ele>
        <time>2019-11-01T09:12:30Z</time>
      </trkpt>
      <trkpt lat="43.93402" lon="6.33985">
        <ele>1361.1</ele>
        <time>2019-11-01T09:12:33Z</time>
      </trkpt>
      <trkpt lat="43.93403" lon="6.3398">
        <ele>1361.5</ele>
        <time>2019-11-01T09:12:35Z</time>
      </trkpt>
      <trkpt lat="43.93404" lon="6.33976">
        <ele>1362.1</ele>
        <time>2019-11-01T09:12:37Z</time>
      </trkpt>
      <trkpt lat="43.93405" lon="6.33969">
        <ele>1363</ele>
        <time>2019-11-01T09:12:39Z</time>
      </trkpt>
      <trkpt lat="43.93406" lon="6.33964">
        <ele>1363.7</ele>
        <time>2019-11-01T09:12:42Z</time>
      </trkpt>
      <trkpt lat="43.93406" lon="6.33958">
        <ele>1364.4</ele>
        <time>2019-11-01T09:12:44Z</time>
      </trkpt>
      <trkpt lat="43.93406" lon="6.33952">
        <ele>1365.4</ele>
        <time>2019-11-01T09:12:46Z</time>
      </trkpt>
      <trkpt lat="43.93407" lon="6.33947">
        <ele>1366</ele>
        <time>2019-11-01T09:12:48Z</time>
      </trkpt>
      <trkpt lat="43.93407" lon="6.33944">
        <ele>1366.6</ele>
        <time>2019-11-01T09:12:49Z</time>
      </trkpt>
      <trkpt lat="43.93408" lon="6.3394">
        <ele>1367.2</ele>
        <time>2019-11-01T09:12:51Z</time>
      </trkpt>
      <trkpt lat="43.9341" lon="6.33932">
        <ele>1368.5</ele>
        <time>2019-11-01T09:12:54Z</time>
      </trkpt>
      <trkpt lat="43.93411" lon="6.33929">
        <ele>1369.3</ele>
        <time>2019-11-01T09:12:55Z</time>
      </trkpt>
      <trkpt lat="43.93415" lon="6.33923">
        <ele>1369.4</ele>
        <time>2019-11-01T09:12:57Z</time>
      </trkpt>
      <trkpt lat="43.93419" lon="6.33917">
        <ele>1369.5</ele>
        <time>2019-11-01T09:13:00Z</time>
      </trkpt>
      <trkpt lat="43.93424" lon="6.33913">
        <ele>1370</ele>
        <time>2019-11-01T09:13:03Z</time>
      </trkpt>
      <trkpt lat="43.93429" lon="6.33906">
        <ele>1371.3</ele>
        <time>2019-11-01T09:13:05Z</time>
      </trkpt>
      <trkpt lat="43.93431" lon="6.33902">
        <ele>1371.7</ele>
        <time>2019-11-01T09:13:07Z</time>
      </trkpt>
      <trkpt lat="43.93434" lon="6.33898">
        <ele>1372</ele>
        <time>2019-11-01T09:13:08Z</time>
      </trkpt>
      <trkpt lat="43.93436" lon="6.33896">
        <ele>1372.5</ele>
        <time>2019-11-01T09:13:09Z</time>
      </trkpt>
      <trkpt lat="43.93439" lon="6.33892">
        <ele>1373.2</ele>
        <time>2019-11-01T09:13:11Z</time>
      </trkpt>
      <trkpt lat="43.93445" lon="6.33886">
        <ele>1374</ele>
        <time>2019-11-01T09:13:14Z</time>
      </trkpt>
      <trkpt lat="43.93447" lon="6.33883">
        <ele>1374.3</ele>
        <time>2019-11-01T09:13:15Z</time>
      </trkpt>
      <trkpt lat="43.93452" lon="6.33878">
        <ele>1375.1</ele>
        <time>2019-11-01T09:13:18Z</time>
      </trkpt>
      <trkpt lat="43.93456" lon="6.33876">
        <ele>1375.3</ele>
        <time>2019-11-01T09:13:20Z</time>
      </trkpt>
      <trkpt lat="43.9346" lon="6.33875">
        <ele>1375.2</ele>
        <time>2019-11-01T09:13:21Z</time>
      </trkpt>
      <trkpt lat="43.93464" lon="6.33877">
        <ele>1375.1</ele>
        <time>2019-11-01T09:13:22Z</time>
      </trkpt>
      <trkpt lat="43.93467" lon="6.33879">
        <ele>1375</ele>
        <time>2019-11-01T09:13:24Z</time>
      </trkpt>
      <trkpt lat="43.93471" lon="6.33882">
        <ele>1374.6</ele>
        <time>2019-11-01T09:13:25Z</time>
      </trkpt>
      <trkpt lat="43.93473" lon="6.33885">
        <ele>1374.2</ele>
        <time>2019-11-01T09:13:27Z</time>
      </trkpt>
      <trkpt lat="43.93475" lon="6.33888">
        <ele>1373.9</ele>
        <time>2019-11-01T09:13:28Z</time>
      </trkpt>
      <trkpt lat="43.93477" lon="6.33891">
        <ele>1373.4</ele>
        <time>2019-11-01T09:13:29Z</time>
      </trkpt>
      <trkpt lat="43.93479" lon="6.33896">
        <ele>1372.8</ele>
        <time>2019-11-01T09:13:31Z</time>
      </trkpt>
      <trkpt lat="43.9348" lon="6.33903">
        <ele>1371.4</ele>
        <time>2019-11-01T09:13:33Z</time>
      </trkpt>
      <trkpt lat="43.93482" lon="6.33911">
        <ele>1370</ele>
        <time>2019-11-01T09:13:36Z</time>
      </trkpt>
      <trkpt lat="43.93485" lon="6.33916">
        <ele>1370</ele>
        <time>2019-11-01T09:13:38Z</time>
      </trkpt>
      <trkpt lat="43.93487" lon="6.33919">
        <ele>1369.5</ele>
        <time>2019-11-01T09:13:39Z</time>
      </trkpt>
      <trkpt lat="43.93489" lon="6.33921">
        <ele>1369.3</ele>
        <time>2019-11-01T09:13:40Z</time>
      </trkpt>
      <trkpt lat="43.93492" lon="6.33925">
        <ele>1369</ele>
        <time>2019-11-01T09:13:42Z</time>
      </trkpt>
      <trkpt lat="43.93495" lon="6.33926">
        <ele>1368.8</ele>
        <time>2019-11-01T09:13:43Z</time>
      </trkpt>
      <trkpt lat="43.935" lon="6.3393">
        <ele>1367.7</ele>
        <time>2019-11-01T09:13:46Z</time>
      </trkpt>
      <trkpt lat="43.93504" lon="6.33932">
        <ele>1367.4</ele>
        <time>2019-11-01T09:13:47Z</time>
      </trkpt>
      <trkpt lat="43.93508" lon="6.33934">
        <ele>1367.4</ele>
        <time>2019-11-01T09:13:49Z</time>
      </trkpt>
      <trkpt lat="43.93512" lon="6.33935">
        <ele>1367.5</ele>
        <time>2019-11-01T09:13:51Z</time>
      </trkpt>
      <trkpt lat="43.93517" lon="6.33934">
        <ele>1368.1</ele>
        <time>2019-11-01T09:13:53Z</time>
      </trkpt>
      <trkpt lat="43.93519" lon="6.33932">
        <ele>1368.2</ele>
        <time>2019-11-01T09:13:54Z</time>
      </trkpt>
      <trkpt lat="43.93524" lon="6.33928">
        <ele>1368.3</ele>
        <time>2019-11-01T09:13:57Z</time>
      </trkpt>
      <trkpt lat="43.93527" lon="6.33921">
        <ele>1370</ele>
        <time>2019-11-01T09:14:00Z</time>
      </trkpt>
      <trkpt lat="43.93528" lon="6.33916">
        <ele>1370.6</ele>
        <time>2019-11-01T09:14:01Z</time>
      </trkpt>
      <trkpt lat="43.93528" lon="6.3391">
        <ele>1372.3</ele>
        <time>2019-11-01T09:14:03Z</time>
      </trkpt>
      <trkpt lat="43.93528" lon="6.33903">
        <ele>1373.9</ele>
        <time>2019-11-01T09:14:06Z</time>
      </trkpt>
      <trkpt lat="43.93528" lon="6.33898">
        <ele>1374.8</ele>
        <time>2019-11-01T09:14:07Z</time>
      </trkpt>
      <trkpt lat="43.93528" lon="6.33893">
        <ele>1375.6</ele>
        <time>2019-11-01T09:14:09Z</time>
      </trkpt>
      <trkpt lat="43.93527" lon="6.33887">
        <ele>1376.4</ele>
        <time>2019-11-01T09:14:11Z</time>
      </trkpt>
      <trkpt lat="43.93526" lon="6.33881">
        <ele>1377</ele>
        <time>2019-11-01T09:14:13Z</time>
      </trkpt>
      <trkpt lat="43.93525" lon="6.33874">
        <ele>1378</ele>
        <time>2019-11-01T09:14:15Z</time>
      </trkpt>
      <trkpt lat="43.93525" lon="6.33868">
        <ele>1378.8</ele>
        <time>2019-11-01T09:14:16Z</time>
      </trkpt>
      <trkpt lat="43.93524" lon="6.33862">
        <ele>1379.8</ele>
        <time>2019-11-01T09:14:18Z</time>
      </trkpt>
      <trkpt lat="43.93524" lon="6.33856">
        <ele>1380.9</ele>
        <time>2019-11-01T09:14:21Z</time>
      </trkpt>
      <trkpt lat="43.93524" lon="6.3385">
        <ele>1381.7</ele>
        <time>2019-11-01T09:14:22Z</time>
      </trkpt>
      <trkpt lat="43.93523" lon="6.33842">
        <ele>1383</ele>
        <time>2019-11-01T09:14:24Z</time>
      </trkpt>
      <trkpt lat="43.93523" lon="6.33834">
        <ele>1383.8</ele>
        <time>2019-11-01T09:14:27Z</time>
      </trkpt>
      <trkpt lat="43.93523" lon="6.33829">
        <ele>1384.3</ele>
        <time>2019-11-01T09:14:29Z</time>
      </trkpt>
      <trkpt lat="43.93524" lon="6.33825">
        <ele>1385</ele>
        <time>2019-11-01T09:14:30Z</time>
      </trkpt>
      <trkpt lat="43.93523" lon="6.3382">
        <ele>1385.6</ele>
        <time>2019-11-01T09:14:31Z</time>
      </trkpt>
      <trkpt lat="43.93524" lon="6.33815">
        <ele>1386.5</ele>
        <time>2019-11-01T09:14:34Z</time>
      </trkpt>
      <trkpt lat="43.93526" lon="6.3381">
        <ele>1387.1</ele>
        <time>2019-11-01T09:14:36Z</time>
      </trkpt>
      <trkpt lat="43.9353" lon="6.33804">
        <ele>1386.9</ele>
        <time>2019-11-01T09:14:38Z</time>
      </trkpt>
      <trkpt lat="43.93535" lon="6.33802">
        <ele>1387.4</ele>
        <time>2019-11-01T09:14:40Z</time>
      </trkpt>
      <trkpt lat="43.93538" lon="6.33803">
        <ele>1387</ele>
        <time>2019-11-01T09:14:41Z</time>
      </trkpt>
      <trkpt lat="43.9354" lon="6.33806">
        <ele>1386.7</ele>
        <time>2019-11-01T09:14:42Z</time>
      </trkpt>
      <trkpt lat="43.93545" lon="6.33808">
        <ele>1386.4</ele>
        <time>2019-11-01T09:14:44Z</time>
      </trkpt>
      <trkpt lat="43.93548" lon="6.3381">
        <ele>1386.2</ele>
        <time>2019-11-01T09:14:46Z</time>
      </trkpt>
      <trkpt lat="43.93551" lon="6.3381">
        <ele>1386</ele>
        <time>2019-11-01T09:14:47Z</time>
      </trkpt>
      <trkpt lat="43.93556" lon="6.3381">
        <ele>1385.6</ele>
        <time>2019-11-01T09:14:49Z</time>
      </trkpt>
      <trkpt lat="43.93559" lon="6.3381">
        <ele>1385.3</ele>
        <time>2019-11-01T09:14:51Z</time>
      </trkpt>
      <trkpt lat="43.93564" lon="6.33808">
        <ele>1384.9</ele>
        <time>2019-11-01T09:14:54Z</time>
      </trkpt>
      <trkpt lat="43.93568" lon="6.33805">
        <ele>1384.9</ele>
        <time>2019-11-01T09:14:56Z</time>
      </trkpt>
      <trkpt lat="43.93571" lon="6.33801">
        <ele>1384.7</ele>
        <time>2019-11-01T09:14:59Z</time>
      </trkpt>
      <trkpt lat="43.93573" lon="6.33799">
        <ele>1384.6</ele>
        <time>2019-11-01T09:15:00Z</time>
      </trkpt>
      <trkpt lat="43.93578" lon="6.33793">
        <ele>1384.5</ele>
        <time>2019-11-01T09:15:03Z</time>
      </trkpt>
      <trkpt lat="43.9358" lon="6.33791">
        <ele>1384.6</ele>
        <time>2019-11-01T09:15:05Z</time>
      </trkpt>
      <trkpt lat="43.93583" lon="6.33786">
        <ele>1384.7</ele>
        <time>2019-11-01T09:15:07Z</time>
      </trkpt>
      <trkpt lat="43.93587" lon="6.33783">
        <ele>1384.7</ele>
        <time>2019-11-01T09:15:10Z</time>
      </trkpt>
      <trkpt lat="43.9359" lon="6.33781">
        <ele>1384.6</ele>
        <time>2019-11-01T09:15:12Z</time>
      </trkpt>
      <trkpt lat="43.93593" lon="6.33778">
        <ele>1384.4</ele>
        <time>2019-11-01T09:15:14Z</time>
      </trkpt>
      <trkpt lat="43.93596" lon="6.33773">
        <ele>1384.3</ele>
        <time>2019-11-01T09:15:17Z</time>
      </trkpt>
      <trkpt lat="43.93599" lon="6.33769">
        <ele>1384.3</ele>
        <time>2019-11-01T09:15:20Z</time>
      </trkpt>
      <trkpt lat="43.93602" lon="6.33764">
        <ele>1384.6</ele>
        <time>2019-11-01T09:15:22Z</time>
      </trkpt>
      <trkpt lat="43.93604" lon="6.33759">
        <ele>1385</ele>
        <time>2019-11-01T09:15:25Z</time>
      </trkpt>
      <trkpt lat="43.93606" lon="6.33753">
        <ele>1385.5</ele>
        <time>2019-11-01T09:15:27Z</time>
      </trkpt>
      <trkpt lat="43.93608" lon="6.33749">
        <ele>1385.8</ele>
        <time>2019-11-01T09:15:30Z</time>
      </trkpt>
      <trkpt lat="43.93609" lon="6.33743">
        <ele>1386.3</ele>
        <time>2019-11-01T09:15:33Z</time>
      </trkpt>
      <trkpt lat="43.9361" lon="6.33737">
        <ele>1386.8</ele>
        <time>2019-11-01T09:15:35Z</time>
      </trkpt>
      <trkpt lat="43.93611" lon="6.33731">
        <ele>1387.2</ele>
        <time>2019-11-01T09:15:38Z</time>
      </trkpt>
      <trkpt lat="43.93612" lon="6.33726">
        <ele>1387.4</ele>
        <time>2019-11-01T09:15:40Z</time>
      </trkpt>
      <trkpt lat="43.93613" lon="6.3372">
        <ele>1387.9</ele>
        <time>2019-11-01T09:15:42Z</time>
      </trkpt>
      <trkpt lat="43.93614" lon="6.33715">
        <ele>1388.4</ele>
        <time>2019-11-01T09:15:44Z</time>
      </trkpt>
      <trkpt lat="43.93615" lon="6.3371">
        <ele>1388.6</ele>
        <time>2019-11-01T09:15:47Z</time>
      </trkpt>
      <trkpt lat="43.93616" lon="6.33706">
        <ele>1388.7</ele>
        <time>2019-11-01T09:15:48Z</time>
      </trkpt>
      <trkpt lat="43.93617" lon="6.33702">
        <ele>1388.9</ele>
        <time>2019-11-01T09:15:50Z</time>
      </trkpt>
      <trkpt lat="43.93618" lon="6.33696">
        <ele>1389.4</ele>
        <time>2019-11-01T09:15:53Z</time>
      </trkpt>
      <trkpt lat="43.93619" lon="6.33691">
        <ele>1389.8</ele>
        <time>2019-11-01T09:15:55Z</time>
      </trkpt>
      <trkpt lat="43.9362" lon="6.33684">
        <ele>1390.1</ele>
        <time>2019-11-01T09:15:58Z</time>
      </trkpt>
      <trkpt lat="43.9362" lon="6.3368">
        <ele>1390.3</ele>
        <time>2019-11-01T09:15:59Z</time>
      </trkpt>
      <trkpt lat="43.93621" lon="6.33676">
        <ele>1390.5</ele>
        <time>2019-11-01T09:16:01Z</time>
      </trkpt>
      <trkpt lat="43.93622" lon="6.33671">
        <ele>1390.8</ele>
        <time>2019-11-01T09:16:03Z</time>
      </trkpt>
      <trkpt lat="43.93623" lon="6.33667">
        <ele>1391.1</ele>
        <time>2019-11-01T09:16:05Z</time>
      </trkpt>
      <trkpt lat="43.93624" lon="6.3366">
        <ele>1391.6</ele>
        <time>2019-11-01T09:16:08Z</time>
      </trkpt>
      <trkpt lat="43.93624" lon="6.33655">
        <ele>1391.9</ele>
        <time>2019-11-01T09:16:10Z</time>
      </trkpt>
      <trkpt lat="43.93624" lon="6.33649">
        <ele>1392.2</ele>
        <time>2019-11-01T09:16:13Z</time>
      </trkpt>
      <trkpt lat="43.93622" lon="6.33644">
        <ele>1392.2</ele>
        <time>2019-11-01T09:16:15Z</time>
      </trkpt>
      <trkpt lat="43.93618" lon="6.33639">
        <ele>1393.2</ele>
        <time>2019-11-01T09:16:18Z</time>
      </trkpt>
      <trkpt lat="43.93614" lon="6.33637">
        <ele>1393.6</ele>
        <time>2019-11-01T09:16:20Z</time>
      </trkpt>
      <trkpt lat="43.93609" lon="6.33637">
        <ele>1394.1</ele>
        <time>2019-11-01T09:16:22Z</time>
      </trkpt>
      <trkpt lat="43.93606" lon="6.33637">
        <ele>1394.4</ele>
        <time>2019-11-01T09:16:23Z</time>
      </trkpt>
      <trkpt lat="43.93601" lon="6.33639">
        <ele>1395</ele>
        <time>2019-11-01T09:16:26Z</time>
      </trkpt>
      <trkpt lat="43.93596" lon="6.33639">
        <ele>1395.2</ele>
        <time>2019-11-01T09:16:29Z</time>
      </trkpt>
      <trkpt lat="43.9359" lon="6.33639">
        <ele>1395.5</ele>
        <time>2019-11-01T09:16:31Z</time>
      </trkpt>
      <trkpt lat="43.93585" lon="6.33639">
        <ele>1395.7</ele>
        <time>2019-11-01T09:16:34Z</time>
      </trkpt>
      <trkpt lat="43.9358" lon="6.3364">
        <ele>1395.9</ele>
        <time>2019-11-01T09:16:36Z</time>
      </trkpt>
      <trkpt lat="43.93574" lon="6.3364">
        <ele>1396</ele>
        <time>2019-11-01T09:16:39Z</time>
      </trkpt>
      <trkpt lat="43.93571" lon="6.3364">
        <ele>1396.1</ele>
        <time>2019-11-01T09:16:40Z</time>
      </trkpt>
      <trkpt lat="43.93565" lon="6.3364">
        <ele>1396.3</ele>
        <time>2019-11-01T09:16:42Z</time>
      </trkpt>
      <trkpt lat="43.9356" lon="6.33639">
        <ele>1396.4</ele>
        <time>2019-11-01T09:16:44Z</time>
      </trkpt>
      <trkpt lat="43.93557" lon="6.33638">
        <ele>1396.5</ele>
        <time>2019-11-01T09:16:45Z</time>
      </trkpt>
      <trkpt lat="43.93553" lon="6.33637">
        <ele>1396.6</ele>
        <time>2019-11-01T09:16:46Z</time>
      </trkpt>
      <trkpt lat="43.93548" lon="6.33636">
        <ele>1396.9</ele>
        <time>2019-11-01T09:16:49Z</time>
      </trkpt>
      <trkpt lat="43.93544" lon="6.33635">
        <ele>1397.2</ele>
        <time>2019-11-01T09:16:50Z</time>
      </trkpt>
      <trkpt lat="43.93541" lon="6.33635">
        <ele>1397.4</ele>
        <time>2019-11-01T09:16:52Z</time>
      </trkpt>
      <trkpt lat="43.93538" lon="6.33634">
        <ele>1397.6</ele>
        <time>2019-11-01T09:16:53Z</time>
      </trkpt>
      <trkpt lat="43.93534" lon="6.33632">
        <ele>1397.7</ele>
        <time>2019-11-01T09:16:54Z</time>
      </trkpt>
      <trkpt lat="43.93531" lon="6.33631">
        <ele>1397.8</ele>
        <time>2019-11-01T09:16:55Z</time>
      </trkpt>
      <trkpt lat="43.93528" lon="6.3363">
        <ele>1398</ele>
        <time>2019-11-01T09:16:56Z</time>
      </trkpt>
      <trkpt lat="43.93524" lon="6.33628">
        <ele>1398.3</ele>
        <time>2019-11-01T09:16:58Z</time>
      </trkpt>
      <trkpt lat="43.93521" lon="6.33627">
        <ele>1398.5</ele>
        <time>2019-11-01T09:16:59Z</time>
      </trkpt>
      <trkpt lat="43.93518" lon="6.33626">
        <ele>1398.5</ele>
        <time>2019-11-01T09:17:00Z</time>
      </trkpt>
      <trkpt lat="43.93515" lon="6.33625">
        <ele>1398.5</ele>
        <time>2019-11-01T09:17:01Z</time>
      </trkpt>
      <trkpt lat="43.93512" lon="6.33623">
        <ele>1398.7</ele>
        <time>2019-11-01T09:17:02Z</time>
      </trkpt>
      <trkpt lat="43.93507" lon="6.33621">
        <ele>1398.9</ele>
        <time>2019-11-01T09:17:04Z</time>
      </trkpt>
      <trkpt lat="43.93504" lon="6.33619">
        <ele>1399.1</ele>
        <time>2019-11-01T09:17:05Z</time>
      </trkpt>
      <trkpt lat="43.93499" lon="6.33614">
        <ele>1399.3</ele>
        <time>2019-11-01T09:17:07Z</time>
      </trkpt>
      <trkpt lat="43.93496" lon="6.33612">
        <ele>1399.5</ele>
        <time>2019-11-01T09:17:08Z</time>
      </trkpt>
      <trkpt lat="43.93494" lon="6.33609">
        <ele>1399.7</ele>
        <time>2019-11-01T09:17:10Z</time>
      </trkpt>
      <trkpt lat="43.9349" lon="6.33605">
        <ele>1399.9</ele>
        <time>2019-11-01T09:17:11Z</time>
      </trkpt>
      <trkpt lat="43.93487" lon="6.33604">
        <ele>1400.1</ele>
        <time>2019-11-01T09:17:12Z</time>
      </trkpt>
      <trkpt lat="43.93484" lon="6.33602">
        <ele>1400.3</ele>
        <time>2019-11-01T09:17:14Z</time>
      </trkpt>
      <trkpt lat="43.93482" lon="6.33599">
        <ele>1400.4</ele>
        <time>2019-11-01T09:17:15Z</time>
      </trkpt>
      <trkpt lat="43.9348" lon="6.33597">
        <ele>1400.6</ele>
        <time>2019-11-01T09:17:16Z</time>
      </trkpt>
      <trkpt lat="43.93476" lon="6.33593">
        <ele>1400.9</ele>
        <time>2019-11-01T09:17:18Z</time>
      </trkpt>
      <trkpt lat="43.93471" lon="6.3359">
        <ele>1401.3</ele>
        <time>2019-11-01T09:17:19Z</time>
      </trkpt>
      <trkpt lat="43.93469" lon="6.33587">
        <ele>1401.6</ele>
        <time>2019-11-01T09:17:21Z</time>
      </trkpt>
      <trkpt lat="43.93465" lon="6.33584">
        <ele>1402</ele>
        <time>2019-11-01T09:17:22Z</time>
      </trkpt>
      <trkpt lat="43.93463" lon="6.33582">
        <ele>1402.3</ele>
        <time>2019-11-01T09:17:23Z</time>
      </trkpt>
      <trkpt lat="43.9346" lon="6.3358">
        <ele>1402.5</ele>
        <time>2019-11-01T09:17:24Z</time>
      </trkpt>
      <trkpt lat="43.93458" lon="6.33578">
        <ele>1402.6</ele>
        <time>2019-11-01T09:17:25Z</time>
      </trkpt>
      <trkpt lat="43.93455" lon="6.33575">
        <ele>1402.7</ele>
        <time>2019-11-01T09:17:27Z</time>
      </trkpt>
      <trkpt lat="43.93453" lon="6.33573">
        <ele>1402.9</ele>
        <time>2019-11-01T09:17:28Z</time>
      </trkpt>
      <trkpt lat="43.93447" lon="6.33567">
        <ele>1403.2</ele>
        <time>2019-11-01T09:17:31Z</time>
      </trkpt>
      <trkpt lat="43.93444" lon="6.33564">
        <ele>1403.3</ele>
        <time>2019-11-01T09:17:32Z</time>
      </trkpt>
      <trkpt lat="43.9344" lon="6.33561">
        <ele>1403.3</ele>
        <time>2019-11-01T09:17:33Z</time>
      </trkpt>
      <trkpt lat="43.93434" lon="6.33558">
        <ele>1403.4</ele>
        <time>2019-11-01T09:17:36Z</time>
      </trkpt>
      <trkpt lat="43.93431" lon="6.33557">
        <ele>1403.6</ele>
        <time>2019-11-01T09:17:37Z</time>
      </trkpt>
      <trkpt lat="43.93426" lon="6.33558">
        <ele>1403.9</ele>
        <time>2019-11-01T09:17:39Z</time>
      </trkpt>
      <trkpt lat="43.93422" lon="6.33558">
        <ele>1404.2</ele>
        <time>2019-11-01T09:17:40Z</time>
      </trkpt>
      <trkpt lat="43.93418" lon="6.3356">
        <ele>1404.4</ele>
        <time>2019-11-01T09:17:42Z</time>
      </trkpt>
      <trkpt lat="43.93415" lon="6.33561">
        <ele>1404.6</ele>
        <time>2019-11-01T09:17:43Z</time>
      </trkpt>
      <trkpt lat="43.9341" lon="6.33565">
        <ele>1405.3</ele>
        <time>2019-11-01T09:17:44Z</time>
      </trkpt>
      <trkpt lat="43.93408" lon="6.33568">
        <ele>1405.6</ele>
        <time>2019-11-01T09:17:46Z</time>
      </trkpt>
      <trkpt lat="43.93404" lon="6.33571">
        <ele>1405.9</ele>
        <time>2019-11-01T09:17:47Z</time>
      </trkpt>
      <trkpt lat="43.934" lon="6.33573">
        <ele>1406.5</ele>
        <time>2019-11-01T09:17:49Z</time>
      </trkpt>
      <trkpt lat="43.93394" lon="6.33573">
        <ele>1407.1</ele>
        <time>2019-11-01T09:17:52Z</time>
      </trkpt>
      <trkpt lat="43.93389" lon="6.3357">
        <ele>1407.5</ele>
        <time>2019-11-01T09:17:55Z</time>
      </trkpt>
      <trkpt lat="43.93385" lon="6.33566">
        <ele>1407.6</ele>
        <time>2019-11-01T09:17:57Z</time>
      </trkpt>
      <trkpt lat="43.93383" lon="6.33563">
        <ele>1407.6</ele>
        <time>2019-11-01T09:17:59Z</time>
      </trkpt>
      <trkpt lat="43.93378" lon="6.33558">
        <ele>1407.4</ele>
        <time>2019-11-01T09:18:02Z</time>
      </trkpt>
      <trkpt lat="43.93374" lon="6.33555">
        <ele>1407.7</ele>
        <time>2019-11-01T09:18:04Z</time>
      </trkpt>
      <trkpt lat="43.9337" lon="6.33553">
        <ele>1408.2</ele>
        <time>2019-11-01T09:18:06Z</time>
      </trkpt>
      <trkpt lat="43.93366" lon="6.33549">
        <ele>1408.7</ele>
        <time>2019-11-01T09:18:09Z</time>
      </trkpt>
      <trkpt lat="43.93363" lon="6.33547">
        <ele>1409</ele>
        <time>2019-11-01T09:18:10Z</time>
      </trkpt>
      <trkpt lat="43.93361" lon="6.33545">
        <ele>1409.2</ele>
        <time>2019-11-01T09:18:12Z</time>
      </trkpt>
      <trkpt lat="43.93358" lon="6.3354">
        <ele>1409.6</ele>
        <time>2019-11-01T09:18:14Z</time>
      </trkpt>
      <trkpt lat="43.93354" lon="6.33536">
        <ele>1409.9</ele>
        <time>2019-11-01T09:18:17Z</time>
      </trkpt>
      <trkpt lat="43.93349" lon="6.33533">
        <ele>1410.3</ele>
        <time>2019-11-01T09:18:19Z</time>
      </trkpt>
      <trkpt lat="43.93346" lon="6.33531">
        <ele>1410.5</ele>
        <time>2019-11-01T09:18:21Z</time>
      </trkpt>
      <trkpt lat="43.93344" lon="6.33529">
        <ele>1410.7</ele>
        <time>2019-11-01T09:18:22Z</time>
      </trkpt>
      <trkpt lat="43.9334" lon="6.33527">
        <ele>1410.8</ele>
        <time>2019-11-01T09:18:25Z</time>
      </trkpt>
      <trkpt lat="43.93334" lon="6.33524">
        <ele>1411.1</ele>
        <time>2019-11-01T09:18:27Z</time>
      </trkpt>
      <trkpt lat="43.93332" lon="6.33523">
        <ele>1411.3</ele>
        <time>2019-11-01T09:18:29Z</time>
      </trkpt>
      <trkpt lat="43.93329" lon="6.3352">
        <ele>1411.6</ele>
        <time>2019-11-01T09:18:30Z</time>
      </trkpt>
      <trkpt lat="43.93326" lon="6.33516">
        <ele>1411.5</ele>
        <time>2019-11-01T09:18:33Z</time>
      </trkpt>
      <trkpt lat="43.93324" lon="6.33512">
        <ele>1411.5</ele>
        <time>2019-11-01T09:18:34Z</time>
      </trkpt>
      <trkpt lat="43.93322" lon="6.33509">
        <ele>1411.6</ele>
        <time>2019-11-01T09:18:36Z</time>
      </trkpt>
      <trkpt lat="43.9332" lon="6.33504">
        <ele>1411.8</ele>
        <time>2019-11-01T09:18:38Z</time>
      </trkpt>
      <trkpt lat="43.93318" lon="6.33499">
        <ele>1411.8</ele>
        <time>2019-11-01T09:18:40Z</time>
      </trkpt>
      <trkpt lat="43.93317" lon="6.33494">
        <ele>1411.8</ele>
        <time>2019-11-01T09:18:41Z</time>
      </trkpt>
      <trkpt lat="43.93315" lon="6.33489">
        <ele>1411.9</ele>
        <time>2019-11-01T09:18:44Z</time>
      </trkpt>
      <trkpt lat="43.93312" lon="6.33485">
        <ele>1412.3</ele>
        <time>2019-11-01T09:18:47Z</time>
      </trkpt>
      <trkpt lat="43.93308" lon="6.3348">
        <ele>1412.7</ele>
        <time>2019-11-01T09:18:50Z</time>
      </trkpt>
      <trkpt lat="43.93303" lon="6.33476">
        <ele>1413.2</ele>
        <time>2019-11-01T09:18:56Z</time>
      </trkpt>
      <trkpt lat="43.933" lon="6.33473">
        <ele>1414</ele>
        <time>2019-11-01T09:18:59Z</time>
      </trkpt>
      <trkpt lat="43.93295" lon="6.33474">
        <ele>1415</ele>
        <time>2019-11-01T09:20:17Z</time>
      </trkpt>
      <trkpt lat="43.9329" lon="6.33472">
        <ele>1415.7</ele>
        <time>2019-11-01T09:20:19Z</time>
      </trkpt>
      <trkpt lat="43.93287" lon="6.33468">
        <ele>1416.3</ele>
        <time>2019-11-01T09:20:22Z</time>
      </trkpt>
      <trkpt lat="43.9328" lon="6.33462">
        <ele>1417.5</ele>
        <time>2019-11-01T09:20:25Z</time>
      </trkpt>
      <trkpt lat="43.93274" lon="6.33459">
        <ele>1418.5</ele>
        <time>2019-11-01T09:20:28Z</time>
      </trkpt>
      <trkpt lat="43.93272" lon="6.33458">
        <ele>1418.9</ele>
        <time>2019-11-01T09:20:29Z</time>
      </trkpt>
      <trkpt lat="43.93268" lon="6.33455">
        <ele>1419.6</ele>
        <time>2019-11-01T09:20:31Z</time>
      </trkpt>
      <trkpt lat="43.93265" lon="6.33454">
        <ele>1420.2</ele>
        <time>2019-11-01T09:20:32Z</time>
      </trkpt>
      <trkpt lat="43.93263" lon="6.33452">
        <ele>1420.7</ele>
        <time>2019-11-01T09:20:33Z</time>
      </trkpt>
      <trkpt lat="43.93259" lon="6.33449">
        <ele>1421.1</ele>
        <time>2019-11-01T09:20:34Z</time>
      </trkpt>
      <trkpt lat="43.93257" lon="6.33447">
        <ele>1421.4</ele>
        <time>2019-11-01T09:20:36Z</time>
      </trkpt>
      <trkpt lat="43.93253" lon="6.33443">
        <ele>1422.1</ele>
        <time>2019-11-01T09:20:37Z</time>
      </trkpt>
      <trkpt lat="43.9325" lon="6.33439">
        <ele>1422.9</ele>
        <time>2019-11-01T09:20:39Z</time>
      </trkpt>
      <trkpt lat="43.93248" lon="6.33436">
        <ele>1423.5</ele>
        <time>2019-11-01T09:20:40Z</time>
      </trkpt>
      <trkpt lat="43.93244" lon="6.33432">
        <ele>1424.5</ele>
        <time>2019-11-01T09:20:42Z</time>
      </trkpt>
      <trkpt lat="43.93241" lon="6.33427">
        <ele>1425.5</ele>
        <time>2019-11-01T09:20:45Z</time>
      </trkpt>
      <trkpt lat="43.93237" lon="6.33424">
        <ele>1426.1</ele>
        <time>2019-11-01T09:20:47Z</time>
      </trkpt>
      <trkpt lat="43.93231" lon="6.33417">
        <ele>1427.6</ele>
        <time>2019-11-01T09:20:50Z</time>
      </trkpt>
      <trkpt lat="43.93228" lon="6.33414">
        <ele>1428.7</ele>
        <time>2019-11-01T09:20:52Z</time>
      </trkpt>
      <trkpt lat="43.93225" lon="6.33411">
        <ele>1429.4</ele>
        <time>2019-11-01T09:20:54Z</time>
      </trkpt>
      <trkpt lat="43.93222" lon="6.33405">
        <ele>1430.6</ele>
        <time>2019-11-01T09:20:56Z</time>
      </trkpt>
      <trkpt lat="43.93221" lon="6.33399">
        <ele>1431.3</ele>
        <time>2019-11-01T09:20:59Z</time>
      </trkpt>
      <trkpt lat="43.93219" lon="6.33394">
        <ele>1431.9</ele>
        <time>2019-11-01T09:21:01Z</time>
      </trkpt>
      <trkpt lat="43.93218" lon="6.33388">
        <ele>1432.5</ele>
        <time>2019-11-01T09:21:04Z</time>
      </trkpt>
      <trkpt lat="43.93218" lon="6.3338">
        <ele>1433.4</ele>
        <time>2019-11-01T09:21:06Z</time>
      </trkpt>
      <trkpt lat="43.93217" lon="6.33375">
        <ele>1434</ele>
        <time>2019-11-01T09:21:08Z</time>
      </trkpt>
      <trkpt lat="43.93215" lon="6.33371">
        <ele>1434.3</ele>
        <time>2019-11-01T09:21:10Z</time>
      </trkpt>
      <trkpt lat="43.93214" lon="6.33366">
        <ele>1434.4</ele>
        <time>2019-11-01T09:21:11Z</time>
      </trkpt>
      <trkpt lat="43.93212" lon="6.33362">
        <ele>1434.6</ele>
        <time>2019-11-01T09:21:13Z</time>
      </trkpt>
      <trkpt lat="43.9321" lon="6.33357">
        <ele>1435.4</ele>
        <time>2019-11-01T09:21:15Z</time>
      </trkpt>
      <trkpt lat="43.93208" lon="6.33351">
        <ele>1436.5</ele>
        <time>2019-11-01T09:21:18Z</time>
      </trkpt>
      <trkpt lat="43.93207" lon="6.33343">
        <ele>1438</ele>
        <time>2019-11-01T09:21:21Z</time>
      </trkpt>
      <trkpt lat="43.93206" lon="6.33339">
        <ele>1438.4</ele>
        <time>2019-11-01T09:21:22Z</time>
      </trkpt>
      <trkpt lat="43.93206" lon="6.33334">
        <ele>1438.7</ele>
        <time>2019-11-01T09:21:24Z</time>
      </trkpt>
      <trkpt lat="43.93206" lon="6.33329">
        <ele>1439.1</ele>
        <time>2019-11-01T09:21:25Z</time>
      </trkpt>
      <trkpt lat="43.93206" lon="6.33323">
        <ele>1439.8</ele>
        <time>2019-11-01T09:21:28Z</time>
      </trkpt>
      <trkpt lat="43.93206" lon="6.33319">
        <ele>1440.5</ele>
        <time>2019-11-01T09:21:30Z</time>
      </trkpt>
      <trkpt lat="43.93205" lon="6.33312">
        <ele>1442</ele>
        <time>2019-11-01T09:21:33Z</time>
      </trkpt>
      <trkpt lat="43.93205" lon="6.33307">
        <ele>1442.9</ele>
        <time>2019-11-01T09:21:35Z</time>
      </trkpt>
      <trkpt lat="43.93205" lon="6.33303">
        <ele>1443.5</ele>
        <time>2019-11-01T09:21:36Z</time>
      </trkpt>
      <trkpt lat="43.93204" lon="6.33299">
        <ele>1444</ele>
        <time>2019-11-01T09:21:38Z</time>
      </trkpt>
      <trkpt lat="43.93202" lon="6.33294">
        <ele>1444.5</ele>
        <time>2019-11-01T09:21:40Z</time>
      </trkpt>
      <trkpt lat="43.93201" lon="6.33287">
        <ele>1445.4</ele>
        <time>2019-11-01T09:21:42Z</time>
      </trkpt>
      <trkpt lat="43.932" lon="6.3328">
        <ele>1447.2</ele>
        <time>2019-11-01T09:21:45Z</time>
      </trkpt>
      <trkpt lat="43.93199" lon="6.33275">
        <ele>1448.5</ele>
        <time>2019-11-01T09:21:47Z</time>
      </trkpt>
      <trkpt lat="43.93197" lon="6.33271">
        <ele>1449.6</ele>
        <time>2019-11-01T09:21:49Z</time>
      </trkpt>
      <trkpt lat="43.93196" lon="6.33265">
        <ele>1450.7</ele>
        <time>2019-11-01T09:21:52Z</time>
      </trkpt>
      <trkpt lat="43.93194" lon="6.3326">
        <ele>1451.9</ele>
        <time>2019-11-01T09:21:55Z</time>
      </trkpt>
      <trkpt lat="43.93192" lon="6.33254">
        <ele>1453.1</ele>
        <time>2019-11-01T09:21:57Z</time>
      </trkpt>
      <trkpt lat="43.9319" lon="6.33251">
        <ele>1453.9</ele>
        <time>2019-11-01T09:21:59Z</time>
      </trkpt>
      <trkpt lat="43.93187" lon="6.33245">
        <ele>1455</ele>
        <time>2019-11-01T09:22:03Z</time>
      </trkpt>
      <trkpt lat="43.93186" lon="6.33239">
        <ele>1456</ele>
        <time>2019-11-01T09:22:05Z</time>
      </trkpt>
      <trkpt lat="43.93184" lon="6.33232">
        <ele>1457.1</ele>
        <time>2019-11-01T09:22:08Z</time>
      </trkpt>
      <trkpt lat="43.93182" lon="6.33227">
        <ele>1457.7</ele>
        <time>2019-11-01T09:22:10Z</time>
      </trkpt>
      <trkpt lat="43.93181" lon="6.33224">
        <ele>1458.2</ele>
        <time>2019-11-01T09:22:11Z</time>
      </trkpt>
      <trkpt lat="43.9318" lon="6.33218">
        <ele>1459</ele>
        <time>2019-11-01T09:22:14Z</time>
      </trkpt>
      <trkpt lat="43.93178" lon="6.33212">
        <ele>1459.7</ele>
        <time>2019-11-01T09:22:16Z</time>
      </trkpt>
      <trkpt lat="43.93176" lon="6.33205">
        <ele>1460.6</ele>
        <time>2019-11-01T09:22:19Z</time>
      </trkpt>
      <trkpt lat="43.93175" lon="6.33201">
        <ele>1461.3</ele>
        <time>2019-11-01T09:22:21Z</time>
      </trkpt>
      <trkpt lat="43.93174" lon="6.33197">
        <ele>1461.7</ele>
        <time>2019-11-01T09:22:22Z</time>
      </trkpt>
      <trkpt lat="43.93174" lon="6.33191">
        <ele>1462.5</ele>
        <time>2019-11-01T09:22:24Z</time>
      </trkpt>
      <trkpt lat="43.93173" lon="6.33185">
        <ele>1463.3</ele>
        <time>2019-11-01T09:22:27Z</time>
      </trkpt>
      <trkpt lat="43.93173" lon="6.33182">
        <ele>1463.7</ele>
        <time>2019-11-01T09:22:28Z</time>
      </trkpt>
      <trkpt lat="43.93173" lon="6.33175">
        <ele>1463.7</ele>
        <time>2019-11-01T09:22:31Z</time>
      </trkpt>
      <trkpt lat="43.93173" lon="6.33171">
        <ele>1463.7</ele>
        <time>2019-11-01T09:22:32Z</time>
      </trkpt>
      <trkpt lat="43.93173" lon="6.33166">
        <ele>1463.7</ele>
        <time>2019-11-01T09:22:35Z</time>
      </trkpt>
      <trkpt lat="43.93173" lon="6.3316">
        <ele>1463.7</ele>
        <time>2019-11-01T09:22:38Z</time>
      </trkpt>
      <trkpt lat="43.93174" lon="6.33156">
        <ele>1463.9</ele>
        <time>2019-11-01T09:22:39Z</time>
      </trkpt>
      <trkpt lat="43.93174" lon="6.33149">
        <ele>1464.8</ele>
        <time>2019-11-01T09:22:42Z</time>
      </trkpt>
      <trkpt lat="43.93173" lon="6.33142">
        <ele>1465.1</ele>
        <time>2019-11-01T09:22:45Z</time>
      </trkpt>
      <trkpt lat="43.93173" lon="6.33136">
        <ele>1465</ele>
        <time>2019-11-01T09:22:47Z</time>
      </trkpt>
      <trkpt lat="43.93173" lon="6.33131">
        <ele>1465</ele>
        <time>2019-11-01T09:22:50Z</time>
      </trkpt>
      <trkpt lat="43.93172" lon="6.33125">
        <ele>1464.9</ele>
        <time>2019-11-01T09:22:52Z</time>
      </trkpt>
      <trkpt lat="43.93172" lon="6.33119">
        <ele>1464.9</ele>
        <time>2019-11-01T09:22:54Z</time>
      </trkpt>
      <trkpt lat="43.93172" lon="6.33114">
        <ele>1464.8</ele>
        <time>2019-11-01T09:22:56Z</time>
      </trkpt>
      <trkpt lat="43.93171" lon="6.33108">
        <ele>1464.8</ele>
        <time>2019-11-01T09:22:58Z</time>
      </trkpt>
      <trkpt lat="43.93171" lon="6.33103">
        <ele>1464.9</ele>
        <time>2019-11-01T09:23:00Z</time>
      </trkpt>
      <trkpt lat="43.93172" lon="6.33098">
        <ele>1464.9</ele>
        <time>2019-11-01T09:23:02Z</time>
      </trkpt>
      <trkpt lat="43.93172" lon="6.33091">
        <ele>1465</ele>
        <time>2019-11-01T09:23:05Z</time>
      </trkpt>
      <trkpt lat="43.93172" lon="6.33084">
        <ele>1465</ele>
        <time>2019-11-01T09:23:08Z</time>
      </trkpt>
      <trkpt lat="43.93173" lon="6.33079">
        <ele>1465.2</ele>
        <time>2019-11-01T09:23:10Z</time>
      </trkpt>
      <trkpt lat="43.93173" lon="6.33073">
        <ele>1465.3</ele>
        <time>2019-11-01T09:23:12Z</time>
      </trkpt>
      <trkpt lat="43.93174" lon="6.33066">
        <ele>1465.5</ele>
        <time>2019-11-01T09:23:15Z</time>
      </trkpt>
      <trkpt lat="43.93174" lon="6.33063">
        <ele>1465.6</ele>
        <time>2019-11-01T09:23:17Z</time>
      </trkpt>
      <trkpt lat="43.93173" lon="6.33055">
        <ele>1465.9</ele>
        <time>2019-11-01T09:23:20Z</time>
      </trkpt>
      <trkpt lat="43.93173" lon="6.33051">
        <ele>1466.1</ele>
        <time>2019-11-01T09:23:22Z</time>
      </trkpt>
      <trkpt lat="43.93172" lon="6.33044">
        <ele>1466.5</ele>
        <time>2019-11-01T09:23:24Z</time>
      </trkpt>
      <trkpt lat="43.93172" lon="6.33037">
        <ele>1466.9</ele>
        <time>2019-11-01T09:23:27Z</time>
      </trkpt>
      <trkpt lat="43.93172" lon="6.33031">
        <ele>1467.3</ele>
        <time>2019-11-01T09:23:29Z</time>
      </trkpt>
      <trkpt lat="43.93172" lon="6.33024">
        <ele>1467.8</ele>
        <time>2019-11-01T09:23:32Z</time>
      </trkpt>
      <trkpt lat="43.93171" lon="6.33018">
        <ele>1468.2</ele>
        <time>2019-11-01T09:23:35Z</time>
      </trkpt>
      <trkpt lat="43.93171" lon="6.33013">
        <ele>1468.5</ele>
        <time>2019-11-01T09:23:37Z</time>
      </trkpt>
      <trkpt lat="43.93171" lon="6.33006">
        <ele>1468.9</ele>
        <time>2019-11-01T09:23:39Z</time>
      </trkpt>
      <trkpt lat="43.9317" lon="6.33003">
        <ele>1469.2</ele>
        <time>2019-11-01T09:23:40Z</time>
      </trkpt>
      <trkpt lat="43.9317" lon="6.32998">
        <ele>1469.5</ele>
        <time>2019-11-01T09:23:42Z</time>
      </trkpt>
      <trkpt lat="43.93172" lon="6.32991">
        <ele>1471</ele>
        <time>2019-11-01T09:23:45Z</time>
      </trkpt>
      <trkpt lat="43.93173" lon="6.32985">
        <ele>1472.4</ele>
        <time>2019-11-01T09:23:47Z</time>
      </trkpt>
      <trkpt lat="43.93174" lon="6.32978">
        <ele>1473</ele>
        <time>2019-11-01T09:23:50Z</time>
      </trkpt>
      <trkpt lat="43.93174" lon="6.32972">
        <ele>1473.4</ele>
        <time>2019-11-01T09:23:53Z</time>
      </trkpt>
      <trkpt lat="43.93175" lon="6.32968">
        <ele>1473.6</ele>
        <time>2019-11-01T09:23:54Z</time>
      </trkpt>
      <trkpt lat="43.93174" lon="6.32963">
        <ele>1473.9</ele>
        <time>2019-11-01T09:23:56Z</time>
      </trkpt>
      <trkpt lat="43.93174" lon="6.32956">
        <ele>1474.3</ele>
        <time>2019-11-01T09:23:59Z</time>
      </trkpt>
      <trkpt lat="43.93174" lon="6.32951">
        <ele>1474.5</ele>
        <time>2019-11-01T09:24:00Z</time>
      </trkpt>
      <trkpt lat="43.93174" lon="6.32946">
        <ele>1474.7</ele>
        <time>2019-11-01T09:24:02Z</time>
      </trkpt>
      <trkpt lat="43.93173" lon="6.3294">
        <ele>1474.9</ele>
        <time>2019-11-01T09:24:04Z</time>
      </trkpt>
      <trkpt lat="43.93172" lon="6.32935">
        <ele>1475</ele>
        <time>2019-11-01T09:24:05Z</time>
      </trkpt>
      <trkpt lat="43.93172" lon="6.32928">
        <ele>1475.2</ele>
        <time>2019-11-01T09:24:09Z</time>
      </trkpt>
      <trkpt lat="43.93173" lon="6.32923">
        <ele>1475.3</ele>
        <time>2019-11-01T09:24:10Z</time>
      </trkpt>
      <trkpt lat="43.93171" lon="6.32917">
        <ele>1475.3</ele>
        <time>2019-11-01T09:24:13Z</time>
      </trkpt>
      <trkpt lat="43.93172" lon="6.32911">
        <ele>1475.3</ele>
        <time>2019-11-01T09:24:15Z</time>
      </trkpt>
      <trkpt lat="43.93173" lon="6.32908">
        <ele>1475.3</ele>
        <time>2019-11-01T09:24:17Z</time>
      </trkpt>
      <trkpt lat="43.93173" lon="6.32903">
        <ele>1475.1</ele>
        <time>2019-11-01T09:24:19Z</time>
      </trkpt>
      <trkpt lat="43.93173" lon="6.32898">
        <ele>1475</ele>
        <time>2019-11-01T09:24:20Z</time>
      </trkpt>
      <trkpt lat="43.93173" lon="6.32892">
        <ele>1474.7</ele>
        <time>2019-11-01T09:24:23Z</time>
      </trkpt>
      <trkpt lat="43.93173" lon="6.32886">
        <ele>1474.4</ele>
        <time>2019-11-01T09:24:25Z</time>
      </trkpt>
      <trkpt lat="43.93173" lon="6.32882">
        <ele>1474.1</ele>
        <time>2019-11-01T09:24:27Z</time>
      </trkpt>
      <trkpt lat="43.93173" lon="6.32877">
        <ele>1473.7</ele>
        <time>2019-11-01T09:24:28Z</time>
      </trkpt>
      <trkpt lat="43.93172" lon="6.32873">
        <ele>1473.4</ele>
        <time>2019-11-01T09:24:30Z</time>
      </trkpt>
      <trkpt lat="43.93171" lon="6.32866">
        <ele>1472.8</ele>
        <time>2019-11-01T09:24:32Z</time>
      </trkpt>
      <trkpt lat="43.9317" lon="6.32857">
        <ele>1472.2</ele>
        <time>2019-11-01T09:24:35Z</time>
      </trkpt>
      <trkpt lat="43.9317" lon="6.32849">
        <ele>1471.7</ele>
        <time>2019-11-01T09:24:38Z</time>
      </trkpt>
      <trkpt lat="43.93169" lon="6.32841">
        <ele>1471</ele>
        <time>2019-11-01T09:24:40Z</time>
      </trkpt>
      <trkpt lat="43.93169" lon="6.32835">
        <ele>1470.4</ele>
        <time>2019-11-01T09:24:42Z</time>
      </trkpt>
      <trkpt lat="43.93169" lon="6.32831">
        <ele>1469.9</ele>
        <time>2019-11-01T09:24:43Z</time>
      </trkpt>
      <trkpt lat="43.9317" lon="6.32824">
        <ele>1469.3</ele>
        <time>2019-11-01T09:24:45Z</time>
      </trkpt>
      <trkpt lat="43.93171" lon="6.32816">
        <ele>1468.5</ele>
        <time>2019-11-01T09:24:48Z</time>
      </trkpt>
      <trkpt lat="43.9317" lon="6.3281">
        <ele>1467.8</ele>
        <time>2019-11-01T09:24:50Z</time>
      </trkpt>
      <trkpt lat="43.9317" lon="6.32805">
        <ele>1467.3</ele>
        <time>2019-11-01T09:24:52Z</time>
      </trkpt>
      <trkpt lat="43.9317" lon="6.32798">
        <ele>1466.4</ele>
        <time>2019-11-01T09:24:54Z</time>
      </trkpt>
      <trkpt lat="43.93169" lon="6.32794">
        <ele>1465.8</ele>
        <time>2019-11-01T09:24:56Z</time>
      </trkpt>
      <trkpt lat="43.93168" lon="6.32786">
        <ele>1464.6</ele>
        <time>2019-11-01T09:24:58Z</time>
      </trkpt>
      <trkpt lat="43.93167" lon="6.32776">
        <ele>1462.8</ele>
        <time>2019-11-01T09:25:01Z</time>
      </trkpt>
      <trkpt lat="43.93167" lon="6.32772">
        <ele>1462.2</ele>
        <time>2019-11-01T09:25:02Z</time>
      </trkpt>
      <trkpt lat="43.93167" lon="6.32765">
        <ele>1461.5</ele>
        <time>2019-11-01T09:25:04Z</time>
      </trkpt>
      <trkpt lat="43.93168" lon="6.32761">
        <ele>1461.1</ele>
        <time>2019-11-01T09:25:05Z</time>
      </trkpt>
      <trkpt lat="43.93169" lon="6.32756">
        <ele>1460.5</ele>
        <time>2019-11-01T09:25:06Z</time>
      </trkpt>
      <trkpt lat="43.93169" lon="6.32752">
        <ele>1459.9</ele>
        <time>2019-11-01T09:25:07Z</time>
      </trkpt>
      <trkpt lat="43.93169" lon="6.32745">
        <ele>1459</ele>
        <time>2019-11-01T09:25:10Z</time>
      </trkpt>
      <trkpt lat="43.93169" lon="6.32737">
        <ele>1457.8</ele>
        <time>2019-11-01T09:25:14Z</time>
      </trkpt>
      <trkpt lat="43.9317" lon="6.32733">
        <ele>1457.2</ele>
        <time>2019-11-01T09:25:34Z</time>
      </trkpt>
      <trkpt lat="43.93172" lon="6.32736">
        <ele>1456.6</ele>
        <time>2019-11-01T09:25:57Z</time>
      </trkpt>
      <trkpt lat="43.93173" lon="6.3274">
        <ele>1456</ele>
        <time>2019-11-01T09:26:14Z</time>
      </trkpt>
      <trkpt lat="43.9317" lon="6.32737">
        <ele>1455.4</ele>
        <time>2019-11-01T09:29:20Z</time>
      </trkpt>
      <trkpt lat="43.93168" lon="6.32742">
        <ele>1454.4</ele>
        <time>2019-11-01T09:29:30Z</time>
      </trkpt>
      <trkpt lat="43.93164" lon="6.32745">
        <ele>1453.9</ele>
        <time>2019-11-01T09:29:33Z</time>
      </trkpt>
      <trkpt lat="43.9316" lon="6.32743">
        <ele>1454.4</ele>
        <time>2019-11-01T09:29:35Z</time>
      </trkpt>
      <trkpt lat="43.93157" lon="6.32741">
        <ele>1454.9</ele>
        <time>2019-11-01T09:29:37Z</time>
      </trkpt>
      <trkpt lat="43.93154" lon="6.3274">
        <ele>1455.6</ele>
        <time>2019-11-01T09:29:38Z</time>
      </trkpt>
      <trkpt lat="43.9315" lon="6.32739">
        <ele>1456.6</ele>
        <time>2019-11-01T09:29:40Z</time>
      </trkpt>
      <trkpt lat="43.93142" lon="6.32741">
        <ele>1458.5</ele>
        <time>2019-11-01T09:29:43Z</time>
      </trkpt>
      <trkpt lat="43.93138" lon="6.32742">
        <ele>1459.3</ele>
        <time>2019-11-01T09:29:44Z</time>
      </trkpt>
      <trkpt lat="43.93133" lon="6.32743">
        <ele>1460</ele>
        <time>2019-11-01T09:29:45Z</time>
      </trkpt>
      <trkpt lat="43.93124" lon="6.32743">
        <ele>1460.8</ele>
        <time>2019-11-01T09:29:47Z</time>
      </trkpt>
      <trkpt lat="43.9312" lon="6.32743">
        <ele>1461.2</ele>
        <time>2019-11-01T09:29:48Z</time>
      </trkpt>
      <trkpt lat="43.93114" lon="6.32744">
        <ele>1462.1</ele>
        <time>2019-11-01T09:29:49Z</time>
      </trkpt>
      <trkpt lat="43.93103" lon="6.32745">
        <ele>1463.8</ele>
        <time>2019-11-01T09:29:51Z</time>
      </trkpt>
      <trkpt lat="43.9309" lon="6.32744">
        <ele>1463.2</ele>
        <time>2019-11-01T09:29:53Z</time>
      </trkpt>
      <trkpt lat="43.93076" lon="6.32742">
        <ele>1461.4</ele>
        <time>2019-11-01T09:29:55Z</time>
      </trkpt>
      <trkpt lat="43.93069" lon="6.32741">
        <ele>1460.6</ele>
        <time>2019-11-01T09:29:56Z</time>
      </trkpt>
      <trkpt lat="43.93062" lon="6.3274">
        <ele>1460.1</ele>
        <time>2019-11-01T09:29:57Z</time>
      </trkpt>
      <trkpt lat="43.93046" lon="6.32742">
        <ele>1458.8</ele>
        <time>2019-11-01T09:29:59Z</time>
      </trkpt>
      <trkpt lat="43.93038" lon="6.32744">
        <ele>1458</ele>
        <time>2019-11-01T09:30:00Z</time>
      </trkpt>
      <trkpt lat="43.93029" lon="6.32746">
        <ele>1457.4</ele>
        <time>2019-11-01T09:30:01Z</time>
      </trkpt>
      <trkpt lat="43.93013" lon="6.32752">
        <ele>1457</ele>
        <time>2019-11-01T09:30:03Z</time>
      </trkpt>
      <trkpt lat="43.92995" lon="6.32757">
        <ele>1456.6</ele>
        <time>2019-11-01T09:30:05Z</time>
      </trkpt>
      <trkpt lat="43.92977" lon="6.32761">
        <ele>1456.1</ele>
        <time>2019-11-01T09:30:07Z</time>
      </trkpt>
      <trkpt lat="43.92968" lon="6.32763">
        <ele>1455.3</ele>
        <time>2019-11-01T09:30:08Z</time>
      </trkpt>
      <trkpt lat="43.9295" lon="6.32767">
        <ele>1453.7</ele>
        <time>2019-11-01T09:30:10Z</time>
      </trkpt>
      <trkpt lat="43.92943" lon="6.32768">
        <ele>1453.2</ele>
        <time>2019-11-01T09:30:11Z</time>
      </trkpt>
      <trkpt lat="43.92928" lon="6.32767">
        <ele>1453.4</ele>
        <time>2019-11-01T09:30:13Z</time>
      </trkpt>
      <trkpt lat="43.92917" lon="6.32765">
        <ele>1453.7</ele>
        <time>2019-11-01T09:30:15Z</time>
      </trkpt>
      <trkpt lat="43.92912" lon="6.32764">
        <ele>1454</ele>
        <time>2019-11-01T09:30:16Z</time>
      </trkpt>
      <trkpt lat="43.92908" lon="6.32763">
        <ele>1454.3</ele>
        <time>2019-11-01T09:30:17Z</time>
      </trkpt>
      <trkpt lat="43.92899" lon="6.3276">
        <ele>1454.2</ele>
        <time>2019-11-01T09:30:19Z</time>
      </trkpt>
      <trkpt lat="43.92892" lon="6.32758">
        <ele>1453.9</ele>
        <time>2019-11-01T09:30:21Z</time>
      </trkpt>
      <trkpt lat="43.92889" lon="6.32755">
        <ele>1453.9</ele>
        <time>2019-11-01T09:30:22Z</time>
      </trkpt>
      <trkpt lat="43.92885" lon="6.32748">
        <ele>1453.9</ele>
        <time>2019-11-01T09:30:24Z</time>
      </trkpt>
      <trkpt lat="43.92885" lon="6.32741">
        <ele>1454</ele>
        <time>2019-11-01T09:30:27Z</time>
      </trkpt>
      <trkpt lat="43.92884" lon="6.32736">
        <ele>1454.2</ele>
        <time>2019-11-01T09:30:29Z</time>
      </trkpt>
      <trkpt lat="43.92885" lon="6.32729">
        <ele>1454.3</ele>
        <time>2019-11-01T09:30:33Z</time>
      </trkpt>
      <trkpt lat="43.92886" lon="6.32725">
        <ele>1454.1</ele>
        <time>2019-11-01T09:30:34Z</time>
      </trkpt>
      <trkpt lat="43.92888" lon="6.3272">
        <ele>1453.9</ele>
        <time>2019-11-01T09:30:37Z</time>
      </trkpt>
      <trkpt lat="43.9289" lon="6.32716">
        <ele>1453.8</ele>
        <time>2019-11-01T09:32:02Z</time>
      </trkpt>
      <trkpt lat="43.92892" lon="6.3271">
        <ele>1453.8</ele>
        <time>2019-11-01T09:32:06Z</time>
      </trkpt>
      <trkpt lat="43.92892" lon="6.32706">
        <ele>1453.7</ele>
        <time>2019-11-01T09:32:13Z</time>
      </trkpt>
      <trkpt lat="43.92893" lon="6.32702">
        <ele>1453.7</ele>
        <time>2019-11-01T09:32:15Z</time>
      </trkpt>
      <trkpt lat="43.92895" lon="6.32698">
        <ele>1453.8</ele>
        <time>2019-11-01T09:32:16Z</time>
      </trkpt>
      <trkpt lat="43.92897" lon="6.32694">
        <ele>1453.9</ele>
        <time>2019-11-01T09:32:18Z</time>
      </trkpt>
      <trkpt lat="43.92898" lon="6.32689">
        <ele>1454.1</ele>
        <time>2019-11-01T09:32:19Z</time>
      </trkpt>
      <trkpt lat="43.92899" lon="6.32683">
        <ele>1454.2</ele>
        <time>2019-11-01T09:32:23Z</time>
      </trkpt>
      <trkpt lat="43.92899" lon="6.32679">
        <ele>1454.3</ele>
        <time>2019-11-01T09:32:25Z</time>
      </trkpt>
      <trkpt lat="43.929" lon="6.32674">
        <ele>1454.5</ele>
        <time>2019-11-01T09:32:27Z</time>
      </trkpt>
      <trkpt lat="43.92902" lon="6.32669">
        <ele>1454.8</ele>
        <time>2019-11-01T09:32:30Z</time>
      </trkpt>
      <trkpt lat="43.92904" lon="6.32664">
        <ele>1455.1</ele>
        <time>2019-11-01T09:32:33Z</time>
      </trkpt>
      <trkpt lat="43.92906" lon="6.32659">
        <ele>1455.5</ele>
        <time>2019-11-01T09:32:35Z</time>
      </trkpt>
      <trkpt lat="43.92908" lon="6.32656">
        <ele>1455.8</ele>
        <time>2019-11-01T09:32:37Z</time>
      </trkpt>
      <trkpt lat="43.9291" lon="6.32651">
        <ele>1456</ele>
        <time>2019-11-01T09:32:40Z</time>
      </trkpt>
      <trkpt lat="43.92911" lon="6.32646">
        <ele>1456.1</ele>
        <time>2019-11-01T09:32:42Z</time>
      </trkpt>
      <trkpt lat="43.92914" lon="6.32641">
        <ele>1456.3</ele>
        <time>2019-11-01T09:32:45Z</time>
      </trkpt>
      <trkpt lat="43.92916" lon="6.32637">
        <ele>1456.6</ele>
        <time>2019-11-01T09:32:47Z</time>
      </trkpt>
      <trkpt lat="43.92917" lon="6.32633">
        <ele>1456.8</ele>
        <time>2019-11-01T09:32:49Z</time>
      </trkpt>
      <trkpt lat="43.92918" lon="6.32627">
        <ele>1456.8</ele>
        <time>2019-11-01T09:32:52Z</time>
      </trkpt>
      <trkpt lat="43.92919" lon="6.32621">
        <ele>1456.8</ele>
        <time>2019-11-01T09:32:54Z</time>
      </trkpt>
      <trkpt lat="43.9292" lon="6.32616">
        <ele>1457.1</ele>
        <time>2019-11-01T09:32:57Z</time>
      </trkpt>
      <trkpt lat="43.92922" lon="6.32611">
        <ele>1457.4</ele>
        <time>2019-11-01T09:33:00Z</time>
      </trkpt>
      <trkpt lat="43.92923" lon="6.32606">
        <ele>1458.1</ele>
        <time>2019-11-01T09:33:03Z</time>
      </trkpt>
      <trkpt lat="43.92924" lon="6.32598">
        <ele>1459</ele>
        <time>2019-11-01T09:33:05Z</time>
      </trkpt>
      <trkpt lat="43.92925" lon="6.32592">
        <ele>1459.7</ele>
        <time>2019-11-01T09:33:08Z</time>
      </trkpt>
      <trkpt lat="43.92925" lon="6.32587">
        <ele>1460.4</ele>
        <time>2019-11-01T09:33:10Z</time>
      </trkpt>
      <trkpt lat="43.92924" lon="6.32581">
        <ele>1460.9</ele>
        <time>2019-11-01T09:33:13Z</time>
      </trkpt>
      <trkpt lat="43.92923" lon="6.32576">
        <ele>1461.3</ele>
        <time>2019-11-01T09:33:15Z</time>
      </trkpt>
      <trkpt lat="43.92922" lon="6.32569">
        <ele>1462.2</ele>
        <time>2019-11-01T09:33:18Z</time>
      </trkpt>
      <trkpt lat="43.92922" lon="6.32563">
        <ele>1463.3</ele>
        <time>2019-11-01T09:33:20Z</time>
      </trkpt>
      <trkpt lat="43.92921" lon="6.32558">
        <ele>1464.1</ele>
        <time>2019-11-01T09:33:23Z</time>
      </trkpt>
      <trkpt lat="43.92921" lon="6.32552">
        <ele>1464.6</ele>
        <time>2019-11-01T09:33:25Z</time>
      </trkpt>
      <trkpt lat="43.92921" lon="6.32545">
        <ele>1465</ele>
        <time>2019-11-01T09:33:28Z</time>
      </trkpt>
      <trkpt lat="43.92921" lon="6.32541">
        <ele>1464.9</ele>
        <time>2019-11-01T09:33:30Z</time>
      </trkpt>
      <trkpt lat="43.92921" lon="6.32536">
        <ele>1464.8</ele>
        <time>2019-11-01T09:33:32Z</time>
      </trkpt>
      <trkpt lat="43.92921" lon="6.3253">
        <ele>1465</ele>
        <time>2019-11-01T09:33:34Z</time>
      </trkpt>
      <trkpt lat="43.92922" lon="6.32523">
        <ele>1465.3</ele>
        <time>2019-11-01T09:33:37Z</time>
      </trkpt>
      <trkpt lat="43.92922" lon="6.32519">
        <ele>1465.4</ele>
        <time>2019-11-01T09:33:39Z</time>
      </trkpt>
      <trkpt lat="43.92923" lon="6.32512">
        <ele>1465.5</ele>
        <time>2019-11-01T09:33:42Z</time>
      </trkpt>
      <trkpt lat="43.92924" lon="6.32505">
        <ele>1465.1</ele>
        <time>2019-11-01T09:33:44Z</time>
      </trkpt>
      <trkpt lat="43.92925" lon="6.32501">
        <ele>1464.9</ele>
        <time>2019-11-01T09:33:46Z</time>
      </trkpt>
      <trkpt lat="43.92926" lon="6.32495">
        <ele>1465</ele>
        <time>2019-11-01T09:33:48Z</time>
      </trkpt>
      <trkpt lat="43.92928" lon="6.32487">
        <ele>1464.8</ele>
        <time>2019-11-01T09:33:52Z</time>
      </trkpt>
      <trkpt lat="43.9293" lon="6.32481">
        <ele>1464.5</ele>
        <time>2019-11-01T09:33:54Z</time>
      </trkpt>
      <trkpt lat="43.92931" lon="6.32476">
        <ele>1464.6</ele>
        <time>2019-11-01T09:33:57Z</time>
      </trkpt>
      <trkpt lat="43.92932" lon="6.32468">
        <ele>1465</ele>
        <time>2019-11-01T09:34:00Z</time>
      </trkpt>
      <trkpt lat="43.92933" lon="6.32464">
        <ele>1465.6</ele>
        <time>2019-11-01T09:34:02Z</time>
      </trkpt>
      <trkpt lat="43.92932" lon="6.32458">
        <ele>1467.1</ele>
        <time>2019-11-01T09:34:05Z</time>
      </trkpt>
      <trkpt lat="43.92931" lon="6.32454">
        <ele>1467.8</ele>
        <time>2019-11-01T09:34:07Z</time>
      </trkpt>
      <trkpt lat="43.92928" lon="6.32451">
        <ele>1468.2</ele>
        <time>2019-11-01T09:34:09Z</time>
      </trkpt>
      <trkpt lat="43.92924" lon="6.32451">
        <ele>1468.6</ele>
        <time>2019-11-01T09:34:11Z</time>
      </trkpt>
      <trkpt lat="43.92921" lon="6.32455">
        <ele>1469</ele>
        <time>2019-11-01T09:34:13Z</time>
      </trkpt>
      <trkpt lat="43.9292" lon="6.32462">
        <ele>1469.5</ele>
        <time>2019-11-01T09:34:16Z</time>
      </trkpt>
      <trkpt lat="43.9292" lon="6.32467">
        <ele>1470.4</ele>
        <time>2019-11-01T09:34:18Z</time>
      </trkpt>
      <trkpt lat="43.92918" lon="6.32471">
        <ele>1471.1</ele>
        <time>2019-11-01T09:34:20Z</time>
      </trkpt>
      <trkpt lat="43.92915" lon="6.32477">
        <ele>1471.7</ele>
        <time>2019-11-01T09:34:23Z</time>
      </trkpt>
      <trkpt lat="43.92913" lon="6.32481">
        <ele>1472</ele>
        <time>2019-11-01T09:34:25Z</time>
      </trkpt>
      <trkpt lat="43.92911" lon="6.32485">
        <ele>1472.5</ele>
        <time>2019-11-01T09:34:26Z</time>
      </trkpt>
      <trkpt lat="43.92908" lon="6.32492">
        <ele>1473.5</ele>
        <time>2019-11-01T09:34:29Z</time>
      </trkpt>
      <trkpt lat="43.92904" lon="6.32499">
        <ele>1474</ele>
        <time>2019-11-01T09:34:32Z</time>
      </trkpt>
      <trkpt lat="43.92902" lon="6.32504">
        <ele>1474.3</ele>
        <time>2019-11-01T09:34:34Z</time>
      </trkpt>
      <trkpt lat="43.929" lon="6.32508">
        <ele>1474.5</ele>
        <time>2019-11-01T09:34:35Z</time>
      </trkpt>
      <trkpt lat="43.92898" lon="6.32513">
        <ele>1474.8</ele>
        <time>2019-11-01T09:34:37Z</time>
      </trkpt>
      <trkpt lat="43.92895" lon="6.32519">
        <ele>1475.4</ele>
        <time>2019-11-01T09:34:39Z</time>
      </trkpt>
      <trkpt lat="43.92893" lon="6.32522">
        <ele>1475.8</ele>
        <time>2019-11-01T09:34:40Z</time>
      </trkpt>
      <trkpt lat="43.92891" lon="6.32527">
        <ele>1475.5</ele>
        <time>2019-11-01T09:34:41Z</time>
      </trkpt>
      <trkpt lat="43.92889" lon="6.32534">
        <ele>1474.8</ele>
        <time>2019-11-01T09:34:43Z</time>
      </trkpt>
      <trkpt lat="43.92888" lon="6.32539">
        <ele>1474.7</ele>
        <time>2019-11-01T09:34:45Z</time>
      </trkpt>
      <trkpt lat="43.92888" lon="6.32548">
        <ele>1474.5</ele>
        <time>2019-11-01T09:34:48Z</time>
      </trkpt>
      <trkpt lat="43.92887" lon="6.32553">
        <ele>1474.2</ele>
        <time>2019-11-01T09:34:49Z</time>
      </trkpt>
      <trkpt lat="43.92887" lon="6.32559">
        <ele>1473.9</ele>
        <time>2019-11-01T09:34:51Z</time>
      </trkpt>
      <trkpt lat="43.92888" lon="6.32564">
        <ele>1473.3</ele>
        <time>2019-11-01T09:34:53Z</time>
      </trkpt>
      <trkpt lat="43.92887" lon="6.3257">
        <ele>1472.5</ele>
        <time>2019-11-01T09:34:54Z</time>
      </trkpt>
      <trkpt lat="43.92887" lon="6.32576">
        <ele>1471.9</ele>
        <time>2019-11-01T09:34:55Z</time>
      </trkpt>
      <trkpt lat="43.92886" lon="6.32586">
        <ele>1471</ele>
        <time>2019-11-01T09:34:58Z</time>
      </trkpt>
      <trkpt lat="43.92883" lon="6.32594">
        <ele>1470</ele>
        <time>2019-11-01T09:35:00Z</time>
      </trkpt>
      <trkpt lat="43.92882" lon="6.32599">
        <ele>1469.2</ele>
        <time>2019-11-01T09:35:02Z</time>
      </trkpt>
      <trkpt lat="43.92879" lon="6.32606">
        <ele>1468</ele>
        <time>2019-11-01T09:35:04Z</time>
      </trkpt>
      <trkpt lat="43.92876" lon="6.32611">
        <ele>1467.9</ele>
        <time>2019-11-01T09:35:05Z</time>
      </trkpt>
      <trkpt lat="43.92874" lon="6.32616">
        <ele>1468.7</ele>
        <time>2019-11-01T09:35:07Z</time>
      </trkpt>
      <trkpt lat="43.92872" lon="6.3262">
        <ele>1469.1</ele>
        <time>2019-11-01T09:35:08Z</time>
      </trkpt>
      <trkpt lat="43.9287" lon="6.32623">
        <ele>1469.3</ele>
        <time>2019-11-01T09:35:09Z</time>
      </trkpt>
      <trkpt lat="43.92867" lon="6.32629">
        <ele>1469.5</ele>
        <time>2019-11-01T09:35:11Z</time>
      </trkpt>
      <trkpt lat="43.92865" lon="6.32632">
        <ele>1469.6</ele>
        <time>2019-11-01T09:35:12Z</time>
      </trkpt>
      <trkpt lat="43.92863" lon="6.32635">
        <ele>1469.8</ele>
        <time>2019-11-01T09:35:13Z</time>
      </trkpt>
      <trkpt lat="43.9286" lon="6.32639">
        <ele>1470</ele>
        <time>2019-11-01T09:35:15Z</time>
      </trkpt>
      <trkpt lat="43.92857" lon="6.32642">
        <ele>1470.2</ele>
        <time>2019-11-01T09:35:16Z</time>
      </trkpt>
      <trkpt lat="43.92855" lon="6.32645">
        <ele>1470.3</ele>
        <time>2019-11-01T09:35:17Z</time>
      </trkpt>
      <trkpt lat="43.92853" lon="6.32648">
        <ele>1471</ele>
        <time>2019-11-01T09:35:18Z</time>
      </trkpt>
      <trkpt lat="43.9285" lon="6.32651">
        <ele>1471.8</ele>
        <time>2019-11-01T09:35:20Z</time>
      </trkpt>
      <trkpt lat="43.92847" lon="6.32655">
        <ele>1473</ele>
        <time>2019-11-01T09:35:21Z</time>
      </trkpt>
      <trkpt lat="43.92842" lon="6.32661">
        <ele>1474.2</ele>
        <time>2019-11-01T09:35:24Z</time>
      </trkpt>
      <trkpt lat="43.92838" lon="6.32666">
        <ele>1475.3</ele>
        <time>2019-11-01T09:35:25Z</time>
      </trkpt>
      <trkpt lat="43.92834" lon="6.3267">
        <ele>1476.3</ele>
        <time>2019-11-01T09:35:27Z</time>
      </trkpt>
      <trkpt lat="43.92832" lon="6.32672">
        <ele>1476.9</ele>
        <time>2019-11-01T09:35:28Z</time>
      </trkpt>
      <trkpt lat="43.9283" lon="6.32675">
        <ele>1477.5</ele>
        <time>2019-11-01T09:35:29Z</time>
      </trkpt>
      <trkpt lat="43.92825" lon="6.32681">
        <ele>1479.3</ele>
        <time>2019-11-01T09:35:31Z</time>
      </trkpt>
      <trkpt lat="43.92823" lon="6.32684">
        <ele>1480.4</ele>
        <time>2019-11-01T09:35:32Z</time>
      </trkpt>
      <trkpt lat="43.92821" lon="6.32686">
        <ele>1481.6</ele>
        <time>2019-11-01T09:35:33Z</time>
      </trkpt>
      <trkpt lat="43.92817" lon="6.32691">
        <ele>1483</ele>
        <time>2019-11-01T09:35:35Z</time>
      </trkpt>
      <trkpt lat="43.92815" lon="6.32694">
        <ele>1483.8</ele>
        <time>2019-11-01T09:35:36Z</time>
      </trkpt>
      <trkpt lat="43.92812" lon="6.32699">
        <ele>1484.9</ele>
        <time>2019-11-01T09:35:37Z</time>
      </trkpt>
      <trkpt lat="43.92808" lon="6.32705">
        <ele>1486.2</ele>
        <time>2019-11-01T09:35:40Z</time>
      </trkpt>
      <trkpt lat="43.92804" lon="6.3271">
        <ele>1487.2</ele>
        <time>2019-11-01T09:35:41Z</time>
      </trkpt>
      <trkpt lat="43.928" lon="6.32714">
        <ele>1488.6</ele>
        <time>2019-11-01T09:35:43Z</time>
      </trkpt>
      <trkpt lat="43.92798" lon="6.32717">
        <ele>1489.8</ele>
        <time>2019-11-01T09:35:44Z</time>
      </trkpt>
      <trkpt lat="43.92791" lon="6.32725">
        <ele>1490.8</ele>
        <time>2019-11-01T09:35:47Z</time>
      </trkpt>
      <trkpt lat="43.92788" lon="6.32728">
        <ele>1490.5</ele>
        <time>2019-11-01T09:35:48Z</time>
      </trkpt>
      <trkpt lat="43.92785" lon="6.32732">
        <ele>1490.4</ele>
        <time>2019-11-01T09:35:50Z</time>
      </trkpt>
      <trkpt lat="43.92783" lon="6.32736">
        <ele>1490.6</ele>
        <time>2019-11-01T09:35:51Z</time>
      </trkpt>
      <trkpt lat="43.92781" lon="6.32743">
        <ele>1490.9</ele>
        <time>2019-11-01T09:35:52Z</time>
      </trkpt>
      <trkpt lat="43.92779" lon="6.32747">
        <ele>1491.2</ele>
        <time>2019-11-01T09:35:53Z</time>
      </trkpt>
      <trkpt lat="43.92778" lon="6.32751">
        <ele>1491.4</ele>
        <time>2019-11-01T09:35:54Z</time>
      </trkpt>
      <trkpt lat="43.92777" lon="6.32755">
        <ele>1491.6</ele>
        <time>2019-11-01T09:35:56Z</time>
      </trkpt>
      <trkpt lat="43.92776" lon="6.32759">
        <ele>1491.8</ele>
        <time>2019-11-01T09:35:57Z</time>
      </trkpt>
      <trkpt lat="43.92774" lon="6.32765">
        <ele>1492.1</ele>
        <time>2019-11-01T09:35:58Z</time>
      </trkpt>
      <trkpt lat="43.92772" lon="6.32772">
        <ele>1492.3</ele>
        <time>2019-11-01T09:36:00Z</time>
      </trkpt>
      <trkpt lat="43.9277" lon="6.32779">
        <ele>1492.7</ele>
        <time>2019-11-01T09:36:01Z</time>
      </trkpt>
      <trkpt lat="43.92769" lon="6.32784">
        <ele>1492.9</ele>
        <time>2019-11-01T09:36:02Z</time>
      </trkpt>
      <trkpt lat="43.92766" lon="6.32791">
        <ele>1493.1</ele>
        <time>2019-11-01T09:36:04Z</time>
      </trkpt>
      <trkpt lat="43.92764" lon="6.32795">
        <ele>1493.2</ele>
        <time>2019-11-01T09:36:05Z</time>
      </trkpt>
      <trkpt lat="43.92763" lon="6.328">
        <ele>1493.2</ele>
        <time>2019-11-01T09:36:06Z</time>
      </trkpt>
      <trkpt lat="43.92761" lon="6.32805">
        <ele>1493.3</ele>
        <time>2019-11-01T09:36:07Z</time>
      </trkpt>
      <trkpt lat="43.92759" lon="6.3281">
        <ele>1493.2</ele>
        <time>2019-11-01T09:36:08Z</time>
      </trkpt>
      <trkpt lat="43.92757" lon="6.32815">
        <ele>1493.2</ele>
        <time>2019-11-01T09:36:09Z</time>
      </trkpt>
      <trkpt lat="43.92755" lon="6.32822">
        <ele>1493</ele>
        <time>2019-11-01T09:36:10Z</time>
      </trkpt>
      <trkpt lat="43.92752" lon="6.3283">
        <ele>1492.7</ele>
        <time>2019-11-01T09:36:12Z</time>
      </trkpt>
      <trkpt lat="43.9275" lon="6.32837">
        <ele>1492.4</ele>
        <time>2019-11-01T09:36:13Z</time>
      </trkpt>
      <trkpt lat="43.92749" lon="6.32842">
        <ele>1492.2</ele>
        <time>2019-11-01T09:36:14Z</time>
      </trkpt>
      <trkpt lat="43.92747" lon="6.32849">
        <ele>1492.1</ele>
        <time>2019-11-01T09:36:16Z</time>
      </trkpt>
      <trkpt lat="43.92746" lon="6.32854">
        <ele>1491.9</ele>
        <time>2019-11-01T09:36:17Z</time>
      </trkpt>
      <trkpt lat="43.92743" lon="6.32861">
        <ele>1491.2</ele>
        <time>2019-11-01T09:36:18Z</time>
      </trkpt>
      <trkpt lat="43.92742" lon="6.32866">
        <ele>1490.8</ele>
        <time>2019-11-01T09:36:19Z</time>
      </trkpt>
      <trkpt lat="43.92741" lon="6.32872">
        <ele>1490.4</ele>
        <time>2019-11-01T09:36:21Z</time>
      </trkpt>
      <trkpt lat="43.92739" lon="6.32878">
        <ele>1490.1</ele>
        <time>2019-11-01T09:36:22Z</time>
      </trkpt>
      <trkpt lat="43.92737" lon="6.32891">
        <ele>1489.6</ele>
        <time>2019-11-01T09:36:24Z</time>
      </trkpt>
      <trkpt lat="43.92737" lon="6.32902">
        <ele>1489.1</ele>
        <time>2019-11-01T09:36:27Z</time>
      </trkpt>
      <trkpt lat="43.92736" lon="6.32906">
        <ele>1488.9</ele>
        <time>2019-11-01T09:36:28Z</time>
      </trkpt>
      <trkpt lat="43.92737" lon="6.32915">
        <ele>1488.5</ele>
        <time>2019-11-01T09:36:31Z</time>
      </trkpt>
      <trkpt lat="43.92739" lon="6.32924">
        <ele>1488.3</ele>
        <time>2019-11-01T09:36:33Z</time>
      </trkpt>
      <trkpt lat="43.92741" lon="6.32929">
        <ele>1488.5</ele>
        <time>2019-11-01T09:36:35Z</time>
      </trkpt>
      <trkpt lat="43.92741" lon="6.32934">
        <ele>1488.6</ele>
        <time>2019-11-01T09:36:37Z</time>
      </trkpt>
      <trkpt lat="43.92744" lon="6.3293">
        <ele>1488.8</ele>
        <time>2019-11-01T09:39:23Z</time>
      </trkpt>
      <trkpt lat="43.92741" lon="6.32927">
        <ele>1489</ele>
        <time>2019-11-01T09:39:27Z</time>
      </trkpt>
      <trkpt lat="43.9274" lon="6.32921">
        <ele>1489.3</ele>
        <time>2019-11-01T09:39:28Z</time>
      </trkpt>
      <trkpt lat="43.92739" lon="6.32918">
        <ele>1489.5</ele>
        <time>2019-11-01T09:39:30Z</time>
      </trkpt>
      <trkpt lat="43.92737" lon="6.32913">
        <ele>1489.8</ele>
        <time>2019-11-01T09:39:31Z</time>
      </trkpt>
      <trkpt lat="43.92736" lon="6.32908">
        <ele>1489.9</ele>
        <time>2019-11-01T09:39:33Z</time>
      </trkpt>
      <trkpt lat="43.92734" lon="6.32901">
        <ele>1490.2</ele>
        <time>2019-11-01T09:39:35Z</time>
      </trkpt>
      <trkpt lat="43.92735" lon="6.32892">
        <ele>1490.6</ele>
        <time>2019-11-01T09:39:37Z</time>
      </trkpt>
      <trkpt lat="43.92736" lon="6.32887">
        <ele>1490.9</ele>
        <time>2019-11-01T09:39:38Z</time>
      </trkpt>
      <trkpt lat="43.92737" lon="6.3288">
        <ele>1491.4</ele>
        <time>2019-11-01T09:39:40Z</time>
      </trkpt>
      <trkpt lat="43.92738" lon="6.32876">
        <ele>1491.8</ele>
        <time>2019-11-01T09:39:41Z</time>
      </trkpt>
      <trkpt lat="43.9274" lon="6.32869">
        <ele>1492.1</ele>
        <time>2019-11-01T09:39:42Z</time>
      </trkpt>
      <trkpt lat="43.92741" lon="6.32865">
        <ele>1492.1</ele>
        <time>2019-11-01T09:39:43Z</time>
      </trkpt>
      <trkpt lat="43.92743" lon="6.32858">
        <ele>1492.3</ele>
        <time>2019-11-01T09:39:45Z</time>
      </trkpt>
      <trkpt lat="43.92744" lon="6.32854">
        <ele>1492.5</ele>
        <time>2019-11-01T09:39:46Z</time>
      </trkpt>
      <trkpt lat="43.92746" lon="6.32848">
        <ele>1492.7</ele>
        <time>2019-11-01T09:39:48Z</time>
      </trkpt>
      <trkpt lat="43.92748" lon="6.32839">
        <ele>1493.1</ele>
        <time>2019-11-01T09:39:50Z</time>
      </trkpt>
      <trkpt lat="43.92749" lon="6.32832">
        <ele>1493.2</ele>
        <time>2019-11-01T09:39:51Z</time>
      </trkpt>
      <trkpt lat="43.9275" lon="6.32828">
        <ele>1493.2</ele>
        <time>2019-11-01T09:39:53Z</time>
      </trkpt>
      <trkpt lat="43.92754" lon="6.32819">
        <ele>1493.2</ele>
        <time>2019-11-01T09:39:55Z</time>
      </trkpt>
      <trkpt lat="43.92755" lon="6.32814">
        <ele>1493.2</ele>
        <time>2019-11-01T09:39:56Z</time>
      </trkpt>
      <trkpt lat="43.92756" lon="6.32809">
        <ele>1493.2</ele>
        <time>2019-11-01T09:39:57Z</time>
      </trkpt>
      <trkpt lat="43.92758" lon="6.32803">
        <ele>1493</ele>
        <time>2019-11-01T09:39:59Z</time>
      </trkpt>
      <trkpt lat="43.9276" lon="6.32799">
        <ele>1493</ele>
        <time>2019-11-01T09:40:00Z</time>
      </trkpt>
      <trkpt lat="43.92761" lon="6.32794">
        <ele>1492.7</ele>
        <time>2019-11-01T09:40:01Z</time>
      </trkpt>
      <trkpt lat="43.92763" lon="6.32789">
        <ele>1492.5</ele>
        <time>2019-11-01T09:40:02Z</time>
      </trkpt>
      <trkpt lat="43.92766" lon="6.32782">
        <ele>1492.2</ele>
        <time>2019-11-01T09:40:04Z</time>
      </trkpt>
      <trkpt lat="43.92767" lon="6.32777">
        <ele>1492</ele>
        <time>2019-11-01T09:40:05Z</time>
      </trkpt>
      <trkpt lat="43.92769" lon="6.32773">
        <ele>1491.8</ele>
        <time>2019-11-01T09:40:06Z</time>
      </trkpt>
      <trkpt lat="43.9277" lon="6.32768">
        <ele>1491.6</ele>
        <time>2019-11-01T09:40:07Z</time>
      </trkpt>
      <trkpt lat="43.92772" lon="6.32763">
        <ele>1491.4</ele>
        <time>2019-11-01T09:40:08Z</time>
      </trkpt>
      <trkpt lat="43.92774" lon="6.32759">
        <ele>1491.1</ele>
        <time>2019-11-01T09:40:09Z</time>
      </trkpt>
      <trkpt lat="43.92776" lon="6.32752">
        <ele>1490.7</ele>
        <time>2019-11-01T09:40:11Z</time>
      </trkpt>
      <trkpt lat="43.92778" lon="6.32746">
        <ele>1490.5</ele>
        <time>2019-11-01T09:40:12Z</time>
      </trkpt>
      <trkpt lat="43.9278" lon="6.32742">
        <ele>1490.4</ele>
        <time>2019-11-01T09:40:13Z</time>
      </trkpt>
      <trkpt lat="43.92784" lon="6.32732">
        <ele>1490.9</ele>
        <time>2019-11-01T09:40:15Z</time>
      </trkpt>
      <trkpt lat="43.9279" lon="6.32723">
        <ele>1489.7</ele>
        <time>2019-11-01T09:40:17Z</time>
      </trkpt>
      <trkpt lat="43.92796" lon="6.32714">
        <ele>1487.2</ele>
        <time>2019-11-01T09:40:19Z</time>
      </trkpt>
      <trkpt lat="43.92803" lon="6.32707">
        <ele>1485.5</ele>
        <time>2019-11-01T09:40:21Z</time>
      </trkpt>
      <trkpt lat="43.92811" lon="6.32699">
        <ele>1483.3</ele>
        <time>2019-11-01T09:40:23Z</time>
      </trkpt>
      <trkpt lat="43.92815" lon="6.32694">
        <ele>1482.2</ele>
        <time>2019-11-01T09:40:24Z</time>
      </trkpt>
      <trkpt lat="43.92822" lon="6.32684">
        <ele>1478.7</ele>
        <time>2019-11-01T09:40:26Z</time>
      </trkpt>
      <trkpt lat="43.92825" lon="6.32679">
        <ele>1477.5</ele>
        <time>2019-11-01T09:40:27Z</time>
      </trkpt>
      <trkpt lat="43.92829" lon="6.32674">
        <ele>1476.5</ele>
        <time>2019-11-01T09:40:28Z</time>
      </trkpt>
      <trkpt lat="43.92837" lon="6.32664">
        <ele>1474.3</ele>
        <time>2019-11-01T09:40:30Z</time>
      </trkpt>
      <trkpt lat="43.92841" lon="6.32659">
        <ele>1473.5</ele>
        <time>2019-11-01T09:40:31Z</time>
      </trkpt>
      <trkpt lat="43.92848" lon="6.32652">
        <ele>1471.4</ele>
        <time>2019-11-01T09:40:33Z</time>
      </trkpt>
      <trkpt lat="43.92856" lon="6.32643">
        <ele>1470.1</ele>
        <time>2019-11-01T09:40:35Z</time>
      </trkpt>
      <trkpt lat="43.92859" lon="6.32639">
        <ele>1469.9</ele>
        <time>2019-11-01T09:40:36Z</time>
      </trkpt>
      <trkpt lat="43.92867" lon="6.32628">
        <ele>1469.4</ele>
        <time>2019-11-01T09:40:38Z</time>
      </trkpt>
      <trkpt lat="43.92873" lon="6.32616">
        <ele>1468.6</ele>
        <time>2019-11-01T09:40:40Z</time>
      </trkpt>
      <trkpt lat="43.92876" lon="6.3261">
        <ele>1467.6</ele>
        <time>2019-11-01T09:40:41Z</time>
      </trkpt>
      <trkpt lat="43.9288" lon="6.32603">
        <ele>1468.5</ele>
        <time>2019-11-01T09:40:42Z</time>
      </trkpt>
      <trkpt lat="43.92885" lon="6.32588">
        <ele>1470.6</ele>
        <time>2019-11-01T09:40:44Z</time>
      </trkpt>
      <trkpt lat="43.92887" lon="6.32572">
        <ele>1472</ele>
        <time>2019-11-01T09:40:46Z</time>
      </trkpt>
      <trkpt lat="43.92887" lon="6.32555">
        <ele>1473.9</ele>
        <time>2019-11-01T09:40:48Z</time>
      </trkpt>
      <trkpt lat="43.92888" lon="6.32538">
        <ele>1474.6</ele>
        <time>2019-11-01T09:40:50Z</time>
      </trkpt>
      <trkpt lat="43.92889" lon="6.32529">
        <ele>1474.8</ele>
        <time>2019-11-01T09:40:51Z</time>
      </trkpt>
      <trkpt lat="43.92891" lon="6.32521">
        <ele>1475.6</ele>
        <time>2019-11-01T09:40:52Z</time>
      </trkpt>
      <trkpt lat="43.92898" lon="6.32506">
        <ele>1474.8</ele>
        <time>2019-11-01T09:40:54Z</time>
      </trkpt>
      <trkpt lat="43.92902" lon="6.32498">
        <ele>1474.4</ele>
        <time>2019-11-01T09:40:55Z</time>
      </trkpt>
      <trkpt lat="43.9291" lon="6.32484">
        <ele>1473.5</ele>
        <time>2019-11-01T09:40:57Z</time>
      </trkpt>
      <trkpt lat="43.92918" lon="6.3247">
        <ele>1471.8</ele>
        <time>2019-11-01T09:40:59Z</time>
      </trkpt>
      <trkpt lat="43.92922" lon="6.32457">
        <ele>1470.4</ele>
        <time>2019-11-01T09:41:01Z</time>
      </trkpt>
      <trkpt lat="43.92925" lon="6.32448">
        <ele>1469.2</ele>
        <time>2019-11-01T09:41:03Z</time>
      </trkpt>
      <trkpt lat="43.9293" lon="6.32449">
        <ele>1468.8</ele>
        <time>2019-11-01T09:41:05Z</time>
      </trkpt>
      <trkpt lat="43.92934" lon="6.32449">
        <ele>1468.4</ele>
        <time>2019-11-01T09:41:08Z</time>
      </trkpt>
      <trkpt lat="43.92931" lon="6.32439">
        <ele>1467.5</ele>
        <time>2019-11-01T09:41:36Z</time>
      </trkpt>
      <trkpt lat="43.92927" lon="6.32442">
        <ele>1465.8</ele>
        <time>2019-11-01T09:41:39Z</time>
      </trkpt>
      <trkpt lat="43.9293" lon="6.32447">
        <ele>1465</ele>
        <time>2019-11-01T09:41:41Z</time>
      </trkpt>
      <trkpt lat="43.92932" lon="6.32448">
        <ele>1464.7</ele>
        <time>2019-11-01T09:41:43Z</time>
      </trkpt>
      <trkpt lat="43.92935" lon="6.32454">
        <ele>1464.6</ele>
        <time>2019-11-01T09:41:46Z</time>
      </trkpt>
      <trkpt lat="43.92936" lon="6.32461">
        <ele>1464.6</ele>
        <time>2019-11-01T09:41:49Z</time>
      </trkpt>
      <trkpt lat="43.92936" lon="6.32465">
        <ele>1464.8</ele>
        <time>2019-11-01T09:41:50Z</time>
      </trkpt>
      <trkpt lat="43.92935" lon="6.3247">
        <ele>1465.1</ele>
        <time>2019-11-01T09:41:51Z</time>
      </trkpt>
      <trkpt lat="43.92933" lon="6.32477">
        <ele>1465</ele>
        <time>2019-11-01T09:41:52Z</time>
      </trkpt>
      <trkpt lat="43.92932" lon="6.32484">
        <ele>1465</ele>
        <time>2019-11-01T09:41:53Z</time>
      </trkpt>
      <trkpt lat="43.92928" lon="6.32499">
        <ele>1465.4</ele>
        <time>2019-11-01T09:41:55Z</time>
      </trkpt>
      <trkpt lat="43.92926" lon="6.32507">
        <ele>1465.1</ele>
        <time>2019-11-01T09:41:56Z</time>
      </trkpt>
      <trkpt lat="43.92925" lon="6.32515">
        <ele>1464.8</ele>
        <time>2019-11-01T09:41:57Z</time>
      </trkpt>
      <trkpt lat="43.92923" lon="6.32534">
        <ele>1464.5</ele>
        <time>2019-11-01T09:41:59Z</time>
      </trkpt>
      <trkpt lat="43.92923" lon="6.32554">
        <ele>1461.8</ele>
        <time>2019-11-01T09:42:01Z</time>
      </trkpt>
      <trkpt lat="43.92925" lon="6.32574">
        <ele>1460.1</ele>
        <time>2019-11-01T09:42:03Z</time>
      </trkpt>
      <trkpt lat="43.92926" lon="6.32583">
        <ele>1459.1</ele>
        <time>2019-11-01T09:42:04Z</time>
      </trkpt>
      <trkpt lat="43.92927" lon="6.32596">
        <ele>1457.5</ele>
        <time>2019-11-01T09:42:06Z</time>
      </trkpt>
      <trkpt lat="43.92926" lon="6.32602">
        <ele>1457.2</ele>
        <time>2019-11-01T09:42:07Z</time>
      </trkpt>
      <trkpt lat="43.92924" lon="6.32609">
        <ele>1456.8</ele>
        <time>2019-11-01T09:42:08Z</time>
      </trkpt>
      <trkpt lat="43.9292" lon="6.32623">
        <ele>1456.7</ele>
        <time>2019-11-01T09:42:10Z</time>
      </trkpt>
      <trkpt lat="43.92916" lon="6.32639">
        <ele>1456.1</ele>
        <time>2019-11-01T09:42:12Z</time>
      </trkpt>
      <trkpt lat="43.92911" lon="6.32654">
        <ele>1455.2</ele>
        <time>2019-11-01T09:42:14Z</time>
      </trkpt>
      <trkpt lat="43.92908" lon="6.32661">
        <ele>1454.7</ele>
        <time>2019-11-01T09:42:15Z</time>
      </trkpt>
      <trkpt lat="43.92905" lon="6.32668">
        <ele>1454.3</ele>
        <time>2019-11-01T09:42:16Z</time>
      </trkpt>
      <trkpt lat="43.92901" lon="6.32684">
        <ele>1454</ele>
        <time>2019-11-01T09:42:18Z</time>
      </trkpt>
      <trkpt lat="43.929" lon="6.32694">
        <ele>1453.7</ele>
        <time>2019-11-01T09:42:19Z</time>
      </trkpt>
      <trkpt lat="43.92896" lon="6.3271">
        <ele>1453.8</ele>
        <time>2019-11-01T09:42:21Z</time>
      </trkpt>
      <trkpt lat="43.9289" lon="6.32724">
        <ele>1454.2</ele>
        <time>2019-11-01T09:42:23Z</time>
      </trkpt>
      <trkpt lat="43.92887" lon="6.32731">
        <ele>1454.3</ele>
        <time>2019-11-01T09:42:24Z</time>
      </trkpt>
      <trkpt lat="43.92886" lon="6.32739">
        <ele>1454</ele>
        <time>2019-11-01T09:42:25Z</time>
      </trkpt>
      <trkpt lat="43.92887" lon="6.32751">
        <ele>1453.9</ele>
        <time>2019-11-01T09:42:27Z</time>
      </trkpt>
      <trkpt lat="43.92889" lon="6.32755">
        <ele>1453.6</ele>
        <time>2019-11-01T09:42:28Z</time>
      </trkpt>
      <trkpt lat="43.92896" lon="6.32758">
        <ele>1453.6</ele>
        <time>2019-11-01T09:42:30Z</time>
      </trkpt>
      <trkpt lat="43.929" lon="6.32752">
        <ele>1453</ele>
        <time>2019-11-01T09:42:32Z</time>
      </trkpt>
      <trkpt lat="43.929" lon="6.32746">
        <ele>1452.5</ele>
        <time>2019-11-01T09:42:33Z</time>
      </trkpt>
      <trkpt lat="43.92899" lon="6.32741">
        <ele>1452.2</ele>
        <time>2019-11-01T09:42:34Z</time>
      </trkpt>
      <trkpt lat="43.92902" lon="6.32734">
        <ele>1451.6</ele>
        <time>2019-11-01T09:42:36Z</time>
      </trkpt>
      <trkpt lat="43.92902" lon="6.32727">
        <ele>1451.2</ele>
        <time>2019-11-01T09:42:37Z</time>
      </trkpt>
      <trkpt lat="43.92904" lon="6.32721">
        <ele>1450.8</ele>
        <time>2019-11-01T09:42:38Z</time>
      </trkpt>
      <trkpt lat="43.92906" lon="6.32717">
        <ele>1450.7</ele>
        <time>2019-11-01T09:42:39Z</time>
      </trkpt>
      <trkpt lat="43.92911" lon="6.32706">
        <ele>1450.1</ele>
        <time>2019-11-01T09:42:41Z</time>
      </trkpt>
      <trkpt lat="43.92917" lon="6.32696">
        <ele>1449.3</ele>
        <time>2019-11-01T09:42:43Z</time>
      </trkpt>
      <trkpt lat="43.92923" lon="6.32687">
        <ele>1448.7</ele>
        <time>2019-11-01T09:42:45Z</time>
      </trkpt>
      <trkpt lat="43.92927" lon="6.32681">
        <ele>1448.5</ele>
        <time>2019-11-01T09:42:46Z</time>
      </trkpt>
      <trkpt lat="43.92929" lon="6.32675">
        <ele>1448.4</ele>
        <time>2019-11-01T09:42:47Z</time>
      </trkpt>
      <trkpt lat="43.92933" lon="6.32661">
        <ele>1447.4</ele>
        <time>2019-11-01T09:42:49Z</time>
      </trkpt>
      <trkpt lat="43.92938" lon="6.32646">
        <ele>1446.5</ele>
        <time>2019-11-01T09:42:51Z</time>
      </trkpt>
      <trkpt lat="43.92941" lon="6.32638">
        <ele>1446</ele>
        <time>2019-11-01T09:42:52Z</time>
      </trkpt>
      <trkpt lat="43.92949" lon="6.32622">
        <ele>1443.9</ele>
        <time>2019-11-01T09:42:54Z</time>
      </trkpt>
      <trkpt lat="43.92953" lon="6.32614">
        <ele>1442.4</ele>
        <time>2019-11-01T09:42:55Z</time>
      </trkpt>
      <trkpt lat="43.92964" lon="6.326">
        <ele>1440.2</ele>
        <time>2019-11-01T09:42:57Z</time>
      </trkpt>
      <trkpt lat="43.9297" lon="6.32594">
        <ele>1439.1</ele>
        <time>2019-11-01T09:42:58Z</time>
      </trkpt>
      <trkpt lat="43.9298" lon="6.32581">
        <ele>1439.4</ele>
        <time>2019-11-01T09:43:00Z</time>
      </trkpt>
      <trkpt lat="43.92987" lon="6.32566">
        <ele>1439.1</ele>
        <time>2019-11-01T09:43:02Z</time>
      </trkpt>
      <trkpt lat="43.9299" lon="6.32557">
        <ele>1439.1</ele>
        <time>2019-11-01T09:43:03Z</time>
      </trkpt>
      <trkpt lat="43.92993" lon="6.3254">
        <ele>1437.6</ele>
        <time>2019-11-01T09:43:05Z</time>
      </trkpt>
      <trkpt lat="43.92997" lon="6.32522">
        <ele>1436.1</ele>
        <time>2019-11-01T09:43:07Z</time>
      </trkpt>
      <trkpt lat="43.93004" lon="6.32504">
        <ele>1433.9</ele>
        <time>2019-11-01T09:43:09Z</time>
      </trkpt>
      <trkpt lat="43.93013" lon="6.32486">
        <ele>1431.5</ele>
        <time>2019-11-01T09:43:11Z</time>
      </trkpt>
      <trkpt lat="43.93021" lon="6.3247">
        <ele>1429.5</ele>
        <time>2019-11-01T09:43:13Z</time>
      </trkpt>
      <trkpt lat="43.93024" lon="6.32464">
        <ele>1428.8</ele>
        <time>2019-11-01T09:43:14Z</time>
      </trkpt>
      <trkpt lat="43.9303" lon="6.3245">
        <ele>1428.9</ele>
        <time>2019-11-01T09:43:16Z</time>
      </trkpt>
      <trkpt lat="43.93033" lon="6.32434">
        <ele>1428</ele>
        <time>2019-11-01T09:43:18Z</time>
      </trkpt>
      <trkpt lat="43.93033" lon="6.32425">
        <ele>1427.3</ele>
        <time>2019-11-01T09:43:19Z</time>
      </trkpt>
      <trkpt lat="43.93035" lon="6.32407">
        <ele>1427.1</ele>
        <time>2019-11-01T09:43:21Z</time>
      </trkpt>
      <trkpt lat="43.93035" lon="6.32392">
        <ele>1425.8</ele>
        <time>2019-11-01T09:43:23Z</time>
      </trkpt>
      <trkpt lat="43.93034" lon="6.32384">
        <ele>1424.8</ele>
        <time>2019-11-01T09:43:24Z</time>
      </trkpt>
      <trkpt lat="43.93033" lon="6.32377">
        <ele>1423.5</ele>
        <time>2019-11-01T09:43:25Z</time>
      </trkpt>
      <trkpt lat="43.93037" lon="6.32363">
        <ele>1420.5</ele>
        <time>2019-11-01T09:43:27Z</time>
      </trkpt>
      <trkpt lat="43.93041" lon="6.32357">
        <ele>1419.7</ele>
        <time>2019-11-01T09:43:28Z</time>
      </trkpt>
      <trkpt lat="43.93048" lon="6.32347">
        <ele>1418.3</ele>
        <time>2019-11-01T09:43:30Z</time>
      </trkpt>
      <trkpt lat="43.9305" lon="6.32341">
        <ele>1417.3</ele>
        <time>2019-11-01T09:43:31Z</time>
      </trkpt>
      <trkpt lat="43.93052" lon="6.32328">
        <ele>1416.7</ele>
        <time>2019-11-01T09:43:33Z</time>
      </trkpt>
      <trkpt lat="43.93053" lon="6.32312">
        <ele>1415.1</ele>
        <time>2019-11-01T09:43:35Z</time>
      </trkpt>
      <trkpt lat="43.93055" lon="6.32297">
        <ele>1412.1</ele>
        <time>2019-11-01T09:43:37Z</time>
      </trkpt>
      <trkpt lat="43.93059" lon="6.3228">
        <ele>1409.3</ele>
        <time>2019-11-01T09:43:39Z</time>
      </trkpt>
      <trkpt lat="43.93064" lon="6.32263">
        <ele>1407.9</ele>
        <time>2019-11-01T09:43:41Z</time>
      </trkpt>
      <trkpt lat="43.93068" lon="6.32246">
        <ele>1405.9</ele>
        <time>2019-11-01T09:43:43Z</time>
      </trkpt>
      <trkpt lat="43.93069" lon="6.32239">
        <ele>1404.4</ele>
        <time>2019-11-01T09:43:44Z</time>
      </trkpt>
      <trkpt lat="43.9307" lon="6.32231">
        <ele>1403.4</ele>
        <time>2019-11-01T09:43:45Z</time>
      </trkpt>
      <trkpt lat="43.93074" lon="6.32216">
        <ele>1399.6</ele>
        <time>2019-11-01T09:43:47Z</time>
      </trkpt>
      <trkpt lat="43.93078" lon="6.322">
        <ele>1397.3</ele>
        <time>2019-11-01T09:43:49Z</time>
      </trkpt>
      <trkpt lat="43.93085" lon="6.32185">
        <ele>1393.7</ele>
        <time>2019-11-01T09:43:51Z</time>
      </trkpt>
      <trkpt lat="43.93088" lon="6.32178">
        <ele>1392.8</ele>
        <time>2019-11-01T09:43:52Z</time>
      </trkpt>
      <trkpt lat="43.93092" lon="6.32171">
        <ele>1392</ele>
        <time>2019-11-01T09:43:53Z</time>
      </trkpt>
      <trkpt lat="43.93096" lon="6.32158">
        <ele>1391.6</ele>
        <time>2019-11-01T09:43:55Z</time>
      </trkpt>
      <trkpt lat="43.93097" lon="6.3215">
        <ele>1391.3</ele>
        <time>2019-11-01T09:43:56Z</time>
      </trkpt>
      <trkpt lat="43.93097" lon="6.32141">
        <ele>1391</ele>
        <time>2019-11-01T09:43:57Z</time>
      </trkpt>
      <trkpt lat="43.93098" lon="6.32124">
        <ele>1390.9</ele>
        <time>2019-11-01T09:43:59Z</time>
      </trkpt>
      <trkpt lat="43.93101" lon="6.32107">
        <ele>1391.4</ele>
        <time>2019-11-01T09:44:01Z</time>
      </trkpt>
      <trkpt lat="43.93103" lon="6.32099">
        <ele>1391.8</ele>
        <time>2019-11-01T09:44:02Z</time>
      </trkpt>
      <trkpt lat="43.93104" lon="6.3209">
        <ele>1392</ele>
        <time>2019-11-01T09:44:03Z</time>
      </trkpt>
      <trkpt lat="43.93104" lon="6.32073">
        <ele>1391.4</ele>
        <time>2019-11-01T09:44:05Z</time>
      </trkpt>
      <trkpt lat="43.93103" lon="6.32065">
        <ele>1390.8</ele>
        <time>2019-11-01T09:44:06Z</time>
      </trkpt>
      <trkpt lat="43.93104" lon="6.32059">
        <ele>1389.7</ele>
        <time>2019-11-01T09:44:07Z</time>
      </trkpt>
      <trkpt lat="43.93108" lon="6.32045">
        <ele>1387</ele>
        <time>2019-11-01T09:44:09Z</time>
      </trkpt>
      <trkpt lat="43.93116" lon="6.32032">
        <ele>1384.4</ele>
        <time>2019-11-01T09:44:11Z</time>
      </trkpt>
      <trkpt lat="43.93124" lon="6.32021">
        <ele>1383.1</ele>
        <time>2019-11-01T09:44:13Z</time>
      </trkpt>
      <trkpt lat="43.93131" lon="6.3201">
        <ele>1381.9</ele>
        <time>2019-11-01T09:44:15Z</time>
      </trkpt>
      <trkpt lat="43.93135" lon="6.31998">
        <ele>1380.8</ele>
        <time>2019-11-01T09:44:17Z</time>
      </trkpt>
      <trkpt lat="43.93137" lon="6.3199">
        <ele>1380.3</ele>
        <time>2019-11-01T09:44:18Z</time>
      </trkpt>
      <trkpt lat="43.93139" lon="6.31983">
        <ele>1379.8</ele>
        <time>2019-11-01T09:44:19Z</time>
      </trkpt>
      <trkpt lat="43.93141" lon="6.31975">
        <ele>1379.2</ele>
        <time>2019-11-01T09:44:20Z</time>
      </trkpt>
      <trkpt lat="43.93147" lon="6.3196">
        <ele>1378.5</ele>
        <time>2019-11-01T09:44:22Z</time>
      </trkpt>
      <trkpt lat="43.93149" lon="6.31952">
        <ele>1378.3</ele>
        <time>2019-11-01T09:44:23Z</time>
      </trkpt>
      <trkpt lat="43.93151" lon="6.31944">
        <ele>1378.9</ele>
        <time>2019-11-01T09:44:24Z</time>
      </trkpt>
      <trkpt lat="43.93152" lon="6.31936">
        <ele>1378.6</ele>
        <time>2019-11-01T09:44:25Z</time>
      </trkpt>
      <trkpt lat="43.93153" lon="6.31919">
        <ele>1378.9</ele>
        <time>2019-11-01T09:44:27Z</time>
      </trkpt>
      <trkpt lat="43.93154" lon="6.31911">
        <ele>1379.2</ele>
        <time>2019-11-01T09:44:28Z</time>
      </trkpt>
      <trkpt lat="43.93158" lon="6.31894">
        <ele>1378</ele>
        <time>2019-11-01T09:44:30Z</time>
      </trkpt>
      <trkpt lat="43.9316" lon="6.31885">
        <ele>1377.3</ele>
        <time>2019-11-01T09:44:31Z</time>
      </trkpt>
      <trkpt lat="43.93166" lon="6.31868">
        <ele>1375.4</ele>
        <time>2019-11-01T09:44:33Z</time>
      </trkpt>
      <trkpt lat="43.93168" lon="6.31859">
        <ele>1374.5</ele>
        <time>2019-11-01T09:44:34Z</time>
      </trkpt>
      <trkpt lat="43.93173" lon="6.31842">
        <ele>1373.2</ele>
        <time>2019-11-01T09:44:36Z</time>
      </trkpt>
      <trkpt lat="43.93175" lon="6.31834">
        <ele>1372.6</ele>
        <time>2019-11-01T09:44:37Z</time>
      </trkpt>
      <trkpt lat="43.93181" lon="6.31818">
        <ele>1371.4</ele>
        <time>2019-11-01T09:44:39Z</time>
      </trkpt>
      <trkpt lat="43.93187" lon="6.31803">
        <ele>1370.2</ele>
        <time>2019-11-01T09:44:41Z</time>
      </trkpt>
      <trkpt lat="43.93192" lon="6.31789">
        <ele>1368.7</ele>
        <time>2019-11-01T09:44:43Z</time>
      </trkpt>
      <trkpt lat="43.93194" lon="6.31781">
        <ele>1367.9</ele>
        <time>2019-11-01T09:44:44Z</time>
      </trkpt>
      <trkpt lat="43.93197" lon="6.31764">
        <ele>1365.8</ele>
        <time>2019-11-01T09:44:46Z</time>
      </trkpt>
      <trkpt lat="43.93202" lon="6.31749">
        <ele>1362</ele>
        <time>2019-11-01T09:44:48Z</time>
      </trkpt>
      <trkpt lat="43.9321" lon="6.31734">
        <ele>1359.5</ele>
        <time>2019-11-01T09:44:50Z</time>
      </trkpt>
      <trkpt lat="43.93218" lon="6.3172">
        <ele>1356.3</ele>
        <time>2019-11-01T09:44:52Z</time>
      </trkpt>
      <trkpt lat="43.93224" lon="6.31705">
        <ele>1355.1</ele>
        <time>2019-11-01T09:44:54Z</time>
      </trkpt>
      <trkpt lat="43.93228" lon="6.31689">
        <ele>1352.5</ele>
        <time>2019-11-01T09:44:56Z</time>
      </trkpt>
      <trkpt lat="43.93232" lon="6.31671">
        <ele>1351.7</ele>
        <time>2019-11-01T09:44:58Z</time>
      </trkpt>
      <trkpt lat="43.93235" lon="6.31661">
        <ele>1350.7</ele>
        <time>2019-11-01T09:44:59Z</time>
      </trkpt>
      <trkpt lat="43.93239" lon="6.31651">
        <ele>1349.9</ele>
        <time>2019-11-01T09:45:00Z</time>
      </trkpt>
      <trkpt lat="43.93242" lon="6.31642">
        <ele>1349.7</ele>
        <time>2019-11-01T09:45:01Z</time>
      </trkpt>
      <trkpt lat="43.9325" lon="6.31626">
        <ele>1348</ele>
        <time>2019-11-01T09:45:03Z</time>
      </trkpt>
      <trkpt lat="43.93255" lon="6.31612">
        <ele>1347</ele>
        <time>2019-11-01T09:45:05Z</time>
      </trkpt>
      <trkpt lat="43.93261" lon="6.31598">
        <ele>1346.5</ele>
        <time>2019-11-01T09:45:07Z</time>
      </trkpt>
      <trkpt lat="43.93264" lon="6.3159">
        <ele>1345.6</ele>
        <time>2019-11-01T09:45:08Z</time>
      </trkpt>
      <trkpt lat="43.93267" lon="6.31582">
        <ele>1346.4</ele>
        <time>2019-11-01T09:45:09Z</time>
      </trkpt>
      <trkpt lat="43.93269" lon="6.31575">
        <ele>1346.3</ele>
        <time>2019-11-01T09:45:10Z</time>
      </trkpt>
      <trkpt lat="43.93272" lon="6.31559">
        <ele>1345.5</ele>
        <time>2019-11-01T09:45:12Z</time>
      </trkpt>
      <trkpt lat="43.93273" lon="6.31551">
        <ele>1346.2</ele>
        <time>2019-11-01T09:45:13Z</time>
      </trkpt>
      <trkpt lat="43.93276" lon="6.31534">
        <ele>1345.6</ele>
        <time>2019-11-01T09:45:15Z</time>
      </trkpt>
      <trkpt lat="43.93277" lon="6.31525">
        <ele>1345.3</ele>
        <time>2019-11-01T09:45:16Z</time>
      </trkpt>
      <trkpt lat="43.93281" lon="6.31508">
        <ele>1344.5</ele>
        <time>2019-11-01T09:45:18Z</time>
      </trkpt>
      <trkpt lat="43.93286" lon="6.31491">
        <ele>1343.3</ele>
        <time>2019-11-01T09:45:20Z</time>
      </trkpt>
      <trkpt lat="43.93293" lon="6.31473">
        <ele>1342.2</ele>
        <time>2019-11-01T09:45:22Z</time>
      </trkpt>
      <trkpt lat="43.93296" lon="6.31465">
        <ele>1341.6</ele>
        <time>2019-11-01T09:45:23Z</time>
      </trkpt>
      <trkpt lat="43.933" lon="6.31456">
        <ele>1341.4</ele>
        <time>2019-11-01T09:45:24Z</time>
      </trkpt>
      <trkpt lat="43.93303" lon="6.31447">
        <ele>1341</ele>
        <time>2019-11-01T09:45:25Z</time>
      </trkpt>
      <trkpt lat="43.93309" lon="6.3143">
        <ele>1340.6</ele>
        <time>2019-11-01T09:45:27Z</time>
      </trkpt>
      <trkpt lat="43.93316" lon="6.31416">
        <ele>1338.8</ele>
        <time>2019-11-01T09:45:29Z</time>
      </trkpt>
      <trkpt lat="43.93324" lon="6.31404">
        <ele>1337.6</ele>
        <time>2019-11-01T09:45:31Z</time>
      </trkpt>
      <trkpt lat="43.93328" lon="6.31398">
        <ele>1337.1</ele>
        <time>2019-11-01T09:45:32Z</time>
      </trkpt>
      <trkpt lat="43.93337" lon="6.31386">
        <ele>1336.2</ele>
        <time>2019-11-01T09:45:34Z</time>
      </trkpt>
      <trkpt lat="43.93346" lon="6.31373">
        <ele>1335.3</ele>
        <time>2019-11-01T09:45:36Z</time>
      </trkpt>
      <trkpt lat="43.93358" lon="6.3136">
        <ele>1334.4</ele>
        <time>2019-11-01T09:45:38Z</time>
      </trkpt>
      <trkpt lat="43.93369" lon="6.31348">
        <ele>1332.9</ele>
        <time>2019-11-01T09:45:40Z</time>
      </trkpt>
      <trkpt lat="43.93375" lon="6.3134">
        <ele>1332.3</ele>
        <time>2019-11-01T09:45:41Z</time>
      </trkpt>
      <trkpt lat="43.93387" lon="6.31325">
        <ele>1331</ele>
        <time>2019-11-01T09:45:43Z</time>
      </trkpt>
      <trkpt lat="43.93398" lon="6.31312">
        <ele>1329.6</ele>
        <time>2019-11-01T09:45:45Z</time>
      </trkpt>
      <trkpt lat="43.93403" lon="6.31306">
        <ele>1329.3</ele>
        <time>2019-11-01T09:45:46Z</time>
      </trkpt>
      <trkpt lat="43.93407" lon="6.313">
        <ele>1329.3</ele>
        <time>2019-11-01T09:45:47Z</time>
      </trkpt>
      <trkpt lat="43.93415" lon="6.31287">
        <ele>1328.9</ele>
        <time>2019-11-01T09:45:49Z</time>
      </trkpt>
      <trkpt lat="43.93419" lon="6.3128">
        <ele>1328.5</ele>
        <time>2019-11-01T09:45:50Z</time>
      </trkpt>
      <trkpt lat="43.93426" lon="6.31269">
        <ele>1327.6</ele>
        <time>2019-11-01T09:45:52Z</time>
      </trkpt>
      <trkpt lat="43.93431" lon="6.31262">
        <ele>1327.6</ele>
        <time>2019-11-01T09:45:54Z</time>
      </trkpt>
      <trkpt lat="43.93433" lon="6.31258">
        <ele>1328</ele>
        <time>2019-11-01T09:45:55Z</time>
      </trkpt>
      <trkpt lat="43.93436" lon="6.31252">
        <ele>1328.5</ele>
        <time>2019-11-01T09:45:58Z</time>
      </trkpt>
      <trkpt lat="43.9344" lon="6.3125">
        <ele>1328.5</ele>
        <time>2019-11-01T09:49:43Z</time>
      </trkpt>
      <trkpt lat="43.93443" lon="6.31245">
        <ele>1328.4</ele>
        <time>2019-11-01T09:49:45Z</time>
      </trkpt>
      <trkpt lat="43.93446" lon="6.31241">
        <ele>1328.4</ele>
        <time>2019-11-01T09:49:47Z</time>
      </trkpt>
      <trkpt lat="43.93448" lon="6.31237">
        <ele>1328.4</ele>
        <time>2019-11-01T09:49:48Z</time>
      </trkpt>
      <trkpt lat="43.93452" lon="6.3123">
        <ele>1328.7</ele>
        <time>2019-11-01T09:49:49Z</time>
      </trkpt>
      <trkpt lat="43.93454" lon="6.31226">
        <ele>1329.2</ele>
        <time>2019-11-01T09:49:50Z</time>
      </trkpt>
      <trkpt lat="43.93456" lon="6.31222">
        <ele>1329.9</ele>
        <time>2019-11-01T09:49:52Z</time>
      </trkpt>
      <trkpt lat="43.93458" lon="6.31218">
        <ele>1330.7</ele>
        <time>2019-11-01T09:49:53Z</time>
      </trkpt>
      <trkpt lat="43.93461" lon="6.31213">
        <ele>1331.5</ele>
        <time>2019-11-01T09:49:56Z</time>
      </trkpt>
      <trkpt lat="43.93464" lon="6.31208">
        <ele>1332.4</ele>
        <time>2019-11-01T09:49:59Z</time>
      </trkpt>
      <trkpt lat="43.93466" lon="6.31204">
        <ele>1333.3</ele>
        <time>2019-11-01T09:50:01Z</time>
      </trkpt>
      <trkpt lat="43.93469" lon="6.312">
        <ele>1334.2</ele>
        <time>2019-11-01T09:50:03Z</time>
      </trkpt>
      <trkpt lat="43.93472" lon="6.31194">
        <ele>1335.3</ele>
        <time>2019-11-01T09:50:05Z</time>
      </trkpt>
      <trkpt lat="43.93475" lon="6.3119">
        <ele>1336.3</ele>
        <time>2019-11-01T09:50:07Z</time>
      </trkpt>
      <trkpt lat="43.93478" lon="6.31184">
        <ele>1338</ele>
        <time>2019-11-01T09:50:10Z</time>
      </trkpt>
      <trkpt lat="43.93482" lon="6.31178">
        <ele>1339.1</ele>
        <time>2019-11-01T09:50:12Z</time>
      </trkpt>
      <trkpt lat="43.93484" lon="6.31172">
        <ele>1340.2</ele>
        <time>2019-11-01T09:50:15Z</time>
      </trkpt>
      <trkpt lat="43.93485" lon="6.31168">
        <ele>1341.4</ele>
        <time>2019-11-01T09:50:16Z</time>
      </trkpt>
      <trkpt lat="43.93487" lon="6.31163">
        <ele>1342.8</ele>
        <time>2019-11-01T09:50:19Z</time>
      </trkpt>
      <trkpt lat="43.93488" lon="6.31158">
        <ele>1343.9</ele>
        <time>2019-11-01T09:50:20Z</time>
      </trkpt>
      <trkpt lat="43.93489" lon="6.31155">
        <ele>1344.8</ele>
        <time>2019-11-01T09:50:21Z</time>
      </trkpt>
      <trkpt lat="43.9349" lon="6.3115">
        <ele>1346</ele>
        <time>2019-11-01T09:50:23Z</time>
      </trkpt>
      <trkpt lat="43.93492" lon="6.31143">
        <ele>1347.9</ele>
        <time>2019-11-01T09:50:25Z</time>
      </trkpt>
      <trkpt lat="43.93494" lon="6.31139">
        <ele>1348.8</ele>
        <time>2019-11-01T09:50:27Z</time>
      </trkpt>
      <trkpt lat="43.93495" lon="6.31134">
        <ele>1349.7</ele>
        <time>2019-11-01T09:50:29Z</time>
      </trkpt>
      <trkpt lat="43.93497" lon="6.31131">
        <ele>1350.6</ele>
        <time>2019-11-01T09:50:31Z</time>
      </trkpt>
      <trkpt lat="43.935" lon="6.31128">
        <ele>1351.7</ele>
        <time>2019-11-01T09:50:32Z</time>
      </trkpt>
      <trkpt lat="43.93502" lon="6.31126">
        <ele>1352.3</ele>
        <time>2019-11-01T09:50:33Z</time>
      </trkpt>
      <trkpt lat="43.93505" lon="6.31123">
        <ele>1352.4</ele>
        <time>2019-11-01T09:50:36Z</time>
      </trkpt>
      <trkpt lat="43.93509" lon="6.3112">
        <ele>1353</ele>
        <time>2019-11-01T09:50:38Z</time>
      </trkpt>
      <trkpt lat="43.93513" lon="6.31116">
        <ele>1353.4</ele>
        <time>2019-11-01T09:50:41Z</time>
      </trkpt>
      <trkpt lat="43.93515" lon="6.31115">
        <ele>1353.4</ele>
        <time>2019-11-01T09:50:43Z</time>
      </trkpt>
      <trkpt lat="43.93519" lon="6.31112">
        <ele>1353.3</ele>
        <time>2019-11-01T09:50:46Z</time>
      </trkpt>
      <trkpt lat="43.93522" lon="6.31109">
        <ele>1353.9</ele>
        <time>2019-11-01T09:50:48Z</time>
      </trkpt>
      <trkpt lat="43.93526" lon="6.31106">
        <ele>1354.6</ele>
        <time>2019-11-01T09:50:51Z</time>
      </trkpt>
      <trkpt lat="43.93529" lon="6.31102">
        <ele>1354.3</ele>
        <time>2019-11-01T09:50:53Z</time>
      </trkpt>
      <trkpt lat="43.93532" lon="6.311">
        <ele>1353.7</ele>
        <time>2019-11-01T09:50:56Z</time>
      </trkpt>
      <trkpt lat="43.93536" lon="6.31096">
        <ele>1352.9</ele>
        <time>2019-11-01T09:50:59Z</time>
      </trkpt>
      <trkpt lat="43.9354" lon="6.31094">
        <ele>1352.1</ele>
        <time>2019-11-01T09:51:02Z</time>
      </trkpt>
      <trkpt lat="43.93544" lon="6.31091">
        <ele>1352</ele>
        <time>2019-11-01T09:51:04Z</time>
      </trkpt>
      <trkpt lat="43.93548" lon="6.31088">
        <ele>1352.3</ele>
        <time>2019-11-01T09:51:07Z</time>
      </trkpt>
      <trkpt lat="43.93551" lon="6.31085">
        <ele>1351.9</ele>
        <time>2019-11-01T09:51:09Z</time>
      </trkpt>
      <trkpt lat="43.93555" lon="6.31082">
        <ele>1350.9</ele>
        <time>2019-11-01T09:51:12Z</time>
      </trkpt>
      <trkpt lat="43.93559" lon="6.31079">
        <ele>1349.9</ele>
        <time>2019-11-01T09:51:15Z</time>
      </trkpt>
      <trkpt lat="43.93563" lon="6.31076">
        <ele>1349.4</ele>
        <time>2019-11-01T09:51:18Z</time>
      </trkpt>
      <trkpt lat="43.93567" lon="6.31073">
        <ele>1348.9</ele>
        <time>2019-11-01T09:51:21Z</time>
      </trkpt>
      <trkpt lat="43.9357" lon="6.31072">
        <ele>1348.6</ele>
        <time>2019-11-01T09:51:23Z</time>
      </trkpt>
      <trkpt lat="43.93575" lon="6.31069">
        <ele>1348.1</ele>
        <time>2019-11-01T09:51:26Z</time>
      </trkpt>
      <trkpt lat="43.93579" lon="6.31066">
        <ele>1347.5</ele>
        <time>2019-11-01T09:51:29Z</time>
      </trkpt>
      <trkpt lat="43.93583" lon="6.31064">
        <ele>1346.8</ele>
        <time>2019-11-01T09:51:32Z</time>
      </trkpt>
      <trkpt lat="43.93588" lon="6.31061">
        <ele>1345.2</ele>
        <time>2019-11-01T09:51:35Z</time>
      </trkpt>
      <trkpt lat="43.93592" lon="6.31058">
        <ele>1344.9</ele>
        <time>2019-11-01T09:51:38Z</time>
      </trkpt>
      <trkpt lat="43.93596" lon="6.31056">
        <ele>1345.3</ele>
        <time>2019-11-01T09:51:41Z</time>
      </trkpt>
      <trkpt lat="43.936" lon="6.31053">
        <ele>1345</ele>
        <time>2019-11-01T09:51:43Z</time>
      </trkpt>
      <trkpt lat="43.93604" lon="6.31051">
        <ele>1344.3</ele>
        <time>2019-11-01T09:51:46Z</time>
      </trkpt>
      <trkpt lat="43.93607" lon="6.31049">
        <ele>1343.8</ele>
        <time>2019-11-01T09:51:48Z</time>
      </trkpt>
      <trkpt lat="43.93611" lon="6.31046">
        <ele>1343.5</ele>
        <time>2019-11-01T09:51:51Z</time>
      </trkpt>
      <trkpt lat="43.93614" lon="6.31044">
        <ele>1343.1</ele>
        <time>2019-11-01T09:51:53Z</time>
      </trkpt>
      <trkpt lat="43.93617" lon="6.31042">
        <ele>1342.6</ele>
        <time>2019-11-01T09:51:56Z</time>
      </trkpt>
      <trkpt lat="43.93621" lon="6.3104">
        <ele>1342</ele>
        <time>2019-11-01T09:51:58Z</time>
      </trkpt>
      <trkpt lat="43.93623" lon="6.31038">
        <ele>1342.4</ele>
        <time>2019-11-01T09:52:00Z</time>
      </trkpt>
      <trkpt lat="43.93626" lon="6.31035">
        <ele>1343.3</ele>
        <time>2019-11-01T09:52:02Z</time>
      </trkpt>
      <trkpt lat="43.93629" lon="6.31031">
        <ele>1344</ele>
        <time>2019-11-01T09:52:05Z</time>
      </trkpt>
      <trkpt lat="43.93632" lon="6.31028">
        <ele>1344.5</ele>
        <time>2019-11-01T09:52:07Z</time>
      </trkpt>
      <trkpt lat="43.93636" lon="6.31024">
        <ele>1344.6</ele>
        <time>2019-11-01T09:52:09Z</time>
      </trkpt>
      <trkpt lat="43.93639" lon="6.3102">
        <ele>1345.1</ele>
        <time>2019-11-01T09:52:12Z</time>
      </trkpt>
      <trkpt lat="43.93642" lon="6.31017">
        <ele>1345.8</ele>
        <time>2019-11-01T09:52:15Z</time>
      </trkpt>
      <trkpt lat="43.93645" lon="6.31012">
        <ele>1346.2</ele>
        <time>2019-11-01T09:52:17Z</time>
      </trkpt>
      <trkpt lat="43.93647" lon="6.3101">
        <ele>1346.3</ele>
        <time>2019-11-01T09:52:19Z</time>
      </trkpt>
      <trkpt lat="43.9365" lon="6.31007">
        <ele>1346.4</ele>
        <time>2019-11-01T09:52:22Z</time>
      </trkpt>
      <trkpt lat="43.93652" lon="6.31004">
        <ele>1347</ele>
        <time>2019-11-01T09:52:23Z</time>
      </trkpt>
      <trkpt lat="43.93654" lon="6.31001">
        <ele>1347.7</ele>
        <time>2019-11-01T09:52:25Z</time>
      </trkpt>
      <trkpt lat="43.93658" lon="6.30998">
        <ele>1348.3</ele>
        <time>2019-11-01T09:52:28Z</time>
      </trkpt>
      <trkpt lat="43.93662" lon="6.30995">
        <ele>1348.9</ele>
        <time>2019-11-01T09:52:30Z</time>
      </trkpt>
      <trkpt lat="43.93665" lon="6.30991">
        <ele>1349.7</ele>
        <time>2019-11-01T09:52:33Z</time>
      </trkpt>
      <trkpt lat="43.93668" lon="6.30989">
        <ele>1350.3</ele>
        <time>2019-11-01T09:52:35Z</time>
      </trkpt>
      <trkpt lat="43.93672" lon="6.30984">
        <ele>1350.8</ele>
        <time>2019-11-01T09:52:38Z</time>
      </trkpt>
      <trkpt lat="43.93675" lon="6.30981">
        <ele>1350.7</ele>
        <time>2019-11-01T09:52:40Z</time>
      </trkpt>
      <trkpt lat="43.93677" lon="6.30979">
        <ele>1350.9</ele>
        <time>2019-11-01T09:52:42Z</time>
      </trkpt>
      <trkpt lat="43.9368" lon="6.30976">
        <ele>1351.4</ele>
        <time>2019-11-01T09:52:44Z</time>
      </trkpt>
      <trkpt lat="43.93682" lon="6.30972">
        <ele>1351.9</ele>
        <time>2019-11-01T09:52:46Z</time>
      </trkpt>
      <trkpt lat="43.93684" lon="6.30969">
        <ele>1352.3</ele>
        <time>2019-11-01T09:52:48Z</time>
      </trkpt>
      <trkpt lat="43.93686" lon="6.30966">
        <ele>1352.6</ele>
        <time>2019-11-01T09:52:50Z</time>
      </trkpt>
      <trkpt lat="43.93688" lon="6.30962">
        <ele>1353</ele>
        <time>2019-11-01T09:52:52Z</time>
      </trkpt>
      <trkpt lat="43.93691" lon="6.30957">
        <ele>1353.3</ele>
        <time>2019-11-01T09:52:55Z</time>
      </trkpt>
      <trkpt lat="43.93694" lon="6.30951">
        <ele>1353.8</ele>
        <time>2019-11-01T09:52:58Z</time>
      </trkpt>
      <trkpt lat="43.93696" lon="6.30947">
        <ele>1354.4</ele>
        <time>2019-11-01T09:53:00Z</time>
      </trkpt>
      <trkpt lat="43.93698" lon="6.30943">
        <ele>1355.1</ele>
        <time>2019-11-01T09:53:03Z</time>
      </trkpt>
      <trkpt lat="43.937" lon="6.30939">
        <ele>1355.9</ele>
        <time>2019-11-01T09:53:05Z</time>
      </trkpt>
      <trkpt lat="43.93701" lon="6.30935">
        <ele>1356.7</ele>
        <time>2019-11-01T09:53:07Z</time>
      </trkpt>
      <trkpt lat="43.93704" lon="6.3093">
        <ele>1357.7</ele>
        <time>2019-11-01T09:53:10Z</time>
      </trkpt>
      <trkpt lat="43.93707" lon="6.30927">
        <ele>1358.6</ele>
        <time>2019-11-01T09:53:12Z</time>
      </trkpt>
      <trkpt lat="43.9371" lon="6.30924">
        <ele>1359.2</ele>
        <time>2019-11-01T09:53:14Z</time>
      </trkpt>
      <trkpt lat="43.93713" lon="6.30918">
        <ele>1359.6</ele>
        <time>2019-11-01T09:53:16Z</time>
      </trkpt>
      <trkpt lat="43.93715" lon="6.30914">
        <ele>1360.4</ele>
        <time>2019-11-01T09:53:19Z</time>
      </trkpt>
      <trkpt lat="43.93717" lon="6.30909">
        <ele>1361.8</ele>
        <time>2019-11-01T09:53:21Z</time>
      </trkpt>
      <trkpt lat="43.93719" lon="6.30903">
        <ele>1363</ele>
        <time>2019-11-01T09:53:24Z</time>
      </trkpt>
      <trkpt lat="43.93721" lon="6.309">
        <ele>1363.2</ele>
        <time>2019-11-01T09:53:26Z</time>
      </trkpt>
      <trkpt lat="43.93723" lon="6.30895">
        <ele>1363.5</ele>
        <time>2019-11-01T09:53:29Z</time>
      </trkpt>
      <trkpt lat="43.93725" lon="6.30889">
        <ele>1364.4</ele>
        <time>2019-11-01T09:53:31Z</time>
      </trkpt>
      <trkpt lat="43.93727" lon="6.30886">
        <ele>1365.1</ele>
        <time>2019-11-01T09:53:34Z</time>
      </trkpt>
      <trkpt lat="43.9373" lon="6.30881">
        <ele>1365.3</ele>
        <time>2019-11-01T09:53:37Z</time>
      </trkpt>
      <trkpt lat="43.93733" lon="6.30877">
        <ele>1365.5</ele>
        <time>2019-11-01T09:53:39Z</time>
      </trkpt>
      <trkpt lat="43.93734" lon="6.30874">
        <ele>1365.7</ele>
        <time>2019-11-01T09:53:40Z</time>
      </trkpt>
      <trkpt lat="43.93736" lon="6.30869">
        <ele>1365.9</ele>
        <time>2019-11-01T09:53:43Z</time>
      </trkpt>
      <trkpt lat="43.93739" lon="6.30865">
        <ele>1366.1</ele>
        <time>2019-11-01T09:53:45Z</time>
      </trkpt>
      <trkpt lat="43.93742" lon="6.30861">
        <ele>1366.3</ele>
        <time>2019-11-01T09:53:48Z</time>
      </trkpt>
      <trkpt lat="43.93745" lon="6.30857">
        <ele>1366.3</ele>
        <time>2019-11-01T09:53:50Z</time>
      </trkpt>
      <trkpt lat="43.93748" lon="6.30854">
        <ele>1366.2</ele>
        <time>2019-11-01T09:53:53Z</time>
      </trkpt>
      <trkpt lat="43.9375" lon="6.30851">
        <ele>1366.3</ele>
        <time>2019-11-01T09:53:55Z</time>
      </trkpt>
      <trkpt lat="43.93753" lon="6.30847">
        <ele>1366.9</ele>
        <time>2019-11-01T09:53:58Z</time>
      </trkpt>
      <trkpt lat="43.93755" lon="6.30843">
        <ele>1367.4</ele>
        <time>2019-11-01T09:54:00Z</time>
      </trkpt>
      <trkpt lat="43.93758" lon="6.3084">
        <ele>1367.6</ele>
        <time>2019-11-01T09:54:02Z</time>
      </trkpt>
      <trkpt lat="43.9376" lon="6.30836">
        <ele>1367.7</ele>
        <time>2019-11-01T09:54:04Z</time>
      </trkpt>
      <trkpt lat="43.93763" lon="6.30831">
        <ele>1367.7</ele>
        <time>2019-11-01T09:54:07Z</time>
      </trkpt>
      <trkpt lat="43.93766" lon="6.30827">
        <ele>1367.8</ele>
        <time>2019-11-01T09:54:09Z</time>
      </trkpt>
      <trkpt lat="43.93769" lon="6.30823">
        <ele>1367.8</ele>
        <time>2019-11-01T09:54:12Z</time>
      </trkpt>
      <trkpt lat="43.9377" lon="6.3082">
        <ele>1367.9</ele>
        <time>2019-11-01T09:54:13Z</time>
      </trkpt>
      <trkpt lat="43.93773" lon="6.30816">
        <ele>1368.3</ele>
        <time>2019-11-01T09:54:16Z</time>
      </trkpt>
      <trkpt lat="43.93777" lon="6.30811">
        <ele>1369.1</ele>
        <time>2019-11-01T09:54:19Z</time>
      </trkpt>
      <trkpt lat="43.93779" lon="6.30808">
        <ele>1369.2</ele>
        <time>2019-11-01T09:54:21Z</time>
      </trkpt>
      <trkpt lat="43.93783" lon="6.30803">
        <ele>1369</ele>
        <time>2019-11-01T09:54:24Z</time>
      </trkpt>
      <trkpt lat="43.93785" lon="6.308">
        <ele>1369</ele>
        <time>2019-11-01T09:54:26Z</time>
      </trkpt>
      <trkpt lat="43.93788" lon="6.30798">
        <ele>1368.9</ele>
        <time>2019-11-01T09:54:28Z</time>
      </trkpt>
      <trkpt lat="43.93791" lon="6.30795">
        <ele>1369.7</ele>
        <time>2019-11-01T09:54:30Z</time>
      </trkpt>
      <trkpt lat="43.93794" lon="6.30792">
        <ele>1370.4</ele>
        <time>2019-11-01T09:54:32Z</time>
      </trkpt>
      <trkpt lat="43.93797" lon="6.30788">
        <ele>1370.5</ele>
        <time>2019-11-01T09:54:35Z</time>
      </trkpt>
      <trkpt lat="43.93799" lon="6.30786">
        <ele>1370.5</ele>
        <time>2019-11-01T09:54:36Z</time>
      </trkpt>
      <trkpt lat="43.93802" lon="6.30783">
        <ele>1370.5</ele>
        <time>2019-11-01T09:54:39Z</time>
      </trkpt>
      <trkpt lat="43.93807" lon="6.3078">
        <ele>1370.5</ele>
        <time>2019-11-01T09:54:42Z</time>
      </trkpt>
      <trkpt lat="43.9381" lon="6.30779">
        <ele>1370.5</ele>
        <time>2019-11-01T09:54:44Z</time>
      </trkpt>
      <trkpt lat="43.93814" lon="6.30777">
        <ele>1370.5</ele>
        <time>2019-11-01T09:54:46Z</time>
      </trkpt>
      <trkpt lat="43.93817" lon="6.30775">
        <ele>1370.5</ele>
        <time>2019-11-01T09:54:49Z</time>
      </trkpt>
      <trkpt lat="43.93821" lon="6.30773">
        <ele>1370.4</ele>
        <time>2019-11-01T09:54:51Z</time>
      </trkpt>
      <trkpt lat="43.93825" lon="6.3077">
        <ele>1371.1</ele>
        <time>2019-11-01T09:54:54Z</time>
      </trkpt>
      <trkpt lat="43.93829" lon="6.30766">
        <ele>1371.9</ele>
        <time>2019-11-01T09:54:57Z</time>
      </trkpt>
      <trkpt lat="43.93832" lon="6.30764">
        <ele>1372</ele>
        <time>2019-11-01T09:54:58Z</time>
      </trkpt>
      <trkpt lat="43.93835" lon="6.30762">
        <ele>1372.2</ele>
        <time>2019-11-01T09:55:01Z</time>
      </trkpt>
      <trkpt lat="43.93838" lon="6.30759">
        <ele>1372.4</ele>
        <time>2019-11-01T09:55:03Z</time>
      </trkpt>
      <trkpt lat="43.93843" lon="6.30757">
        <ele>1372.5</ele>
        <time>2019-11-01T09:55:06Z</time>
      </trkpt>
      <trkpt lat="43.93845" lon="6.30755">
        <ele>1372.9</ele>
        <time>2019-11-01T09:55:08Z</time>
      </trkpt>
      <trkpt lat="43.9385" lon="6.30752">
        <ele>1373.4</ele>
        <time>2019-11-01T09:55:11Z</time>
      </trkpt>
      <trkpt lat="43.93852" lon="6.30751">
        <ele>1373.7</ele>
        <time>2019-11-01T09:55:13Z</time>
      </trkpt>
      <trkpt lat="43.93856" lon="6.30749">
        <ele>1374.1</ele>
        <time>2019-11-01T09:55:15Z</time>
      </trkpt>
      <trkpt lat="43.93859" lon="6.30748">
        <ele>1374.2</ele>
        <time>2019-11-01T09:55:18Z</time>
      </trkpt>
      <trkpt lat="43.93863" lon="6.30746">
        <ele>1374.1</ele>
        <time>2019-11-01T09:55:21Z</time>
      </trkpt>
      <trkpt lat="43.93868" lon="6.30744">
        <ele>1374.6</ele>
        <time>2019-11-01T09:55:23Z</time>
      </trkpt>
      <trkpt lat="43.93872" lon="6.30741">
        <ele>1375</ele>
        <time>2019-11-01T09:55:26Z</time>
      </trkpt>
      <trkpt lat="43.93874" lon="6.30739">
        <ele>1375</ele>
        <time>2019-11-01T09:55:29Z</time>
      </trkpt>
      <trkpt lat="43.93875" lon="6.30733">
        <ele>1376.6</ele>
        <time>2019-11-01T09:55:33Z</time>
      </trkpt>
      <trkpt lat="43.93872" lon="6.30732">
        <ele>1376.7</ele>
        <time>2019-11-01T09:55:35Z</time>
      </trkpt>
      <trkpt lat="43.93868" lon="6.30735">
        <ele>1376.7</ele>
        <time>2019-11-01T09:55:37Z</time>
      </trkpt>
      <trkpt lat="43.93865" lon="6.30739">
        <ele>1376.8</ele>
        <time>2019-11-01T09:55:41Z</time>
      </trkpt>
      <trkpt lat="43.9386" lon="6.30739">
        <ele>1376.8</ele>
        <time>2019-11-01T09:55:44Z</time>
      </trkpt>
      <trkpt lat="43.93857" lon="6.30739">
        <ele>1376.6</ele>
        <time>2019-11-01T09:55:46Z</time>
      </trkpt>
      <trkpt lat="43.93854" lon="6.3074">
        <ele>1376.4</ele>
        <time>2019-11-01T09:55:48Z</time>
      </trkpt>
      <trkpt lat="43.93848" lon="6.30741">
        <ele>1376.5</ele>
        <time>2019-11-01T09:55:51Z</time>
      </trkpt>
      <trkpt lat="43.93845" lon="6.30742">
        <ele>1376.7</ele>
        <time>2019-11-01T09:55:54Z</time>
      </trkpt>
      <trkpt lat="43.93841" lon="6.30742">
        <ele>1376.6</ele>
        <time>2019-11-01T09:55:56Z</time>
      </trkpt>
      <trkpt lat="43.93837" lon="6.30744">
        <ele>1376.3</ele>
        <time>2019-11-01T09:55:59Z</time>
      </trkpt>
      <trkpt lat="43.93833" lon="6.30744">
        <ele>1376.9</ele>
        <time>2019-11-01T09:56:01Z</time>
      </trkpt>
      <trkpt lat="43.93828" lon="6.30745">
        <ele>1377.6</ele>
        <time>2019-11-01T09:56:04Z</time>
      </trkpt>
      <trkpt lat="43.93824" lon="6.30746">
        <ele>1378.3</ele>
        <time>2019-11-01T09:56:06Z</time>
      </trkpt>
      <trkpt lat="43.9382" lon="6.30747">
        <ele>1378.9</ele>
        <time>2019-11-01T09:56:09Z</time>
      </trkpt>
      <trkpt lat="43.93817" lon="6.30748">
        <ele>1378.9</ele>
        <time>2019-11-01T09:56:10Z</time>
      </trkpt>
      <trkpt lat="43.93814" lon="6.30749">
        <ele>1378.9</ele>
        <time>2019-11-01T09:56:12Z</time>
      </trkpt>
      <trkpt lat="43.93809" lon="6.3075">
        <ele>1379.8</ele>
        <time>2019-11-01T09:56:15Z</time>
      </trkpt>
      <trkpt lat="43.93805" lon="6.30751">
        <ele>1380.8</ele>
        <time>2019-11-01T09:56:18Z</time>
      </trkpt>
      <trkpt lat="43.938" lon="6.30752">
        <ele>1381.3</ele>
        <time>2019-11-01T09:56:20Z</time>
      </trkpt>
      <trkpt lat="43.93798" lon="6.30753">
        <ele>1381.5</ele>
        <time>2019-11-01T09:56:23Z</time>
      </trkpt>
      <trkpt lat="43.93795" lon="6.30755">
        <ele>1381.7</ele>
        <time>2019-11-01T09:56:24Z</time>
      </trkpt>
      <trkpt lat="43.93791" lon="6.30756">
        <ele>1382.1</ele>
        <time>2019-11-01T09:56:26Z</time>
      </trkpt>
      <trkpt lat="43.93787" lon="6.30758">
        <ele>1382.8</ele>
        <time>2019-11-01T09:56:28Z</time>
      </trkpt>
      <trkpt lat="43.93783" lon="6.3076">
        <ele>1384</ele>
        <time>2019-11-01T09:56:31Z</time>
      </trkpt>
      <trkpt lat="43.93779" lon="6.30761">
        <ele>1384.4</ele>
        <time>2019-11-01T09:56:34Z</time>
      </trkpt>
      <trkpt lat="43.93775" lon="6.30764">
        <ele>1384.6</ele>
        <time>2019-11-01T09:56:36Z</time>
      </trkpt>
      <trkpt lat="43.93771" lon="6.30765">
        <ele>1385.1</ele>
        <time>2019-11-01T09:56:39Z</time>
      </trkpt>
      <trkpt lat="43.93767" lon="6.30768">
        <ele>1385.7</ele>
        <time>2019-11-01T09:56:41Z</time>
      </trkpt>
      <trkpt lat="43.93763" lon="6.30771">
        <ele>1385.9</ele>
        <time>2019-11-01T09:56:44Z</time>
      </trkpt>
      <trkpt lat="43.9376" lon="6.30772">
        <ele>1385.9</ele>
        <time>2019-11-01T09:56:46Z</time>
      </trkpt>
      <trkpt lat="43.93757" lon="6.30774">
        <ele>1386.4</ele>
        <time>2019-11-01T09:56:48Z</time>
      </trkpt>
      <trkpt lat="43.93754" lon="6.30776">
        <ele>1387</ele>
        <time>2019-11-01T09:56:50Z</time>
      </trkpt>
      <trkpt lat="43.93751" lon="6.30779">
        <ele>1387.8</ele>
        <time>2019-11-01T09:56:52Z</time>
      </trkpt>
      <trkpt lat="43.93747" lon="6.30782">
        <ele>1388.7</ele>
        <time>2019-11-01T09:56:55Z</time>
      </trkpt>
      <trkpt lat="43.93742" lon="6.30785">
        <ele>1389.5</ele>
        <time>2019-11-01T09:56:58Z</time>
      </trkpt>
      <trkpt lat="43.93739" lon="6.30789">
        <ele>1390</ele>
        <time>2019-11-01T09:57:01Z</time>
      </trkpt>
      <trkpt lat="43.93734" lon="6.30792">
        <ele>1390.5</ele>
        <time>2019-11-01T09:57:03Z</time>
      </trkpt>
      <trkpt lat="43.93731" lon="6.30794">
        <ele>1390.6</ele>
        <time>2019-11-01T09:57:05Z</time>
      </trkpt>
      <trkpt lat="43.93728" lon="6.30797">
        <ele>1390.4</ele>
        <time>2019-11-01T09:57:07Z</time>
      </trkpt>
      <trkpt lat="43.93723" lon="6.30801">
        <ele>1391.1</ele>
        <time>2019-11-01T09:57:09Z</time>
      </trkpt>
      <trkpt lat="43.9372" lon="6.30803">
        <ele>1392.1</ele>
        <time>2019-11-01T09:57:11Z</time>
      </trkpt>
      <trkpt lat="43.93717" lon="6.30806">
        <ele>1392.7</ele>
        <time>2019-11-01T09:57:13Z</time>
      </trkpt>
      <trkpt lat="43.93714" lon="6.30808">
        <ele>1393</ele>
        <time>2019-11-01T09:57:14Z</time>
      </trkpt>
      <trkpt lat="43.93709" lon="6.30813">
        <ele>1393.5</ele>
        <time>2019-11-01T09:57:17Z</time>
      </trkpt>
      <trkpt lat="43.93704" lon="6.30816">
        <ele>1393.7</ele>
        <time>2019-11-01T09:57:19Z</time>
      </trkpt>
      <trkpt lat="43.937" lon="6.30819">
        <ele>1393.5</ele>
        <time>2019-11-01T09:57:21Z</time>
      </trkpt>
      <trkpt lat="43.93694" lon="6.30824">
        <ele>1394.4</ele>
        <time>2019-11-01T09:57:24Z</time>
      </trkpt>
      <trkpt lat="43.93689" lon="6.30828">
        <ele>1395.1</ele>
        <time>2019-11-01T09:57:27Z</time>
      </trkpt>
      <trkpt lat="43.93683" lon="6.30832">
        <ele>1395</ele>
        <time>2019-11-01T09:57:29Z</time>
      </trkpt>
      <trkpt lat="43.93679" lon="6.30835">
        <ele>1394.5</ele>
        <time>2019-11-01T09:57:32Z</time>
      </trkpt>
      <trkpt lat="43.93675" lon="6.30838">
        <ele>1394.2</ele>
        <time>2019-11-01T09:57:34Z</time>
      </trkpt>
      <trkpt lat="43.93671" lon="6.30841">
        <ele>1394.8</ele>
        <time>2019-11-01T09:57:36Z</time>
      </trkpt>
      <trkpt lat="43.93666" lon="6.30841">
        <ele>1396.7</ele>
        <time>2019-11-01T09:57:38Z</time>
      </trkpt>
      <trkpt lat="43.93664" lon="6.30835">
        <ele>1399.7</ele>
        <time>2019-11-01T09:57:41Z</time>
      </trkpt>
      <trkpt lat="43.93667" lon="6.3083">
        <ele>1400.8</ele>
        <time>2019-11-01T09:57:43Z</time>
      </trkpt>
      <trkpt lat="43.93671" lon="6.30827">
        <ele>1400.3</ele>
        <time>2019-11-01T09:57:46Z</time>
      </trkpt>
      <trkpt lat="43.93674" lon="6.30825">
        <ele>1400.3</ele>
        <time>2019-11-01T09:57:47Z</time>
      </trkpt>
      <trkpt lat="43.93676" lon="6.30821">
        <ele>1400.5</ele>
        <time>2019-11-01T09:57:49Z</time>
      </trkpt>
      <trkpt lat="43.9368" lon="6.30817">
        <ele>1400.6</ele>
        <time>2019-11-01T09:57:52Z</time>
      </trkpt>
      <trkpt lat="43.93683" lon="6.30813">
        <ele>1400.3</ele>
        <time>2019-11-01T09:57:55Z</time>
      </trkpt>
      <trkpt lat="43.93685" lon="6.3081">
        <ele>1400.2</ele>
        <time>2019-11-01T09:57:57Z</time>
      </trkpt>
      <trkpt lat="43.93689" lon="6.30807">
        <ele>1400.1</ele>
        <time>2019-11-01T09:57:59Z</time>
      </trkpt>
      <trkpt lat="43.93692" lon="6.30804">
        <ele>1399.9</ele>
        <time>2019-11-01T09:58:02Z</time>
      </trkpt>
      <trkpt lat="43.93696" lon="6.30801">
        <ele>1399.4</ele>
        <time>2019-11-01T09:58:04Z</time>
      </trkpt>
      <trkpt lat="43.93699" lon="6.30797">
        <ele>1399.2</ele>
        <time>2019-11-01T09:58:07Z</time>
      </trkpt>
      <trkpt lat="43.93702" lon="6.30794">
        <ele>1399.4</ele>
        <time>2019-11-01T09:58:09Z</time>
      </trkpt>
      <trkpt lat="43.93706" lon="6.30789">
        <ele>1399.2</ele>
        <time>2019-11-01T09:58:13Z</time>
      </trkpt>
      <trkpt lat="43.93708" lon="6.30786">
        <ele>1398.9</ele>
        <time>2019-11-01T09:58:15Z</time>
      </trkpt>
      <trkpt lat="43.93711" lon="6.30783">
        <ele>1399</ele>
        <time>2019-11-01T09:58:17Z</time>
      </trkpt>
      <trkpt lat="43.93715" lon="6.30779">
        <ele>1399.4</ele>
        <time>2019-11-01T09:58:20Z</time>
      </trkpt>
      <trkpt lat="43.93717" lon="6.30775">
        <ele>1399.6</ele>
        <time>2019-11-01T09:58:22Z</time>
      </trkpt>
      <trkpt lat="43.9372" lon="6.30771">
        <ele>1399.7</ele>
        <time>2019-11-01T09:58:25Z</time>
      </trkpt>
      <trkpt lat="43.93722" lon="6.30768">
        <ele>1400</ele>
        <time>2019-11-01T09:58:26Z</time>
      </trkpt>
      <trkpt lat="43.93724" lon="6.30766">
        <ele>1400.2</ele>
        <time>2019-11-01T09:58:28Z</time>
      </trkpt>
      <trkpt lat="43.93727" lon="6.30762">
        <ele>1400.7</ele>
        <time>2019-11-01T09:58:30Z</time>
      </trkpt>
      <trkpt lat="43.93729" lon="6.30759">
        <ele>1401.2</ele>
        <time>2019-11-01T09:58:32Z</time>
      </trkpt>
      <trkpt lat="43.93732" lon="6.30755">
        <ele>1402</ele>
        <time>2019-11-01T09:58:34Z</time>
      </trkpt>
      <trkpt lat="43.93735" lon="6.30751">
        <ele>1402.9</ele>
        <time>2019-11-01T09:58:37Z</time>
      </trkpt>
      <trkpt lat="43.93738" lon="6.30749">
        <ele>1403.4</ele>
        <time>2019-11-01T09:58:38Z</time>
      </trkpt>
      <trkpt lat="43.93741" lon="6.30744">
        <ele>1403.2</ele>
        <time>2019-11-01T09:58:41Z</time>
      </trkpt>
      <trkpt lat="43.93745" lon="6.3074">
        <ele>1403.3</ele>
        <time>2019-11-01T09:58:44Z</time>
      </trkpt>
      <trkpt lat="43.93747" lon="6.30738">
        <ele>1403.6</ele>
        <time>2019-11-01T09:58:46Z</time>
      </trkpt>
      <trkpt lat="43.9375" lon="6.30735">
        <ele>1403.8</ele>
        <time>2019-11-01T09:58:48Z</time>
      </trkpt>
      <trkpt lat="43.93753" lon="6.30733">
        <ele>1403.6</ele>
        <time>2019-11-01T09:58:50Z</time>
      </trkpt>
      <trkpt lat="43.93756" lon="6.30729">
        <ele>1403.3</ele>
        <time>2019-11-01T09:58:52Z</time>
      </trkpt>
      <trkpt lat="43.93759" lon="6.30726">
        <ele>1403.7</ele>
        <time>2019-11-01T09:58:55Z</time>
      </trkpt>
      <trkpt lat="43.93763" lon="6.30722">
        <ele>1404.2</ele>
        <time>2019-11-01T09:58:57Z</time>
      </trkpt>
      <trkpt lat="43.93767" lon="6.3072">
        <ele>1403.6</ele>
        <time>2019-11-01T09:59:00Z</time>
      </trkpt>
      <trkpt lat="43.93769" lon="6.30718">
        <ele>1403.2</ele>
        <time>2019-11-01T09:59:01Z</time>
      </trkpt>
      <trkpt lat="43.93773" lon="6.30714">
        <ele>1402.4</ele>
        <time>2019-11-01T09:59:04Z</time>
      </trkpt>
      <trkpt lat="43.93776" lon="6.30712">
        <ele>1401.9</ele>
        <time>2019-11-01T09:59:06Z</time>
      </trkpt>
      <trkpt lat="43.9378" lon="6.30709">
        <ele>1401.1</ele>
        <time>2019-11-01T09:59:09Z</time>
      </trkpt>
      <trkpt lat="43.93782" lon="6.30707">
        <ele>1400.7</ele>
        <time>2019-11-01T09:59:10Z</time>
      </trkpt>
      <trkpt lat="43.93785" lon="6.30704">
        <ele>1400.8</ele>
        <time>2019-11-01T09:59:13Z</time>
      </trkpt>
      <trkpt lat="43.93789" lon="6.30701">
        <ele>1400.6</ele>
        <time>2019-11-01T09:59:15Z</time>
      </trkpt>
      <trkpt lat="43.93793" lon="6.30698">
        <ele>1400</ele>
        <time>2019-11-01T09:59:18Z</time>
      </trkpt>
      <trkpt lat="43.93795" lon="6.30696">
        <ele>1399.6</ele>
        <time>2019-11-01T09:59:20Z</time>
      </trkpt>
      <trkpt lat="43.93799" lon="6.30693">
        <ele>1399.2</ele>
        <time>2019-11-01T09:59:22Z</time>
      </trkpt>
      <trkpt lat="43.93802" lon="6.30692">
        <ele>1398.7</ele>
        <time>2019-11-01T09:59:24Z</time>
      </trkpt>
      <trkpt lat="43.93806" lon="6.30689">
        <ele>1397.7</ele>
        <time>2019-11-01T09:59:27Z</time>
      </trkpt>
      <trkpt lat="43.9381" lon="6.30686">
        <ele>1396.9</ele>
        <time>2019-11-01T09:59:30Z</time>
      </trkpt>
      <trkpt lat="43.93814" lon="6.30683">
        <ele>1396.7</ele>
        <time>2019-11-01T09:59:32Z</time>
      </trkpt>
      <trkpt lat="43.93817" lon="6.30682">
        <ele>1396.5</ele>
        <time>2019-11-01T09:59:34Z</time>
      </trkpt>
      <trkpt lat="43.93821" lon="6.30679">
        <ele>1396.2</ele>
        <time>2019-11-01T09:59:37Z</time>
      </trkpt>
      <trkpt lat="43.93824" lon="6.30677">
        <ele>1396</ele>
        <time>2019-11-01T09:59:39Z</time>
      </trkpt>
      <trkpt lat="43.93826" lon="6.30676">
        <ele>1395.9</ele>
        <time>2019-11-01T09:59:41Z</time>
      </trkpt>
      <trkpt lat="43.93831" lon="6.30674">
        <ele>1395.9</ele>
        <time>2019-11-01T09:59:43Z</time>
      </trkpt>
      <trkpt lat="43.93835" lon="6.30671">
        <ele>1395.7</ele>
        <time>2019-11-01T09:59:46Z</time>
      </trkpt>
      <trkpt lat="43.9384" lon="6.30668">
        <ele>1395.3</ele>
        <time>2019-11-01T09:59:50Z</time>
      </trkpt>
      <trkpt lat="43.93842" lon="6.30666">
        <ele>1395.3</ele>
        <time>2019-11-01T09:59:51Z</time>
      </trkpt>
      <trkpt lat="43.93845" lon="6.30664">
        <ele>1395.3</ele>
        <time>2019-11-01T09:59:53Z</time>
      </trkpt>
      <trkpt lat="43.93849" lon="6.30661">
        <ele>1395.2</ele>
        <time>2019-11-01T09:59:56Z</time>
      </trkpt>
      <trkpt lat="43.93852" lon="6.30659">
        <ele>1394.9</ele>
        <time>2019-11-01T09:59:58Z</time>
      </trkpt>
      <trkpt lat="43.93854" lon="6.30658">
        <ele>1394.7</ele>
        <time>2019-11-01T09:59:59Z</time>
      </trkpt>
      <trkpt lat="43.93857" lon="6.30656">
        <ele>1394.8</ele>
        <time>2019-11-01T10:00:02Z</time>
      </trkpt>
      <trkpt lat="43.9386" lon="6.30654">
        <ele>1395</ele>
        <time>2019-11-01T10:00:04Z</time>
      </trkpt>
      <trkpt lat="43.93865" lon="6.30652">
        <ele>1395.1</ele>
        <time>2019-11-01T10:00:07Z</time>
      </trkpt>
      <trkpt lat="43.93869" lon="6.30649">
        <ele>1394.9</ele>
        <time>2019-11-01T10:00:10Z</time>
      </trkpt>
      <trkpt lat="43.93873" lon="6.30647">
        <ele>1395</ele>
        <time>2019-11-01T10:00:12Z</time>
      </trkpt>
      <trkpt lat="43.93876" lon="6.30645">
        <ele>1395.2</ele>
        <time>2019-11-01T10:00:15Z</time>
      </trkpt>
      <trkpt lat="43.93881" lon="6.30642">
        <ele>1395.4</ele>
        <time>2019-11-01T10:00:17Z</time>
      </trkpt>
      <trkpt lat="43.93885" lon="6.3064">
        <ele>1395.7</ele>
        <time>2019-11-01T10:00:20Z</time>
      </trkpt>
      <trkpt lat="43.93889" lon="6.30638">
        <ele>1396</ele>
        <time>2019-11-01T10:00:23Z</time>
      </trkpt>
      <trkpt lat="43.93893" lon="6.30637">
        <ele>1396.4</ele>
        <time>2019-11-01T10:00:25Z</time>
      </trkpt>
      <trkpt lat="43.93897" lon="6.30636">
        <ele>1396.6</ele>
        <time>2019-11-01T10:00:28Z</time>
      </trkpt>
      <trkpt lat="43.93901" lon="6.30634">
        <ele>1396.7</ele>
        <time>2019-11-01T10:00:30Z</time>
      </trkpt>
      <trkpt lat="43.93904" lon="6.30634">
        <ele>1396.8</ele>
        <time>2019-11-01T10:00:32Z</time>
      </trkpt>
      <trkpt lat="43.93908" lon="6.30634">
        <ele>1397.3</ele>
        <time>2019-11-01T10:00:35Z</time>
      </trkpt>
      <trkpt lat="43.93913" lon="6.30632">
        <ele>1397.7</ele>
        <time>2019-11-01T10:00:38Z</time>
      </trkpt>
      <trkpt lat="43.93917" lon="6.30631">
        <ele>1397.8</ele>
        <time>2019-11-01T10:00:40Z</time>
      </trkpt>
      <trkpt lat="43.93921" lon="6.30629">
        <ele>1398</ele>
        <time>2019-11-01T10:00:43Z</time>
      </trkpt>
      <trkpt lat="43.93925" lon="6.30629">
        <ele>1398.4</ele>
        <time>2019-11-01T10:00:45Z</time>
      </trkpt>
      <trkpt lat="43.93927" lon="6.30628">
        <ele>1398.6</ele>
        <time>2019-11-01T10:00:47Z</time>
      </trkpt>
      <trkpt lat="43.93931" lon="6.30626">
        <ele>1398.9</ele>
        <time>2019-11-01T10:00:49Z</time>
      </trkpt>
      <trkpt lat="43.93934" lon="6.30625">
        <ele>1399.2</ele>
        <time>2019-11-01T10:00:51Z</time>
      </trkpt>
      <trkpt lat="43.93938" lon="6.30624">
        <ele>1399.6</ele>
        <time>2019-11-01T10:00:53Z</time>
      </trkpt>
      <trkpt lat="43.93942" lon="6.30623">
        <ele>1399.9</ele>
        <time>2019-11-01T10:00:56Z</time>
      </trkpt>
      <trkpt lat="43.93947" lon="6.30621">
        <ele>1400.2</ele>
        <time>2019-11-01T10:00:59Z</time>
      </trkpt>
      <trkpt lat="43.93951" lon="6.3062">
        <ele>1400.3</ele>
        <time>2019-11-01T10:01:01Z</time>
      </trkpt>
      <trkpt lat="43.93953" lon="6.3062">
        <ele>1400.4</ele>
        <time>2019-11-01T10:01:03Z</time>
      </trkpt>
      <trkpt lat="43.93958" lon="6.30619">
        <ele>1400.5</ele>
        <time>2019-11-01T10:01:06Z</time>
      </trkpt>
      <trkpt lat="43.93961" lon="6.30616">
        <ele>1400.5</ele>
        <time>2019-11-01T10:01:09Z</time>
      </trkpt>
      <trkpt lat="43.93962" lon="6.30611">
        <ele>1400.2</ele>
        <time>2019-11-01T10:01:12Z</time>
      </trkpt>
      <trkpt lat="43.93957" lon="6.30609">
        <ele>1399.8</ele>
        <time>2019-11-01T10:01:15Z</time>
      </trkpt>
      <trkpt lat="43.93954" lon="6.30609">
        <ele>1399.7</ele>
        <time>2019-11-01T10:01:17Z</time>
      </trkpt>
      <trkpt lat="43.9395" lon="6.3061">
        <ele>1399.6</ele>
        <time>2019-11-01T10:01:20Z</time>
      </trkpt>
      <trkpt lat="43.93946" lon="6.30612">
        <ele>1399.4</ele>
        <time>2019-11-01T10:01:22Z</time>
      </trkpt>
      <trkpt lat="43.93943" lon="6.30612">
        <ele>1399.3</ele>
        <time>2019-11-01T10:01:23Z</time>
      </trkpt>
      <trkpt lat="43.93939" lon="6.30612">
        <ele>1399.3</ele>
        <time>2019-11-01T10:01:26Z</time>
      </trkpt>
      <trkpt lat="43.93936" lon="6.30612">
        <ele>1399.2</ele>
        <time>2019-11-01T10:01:27Z</time>
      </trkpt>
      <trkpt lat="43.93932" lon="6.30612">
        <ele>1399.1</ele>
        <time>2019-11-01T10:01:29Z</time>
      </trkpt>
      <trkpt lat="43.93929" lon="6.30612">
        <ele>1399</ele>
        <time>2019-11-01T10:01:31Z</time>
      </trkpt>
      <trkpt lat="43.93924" lon="6.30613">
        <ele>1398.8</ele>
        <time>2019-11-01T10:01:33Z</time>
      </trkpt>
      <trkpt lat="43.93921" lon="6.30612">
        <ele>1398.8</ele>
        <time>2019-11-01T10:01:36Z</time>
      </trkpt>
      <trkpt lat="43.93917" lon="6.30612">
        <ele>1398.8</ele>
        <time>2019-11-01T10:01:38Z</time>
      </trkpt>
      <trkpt lat="43.93914" lon="6.30612">
        <ele>1398.8</ele>
        <time>2019-11-01T10:01:39Z</time>
      </trkpt>
      <trkpt lat="43.9391" lon="6.30613">
        <ele>1398.9</ele>
        <time>2019-11-01T10:01:42Z</time>
      </trkpt>
      <trkpt lat="43.93906" lon="6.30613">
        <ele>1399</ele>
        <time>2019-11-01T10:01:43Z</time>
      </trkpt>
      <trkpt lat="43.93904" lon="6.30613">
        <ele>1399.1</ele>
        <time>2019-11-01T10:01:44Z</time>
      </trkpt>
      <trkpt lat="43.939" lon="6.30613">
        <ele>1399.2</ele>
        <time>2019-11-01T10:01:46Z</time>
      </trkpt>
      <trkpt lat="43.93897" lon="6.30613">
        <ele>1399.3</ele>
        <time>2019-11-01T10:01:47Z</time>
      </trkpt>
      <trkpt lat="43.93892" lon="6.30614">
        <ele>1399.5</ele>
        <time>2019-11-01T10:01:49Z</time>
      </trkpt>
      <trkpt lat="43.93887" lon="6.30614">
        <ele>1399.8</ele>
        <time>2019-11-01T10:01:51Z</time>
      </trkpt>
      <trkpt lat="43.93881" lon="6.30615">
        <ele>1400.4</ele>
        <time>2019-11-01T10:01:54Z</time>
      </trkpt>
      <trkpt lat="43.93875" lon="6.30614">
        <ele>1400.9</ele>
        <time>2019-11-01T10:01:57Z</time>
      </trkpt>
      <trkpt lat="43.9387" lon="6.30615">
        <ele>1401.3</ele>
        <time>2019-11-01T10:01:59Z</time>
      </trkpt>
      <trkpt lat="43.93866" lon="6.30615">
        <ele>1401.8</ele>
        <time>2019-11-01T10:02:01Z</time>
      </trkpt>
      <trkpt lat="43.93863" lon="6.30615">
        <ele>1402.2</ele>
        <time>2019-11-01T10:02:02Z</time>
      </trkpt>
      <trkpt lat="43.93858" lon="6.30616">
        <ele>1403</ele>
        <time>2019-11-01T10:02:05Z</time>
      </trkpt>
      <trkpt lat="43.93855" lon="6.30616">
        <ele>1403.7</ele>
        <time>2019-11-01T10:02:06Z</time>
      </trkpt>
      <trkpt lat="43.93851" lon="6.30615">
        <ele>1404.5</ele>
        <time>2019-11-01T10:02:09Z</time>
      </trkpt>
      <trkpt lat="43.93847" lon="6.30615">
        <ele>1405.3</ele>
        <time>2019-11-01T10:02:11Z</time>
      </trkpt>
      <trkpt lat="43.93843" lon="6.30614">
        <ele>1406</ele>
        <time>2019-11-01T10:02:13Z</time>
      </trkpt>
      <trkpt lat="43.93839" lon="6.30614">
        <ele>1407.1</ele>
        <time>2019-11-01T10:02:15Z</time>
      </trkpt>
      <trkpt lat="43.93835" lon="6.30613">
        <ele>1407.8</ele>
        <time>2019-11-01T10:02:18Z</time>
      </trkpt>
      <trkpt lat="43.93832" lon="6.30614">
        <ele>1408.5</ele>
        <time>2019-11-01T10:02:20Z</time>
      </trkpt>
      <trkpt lat="43.93828" lon="6.30612">
        <ele>1409.3</ele>
        <time>2019-11-01T10:02:23Z</time>
      </trkpt>
      <trkpt lat="43.93824" lon="6.30612">
        <ele>1410.1</ele>
        <time>2019-11-01T10:02:25Z</time>
      </trkpt>
      <trkpt lat="43.9382" lon="6.30611">
        <ele>1411.3</ele>
        <time>2019-11-01T10:02:27Z</time>
      </trkpt>
      <trkpt lat="43.93816" lon="6.3061">
        <ele>1412.3</ele>
        <time>2019-11-01T10:02:30Z</time>
      </trkpt>
      <trkpt lat="43.93813" lon="6.3061">
        <ele>1413.3</ele>
        <time>2019-11-01T10:02:31Z</time>
      </trkpt>
      <trkpt lat="43.93808" lon="6.30608">
        <ele>1414.8</ele>
        <time>2019-11-01T10:02:34Z</time>
      </trkpt>
      <trkpt lat="43.93805" lon="6.30607">
        <ele>1415.7</ele>
        <time>2019-11-01T10:02:36Z</time>
      </trkpt>
      <trkpt lat="43.93802" lon="6.30606">
        <ele>1416.7</ele>
        <time>2019-11-01T10:02:38Z</time>
      </trkpt>
      <trkpt lat="43.93799" lon="6.30605">
        <ele>1417.4</ele>
        <time>2019-11-01T10:02:39Z</time>
      </trkpt>
      <trkpt lat="43.93794" lon="6.30603">
        <ele>1419.1</ele>
        <time>2019-11-01T10:02:42Z</time>
      </trkpt>
      <trkpt lat="43.93791" lon="6.30602">
        <ele>1420.4</ele>
        <time>2019-11-01T10:02:43Z</time>
      </trkpt>
      <trkpt lat="43.93788" lon="6.306">
        <ele>1421.5</ele>
        <time>2019-11-01T10:02:45Z</time>
      </trkpt>
      <trkpt lat="43.93786" lon="6.30599">
        <ele>1422.4</ele>
        <time>2019-11-01T10:02:46Z</time>
      </trkpt>
      <trkpt lat="43.93782" lon="6.30598">
        <ele>1423.3</ele>
        <time>2019-11-01T10:02:48Z</time>
      </trkpt>
      <trkpt lat="43.93777" lon="6.30595">
        <ele>1425.3</ele>
        <time>2019-11-01T10:02:50Z</time>
      </trkpt>
      <trkpt lat="43.93774" lon="6.30594">
        <ele>1426.4</ele>
        <time>2019-11-01T10:02:52Z</time>
      </trkpt>
      <trkpt lat="43.9377" lon="6.30591">
        <ele>1427.6</ele>
        <time>2019-11-01T10:02:53Z</time>
      </trkpt>
      <trkpt lat="43.93765" lon="6.30588">
        <ele>1428.1</ele>
        <time>2019-11-01T10:02:56Z</time>
      </trkpt>
      <trkpt lat="43.9376" lon="6.30585">
        <ele>1429.3</ele>
        <time>2019-11-01T10:02:58Z</time>
      </trkpt>
      <trkpt lat="43.93756" lon="6.30583">
        <ele>1430.3</ele>
        <time>2019-11-01T10:02:59Z</time>
      </trkpt>
      <trkpt lat="43.93751" lon="6.3058">
        <ele>1431.4</ele>
        <time>2019-11-01T10:03:02Z</time>
      </trkpt>
      <trkpt lat="43.93748" lon="6.30578">
        <ele>1432.2</ele>
        <time>2019-11-01T10:03:03Z</time>
      </trkpt>
      <trkpt lat="43.93745" lon="6.30576">
        <ele>1432.8</ele>
        <time>2019-11-01T10:03:05Z</time>
      </trkpt>
      <trkpt lat="43.93741" lon="6.30574">
        <ele>1433.6</ele>
        <time>2019-11-01T10:03:07Z</time>
      </trkpt>
      <trkpt lat="43.93738" lon="6.30572">
        <ele>1434.1</ele>
        <time>2019-11-01T10:03:09Z</time>
      </trkpt>
      <trkpt lat="43.93734" lon="6.30569">
        <ele>1434.1</ele>
        <time>2019-11-01T10:03:10Z</time>
      </trkpt>
      <trkpt lat="43.93731" lon="6.30565">
        <ele>1434.4</ele>
        <time>2019-11-01T10:03:13Z</time>
      </trkpt>
      <trkpt lat="43.93729" lon="6.30561">
        <ele>1434.7</ele>
        <time>2019-11-01T10:03:14Z</time>
      </trkpt>
      <trkpt lat="43.93726" lon="6.30557">
        <ele>1434.7</ele>
        <time>2019-11-01T10:03:16Z</time>
      </trkpt>
      <trkpt lat="43.93721" lon="6.30551">
        <ele>1434.8</ele>
        <time>2019-11-01T10:03:19Z</time>
      </trkpt>
      <trkpt lat="43.93716" lon="6.30548">
        <ele>1434.9</ele>
        <time>2019-11-01T10:03:22Z</time>
      </trkpt>
      <trkpt lat="43.93711" lon="6.30546">
        <ele>1434.5</ele>
        <time>2019-11-01T10:03:24Z</time>
      </trkpt>
      <trkpt lat="43.93708" lon="6.30544">
        <ele>1434.3</ele>
        <time>2019-11-01T10:03:26Z</time>
      </trkpt>
      <trkpt lat="43.93703" lon="6.30542">
        <ele>1434.5</ele>
        <time>2019-11-01T10:03:28Z</time>
      </trkpt>
      <trkpt lat="43.937" lon="6.30542">
        <ele>1435</ele>
        <time>2019-11-01T10:03:29Z</time>
      </trkpt>
      <trkpt lat="43.93694" lon="6.30541">
        <ele>1436</ele>
        <time>2019-11-01T10:03:32Z</time>
      </trkpt>
      <trkpt lat="43.93691" lon="6.30541">
        <ele>1436.4</ele>
        <time>2019-11-01T10:03:34Z</time>
      </trkpt>
      <trkpt lat="43.93688" lon="6.30541">
        <ele>1436.7</ele>
        <time>2019-11-01T10:03:35Z</time>
      </trkpt>
      <trkpt lat="43.93683" lon="6.30541">
        <ele>1437.2</ele>
        <time>2019-11-01T10:03:37Z</time>
      </trkpt>
      <trkpt lat="43.93679" lon="6.3054">
        <ele>1437.7</ele>
        <time>2019-11-01T10:03:38Z</time>
      </trkpt>
      <trkpt lat="43.93675" lon="6.3054">
        <ele>1438.2</ele>
        <time>2019-11-01T10:03:40Z</time>
      </trkpt>
      <trkpt lat="43.93669" lon="6.3054">
        <ele>1438.6</ele>
        <time>2019-11-01T10:03:43Z</time>
      </trkpt>
      <trkpt lat="43.93666" lon="6.3054">
        <ele>1438.9</ele>
        <time>2019-11-01T10:03:45Z</time>
      </trkpt>
      <trkpt lat="43.93662" lon="6.3054">
        <ele>1439.3</ele>
        <time>2019-11-01T10:03:46Z</time>
      </trkpt>
      <trkpt lat="43.93658" lon="6.30541">
        <ele>1439.5</ele>
        <time>2019-11-01T10:03:48Z</time>
      </trkpt>
      <trkpt lat="43.93655" lon="6.30542">
        <ele>1439.7</ele>
        <time>2019-11-01T10:03:49Z</time>
      </trkpt>
      <trkpt lat="43.9365" lon="6.30544">
        <ele>1440.1</ele>
        <time>2019-11-01T10:03:52Z</time>
      </trkpt>
      <trkpt lat="43.93647" lon="6.30545">
        <ele>1440.7</ele>
        <time>2019-11-01T10:03:53Z</time>
      </trkpt>
      <trkpt lat="43.93643" lon="6.30546">
        <ele>1441.5</ele>
        <time>2019-11-01T10:03:55Z</time>
      </trkpt>
      <trkpt lat="43.93639" lon="6.30546">
        <ele>1441.5</ele>
        <time>2019-11-01T10:03:57Z</time>
      </trkpt>
      <trkpt lat="43.93635" lon="6.30545">
        <ele>1441.6</ele>
        <time>2019-11-01T10:03:59Z</time>
      </trkpt>
      <trkpt lat="43.93631" lon="6.30545">
        <ele>1441.7</ele>
        <time>2019-11-01T10:04:00Z</time>
      </trkpt>
      <trkpt lat="43.93625" lon="6.30545">
        <ele>1441.8</ele>
        <time>2019-11-01T10:04:03Z</time>
      </trkpt>
      <trkpt lat="43.93621" lon="6.30545">
        <ele>1441.8</ele>
        <time>2019-11-01T10:04:06Z</time>
      </trkpt>
      <trkpt lat="43.93618" lon="6.30545">
        <ele>1442</ele>
        <time>2019-11-01T10:04:07Z</time>
      </trkpt>
      <trkpt lat="43.93612" lon="6.30546">
        <ele>1442.2</ele>
        <time>2019-11-01T10:04:09Z</time>
      </trkpt>
      <trkpt lat="43.93609" lon="6.30546">
        <ele>1442.3</ele>
        <time>2019-11-01T10:04:10Z</time>
      </trkpt>
      <trkpt lat="43.93605" lon="6.30547">
        <ele>1442.5</ele>
        <time>2019-11-01T10:04:12Z</time>
      </trkpt>
      <trkpt lat="43.93602" lon="6.30548">
        <ele>1442.6</ele>
        <time>2019-11-01T10:04:13Z</time>
      </trkpt>
      <trkpt lat="43.93598" lon="6.30548">
        <ele>1442.8</ele>
        <time>2019-11-01T10:04:15Z</time>
      </trkpt>
      <trkpt lat="43.93592" lon="6.30551">
        <ele>1444.4</ele>
        <time>2019-11-01T10:04:18Z</time>
      </trkpt>
      <trkpt lat="43.93589" lon="6.30552">
        <ele>1444.6</ele>
        <time>2019-11-01T10:04:19Z</time>
      </trkpt>
      <trkpt lat="43.93585" lon="6.30554">
        <ele>1444.8</ele>
        <time>2019-11-01T10:04:21Z</time>
      </trkpt>
      <trkpt lat="43.93581" lon="6.30554">
        <ele>1445.5</ele>
        <time>2019-11-01T10:04:23Z</time>
      </trkpt>
      <trkpt lat="43.93575" lon="6.30556">
        <ele>1446.7</ele>
        <time>2019-11-01T10:04:26Z</time>
      </trkpt>
      <trkpt lat="43.93571" lon="6.30556">
        <ele>1446.8</ele>
        <time>2019-11-01T10:04:27Z</time>
      </trkpt>
      <trkpt lat="43.93567" lon="6.30557">
        <ele>1447.1</ele>
        <time>2019-11-01T10:04:28Z</time>
      </trkpt>
      <trkpt lat="43.93564" lon="6.30557">
        <ele>1447.8</ele>
        <time>2019-11-01T10:04:29Z</time>
      </trkpt>
      <trkpt lat="43.9356" lon="6.30558">
        <ele>1448.6</ele>
        <time>2019-11-01T10:04:31Z</time>
      </trkpt>
      <trkpt lat="43.93556" lon="6.30559">
        <ele>1449</ele>
        <time>2019-11-01T10:04:33Z</time>
      </trkpt>
      <trkpt lat="43.93553" lon="6.3056">
        <ele>1449.2</ele>
        <time>2019-11-01T10:04:34Z</time>
      </trkpt>
      <trkpt lat="43.93545" lon="6.30561">
        <ele>1450.7</ele>
        <time>2019-11-01T10:04:37Z</time>
      </trkpt>
      <trkpt lat="43.93542" lon="6.30561">
        <ele>1451.4</ele>
        <time>2019-11-01T10:04:38Z</time>
      </trkpt>
      <trkpt lat="43.93537" lon="6.30562">
        <ele>1451.6</ele>
        <time>2019-11-01T10:04:40Z</time>
      </trkpt>
      <trkpt lat="43.93533" lon="6.30561">
        <ele>1451.7</ele>
        <time>2019-11-01T10:04:41Z</time>
      </trkpt>
      <trkpt lat="43.93526" lon="6.3056">
        <ele>1450.9</ele>
        <time>2019-11-01T10:04:43Z</time>
      </trkpt>
      <trkpt lat="43.93523" lon="6.30559">
        <ele>1450.3</ele>
        <time>2019-11-01T10:04:45Z</time>
      </trkpt>
      <trkpt lat="43.93519" lon="6.30558">
        <ele>1450.3</ele>
        <time>2019-11-01T10:04:46Z</time>
      </trkpt>
      <trkpt lat="43.93516" lon="6.30557">
        <ele>1450.3</ele>
        <time>2019-11-01T10:04:47Z</time>
      </trkpt>
      <trkpt lat="43.93512" lon="6.30555">
        <ele>1449.5</ele>
        <time>2019-11-01T10:04:49Z</time>
      </trkpt>
      <trkpt lat="43.93508" lon="6.30553">
        <ele>1448.6</ele>
        <time>2019-11-01T10:04:50Z</time>
      </trkpt>
      <trkpt lat="43.93505" lon="6.30553">
        <ele>1448.5</ele>
        <time>2019-11-01T10:04:51Z</time>
      </trkpt>
      <trkpt lat="43.93501" lon="6.30552">
        <ele>1448.5</ele>
        <time>2019-11-01T10:04:53Z</time>
      </trkpt>
      <trkpt lat="43.93495" lon="6.30557">
        <ele>1449.8</ele>
        <time>2019-11-01T10:04:56Z</time>
      </trkpt>
      <trkpt lat="43.93491" lon="6.30559">
        <ele>1450.7</ele>
        <time>2019-11-01T10:04:57Z</time>
      </trkpt>
      <trkpt lat="43.93485" lon="6.30562">
        <ele>1451.9</ele>
        <time>2019-11-01T10:04:59Z</time>
      </trkpt>
      <trkpt lat="43.93483" lon="6.30563">
        <ele>1451.9</ele>
        <time>2019-11-01T10:05:00Z</time>
      </trkpt>
      <trkpt lat="43.9348" lon="6.30566">
        <ele>1451.9</ele>
        <time>2019-11-01T10:05:01Z</time>
      </trkpt>
      <trkpt lat="43.93477" lon="6.30567">
        <ele>1452.3</ele>
        <time>2019-11-01T10:05:02Z</time>
      </trkpt>
      <trkpt lat="43.93474" lon="6.30568">
        <ele>1453</ele>
        <time>2019-11-01T10:05:04Z</time>
      </trkpt>
      <trkpt lat="43.9347" lon="6.30571">
        <ele>1454.1</ele>
        <time>2019-11-01T10:05:05Z</time>
      </trkpt>
      <trkpt lat="43.93463" lon="6.30574">
        <ele>1455.4</ele>
        <time>2019-11-01T10:05:07Z</time>
      </trkpt>
      <trkpt lat="43.93457" lon="6.30575">
        <ele>1455.1</ele>
        <time>2019-11-01T10:05:08Z</time>
      </trkpt>
      <trkpt lat="43.93453" lon="6.30575">
        <ele>1454.8</ele>
        <time>2019-11-01T10:05:09Z</time>
      </trkpt>
      <trkpt lat="43.9345" lon="6.30575">
        <ele>1454.6</ele>
        <time>2019-11-01T10:05:11Z</time>
      </trkpt>
      <trkpt lat="43.93446" lon="6.30575">
        <ele>1454.2</ele>
        <time>2019-11-01T10:05:12Z</time>
      </trkpt>
      <trkpt lat="43.93442" lon="6.30574">
        <ele>1453.7</ele>
        <time>2019-11-01T10:05:13Z</time>
      </trkpt>
      <trkpt lat="43.93437" lon="6.30574">
        <ele>1453.2</ele>
        <time>2019-11-01T10:05:16Z</time>
      </trkpt>
      <trkpt lat="43.93434" lon="6.30573">
        <ele>1453</ele>
        <time>2019-11-01T10:06:57Z</time>
      </trkpt>
      <trkpt lat="43.93431" lon="6.30573">
        <ele>1452.7</ele>
        <time>2019-11-01T10:06:59Z</time>
      </trkpt>
      <trkpt lat="43.93427" lon="6.30574">
        <ele>1452.3</ele>
        <time>2019-11-01T10:07:01Z</time>
      </trkpt>
      <trkpt lat="43.93422" lon="6.30574">
        <ele>1451.9</ele>
        <time>2019-11-01T10:07:04Z</time>
      </trkpt>
      <trkpt lat="43.93418" lon="6.30573">
        <ele>1451.7</ele>
        <time>2019-11-01T10:07:06Z</time>
      </trkpt>
      <trkpt lat="43.93415" lon="6.30573">
        <ele>1451.5</ele>
        <time>2019-11-01T10:07:07Z</time>
      </trkpt>
      <trkpt lat="43.93412" lon="6.30573">
        <ele>1451.1</ele>
        <time>2019-11-01T10:07:08Z</time>
      </trkpt>
      <trkpt lat="43.93407" lon="6.30572">
        <ele>1450.5</ele>
        <time>2019-11-01T10:07:10Z</time>
      </trkpt>
      <trkpt lat="43.93403" lon="6.30571">
        <ele>1450.1</ele>
        <time>2019-11-01T10:07:11Z</time>
      </trkpt>
      <trkpt lat="43.93395" lon="6.30568">
        <ele>1447</ele>
        <time>2019-11-01T10:07:13Z</time>
      </trkpt>
      <trkpt lat="43.93391" lon="6.30567">
        <ele>1446.1</ele>
        <time>2019-11-01T10:07:14Z</time>
      </trkpt>
      <trkpt lat="43.93386" lon="6.30565">
        <ele>1444.9</ele>
        <time>2019-11-01T10:07:15Z</time>
      </trkpt>
      <trkpt lat="43.93377" lon="6.30563">
        <ele>1441.5</ele>
        <time>2019-11-01T10:07:17Z</time>
      </trkpt>
      <trkpt lat="43.93371" lon="6.30564">
        <ele>1440.2</ele>
        <time>2019-11-01T10:07:20Z</time>
      </trkpt>
      <trkpt lat="43.93367" lon="6.30566">
        <ele>1439.6</ele>
        <time>2019-11-01T10:07:21Z</time>
      </trkpt>
      <trkpt lat="43.93363" lon="6.30569">
        <ele>1441</ele>
        <time>2019-11-01T10:07:22Z</time>
      </trkpt>
      <trkpt lat="43.9336" lon="6.30571">
        <ele>1441.7</ele>
        <time>2019-11-01T10:07:24Z</time>
      </trkpt>
      <trkpt lat="43.93356" lon="6.30575">
        <ele>1441.4</ele>
        <time>2019-11-01T10:07:25Z</time>
      </trkpt>
      <trkpt lat="43.93352" lon="6.30578">
        <ele>1441.6</ele>
        <time>2019-11-01T10:07:26Z</time>
      </trkpt>
      <trkpt lat="43.93348" lon="6.30581">
        <ele>1443</ele>
        <time>2019-11-01T10:07:27Z</time>
      </trkpt>
      <trkpt lat="43.93345" lon="6.30584">
        <ele>1443.6</ele>
        <time>2019-11-01T10:07:28Z</time>
      </trkpt>
      <trkpt lat="43.93341" lon="6.30585">
        <ele>1443.4</ele>
        <time>2019-11-01T10:07:29Z</time>
      </trkpt>
      <trkpt lat="43.93335" lon="6.30588">
        <ele>1443.1</ele>
        <time>2019-11-01T10:07:31Z</time>
      </trkpt>
      <trkpt lat="43.93332" lon="6.3059">
        <ele>1443.1</ele>
        <time>2019-11-01T10:07:32Z</time>
      </trkpt>
      <trkpt lat="43.93329" lon="6.30591">
        <ele>1443.1</ele>
        <time>2019-11-01T10:07:33Z</time>
      </trkpt>
      <trkpt lat="43.93324" lon="6.30594">
        <ele>1442.4</ele>
        <time>2019-11-01T10:07:35Z</time>
      </trkpt>
      <trkpt lat="43.93321" lon="6.30596">
        <ele>1441.9</ele>
        <time>2019-11-01T10:07:36Z</time>
      </trkpt>
      <trkpt lat="43.93316" lon="6.30599">
        <ele>1441.2</ele>
        <time>2019-11-01T10:07:38Z</time>
      </trkpt>
      <trkpt lat="43.93313" lon="6.30602">
        <ele>1440.7</ele>
        <time>2019-11-01T10:07:39Z</time>
      </trkpt>
      <trkpt lat="43.93308" lon="6.30604">
        <ele>1439.9</ele>
        <time>2019-11-01T10:07:40Z</time>
      </trkpt>
      <trkpt lat="43.933" lon="6.30609">
        <ele>1438.7</ele>
        <time>2019-11-01T10:07:42Z</time>
      </trkpt>
      <trkpt lat="43.93294" lon="6.30611">
        <ele>1438</ele>
        <time>2019-11-01T10:07:43Z</time>
      </trkpt>
      <trkpt lat="43.93291" lon="6.30614">
        <ele>1437.4</ele>
        <time>2019-11-01T10:07:45Z</time>
      </trkpt>
      <trkpt lat="43.93283" lon="6.30616">
        <ele>1436.6</ele>
        <time>2019-11-01T10:07:47Z</time>
      </trkpt>
      <trkpt lat="43.93279" lon="6.30618">
        <ele>1436.4</ele>
        <time>2019-11-01T10:07:48Z</time>
      </trkpt>
      <trkpt lat="43.93275" lon="6.30622">
        <ele>1436.1</ele>
        <time>2019-11-01T10:07:49Z</time>
      </trkpt>
      <trkpt lat="43.93271" lon="6.30625">
        <ele>1435.9</ele>
        <time>2019-11-01T10:07:50Z</time>
      </trkpt>
      <trkpt lat="43.93266" lon="6.30629">
        <ele>1435</ele>
        <time>2019-11-01T10:07:52Z</time>
      </trkpt>
      <trkpt lat="43.93263" lon="6.30635">
        <ele>1435.4</ele>
        <time>2019-11-01T10:07:54Z</time>
      </trkpt>
      <trkpt lat="43.93261" lon="6.30642">
        <ele>1437.2</ele>
        <time>2019-11-01T10:07:55Z</time>
      </trkpt>
      <trkpt lat="43.93258" lon="6.30652">
        <ele>1438.5</ele>
        <time>2019-11-01T10:07:57Z</time>
      </trkpt>
      <trkpt lat="43.93257" lon="6.30658">
        <ele>1439.7</ele>
        <time>2019-11-01T10:07:58Z</time>
      </trkpt>
      <trkpt lat="43.93255" lon="6.30665">
        <ele>1440.9</ele>
        <time>2019-11-01T10:07:59Z</time>
      </trkpt>
      <trkpt lat="43.93253" lon="6.30681">
        <ele>1443.2</ele>
        <time>2019-11-01T10:08:01Z</time>
      </trkpt>
      <trkpt lat="43.93249" lon="6.30695">
        <ele>1446.4</ele>
        <time>2019-11-01T10:08:03Z</time>
      </trkpt>
      <trkpt lat="43.93247" lon="6.30703">
        <ele>1447.6</ele>
        <time>2019-11-01T10:08:04Z</time>
      </trkpt>
      <trkpt lat="43.93244" lon="6.30711">
        <ele>1448.6</ele>
        <time>2019-11-01T10:08:05Z</time>
      </trkpt>
      <trkpt lat="43.93237" lon="6.30727">
        <ele>1449.7</ele>
        <time>2019-11-01T10:08:07Z</time>
      </trkpt>
      <trkpt lat="43.93229" lon="6.3074">
        <ele>1450.8</ele>
        <time>2019-11-01T10:08:09Z</time>
      </trkpt>
      <trkpt lat="43.93224" lon="6.30745">
        <ele>1450.2</ele>
        <time>2019-11-01T10:08:10Z</time>
      </trkpt>
      <trkpt lat="43.93213" lon="6.30753">
        <ele>1449.6</ele>
        <time>2019-11-01T10:08:12Z</time>
      </trkpt>
      <trkpt lat="43.93201" lon="6.30761">
        <ele>1447.4</ele>
        <time>2019-11-01T10:08:14Z</time>
      </trkpt>
      <trkpt lat="43.93196" lon="6.30766">
        <ele>1447.1</ele>
        <time>2019-11-01T10:08:15Z</time>
      </trkpt>
      <trkpt lat="43.93191" lon="6.30771">
        <ele>1447.4</ele>
        <time>2019-11-01T10:08:16Z</time>
      </trkpt>
      <trkpt lat="43.93187" lon="6.30777">
        <ele>1447.9</ele>
        <time>2019-11-01T10:08:17Z</time>
      </trkpt>
      <trkpt lat="43.93177" lon="6.30784">
        <ele>1448.2</ele>
        <time>2019-11-01T10:08:19Z</time>
      </trkpt>
      <trkpt lat="43.93165" lon="6.30789">
        <ele>1447</ele>
        <time>2019-11-01T10:08:21Z</time>
      </trkpt>
      <trkpt lat="43.93152" lon="6.30794">
        <ele>1443.6</ele>
        <time>2019-11-01T10:08:23Z</time>
      </trkpt>
      <trkpt lat="43.93146" lon="6.30796">
        <ele>1443.1</ele>
        <time>2019-11-01T10:08:24Z</time>
      </trkpt>
      <trkpt lat="43.9314" lon="6.30797">
        <ele>1442.4</ele>
        <time>2019-11-01T10:08:25Z</time>
      </trkpt>
      <trkpt lat="43.93127" lon="6.308">
        <ele>1439.9</ele>
        <time>2019-11-01T10:08:27Z</time>
      </trkpt>
      <trkpt lat="43.9312" lon="6.30802">
        <ele>1438.7</ele>
        <time>2019-11-01T10:08:28Z</time>
      </trkpt>
      <trkpt lat="43.93109" lon="6.30807">
        <ele>1437.7</ele>
        <time>2019-11-01T10:08:30Z</time>
      </trkpt>
      <trkpt lat="43.93105" lon="6.30808">
        <ele>1437.6</ele>
        <time>2019-11-01T10:08:31Z</time>
      </trkpt>
      <trkpt lat="43.931" lon="6.30809">
        <ele>1437.3</ele>
        <time>2019-11-01T10:08:33Z</time>
      </trkpt>
      <trkpt lat="43.93098" lon="6.30806">
        <ele>1436.5</ele>
        <time>2019-11-01T10:08:34Z</time>
      </trkpt>
      <trkpt lat="43.93098" lon="6.30801">
        <ele>1435</ele>
        <time>2019-11-01T10:08:35Z</time>
      </trkpt>
      <trkpt lat="43.93102" lon="6.30791">
        <ele>1433.4</ele>
        <time>2019-11-01T10:08:37Z</time>
      </trkpt>
      <trkpt lat="43.93112" lon="6.30784">
        <ele>1431.9</ele>
        <time>2019-11-01T10:08:39Z</time>
      </trkpt>
      <trkpt lat="43.93117" lon="6.30779">
        <ele>1431.8</ele>
        <time>2019-11-01T10:08:40Z</time>
      </trkpt>
      <trkpt lat="43.93122" lon="6.30773">
        <ele>1431.4</ele>
        <time>2019-11-01T10:08:41Z</time>
      </trkpt>
      <trkpt lat="43.93132" lon="6.3076">
        <ele>1430.5</ele>
        <time>2019-11-01T10:08:43Z</time>
      </trkpt>
      <trkpt lat="43.93141" lon="6.30747">
        <ele>1430.5</ele>
        <time>2019-11-01T10:08:45Z</time>
      </trkpt>
      <trkpt lat="43.9315" lon="6.30733">
        <ele>1428.8</ele>
        <time>2019-11-01T10:08:47Z</time>
      </trkpt>
      <trkpt lat="43.93153" lon="6.30725">
        <ele>1428.2</ele>
        <time>2019-11-01T10:08:48Z</time>
      </trkpt>
      <trkpt lat="43.93155" lon="6.30716">
        <ele>1427.5</ele>
        <time>2019-11-01T10:08:49Z</time>
      </trkpt>
      <trkpt lat="43.93158" lon="6.30708">
        <ele>1426.1</ele>
        <time>2019-11-01T10:08:50Z</time>
      </trkpt>
      <trkpt lat="43.93162" lon="6.30691">
        <ele>1423.1</ele>
        <time>2019-11-01T10:08:52Z</time>
      </trkpt>
      <trkpt lat="43.93163" lon="6.30674">
        <ele>1420.1</ele>
        <time>2019-11-01T10:08:54Z</time>
      </trkpt>
      <trkpt lat="43.93162" lon="6.30655">
        <ele>1416.4</ele>
        <time>2019-11-01T10:08:56Z</time>
      </trkpt>
      <trkpt lat="43.9316" lon="6.30635">
        <ele>1413.5</ele>
        <time>2019-11-01T10:08:58Z</time>
      </trkpt>
      <trkpt lat="43.9316" lon="6.30626">
        <ele>1411.7</ele>
        <time>2019-11-01T10:08:59Z</time>
      </trkpt>
      <trkpt lat="43.93161" lon="6.30612">
        <ele>1409.3</ele>
        <time>2019-11-01T10:09:01Z</time>
      </trkpt>
      <trkpt lat="43.93161" lon="6.30608">
        <ele>1408.6</ele>
        <time>2019-11-01T10:09:02Z</time>
      </trkpt>
      <trkpt lat="43.93157" lon="6.30604">
        <ele>1407.4</ele>
        <time>2019-11-01T10:09:04Z</time>
      </trkpt>
      <trkpt lat="43.9315" lon="6.30607">
        <ele>1407.1</ele>
        <time>2019-11-01T10:09:06Z</time>
      </trkpt>
      <trkpt lat="43.93146" lon="6.30616">
        <ele>1408.1</ele>
        <time>2019-11-01T10:09:08Z</time>
      </trkpt>
      <trkpt lat="43.93141" lon="6.3063">
        <ele>1408.7</ele>
        <time>2019-11-01T10:09:10Z</time>
      </trkpt>
      <trkpt lat="43.93138" lon="6.30635">
        <ele>1408.6</ele>
        <time>2019-11-01T10:09:11Z</time>
      </trkpt>
      <trkpt lat="43.93134" lon="6.30635">
        <ele>1407.9</ele>
        <time>2019-11-01T10:09:13Z</time>
      </trkpt>
      <trkpt lat="43.93123" lon="6.30634">
        <ele>1406.3</ele>
        <time>2019-11-01T10:09:15Z</time>
      </trkpt>
      <trkpt lat="43.93113" lon="6.30627">
        <ele>1403.1</ele>
        <time>2019-11-01T10:09:17Z</time>
      </trkpt>
      <trkpt lat="43.93105" lon="6.30623">
        <ele>1401.5</ele>
        <time>2019-11-01T10:09:19Z</time>
      </trkpt>
      <trkpt lat="43.93099" lon="6.30623">
        <ele>1400.6</ele>
        <time>2019-11-01T10:09:21Z</time>
      </trkpt>
      <trkpt lat="43.9309" lon="6.30632">
        <ele>1400.6</ele>
        <time>2019-11-01T10:09:24Z</time>
      </trkpt>
      <trkpt lat="43.93086" lon="6.30638">
        <ele>1401.1</ele>
        <time>2019-11-01T10:09:25Z</time>
      </trkpt>
      <trkpt lat="43.93079" lon="6.30649">
        <ele>1402.2</ele>
        <time>2019-11-01T10:09:27Z</time>
      </trkpt>
      <trkpt lat="43.93074" lon="6.30654">
        <ele>1402.5</ele>
        <time>2019-11-01T10:09:28Z</time>
      </trkpt>
      <trkpt lat="43.93066" lon="6.30661">
        <ele>1402.6</ele>
        <time>2019-11-01T10:09:30Z</time>
      </trkpt>
      <trkpt lat="43.93063" lon="6.30664">
        <ele>1402.1</ele>
        <time>2019-11-01T10:09:31Z</time>
      </trkpt>
      <trkpt lat="43.9306" lon="6.30666">
        <ele>1401.5</ele>
        <time>2019-11-01T10:09:32Z</time>
      </trkpt>
      <trkpt lat="43.93056" lon="6.30666">
        <ele>1400.4</ele>
        <time>2019-11-01T10:09:34Z</time>
      </trkpt>
      <trkpt lat="43.93056" lon="6.3066">
        <ele>1399.1</ele>
        <time>2019-11-01T10:09:36Z</time>
      </trkpt>
      <trkpt lat="43.93057" lon="6.30654">
        <ele>1398.4</ele>
        <time>2019-11-01T10:09:38Z</time>
      </trkpt>
      <trkpt lat="43.93059" lon="6.30651">
        <ele>1397.9</ele>
        <time>2019-11-01T10:09:41Z</time>
      </trkpt>
      <trkpt lat="43.93061" lon="6.30643">
        <ele>1396.1</ele>
        <time>2019-11-01T10:09:44Z</time>
      </trkpt>
      <trkpt lat="43.93061" lon="6.30636">
        <ele>1394.8</ele>
        <time>2019-11-01T10:09:46Z</time>
      </trkpt>
      <trkpt lat="43.93061" lon="6.30632">
        <ele>1394.2</ele>
        <time>2019-11-01T10:09:47Z</time>
      </trkpt>
      <trkpt lat="43.93063" lon="6.30627">
        <ele>1393.4</ele>
        <time>2019-11-01T10:09:48Z</time>
      </trkpt>
      <trkpt lat="43.93065" lon="6.30623">
        <ele>1392.7</ele>
        <time>2019-11-01T10:09:49Z</time>
      </trkpt>
      <trkpt lat="43.93068" lon="6.30618">
        <ele>1391.7</ele>
        <time>2019-11-01T10:09:51Z</time>
      </trkpt>
      <trkpt lat="43.9307" lon="6.30615">
        <ele>1391.6</ele>
        <time>2019-11-01T10:09:52Z</time>
      </trkpt>
      <trkpt lat="43.93076" lon="6.30611">
        <ele>1391.4</ele>
        <time>2019-11-01T10:09:53Z</time>
      </trkpt>
      <trkpt lat="43.93084" lon="6.30603">
        <ele>1391.6</ele>
        <time>2019-11-01T10:09:55Z</time>
      </trkpt>
      <trkpt lat="43.93093" lon="6.30594">
        <ele>1391.1</ele>
        <time>2019-11-01T10:09:57Z</time>
      </trkpt>
      <trkpt lat="43.93098" lon="6.30588">
        <ele>1390.7</ele>
        <time>2019-11-01T10:09:58Z</time>
      </trkpt>
      <trkpt lat="43.93106" lon="6.30576">
        <ele>1389.9</ele>
        <time>2019-11-01T10:10:00Z</time>
      </trkpt>
      <trkpt lat="43.93109" lon="6.30569">
        <ele>1389</ele>
        <time>2019-11-01T10:10:01Z</time>
      </trkpt>
      <trkpt lat="43.93112" lon="6.30561">
        <ele>1387.9</ele>
        <time>2019-11-01T10:10:02Z</time>
      </trkpt>
      <trkpt lat="43.93116" lon="6.30544">
        <ele>1385.5</ele>
        <time>2019-11-01T10:10:04Z</time>
      </trkpt>
      <trkpt lat="43.93118" lon="6.30535">
        <ele>1384.5</ele>
        <time>2019-11-01T10:10:05Z</time>
      </trkpt>
      <trkpt lat="43.93119" lon="6.30527">
        <ele>1383.1</ele>
        <time>2019-11-01T10:10:06Z</time>
      </trkpt>
      <trkpt lat="43.93123" lon="6.30514">
        <ele>1381.7</ele>
        <time>2019-11-01T10:10:08Z</time>
      </trkpt>
      <trkpt lat="43.93126" lon="6.30509">
        <ele>1381.3</ele>
        <time>2019-11-01T10:10:09Z</time>
      </trkpt>
      <trkpt lat="43.93132" lon="6.30499">
        <ele>1380.1</ele>
        <time>2019-11-01T10:10:11Z</time>
      </trkpt>
      <trkpt lat="43.9314" lon="6.30492">
        <ele>1380</ele>
        <time>2019-11-01T10:10:13Z</time>
      </trkpt>
      <trkpt lat="43.93149" lon="6.30488">
        <ele>1379.4</ele>
        <time>2019-11-01T10:10:15Z</time>
      </trkpt>
      <trkpt lat="43.93155" lon="6.30485">
        <ele>1380</ele>
        <time>2019-11-01T10:10:16Z</time>
      </trkpt>
      <trkpt lat="43.9316" lon="6.30483">
        <ele>1380.9</ele>
        <time>2019-11-01T10:10:17Z</time>
      </trkpt>
      <trkpt lat="43.93173" lon="6.30482">
        <ele>1382.6</ele>
        <time>2019-11-01T10:10:19Z</time>
      </trkpt>
      <trkpt lat="43.93179" lon="6.30481">
        <ele>1381.9</ele>
        <time>2019-11-01T10:10:20Z</time>
      </trkpt>
      <trkpt lat="43.93188" lon="6.30476">
        <ele>1379.1</ele>
        <time>2019-11-01T10:10:22Z</time>
      </trkpt>
      <trkpt lat="43.93191" lon="6.30463">
        <ele>1376.1</ele>
        <time>2019-11-01T10:10:24Z</time>
      </trkpt>
      <trkpt lat="43.93195" lon="6.30448">
        <ele>1372.7</ele>
        <time>2019-11-01T10:10:26Z</time>
      </trkpt>
      <trkpt lat="43.93197" lon="6.30442">
        <ele>1371</ele>
        <time>2019-11-01T10:10:27Z</time>
      </trkpt>
      <trkpt lat="43.93204" lon="6.30434">
        <ele>1369.2</ele>
        <time>2019-11-01T10:10:29Z</time>
      </trkpt>
      <trkpt lat="43.93207" lon="6.30433">
        <ele>1370.2</ele>
        <time>2019-11-01T10:10:30Z</time>
      </trkpt>
      <trkpt lat="43.93211" lon="6.30434">
        <ele>1371</ele>
        <time>2019-11-01T10:10:31Z</time>
      </trkpt>
      <trkpt lat="43.93217" lon="6.30437">
        <ele>1372.8</ele>
        <time>2019-11-01T10:10:33Z</time>
      </trkpt>
      <trkpt lat="43.93224" lon="6.3044">
        <ele>1373.7</ele>
        <time>2019-11-01T10:10:35Z</time>
      </trkpt>
      <trkpt lat="43.93227" lon="6.30442">
        <ele>1373.9</ele>
        <time>2019-11-01T10:10:36Z</time>
      </trkpt>
      <trkpt lat="43.93233" lon="6.30444">
        <ele>1374.3</ele>
        <time>2019-11-01T10:10:39Z</time>
      </trkpt>
      <trkpt lat="43.93236" lon="6.30444">
        <ele>1374.5</ele>
        <time>2019-11-01T10:10:40Z</time>
      </trkpt>
      <trkpt lat="43.9324" lon="6.30442">
        <ele>1374</ele>
        <time>2019-11-01T10:10:42Z</time>
      </trkpt>
      <trkpt lat="43.93242" lon="6.3044">
        <ele>1373.5</ele>
        <time>2019-11-01T10:10:43Z</time>
      </trkpt>
      <trkpt lat="43.93247" lon="6.30437">
        <ele>1372.5</ele>
        <time>2019-11-01T10:10:46Z</time>
      </trkpt>
      <trkpt lat="43.93253" lon="6.3043">
        <ele>1371.6</ele>
        <time>2019-11-01T10:10:48Z</time>
      </trkpt>
      <trkpt lat="43.93254" lon="6.30427">
        <ele>1371.3</ele>
        <time>2019-11-01T10:10:50Z</time>
      </trkpt>
      <trkpt lat="43.93258" lon="6.30423">
        <ele>1371</ele>
        <time>2019-11-01T10:10:52Z</time>
      </trkpt>
      <trkpt lat="43.93262" lon="6.30422">
        <ele>1371.4</ele>
        <time>2019-11-01T10:10:54Z</time>
      </trkpt>
      <trkpt lat="43.93265" lon="6.30424">
        <ele>1372.5</ele>
        <time>2019-11-01T10:10:58Z</time>
      </trkpt>
      <trkpt lat="43.9327" lon="6.30426">
        <ele>1373</ele>
        <time>2019-11-01T10:11:01Z</time>
      </trkpt>
      <trkpt lat="43.93274" lon="6.30428">
        <ele>1372.9</ele>
        <time>2019-11-01T10:11:03Z</time>
      </trkpt>
      <trkpt lat="43.93279" lon="6.30428">
        <ele>1372.3</ele>
        <time>2019-11-01T10:11:06Z</time>
      </trkpt>
      <trkpt lat="43.93283" lon="6.30425">
        <ele>1371</ele>
        <time>2019-11-01T10:11:09Z</time>
      </trkpt>
      <trkpt lat="43.93285" lon="6.30419">
        <ele>1369.5</ele>
        <time>2019-11-01T10:11:13Z</time>
      </trkpt>
      <trkpt lat="43.93287" lon="6.30414">
        <ele>1368.2</ele>
        <time>2019-11-01T10:11:15Z</time>
      </trkpt>
      <trkpt lat="43.93288" lon="6.30408">
        <ele>1366.5</ele>
        <time>2019-11-01T10:11:18Z</time>
      </trkpt>
      <trkpt lat="43.93289" lon="6.30405">
        <ele>1365.4</ele>
        <time>2019-11-01T10:11:20Z</time>
      </trkpt>
      <trkpt lat="43.93292" lon="6.30398">
        <ele>1364.6</ele>
        <time>2019-11-01T10:11:23Z</time>
      </trkpt>
      <trkpt lat="43.93295" lon="6.30396">
        <ele>1364.5</ele>
        <time>2019-11-01T10:11:24Z</time>
      </trkpt>
      <trkpt lat="43.93298" lon="6.30392">
        <ele>1364.3</ele>
        <time>2019-11-01T10:11:28Z</time>
      </trkpt>
      <trkpt lat="43.93301" lon="6.30389">
        <ele>1364.3</ele>
        <time>2019-11-01T10:11:33Z</time>
      </trkpt>
      <trkpt lat="43.93305" lon="6.30386">
        <ele>1364.5</ele>
        <time>2019-11-01T10:11:36Z</time>
      </trkpt>
      <trkpt lat="43.93309" lon="6.30385">
        <ele>1365.1</ele>
        <time>2019-11-01T10:11:38Z</time>
      </trkpt>
      <trkpt lat="43.93314" lon="6.30383">
        <ele>1365.9</ele>
        <time>2019-11-01T10:11:40Z</time>
      </trkpt>
      <trkpt lat="43.93318" lon="6.30381">
        <ele>1366.4</ele>
        <time>2019-11-01T10:11:42Z</time>
      </trkpt>
      <trkpt lat="43.93321" lon="6.30379">
        <ele>1366.6</ele>
        <time>2019-11-01T10:11:44Z</time>
      </trkpt>
      <trkpt lat="43.93324" lon="6.30379">
        <ele>1366.9</ele>
        <time>2019-11-01T10:11:47Z</time>
      </trkpt>
      <trkpt lat="43.93327" lon="6.30379">
        <ele>1367.4</ele>
        <time>2019-11-01T10:11:49Z</time>
      </trkpt>
      <trkpt lat="43.93331" lon="6.30378">
        <ele>1367.9</ele>
        <time>2019-11-01T10:11:51Z</time>
      </trkpt>
      <trkpt lat="43.93337" lon="6.30377">
        <ele>1367.6</ele>
        <time>2019-11-01T10:11:54Z</time>
      </trkpt>
      <trkpt lat="43.9334" lon="6.30377">
        <ele>1367.7</ele>
        <time>2019-11-01T10:11:56Z</time>
      </trkpt>
      <trkpt lat="43.93345" lon="6.30372">
        <ele>1366.7</ele>
        <time>2019-11-01T10:11:59Z</time>
      </trkpt>
      <trkpt lat="43.93348" lon="6.30366">
        <ele>1365.6</ele>
        <time>2019-11-01T10:12:03Z</time>
      </trkpt>
      <trkpt lat="43.9335" lon="6.30362">
        <ele>1365.1</ele>
        <time>2019-11-01T10:12:04Z</time>
      </trkpt>
      <trkpt lat="43.93354" lon="6.30356">
        <ele>1364.3</ele>
        <time>2019-11-01T10:12:07Z</time>
      </trkpt>
      <trkpt lat="43.93356" lon="6.30353">
        <ele>1363.9</ele>
        <time>2019-11-01T10:12:08Z</time>
      </trkpt>
      <trkpt lat="43.93358" lon="6.30348">
        <ele>1363.3</ele>
        <time>2019-11-01T10:12:09Z</time>
      </trkpt>
      <trkpt lat="43.93362" lon="6.30343">
        <ele>1362.2</ele>
        <time>2019-11-01T10:12:12Z</time>
      </trkpt>
      <trkpt lat="43.93367" lon="6.30337">
        <ele>1362.5</ele>
        <time>2019-11-01T10:12:15Z</time>
      </trkpt>
      <trkpt lat="43.93371" lon="6.30331">
        <ele>1361.7</ele>
        <time>2019-11-01T10:12:17Z</time>
      </trkpt>
      <trkpt lat="43.93373" lon="6.30329">
        <ele>1361.2</ele>
        <time>2019-11-01T10:12:18Z</time>
      </trkpt>
      <trkpt lat="43.93375" lon="6.30326">
        <ele>1361</ele>
        <time>2019-11-01T10:12:19Z</time>
      </trkpt>
      <trkpt lat="43.93377" lon="6.30322">
        <ele>1360.7</ele>
        <time>2019-11-01T10:12:20Z</time>
      </trkpt>
      <trkpt lat="43.93378" lon="6.30319">
        <ele>1360.6</ele>
        <time>2019-11-01T10:12:21Z</time>
      </trkpt>
      <trkpt lat="43.9338" lon="6.30315">
        <ele>1360.5</ele>
        <time>2019-11-01T10:12:22Z</time>
      </trkpt>
      <trkpt lat="43.93381" lon="6.30311">
        <ele>1360.1</ele>
        <time>2019-11-01T10:12:24Z</time>
      </trkpt>
      <trkpt lat="43.93383" lon="6.30307">
        <ele>1359.4</ele>
        <time>2019-11-01T10:12:26Z</time>
      </trkpt>
      <trkpt lat="43.93387" lon="6.30302">
        <ele>1359.6</ele>
        <time>2019-11-01T10:12:28Z</time>
      </trkpt>
      <trkpt lat="43.93391" lon="6.30297">
        <ele>1359.7</ele>
        <time>2019-11-01T10:12:31Z</time>
      </trkpt>
      <trkpt lat="43.93393" lon="6.30294">
        <ele>1359.5</ele>
        <time>2019-11-01T10:12:32Z</time>
      </trkpt>
      <trkpt lat="43.93397" lon="6.3029">
        <ele>1359.3</ele>
        <time>2019-11-01T10:12:33Z</time>
      </trkpt>
      <trkpt lat="43.93401" lon="6.30286">
        <ele>1359</ele>
        <time>2019-11-01T10:12:35Z</time>
      </trkpt>
      <trkpt lat="43.93404" lon="6.30284">
        <ele>1358.6</ele>
        <time>2019-11-01T10:12:36Z</time>
      </trkpt>
      <trkpt lat="43.93408" lon="6.3028">
        <ele>1358.2</ele>
        <time>2019-11-01T10:12:37Z</time>
      </trkpt>
      <trkpt lat="43.93411" lon="6.30276">
        <ele>1357.6</ele>
        <time>2019-11-01T10:12:40Z</time>
      </trkpt>
      <trkpt lat="43.93413" lon="6.30272">
        <ele>1357.2</ele>
        <time>2019-11-01T10:12:41Z</time>
      </trkpt>
      <trkpt lat="43.93416" lon="6.30267">
        <ele>1356.6</ele>
        <time>2019-11-01T10:12:43Z</time>
      </trkpt>
      <trkpt lat="43.93418" lon="6.30263">
        <ele>1356.2</ele>
        <time>2019-11-01T10:12:44Z</time>
      </trkpt>
      <trkpt lat="43.93424" lon="6.30254">
        <ele>1355.5</ele>
        <time>2019-11-01T10:12:46Z</time>
      </trkpt>
      <trkpt lat="43.93426" lon="6.30248">
        <ele>1354.5</ele>
        <time>2019-11-01T10:12:47Z</time>
      </trkpt>
      <trkpt lat="43.93429" lon="6.30246">
        <ele>1353.9</ele>
        <time>2019-11-01T10:12:49Z</time>
      </trkpt>
      <trkpt lat="43.93432" lon="6.30244">
        <ele>1353.4</ele>
        <time>2019-11-01T10:12:50Z</time>
      </trkpt>
      <trkpt lat="43.93435" lon="6.3024">
        <ele>1352.9</ele>
        <time>2019-11-01T10:12:51Z</time>
      </trkpt>
      <trkpt lat="43.9344" lon="6.3023">
        <ele>1351.8</ele>
        <time>2019-11-01T10:12:53Z</time>
      </trkpt>
      <trkpt lat="43.93443" lon="6.30226">
        <ele>1350.9</ele>
        <time>2019-11-01T10:12:54Z</time>
      </trkpt>
      <trkpt lat="43.93446" lon="6.30222">
        <ele>1350.6</ele>
        <time>2019-11-01T10:12:56Z</time>
      </trkpt>
      <trkpt lat="43.93449" lon="6.3022">
        <ele>1350.3</ele>
        <time>2019-11-01T10:12:57Z</time>
      </trkpt>
      <trkpt lat="43.93454" lon="6.30218">
        <ele>1349.6</ele>
        <time>2019-11-01T10:12:58Z</time>
      </trkpt>
      <trkpt lat="43.93459" lon="6.30218">
        <ele>1349.2</ele>
        <time>2019-11-01T10:13:01Z</time>
      </trkpt>
      <trkpt lat="43.93463" lon="6.30217">
        <ele>1348.9</ele>
        <time>2019-11-01T10:13:02Z</time>
      </trkpt>
      <trkpt lat="43.93466" lon="6.30216">
        <ele>1348.7</ele>
        <time>2019-11-01T10:13:04Z</time>
      </trkpt>
      <trkpt lat="43.93469" lon="6.30215">
        <ele>1348.4</ele>
        <time>2019-11-01T10:13:05Z</time>
      </trkpt>
      <trkpt lat="43.93474" lon="6.30215">
        <ele>1347.9</ele>
        <time>2019-11-01T10:13:07Z</time>
      </trkpt>
      <trkpt lat="43.9348" lon="6.30216">
        <ele>1347.2</ele>
        <time>2019-11-01T10:13:09Z</time>
      </trkpt>
      <trkpt lat="43.93485" lon="6.30216">
        <ele>1346.7</ele>
        <time>2019-11-01T10:13:11Z</time>
      </trkpt>
      <trkpt lat="43.93487" lon="6.30217">
        <ele>1346.5</ele>
        <time>2019-11-01T10:13:12Z</time>
      </trkpt>
      <trkpt lat="43.9349" lon="6.30218">
        <ele>1346.4</ele>
        <time>2019-11-01T10:13:13Z</time>
      </trkpt>
      <trkpt lat="43.93494" lon="6.3022">
        <ele>1346.1</ele>
        <time>2019-11-01T10:13:15Z</time>
      </trkpt>
      <trkpt lat="43.93499" lon="6.3022">
        <ele>1345.7</ele>
        <time>2019-11-01T10:13:17Z</time>
      </trkpt>
      <trkpt lat="43.93504" lon="6.3022">
        <ele>1344.5</ele>
        <time>2019-11-01T10:13:18Z</time>
      </trkpt>
      <trkpt lat="43.93509" lon="6.30219">
        <ele>1343</ele>
        <time>2019-11-01T10:13:20Z</time>
      </trkpt>
      <trkpt lat="43.93511" lon="6.30216">
        <ele>1342.5</ele>
        <time>2019-11-01T10:13:21Z</time>
      </trkpt>
      <trkpt lat="43.93513" lon="6.3021">
        <ele>1341.7</ele>
        <time>2019-11-01T10:13:23Z</time>
      </trkpt>
      <trkpt lat="43.93512" lon="6.30201">
        <ele>1341.2</ele>
        <time>2019-11-01T10:13:24Z</time>
      </trkpt>
      <trkpt lat="43.9351" lon="6.30197">
        <ele>1341.5</ele>
        <time>2019-11-01T10:13:25Z</time>
      </trkpt>
      <trkpt lat="43.93507" lon="6.30194">
        <ele>1341.8</ele>
        <time>2019-11-01T10:13:26Z</time>
      </trkpt>
      <trkpt lat="43.93504" lon="6.30192">
        <ele>1341.9</ele>
        <time>2019-11-01T10:13:27Z</time>
      </trkpt>
      <trkpt lat="43.93501" lon="6.3019">
        <ele>1342</ele>
        <time>2019-11-01T10:13:28Z</time>
      </trkpt>
      <trkpt lat="43.93498" lon="6.30187">
        <ele>1342</ele>
        <time>2019-11-01T10:13:30Z</time>
      </trkpt>
      <trkpt lat="43.93494" lon="6.30184">
        <ele>1342.1</ele>
        <time>2019-11-01T10:13:31Z</time>
      </trkpt>
      <trkpt lat="43.93488" lon="6.30183">
        <ele>1342.4</ele>
        <time>2019-11-01T10:13:32Z</time>
      </trkpt>
      <trkpt lat="43.93482" lon="6.3018">
        <ele>1342.7</ele>
        <time>2019-11-01T10:13:34Z</time>
      </trkpt>
      <trkpt lat="43.93476" lon="6.30177">
        <ele>1342.8</ele>
        <time>2019-11-01T10:13:35Z</time>
      </trkpt>
      <trkpt lat="43.93472" lon="6.30175">
        <ele>1342.8</ele>
        <time>2019-11-01T10:13:36Z</time>
      </trkpt>
      <trkpt lat="43.93467" lon="6.30167">
        <ele>1342.5</ele>
        <time>2019-11-01T10:13:39Z</time>
      </trkpt>
      <trkpt lat="43.93464" lon="6.30163">
        <ele>1342.3</ele>
        <time>2019-11-01T10:13:40Z</time>
      </trkpt>
      <trkpt lat="43.93462" lon="6.30159">
        <ele>1342.3</ele>
        <time>2019-11-01T10:13:41Z</time>
      </trkpt>
      <trkpt lat="43.93457" lon="6.3015">
        <ele>1342.1</ele>
        <time>2019-11-01T10:13:43Z</time>
      </trkpt>
      <trkpt lat="43.93453" lon="6.30145">
        <ele>1341.9</ele>
        <time>2019-11-01T10:13:44Z</time>
      </trkpt>
      <trkpt lat="43.93449" lon="6.30139">
        <ele>1341.6</ele>
        <time>2019-11-01T10:13:46Z</time>
      </trkpt>
      <trkpt lat="43.93445" lon="6.30133">
        <ele>1341.4</ele>
        <time>2019-11-01T10:13:47Z</time>
      </trkpt>
      <trkpt lat="43.93441" lon="6.30127">
        <ele>1341.5</ele>
        <time>2019-11-01T10:13:49Z</time>
      </trkpt>
      <trkpt lat="43.93437" lon="6.3012">
        <ele>1341.8</ele>
        <time>2019-11-01T10:13:51Z</time>
      </trkpt>
      <trkpt lat="43.93434" lon="6.30118">
        <ele>1342.1</ele>
        <time>2019-11-01T10:13:52Z</time>
      </trkpt>
      <trkpt lat="43.9343" lon="6.30116">
        <ele>1342.5</ele>
        <time>2019-11-01T10:13:53Z</time>
      </trkpt>
      <trkpt lat="43.93427" lon="6.30113">
        <ele>1343</ele>
        <time>2019-11-01T10:13:55Z</time>
      </trkpt>
      <trkpt lat="43.93423" lon="6.3011">
        <ele>1343.4</ele>
        <time>2019-11-01T10:13:56Z</time>
      </trkpt>
      <trkpt lat="43.9342" lon="6.30106">
        <ele>1343.6</ele>
        <time>2019-11-01T10:13:57Z</time>
      </trkpt>
      <trkpt lat="43.9342" lon="6.30099">
        <ele>1343.8</ele>
        <time>2019-11-01T10:13:58Z</time>
      </trkpt>
      <trkpt lat="43.93421" lon="6.30094">
        <ele>1343.8</ele>
        <time>2019-11-01T10:14:00Z</time>
      </trkpt>
      <trkpt lat="43.93425" lon="6.3009">
        <ele>1344</ele>
        <time>2019-11-01T10:14:02Z</time>
      </trkpt>
      <trkpt lat="43.93429" lon="6.30088">
        <ele>1344.2</ele>
        <time>2019-11-01T10:14:03Z</time>
      </trkpt>
      <trkpt lat="43.93433" lon="6.30086">
        <ele>1344.1</ele>
        <time>2019-11-01T10:14:05Z</time>
      </trkpt>
      <trkpt lat="43.93436" lon="6.30084">
        <ele>1344.1</ele>
        <time>2019-11-01T10:14:06Z</time>
      </trkpt>
      <trkpt lat="43.93441" lon="6.3008">
        <ele>1344.1</ele>
        <time>2019-11-01T10:14:07Z</time>
      </trkpt>
      <trkpt lat="43.93443" lon="6.30077">
        <ele>1344.3</ele>
        <time>2019-11-01T10:14:09Z</time>
      </trkpt>
      <trkpt lat="43.93446" lon="6.30073">
        <ele>1344.5</ele>
        <time>2019-11-01T10:14:10Z</time>
      </trkpt>
      <trkpt lat="43.93448" lon="6.30065">
        <ele>1344.5</ele>
        <time>2019-11-01T10:14:11Z</time>
      </trkpt>
      <trkpt lat="43.9345" lon="6.30059">
        <ele>1344.5</ele>
        <time>2019-11-01T10:14:13Z</time>
      </trkpt>
      <trkpt lat="43.93451" lon="6.30054">
        <ele>1344.5</ele>
        <time>2019-11-01T10:14:14Z</time>
      </trkpt>
      <trkpt lat="43.93453" lon="6.30046">
        <ele>1345</ele>
        <time>2019-11-01T10:14:15Z</time>
      </trkpt>
      <trkpt lat="43.93455" lon="6.30035">
        <ele>1345.8</ele>
        <time>2019-11-01T10:14:17Z</time>
      </trkpt>
      <trkpt lat="43.93456" lon="6.30028">
        <ele>1346.1</ele>
        <time>2019-11-01T10:14:18Z</time>
      </trkpt>
      <trkpt lat="43.93457" lon="6.30016">
        <ele>1346.3</ele>
        <time>2019-11-01T10:14:20Z</time>
      </trkpt>
      <trkpt lat="43.93458" lon="6.30012">
        <ele>1346.4</ele>
        <time>2019-11-01T10:14:21Z</time>
      </trkpt>
      <trkpt lat="43.93457" lon="6.30007">
        <ele>1346.3</ele>
        <time>2019-11-01T10:14:22Z</time>
      </trkpt>
      <trkpt lat="43.93461" lon="6.3">
        <ele>1345.6</ele>
        <time>2019-11-01T10:14:24Z</time>
      </trkpt>
      <trkpt lat="43.93464" lon="6.29998">
        <ele>1345</ele>
        <time>2019-11-01T10:14:25Z</time>
      </trkpt>
      <trkpt lat="43.93473" lon="6.29996">
        <ele>1343.3</ele>
        <time>2019-11-01T10:14:27Z</time>
      </trkpt>
      <trkpt lat="43.93479" lon="6.29994">
        <ele>1342.7</ele>
        <time>2019-11-01T10:14:28Z</time>
      </trkpt>
      <trkpt lat="43.93485" lon="6.29991">
        <ele>1341.6</ele>
        <time>2019-11-01T10:14:30Z</time>
      </trkpt>
      <trkpt lat="43.93489" lon="6.29989">
        <ele>1340.5</ele>
        <time>2019-11-01T10:14:31Z</time>
      </trkpt>
      <trkpt lat="43.93492" lon="6.29987">
        <ele>1339.5</ele>
        <time>2019-11-01T10:14:32Z</time>
      </trkpt>
      <trkpt lat="43.93499" lon="6.29982">
        <ele>1337.6</ele>
        <time>2019-11-01T10:14:34Z</time>
      </trkpt>
      <trkpt lat="43.93506" lon="6.2998">
        <ele>1335.8</ele>
        <time>2019-11-01T10:14:36Z</time>
      </trkpt>
      <trkpt lat="43.93512" lon="6.29975">
        <ele>1335.4</ele>
        <time>2019-11-01T10:14:38Z</time>
      </trkpt>
      <trkpt lat="43.93515" lon="6.29972">
        <ele>1335.2</ele>
        <time>2019-11-01T10:14:39Z</time>
      </trkpt>
      <trkpt lat="43.93518" lon="6.29967">
        <ele>1334.5</ele>
        <time>2019-11-01T10:14:40Z</time>
      </trkpt>
      <trkpt lat="43.93522" lon="6.29961">
        <ele>1334</ele>
        <time>2019-11-01T10:14:42Z</time>
      </trkpt>
      <trkpt lat="43.93524" lon="6.29957">
        <ele>1333.8</ele>
        <time>2019-11-01T10:14:43Z</time>
      </trkpt>
      <trkpt lat="43.93528" lon="6.29951">
        <ele>1333</ele>
        <time>2019-11-01T10:14:45Z</time>
      </trkpt>
      <trkpt lat="43.93532" lon="6.29944">
        <ele>1333</ele>
        <time>2019-11-01T10:14:46Z</time>
      </trkpt>
      <trkpt lat="43.93538" lon="6.29936">
        <ele>1331.5</ele>
        <time>2019-11-01T10:14:48Z</time>
      </trkpt>
      <trkpt lat="43.9354" lon="6.29931">
        <ele>1331.4</ele>
        <time>2019-11-01T10:14:49Z</time>
      </trkpt>
      <trkpt lat="43.93543" lon="6.2992">
        <ele>1332.5</ele>
        <time>2019-11-01T10:14:51Z</time>
      </trkpt>
      <trkpt lat="43.93545" lon="6.29915">
        <ele>1332.7</ele>
        <time>2019-11-01T10:14:52Z</time>
      </trkpt>
      <trkpt lat="43.93548" lon="6.29908">
        <ele>1332.8</ele>
        <time>2019-11-01T10:14:53Z</time>
      </trkpt>
      <trkpt lat="43.93551" lon="6.29903">
        <ele>1333</ele>
        <time>2019-11-01T10:14:55Z</time>
      </trkpt>
      <trkpt lat="43.93556" lon="6.29892">
        <ele>1332.9</ele>
        <time>2019-11-01T10:14:57Z</time>
      </trkpt>
      <trkpt lat="43.93558" lon="6.29887">
        <ele>1332.8</ele>
        <time>2019-11-01T10:14:58Z</time>
      </trkpt>
      <trkpt lat="43.93563" lon="6.29877">
        <ele>1333.4</ele>
        <time>2019-11-01T10:15:00Z</time>
      </trkpt>
      <trkpt lat="43.93569" lon="6.29866">
        <ele>1333.7</ele>
        <time>2019-11-01T10:15:02Z</time>
      </trkpt>
      <trkpt lat="43.93575" lon="6.29857">
        <ele>1333.2</ele>
        <time>2019-11-01T10:15:04Z</time>
      </trkpt>
      <trkpt lat="43.93578" lon="6.29852">
        <ele>1333.1</ele>
        <time>2019-11-01T10:15:05Z</time>
      </trkpt>
      <trkpt lat="43.93582" lon="6.29848">
        <ele>1332.9</ele>
        <time>2019-11-01T10:15:06Z</time>
      </trkpt>
      <trkpt lat="43.93588" lon="6.29839">
        <ele>1331.9</ele>
        <time>2019-11-01T10:15:08Z</time>
      </trkpt>
      <trkpt lat="43.93591" lon="6.29835">
        <ele>1331.6</ele>
        <time>2019-11-01T10:15:09Z</time>
      </trkpt>
      <trkpt lat="43.93598" lon="6.29826">
        <ele>1331.3</ele>
        <time>2019-11-01T10:15:11Z</time>
      </trkpt>
      <trkpt lat="43.93604" lon="6.29819">
        <ele>1331.1</ele>
        <time>2019-11-01T10:15:13Z</time>
      </trkpt>
      <trkpt lat="43.93611" lon="6.29812">
        <ele>1330.8</ele>
        <time>2019-11-01T10:15:15Z</time>
      </trkpt>
      <trkpt lat="43.93619" lon="6.2981">
        <ele>1330</ele>
        <time>2019-11-01T10:15:17Z</time>
      </trkpt>
      <trkpt lat="43.93623" lon="6.29808">
        <ele>1329.5</ele>
        <time>2019-11-01T10:15:18Z</time>
      </trkpt>
      <trkpt lat="43.93632" lon="6.29805">
        <ele>1328.4</ele>
        <time>2019-11-01T10:15:20Z</time>
      </trkpt>
      <trkpt lat="43.93635" lon="6.29801">
        <ele>1327.6</ele>
        <time>2019-11-01T10:15:21Z</time>
      </trkpt>
      <trkpt lat="43.93639" lon="6.298">
        <ele>1327.4</ele>
        <time>2019-11-01T10:15:23Z</time>
      </trkpt>
      <trkpt lat="43.93644" lon="6.29795">
        <ele>1327.3</ele>
        <time>2019-11-01T10:15:24Z</time>
      </trkpt>
      <trkpt lat="43.93648" lon="6.29789">
        <ele>1327.6</ele>
        <time>2019-11-01T10:15:26Z</time>
      </trkpt>
      <trkpt lat="43.93651" lon="6.29784">
        <ele>1328</ele>
        <time>2019-11-01T10:15:27Z</time>
      </trkpt>
      <trkpt lat="43.93654" lon="6.29778">
        <ele>1328.1</ele>
        <time>2019-11-01T10:15:28Z</time>
      </trkpt>
      <trkpt lat="43.93656" lon="6.29773">
        <ele>1328.5</ele>
        <time>2019-11-01T10:15:29Z</time>
      </trkpt>
      <trkpt lat="43.93662" lon="6.29764">
        <ele>1329.1</ele>
        <time>2019-11-01T10:15:31Z</time>
      </trkpt>
      <trkpt lat="43.93665" lon="6.2976">
        <ele>1329.2</ele>
        <time>2019-11-01T10:15:32Z</time>
      </trkpt>
      <trkpt lat="43.93672" lon="6.29753">
        <ele>1329.4</ele>
        <time>2019-11-01T10:15:34Z</time>
      </trkpt>
      <trkpt lat="43.93679" lon="6.29746">
        <ele>1329.2</ele>
        <time>2019-11-01T10:15:36Z</time>
      </trkpt>
      <trkpt lat="43.93687" lon="6.2974">
        <ele>1329.2</ele>
        <time>2019-11-01T10:15:38Z</time>
      </trkpt>
      <trkpt lat="43.93691" lon="6.29739">
        <ele>1329</ele>
        <time>2019-11-01T10:15:39Z</time>
      </trkpt>
      <trkpt lat="43.93696" lon="6.29738">
        <ele>1328.7</ele>
        <time>2019-11-01T10:15:40Z</time>
      </trkpt>
      <trkpt lat="43.937" lon="6.29737">
        <ele>1328.2</ele>
        <time>2019-11-01T10:15:41Z</time>
      </trkpt>
      <trkpt lat="43.93709" lon="6.29736">
        <ele>1327.2</ele>
        <time>2019-11-01T10:15:43Z</time>
      </trkpt>
      <trkpt lat="43.93713" lon="6.29735">
        <ele>1326.6</ele>
        <time>2019-11-01T10:15:44Z</time>
      </trkpt>
      <trkpt lat="43.93723" lon="6.29733">
        <ele>1326</ele>
        <time>2019-11-01T10:15:46Z</time>
      </trkpt>
      <trkpt lat="43.93732" lon="6.29734">
        <ele>1324.1</ele>
        <time>2019-11-01T10:15:48Z</time>
      </trkpt>
      <trkpt lat="43.93736" lon="6.29735">
        <ele>1323</ele>
        <time>2019-11-01T10:15:49Z</time>
      </trkpt>
      <trkpt lat="43.93745" lon="6.29739">
        <ele>1320.8</ele>
        <time>2019-11-01T10:15:51Z</time>
      </trkpt>
      <trkpt lat="43.93749" lon="6.29741">
        <ele>1320</ele>
        <time>2019-11-01T10:15:52Z</time>
      </trkpt>
      <trkpt lat="43.93759" lon="6.2974">
        <ele>1318.2</ele>
        <time>2019-11-01T10:15:54Z</time>
      </trkpt>
      <trkpt lat="43.93769" lon="6.2974">
        <ele>1317.4</ele>
        <time>2019-11-01T10:15:56Z</time>
      </trkpt>
      <trkpt lat="43.9378" lon="6.29739">
        <ele>1316.5</ele>
        <time>2019-11-01T10:15:58Z</time>
      </trkpt>
      <trkpt lat="43.93785" lon="6.29738">
        <ele>1315.7</ele>
        <time>2019-11-01T10:15:59Z</time>
      </trkpt>
      <trkpt lat="43.93789" lon="6.29736">
        <ele>1315.1</ele>
        <time>2019-11-01T10:16:00Z</time>
      </trkpt>
      <trkpt lat="43.93799" lon="6.2973">
        <ele>1315.5</ele>
        <time>2019-11-01T10:16:02Z</time>
      </trkpt>
      <trkpt lat="43.93807" lon="6.29724">
        <ele>1315.9</ele>
        <time>2019-11-01T10:16:04Z</time>
      </trkpt>
      <trkpt lat="43.93811" lon="6.2972">
        <ele>1316.3</ele>
        <time>2019-11-01T10:16:05Z</time>
      </trkpt>
      <trkpt lat="43.93814" lon="6.29716">
        <ele>1316.4</ele>
        <time>2019-11-01T10:16:06Z</time>
      </trkpt>
      <trkpt lat="43.93818" lon="6.29712">
        <ele>1316.8</ele>
        <time>2019-11-01T10:16:07Z</time>
      </trkpt>
      <trkpt lat="43.93824" lon="6.29703">
        <ele>1318.2</ele>
        <time>2019-11-01T10:16:09Z</time>
      </trkpt>
      <trkpt lat="43.93827" lon="6.29698">
        <ele>1318.7</ele>
        <time>2019-11-01T10:16:10Z</time>
      </trkpt>
      <trkpt lat="43.93832" lon="6.29688">
        <ele>1319.4</ele>
        <time>2019-11-01T10:16:12Z</time>
      </trkpt>
      <trkpt lat="43.93838" lon="6.29677">
        <ele>1320.2</ele>
        <time>2019-11-01T10:16:14Z</time>
      </trkpt>
      <trkpt lat="43.93843" lon="6.29667">
        <ele>1321.6</ele>
        <time>2019-11-01T10:16:16Z</time>
      </trkpt>
      <trkpt lat="43.93849" lon="6.29658">
        <ele>1322.4</ele>
        <time>2019-11-01T10:16:18Z</time>
      </trkpt>
      <trkpt lat="43.93852" lon="6.29653">
        <ele>1322.4</ele>
        <time>2019-11-01T10:16:19Z</time>
      </trkpt>
      <trkpt lat="43.93859" lon="6.29646">
        <ele>1322.5</ele>
        <time>2019-11-01T10:16:21Z</time>
      </trkpt>
      <trkpt lat="43.93862" lon="6.29642">
        <ele>1322.8</ele>
        <time>2019-11-01T10:16:22Z</time>
      </trkpt>
      <trkpt lat="43.93869" lon="6.29634">
        <ele>1323.5</ele>
        <time>2019-11-01T10:16:24Z</time>
      </trkpt>
      <trkpt lat="43.93872" lon="6.29631">
        <ele>1323.9</ele>
        <time>2019-11-01T10:16:25Z</time>
      </trkpt>
      <trkpt lat="43.93879" lon="6.29624">
        <ele>1324.5</ele>
        <time>2019-11-01T10:16:27Z</time>
      </trkpt>
      <trkpt lat="43.93886" lon="6.29618">
        <ele>1323.9</ele>
        <time>2019-11-01T10:16:29Z</time>
      </trkpt>
      <trkpt lat="43.93889" lon="6.29616">
        <ele>1323.8</ele>
        <time>2019-11-01T10:16:30Z</time>
      </trkpt>
      <trkpt lat="43.93896" lon="6.29613">
        <ele>1323.9</ele>
        <time>2019-11-01T10:16:32Z</time>
      </trkpt>
      <trkpt lat="43.93902" lon="6.29611">
        <ele>1323.8</ele>
        <time>2019-11-01T10:16:34Z</time>
      </trkpt>
      <trkpt lat="43.93905" lon="6.29608">
        <ele>1323.7</ele>
        <time>2019-11-01T10:16:35Z</time>
      </trkpt>
      <trkpt lat="43.93911" lon="6.29606">
        <ele>1323.8</ele>
        <time>2019-11-01T10:16:37Z</time>
      </trkpt>
      <trkpt lat="43.93915" lon="6.29606">
        <ele>1323.8</ele>
        <time>2019-11-01T10:16:38Z</time>
      </trkpt>
      <trkpt lat="43.9392" lon="6.29605">
        <ele>1323.3</ele>
        <time>2019-11-01T10:16:39Z</time>
      </trkpt>
      <trkpt lat="43.93924" lon="6.29604">
        <ele>1323</ele>
        <time>2019-11-01T10:16:40Z</time>
      </trkpt>
      <trkpt lat="43.93928" lon="6.29603">
        <ele>1323.1</ele>
        <time>2019-11-01T10:16:41Z</time>
      </trkpt>
      <trkpt lat="43.93932" lon="6.29602">
        <ele>1323.2</ele>
        <time>2019-11-01T10:16:42Z</time>
      </trkpt>
      <trkpt lat="43.93937" lon="6.296">
        <ele>1322.7</ele>
        <time>2019-11-01T10:16:44Z</time>
      </trkpt>
      <trkpt lat="43.93941" lon="6.29598">
        <ele>1322.6</ele>
        <time>2019-11-01T10:16:45Z</time>
      </trkpt>
      <trkpt lat="43.93946" lon="6.29596">
        <ele>1322.7</ele>
        <time>2019-11-01T10:16:46Z</time>
      </trkpt>
      <trkpt lat="43.93949" lon="6.29594">
        <ele>1322.9</ele>
        <time>2019-11-01T10:16:47Z</time>
      </trkpt>
      <trkpt lat="43.93953" lon="6.29591">
        <ele>1323.1</ele>
        <time>2019-11-01T10:16:48Z</time>
      </trkpt>
      <trkpt lat="43.93958" lon="6.29588">
        <ele>1323.8</ele>
        <time>2019-11-01T10:16:50Z</time>
      </trkpt>
      <trkpt lat="43.93961" lon="6.29587">
        <ele>1324.3</ele>
        <time>2019-11-01T10:16:51Z</time>
      </trkpt>
      <trkpt lat="43.93965" lon="6.29586">
        <ele>1324.3</ele>
        <time>2019-11-01T10:16:52Z</time>
      </trkpt>
      <trkpt lat="43.93969" lon="6.29586">
        <ele>1324</ele>
        <time>2019-11-01T10:16:53Z</time>
      </trkpt>
      <trkpt lat="43.93973" lon="6.29587">
        <ele>1323.6</ele>
        <time>2019-11-01T10:16:54Z</time>
      </trkpt>
      <trkpt lat="43.93979" lon="6.29587">
        <ele>1323.2</ele>
        <time>2019-11-01T10:16:56Z</time>
      </trkpt>
      <trkpt lat="43.93983" lon="6.29586">
        <ele>1322.7</ele>
        <time>2019-11-01T10:16:57Z</time>
      </trkpt>
      <trkpt lat="43.93987" lon="6.29586">
        <ele>1322.1</ele>
        <time>2019-11-01T10:16:58Z</time>
      </trkpt>
      <trkpt lat="43.93993" lon="6.29585">
        <ele>1321.6</ele>
        <time>2019-11-01T10:17:00Z</time>
      </trkpt>
      <trkpt lat="43.94" lon="6.29584">
        <ele>1320.5</ele>
        <time>2019-11-01T10:17:01Z</time>
      </trkpt>
      <trkpt lat="43.94007" lon="6.29582">
        <ele>1319.8</ele>
        <time>2019-11-01T10:17:03Z</time>
      </trkpt>
      <trkpt lat="43.94013" lon="6.29575">
        <ele>1318.8</ele>
        <time>2019-11-01T10:17:06Z</time>
      </trkpt>
      <trkpt lat="43.94014" lon="6.29571">
        <ele>1319.2</ele>
        <time>2019-11-01T10:17:07Z</time>
      </trkpt>
      <trkpt lat="43.94013" lon="6.29562">
        <ele>1320.2</ele>
        <time>2019-11-01T10:17:08Z</time>
      </trkpt>
      <trkpt lat="43.94012" lon="6.2955">
        <ele>1321.8</ele>
        <time>2019-11-01T10:17:10Z</time>
      </trkpt>
      <trkpt lat="43.9401" lon="6.29537">
        <ele>1323.6</ele>
        <time>2019-11-01T10:17:12Z</time>
      </trkpt>
      <trkpt lat="43.94009" lon="6.29529">
        <ele>1324.3</ele>
        <time>2019-11-01T10:17:13Z</time>
      </trkpt>
      <trkpt lat="43.94007" lon="6.29513">
        <ele>1325.2</ele>
        <time>2019-11-01T10:17:15Z</time>
      </trkpt>
      <trkpt lat="43.94006" lon="6.29496">
        <ele>1326</ele>
        <time>2019-11-01T10:17:17Z</time>
      </trkpt>
      <trkpt lat="43.94006" lon="6.29487">
        <ele>1326.4</ele>
        <time>2019-11-01T10:17:18Z</time>
      </trkpt>
      <trkpt lat="43.94005" lon="6.2948">
        <ele>1326.3</ele>
        <time>2019-11-01T10:17:19Z</time>
      </trkpt>
      <trkpt lat="43.94005" lon="6.29465">
        <ele>1326</ele>
        <time>2019-11-01T10:17:21Z</time>
      </trkpt>
      <trkpt lat="43.94007" lon="6.29458">
        <ele>1325.4</ele>
        <time>2019-11-01T10:17:22Z</time>
      </trkpt>
      <trkpt lat="43.94009" lon="6.29444">
        <ele>1324.9</ele>
        <time>2019-11-01T10:17:24Z</time>
      </trkpt>
      <trkpt lat="43.94011" lon="6.29429">
        <ele>1324</ele>
        <time>2019-11-01T10:17:26Z</time>
      </trkpt>
      <trkpt lat="43.94012" lon="6.29422">
        <ele>1323.6</ele>
        <time>2019-11-01T10:17:27Z</time>
      </trkpt>
      <trkpt lat="43.94013" lon="6.29408">
        <ele>1322.8</ele>
        <time>2019-11-01T10:17:29Z</time>
      </trkpt>
      <trkpt lat="43.94013" lon="6.29403">
        <ele>1322.5</ele>
        <time>2019-11-01T10:17:30Z</time>
      </trkpt>
      <trkpt lat="43.94013" lon="6.29399">
        <ele>1322.3</ele>
        <time>2019-11-01T10:17:31Z</time>
      </trkpt>
      <trkpt lat="43.94016" lon="6.29394">
        <ele>1321.9</ele>
        <time>2019-11-01T10:17:33Z</time>
      </trkpt>
      <trkpt lat="43.9402" lon="6.29393">
        <ele>1321.7</ele>
        <time>2019-11-01T10:17:35Z</time>
      </trkpt>
      <trkpt lat="43.9402" lon="6.29388">
        <ele>1321.7</ele>
        <time>2019-11-01T10:17:37Z</time>
      </trkpt>
      <trkpt lat="43.94017" lon="6.29385">
        <ele>1321.7</ele>
        <time>2019-11-01T10:17:39Z</time>
      </trkpt>
      <trkpt lat="43.94013" lon="6.29389">
        <ele>1321.7</ele>
        <time>2019-11-01T10:17:41Z</time>
      </trkpt>
      <trkpt lat="43.94012" lon="6.29394">
        <ele>1321.7</ele>
        <time>2019-11-01T10:17:42Z</time>
      </trkpt>
      <trkpt lat="43.94018" lon="6.29389">
        <ele>1321.7</ele>
        <time>2019-11-01T10:17:46Z</time>
      </trkpt>
      <trkpt lat="43.94016" lon="6.29386">
        <ele>1321.7</ele>
        <time>2019-11-01T10:17:47Z</time>
      </trkpt>
      <trkpt lat="43.94013" lon="6.29384">
        <ele>1321.8</ele>
        <time>2019-11-01T10:17:48Z</time>
      </trkpt>
      <trkpt lat="43.9401" lon="6.29385">
        <ele>1321.9</ele>
        <time>2019-11-01T10:17:49Z</time>
      </trkpt>
      <trkpt lat="43.94003" lon="6.29386">
        <ele>1322.2</ele>
        <time>2019-11-01T10:17:51Z</time>
      </trkpt>
      <trkpt lat="43.94001" lon="6.29384">
        <ele>1322.3</ele>
        <time>2019-11-01T10:17:52Z</time>
      </trkpt>
      <trkpt lat="43.93998" lon="6.29382">
        <ele>1322.4</ele>
        <time>2019-11-01T10:17:53Z</time>
      </trkpt>
      <trkpt lat="43.93995" lon="6.2938">
        <ele>1322.2</ele>
        <time>2019-11-01T10:17:55Z</time>
      </trkpt>
      <trkpt lat="43.93991" lon="6.29376">
        <ele>1321.9</ele>
        <time>2019-11-01T10:17:57Z</time>
      </trkpt>
      <trkpt lat="43.93986" lon="6.29374">
        <ele>1321.7</ele>
        <time>2019-11-01T10:18:01Z</time>
      </trkpt>
      <trkpt lat="43.93983" lon="6.29372">
        <ele>1321.6</ele>
        <time>2019-11-01T10:18:03Z</time>
      </trkpt>
      <trkpt lat="43.9399" lon="6.29375">
        <ele>1321.5</ele>
        <time>2019-11-01T10:19:56Z</time>
      </trkpt>
      <trkpt lat="43.93994" lon="6.29378">
        <ele>1321.6</ele>
        <time>2019-11-01T10:19:58Z</time>
      </trkpt>
      <trkpt lat="43.93997" lon="6.29379">
        <ele>1321.7</ele>
        <time>2019-11-01T10:20:00Z</time>
      </trkpt>
      <trkpt lat="43.94" lon="6.29381">
        <ele>1322</ele>
        <time>2019-11-01T10:20:01Z</time>
      </trkpt>
      <trkpt lat="43.94005" lon="6.29384">
        <ele>1322.3</ele>
        <time>2019-11-01T10:20:03Z</time>
      </trkpt>
      <trkpt lat="43.9401" lon="6.29385">
        <ele>1322</ele>
        <time>2019-11-01T10:20:04Z</time>
      </trkpt>
      <trkpt lat="43.94014" lon="6.29385">
        <ele>1321.7</ele>
        <time>2019-11-01T10:20:06Z</time>
      </trkpt>
      <trkpt lat="43.9402" lon="6.29387">
        <ele>1321.6</ele>
        <time>2019-11-01T10:20:08Z</time>
      </trkpt>
      <trkpt lat="43.94022" lon="6.29387">
        <ele>1321.4</ele>
        <time>2019-11-01T10:20:09Z</time>
      </trkpt>
      <trkpt lat="43.94026" lon="6.29388">
        <ele>1321.2</ele>
        <time>2019-11-01T10:20:10Z</time>
      </trkpt>
      <trkpt lat="43.94029" lon="6.2939">
        <ele>1321.3</ele>
        <time>2019-11-01T10:20:12Z</time>
      </trkpt>
      <trkpt lat="43.94033" lon="6.29393">
        <ele>1321.3</ele>
        <time>2019-11-01T10:20:13Z</time>
      </trkpt>
      <trkpt lat="43.94036" lon="6.29395">
        <ele>1321.1</ele>
        <time>2019-11-01T10:20:14Z</time>
      </trkpt>
      <trkpt lat="43.94039" lon="6.29398">
        <ele>1320.9</ele>
        <time>2019-11-01T10:20:16Z</time>
      </trkpt>
      <trkpt lat="43.94043" lon="6.29401">
        <ele>1320.7</ele>
        <time>2019-11-01T10:20:17Z</time>
      </trkpt>
      <trkpt lat="43.94047" lon="6.29405">
        <ele>1320.5</ele>
        <time>2019-11-01T10:20:19Z</time>
      </trkpt>
      <trkpt lat="43.94051" lon="6.29409">
        <ele>1320.2</ele>
        <time>2019-11-01T10:20:20Z</time>
      </trkpt>
      <trkpt lat="43.94053" lon="6.29412">
        <ele>1319.9</ele>
        <time>2019-11-01T10:20:22Z</time>
      </trkpt>
      <trkpt lat="43.94056" lon="6.29414">
        <ele>1319.6</ele>
        <time>2019-11-01T10:20:23Z</time>
      </trkpt>
      <trkpt lat="43.94059" lon="6.29417">
        <ele>1319.3</ele>
        <time>2019-11-01T10:20:24Z</time>
      </trkpt>
      <trkpt lat="43.94067" lon="6.29421">
        <ele>1319.1</ele>
        <time>2019-11-01T10:20:28Z</time>
      </trkpt>
      <trkpt lat="43.9407" lon="6.29423">
        <ele>1319.1</ele>
        <time>2019-11-01T10:20:29Z</time>
      </trkpt>
      <trkpt lat="43.94075" lon="6.29425">
        <ele>1319.1</ele>
        <time>2019-11-01T10:20:31Z</time>
      </trkpt>
      <trkpt lat="43.94079" lon="6.29427">
        <ele>1319</ele>
        <time>2019-11-01T10:20:33Z</time>
      </trkpt>
      <trkpt lat="43.94084" lon="6.29431">
        <ele>1319</ele>
        <time>2019-11-01T10:20:34Z</time>
      </trkpt>
      <trkpt lat="43.94089" lon="6.29436">
        <ele>1319</ele>
        <time>2019-11-01T10:20:36Z</time>
      </trkpt>
      <trkpt lat="43.94091" lon="6.29443">
        <ele>1319</ele>
        <time>2019-11-01T10:20:37Z</time>
      </trkpt>
      <trkpt lat="43.94093" lon="6.29447">
        <ele>1319</ele>
        <time>2019-11-01T10:20:38Z</time>
      </trkpt>
      <trkpt lat="43.94094" lon="6.29452">
        <ele>1318.8</ele>
        <time>2019-11-01T10:20:40Z</time>
      </trkpt>
      <trkpt lat="43.94095" lon="6.29457">
        <ele>1318.7</ele>
        <time>2019-11-01T10:20:41Z</time>
      </trkpt>
      <trkpt lat="43.94097" lon="6.29463">
        <ele>1318</ele>
        <time>2019-11-01T10:20:42Z</time>
      </trkpt>
      <trkpt lat="43.94098" lon="6.29468">
        <ele>1317.4</ele>
        <time>2019-11-01T10:20:44Z</time>
      </trkpt>
      <trkpt lat="43.941" lon="6.29474">
        <ele>1316.7</ele>
        <time>2019-11-01T10:20:45Z</time>
      </trkpt>
      <trkpt lat="43.94102" lon="6.29481">
        <ele>1315.9</ele>
        <time>2019-11-01T10:20:47Z</time>
      </trkpt>
      <trkpt lat="43.94103" lon="6.29486">
        <ele>1315.2</ele>
        <time>2019-11-01T10:20:48Z</time>
      </trkpt>
      <trkpt lat="43.94106" lon="6.29492">
        <ele>1314.7</ele>
        <time>2019-11-01T10:20:50Z</time>
      </trkpt>
      <trkpt lat="43.94108" lon="6.29495">
        <ele>1314.5</ele>
        <time>2019-11-01T10:20:51Z</time>
      </trkpt>
      <trkpt lat="43.94112" lon="6.295">
        <ele>1314</ele>
        <time>2019-11-01T10:20:53Z</time>
      </trkpt>
      <trkpt lat="43.94115" lon="6.29503">
        <ele>1313.5</ele>
        <time>2019-11-01T10:20:54Z</time>
      </trkpt>
      <trkpt lat="43.94122" lon="6.29511">
        <ele>1312.2</ele>
        <time>2019-11-01T10:20:57Z</time>
      </trkpt>
      <trkpt lat="43.94126" lon="6.29513">
        <ele>1312</ele>
        <time>2019-11-01T10:20:58Z</time>
      </trkpt>
      <trkpt lat="43.94129" lon="6.29515">
        <ele>1311.8</ele>
        <time>2019-11-01T10:20:59Z</time>
      </trkpt>
      <trkpt lat="43.94134" lon="6.29518">
        <ele>1312</ele>
        <time>2019-11-01T10:21:01Z</time>
      </trkpt>
      <trkpt lat="43.94137" lon="6.29519">
        <ele>1312.2</ele>
        <time>2019-11-01T10:21:02Z</time>
      </trkpt>
      <trkpt lat="43.94141" lon="6.2952">
        <ele>1312.5</ele>
        <time>2019-11-01T10:21:03Z</time>
      </trkpt>
      <trkpt lat="43.94144" lon="6.2952">
        <ele>1312.7</ele>
        <time>2019-11-01T10:21:06Z</time>
      </trkpt>
      <trkpt lat="43.94148" lon="6.29517">
        <ele>1313.1</ele>
        <time>2019-11-01T10:21:08Z</time>
      </trkpt>
      <trkpt lat="43.94151" lon="6.29512">
        <ele>1313.4</ele>
        <time>2019-11-01T10:21:09Z</time>
      </trkpt>
      <trkpt lat="43.94154" lon="6.29509">
        <ele>1314</ele>
        <time>2019-11-01T10:21:11Z</time>
      </trkpt>
      <trkpt lat="43.9416" lon="6.29504">
        <ele>1315.2</ele>
        <time>2019-11-01T10:21:12Z</time>
      </trkpt>
      <trkpt lat="43.94163" lon="6.29501">
        <ele>1316.2</ele>
        <time>2019-11-01T10:21:14Z</time>
      </trkpt>
      <trkpt lat="43.94167" lon="6.29496">
        <ele>1317.3</ele>
        <time>2019-11-01T10:21:15Z</time>
      </trkpt>
      <trkpt lat="43.94171" lon="6.29492">
        <ele>1318.2</ele>
        <time>2019-11-01T10:21:16Z</time>
      </trkpt>
      <trkpt lat="43.94175" lon="6.29487">
        <ele>1319.4</ele>
        <time>2019-11-01T10:21:18Z</time>
      </trkpt>
      <trkpt lat="43.94179" lon="6.29481">
        <ele>1320.7</ele>
        <time>2019-11-01T10:21:20Z</time>
      </trkpt>
      <trkpt lat="43.94184" lon="6.29477">
        <ele>1321.8</ele>
        <time>2019-11-01T10:21:22Z</time>
      </trkpt>
      <trkpt lat="43.9419" lon="6.29476">
        <ele>1322.5</ele>
        <time>2019-11-01T10:21:23Z</time>
      </trkpt>
      <trkpt lat="43.94194" lon="6.29476">
        <ele>1323</ele>
        <time>2019-11-01T10:21:24Z</time>
      </trkpt>
      <trkpt lat="43.94199" lon="6.29475">
        <ele>1323.8</ele>
        <time>2019-11-01T10:21:26Z</time>
      </trkpt>
      <trkpt lat="43.94203" lon="6.29475">
        <ele>1324.5</ele>
        <time>2019-11-01T10:21:27Z</time>
      </trkpt>
      <trkpt lat="43.94209" lon="6.29477">
        <ele>1325.1</ele>
        <time>2019-11-01T10:21:29Z</time>
      </trkpt>
      <trkpt lat="43.94215" lon="6.2948">
        <ele>1326</ele>
        <time>2019-11-01T10:21:31Z</time>
      </trkpt>
      <trkpt lat="43.94219" lon="6.29483">
        <ele>1326.3</ele>
        <time>2019-11-01T10:21:32Z</time>
      </trkpt>
      <trkpt lat="43.94223" lon="6.29485">
        <ele>1326.4</ele>
        <time>2019-11-01T10:21:33Z</time>
      </trkpt>
      <trkpt lat="43.94226" lon="6.29487">
        <ele>1326.5</ele>
        <time>2019-11-01T10:21:35Z</time>
      </trkpt>
      <trkpt lat="43.9423" lon="6.2949">
        <ele>1326.5</ele>
        <time>2019-11-01T10:21:36Z</time>
      </trkpt>
      <trkpt lat="43.94233" lon="6.29493">
        <ele>1326.6</ele>
        <time>2019-11-01T10:21:37Z</time>
      </trkpt>
      <trkpt lat="43.94237" lon="6.29495">
        <ele>1326.8</ele>
        <time>2019-11-01T10:21:38Z</time>
      </trkpt>
      <trkpt lat="43.9424" lon="6.29495">
        <ele>1327.1</ele>
        <time>2019-11-01T10:21:40Z</time>
      </trkpt>
      <trkpt lat="43.94243" lon="6.29496">
        <ele>1327.4</ele>
        <time>2019-11-01T10:21:41Z</time>
      </trkpt>
      <trkpt lat="43.94248" lon="6.29498">
        <ele>1327.6</ele>
        <time>2019-11-01T10:21:42Z</time>
      </trkpt>
      <trkpt lat="43.94252" lon="6.29499">
        <ele>1327.9</ele>
        <time>2019-11-01T10:21:44Z</time>
      </trkpt>
      <trkpt lat="43.94255" lon="6.29501">
        <ele>1328.3</ele>
        <time>2019-11-01T10:21:45Z</time>
      </trkpt>
      <trkpt lat="43.9426" lon="6.29503">
        <ele>1328.9</ele>
        <time>2019-11-01T10:21:46Z</time>
      </trkpt>
      <trkpt lat="43.94263" lon="6.29503">
        <ele>1329.3</ele>
        <time>2019-11-01T10:21:47Z</time>
      </trkpt>
      <trkpt lat="43.94267" lon="6.29503">
        <ele>1329.6</ele>
        <time>2019-11-01T10:21:49Z</time>
      </trkpt>
      <trkpt lat="43.9427" lon="6.29504">
        <ele>1329.4</ele>
        <time>2019-11-01T10:21:50Z</time>
      </trkpt>
      <trkpt lat="43.94274" lon="6.29505">
        <ele>1329.3</ele>
        <time>2019-11-01T10:21:51Z</time>
      </trkpt>
      <trkpt lat="43.9428" lon="6.29506">
        <ele>1330.1</ele>
        <time>2019-11-01T10:21:52Z</time>
      </trkpt>
      <trkpt lat="43.94285" lon="6.29506">
        <ele>1330.6</ele>
        <time>2019-11-01T10:21:54Z</time>
      </trkpt>
      <trkpt lat="43.94288" lon="6.29506">
        <ele>1330.8</ele>
        <time>2019-11-01T10:21:55Z</time>
      </trkpt>
      <trkpt lat="43.94292" lon="6.29506">
        <ele>1331.1</ele>
        <time>2019-11-01T10:21:57Z</time>
      </trkpt>
      <trkpt lat="43.94298" lon="6.29506">
        <ele>1331.7</ele>
        <time>2019-11-01T10:21:58Z</time>
      </trkpt>
      <trkpt lat="43.94302" lon="6.29506">
        <ele>1332.1</ele>
        <time>2019-11-01T10:22:00Z</time>
      </trkpt>
      <trkpt lat="43.94306" lon="6.29506">
        <ele>1332.5</ele>
        <time>2019-11-01T10:22:01Z</time>
      </trkpt>
      <trkpt lat="43.9431" lon="6.29507">
        <ele>1332.3</ele>
        <time>2019-11-01T10:22:02Z</time>
      </trkpt>
      <trkpt lat="43.94315" lon="6.29508">
        <ele>1331.9</ele>
        <time>2019-11-01T10:22:03Z</time>
      </trkpt>
      <trkpt lat="43.94319" lon="6.29508">
        <ele>1332.1</ele>
        <time>2019-11-01T10:22:05Z</time>
      </trkpt>
      <trkpt lat="43.94323" lon="6.29508">
        <ele>1332.3</ele>
        <time>2019-11-01T10:22:06Z</time>
      </trkpt>
      <trkpt lat="43.94327" lon="6.29507">
        <ele>1332.5</ele>
        <time>2019-11-01T10:22:07Z</time>
      </trkpt>
      <trkpt lat="43.94333" lon="6.29507">
        <ele>1332.7</ele>
        <time>2019-11-01T10:22:09Z</time>
      </trkpt>
      <trkpt lat="43.94336" lon="6.29507">
        <ele>1332.9</ele>
        <time>2019-11-01T10:22:10Z</time>
      </trkpt>
      <trkpt lat="43.94344" lon="6.29505">
        <ele>1333.2</ele>
        <time>2019-11-01T10:22:13Z</time>
      </trkpt>
      <trkpt lat="43.94349" lon="6.29505">
        <ele>1333.4</ele>
        <time>2019-11-01T10:22:15Z</time>
      </trkpt>
      <trkpt lat="43.94355" lon="6.29505">
        <ele>1334.5</ele>
        <time>2019-11-01T10:22:17Z</time>
      </trkpt>
      <trkpt lat="43.94359" lon="6.29504">
        <ele>1335.3</ele>
        <time>2019-11-01T10:22:18Z</time>
      </trkpt>
      <trkpt lat="43.94363" lon="6.29502">
        <ele>1335.5</ele>
        <time>2019-11-01T10:22:20Z</time>
      </trkpt>
      <trkpt lat="43.94365" lon="6.295">
        <ele>1335.7</ele>
        <time>2019-11-01T10:22:21Z</time>
      </trkpt>
      <trkpt lat="43.94368" lon="6.29497">
        <ele>1336.2</ele>
        <time>2019-11-01T10:22:22Z</time>
      </trkpt>
      <trkpt lat="43.94373" lon="6.29495">
        <ele>1337.1</ele>
        <time>2019-11-01T10:22:23Z</time>
      </trkpt>
      <trkpt lat="43.94377" lon="6.29495">
        <ele>1337.5</ele>
        <time>2019-11-01T10:22:25Z</time>
      </trkpt>
      <trkpt lat="43.94385" lon="6.29496">
        <ele>1338</ele>
        <time>2019-11-01T10:22:26Z</time>
      </trkpt>
      <trkpt lat="43.9439" lon="6.29497">
        <ele>1338.3</ele>
        <time>2019-11-01T10:22:27Z</time>
      </trkpt>
      <trkpt lat="43.94394" lon="6.29498">
        <ele>1339</ele>
        <time>2019-11-01T10:22:29Z</time>
      </trkpt>
      <trkpt lat="43.944" lon="6.29497">
        <ele>1339.9</ele>
        <time>2019-11-01T10:22:30Z</time>
      </trkpt>
      <trkpt lat="43.94404" lon="6.29497">
        <ele>1340.2</ele>
        <time>2019-11-01T10:22:31Z</time>
      </trkpt>
      <trkpt lat="43.94409" lon="6.29497">
        <ele>1340.5</ele>
        <time>2019-11-01T10:22:32Z</time>
      </trkpt>
      <trkpt lat="43.94413" lon="6.29496">
        <ele>1340.9</ele>
        <time>2019-11-01T10:22:34Z</time>
      </trkpt>
      <trkpt lat="43.94418" lon="6.29494">
        <ele>1341.3</ele>
        <time>2019-11-01T10:22:36Z</time>
      </trkpt>
      <trkpt lat="43.94422" lon="6.29494">
        <ele>1341.6</ele>
        <time>2019-11-01T10:22:38Z</time>
      </trkpt>
      <trkpt lat="43.94425" lon="6.29494">
        <ele>1341.9</ele>
        <time>2019-11-01T10:22:39Z</time>
      </trkpt>
      <trkpt lat="43.9443" lon="6.29493">
        <ele>1342.1</ele>
        <time>2019-11-01T10:22:40Z</time>
      </trkpt>
      <trkpt lat="43.94433" lon="6.29493">
        <ele>1342.3</ele>
        <time>2019-11-01T10:22:41Z</time>
      </trkpt>
      <trkpt lat="43.94435" lon="6.29494">
        <ele>1342.5</ele>
        <time>2019-11-01T10:22:42Z</time>
      </trkpt>
      <trkpt lat="43.94442" lon="6.29495">
        <ele>1342.9</ele>
        <time>2019-11-01T10:22:44Z</time>
      </trkpt>
      <trkpt lat="43.94445" lon="6.29496">
        <ele>1342.7</ele>
        <time>2019-11-01T10:22:45Z</time>
      </trkpt>
      <trkpt lat="43.94449" lon="6.29497">
        <ele>1342.5</ele>
        <time>2019-11-01T10:22:46Z</time>
      </trkpt>
      <trkpt lat="43.94452" lon="6.29499">
        <ele>1342.6</ele>
        <time>2019-11-01T10:22:47Z</time>
      </trkpt>
      <trkpt lat="43.94457" lon="6.29502">
        <ele>1342.8</ele>
        <time>2019-11-01T10:22:49Z</time>
      </trkpt>
      <trkpt lat="43.94462" lon="6.29503">
        <ele>1342.4</ele>
        <time>2019-11-01T10:22:50Z</time>
      </trkpt>
      <trkpt lat="43.94469" lon="6.29505">
        <ele>1341.7</ele>
        <time>2019-11-01T10:22:52Z</time>
      </trkpt>
      <trkpt lat="43.94472" lon="6.29506">
        <ele>1341.3</ele>
        <time>2019-11-01T10:22:53Z</time>
      </trkpt>
      <trkpt lat="43.94477" lon="6.29508">
        <ele>1340.8</ele>
        <time>2019-11-01T10:22:55Z</time>
      </trkpt>
      <trkpt lat="43.9448" lon="6.29509">
        <ele>1340.4</ele>
        <time>2019-11-01T10:22:56Z</time>
      </trkpt>
      <trkpt lat="43.94483" lon="6.2951">
        <ele>1340</ele>
        <time>2019-11-01T10:22:57Z</time>
      </trkpt>
      <trkpt lat="43.94488" lon="6.29512">
        <ele>1339.3</ele>
        <time>2019-11-01T10:22:58Z</time>
      </trkpt>
      <trkpt lat="43.94492" lon="6.29515">
        <ele>1338.4</ele>
        <time>2019-11-01T10:23:00Z</time>
      </trkpt>
      <trkpt lat="43.94495" lon="6.29518">
        <ele>1337.6</ele>
        <time>2019-11-01T10:23:01Z</time>
      </trkpt>
      <trkpt lat="43.94498" lon="6.29521">
        <ele>1337.3</ele>
        <time>2019-11-01T10:23:02Z</time>
      </trkpt>
      <trkpt lat="43.94502" lon="6.29524">
        <ele>1337</ele>
        <time>2019-11-01T10:23:04Z</time>
      </trkpt>
      <trkpt lat="43.94505" lon="6.29526">
        <ele>1336.7</ele>
        <time>2019-11-01T10:23:05Z</time>
      </trkpt>
      <trkpt lat="43.94508" lon="6.29528">
        <ele>1336.4</ele>
        <time>2019-11-01T10:23:06Z</time>
      </trkpt>
      <trkpt lat="43.9451" lon="6.2953">
        <ele>1336.1</ele>
        <time>2019-11-01T10:23:07Z</time>
      </trkpt>
      <trkpt lat="43.94515" lon="6.29534">
        <ele>1335.6</ele>
        <time>2019-11-01T10:23:08Z</time>
      </trkpt>
      <trkpt lat="43.94518" lon="6.29536">
        <ele>1335.3</ele>
        <time>2019-11-01T10:23:09Z</time>
      </trkpt>
      <trkpt lat="43.94524" lon="6.2954">
        <ele>1334.7</ele>
        <time>2019-11-01T10:23:12Z</time>
      </trkpt>
      <trkpt lat="43.94528" lon="6.29541">
        <ele>1334.4</ele>
        <time>2019-11-01T10:23:13Z</time>
      </trkpt>
      <trkpt lat="43.94533" lon="6.29543">
        <ele>1334.2</ele>
        <time>2019-11-01T10:23:14Z</time>
      </trkpt>
      <trkpt lat="43.94538" lon="6.29545">
        <ele>1334.1</ele>
        <time>2019-11-01T10:23:16Z</time>
      </trkpt>
      <trkpt lat="43.94541" lon="6.29546">
        <ele>1334.6</ele>
        <time>2019-11-01T10:23:17Z</time>
      </trkpt>
      <trkpt lat="43.94545" lon="6.29546">
        <ele>1335.1</ele>
        <time>2019-11-01T10:23:18Z</time>
      </trkpt>
      <trkpt lat="43.9455" lon="6.29547">
        <ele>1335.6</ele>
        <time>2019-11-01T10:23:19Z</time>
      </trkpt>
      <trkpt lat="43.94553" lon="6.29547">
        <ele>1336</ele>
        <time>2019-11-01T10:23:21Z</time>
      </trkpt>
      <trkpt lat="43.94556" lon="6.29547">
        <ele>1336.5</ele>
        <time>2019-11-01T10:23:22Z</time>
      </trkpt>
      <trkpt lat="43.94559" lon="6.29547">
        <ele>1337.1</ele>
        <time>2019-11-01T10:23:23Z</time>
      </trkpt>
      <trkpt lat="43.94564" lon="6.29547">
        <ele>1337.9</ele>
        <time>2019-11-01T10:23:25Z</time>
      </trkpt>
      <trkpt lat="43.94567" lon="6.29547">
        <ele>1338.5</ele>
        <time>2019-11-01T10:23:26Z</time>
      </trkpt>
      <trkpt lat="43.9457" lon="6.29548">
        <ele>1339.1</ele>
        <time>2019-11-01T10:23:27Z</time>
      </trkpt>
      <trkpt lat="43.94573" lon="6.29548">
        <ele>1339.4</ele>
        <time>2019-11-01T10:23:28Z</time>
      </trkpt>
      <trkpt lat="43.94579" lon="6.29548">
        <ele>1340.2</ele>
        <time>2019-11-01T10:23:29Z</time>
      </trkpt>
      <trkpt lat="43.94582" lon="6.29547">
        <ele>1340.8</ele>
        <time>2019-11-01T10:23:31Z</time>
      </trkpt>
      <trkpt lat="43.94587" lon="6.29547">
        <ele>1341.7</ele>
        <time>2019-11-01T10:23:32Z</time>
      </trkpt>
      <trkpt lat="43.94591" lon="6.29547">
        <ele>1342.1</ele>
        <time>2019-11-01T10:23:34Z</time>
      </trkpt>
      <trkpt lat="43.94595" lon="6.29547">
        <ele>1342.6</ele>
        <time>2019-11-01T10:23:35Z</time>
      </trkpt>
      <trkpt lat="43.94598" lon="6.29547">
        <ele>1343</ele>
        <time>2019-11-01T10:23:36Z</time>
      </trkpt>
      <trkpt lat="43.94601" lon="6.29547">
        <ele>1343.5</ele>
        <time>2019-11-01T10:23:37Z</time>
      </trkpt>
      <trkpt lat="43.94606" lon="6.29546">
        <ele>1344</ele>
        <time>2019-11-01T10:23:38Z</time>
      </trkpt>
      <trkpt lat="43.94608" lon="6.29546">
        <ele>1344.3</ele>
        <time>2019-11-01T10:23:40Z</time>
      </trkpt>
      <trkpt lat="43.94613" lon="6.29546">
        <ele>1344.7</ele>
        <time>2019-11-01T10:23:41Z</time>
      </trkpt>
      <trkpt lat="43.94615" lon="6.29546">
        <ele>1344.8</ele>
        <time>2019-11-01T10:23:43Z</time>
      </trkpt>
      <trkpt lat="43.9462" lon="6.29545">
        <ele>1345.1</ele>
        <time>2019-11-01T10:23:44Z</time>
      </trkpt>
      <trkpt lat="43.94624" lon="6.29546">
        <ele>1345.3</ele>
        <time>2019-11-01T10:23:46Z</time>
      </trkpt>
      <trkpt lat="43.94628" lon="6.29546">
        <ele>1345.4</ele>
        <time>2019-11-01T10:23:47Z</time>
      </trkpt>
      <trkpt lat="43.94631" lon="6.29547">
        <ele>1345.5</ele>
        <time>2019-11-01T10:23:48Z</time>
      </trkpt>
      <trkpt lat="43.94635" lon="6.29548">
        <ele>1345.3</ele>
        <time>2019-11-01T10:23:50Z</time>
      </trkpt>
      <trkpt lat="43.94639" lon="6.29549">
        <ele>1344.8</ele>
        <time>2019-11-01T10:23:51Z</time>
      </trkpt>
      <trkpt lat="43.94643" lon="6.29551">
        <ele>1344.2</ele>
        <time>2019-11-01T10:23:52Z</time>
      </trkpt>
      <trkpt lat="43.94647" lon="6.29554">
        <ele>1343.6</ele>
        <time>2019-11-01T10:23:54Z</time>
      </trkpt>
      <trkpt lat="43.94652" lon="6.29556">
        <ele>1342.8</ele>
        <time>2019-11-01T10:23:56Z</time>
      </trkpt>
      <trkpt lat="43.94656" lon="6.29558">
        <ele>1342</ele>
        <time>2019-11-01T10:23:57Z</time>
      </trkpt>
      <trkpt lat="43.9466" lon="6.29561">
        <ele>1341.1</ele>
        <time>2019-11-01T10:23:59Z</time>
      </trkpt>
      <trkpt lat="43.94664" lon="6.29565">
        <ele>1340.1</ele>
        <time>2019-11-01T10:24:00Z</time>
      </trkpt>
      <trkpt lat="43.94667" lon="6.29567">
        <ele>1339.6</ele>
        <time>2019-11-01T10:24:02Z</time>
      </trkpt>
      <trkpt lat="43.94671" lon="6.29568">
        <ele>1339</ele>
        <time>2019-11-01T10:24:03Z</time>
      </trkpt>
      <trkpt lat="43.94674" lon="6.29568">
        <ele>1338.5</ele>
        <time>2019-11-01T10:24:04Z</time>
      </trkpt>
      <trkpt lat="43.94677" lon="6.29568">
        <ele>1338</ele>
        <time>2019-11-01T10:24:05Z</time>
      </trkpt>
      <trkpt lat="43.94682" lon="6.29567">
        <ele>1337.3</ele>
        <time>2019-11-01T10:24:06Z</time>
      </trkpt>
      <trkpt lat="43.94685" lon="6.29565">
        <ele>1336.7</ele>
        <time>2019-11-01T10:24:08Z</time>
      </trkpt>
      <trkpt lat="43.94689" lon="6.29563">
        <ele>1336</ele>
        <time>2019-11-01T10:24:09Z</time>
      </trkpt>
      <trkpt lat="43.94693" lon="6.2956">
        <ele>1335.5</ele>
        <time>2019-11-01T10:24:11Z</time>
      </trkpt>
      <trkpt lat="43.94697" lon="6.29555">
        <ele>1335.5</ele>
        <time>2019-11-01T10:24:12Z</time>
      </trkpt>
      <trkpt lat="43.94698" lon="6.29546">
        <ele>1336.4</ele>
        <time>2019-11-01T10:24:15Z</time>
      </trkpt>
      <trkpt lat="43.94697" lon="6.29542">
        <ele>1336.9</ele>
        <time>2019-11-01T10:24:16Z</time>
      </trkpt>
      <trkpt lat="43.94696" lon="6.29538">
        <ele>1337.8</ele>
        <time>2019-11-01T10:24:19Z</time>
      </trkpt>
      <trkpt lat="43.94693" lon="6.29533">
        <ele>1339</ele>
        <time>2019-11-01T10:27:25Z</time>
      </trkpt>
      <trkpt lat="43.9469" lon="6.29526">
        <ele>1340.1</ele>
        <time>2019-11-01T10:27:27Z</time>
      </trkpt>
      <trkpt lat="43.94688" lon="6.29523">
        <ele>1341</ele>
        <time>2019-11-01T10:27:28Z</time>
      </trkpt>
      <trkpt lat="43.94686" lon="6.29519">
        <ele>1342.1</ele>
        <time>2019-11-01T10:27:29Z</time>
      </trkpt>
      <trkpt lat="43.94683" lon="6.29506">
        <ele>1344</ele>
        <time>2019-11-01T10:27:32Z</time>
      </trkpt>
      <trkpt lat="43.94682" lon="6.29498">
        <ele>1345.1</ele>
        <time>2019-11-01T10:27:33Z</time>
      </trkpt>
      <trkpt lat="43.94681" lon="6.29484">
        <ele>1346.4</ele>
        <time>2019-11-01T10:27:35Z</time>
      </trkpt>
      <trkpt lat="43.94681" lon="6.29476">
        <ele>1346.8</ele>
        <time>2019-11-01T10:27:36Z</time>
      </trkpt>
      <trkpt lat="43.94683" lon="6.29459">
        <ele>1346.4</ele>
        <time>2019-11-01T10:27:38Z</time>
      </trkpt>
      <trkpt lat="43.94683" lon="6.29451">
        <ele>1346.7</ele>
        <time>2019-11-01T10:27:39Z</time>
      </trkpt>
      <trkpt lat="43.94683" lon="6.29443">
        <ele>1346.9</ele>
        <time>2019-11-01T10:27:40Z</time>
      </trkpt>
      <trkpt lat="43.94684" lon="6.29427">
        <ele>1347</ele>
        <time>2019-11-01T10:27:42Z</time>
      </trkpt>
      <trkpt lat="43.94684" lon="6.29419">
        <ele>1346.2</ele>
        <time>2019-11-01T10:27:43Z</time>
      </trkpt>
      <trkpt lat="43.94688" lon="6.29404">
        <ele>1345.5</ele>
        <time>2019-11-01T10:27:45Z</time>
      </trkpt>
      <trkpt lat="43.9469" lon="6.29396">
        <ele>1344.4</ele>
        <time>2019-11-01T10:27:46Z</time>
      </trkpt>
      <trkpt lat="43.94694" lon="6.2938">
        <ele>1341.8</ele>
        <time>2019-11-01T10:27:48Z</time>
      </trkpt>
      <trkpt lat="43.94698" lon="6.29363">
        <ele>1339.4</ele>
        <time>2019-11-01T10:27:50Z</time>
      </trkpt>
      <trkpt lat="43.94702" lon="6.29348">
        <ele>1337.5</ele>
        <time>2019-11-01T10:27:52Z</time>
      </trkpt>
      <trkpt lat="43.94707" lon="6.29335">
        <ele>1334.4</ele>
        <time>2019-11-01T10:27:54Z</time>
      </trkpt>
      <trkpt lat="43.94715" lon="6.29326">
        <ele>1330.9</ele>
        <time>2019-11-01T10:27:56Z</time>
      </trkpt>
      <trkpt lat="43.9472" lon="6.29324">
        <ele>1329.1</ele>
        <time>2019-11-01T10:27:57Z</time>
      </trkpt>
      <trkpt lat="43.9473" lon="6.2932">
        <ele>1325.7</ele>
        <time>2019-11-01T10:27:59Z</time>
      </trkpt>
      <trkpt lat="43.94735" lon="6.29316">
        <ele>1324.6</ele>
        <time>2019-11-01T10:28:00Z</time>
      </trkpt>
      <trkpt lat="43.94745" lon="6.29307">
        <ele>1321.1</ele>
        <time>2019-11-01T10:28:02Z</time>
      </trkpt>
      <trkpt lat="43.94749" lon="6.29302">
        <ele>1320.6</ele>
        <time>2019-11-01T10:28:03Z</time>
      </trkpt>
      <trkpt lat="43.94753" lon="6.29297">
        <ele>1319.4</ele>
        <time>2019-11-01T10:28:04Z</time>
      </trkpt>
      <trkpt lat="43.94756" lon="6.29291">
        <ele>1319.1</ele>
        <time>2019-11-01T10:28:05Z</time>
      </trkpt>
      <trkpt lat="43.9476" lon="6.29277">
        <ele>1319.4</ele>
        <time>2019-11-01T10:28:07Z</time>
      </trkpt>
      <trkpt lat="43.94763" lon="6.29272">
        <ele>1319.2</ele>
        <time>2019-11-01T10:28:08Z</time>
      </trkpt>
      <trkpt lat="43.94767" lon="6.29268">
        <ele>1318.5</ele>
        <time>2019-11-01T10:28:09Z</time>
      </trkpt>
      <trkpt lat="43.94776" lon="6.29263">
        <ele>1316.7</ele>
        <time>2019-11-01T10:28:11Z</time>
      </trkpt>
      <trkpt lat="43.94781" lon="6.29262">
        <ele>1316.2</ele>
        <time>2019-11-01T10:28:12Z</time>
      </trkpt>
      <trkpt lat="43.94789" lon="6.2926">
        <ele>1314.7</ele>
        <time>2019-11-01T10:28:14Z</time>
      </trkpt>
      <trkpt lat="43.94793" lon="6.29256">
        <ele>1314.6</ele>
        <time>2019-11-01T10:28:15Z</time>
      </trkpt>
      <trkpt lat="43.94797" lon="6.29252">
        <ele>1314.3</ele>
        <time>2019-11-01T10:28:16Z</time>
      </trkpt>
      <trkpt lat="43.94802" lon="6.29247">
        <ele>1313.6</ele>
        <time>2019-11-01T10:28:17Z</time>
      </trkpt>
      <trkpt lat="43.94811" lon="6.29236">
        <ele>1313.6</ele>
        <time>2019-11-01T10:28:19Z</time>
      </trkpt>
      <trkpt lat="43.94817" lon="6.29232">
        <ele>1313.5</ele>
        <time>2019-11-01T10:28:20Z</time>
      </trkpt>
      <trkpt lat="43.94823" lon="6.29228">
        <ele>1313.7</ele>
        <time>2019-11-01T10:28:21Z</time>
      </trkpt>
      <trkpt lat="43.9483" lon="6.29225">
        <ele>1313.9</ele>
        <time>2019-11-01T10:28:22Z</time>
      </trkpt>
      <trkpt lat="43.94843" lon="6.29219">
        <ele>1314</ele>
        <time>2019-11-01T10:28:24Z</time>
      </trkpt>
      <trkpt lat="43.94855" lon="6.29217">
        <ele>1313.1</ele>
        <time>2019-11-01T10:28:26Z</time>
      </trkpt>
      <trkpt lat="43.94862" lon="6.29217">
        <ele>1312.7</ele>
        <time>2019-11-01T10:28:27Z</time>
      </trkpt>
      <trkpt lat="43.94868" lon="6.29217">
        <ele>1312.1</ele>
        <time>2019-11-01T10:28:28Z</time>
      </trkpt>
      <trkpt lat="43.94881" lon="6.29221">
        <ele>1310.9</ele>
        <time>2019-11-01T10:28:30Z</time>
      </trkpt>
      <trkpt lat="43.94893" lon="6.29223">
        <ele>1309.6</ele>
        <time>2019-11-01T10:28:32Z</time>
      </trkpt>
      <trkpt lat="43.94906" lon="6.29228">
        <ele>1309</ele>
        <time>2019-11-01T10:28:34Z</time>
      </trkpt>
      <trkpt lat="43.94912" lon="6.29231">
        <ele>1308.7</ele>
        <time>2019-11-01T10:28:35Z</time>
      </trkpt>
      <trkpt lat="43.94919" lon="6.29233">
        <ele>1308.5</ele>
        <time>2019-11-01T10:28:36Z</time>
      </trkpt>
      <trkpt lat="43.94926" lon="6.29235">
        <ele>1307.9</ele>
        <time>2019-11-01T10:28:37Z</time>
      </trkpt>
      <trkpt lat="43.94938" lon="6.29238">
        <ele>1306.7</ele>
        <time>2019-11-01T10:28:39Z</time>
      </trkpt>
      <trkpt lat="43.94949" lon="6.29243">
        <ele>1305.6</ele>
        <time>2019-11-01T10:28:41Z</time>
      </trkpt>
      <trkpt lat="43.94959" lon="6.29249">
        <ele>1304.5</ele>
        <time>2019-11-01T10:28:43Z</time>
      </trkpt>
      <trkpt lat="43.94964" lon="6.29251">
        <ele>1304.5</ele>
        <time>2019-11-01T10:28:44Z</time>
      </trkpt>
      <trkpt lat="43.94976" lon="6.29254">
        <ele>1303.9</ele>
        <time>2019-11-01T10:28:46Z</time>
      </trkpt>
      <trkpt lat="43.94988" lon="6.29254">
        <ele>1302.3</ele>
        <time>2019-11-01T10:28:48Z</time>
      </trkpt>
      <trkpt lat="43.94999" lon="6.29257">
        <ele>1300.9</ele>
        <time>2019-11-01T10:28:50Z</time>
      </trkpt>
      <trkpt lat="43.95005" lon="6.29258">
        <ele>1300.7</ele>
        <time>2019-11-01T10:28:51Z</time>
      </trkpt>
      <trkpt lat="43.9501" lon="6.29259">
        <ele>1300.2</ele>
        <time>2019-11-01T10:28:52Z</time>
      </trkpt>
      <trkpt lat="43.9502" lon="6.29261">
        <ele>1299.2</ele>
        <time>2019-11-01T10:28:54Z</time>
      </trkpt>
      <trkpt lat="43.95029" lon="6.29261">
        <ele>1298.4</ele>
        <time>2019-11-01T10:28:56Z</time>
      </trkpt>
      <trkpt lat="43.95033" lon="6.29261">
        <ele>1298.1</ele>
        <time>2019-11-01T10:28:57Z</time>
      </trkpt>
      <trkpt lat="43.95041" lon="6.2926">
        <ele>1297.5</ele>
        <time>2019-11-01T10:28:59Z</time>
      </trkpt>
      <trkpt lat="43.95047" lon="6.29259">
        <ele>1296.8</ele>
        <time>2019-11-01T10:29:01Z</time>
      </trkpt>
      <trkpt lat="43.95051" lon="6.29258">
        <ele>1296.5</ele>
        <time>2019-11-01T10:29:02Z</time>
      </trkpt>
      <trkpt lat="43.95054" lon="6.29257">
        <ele>1296.7</ele>
        <time>2019-11-01T10:29:03Z</time>
      </trkpt>
      <trkpt lat="43.95057" lon="6.29256">
        <ele>1297</ele>
        <time>2019-11-01T10:29:04Z</time>
      </trkpt>
      <trkpt lat="43.95061" lon="6.29255">
        <ele>1296.6</ele>
        <time>2019-11-01T10:29:05Z</time>
      </trkpt>
      <trkpt lat="43.95066" lon="6.29254">
        <ele>1296</ele>
        <time>2019-11-01T10:29:07Z</time>
      </trkpt>
      <trkpt lat="43.95069" lon="6.29254">
        <ele>1295.6</ele>
        <time>2019-11-01T10:29:08Z</time>
      </trkpt>
      <trkpt lat="43.95074" lon="6.29254">
        <ele>1294.9</ele>
        <time>2019-11-01T10:29:09Z</time>
      </trkpt>
      <trkpt lat="43.95077" lon="6.29254">
        <ele>1294.8</ele>
        <time>2019-11-01T10:29:10Z</time>
      </trkpt>
      <trkpt lat="43.95084" lon="6.29252">
        <ele>1295.1</ele>
        <time>2019-11-01T10:29:13Z</time>
      </trkpt>
      <trkpt lat="43.95088" lon="6.2925">
        <ele>1294.8</ele>
        <time>2019-11-01T10:29:14Z</time>
      </trkpt>
      <trkpt lat="43.95094" lon="6.29248">
        <ele>1293.9</ele>
        <time>2019-11-01T10:29:15Z</time>
      </trkpt>
      <trkpt lat="43.95098" lon="6.29247">
        <ele>1294.1</ele>
        <time>2019-11-01T10:29:16Z</time>
      </trkpt>
      <trkpt lat="43.95101" lon="6.29245">
        <ele>1294.2</ele>
        <time>2019-11-01T10:29:18Z</time>
      </trkpt>
      <trkpt lat="43.95105" lon="6.29244">
        <ele>1294.5</ele>
        <time>2019-11-01T10:29:19Z</time>
      </trkpt>
      <trkpt lat="43.95111" lon="6.29242">
        <ele>1295</ele>
        <time>2019-11-01T10:29:20Z</time>
      </trkpt>
      <trkpt lat="43.95115" lon="6.2924">
        <ele>1295.6</ele>
        <time>2019-11-01T10:29:22Z</time>
      </trkpt>
      <trkpt lat="43.95118" lon="6.29238">
        <ele>1296</ele>
        <time>2019-11-01T10:29:23Z</time>
      </trkpt>
      <trkpt lat="43.95122" lon="6.29237">
        <ele>1296.4</ele>
        <time>2019-11-01T10:29:24Z</time>
      </trkpt>
      <trkpt lat="43.95127" lon="6.29235">
        <ele>1297</ele>
        <time>2019-11-01T10:29:25Z</time>
      </trkpt>
      <trkpt lat="43.9513" lon="6.29234">
        <ele>1297</ele>
        <time>2019-11-01T10:29:27Z</time>
      </trkpt>
      <trkpt lat="43.95136" lon="6.29232">
        <ele>1296.4</ele>
        <time>2019-11-01T10:29:28Z</time>
      </trkpt>
      <trkpt lat="43.95139" lon="6.2923">
        <ele>1296.6</ele>
        <time>2019-11-01T10:29:29Z</time>
      </trkpt>
      <trkpt lat="43.95144" lon="6.29228">
        <ele>1297</ele>
        <time>2019-11-01T10:29:31Z</time>
      </trkpt>
      <trkpt lat="43.95147" lon="6.29226">
        <ele>1297.5</ele>
        <time>2019-11-01T10:29:32Z</time>
      </trkpt>
      <trkpt lat="43.95151" lon="6.29224">
        <ele>1298</ele>
        <time>2019-11-01T10:29:33Z</time>
      </trkpt>
      <trkpt lat="43.95154" lon="6.29222">
        <ele>1298.5</ele>
        <time>2019-11-01T10:29:34Z</time>
      </trkpt>
      <trkpt lat="43.95157" lon="6.29219">
        <ele>1299</ele>
        <time>2019-11-01T10:29:35Z</time>
      </trkpt>
      <trkpt lat="43.95162" lon="6.29216">
        <ele>1299.5</ele>
        <time>2019-11-01T10:29:37Z</time>
      </trkpt>
      <trkpt lat="43.95166" lon="6.29214">
        <ele>1299.7</ele>
        <time>2019-11-01T10:29:38Z</time>
      </trkpt>
      <trkpt lat="43.95169" lon="6.29212">
        <ele>1299.9</ele>
        <time>2019-11-01T10:29:39Z</time>
      </trkpt>
      <trkpt lat="43.95172" lon="6.2921">
        <ele>1300.1</ele>
        <time>2019-11-01T10:29:40Z</time>
      </trkpt>
      <trkpt lat="43.95175" lon="6.29207">
        <ele>1300.5</ele>
        <time>2019-11-01T10:29:41Z</time>
      </trkpt>
      <trkpt lat="43.95178" lon="6.29204">
        <ele>1301.8</ele>
        <time>2019-11-01T10:29:42Z</time>
      </trkpt>
      <trkpt lat="43.95182" lon="6.292">
        <ele>1302.9</ele>
        <time>2019-11-01T10:29:43Z</time>
      </trkpt>
      <trkpt lat="43.95185" lon="6.29197">
        <ele>1304.5</ele>
        <time>2019-11-01T10:29:45Z</time>
      </trkpt>
      <trkpt lat="43.9519" lon="6.29192">
        <ele>1305.5</ele>
        <time>2019-11-01T10:29:47Z</time>
      </trkpt>
      <trkpt lat="43.95192" lon="6.29188">
        <ele>1305.9</ele>
        <time>2019-11-01T10:29:48Z</time>
      </trkpt>
      <trkpt lat="43.95195" lon="6.29184">
        <ele>1307.5</ele>
        <time>2019-11-01T10:29:49Z</time>
      </trkpt>
      <trkpt lat="43.95198" lon="6.29178">
        <ele>1309.2</ele>
        <time>2019-11-01T10:29:50Z</time>
      </trkpt>
      <trkpt lat="43.952" lon="6.29171">
        <ele>1310.4</ele>
        <time>2019-11-01T10:29:52Z</time>
      </trkpt>
      <trkpt lat="43.95201" lon="6.29167">
        <ele>1311.6</ele>
        <time>2019-11-01T10:29:53Z</time>
      </trkpt>
      <trkpt lat="43.95203" lon="6.29162">
        <ele>1313.5</ele>
        <time>2019-11-01T10:29:54Z</time>
      </trkpt>
      <trkpt lat="43.95206" lon="6.29158">
        <ele>1315.6</ele>
        <time>2019-11-01T10:29:55Z</time>
      </trkpt>
      <trkpt lat="43.95209" lon="6.29155">
        <ele>1316.5</ele>
        <time>2019-11-01T10:29:56Z</time>
      </trkpt>
      <trkpt lat="43.95212" lon="6.29153">
        <ele>1317</ele>
        <time>2019-11-01T10:29:57Z</time>
      </trkpt>
      <trkpt lat="43.95215" lon="6.29151">
        <ele>1316.1</ele>
        <time>2019-11-01T10:29:58Z</time>
      </trkpt>
      <trkpt lat="43.9522" lon="6.29151">
        <ele>1314.6</ele>
        <time>2019-11-01T10:30:00Z</time>
      </trkpt>
      <trkpt lat="43.95226" lon="6.29154">
        <ele>1313.1</ele>
        <time>2019-11-01T10:30:02Z</time>
      </trkpt>
      <trkpt lat="43.9523" lon="6.29155">
        <ele>1312.1</ele>
        <time>2019-11-01T10:30:03Z</time>
      </trkpt>
      <trkpt lat="43.95236" lon="6.29155">
        <ele>1310.5</ele>
        <time>2019-11-01T10:30:04Z</time>
      </trkpt>
      <trkpt lat="43.9524" lon="6.29153">
        <ele>1309.7</ele>
        <time>2019-11-01T10:30:05Z</time>
      </trkpt>
      <trkpt lat="43.95244" lon="6.29152">
        <ele>1309</ele>
        <time>2019-11-01T10:30:07Z</time>
      </trkpt>
      <trkpt lat="43.95248" lon="6.29149">
        <ele>1308.2</ele>
        <time>2019-11-01T10:30:08Z</time>
      </trkpt>
      <trkpt lat="43.95251" lon="6.29146">
        <ele>1307.2</ele>
        <time>2019-11-01T10:30:09Z</time>
      </trkpt>
      <trkpt lat="43.95254" lon="6.29143">
        <ele>1306.9</ele>
        <time>2019-11-01T10:30:10Z</time>
      </trkpt>
      <trkpt lat="43.95258" lon="6.29136">
        <ele>1308.3</ele>
        <time>2019-11-01T10:30:12Z</time>
      </trkpt>
      <trkpt lat="43.9526" lon="6.29132">
        <ele>1308.5</ele>
        <time>2019-11-01T10:30:13Z</time>
      </trkpt>
      <trkpt lat="43.95261" lon="6.29128">
        <ele>1308.7</ele>
        <time>2019-11-01T10:30:14Z</time>
      </trkpt>
      <trkpt lat="43.95263" lon="6.29124">
        <ele>1309.2</ele>
        <time>2019-11-01T10:30:15Z</time>
      </trkpt>
      <trkpt lat="43.95265" lon="6.29117">
        <ele>1310.1</ele>
        <time>2019-11-01T10:30:16Z</time>
      </trkpt>
      <trkpt lat="43.95267" lon="6.29113">
        <ele>1311</ele>
        <time>2019-11-01T10:30:18Z</time>
      </trkpt>
      <trkpt lat="43.95269" lon="6.29106">
        <ele>1312.4</ele>
        <time>2019-11-01T10:30:19Z</time>
      </trkpt>
      <trkpt lat="43.95271" lon="6.29101">
        <ele>1313</ele>
        <time>2019-11-01T10:30:20Z</time>
      </trkpt>
      <trkpt lat="43.95272" lon="6.29094">
        <ele>1313.8</ele>
        <time>2019-11-01T10:30:22Z</time>
      </trkpt>
      <trkpt lat="43.95273" lon="6.2909">
        <ele>1314.4</ele>
        <time>2019-11-01T10:30:23Z</time>
      </trkpt>
      <trkpt lat="43.95276" lon="6.29083">
        <ele>1315.4</ele>
        <time>2019-11-01T10:30:24Z</time>
      </trkpt>
      <trkpt lat="43.95279" lon="6.29074">
        <ele>1316.2</ele>
        <time>2019-11-01T10:30:26Z</time>
      </trkpt>
      <trkpt lat="43.9528" lon="6.2907">
        <ele>1317</ele>
        <time>2019-11-01T10:30:27Z</time>
      </trkpt>
      <trkpt lat="43.95283" lon="6.29064">
        <ele>1318.2</ele>
        <time>2019-11-01T10:30:29Z</time>
      </trkpt>
      <trkpt lat="43.95284" lon="6.2906">
        <ele>1318.6</ele>
        <time>2019-11-01T10:30:30Z</time>
      </trkpt>
      <trkpt lat="43.95286" lon="6.29056">
        <ele>1318.6</ele>
        <time>2019-11-01T10:30:31Z</time>
      </trkpt>
      <trkpt lat="43.95289" lon="6.2905">
        <ele>1319</ele>
        <time>2019-11-01T10:30:32Z</time>
      </trkpt>
      <trkpt lat="43.95291" lon="6.29046">
        <ele>1319.8</ele>
        <time>2019-11-01T10:30:34Z</time>
      </trkpt>
      <trkpt lat="43.95295" lon="6.2904">
        <ele>1321.1</ele>
        <time>2019-11-01T10:30:35Z</time>
      </trkpt>
      <trkpt lat="43.95298" lon="6.29036">
        <ele>1322.1</ele>
        <time>2019-11-01T10:30:36Z</time>
      </trkpt>
      <trkpt lat="43.95301" lon="6.29032">
        <ele>1322.4</ele>
        <time>2019-11-01T10:30:38Z</time>
      </trkpt>
      <trkpt lat="43.95305" lon="6.2903">
        <ele>1321.9</ele>
        <time>2019-11-01T10:30:39Z</time>
      </trkpt>
      <trkpt lat="43.95308" lon="6.29027">
        <ele>1321.3</ele>
        <time>2019-11-01T10:30:40Z</time>
      </trkpt>
      <trkpt lat="43.95313" lon="6.29024">
        <ele>1320.5</ele>
        <time>2019-11-01T10:30:41Z</time>
      </trkpt>
      <trkpt lat="43.95318" lon="6.29022">
        <ele>1321.1</ele>
        <time>2019-11-01T10:30:42Z</time>
      </trkpt>
      <trkpt lat="43.95322" lon="6.29021">
        <ele>1321.3</ele>
        <time>2019-11-01T10:30:44Z</time>
      </trkpt>
      <trkpt lat="43.95325" lon="6.29019">
        <ele>1321.2</ele>
        <time>2019-11-01T10:30:45Z</time>
      </trkpt>
      <trkpt lat="43.95328" lon="6.29017">
        <ele>1321.1</ele>
        <time>2019-11-01T10:30:46Z</time>
      </trkpt>
      <trkpt lat="43.95332" lon="6.29014">
        <ele>1318.5</ele>
        <time>2019-11-01T10:30:47Z</time>
      </trkpt>
      <trkpt lat="43.95336" lon="6.29011">
        <ele>1317.4</ele>
        <time>2019-11-01T10:30:48Z</time>
      </trkpt>
      <trkpt lat="43.95339" lon="6.29009">
        <ele>1317.3</ele>
        <time>2019-11-01T10:30:50Z</time>
      </trkpt>
      <trkpt lat="43.95342" lon="6.29007">
        <ele>1317.3</ele>
        <time>2019-11-01T10:30:51Z</time>
      </trkpt>
      <trkpt lat="43.95347" lon="6.29004">
        <ele>1317.4</ele>
        <time>2019-11-01T10:30:52Z</time>
      </trkpt>
      <trkpt lat="43.95351" lon="6.29003">
        <ele>1316.5</ele>
        <time>2019-11-01T10:30:54Z</time>
      </trkpt>
      <trkpt lat="43.95355" lon="6.29002">
        <ele>1315.4</ele>
        <time>2019-11-01T10:30:55Z</time>
      </trkpt>
      <trkpt lat="43.95358" lon="6.29001">
        <ele>1314.5</ele>
        <time>2019-11-01T10:30:57Z</time>
      </trkpt>
      <trkpt lat="43.95361" lon="6.29">
        <ele>1313.7</ele>
        <time>2019-11-01T10:30:58Z</time>
      </trkpt>
      <trkpt lat="43.95366" lon="6.29001">
        <ele>1313.1</ele>
        <time>2019-11-01T10:31:00Z</time>
      </trkpt>
      <trkpt lat="43.95372" lon="6.29001">
        <ele>1312.5</ele>
        <time>2019-11-01T10:31:03Z</time>
      </trkpt>
      <trkpt lat="43.95377" lon="6.29002">
        <ele>1311.8</ele>
        <time>2019-11-01T10:31:05Z</time>
      </trkpt>
      <trkpt lat="43.95381" lon="6.29002">
        <ele>1311.1</ele>
        <time>2019-11-01T10:31:07Z</time>
      </trkpt>
      <trkpt lat="43.95386" lon="6.29002">
        <ele>1310</ele>
        <time>2019-11-01T10:31:09Z</time>
      </trkpt>
      <trkpt lat="43.95391" lon="6.29002">
        <ele>1309</ele>
        <time>2019-11-01T10:31:12Z</time>
      </trkpt>
      <trkpt lat="43.95396" lon="6.29001">
        <ele>1308</ele>
        <time>2019-11-01T10:31:15Z</time>
      </trkpt>
      <trkpt lat="43.95401" lon="6.29">
        <ele>1307.3</ele>
        <time>2019-11-01T10:31:18Z</time>
      </trkpt>
      <trkpt lat="43.95406" lon="6.28998">
        <ele>1307</ele>
        <time>2019-11-01T10:31:20Z</time>
      </trkpt>
      <trkpt lat="43.95411" lon="6.28996">
        <ele>1307.2</ele>
        <time>2019-11-01T10:31:23Z</time>
      </trkpt>
      <trkpt lat="43.95415" lon="6.28994">
        <ele>1307.3</ele>
        <time>2019-11-01T10:31:25Z</time>
      </trkpt>
      <trkpt lat="43.95419" lon="6.28992">
        <ele>1307.3</ele>
        <time>2019-11-01T10:31:28Z</time>
      </trkpt>
      <trkpt lat="43.95424" lon="6.2899">
        <ele>1307.5</ele>
        <time>2019-11-01T10:31:31Z</time>
      </trkpt>
      <trkpt lat="43.95428" lon="6.28987">
        <ele>1307.8</ele>
        <time>2019-11-01T10:31:33Z</time>
      </trkpt>
      <trkpt lat="43.95432" lon="6.28985">
        <ele>1308</ele>
        <time>2019-11-01T10:31:36Z</time>
      </trkpt>
      <trkpt lat="43.95436" lon="6.28984">
        <ele>1308.2</ele>
        <time>2019-11-01T10:31:39Z</time>
      </trkpt>
      <trkpt lat="43.95439" lon="6.28984">
        <ele>1308.4</ele>
        <time>2019-11-01T10:31:41Z</time>
      </trkpt>
      <trkpt lat="43.95443" lon="6.28981">
        <ele>1308.7</ele>
        <time>2019-11-01T10:31:44Z</time>
      </trkpt>
      <trkpt lat="43.95446" lon="6.28978">
        <ele>1309</ele>
        <time>2019-11-01T10:31:46Z</time>
      </trkpt>
      <trkpt lat="43.9545" lon="6.28976">
        <ele>1309.6</ele>
        <time>2019-11-01T10:31:48Z</time>
      </trkpt>
      <trkpt lat="43.95453" lon="6.28975">
        <ele>1309.9</ele>
        <time>2019-11-01T10:31:50Z</time>
      </trkpt>
      <trkpt lat="43.95456" lon="6.28974">
        <ele>1309.8</ele>
        <time>2019-11-01T10:31:52Z</time>
      </trkpt>
      <trkpt lat="43.9546" lon="6.28972">
        <ele>1309.6</ele>
        <time>2019-11-01T10:31:54Z</time>
      </trkpt>
      <trkpt lat="43.95464" lon="6.28971">
        <ele>1310.2</ele>
        <time>2019-11-01T10:31:57Z</time>
      </trkpt>
      <trkpt lat="43.95468" lon="6.28969">
        <ele>1310.7</ele>
        <time>2019-11-01T10:31:59Z</time>
      </trkpt>
      <trkpt lat="43.95471" lon="6.28967">
        <ele>1311.5</ele>
        <time>2019-11-01T10:32:02Z</time>
      </trkpt>
      <trkpt lat="43.95476" lon="6.28965">
        <ele>1312.2</ele>
        <time>2019-11-01T10:32:04Z</time>
      </trkpt>
      <trkpt lat="43.9548" lon="6.28965">
        <ele>1312.3</ele>
        <time>2019-11-01T10:32:07Z</time>
      </trkpt>
      <trkpt lat="43.95482" lon="6.28964">
        <ele>1312.3</ele>
        <time>2019-11-01T10:32:09Z</time>
      </trkpt>
      <trkpt lat="43.95487" lon="6.28965">
        <ele>1313.6</ele>
        <time>2019-11-01T10:32:12Z</time>
      </trkpt>
      <trkpt lat="43.9549" lon="6.28965">
        <ele>1314.2</ele>
        <time>2019-11-01T10:32:14Z</time>
      </trkpt>
      <trkpt lat="43.95493" lon="6.28964">
        <ele>1314.5</ele>
        <time>2019-11-01T10:32:16Z</time>
      </trkpt>
      <trkpt lat="43.95495" lon="6.28964">
        <ele>1314.8</ele>
        <time>2019-11-01T10:32:17Z</time>
      </trkpt>
      <trkpt lat="43.95499" lon="6.28963">
        <ele>1315.3</ele>
        <time>2019-11-01T10:32:20Z</time>
      </trkpt>
      <trkpt lat="43.95503" lon="6.28961">
        <ele>1316</ele>
        <time>2019-11-01T10:32:22Z</time>
      </trkpt>
      <trkpt lat="43.95508" lon="6.28959">
        <ele>1317.1</ele>
        <time>2019-11-01T10:32:26Z</time>
      </trkpt>
      <trkpt lat="43.95512" lon="6.28958">
        <ele>1318.7</ele>
        <time>2019-11-01T10:32:29Z</time>
      </trkpt>
      <trkpt lat="43.95515" lon="6.28956">
        <ele>1319.7</ele>
        <time>2019-11-01T10:32:30Z</time>
      </trkpt>
      <trkpt lat="43.95519" lon="6.28953">
        <ele>1321.2</ele>
        <time>2019-11-01T10:32:33Z</time>
      </trkpt>
      <trkpt lat="43.95522" lon="6.2895">
        <ele>1322.4</ele>
        <time>2019-11-01T10:32:35Z</time>
      </trkpt>
      <trkpt lat="43.95525" lon="6.28948">
        <ele>1323.6</ele>
        <time>2019-11-01T10:32:37Z</time>
      </trkpt>
      <trkpt lat="43.95528" lon="6.28946">
        <ele>1324.7</ele>
        <time>2019-11-01T10:32:40Z</time>
      </trkpt>
      <trkpt lat="43.95531" lon="6.28942">
        <ele>1326.1</ele>
        <time>2019-11-01T10:32:42Z</time>
      </trkpt>
      <trkpt lat="43.95534" lon="6.28939">
        <ele>1327.7</ele>
        <time>2019-11-01T10:32:45Z</time>
      </trkpt>
      <trkpt lat="43.95539" lon="6.28936">
        <ele>1329.9</ele>
        <time>2019-11-01T10:32:48Z</time>
      </trkpt>
      <trkpt lat="43.95543" lon="6.28934">
        <ele>1331</ele>
        <time>2019-11-01T10:32:50Z</time>
      </trkpt>
      <trkpt lat="43.95548" lon="6.28932">
        <ele>1332</ele>
        <time>2019-11-01T10:32:53Z</time>
      </trkpt>
      <trkpt lat="43.95552" lon="6.28928">
        <ele>1333.9</ele>
        <time>2019-11-01T10:32:55Z</time>
      </trkpt>
      <trkpt lat="43.95556" lon="6.28925">
        <ele>1334.4</ele>
        <time>2019-11-01T10:32:58Z</time>
      </trkpt>
      <trkpt lat="43.9556" lon="6.28924">
        <ele>1335.2</ele>
        <time>2019-11-01T10:33:01Z</time>
      </trkpt>
      <trkpt lat="43.95564" lon="6.2892">
        <ele>1336.8</ele>
        <time>2019-11-01T10:33:04Z</time>
      </trkpt>
      <trkpt lat="43.95567" lon="6.28917">
        <ele>1337.7</ele>
        <time>2019-11-01T10:33:06Z</time>
      </trkpt>
      <trkpt lat="43.9557" lon="6.28914">
        <ele>1338.2</ele>
        <time>2019-11-01T10:33:07Z</time>
      </trkpt>
      <trkpt lat="43.95572" lon="6.28913">
        <ele>1338.7</ele>
        <time>2019-11-01T10:33:10Z</time>
      </trkpt>
      <trkpt lat="43.95576" lon="6.28911">
        <ele>1339.7</ele>
        <time>2019-11-01T10:33:13Z</time>
      </trkpt>
      <trkpt lat="43.95581" lon="6.2891">
        <ele>1341</ele>
        <time>2019-11-01T10:33:17Z</time>
      </trkpt>
      <trkpt lat="43.95584" lon="6.28908">
        <ele>1341.4</ele>
        <time>2019-11-01T10:33:19Z</time>
      </trkpt>
      <trkpt lat="43.95587" lon="6.28907">
        <ele>1341.7</ele>
        <time>2019-11-01T10:33:21Z</time>
      </trkpt>
      <trkpt lat="43.9559" lon="6.28906">
        <ele>1341.8</ele>
        <time>2019-11-01T10:33:23Z</time>
      </trkpt>
      <trkpt lat="43.95593" lon="6.28906">
        <ele>1341.8</ele>
        <time>2019-11-01T10:33:25Z</time>
      </trkpt>
      <trkpt lat="43.95596" lon="6.28905">
        <ele>1341.8</ele>
        <time>2019-11-01T10:33:26Z</time>
      </trkpt>
      <trkpt lat="43.956" lon="6.28904">
        <ele>1342.1</ele>
        <time>2019-11-01T10:33:29Z</time>
      </trkpt>
      <trkpt lat="43.95603" lon="6.28902">
        <ele>1342.4</ele>
        <time>2019-11-01T10:33:31Z</time>
      </trkpt>
      <trkpt lat="43.95607" lon="6.289">
        <ele>1342.5</ele>
        <time>2019-11-01T10:33:33Z</time>
      </trkpt>
      <trkpt lat="43.95611" lon="6.28899">
        <ele>1342.6</ele>
        <time>2019-11-01T10:33:36Z</time>
      </trkpt>
      <trkpt lat="43.95615" lon="6.28898">
        <ele>1343</ele>
        <time>2019-11-01T10:33:39Z</time>
      </trkpt>
      <trkpt lat="43.95619" lon="6.28895">
        <ele>1343.6</ele>
        <time>2019-11-01T10:33:41Z</time>
      </trkpt>
      <trkpt lat="43.95621" lon="6.28893">
        <ele>1344</ele>
        <time>2019-11-01T10:33:44Z</time>
      </trkpt>
      <trkpt lat="43.95624" lon="6.28891">
        <ele>1344.4</ele>
        <time>2019-11-01T10:33:46Z</time>
      </trkpt>
      <trkpt lat="43.95627" lon="6.28889">
        <ele>1344.7</ele>
        <time>2019-11-01T10:33:48Z</time>
      </trkpt>
      <trkpt lat="43.9563" lon="6.28885">
        <ele>1345.2</ele>
        <time>2019-11-01T10:33:51Z</time>
      </trkpt>
      <trkpt lat="43.95633" lon="6.28883">
        <ele>1345.6</ele>
        <time>2019-11-01T10:33:53Z</time>
      </trkpt>
      <trkpt lat="43.95635" lon="6.2888">
        <ele>1346</ele>
        <time>2019-11-01T10:33:55Z</time>
      </trkpt>
      <trkpt lat="43.95638" lon="6.28875">
        <ele>1346.6</ele>
        <time>2019-11-01T10:33:57Z</time>
      </trkpt>
      <trkpt lat="43.95641" lon="6.28871">
        <ele>1347.2</ele>
        <time>2019-11-01T10:34:00Z</time>
      </trkpt>
      <trkpt lat="43.95644" lon="6.28867">
        <ele>1347.7</ele>
        <time>2019-11-01T10:34:02Z</time>
      </trkpt>
      <trkpt lat="43.95646" lon="6.28863">
        <ele>1348.2</ele>
        <time>2019-11-01T10:34:04Z</time>
      </trkpt>
      <trkpt lat="43.95648" lon="6.2886">
        <ele>1348.5</ele>
        <time>2019-11-01T10:34:06Z</time>
      </trkpt>
      <trkpt lat="43.9565" lon="6.28856">
        <ele>1349.1</ele>
        <time>2019-11-01T10:34:09Z</time>
      </trkpt>
      <trkpt lat="43.95654" lon="6.28849">
        <ele>1350</ele>
        <time>2019-11-01T10:34:12Z</time>
      </trkpt>
      <trkpt lat="43.95657" lon="6.28845">
        <ele>1350.5</ele>
        <time>2019-11-01T10:34:15Z</time>
      </trkpt>
      <trkpt lat="43.9566" lon="6.28843">
        <ele>1351</ele>
        <time>2019-11-01T10:34:17Z</time>
      </trkpt>
      <trkpt lat="43.95663" lon="6.28839">
        <ele>1351.5</ele>
        <time>2019-11-01T10:34:20Z</time>
      </trkpt>
      <trkpt lat="43.95667" lon="6.28838">
        <ele>1351.9</ele>
        <time>2019-11-01T10:34:22Z</time>
      </trkpt>
      <trkpt lat="43.95672" lon="6.28836">
        <ele>1352.3</ele>
        <time>2019-11-01T10:34:26Z</time>
      </trkpt>
      <trkpt lat="43.95676" lon="6.28836">
        <ele>1352.8</ele>
        <time>2019-11-01T10:34:28Z</time>
      </trkpt>
      <trkpt lat="43.95679" lon="6.28837">
        <ele>1353.1</ele>
        <time>2019-11-01T10:34:30Z</time>
      </trkpt>
      <trkpt lat="43.95684" lon="6.28838">
        <ele>1353.3</ele>
        <time>2019-11-01T10:34:34Z</time>
      </trkpt>
      <trkpt lat="43.95687" lon="6.28839">
        <ele>1353.4</ele>
        <time>2019-11-01T10:34:35Z</time>
      </trkpt>
      <trkpt lat="43.9569" lon="6.2884">
        <ele>1353.5</ele>
        <time>2019-11-01T10:34:38Z</time>
      </trkpt>
      <trkpt lat="43.95693" lon="6.28841">
        <ele>1353.6</ele>
        <time>2019-11-01T10:34:40Z</time>
      </trkpt>
      <trkpt lat="43.95697" lon="6.28842">
        <ele>1353.7</ele>
        <time>2019-11-01T10:34:43Z</time>
      </trkpt>
      <trkpt lat="43.957" lon="6.28843">
        <ele>1353.7</ele>
        <time>2019-11-01T10:34:45Z</time>
      </trkpt>
      <trkpt lat="43.95704" lon="6.28842">
        <ele>1353.6</ele>
        <time>2019-11-01T10:34:47Z</time>
      </trkpt>
      <trkpt lat="43.95708" lon="6.2884">
        <ele>1353.5</ele>
        <time>2019-11-01T10:34:50Z</time>
      </trkpt>
      <trkpt lat="43.95713" lon="6.28836">
        <ele>1353.5</ele>
        <time>2019-11-01T10:34:53Z</time>
      </trkpt>
      <trkpt lat="43.95715" lon="6.28831">
        <ele>1353.4</ele>
        <time>2019-11-01T10:34:56Z</time>
      </trkpt>
      <trkpt lat="43.95717" lon="6.28825">
        <ele>1353.4</ele>
        <time>2019-11-01T10:34:59Z</time>
      </trkpt>
      <trkpt lat="43.95716" lon="6.2882">
        <ele>1353.4</ele>
        <time>2019-11-01T10:35:00Z</time>
      </trkpt>
      <trkpt lat="43.95715" lon="6.28815">
        <ele>1353.5</ele>
        <time>2019-11-01T10:35:03Z</time>
      </trkpt>
      <trkpt lat="43.95713" lon="6.28811">
        <ele>1353.5</ele>
        <time>2019-11-01T10:35:04Z</time>
      </trkpt>
      <trkpt lat="43.95709" lon="6.28807">
        <ele>1353.6</ele>
        <time>2019-11-01T10:35:06Z</time>
      </trkpt>
      <trkpt lat="43.95707" lon="6.28804">
        <ele>1353.7</ele>
        <time>2019-11-01T10:35:09Z</time>
      </trkpt>
      <trkpt lat="43.95702" lon="6.28799">
        <ele>1353.8</ele>
        <time>2019-11-01T10:35:12Z</time>
      </trkpt>
      <trkpt lat="43.95698" lon="6.28794">
        <ele>1354</ele>
        <time>2019-11-01T10:35:15Z</time>
      </trkpt>
      <trkpt lat="43.95694" lon="6.28789">
        <ele>1354.1</ele>
        <time>2019-11-01T10:35:17Z</time>
      </trkpt>
      <trkpt lat="43.95693" lon="6.28783">
        <ele>1354.1</ele>
        <time>2019-11-01T10:35:20Z</time>
      </trkpt>
      <trkpt lat="43.95692" lon="6.28779">
        <ele>1354.1</ele>
        <time>2019-11-01T10:35:21Z</time>
      </trkpt>
      <trkpt lat="43.95692" lon="6.28774">
        <ele>1354</ele>
        <time>2019-11-01T10:35:23Z</time>
      </trkpt>
      <trkpt lat="43.95694" lon="6.28767">
        <ele>1353.8</ele>
        <time>2019-11-01T10:35:26Z</time>
      </trkpt>
      <trkpt lat="43.95698" lon="6.28762">
        <ele>1353.7</ele>
        <time>2019-11-01T10:35:29Z</time>
      </trkpt>
      <trkpt lat="43.957" lon="6.2876">
        <ele>1353.5</ele>
        <time>2019-11-01T10:35:30Z</time>
      </trkpt>
      <trkpt lat="43.95703" lon="6.28758">
        <ele>1353.3</ele>
        <time>2019-11-01T10:35:33Z</time>
      </trkpt>
      <trkpt lat="43.95706" lon="6.28756">
        <ele>1353.1</ele>
        <time>2019-11-01T10:35:34Z</time>
      </trkpt>
      <trkpt lat="43.95708" lon="6.28754">
        <ele>1352.9</ele>
        <time>2019-11-01T10:35:36Z</time>
      </trkpt>
      <trkpt lat="43.95711" lon="6.28752">
        <ele>1352.7</ele>
        <time>2019-11-01T10:35:38Z</time>
      </trkpt>
      <trkpt lat="43.95713" lon="6.2875">
        <ele>1352.5</ele>
        <time>2019-11-01T10:35:40Z</time>
      </trkpt>
      <trkpt lat="43.95716" lon="6.28742">
        <ele>1351.7</ele>
        <time>2019-11-01T10:35:42Z</time>
      </trkpt>
      <trkpt lat="43.95717" lon="6.28736">
        <ele>1350.8</ele>
        <time>2019-11-01T10:35:45Z</time>
      </trkpt>
      <trkpt lat="43.95717" lon="6.28729">
        <ele>1350.2</ele>
        <time>2019-11-01T10:35:47Z</time>
      </trkpt>
      <trkpt lat="43.95715" lon="6.28721">
        <ele>1349.2</ele>
        <time>2019-11-01T10:35:50Z</time>
      </trkpt>
      <trkpt lat="43.95712" lon="6.28713">
        <ele>1348.4</ele>
        <time>2019-11-01T10:35:53Z</time>
      </trkpt>
      <trkpt lat="43.9571" lon="6.2871">
        <ele>1348.1</ele>
        <time>2019-11-01T10:35:54Z</time>
      </trkpt>
      <trkpt lat="43.95707" lon="6.28705">
        <ele>1347.6</ele>
        <time>2019-11-01T10:35:55Z</time>
      </trkpt>
      <trkpt lat="43.95705" lon="6.28701">
        <ele>1347.3</ele>
        <time>2019-11-01T10:35:56Z</time>
      </trkpt>
      <trkpt lat="43.95703" lon="6.28698">
        <ele>1347</ele>
        <time>2019-11-01T10:35:59Z</time>
      </trkpt>
      <trkpt lat="43.957" lon="6.28695">
        <ele>1346.7</ele>
        <time>2019-11-01T10:36:40Z</time>
      </trkpt>
      <trkpt lat="43.95695" lon="6.2869">
        <ele>1346.4</ele>
        <time>2019-11-01T10:36:42Z</time>
      </trkpt>
      <trkpt lat="43.95692" lon="6.28687">
        <ele>1346.1</ele>
        <time>2019-11-01T10:36:43Z</time>
      </trkpt>
      <trkpt lat="43.95689" lon="6.28684">
        <ele>1345.8</ele>
        <time>2019-11-01T10:36:44Z</time>
      </trkpt>
      <trkpt lat="43.95682" lon="6.28679">
        <ele>1345.6</ele>
        <time>2019-11-01T10:36:46Z</time>
      </trkpt>
      <trkpt lat="43.95678" lon="6.28676">
        <ele>1345.6</ele>
        <time>2019-11-01T10:36:47Z</time>
      </trkpt>
      <trkpt lat="43.95675" lon="6.28674">
        <ele>1345.5</ele>
        <time>2019-11-01T10:36:48Z</time>
      </trkpt>
      <trkpt lat="43.95664" lon="6.28671">
        <ele>1345.7</ele>
        <time>2019-11-01T10:36:50Z</time>
      </trkpt>
      <trkpt lat="43.95658" lon="6.2867">
        <ele>1346.1</ele>
        <time>2019-11-01T10:36:51Z</time>
      </trkpt>
      <trkpt lat="43.95646" lon="6.28669">
        <ele>1347.1</ele>
        <time>2019-11-01T10:36:53Z</time>
      </trkpt>
      <trkpt lat="43.9564" lon="6.28667">
        <ele>1347.4</ele>
        <time>2019-11-01T10:36:54Z</time>
      </trkpt>
      <trkpt lat="43.95631" lon="6.28662">
        <ele>1347.7</ele>
        <time>2019-11-01T10:36:56Z</time>
      </trkpt>
      <trkpt lat="43.95628" lon="6.28656">
        <ele>1347.8</ele>
        <time>2019-11-01T10:36:59Z</time>
      </trkpt>
      <trkpt lat="43.95628" lon="6.2865">
        <ele>1347.6</ele>
        <time>2019-11-01T10:37:00Z</time>
      </trkpt>
      <trkpt lat="43.9563" lon="6.28647">
        <ele>1347.4</ele>
        <time>2019-11-01T10:37:01Z</time>
      </trkpt>
      <trkpt lat="43.95633" lon="6.28644">
        <ele>1347.1</ele>
        <time>2019-11-01T10:37:02Z</time>
      </trkpt>
      <trkpt lat="43.95639" lon="6.28645">
        <ele>1346.4</ele>
        <time>2019-11-01T10:37:04Z</time>
      </trkpt>
      <trkpt lat="43.95643" lon="6.28646">
        <ele>1345.9</ele>
        <time>2019-11-01T10:37:05Z</time>
      </trkpt>
      <trkpt lat="43.95652" lon="6.28647">
        <ele>1345.5</ele>
        <time>2019-11-01T10:37:07Z</time>
      </trkpt>
      <trkpt lat="43.95655" lon="6.28645">
        <ele>1345.2</ele>
        <time>2019-11-01T10:37:08Z</time>
      </trkpt>
      <trkpt lat="43.95661" lon="6.28643">
        <ele>1344.7</ele>
        <time>2019-11-01T10:37:09Z</time>
      </trkpt>
      <trkpt lat="43.9567" lon="6.28639">
        <ele>1343.6</ele>
        <time>2019-11-01T10:37:11Z</time>
      </trkpt>
      <trkpt lat="43.95673" lon="6.28639">
        <ele>1343.1</ele>
        <time>2019-11-01T10:37:12Z</time>
      </trkpt>
      <trkpt lat="43.95682" lon="6.28633">
        <ele>1342.2</ele>
        <time>2019-11-01T10:37:14Z</time>
      </trkpt>
      <trkpt lat="43.9569" lon="6.28625">
        <ele>1341.1</ele>
        <time>2019-11-01T10:37:16Z</time>
      </trkpt>
      <trkpt lat="43.95693" lon="6.28621">
        <ele>1340.6</ele>
        <time>2019-11-01T10:37:17Z</time>
      </trkpt>
      <trkpt lat="43.957" lon="6.28613">
        <ele>1339.7</ele>
        <time>2019-11-01T10:37:19Z</time>
      </trkpt>
      <trkpt lat="43.957" lon="6.28608">
        <ele>1339.3</ele>
        <time>2019-11-01T10:37:21Z</time>
      </trkpt>
      <trkpt lat="43.95698" lon="6.28605">
        <ele>1339.1</ele>
        <time>2019-11-01T10:37:23Z</time>
      </trkpt>
      <trkpt lat="43.95695" lon="6.28606">
        <ele>1339.1</ele>
        <time>2019-11-01T10:37:24Z</time>
      </trkpt>
      <trkpt lat="43.95692" lon="6.28606">
        <ele>1339.3</ele>
        <time>2019-11-01T10:37:25Z</time>
      </trkpt>
      <trkpt lat="43.95689" lon="6.28607">
        <ele>1339.6</ele>
        <time>2019-11-01T10:37:26Z</time>
      </trkpt>
      <trkpt lat="43.95685" lon="6.28608">
        <ele>1340</ele>
        <time>2019-11-01T10:37:28Z</time>
      </trkpt>
      <trkpt lat="43.95681" lon="6.28608">
        <ele>1340.3</ele>
        <time>2019-11-01T10:37:29Z</time>
      </trkpt>
      <trkpt lat="43.95678" lon="6.28608">
        <ele>1340.6</ele>
        <time>2019-11-01T10:37:31Z</time>
      </trkpt>
      <trkpt lat="43.95674" lon="6.28608">
        <ele>1340.8</ele>
        <time>2019-11-01T10:37:32Z</time>
      </trkpt>
      <trkpt lat="43.9567" lon="6.28609">
        <ele>1341</ele>
        <time>2019-11-01T10:37:33Z</time>
      </trkpt>
      <trkpt lat="43.95666" lon="6.28609">
        <ele>1341.3</ele>
        <time>2019-11-01T10:37:35Z</time>
      </trkpt>
      <trkpt lat="43.95661" lon="6.28609">
        <ele>1341.6</ele>
        <time>2019-11-01T10:37:36Z</time>
      </trkpt>
      <trkpt lat="43.95655" lon="6.28607">
        <ele>1342</ele>
        <time>2019-11-01T10:37:37Z</time>
      </trkpt>
      <trkpt lat="43.95649" lon="6.28606">
        <ele>1342.4</ele>
        <time>2019-11-01T10:37:39Z</time>
      </trkpt>
      <trkpt lat="43.95645" lon="6.28605">
        <ele>1342.6</ele>
        <time>2019-11-01T10:37:40Z</time>
      </trkpt>
      <trkpt lat="43.9564" lon="6.28605">
        <ele>1342.9</ele>
        <time>2019-11-01T10:37:41Z</time>
      </trkpt>
      <trkpt lat="43.95636" lon="6.28604">
        <ele>1343.2</ele>
        <time>2019-11-01T10:37:42Z</time>
      </trkpt>
      <trkpt lat="43.95628" lon="6.28601">
        <ele>1343.9</ele>
        <time>2019-11-01T10:37:44Z</time>
      </trkpt>
      <trkpt lat="43.95624" lon="6.28599">
        <ele>1344.2</ele>
        <time>2019-11-01T10:37:45Z</time>
      </trkpt>
      <trkpt lat="43.95615" lon="6.28594">
        <ele>1344.6</ele>
        <time>2019-11-01T10:37:47Z</time>
      </trkpt>
      <trkpt lat="43.95611" lon="6.28592">
        <ele>1344.8</ele>
        <time>2019-11-01T10:37:48Z</time>
      </trkpt>
      <trkpt lat="43.95603" lon="6.28586">
        <ele>1345.2</ele>
        <time>2019-11-01T10:37:50Z</time>
      </trkpt>
      <trkpt lat="43.95598" lon="6.28584">
        <ele>1345.2</ele>
        <time>2019-11-01T10:37:52Z</time>
      </trkpt>
      <trkpt lat="43.9559" lon="6.28577">
        <ele>1345.5</ele>
        <time>2019-11-01T10:37:55Z</time>
      </trkpt>
      <trkpt lat="43.9558" lon="6.28569">
        <ele>1345.5</ele>
        <time>2019-11-01T10:37:57Z</time>
      </trkpt>
      <trkpt lat="43.95569" lon="6.28559">
        <ele>1345.9</ele>
        <time>2019-11-01T10:38:00Z</time>
      </trkpt>
      <trkpt lat="43.9556" lon="6.28554">
        <ele>1345.9</ele>
        <time>2019-11-01T10:38:02Z</time>
      </trkpt>
      <trkpt lat="43.95556" lon="6.28552">
        <ele>1345.8</ele>
        <time>2019-11-01T10:38:03Z</time>
      </trkpt>
      <trkpt lat="43.95547" lon="6.28547">
        <ele>1345.4</ele>
        <time>2019-11-01T10:38:05Z</time>
      </trkpt>
      <trkpt lat="43.95543" lon="6.28544">
        <ele>1345.5</ele>
        <time>2019-11-01T10:38:06Z</time>
      </trkpt>
      <trkpt lat="43.95535" lon="6.2854">
        <ele>1345.2</ele>
        <time>2019-11-01T10:38:08Z</time>
      </trkpt>
      <trkpt lat="43.95533" lon="6.28537">
        <ele>1344.9</ele>
        <time>2019-11-01T10:38:09Z</time>
      </trkpt>
      <trkpt lat="43.95529" lon="6.28536">
        <ele>1344.9</ele>
        <time>2019-11-01T10:38:10Z</time>
      </trkpt>
      <trkpt lat="43.95525" lon="6.28533">
        <ele>1344.9</ele>
        <time>2019-11-01T10:38:12Z</time>
      </trkpt>
      <trkpt lat="43.95523" lon="6.28531">
        <ele>1344.6</ele>
        <time>2019-11-01T10:38:13Z</time>
      </trkpt>
      <trkpt lat="43.9552" lon="6.2853">
        <ele>1344.3</ele>
        <time>2019-11-01T10:38:14Z</time>
      </trkpt>
      <trkpt lat="43.95516" lon="6.28528">
        <ele>1344.1</ele>
        <time>2019-11-01T10:38:15Z</time>
      </trkpt>
      <trkpt lat="43.95512" lon="6.28527">
        <ele>1344.1</ele>
        <time>2019-11-01T10:38:16Z</time>
      </trkpt>
      <trkpt lat="43.95507" lon="6.28526">
        <ele>1343.8</ele>
        <time>2019-11-01T10:38:17Z</time>
      </trkpt>
      <trkpt lat="43.95502" lon="6.28527">
        <ele>1343.2</ele>
        <time>2019-11-01T10:38:18Z</time>
      </trkpt>
      <trkpt lat="43.95497" lon="6.28527">
        <ele>1342.6</ele>
        <time>2019-11-01T10:38:19Z</time>
      </trkpt>
      <trkpt lat="43.95492" lon="6.28526">
        <ele>1342</ele>
        <time>2019-11-01T10:38:21Z</time>
      </trkpt>
      <trkpt lat="43.95489" lon="6.28525">
        <ele>1342</ele>
        <time>2019-11-01T10:38:22Z</time>
      </trkpt>
      <trkpt lat="43.95486" lon="6.28524">
        <ele>1341.8</ele>
        <time>2019-11-01T10:38:23Z</time>
      </trkpt>
      <trkpt lat="43.95481" lon="6.28522">
        <ele>1340.8</ele>
        <time>2019-11-01T10:38:26Z</time>
      </trkpt>
      <trkpt lat="43.95475" lon="6.28519">
        <ele>1339.5</ele>
        <time>2019-11-01T10:38:29Z</time>
      </trkpt>
      <trkpt lat="43.95472" lon="6.28516">
        <ele>1338.7</ele>
        <time>2019-11-01T10:38:30Z</time>
      </trkpt>
      <trkpt lat="43.95467" lon="6.28513">
        <ele>1337.3</ele>
        <time>2019-11-01T10:38:31Z</time>
      </trkpt>
      <trkpt lat="43.95463" lon="6.2851">
        <ele>1336.3</ele>
        <time>2019-11-01T10:38:33Z</time>
      </trkpt>
      <trkpt lat="43.95458" lon="6.28509">
        <ele>1335.8</ele>
        <time>2019-11-01T10:38:35Z</time>
      </trkpt>
      <trkpt lat="43.95455" lon="6.28508">
        <ele>1335.5</ele>
        <time>2019-11-01T10:38:36Z</time>
      </trkpt>
      <trkpt lat="43.95451" lon="6.28507">
        <ele>1335.1</ele>
        <time>2019-11-01T10:38:37Z</time>
      </trkpt>
      <trkpt lat="43.95446" lon="6.28507">
        <ele>1334.5</ele>
        <time>2019-11-01T10:38:39Z</time>
      </trkpt>
      <trkpt lat="43.95442" lon="6.28507">
        <ele>1333.9</ele>
        <time>2019-11-01T10:38:40Z</time>
      </trkpt>
      <trkpt lat="43.95437" lon="6.28506">
        <ele>1333.4</ele>
        <time>2019-11-01T10:38:41Z</time>
      </trkpt>
      <trkpt lat="43.95432" lon="6.28506">
        <ele>1332.3</ele>
        <time>2019-11-01T10:38:43Z</time>
      </trkpt>
      <trkpt lat="43.95427" lon="6.28506">
        <ele>1330.8</ele>
        <time>2019-11-01T10:38:45Z</time>
      </trkpt>
      <trkpt lat="43.95421" lon="6.28505">
        <ele>1329.4</ele>
        <time>2019-11-01T10:38:48Z</time>
      </trkpt>
      <trkpt lat="43.95418" lon="6.28503">
        <ele>1328.4</ele>
        <time>2019-11-01T10:38:50Z</time>
      </trkpt>
      <trkpt lat="43.95415" lon="6.285">
        <ele>1327.5</ele>
        <time>2019-11-01T10:38:51Z</time>
      </trkpt>
      <trkpt lat="43.95412" lon="6.28498">
        <ele>1326.5</ele>
        <time>2019-11-01T10:38:53Z</time>
      </trkpt>
      <trkpt lat="43.95406" lon="6.28494">
        <ele>1324.7</ele>
        <time>2019-11-01T10:38:56Z</time>
      </trkpt>
      <trkpt lat="43.954" lon="6.28492">
        <ele>1323.1</ele>
        <time>2019-11-01T10:38:59Z</time>
      </trkpt>
      <trkpt lat="43.95396" lon="6.28489">
        <ele>1322</ele>
        <time>2019-11-01T10:39:00Z</time>
      </trkpt>
      <trkpt lat="43.95392" lon="6.28487">
        <ele>1320.7</ele>
        <time>2019-11-01T10:39:01Z</time>
      </trkpt>
      <trkpt lat="43.95387" lon="6.28486">
        <ele>1319</ele>
        <time>2019-11-01T10:39:04Z</time>
      </trkpt>
      <trkpt lat="43.95382" lon="6.28485">
        <ele>1317.5</ele>
        <time>2019-11-01T10:39:05Z</time>
      </trkpt>
      <trkpt lat="43.95378" lon="6.28484">
        <ele>1316.8</ele>
        <time>2019-11-01T10:39:06Z</time>
      </trkpt>
      <trkpt lat="43.95373" lon="6.28484">
        <ele>1316</ele>
        <time>2019-11-01T10:39:09Z</time>
      </trkpt>
      <trkpt lat="43.95368" lon="6.28485">
        <ele>1315.6</ele>
        <time>2019-11-01T10:39:10Z</time>
      </trkpt>
      <trkpt lat="43.95363" lon="6.28487">
        <ele>1314.8</ele>
        <time>2019-11-01T10:39:12Z</time>
      </trkpt>
      <trkpt lat="43.9536" lon="6.28488">
        <ele>1314.3</ele>
        <time>2019-11-01T10:39:13Z</time>
      </trkpt>
      <trkpt lat="43.95357" lon="6.28488">
        <ele>1314</ele>
        <time>2019-11-01T10:39:14Z</time>
      </trkpt>
      <trkpt lat="43.95354" lon="6.28487">
        <ele>1313.6</ele>
        <time>2019-11-01T10:39:15Z</time>
      </trkpt>
      <trkpt lat="43.95348" lon="6.28484">
        <ele>1313.1</ele>
        <time>2019-11-01T10:39:17Z</time>
      </trkpt>
      <trkpt lat="43.95344" lon="6.2848">
        <ele>1312.5</ele>
        <time>2019-11-01T10:39:20Z</time>
      </trkpt>
      <trkpt lat="43.95338" lon="6.28479">
        <ele>1311.6</ele>
        <time>2019-11-01T10:42:11Z</time>
      </trkpt>
      <trkpt lat="43.95335" lon="6.28479">
        <ele>1310.5</ele>
        <time>2019-11-01T10:42:12Z</time>
      </trkpt>
      <trkpt lat="43.9533" lon="6.28478">
        <ele>1309.6</ele>
        <time>2019-11-01T10:42:13Z</time>
      </trkpt>
      <trkpt lat="43.95327" lon="6.28478">
        <ele>1309.9</ele>
        <time>2019-11-01T10:42:15Z</time>
      </trkpt>
      <trkpt lat="43.95322" lon="6.28478">
        <ele>1309.8</ele>
        <time>2019-11-01T10:42:16Z</time>
      </trkpt>
      <trkpt lat="43.95318" lon="6.28477">
        <ele>1309.4</ele>
        <time>2019-11-01T10:42:17Z</time>
      </trkpt>
      <trkpt lat="43.95314" lon="6.28478">
        <ele>1308.9</ele>
        <time>2019-11-01T10:42:19Z</time>
      </trkpt>
      <trkpt lat="43.9531" lon="6.2848">
        <ele>1308.8</ele>
        <time>2019-11-01T10:42:20Z</time>
      </trkpt>
      <trkpt lat="43.95306" lon="6.28483">
        <ele>1309.4</ele>
        <time>2019-11-01T10:42:21Z</time>
      </trkpt>
      <trkpt lat="43.95301" lon="6.28485">
        <ele>1309.6</ele>
        <time>2019-11-01T10:42:23Z</time>
      </trkpt>
      <trkpt lat="43.95298" lon="6.28486">
        <ele>1309.8</ele>
        <time>2019-11-01T10:42:24Z</time>
      </trkpt>
      <trkpt lat="43.95295" lon="6.28487">
        <ele>1310.2</ele>
        <time>2019-11-01T10:42:25Z</time>
      </trkpt>
      <trkpt lat="43.9529" lon="6.2849">
        <ele>1310.8</ele>
        <time>2019-11-01T10:42:26Z</time>
      </trkpt>
      <trkpt lat="43.95286" lon="6.28493">
        <ele>1311.3</ele>
        <time>2019-11-01T10:42:29Z</time>
      </trkpt>
      <trkpt lat="43.95283" lon="6.28495">
        <ele>1311.6</ele>
        <time>2019-11-01T10:42:31Z</time>
      </trkpt>
      <trkpt lat="43.9528" lon="6.28497">
        <ele>1312.1</ele>
        <time>2019-11-01T10:42:33Z</time>
      </trkpt>
      <trkpt lat="43.95275" lon="6.28499">
        <ele>1312.9</ele>
        <time>2019-11-01T10:42:34Z</time>
      </trkpt>
      <trkpt lat="43.95272" lon="6.285">
        <ele>1312.7</ele>
        <time>2019-11-01T10:42:35Z</time>
      </trkpt>
      <trkpt lat="43.95268" lon="6.28501">
        <ele>1312.3</ele>
        <time>2019-11-01T10:42:36Z</time>
      </trkpt>
      <trkpt lat="43.95264" lon="6.28503">
        <ele>1312</ele>
        <time>2019-11-01T10:42:37Z</time>
      </trkpt>
      <trkpt lat="43.9526" lon="6.28504">
        <ele>1310.6</ele>
        <time>2019-11-01T10:42:39Z</time>
      </trkpt>
      <trkpt lat="43.95257" lon="6.28504">
        <ele>1309.6</ele>
        <time>2019-11-01T10:42:40Z</time>
      </trkpt>
      <trkpt lat="43.95253" lon="6.28504">
        <ele>1308.1</ele>
        <time>2019-11-01T10:42:41Z</time>
      </trkpt>
      <trkpt lat="43.9525" lon="6.28503">
        <ele>1307</ele>
        <time>2019-11-01T10:42:43Z</time>
      </trkpt>
      <trkpt lat="43.95247" lon="6.28501">
        <ele>1306.1</ele>
        <time>2019-11-01T10:42:44Z</time>
      </trkpt>
      <trkpt lat="43.95243" lon="6.28497">
        <ele>1304.3</ele>
        <time>2019-11-01T10:42:46Z</time>
      </trkpt>
      <trkpt lat="43.95238" lon="6.28491">
        <ele>1302.4</ele>
        <time>2019-11-01T10:42:47Z</time>
      </trkpt>
      <trkpt lat="43.95234" lon="6.28486">
        <ele>1299.7</ele>
        <time>2019-11-01T10:42:49Z</time>
      </trkpt>
      <trkpt lat="43.95231" lon="6.28483">
        <ele>1298.2</ele>
        <time>2019-11-01T10:42:50Z</time>
      </trkpt>
      <trkpt lat="43.95228" lon="6.28481">
        <ele>1297.8</ele>
        <time>2019-11-01T10:42:51Z</time>
      </trkpt>
      <trkpt lat="43.95224" lon="6.28478">
        <ele>1296.1</ele>
        <time>2019-11-01T10:42:52Z</time>
      </trkpt>
      <trkpt lat="43.95221" lon="6.28476">
        <ele>1295.4</ele>
        <time>2019-11-01T10:42:53Z</time>
      </trkpt>
      <trkpt lat="43.95218" lon="6.28473">
        <ele>1294.9</ele>
        <time>2019-11-01T10:42:55Z</time>
      </trkpt>
      <trkpt lat="43.95212" lon="6.28471">
        <ele>1295.4</ele>
        <time>2019-11-01T10:42:56Z</time>
      </trkpt>
      <trkpt lat="43.95208" lon="6.2847">
        <ele>1295.8</ele>
        <time>2019-11-01T10:42:57Z</time>
      </trkpt>
      <trkpt lat="43.95203" lon="6.2847">
        <ele>1295.4</ele>
        <time>2019-11-01T10:42:59Z</time>
      </trkpt>
      <trkpt lat="43.95197" lon="6.28472">
        <ele>1294</ele>
        <time>2019-11-01T10:43:00Z</time>
      </trkpt>
      <trkpt lat="43.9519" lon="6.28475">
        <ele>1293.1</ele>
        <time>2019-11-01T10:43:01Z</time>
      </trkpt>
      <trkpt lat="43.95188" lon="6.28478">
        <ele>1292.9</ele>
        <time>2019-11-01T10:43:03Z</time>
      </trkpt>
      <trkpt lat="43.95183" lon="6.28479">
        <ele>1291.9</ele>
        <time>2019-11-01T10:43:04Z</time>
      </trkpt>
      <trkpt lat="43.95179" lon="6.28477">
        <ele>1290.6</ele>
        <time>2019-11-01T10:43:06Z</time>
      </trkpt>
      <trkpt lat="43.95176" lon="6.28475">
        <ele>1289.7</ele>
        <time>2019-11-01T10:43:07Z</time>
      </trkpt>
      <trkpt lat="43.95171" lon="6.28469">
        <ele>1287.4</ele>
        <time>2019-11-01T10:43:08Z</time>
      </trkpt>
      <trkpt lat="43.95168" lon="6.28465">
        <ele>1285.3</ele>
        <time>2019-11-01T10:43:10Z</time>
      </trkpt>
      <trkpt lat="43.95164" lon="6.2846">
        <ele>1284</ele>
        <time>2019-11-01T10:43:11Z</time>
      </trkpt>
      <trkpt lat="43.95161" lon="6.28456">
        <ele>1283</ele>
        <time>2019-11-01T10:43:13Z</time>
      </trkpt>
      <trkpt lat="43.95152" lon="6.28453">
        <ele>1280.5</ele>
        <time>2019-11-01T10:43:14Z</time>
      </trkpt>
      <trkpt lat="43.95147" lon="6.28452">
        <ele>1279.2</ele>
        <time>2019-11-01T10:43:15Z</time>
      </trkpt>
      <trkpt lat="43.95142" lon="6.28452">
        <ele>1278.9</ele>
        <time>2019-11-01T10:43:16Z</time>
      </trkpt>
      <trkpt lat="43.95137" lon="6.28453">
        <ele>1278.4</ele>
        <time>2019-11-01T10:43:17Z</time>
      </trkpt>
      <trkpt lat="43.9513" lon="6.28448">
        <ele>1277.8</ele>
        <time>2019-11-01T10:43:19Z</time>
      </trkpt>
      <trkpt lat="43.95122" lon="6.28441">
        <ele>1277.1</ele>
        <time>2019-11-01T10:43:21Z</time>
      </trkpt>
      <trkpt lat="43.95118" lon="6.28438">
        <ele>1276.7</ele>
        <time>2019-11-01T10:43:23Z</time>
      </trkpt>
      <trkpt lat="43.95112" lon="6.28437">
        <ele>1276.3</ele>
        <time>2019-11-01T10:43:25Z</time>
      </trkpt>
      <trkpt lat="43.95101" lon="6.28441">
        <ele>1275.3</ele>
        <time>2019-11-01T10:43:27Z</time>
      </trkpt>
      <trkpt lat="43.95089" lon="6.28447">
        <ele>1278.5</ele>
        <time>2019-11-01T10:43:29Z</time>
      </trkpt>
      <trkpt lat="43.95084" lon="6.28451">
        <ele>1278.4</ele>
        <time>2019-11-01T10:43:30Z</time>
      </trkpt>
      <trkpt lat="43.95079" lon="6.28454">
        <ele>1279.3</ele>
        <time>2019-11-01T10:43:32Z</time>
      </trkpt>
      <trkpt lat="43.95075" lon="6.28455">
        <ele>1279</ele>
        <time>2019-11-01T10:43:33Z</time>
      </trkpt>
      <trkpt lat="43.9507" lon="6.2846">
        <ele>1278.6</ele>
        <time>2019-11-01T10:43:34Z</time>
      </trkpt>
      <trkpt lat="43.95064" lon="6.28462">
        <ele>1278</ele>
        <time>2019-11-01T10:43:35Z</time>
      </trkpt>
      <trkpt lat="43.9506" lon="6.28462">
        <ele>1277.6</ele>
        <time>2019-11-01T10:43:37Z</time>
      </trkpt>
      <trkpt lat="43.95054" lon="6.28463">
        <ele>1278.1</ele>
        <time>2019-11-01T10:43:38Z</time>
      </trkpt>
      <trkpt lat="43.9505" lon="6.28463">
        <ele>1278.6</ele>
        <time>2019-11-01T10:43:39Z</time>
      </trkpt>
      <trkpt lat="43.95041" lon="6.28465">
        <ele>1279</ele>
        <time>2019-11-01T10:43:41Z</time>
      </trkpt>
      <trkpt lat="43.95036" lon="6.28467">
        <ele>1278.2</ele>
        <time>2019-11-01T10:43:42Z</time>
      </trkpt>
      <trkpt lat="43.95028" lon="6.28472">
        <ele>1279.2</ele>
        <time>2019-11-01T10:43:44Z</time>
      </trkpt>
      <trkpt lat="43.95021" lon="6.28476">
        <ele>1280</ele>
        <time>2019-11-01T10:43:46Z</time>
      </trkpt>
      <trkpt lat="43.95016" lon="6.28478">
        <ele>1279.3</ele>
        <time>2019-11-01T10:43:47Z</time>
      </trkpt>
      <trkpt lat="43.95011" lon="6.28479">
        <ele>1278.9</ele>
        <time>2019-11-01T10:43:48Z</time>
      </trkpt>
      <trkpt lat="43.95006" lon="6.2848">
        <ele>1277.9</ele>
        <time>2019-11-01T10:43:51Z</time>
      </trkpt>
      <trkpt lat="43.95003" lon="6.2848">
        <ele>1276.6</ele>
        <time>2019-11-01T10:43:52Z</time>
      </trkpt>
      <trkpt lat="43.95001" lon="6.28479">
        <ele>1275.4</ele>
        <time>2019-11-01T10:43:53Z</time>
      </trkpt>
      <trkpt lat="43.94998" lon="6.28478">
        <ele>1274.4</ele>
        <time>2019-11-01T10:43:54Z</time>
      </trkpt>
      <trkpt lat="43.94994" lon="6.28474">
        <ele>1272.6</ele>
        <time>2019-11-01T10:43:57Z</time>
      </trkpt>
      <trkpt lat="43.94994" lon="6.28469">
        <ele>1270</ele>
        <time>2019-11-01T10:44:01Z</time>
      </trkpt>
      <trkpt lat="43.94992" lon="6.28463">
        <ele>1267.1</ele>
        <time>2019-11-01T10:44:04Z</time>
      </trkpt>
      <trkpt lat="43.9499" lon="6.28458">
        <ele>1264.6</ele>
        <time>2019-11-01T10:44:06Z</time>
      </trkpt>
      <trkpt lat="43.94987" lon="6.28456">
        <ele>1263.9</ele>
        <time>2019-11-01T10:44:07Z</time>
      </trkpt>
      <trkpt lat="43.94984" lon="6.28454">
        <ele>1263.6</ele>
        <time>2019-11-01T10:44:09Z</time>
      </trkpt>
      <trkpt lat="43.94981" lon="6.28454">
        <ele>1262.5</ele>
        <time>2019-11-01T10:44:10Z</time>
      </trkpt>
      <trkpt lat="43.94978" lon="6.28454">
        <ele>1261.1</ele>
        <time>2019-11-01T10:44:11Z</time>
      </trkpt>
      <trkpt lat="43.94975" lon="6.28455">
        <ele>1261</ele>
        <time>2019-11-01T10:44:13Z</time>
      </trkpt>
      <trkpt lat="43.9497" lon="6.28457">
        <ele>1260.5</ele>
        <time>2019-11-01T10:44:36Z</time>
      </trkpt>
      <trkpt lat="43.94965" lon="6.28458">
        <ele>1259</ele>
        <time>2019-11-01T10:44:38Z</time>
      </trkpt>
      <trkpt lat="43.94961" lon="6.28457">
        <ele>1258</ele>
        <time>2019-11-01T10:44:40Z</time>
      </trkpt>
      <trkpt lat="43.94956" lon="6.28456">
        <ele>1257.8</ele>
        <time>2019-11-01T10:44:43Z</time>
      </trkpt>
      <trkpt lat="43.94952" lon="6.28457">
        <ele>1257.7</ele>
        <time>2019-11-01T10:44:44Z</time>
      </trkpt>
      <trkpt lat="43.94948" lon="6.28457">
        <ele>1257.6</ele>
        <time>2019-11-01T10:44:46Z</time>
      </trkpt>
      <trkpt lat="43.94943" lon="6.28456">
        <ele>1257.5</ele>
        <time>2019-11-01T10:44:48Z</time>
      </trkpt>
      <trkpt lat="43.9494" lon="6.28455">
        <ele>1257.4</ele>
        <time>2019-11-01T10:44:49Z</time>
      </trkpt>
      <trkpt lat="43.94936" lon="6.28455">
        <ele>1257.4</ele>
        <time>2019-11-01T10:44:51Z</time>
      </trkpt>
      <trkpt lat="43.94932" lon="6.28454">
        <ele>1257.4</ele>
        <time>2019-11-01T10:44:52Z</time>
      </trkpt>
      <trkpt lat="43.94929" lon="6.28454">
        <ele>1257.4</ele>
        <time>2019-11-01T10:44:53Z</time>
      </trkpt>
      <trkpt lat="43.94925" lon="6.28453">
        <ele>1257.5</ele>
        <time>2019-11-01T10:44:54Z</time>
      </trkpt>
      <trkpt lat="43.94918" lon="6.2845">
        <ele>1257.7</ele>
        <time>2019-11-01T10:44:57Z</time>
      </trkpt>
      <trkpt lat="43.94915" lon="6.28449">
        <ele>1257.9</ele>
        <time>2019-11-01T10:44:58Z</time>
      </trkpt>
      <trkpt lat="43.94912" lon="6.28449">
        <ele>1258</ele>
        <time>2019-11-01T10:44:59Z</time>
      </trkpt>
      <trkpt lat="43.94908" lon="6.2845">
        <ele>1258.3</ele>
        <time>2019-11-01T10:45:01Z</time>
      </trkpt>
      <trkpt lat="43.94903" lon="6.2845">
        <ele>1258.6</ele>
        <time>2019-11-01T10:45:02Z</time>
      </trkpt>
      <trkpt lat="43.94899" lon="6.2845">
        <ele>1258.8</ele>
        <time>2019-11-01T10:45:03Z</time>
      </trkpt>
      <trkpt lat="43.94895" lon="6.28449">
        <ele>1259</ele>
        <time>2019-11-01T10:45:04Z</time>
      </trkpt>
      <trkpt lat="43.9489" lon="6.28448">
        <ele>1259.6</ele>
        <time>2019-11-01T10:45:06Z</time>
      </trkpt>
      <trkpt lat="43.94887" lon="6.28447">
        <ele>1260</ele>
        <time>2019-11-01T10:45:07Z</time>
      </trkpt>
      <trkpt lat="43.94884" lon="6.28446">
        <ele>1260.4</ele>
        <time>2019-11-01T10:45:08Z</time>
      </trkpt>
      <trkpt lat="43.9488" lon="6.28448">
        <ele>1261</ele>
        <time>2019-11-01T10:45:09Z</time>
      </trkpt>
      <trkpt lat="43.94874" lon="6.28449">
        <ele>1261.6</ele>
        <time>2019-11-01T10:45:10Z</time>
      </trkpt>
      <trkpt lat="43.9487" lon="6.28448">
        <ele>1261.5</ele>
        <time>2019-11-01T10:45:11Z</time>
      </trkpt>
      <trkpt lat="43.94864" lon="6.28447">
        <ele>1260.6</ele>
        <time>2019-11-01T10:45:13Z</time>
      </trkpt>
      <trkpt lat="43.94858" lon="6.28445">
        <ele>1260.2</ele>
        <time>2019-11-01T10:45:15Z</time>
      </trkpt>
      <trkpt lat="43.94852" lon="6.28441">
        <ele>1260.3</ele>
        <time>2019-11-01T10:45:16Z</time>
      </trkpt>
      <trkpt lat="43.94848" lon="6.28439">
        <ele>1258.4</ele>
        <time>2019-11-01T10:45:18Z</time>
      </trkpt>
      <trkpt lat="43.94844" lon="6.28436">
        <ele>1256.9</ele>
        <time>2019-11-01T10:45:19Z</time>
      </trkpt>
      <trkpt lat="43.94841" lon="6.28435">
        <ele>1256.3</ele>
        <time>2019-11-01T10:45:21Z</time>
      </trkpt>
      <trkpt lat="43.94836" lon="6.28434">
        <ele>1255.3</ele>
        <time>2019-11-01T10:45:22Z</time>
      </trkpt>
      <trkpt lat="43.94833" lon="6.28433">
        <ele>1254.6</ele>
        <time>2019-11-01T10:45:23Z</time>
      </trkpt>
      <trkpt lat="43.94828" lon="6.28431">
        <ele>1252.8</ele>
        <time>2019-11-01T10:45:25Z</time>
      </trkpt>
      <trkpt lat="43.94825" lon="6.2843">
        <ele>1251.6</ele>
        <time>2019-11-01T10:45:26Z</time>
      </trkpt>
      <trkpt lat="43.94821" lon="6.28427">
        <ele>1250.6</ele>
        <time>2019-11-01T10:45:27Z</time>
      </trkpt>
      <trkpt lat="43.94818" lon="6.28426">
        <ele>1249.9</ele>
        <time>2019-11-01T10:45:29Z</time>
      </trkpt>
      <trkpt lat="43.94814" lon="6.28423">
        <ele>1250.1</ele>
        <time>2019-11-01T10:45:30Z</time>
      </trkpt>
      <trkpt lat="43.9481" lon="6.28419">
        <ele>1250.4</ele>
        <time>2019-11-01T10:45:32Z</time>
      </trkpt>
      <trkpt lat="43.94806" lon="6.28418">
        <ele>1249.8</ele>
        <time>2019-11-01T10:45:33Z</time>
      </trkpt>
      <trkpt lat="43.94801" lon="6.28415">
        <ele>1249.4</ele>
        <time>2019-11-01T10:45:35Z</time>
      </trkpt>
      <trkpt lat="43.94798" lon="6.28414">
        <ele>1249.9</ele>
        <time>2019-11-01T10:45:36Z</time>
      </trkpt>
      <trkpt lat="43.94795" lon="6.28414">
        <ele>1250.3</ele>
        <time>2019-11-01T10:45:37Z</time>
      </trkpt>
      <trkpt lat="43.94791" lon="6.28414">
        <ele>1249.5</ele>
        <time>2019-11-01T10:45:39Z</time>
      </trkpt>
      <trkpt lat="43.94788" lon="6.28415">
        <ele>1248.8</ele>
        <time>2019-11-01T10:45:40Z</time>
      </trkpt>
      <trkpt lat="43.94784" lon="6.28416">
        <ele>1248.9</ele>
        <time>2019-11-01T10:45:43Z</time>
      </trkpt>
      <trkpt lat="43.94781" lon="6.28415">
        <ele>1249.3</ele>
        <time>2019-11-01T10:45:45Z</time>
      </trkpt>
      <trkpt lat="43.94776" lon="6.28412">
        <ele>1249.8</ele>
        <time>2019-11-01T10:45:49Z</time>
      </trkpt>
      <trkpt lat="43.94772" lon="6.28412">
        <ele>1250.1</ele>
        <time>2019-11-01T10:45:52Z</time>
      </trkpt>
      <trkpt lat="43.94768" lon="6.28411">
        <ele>1251.1</ele>
        <time>2019-11-01T10:45:56Z</time>
      </trkpt>
      <trkpt lat="43.94764" lon="6.28411">
        <ele>1252.7</ele>
        <time>2019-11-01T10:45:59Z</time>
      </trkpt>
      <trkpt lat="43.94762" lon="6.2841">
        <ele>1253.8</ele>
        <time>2019-11-01T10:46:13Z</time>
      </trkpt>
      <trkpt lat="43.94758" lon="6.28409">
        <ele>1254.3</ele>
        <time>2019-11-01T10:46:17Z</time>
      </trkpt>
      <trkpt lat="43.94756" lon="6.28408">
        <ele>1254.7</ele>
        <time>2019-11-01T10:46:24Z</time>
      </trkpt>
      <trkpt lat="43.94751" lon="6.28408">
        <ele>1255.6</ele>
        <time>2019-11-01T10:46:28Z</time>
      </trkpt>
      <trkpt lat="43.94747" lon="6.28409">
        <ele>1258.1</ele>
        <time>2019-11-01T10:46:30Z</time>
      </trkpt>
      <trkpt lat="43.94744" lon="6.2841">
        <ele>1259.6</ele>
        <time>2019-11-01T10:46:31Z</time>
      </trkpt>
      <trkpt lat="43.94741" lon="6.28411">
        <ele>1260.2</ele>
        <time>2019-11-01T10:46:33Z</time>
      </trkpt>
      <trkpt lat="43.94738" lon="6.28411">
        <ele>1260.8</ele>
        <time>2019-11-01T10:46:34Z</time>
      </trkpt>
      <trkpt lat="43.94732" lon="6.28411">
        <ele>1262.9</ele>
        <time>2019-11-01T10:46:35Z</time>
      </trkpt>
      <trkpt lat="43.94727" lon="6.28412">
        <ele>1265.6</ele>
        <time>2019-11-01T10:46:36Z</time>
      </trkpt>
      <trkpt lat="43.94723" lon="6.28413">
        <ele>1266.8</ele>
        <time>2019-11-01T10:46:38Z</time>
      </trkpt>
      <trkpt lat="43.94719" lon="6.28414">
        <ele>1267.3</ele>
        <time>2019-11-01T10:46:39Z</time>
      </trkpt>
      <trkpt lat="43.94714" lon="6.28415">
        <ele>1270</ele>
        <time>2019-11-01T10:46:40Z</time>
      </trkpt>
      <trkpt lat="43.94709" lon="6.28415">
        <ele>1273.8</ele>
        <time>2019-11-01T10:46:42Z</time>
      </trkpt>
      <trkpt lat="43.94705" lon="6.28416">
        <ele>1275.4</ele>
        <time>2019-11-01T10:46:44Z</time>
      </trkpt>
      <trkpt lat="43.94701" lon="6.28416">
        <ele>1275.8</ele>
        <time>2019-11-01T10:46:45Z</time>
      </trkpt>
      <trkpt lat="43.94696" lon="6.28416">
        <ele>1276.6</ele>
        <time>2019-11-01T10:46:46Z</time>
      </trkpt>
      <trkpt lat="43.94692" lon="6.28415">
        <ele>1277.1</ele>
        <time>2019-11-01T10:46:47Z</time>
      </trkpt>
      <trkpt lat="43.94686" lon="6.28414">
        <ele>1277.6</ele>
        <time>2019-11-01T10:46:49Z</time>
      </trkpt>
      <trkpt lat="43.9468" lon="6.28414">
        <ele>1278.1</ele>
        <time>2019-11-01T10:46:50Z</time>
      </trkpt>
      <trkpt lat="43.94675" lon="6.28414">
        <ele>1278.4</ele>
        <time>2019-11-01T10:46:53Z</time>
      </trkpt>
      <trkpt lat="43.94668" lon="6.28416">
        <ele>1281.1</ele>
        <time>2019-11-01T10:46:56Z</time>
      </trkpt>
      <trkpt lat="43.94664" lon="6.28419">
        <ele>1282.4</ele>
        <time>2019-11-01T10:46:58Z</time>
      </trkpt>
      <trkpt lat="43.94659" lon="6.28421">
        <ele>1282.6</ele>
        <time>2019-11-01T10:46:59Z</time>
      </trkpt>
      <trkpt lat="43.94654" lon="6.28424">
        <ele>1282.8</ele>
        <time>2019-11-01T10:47:01Z</time>
      </trkpt>
      <trkpt lat="43.94651" lon="6.28423">
        <ele>1282.9</ele>
        <time>2019-11-01T10:47:15Z</time>
      </trkpt>
      <trkpt lat="43.94647" lon="6.28421">
        <ele>1281.6</ele>
        <time>2019-11-01T10:47:21Z</time>
      </trkpt>
      <trkpt lat="43.94645" lon="6.28419">
        <ele>1280.4</ele>
        <time>2019-11-01T10:47:24Z</time>
      </trkpt>
      <trkpt lat="43.94641" lon="6.28416">
        <ele>1279.8</ele>
        <time>2019-11-01T10:47:31Z</time>
      </trkpt>
      <trkpt lat="43.94636" lon="6.28412">
        <ele>1278.7</ele>
        <time>2019-11-01T10:47:33Z</time>
      </trkpt>
      <trkpt lat="43.94633" lon="6.2841">
        <ele>1274.9</ele>
        <time>2019-11-01T10:47:35Z</time>
      </trkpt>
      <trkpt lat="43.94631" lon="6.28407">
        <ele>1271.6</ele>
        <time>2019-11-01T10:47:36Z</time>
      </trkpt>
      <trkpt lat="43.94628" lon="6.28405">
        <ele>1270.2</ele>
        <time>2019-11-01T10:47:37Z</time>
      </trkpt>
      <trkpt lat="43.94624" lon="6.28402">
        <ele>1268.3</ele>
        <time>2019-11-01T10:47:38Z</time>
      </trkpt>
      <trkpt lat="43.94622" lon="6.28401">
        <ele>1267.2</ele>
        <time>2019-11-01T10:47:39Z</time>
      </trkpt>
      <trkpt lat="43.94619" lon="6.28399">
        <ele>1265.9</ele>
        <time>2019-11-01T10:47:40Z</time>
      </trkpt>
      <trkpt lat="43.94615" lon="6.28397">
        <ele>1264</ele>
        <time>2019-11-01T10:47:42Z</time>
      </trkpt>
      <trkpt lat="43.9461" lon="6.28395">
        <ele>1262</ele>
        <time>2019-11-01T10:47:43Z</time>
      </trkpt>
      <trkpt lat="43.94605" lon="6.28397">
        <ele>1261.6</ele>
        <time>2019-11-01T10:47:46Z</time>
      </trkpt>
      <trkpt lat="43.94601" lon="6.28399">
        <ele>1260.6</ele>
        <time>2019-11-01T10:47:47Z</time>
      </trkpt>
      <trkpt lat="43.94595" lon="6.284">
        <ele>1258.2</ele>
        <time>2019-11-01T10:47:50Z</time>
      </trkpt>
      <trkpt lat="43.94592" lon="6.28401">
        <ele>1258.2</ele>
        <time>2019-11-01T10:47:52Z</time>
      </trkpt>
      <trkpt lat="43.94587" lon="6.28401">
        <ele>1258.1</ele>
        <time>2019-11-01T10:47:54Z</time>
      </trkpt>
      <trkpt lat="43.94583" lon="6.284">
        <ele>1258</ele>
        <time>2019-11-01T10:47:55Z</time>
      </trkpt>
      <trkpt lat="43.94576" lon="6.28398">
        <ele>1257.8</ele>
        <time>2019-11-01T10:47:57Z</time>
      </trkpt>
      <trkpt lat="43.94573" lon="6.28397">
        <ele>1257.8</ele>
        <time>2019-11-01T10:47:58Z</time>
      </trkpt>
      <trkpt lat="43.9457" lon="6.28395">
        <ele>1257.7</ele>
        <time>2019-11-01T10:47:59Z</time>
      </trkpt>
      <trkpt lat="43.94567" lon="6.28394">
        <ele>1257.7</ele>
        <time>2019-11-01T10:48:00Z</time>
      </trkpt>
      <trkpt lat="43.94564" lon="6.28391">
        <ele>1257.7</ele>
        <time>2019-11-01T10:48:01Z</time>
      </trkpt>
      <trkpt lat="43.9456" lon="6.2839">
        <ele>1257.6</ele>
        <time>2019-11-01T10:48:03Z</time>
      </trkpt>
      <trkpt lat="43.94557" lon="6.2839">
        <ele>1257.6</ele>
        <time>2019-11-01T10:48:04Z</time>
      </trkpt>
      <trkpt lat="43.94552" lon="6.2839">
        <ele>1257.6</ele>
        <time>2019-11-01T10:48:05Z</time>
      </trkpt>
      <trkpt lat="43.94549" lon="6.28389">
        <ele>1257.7</ele>
        <time>2019-11-01T10:48:07Z</time>
      </trkpt>
      <trkpt lat="43.94543" lon="6.28387">
        <ele>1255.9</ele>
        <time>2019-11-01T10:48:08Z</time>
      </trkpt>
      <trkpt lat="43.94539" lon="6.28387">
        <ele>1254.5</ele>
        <time>2019-11-01T10:48:09Z</time>
      </trkpt>
      <trkpt lat="43.94535" lon="6.28386">
        <ele>1253.2</ele>
        <time>2019-11-01T10:48:10Z</time>
      </trkpt>
      <trkpt lat="43.94531" lon="6.28386">
        <ele>1252.5</ele>
        <time>2019-11-01T10:48:11Z</time>
      </trkpt>
      <trkpt lat="43.94528" lon="6.28387">
        <ele>1252.8</ele>
        <time>2019-11-01T10:48:13Z</time>
      </trkpt>
      <trkpt lat="43.94524" lon="6.28387">
        <ele>1252.9</ele>
        <time>2019-11-01T10:48:14Z</time>
      </trkpt>
      <trkpt lat="43.9452" lon="6.28386">
        <ele>1251.9</ele>
        <time>2019-11-01T10:48:16Z</time>
      </trkpt>
      <trkpt lat="43.94516" lon="6.28386">
        <ele>1250.7</ele>
        <time>2019-11-01T10:48:17Z</time>
      </trkpt>
      <trkpt lat="43.94513" lon="6.28386">
        <ele>1250.8</ele>
        <time>2019-11-01T10:48:19Z</time>
      </trkpt>
      <trkpt lat="43.94508" lon="6.28384">
        <ele>1251.2</ele>
        <time>2019-11-01T10:48:21Z</time>
      </trkpt>
      <trkpt lat="43.94506" lon="6.28383">
        <ele>1251.5</ele>
        <time>2019-11-01T10:48:22Z</time>
      </trkpt>
      <trkpt lat="43.94501" lon="6.28379">
        <ele>1252</ele>
        <time>2019-11-01T10:48:24Z</time>
      </trkpt>
      <trkpt lat="43.94495" lon="6.28376">
        <ele>1252.6</ele>
        <time>2019-11-01T10:48:25Z</time>
      </trkpt>
      <trkpt lat="43.94492" lon="6.28374">
        <ele>1253.1</ele>
        <time>2019-11-01T10:48:26Z</time>
      </trkpt>
      <trkpt lat="43.94489" lon="6.28372">
        <ele>1253.6</ele>
        <time>2019-11-01T10:48:27Z</time>
      </trkpt>
      <trkpt lat="43.94485" lon="6.2837">
        <ele>1254.3</ele>
        <time>2019-11-01T10:48:29Z</time>
      </trkpt>
      <trkpt lat="43.94482" lon="6.28372">
        <ele>1254.8</ele>
        <time>2019-11-01T10:48:30Z</time>
      </trkpt>
      <trkpt lat="43.9448" lon="6.28373">
        <ele>1255.3</ele>
        <time>2019-11-01T10:48:31Z</time>
      </trkpt>
      <trkpt lat="43.94475" lon="6.28376">
        <ele>1256.1</ele>
        <time>2019-11-01T10:48:34Z</time>
      </trkpt>
      <trkpt lat="43.9447" lon="6.28376">
        <ele>1256.9</ele>
        <time>2019-11-01T10:48:37Z</time>
      </trkpt>
      <trkpt lat="43.94466" lon="6.28375">
        <ele>1257.4</ele>
        <time>2019-11-01T10:48:38Z</time>
      </trkpt>
      <trkpt lat="43.94461" lon="6.28374">
        <ele>1257.8</ele>
        <time>2019-11-01T10:48:40Z</time>
      </trkpt>
      <trkpt lat="43.94455" lon="6.28373">
        <ele>1258.2</ele>
        <time>2019-11-01T10:48:42Z</time>
      </trkpt>
      <trkpt lat="43.94452" lon="6.28372">
        <ele>1258.2</ele>
        <time>2019-11-01T10:48:43Z</time>
      </trkpt>
      <trkpt lat="43.94448" lon="6.28372">
        <ele>1258.2</ele>
        <time>2019-11-01T10:48:44Z</time>
      </trkpt>
      <trkpt lat="43.94444" lon="6.28371">
        <ele>1257.1</ele>
        <time>2019-11-01T10:48:46Z</time>
      </trkpt>
      <trkpt lat="43.94439" lon="6.28369">
        <ele>1254.5</ele>
        <time>2019-11-01T10:48:47Z</time>
      </trkpt>
      <trkpt lat="43.94434" lon="6.28367">
        <ele>1251.8</ele>
        <time>2019-11-01T10:48:48Z</time>
      </trkpt>
      <trkpt lat="43.94428" lon="6.28366">
        <ele>1248.6</ele>
        <time>2019-11-01T10:48:50Z</time>
      </trkpt>
      <trkpt lat="43.94425" lon="6.28365">
        <ele>1246.5</ele>
        <time>2019-11-01T10:48:51Z</time>
      </trkpt>
      <trkpt lat="43.94421" lon="6.28365">
        <ele>1243.7</ele>
        <time>2019-11-01T10:48:52Z</time>
      </trkpt>
      <trkpt lat="43.94418" lon="6.28364">
        <ele>1242</ele>
        <time>2019-11-01T10:48:54Z</time>
      </trkpt>
      <trkpt lat="43.94415" lon="6.28362">
        <ele>1240.2</ele>
        <time>2019-11-01T10:48:55Z</time>
      </trkpt>
      <trkpt lat="43.94412" lon="6.2836">
        <ele>1237.7</ele>
        <time>2019-11-01T10:48:57Z</time>
      </trkpt>
      <trkpt lat="43.9441" lon="6.28358">
        <ele>1235</ele>
        <time>2019-11-01T10:48:58Z</time>
      </trkpt>
      <trkpt lat="43.94407" lon="6.28356">
        <ele>1231.9</ele>
        <time>2019-11-01T10:48:59Z</time>
      </trkpt>
      <trkpt lat="43.94402" lon="6.28354">
        <ele>1228.1</ele>
        <time>2019-11-01T10:49:01Z</time>
      </trkpt>
      <trkpt lat="43.94399" lon="6.28353">
        <ele>1226.4</ele>
        <time>2019-11-01T10:49:02Z</time>
      </trkpt>
      <trkpt lat="43.94394" lon="6.28351">
        <ele>1223.1</ele>
        <time>2019-11-01T10:49:04Z</time>
      </trkpt>
      <trkpt lat="43.9439" lon="6.2835">
        <ele>1222</ele>
        <time>2019-11-01T10:49:05Z</time>
      </trkpt>
      <trkpt lat="43.94386" lon="6.28349">
        <ele>1221.4</ele>
        <time>2019-11-01T10:49:06Z</time>
      </trkpt>
      <trkpt lat="43.94382" lon="6.28348">
        <ele>1220.2</ele>
        <time>2019-11-01T10:49:07Z</time>
      </trkpt>
      <trkpt lat="43.94378" lon="6.28348">
        <ele>1219.3</ele>
        <time>2019-11-01T10:49:09Z</time>
      </trkpt>
      <trkpt lat="43.94374" lon="6.28348">
        <ele>1219.5</ele>
        <time>2019-11-01T10:49:10Z</time>
      </trkpt>
      <trkpt lat="43.94371" lon="6.28348">
        <ele>1219.8</ele>
        <time>2019-11-01T10:49:11Z</time>
      </trkpt>
      <trkpt lat="43.94367" lon="6.28347">
        <ele>1220.3</ele>
        <time>2019-11-01T10:49:12Z</time>
      </trkpt>
      <trkpt lat="43.94361" lon="6.28345">
        <ele>1221.4</ele>
        <time>2019-11-01T10:49:13Z</time>
      </trkpt>
      <trkpt lat="43.94357" lon="6.28344">
        <ele>1223.4</ele>
        <time>2019-11-01T10:49:15Z</time>
      </trkpt>
      <trkpt lat="43.94354" lon="6.28343">
        <ele>1224.9</ele>
        <time>2019-11-01T10:49:16Z</time>
      </trkpt>
      <trkpt lat="43.94351" lon="6.28341">
        <ele>1225.3</ele>
        <time>2019-11-01T10:49:17Z</time>
      </trkpt>
      <trkpt lat="43.94344" lon="6.28339">
        <ele>1226.9</ele>
        <time>2019-11-01T10:49:19Z</time>
      </trkpt>
      <trkpt lat="43.94341" lon="6.2834">
        <ele>1228.2</ele>
        <time>2019-11-01T10:49:20Z</time>
      </trkpt>
      <trkpt lat="43.94338" lon="6.2834">
        <ele>1229.4</ele>
        <time>2019-11-01T10:49:22Z</time>
      </trkpt>
      <trkpt lat="43.94334" lon="6.28341">
        <ele>1229.3</ele>
        <time>2019-11-01T10:49:23Z</time>
      </trkpt>
      <trkpt lat="43.9433" lon="6.28342">
        <ele>1229.3</ele>
        <time>2019-11-01T10:49:25Z</time>
      </trkpt>
      <trkpt lat="43.94326" lon="6.28343">
        <ele>1229</ele>
        <time>2019-11-01T10:49:26Z</time>
      </trkpt>
      <trkpt lat="43.94322" lon="6.28345">
        <ele>1228.7</ele>
        <time>2019-11-01T10:49:27Z</time>
      </trkpt>
      <trkpt lat="43.94317" lon="6.28348">
        <ele>1230.5</ele>
        <time>2019-11-01T10:49:28Z</time>
      </trkpt>
      <trkpt lat="43.94313" lon="6.2835">
        <ele>1230.9</ele>
        <time>2019-11-01T10:49:30Z</time>
      </trkpt>
      <trkpt lat="43.94309" lon="6.28351">
        <ele>1230.3</ele>
        <time>2019-11-01T10:49:31Z</time>
      </trkpt>
      <trkpt lat="43.94304" lon="6.28352">
        <ele>1230.3</ele>
        <time>2019-11-01T10:49:32Z</time>
      </trkpt>
      <trkpt lat="43.943" lon="6.28355">
        <ele>1231.2</ele>
        <time>2019-11-01T10:49:33Z</time>
      </trkpt>
      <trkpt lat="43.94297" lon="6.28357">
        <ele>1231.9</ele>
        <time>2019-11-01T10:49:35Z</time>
      </trkpt>
      <trkpt lat="43.94292" lon="6.28361">
        <ele>1232.8</ele>
        <time>2019-11-01T10:49:36Z</time>
      </trkpt>
      <trkpt lat="43.94287" lon="6.28364">
        <ele>1234</ele>
        <time>2019-11-01T10:49:38Z</time>
      </trkpt>
      <trkpt lat="43.94283" lon="6.28365">
        <ele>1235.1</ele>
        <time>2019-11-01T10:49:39Z</time>
      </trkpt>
      <trkpt lat="43.94278" lon="6.28366">
        <ele>1234.6</ele>
        <time>2019-11-01T10:49:40Z</time>
      </trkpt>
      <trkpt lat="43.94272" lon="6.28366">
        <ele>1233.8</ele>
        <time>2019-11-01T10:49:41Z</time>
      </trkpt>
      <trkpt lat="43.94267" lon="6.28367">
        <ele>1234.9</ele>
        <time>2019-11-01T10:49:42Z</time>
      </trkpt>
      <trkpt lat="43.94259" lon="6.28368">
        <ele>1236.3</ele>
        <time>2019-11-01T10:49:44Z</time>
      </trkpt>
      <trkpt lat="43.94251" lon="6.28369">
        <ele>1235.8</ele>
        <time>2019-11-01T10:49:45Z</time>
      </trkpt>
      <trkpt lat="43.94247" lon="6.2837">
        <ele>1234.9</ele>
        <time>2019-11-01T10:49:47Z</time>
      </trkpt>
      <trkpt lat="43.94243" lon="6.28372">
        <ele>1235.7</ele>
        <time>2019-11-01T10:49:48Z</time>
      </trkpt>
      <trkpt lat="43.94239" lon="6.28373">
        <ele>1236.7</ele>
        <time>2019-11-01T10:49:49Z</time>
      </trkpt>
      <trkpt lat="43.94235" lon="6.28374">
        <ele>1237.5</ele>
        <time>2019-11-01T10:49:51Z</time>
      </trkpt>
      <trkpt lat="43.94228" lon="6.28377">
        <ele>1238.4</ele>
        <time>2019-11-01T10:49:53Z</time>
      </trkpt>
      <trkpt lat="43.94226" lon="6.28378">
        <ele>1237.9</ele>
        <time>2019-11-01T10:49:55Z</time>
      </trkpt>
      <trkpt lat="43.94223" lon="6.28378">
        <ele>1237.5</ele>
        <time>2019-11-01T10:49:56Z</time>
      </trkpt>
      <trkpt lat="43.94218" lon="6.28379">
        <ele>1237.6</ele>
        <time>2019-11-01T10:49:58Z</time>
      </trkpt>
      <trkpt lat="43.94212" lon="6.28379">
        <ele>1238.8</ele>
        <time>2019-11-01T10:49:59Z</time>
      </trkpt>
      <trkpt lat="43.94207" lon="6.28381">
        <ele>1239.8</ele>
        <time>2019-11-01T10:50:01Z</time>
      </trkpt>
      <trkpt lat="43.94203" lon="6.28384">
        <ele>1240.6</ele>
        <time>2019-11-01T10:50:03Z</time>
      </trkpt>
      <trkpt lat="43.942" lon="6.28387">
        <ele>1240.1</ele>
        <time>2019-11-01T10:50:06Z</time>
      </trkpt>
      <trkpt lat="43.94197" lon="6.28388">
        <ele>1239.6</ele>
        <time>2019-11-01T10:50:09Z</time>
      </trkpt>
      <trkpt lat="43.94193" lon="6.28388">
        <ele>1239.9</ele>
        <time>2019-11-01T10:50:10Z</time>
      </trkpt>
      <trkpt lat="43.9419" lon="6.28388">
        <ele>1240.3</ele>
        <time>2019-11-01T10:50:13Z</time>
      </trkpt>
      <trkpt lat="43.94187" lon="6.28388">
        <ele>1240.8</ele>
        <time>2019-11-01T10:50:15Z</time>
      </trkpt>
      <trkpt lat="43.94182" lon="6.28394">
        <ele>1241.7</ele>
        <time>2019-11-01T10:50:18Z</time>
      </trkpt>
      <trkpt lat="43.94179" lon="6.28397">
        <ele>1242.1</ele>
        <time>2019-11-01T10:50:20Z</time>
      </trkpt>
      <trkpt lat="43.94175" lon="6.28401">
        <ele>1241.6</ele>
        <time>2019-11-01T10:50:22Z</time>
      </trkpt>
      <trkpt lat="43.94172" lon="6.28403">
        <ele>1241.2</ele>
        <time>2019-11-01T10:50:23Z</time>
      </trkpt>
      <trkpt lat="43.94167" lon="6.28405">
        <ele>1240.5</ele>
        <time>2019-11-01T10:50:26Z</time>
      </trkpt>
      <trkpt lat="43.94164" lon="6.28406">
        <ele>1241.3</ele>
        <time>2019-11-01T10:50:29Z</time>
      </trkpt>
      <trkpt lat="43.94159" lon="6.28406">
        <ele>1240.6</ele>
        <time>2019-11-01T10:50:31Z</time>
      </trkpt>
      <trkpt lat="43.94155" lon="6.28404">
        <ele>1238.9</ele>
        <time>2019-11-01T10:50:34Z</time>
      </trkpt>
      <trkpt lat="43.9415" lon="6.28402">
        <ele>1236.4</ele>
        <time>2019-11-01T10:50:37Z</time>
      </trkpt>
      <trkpt lat="43.94147" lon="6.284">
        <ele>1235.8</ele>
        <time>2019-11-01T10:50:38Z</time>
      </trkpt>
      <trkpt lat="43.94144" lon="6.28397">
        <ele>1235.8</ele>
        <time>2019-11-01T10:50:41Z</time>
      </trkpt>
      <trkpt lat="43.9414" lon="6.28397">
        <ele>1236.7</ele>
        <time>2019-11-01T10:50:44Z</time>
      </trkpt>
      <trkpt lat="43.94135" lon="6.28399">
        <ele>1236.6</ele>
        <time>2019-11-01T10:50:46Z</time>
      </trkpt>
      <trkpt lat="43.9413" lon="6.28401">
        <ele>1236.6</ele>
        <time>2019-11-01T10:50:49Z</time>
      </trkpt>
      <trkpt lat="43.94125" lon="6.28403">
        <ele>1237.8</ele>
        <time>2019-11-01T10:50:52Z</time>
      </trkpt>
      <trkpt lat="43.94117" lon="6.28406">
        <ele>1238.6</ele>
        <time>2019-11-01T10:50:55Z</time>
      </trkpt>
      <trkpt lat="43.94113" lon="6.28408">
        <ele>1238.7</ele>
        <time>2019-11-01T10:50:58Z</time>
      </trkpt>
      <trkpt lat="43.94109" lon="6.2841">
        <ele>1240</ele>
        <time>2019-11-01T10:51:04Z</time>
      </trkpt>
      <trkpt lat="43.94105" lon="6.28412">
        <ele>1240.9</ele>
        <time>2019-11-01T10:51:09Z</time>
      </trkpt>
      <trkpt lat="43.94102" lon="6.28414">
        <ele>1241.6</ele>
        <time>2019-11-01T10:51:17Z</time>
      </trkpt>
      <trkpt lat="43.94098" lon="6.28416">
        <ele>1241.3</ele>
        <time>2019-11-01T10:51:29Z</time>
      </trkpt>
      <trkpt lat="43.94094" lon="6.28419">
        <ele>1240.9</ele>
        <time>2019-11-01T10:51:32Z</time>
      </trkpt>
      <trkpt lat="43.9409" lon="6.28421">
        <ele>1240.5</ele>
        <time>2019-11-01T10:51:47Z</time>
      </trkpt>
      <trkpt lat="43.94087" lon="6.28423">
        <ele>1240</ele>
        <time>2019-11-01T10:51:48Z</time>
      </trkpt>
      <trkpt lat="43.94083" lon="6.28424">
        <ele>1240.4</ele>
        <time>2019-11-01T10:51:50Z</time>
      </trkpt>
      <trkpt lat="43.94079" lon="6.28427">
        <ele>1240.8</ele>
        <time>2019-11-01T10:51:52Z</time>
      </trkpt>
      <trkpt lat="43.94076" lon="6.28427">
        <ele>1240.2</ele>
        <time>2019-11-01T10:51:53Z</time>
      </trkpt>
      <trkpt lat="43.94072" lon="6.28425">
        <ele>1239.4</ele>
        <time>2019-11-01T10:51:56Z</time>
      </trkpt>
      <trkpt lat="43.94067" lon="6.28426">
        <ele>1238.7</ele>
        <time>2019-11-01T10:51:58Z</time>
      </trkpt>
      <trkpt lat="43.94063" lon="6.28427">
        <ele>1237.9</ele>
        <time>2019-11-01T10:52:01Z</time>
      </trkpt>
      <trkpt lat="43.94059" lon="6.28426">
        <ele>1236.9</ele>
        <time>2019-11-01T10:52:03Z</time>
      </trkpt>
      <trkpt lat="43.94054" lon="6.28425">
        <ele>1235.7</ele>
        <time>2019-11-01T10:52:05Z</time>
      </trkpt>
      <trkpt lat="43.94053" lon="6.28425">
        <ele>1235.3</ele>
        <time>2019-11-01T10:52:13Z</time>
      </trkpt>
      <trkpt lat="43.94051" lon="6.28425">
        <ele>1234.8</ele>
        <time>2019-11-01T10:52:25Z</time>
      </trkpt>
      <trkpt lat="43.94049" lon="6.28425">
        <ele>1234.4</ele>
        <time>2019-11-01T10:52:38Z</time>
      </trkpt>
      <trkpt lat="43.94047" lon="6.28425">
        <ele>1233.9</ele>
        <time>2019-11-01T10:53:21Z</time>
      </trkpt>
      <trkpt lat="43.94046" lon="6.28425">
        <ele>1233.5</ele>
        <time>2019-11-01T10:53:22Z</time>
      </trkpt>
      <trkpt lat="43.94042" lon="6.28425">
        <ele>1232.8</ele>
        <time>2019-11-01T10:53:24Z</time>
      </trkpt>
      <trkpt lat="43.94037" lon="6.28428">
        <ele>1232.1</ele>
        <time>2019-11-01T10:53:26Z</time>
      </trkpt>
      <trkpt lat="43.94033" lon="6.28428">
        <ele>1231.4</ele>
        <time>2019-11-01T10:53:27Z</time>
      </trkpt>
      <trkpt lat="43.94028" lon="6.2843">
        <ele>1230.4</ele>
        <time>2019-11-01T10:53:30Z</time>
      </trkpt>
      <trkpt lat="43.94025" lon="6.28431">
        <ele>1229.7</ele>
        <time>2019-11-01T10:53:32Z</time>
      </trkpt>
      <trkpt lat="43.94021" lon="6.28432">
        <ele>1228.6</ele>
        <time>2019-11-01T10:53:33Z</time>
      </trkpt>
      <trkpt lat="43.94018" lon="6.28433">
        <ele>1228.1</ele>
        <time>2019-11-01T10:53:34Z</time>
      </trkpt>
      <trkpt lat="43.94015" lon="6.28433">
        <ele>1227.6</ele>
        <time>2019-11-01T10:53:36Z</time>
      </trkpt>
      <trkpt lat="43.94011" lon="6.28432">
        <ele>1226.6</ele>
        <time>2019-11-01T10:53:37Z</time>
      </trkpt>
      <trkpt lat="43.94009" lon="6.28432">
        <ele>1225.8</ele>
        <time>2019-11-01T10:53:38Z</time>
      </trkpt>
      <trkpt lat="43.94004" lon="6.28431">
        <ele>1223.4</ele>
        <time>2019-11-01T10:53:40Z</time>
      </trkpt>
      <trkpt lat="43.94" lon="6.2843">
        <ele>1221.9</ele>
        <time>2019-11-01T10:53:42Z</time>
      </trkpt>
      <trkpt lat="43.93994" lon="6.28429">
        <ele>1220.5</ele>
        <time>2019-11-01T10:53:45Z</time>
      </trkpt>
      <trkpt lat="43.9399" lon="6.2843">
        <ele>1220.1</ele>
        <time>2019-11-01T10:53:46Z</time>
      </trkpt>
      <trkpt lat="43.93987" lon="6.28433">
        <ele>1220.1</ele>
        <time>2019-11-01T10:53:49Z</time>
      </trkpt>
      <trkpt lat="43.93983" lon="6.28433">
        <ele>1220.1</ele>
        <time>2019-11-01T10:53:54Z</time>
      </trkpt>
      <trkpt lat="43.9398" lon="6.28434">
        <ele>1220.1</ele>
        <time>2019-11-01T10:53:55Z</time>
      </trkpt>
      <trkpt lat="43.93975" lon="6.28437">
        <ele>1219.9</ele>
        <time>2019-11-01T10:53:56Z</time>
      </trkpt>
      <trkpt lat="43.9397" lon="6.2844">
        <ele>1218.5</ele>
        <time>2019-11-01T10:53:58Z</time>
      </trkpt>
      <trkpt lat="43.93961" lon="6.28446">
        <ele>1216.2</ele>
        <time>2019-11-01T10:54:00Z</time>
      </trkpt>
      <trkpt lat="43.93957" lon="6.2845">
        <ele>1215.6</ele>
        <time>2019-11-01T10:54:01Z</time>
      </trkpt>
      <trkpt lat="43.9395" lon="6.28455">
        <ele>1214.2</ele>
        <time>2019-11-01T10:54:03Z</time>
      </trkpt>
      <trkpt lat="43.9394" lon="6.2846">
        <ele>1211.9</ele>
        <time>2019-11-01T10:54:06Z</time>
      </trkpt>
      <trkpt lat="43.93931" lon="6.28464">
        <ele>1210.7</ele>
        <time>2019-11-01T10:54:08Z</time>
      </trkpt>
      <trkpt lat="43.93927" lon="6.28467">
        <ele>1210.1</ele>
        <time>2019-11-01T10:54:09Z</time>
      </trkpt>
      <trkpt lat="43.93922" lon="6.2847">
        <ele>1209.3</ele>
        <time>2019-11-01T10:54:10Z</time>
      </trkpt>
      <trkpt lat="43.93913" lon="6.28475">
        <ele>1207.3</ele>
        <time>2019-11-01T10:54:12Z</time>
      </trkpt>
      <trkpt lat="43.93911" lon="6.28473">
        <ele>1207.1</ele>
        <time>2019-11-01T10:54:13Z</time>
      </trkpt>
      <trkpt lat="43.93906" lon="6.28477">
        <ele>1206.9</ele>
        <time>2019-11-01T10:54:15Z</time>
      </trkpt>
      <trkpt lat="43.93902" lon="6.28479">
        <ele>1206.8</ele>
        <time>2019-11-01T10:54:16Z</time>
      </trkpt>
      <trkpt lat="43.93895" lon="6.28482">
        <ele>1206.7</ele>
        <time>2019-11-01T10:54:18Z</time>
      </trkpt>
      <trkpt lat="43.93889" lon="6.28485">
        <ele>1207.1</ele>
        <time>2019-11-01T10:54:19Z</time>
      </trkpt>
      <trkpt lat="43.93884" lon="6.28487">
        <ele>1207.7</ele>
        <time>2019-11-01T10:54:21Z</time>
      </trkpt>
      <trkpt lat="43.93881" lon="6.28488">
        <ele>1208.1</ele>
        <time>2019-11-01T10:54:22Z</time>
      </trkpt>
      <trkpt lat="43.93877" lon="6.28488">
        <ele>1208.8</ele>
        <time>2019-11-01T10:54:24Z</time>
      </trkpt>
      <trkpt lat="43.93872" lon="6.28489">
        <ele>1209.9</ele>
        <time>2019-11-01T10:54:26Z</time>
      </trkpt>
      <trkpt lat="43.93863" lon="6.28494">
        <ele>1211.7</ele>
        <time>2019-11-01T10:54:28Z</time>
      </trkpt>
      <trkpt lat="43.9386" lon="6.28497">
        <ele>1212.9</ele>
        <time>2019-11-01T10:54:29Z</time>
      </trkpt>
      <trkpt lat="43.93856" lon="6.285">
        <ele>1213.8</ele>
        <time>2019-11-01T10:54:30Z</time>
      </trkpt>
      <trkpt lat="43.93851" lon="6.28504">
        <ele>1213.8</ele>
        <time>2019-11-01T10:54:32Z</time>
      </trkpt>
      <trkpt lat="43.93848" lon="6.28506">
        <ele>1213.7</ele>
        <time>2019-11-01T10:54:33Z</time>
      </trkpt>
      <trkpt lat="43.93844" lon="6.2851">
        <ele>1213.4</ele>
        <time>2019-11-01T10:54:35Z</time>
      </trkpt>
      <trkpt lat="43.93841" lon="6.28512">
        <ele>1213</ele>
        <time>2019-11-01T10:54:37Z</time>
      </trkpt>
      <trkpt lat="43.93838" lon="6.28512">
        <ele>1212.6</ele>
        <time>2019-11-01T10:54:38Z</time>
      </trkpt>
      <trkpt lat="43.93835" lon="6.28514">
        <ele>1212.1</ele>
        <time>2019-11-01T10:54:39Z</time>
      </trkpt>
      <trkpt lat="43.93832" lon="6.28517">
        <ele>1211.4</ele>
        <time>2019-11-01T10:54:41Z</time>
      </trkpt>
      <trkpt lat="43.93829" lon="6.28518">
        <ele>1210.9</ele>
        <time>2019-11-01T10:54:42Z</time>
      </trkpt>
      <trkpt lat="43.93826" lon="6.28518">
        <ele>1210.5</ele>
        <time>2019-11-01T10:54:43Z</time>
      </trkpt>
      <trkpt lat="43.93823" lon="6.28519">
        <ele>1210</ele>
        <time>2019-11-01T10:54:45Z</time>
      </trkpt>
      <trkpt lat="43.93818" lon="6.2852">
        <ele>1209</ele>
        <time>2019-11-01T10:54:48Z</time>
      </trkpt>
      <trkpt lat="43.93814" lon="6.28518">
        <ele>1208.6</ele>
        <time>2019-11-01T10:54:49Z</time>
      </trkpt>
      <trkpt lat="43.9381" lon="6.28516">
        <ele>1208.3</ele>
        <time>2019-11-01T10:54:52Z</time>
      </trkpt>
      <trkpt lat="43.93807" lon="6.28514">
        <ele>1208.2</ele>
        <time>2019-11-01T10:54:54Z</time>
      </trkpt>
      <trkpt lat="43.93805" lon="6.28511">
        <ele>1208</ele>
        <time>2019-11-01T10:54:56Z</time>
      </trkpt>
      <trkpt lat="43.93802" lon="6.28509">
        <ele>1207.9</ele>
        <time>2019-11-01T10:54:58Z</time>
      </trkpt>
      <trkpt lat="43.93799" lon="6.28507">
        <ele>1207.8</ele>
        <time>2019-11-01T10:55:00Z</time>
      </trkpt>
      <trkpt lat="43.93793" lon="6.28506">
        <ele>1207.7</ele>
        <time>2019-11-01T10:55:02Z</time>
      </trkpt>
      <trkpt lat="43.9379" lon="6.28506">
        <ele>1207.6</ele>
        <time>2019-11-01T10:55:03Z</time>
      </trkpt>
      <trkpt lat="43.93784" lon="6.28504">
        <ele>1207.3</ele>
        <time>2019-11-01T10:55:05Z</time>
      </trkpt>
      <trkpt lat="43.93781" lon="6.28503">
        <ele>1207.1</ele>
        <time>2019-11-01T10:55:06Z</time>
      </trkpt>
      <trkpt lat="43.93778" lon="6.28503">
        <ele>1206.7</ele>
        <time>2019-11-01T10:55:07Z</time>
      </trkpt>
      <trkpt lat="43.93772" lon="6.285">
        <ele>1206.2</ele>
        <time>2019-11-01T10:55:10Z</time>
      </trkpt>
      <trkpt lat="43.93769" lon="6.28498">
        <ele>1206</ele>
        <time>2019-11-01T10:55:12Z</time>
      </trkpt>
      <trkpt lat="43.93767" lon="6.28496">
        <ele>1205.7</ele>
        <time>2019-11-01T10:55:13Z</time>
      </trkpt>
      <trkpt lat="43.93763" lon="6.28493">
        <ele>1205.5</ele>
        <time>2019-11-01T10:55:14Z</time>
      </trkpt>
      <trkpt lat="43.93761" lon="6.28491">
        <ele>1205.2</ele>
        <time>2019-11-01T10:55:17Z</time>
      </trkpt>
      <trkpt lat="43.93758" lon="6.28488">
        <ele>1204.9</ele>
        <time>2019-11-01T10:55:19Z</time>
      </trkpt>
      <trkpt lat="43.93755" lon="6.28484">
        <ele>1204.6</ele>
        <time>2019-11-01T10:55:22Z</time>
      </trkpt>
      <trkpt lat="43.93751" lon="6.28481">
        <ele>1204.3</ele>
        <time>2019-11-01T10:55:25Z</time>
      </trkpt>
      <trkpt lat="43.93748" lon="6.2848">
        <ele>1202.2</ele>
        <time>2019-11-01T10:55:27Z</time>
      </trkpt>
      <trkpt lat="43.93744" lon="6.2848">
        <ele>1202.1</ele>
        <time>2019-11-01T10:55:29Z</time>
      </trkpt>
      <trkpt lat="43.93739" lon="6.28478">
        <ele>1202</ele>
        <time>2019-11-01T10:55:32Z</time>
      </trkpt>
      <trkpt lat="43.93736" lon="6.28477">
        <ele>1202</ele>
        <time>2019-11-01T10:55:33Z</time>
      </trkpt>
      <trkpt lat="43.93731" lon="6.28475">
        <ele>1201.9</ele>
        <time>2019-11-01T10:55:36Z</time>
      </trkpt>
      <trkpt lat="43.93728" lon="6.28474">
        <ele>1201.8</ele>
        <time>2019-11-01T10:55:38Z</time>
      </trkpt>
      <trkpt lat="43.93724" lon="6.28472">
        <ele>1201.7</ele>
        <time>2019-11-01T10:55:40Z</time>
      </trkpt>
      <trkpt lat="43.93721" lon="6.28471">
        <ele>1201.7</ele>
        <time>2019-11-01T10:55:43Z</time>
      </trkpt>
      <trkpt lat="43.93721" lon="6.28468">
        <ele>1201.6</ele>
        <time>2019-11-01T10:57:27Z</time>
      </trkpt>
      <trkpt lat="43.93722" lon="6.28464">
        <ele>1201.6</ele>
        <time>2019-11-01T10:57:33Z</time>
      </trkpt>
      <trkpt lat="43.93724" lon="6.28459">
        <ele>1201.5</ele>
        <time>2019-11-01T10:57:41Z</time>
      </trkpt>
      <trkpt lat="43.93724" lon="6.28455">
        <ele>1201.4</ele>
        <time>2019-11-01T10:57:54Z</time>
      </trkpt>
      <trkpt lat="43.93726" lon="6.28452">
        <ele>1201.4</ele>
        <time>2019-11-01T10:58:44Z</time>
      </trkpt>
      <trkpt lat="43.93726" lon="6.28456">
        <ele>1201.3</ele>
        <time>2019-11-01T10:59:08Z</time>
      </trkpt>
      <trkpt lat="43.93725" lon="6.28459">
        <ele>1201.3</ele>
        <time>2019-11-01T10:59:13Z</time>
      </trkpt>
      <trkpt lat="43.93724" lon="6.28464">
        <ele>1201.2</ele>
        <time>2019-11-01T10:59:15Z</time>
      </trkpt>
      <trkpt lat="43.93723" lon="6.28467">
        <ele>1201.2</ele>
        <time>2019-11-01T10:59:16Z</time>
      </trkpt>
      <trkpt lat="43.93721" lon="6.28473">
        <ele>1201.1</ele>
        <time>2019-11-01T10:59:17Z</time>
      </trkpt>
      <trkpt lat="43.93719" lon="6.28477">
        <ele>1201</ele>
        <time>2019-11-01T10:59:19Z</time>
      </trkpt>
      <trkpt lat="43.93717" lon="6.2848">
        <ele>1201</ele>
        <time>2019-11-01T10:59:20Z</time>
      </trkpt>
      <trkpt lat="43.93716" lon="6.28484">
        <ele>1200.9</ele>
        <time>2019-11-01T10:59:23Z</time>
      </trkpt>
      <trkpt lat="43.93719" lon="6.2849">
        <ele>1200.8</ele>
        <time>2019-11-01T10:59:26Z</time>
      </trkpt>
      <trkpt lat="43.93725" lon="6.28491">
        <ele>1200.7</ele>
        <time>2019-11-01T10:59:28Z</time>
      </trkpt>
      <trkpt lat="43.93727" lon="6.28491">
        <ele>1200.7</ele>
        <time>2019-11-01T10:59:29Z</time>
      </trkpt>
      <trkpt lat="43.93733" lon="6.28493">
        <ele>1200.6</ele>
        <time>2019-11-01T10:59:31Z</time>
      </trkpt>
      <trkpt lat="43.93738" lon="6.28494">
        <ele>1200.5</ele>
        <time>2019-11-01T10:59:34Z</time>
      </trkpt>
      <trkpt lat="43.93738" lon="6.28499">
        <ele>1200.4</ele>
        <time>2019-11-01T10:59:51Z</time>
      </trkpt>
      <trkpt lat="43.93741" lon="6.285">
        <ele>1200.4</ele>
        <time>2019-11-01T10:59:59Z</time>
      </trkpt>
      <trkpt lat="43.93742" lon="6.28496">
        <ele>1200.3</ele>
        <time>2019-11-01T11:00:12Z</time>
      </trkpt>
      <trkpt lat="43.93743" lon="6.285">
        <ele>1200.3</ele>
        <time>2019-11-01T11:00:17Z</time>
      </trkpt>
      <trkpt lat="43.93741" lon="6.28497">
        <ele>1200.2</ele>
        <time>2019-11-01T11:00:54Z</time>
      </trkpt>
      <trkpt lat="43.93739" lon="6.28493">
        <ele>1200.1</ele>
        <time>2019-11-01T11:00:59Z</time>
      </trkpt>
      <trkpt lat="43.93737" lon="6.28491">
        <ele>1200.1</ele>
        <time>2019-11-01T11:01:02Z</time>
      </trkpt>
      <trkpt lat="43.93734" lon="6.2849">
        <ele>1200</ele>
        <time>2019-11-01T11:01:06Z</time>
      </trkpt>
      <trkpt lat="43.93736" lon="6.28493">
        <ele>1200</ele>
        <time>2019-11-01T11:01:15Z</time>
      </trkpt>
      <trkpt lat="43.93737" lon="6.28499">
        <ele>1199.9</ele>
        <time>2019-11-01T11:01:19Z</time>
      </trkpt>
      <trkpt lat="43.93738" lon="6.28495">
        <ele>1199.9</ele>
        <time>2019-11-01T11:06:16Z</time>
      </trkpt>
      <trkpt lat="43.93734" lon="6.2849">
        <ele>1199.8</ele>
        <time>2019-11-01T11:08:11Z</time>
      </trkpt>
      <trkpt lat="43.93731" lon="6.28489">
        <ele>1199.7</ele>
        <time>2019-11-01T11:08:13Z</time>
      </trkpt>
      <trkpt lat="43.93728" lon="6.28488">
        <ele>1199.6</ele>
        <time>2019-11-01T11:08:15Z</time>
      </trkpt>
      <trkpt lat="43.93723" lon="6.28488">
        <ele>1199.6</ele>
        <time>2019-11-01T11:08:18Z</time>
      </trkpt>
      <trkpt lat="43.93719" lon="6.28487">
        <ele>1198.6</ele>
        <time>2019-11-01T11:08:20Z</time>
      </trkpt>
      <trkpt lat="43.93715" lon="6.28487">
        <ele>1198.4</ele>
        <time>2019-11-01T11:08:23Z</time>
      </trkpt>
      <trkpt lat="43.9371" lon="6.28485">
        <ele>1198.2</ele>
        <time>2019-11-01T11:08:25Z</time>
      </trkpt>
      <trkpt lat="43.93706" lon="6.28483">
        <ele>1198</ele>
        <time>2019-11-01T11:08:28Z</time>
      </trkpt>
      <trkpt lat="43.93703" lon="6.28481">
        <ele>1197.9</ele>
        <time>2019-11-01T11:08:31Z</time>
      </trkpt>
      <trkpt lat="43.93699" lon="6.28483">
        <ele>1197.7</ele>
        <time>2019-11-01T11:08:51Z</time>
      </trkpt>
      <trkpt lat="43.93695" lon="6.28483">
        <ele>1197.7</ele>
        <time>2019-11-01T11:08:53Z</time>
      </trkpt>
      <trkpt lat="43.9369" lon="6.28484">
        <ele>1197.7</ele>
        <time>2019-11-01T11:08:55Z</time>
      </trkpt>
      <trkpt lat="43.93687" lon="6.28485">
        <ele>1197.5</ele>
        <time>2019-11-01T11:08:56Z</time>
      </trkpt>
      <trkpt lat="43.9368" lon="6.28486">
        <ele>1197.4</ele>
        <time>2019-11-01T11:08:58Z</time>
      </trkpt>
      <trkpt lat="43.93671" lon="6.28488">
        <ele>1197.5</ele>
        <time>2019-11-01T11:09:00Z</time>
      </trkpt>
      <trkpt lat="43.93666" lon="6.28489">
        <ele>1197.3</ele>
        <time>2019-11-01T11:09:01Z</time>
      </trkpt>
      <trkpt lat="43.93656" lon="6.2849">
        <ele>1197.5</ele>
        <time>2019-11-01T11:09:03Z</time>
      </trkpt>
      <trkpt lat="43.93645" lon="6.28493">
        <ele>1197.7</ele>
        <time>2019-11-01T11:09:05Z</time>
      </trkpt>
      <trkpt lat="43.93638" lon="6.28495">
        <ele>1197.1</ele>
        <time>2019-11-01T11:09:06Z</time>
      </trkpt>
      <trkpt lat="43.93627" lon="6.28503">
        <ele>1195.3</ele>
        <time>2019-11-01T11:09:08Z</time>
      </trkpt>
      <trkpt lat="43.9362" lon="6.28507">
        <ele>1194.3</ele>
        <time>2019-11-01T11:09:09Z</time>
      </trkpt>
      <trkpt lat="43.93607" lon="6.28513">
        <ele>1192.8</ele>
        <time>2019-11-01T11:09:11Z</time>
      </trkpt>
      <trkpt lat="43.93594" lon="6.28517">
        <ele>1192.4</ele>
        <time>2019-11-01T11:09:13Z</time>
      </trkpt>
      <trkpt lat="43.93579" lon="6.28521">
        <ele>1192.6</ele>
        <time>2019-11-01T11:09:15Z</time>
      </trkpt>
      <trkpt lat="43.93571" lon="6.28523">
        <ele>1193.2</ele>
        <time>2019-11-01T11:09:16Z</time>
      </trkpt>
      <trkpt lat="43.93555" lon="6.28525">
        <ele>1193.6</ele>
        <time>2019-11-01T11:09:18Z</time>
      </trkpt>
      <trkpt lat="43.93548" lon="6.28526">
        <ele>1193</ele>
        <time>2019-11-01T11:09:19Z</time>
      </trkpt>
      <trkpt lat="43.9354" lon="6.28526">
        <ele>1192.8</ele>
        <time>2019-11-01T11:09:20Z</time>
      </trkpt>
      <trkpt lat="43.93524" lon="6.28528">
        <ele>1191.2</ele>
        <time>2019-11-01T11:09:22Z</time>
      </trkpt>
      <trkpt lat="43.93508" lon="6.28533">
        <ele>1187.9</ele>
        <time>2019-11-01T11:09:24Z</time>
      </trkpt>
      <trkpt lat="43.93492" lon="6.28539">
        <ele>1185.7</ele>
        <time>2019-11-01T11:09:26Z</time>
      </trkpt>
      <trkpt lat="43.93483" lon="6.28541">
        <ele>1184.2</ele>
        <time>2019-11-01T11:09:27Z</time>
      </trkpt>
      <trkpt lat="43.93474" lon="6.28543">
        <ele>1185.4</ele>
        <time>2019-11-01T11:09:28Z</time>
      </trkpt>
      <trkpt lat="43.93466" lon="6.28546">
        <ele>1186</ele>
        <time>2019-11-01T11:09:29Z</time>
      </trkpt>
      <trkpt lat="43.93448" lon="6.28551">
        <ele>1186.8</ele>
        <time>2019-11-01T11:09:31Z</time>
      </trkpt>
      <trkpt lat="43.93431" lon="6.28557">
        <ele>1185.5</ele>
        <time>2019-11-01T11:09:33Z</time>
      </trkpt>
      <trkpt lat="43.93415" lon="6.28564">
        <ele>1185.7</ele>
        <time>2019-11-01T11:09:35Z</time>
      </trkpt>
      <trkpt lat="43.93406" lon="6.28568">
        <ele>1187.1</ele>
        <time>2019-11-01T11:09:36Z</time>
      </trkpt>
      <trkpt lat="43.93398" lon="6.28572">
        <ele>1186.1</ele>
        <time>2019-11-01T11:09:37Z</time>
      </trkpt>
      <trkpt lat="43.93381" lon="6.2858">
        <ele>1184.2</ele>
        <time>2019-11-01T11:09:39Z</time>
      </trkpt>
      <trkpt lat="43.93373" lon="6.28585">
        <ele>1183</ele>
        <time>2019-11-01T11:09:40Z</time>
      </trkpt>
      <trkpt lat="43.93358" lon="6.28594">
        <ele>1180.4</ele>
        <time>2019-11-01T11:09:42Z</time>
      </trkpt>
      <trkpt lat="43.9335" lon="6.28597">
        <ele>1180.7</ele>
        <time>2019-11-01T11:09:43Z</time>
      </trkpt>
      <trkpt lat="43.93334" lon="6.28604">
        <ele>1178.7</ele>
        <time>2019-11-01T11:09:45Z</time>
      </trkpt>
      <trkpt lat="43.93326" lon="6.28607">
        <ele>1178.6</ele>
        <time>2019-11-01T11:09:46Z</time>
      </trkpt>
      <trkpt lat="43.9331" lon="6.28613">
        <ele>1177</ele>
        <time>2019-11-01T11:09:48Z</time>
      </trkpt>
      <trkpt lat="43.93293" lon="6.28618">
        <ele>1177.8</ele>
        <time>2019-11-01T11:09:50Z</time>
      </trkpt>
      <trkpt lat="43.93284" lon="6.28622">
        <ele>1178.2</ele>
        <time>2019-11-01T11:09:51Z</time>
      </trkpt>
      <trkpt lat="43.93268" lon="6.28632">
        <ele>1178</ele>
        <time>2019-11-01T11:09:53Z</time>
      </trkpt>
      <trkpt lat="43.93253" lon="6.28641">
        <ele>1179.7</ele>
        <time>2019-11-01T11:09:55Z</time>
      </trkpt>
      <trkpt lat="43.93238" lon="6.28652">
        <ele>1180.8</ele>
        <time>2019-11-01T11:09:57Z</time>
      </trkpt>
      <trkpt lat="43.93222" lon="6.28662">
        <ele>1182.6</ele>
        <time>2019-11-01T11:09:59Z</time>
      </trkpt>
      <trkpt lat="43.93207" lon="6.28673">
        <ele>1183.6</ele>
        <time>2019-11-01T11:10:01Z</time>
      </trkpt>
      <trkpt lat="43.93192" lon="6.28685">
        <ele>1184.5</ele>
        <time>2019-11-01T11:10:03Z</time>
      </trkpt>
      <trkpt lat="43.93185" lon="6.28692">
        <ele>1183.5</ele>
        <time>2019-11-01T11:10:04Z</time>
      </trkpt>
      <trkpt lat="43.93172" lon="6.28704">
        <ele>1183.5</ele>
        <time>2019-11-01T11:10:06Z</time>
      </trkpt>
      <trkpt lat="43.93164" lon="6.28709">
        <ele>1183.2</ele>
        <time>2019-11-01T11:10:07Z</time>
      </trkpt>
      <trkpt lat="43.93157" lon="6.28714">
        <ele>1182.7</ele>
        <time>2019-11-01T11:10:08Z</time>
      </trkpt>
      <trkpt lat="43.93142" lon="6.28722">
        <ele>1181.4</ele>
        <time>2019-11-01T11:10:10Z</time>
      </trkpt>
      <trkpt lat="43.93134" lon="6.28725">
        <ele>1180.9</ele>
        <time>2019-11-01T11:10:11Z</time>
      </trkpt>
      <trkpt lat="43.93117" lon="6.28732">
        <ele>1180.6</ele>
        <time>2019-11-01T11:10:13Z</time>
      </trkpt>
      <trkpt lat="43.93101" lon="6.28738">
        <ele>1176.3</ele>
        <time>2019-11-01T11:10:15Z</time>
      </trkpt>
      <trkpt lat="43.93086" lon="6.28743">
        <ele>1173.7</ele>
        <time>2019-11-01T11:10:17Z</time>
      </trkpt>
      <trkpt lat="43.93071" lon="6.28747">
        <ele>1168.4</ele>
        <time>2019-11-01T11:10:19Z</time>
      </trkpt>
      <trkpt lat="43.93064" lon="6.28749">
        <ele>1167.4</ele>
        <time>2019-11-01T11:10:20Z</time>
      </trkpt>
      <trkpt lat="43.93048" lon="6.28751">
        <ele>1164</ele>
        <time>2019-11-01T11:10:22Z</time>
      </trkpt>
      <trkpt lat="43.9304" lon="6.28751">
        <ele>1162.3</ele>
        <time>2019-11-01T11:10:23Z</time>
      </trkpt>
      <trkpt lat="43.93024" lon="6.28753">
        <ele>1159.3</ele>
        <time>2019-11-01T11:10:25Z</time>
      </trkpt>
      <trkpt lat="43.93007" lon="6.28754">
        <ele>1156</ele>
        <time>2019-11-01T11:10:27Z</time>
      </trkpt>
      <trkpt lat="43.9299" lon="6.28757">
        <ele>1154.8</ele>
        <time>2019-11-01T11:10:29Z</time>
      </trkpt>
      <trkpt lat="43.92973" lon="6.28759">
        <ele>1152.9</ele>
        <time>2019-11-01T11:10:31Z</time>
      </trkpt>
      <trkpt lat="43.92956" lon="6.28762">
        <ele>1151.8</ele>
        <time>2019-11-01T11:10:33Z</time>
      </trkpt>
      <trkpt lat="43.92942" lon="6.28765">
        <ele>1150.7</ele>
        <time>2019-11-01T11:10:35Z</time>
      </trkpt>
      <trkpt lat="43.92928" lon="6.28768">
        <ele>1149.7</ele>
        <time>2019-11-01T11:10:37Z</time>
      </trkpt>
      <trkpt lat="43.9292" lon="6.28769">
        <ele>1149.3</ele>
        <time>2019-11-01T11:10:38Z</time>
      </trkpt>
      <trkpt lat="43.92906" lon="6.28773">
        <ele>1148.3</ele>
        <time>2019-11-01T11:10:40Z</time>
      </trkpt>
      <trkpt lat="43.92893" lon="6.28778">
        <ele>1147.7</ele>
        <time>2019-11-01T11:10:42Z</time>
      </trkpt>
      <trkpt lat="43.92887" lon="6.2878">
        <ele>1147.7</ele>
        <time>2019-11-01T11:10:43Z</time>
      </trkpt>
      <trkpt lat="43.92882" lon="6.28781">
        <ele>1147.6</ele>
        <time>2019-11-01T11:10:44Z</time>
      </trkpt>
      <trkpt lat="43.92871" lon="6.28781">
        <ele>1147.2</ele>
        <time>2019-11-01T11:10:46Z</time>
      </trkpt>
      <trkpt lat="43.92865" lon="6.28779">
        <ele>1146.9</ele>
        <time>2019-11-01T11:10:47Z</time>
      </trkpt>
      <trkpt lat="43.92852" lon="6.28775">
        <ele>1146.4</ele>
        <time>2019-11-01T11:10:49Z</time>
      </trkpt>
      <trkpt lat="43.92846" lon="6.28773">
        <ele>1146</ele>
        <time>2019-11-01T11:10:50Z</time>
      </trkpt>
      <trkpt lat="43.9284" lon="6.28771">
        <ele>1145.6</ele>
        <time>2019-11-01T11:10:51Z</time>
      </trkpt>
      <trkpt lat="43.92828" lon="6.28766">
        <ele>1145</ele>
        <time>2019-11-01T11:10:53Z</time>
      </trkpt>
      <trkpt lat="43.92823" lon="6.28763">
        <ele>1144.7</ele>
        <time>2019-11-01T11:10:54Z</time>
      </trkpt>
      <trkpt lat="43.92815" lon="6.2876">
        <ele>1144</ele>
        <time>2019-11-01T11:10:56Z</time>
      </trkpt>
      <trkpt lat="43.92809" lon="6.28758">
        <ele>1143.5</ele>
        <time>2019-11-01T11:10:58Z</time>
      </trkpt>
      <trkpt lat="43.92805" lon="6.28758">
        <ele>1143.2</ele>
        <time>2019-11-01T11:11:00Z</time>
      </trkpt>
      <trkpt lat="43.92803" lon="6.2876">
        <ele>1143</ele>
        <time>2019-11-01T11:11:02Z</time>
      </trkpt>
      <trkpt lat="43.928" lon="6.28764">
        <ele>1142.6</ele>
        <time>2019-11-01T11:11:25Z</time>
      </trkpt>
      <trkpt lat="43.92799" lon="6.28768">
        <ele>1142.5</ele>
        <time>2019-11-01T11:11:26Z</time>
      </trkpt>
      <trkpt lat="43.92798" lon="6.28772">
        <ele>1142.3</ele>
        <time>2019-11-01T11:11:27Z</time>
      </trkpt>
      <trkpt lat="43.92794" lon="6.2878">
        <ele>1142</ele>
        <time>2019-11-01T11:11:30Z</time>
      </trkpt>
      <trkpt lat="43.92791" lon="6.28785">
        <ele>1141.8</ele>
        <time>2019-11-01T11:11:31Z</time>
      </trkpt>
      <trkpt lat="43.92787" lon="6.28792">
        <ele>1141.5</ele>
        <time>2019-11-01T11:11:32Z</time>
      </trkpt>
      <trkpt lat="43.92785" lon="6.28797">
        <ele>1141.3</ele>
        <time>2019-11-01T11:11:34Z</time>
      </trkpt>
      <trkpt lat="43.92782" lon="6.28804">
        <ele>1141.1</ele>
        <time>2019-11-01T11:11:35Z</time>
      </trkpt>
      <trkpt lat="43.92779" lon="6.28807">
        <ele>1140.9</ele>
        <time>2019-11-01T11:11:37Z</time>
      </trkpt>
      <trkpt lat="43.92776" lon="6.28812">
        <ele>1140.7</ele>
        <time>2019-11-01T11:11:38Z</time>
      </trkpt>
      <trkpt lat="43.92773" lon="6.28815">
        <ele>1140.6</ele>
        <time>2019-11-01T11:11:39Z</time>
      </trkpt>
      <trkpt lat="43.9277" lon="6.28818">
        <ele>1140.4</ele>
        <time>2019-11-01T11:11:41Z</time>
      </trkpt>
      <trkpt lat="43.92766" lon="6.2882">
        <ele>1140.3</ele>
        <time>2019-11-01T11:11:43Z</time>
      </trkpt>
      <trkpt lat="43.92764" lon="6.28823">
        <ele>1140.2</ele>
        <time>2019-11-01T11:11:45Z</time>
      </trkpt>
      <trkpt lat="43.92759" lon="6.28825">
        <ele>1140.1</ele>
        <time>2019-11-01T11:11:48Z</time>
      </trkpt>
      <trkpt lat="43.92752" lon="6.28821">
        <ele>1140.4</ele>
        <time>2019-11-01T11:11:51Z</time>
      </trkpt>
      <trkpt lat="43.92749" lon="6.28821">
        <ele>1140.5</ele>
        <time>2019-11-01T11:11:53Z</time>
      </trkpt>
      <trkpt lat="43.92744" lon="6.28819">
        <ele>1140.7</ele>
        <time>2019-11-01T11:11:56Z</time>
      </trkpt>
      <trkpt lat="43.92739" lon="6.28818">
        <ele>1140.9</ele>
        <time>2019-11-01T11:11:58Z</time>
      </trkpt>
      <trkpt lat="43.92735" lon="6.28816">
        <ele>1141.7</ele>
        <time>2019-11-01T11:12:01Z</time>
      </trkpt>
      <trkpt lat="43.92732" lon="6.28814">
        <ele>1142.1</ele>
        <time>2019-11-01T11:12:03Z</time>
      </trkpt>
      <trkpt lat="43.92727" lon="6.28815">
        <ele>1142.9</ele>
        <time>2019-11-01T11:12:06Z</time>
      </trkpt>
      <trkpt lat="43.92723" lon="6.28819">
        <ele>1144</ele>
        <time>2019-11-01T11:12:08Z</time>
      </trkpt>
      <trkpt lat="43.92721" lon="6.28824">
        <ele>1145.2</ele>
        <time>2019-11-01T11:12:12Z</time>
      </trkpt>
      <trkpt lat="43.92716" lon="6.28827">
        <ele>1146.2</ele>
        <time>2019-11-01T11:12:14Z</time>
      </trkpt>
      <trkpt lat="43.92712" lon="6.28831">
        <ele>1146.7</ele>
        <time>2019-11-01T11:12:17Z</time>
      </trkpt>
      <trkpt lat="43.92709" lon="6.28834">
        <ele>1147</ele>
        <time>2019-11-01T11:12:18Z</time>
      </trkpt>
      <trkpt lat="43.92706" lon="6.28835">
        <ele>1147.9</ele>
        <time>2019-11-01T11:12:20Z</time>
      </trkpt>
      <trkpt lat="43.92703" lon="6.28836">
        <ele>1148.8</ele>
        <time>2019-11-01T11:12:21Z</time>
      </trkpt>
      <trkpt lat="43.92699" lon="6.28839">
        <ele>1150.1</ele>
        <time>2019-11-01T11:12:23Z</time>
      </trkpt>
      <trkpt lat="43.92695" lon="6.28842">
        <ele>1151</ele>
        <time>2019-11-01T11:12:25Z</time>
      </trkpt>
      <trkpt lat="43.92689" lon="6.28846">
        <ele>1152.1</ele>
        <time>2019-11-01T11:12:28Z</time>
      </trkpt>
      <trkpt lat="43.92685" lon="6.28848">
        <ele>1152.6</ele>
        <time>2019-11-01T11:12:30Z</time>
      </trkpt>
      <trkpt lat="43.9268" lon="6.28851">
        <ele>1152.7</ele>
        <time>2019-11-01T11:12:33Z</time>
      </trkpt>
      <trkpt lat="43.92678" lon="6.28854">
        <ele>1153.4</ele>
        <time>2019-11-01T11:12:34Z</time>
      </trkpt>
      <trkpt lat="43.92675" lon="6.28856">
        <ele>1154.4</ele>
        <time>2019-11-01T11:12:35Z</time>
      </trkpt>
      <trkpt lat="43.92671" lon="6.28859">
        <ele>1155.6</ele>
        <time>2019-11-01T11:12:37Z</time>
      </trkpt>
      <trkpt lat="43.92667" lon="6.28862">
        <ele>1156.3</ele>
        <time>2019-11-01T11:12:40Z</time>
      </trkpt>
      <trkpt lat="43.92664" lon="6.28864">
        <ele>1156.5</ele>
        <time>2019-11-01T11:12:41Z</time>
      </trkpt>
      <trkpt lat="43.92661" lon="6.28868">
        <ele>1156.4</ele>
        <time>2019-11-01T11:12:43Z</time>
      </trkpt>
      <trkpt lat="43.92658" lon="6.2887">
        <ele>1156.4</ele>
        <time>2019-11-01T11:12:44Z</time>
      </trkpt>
      <trkpt lat="43.92653" lon="6.28875">
        <ele>1157.2</ele>
        <time>2019-11-01T11:12:47Z</time>
      </trkpt>
      <trkpt lat="43.92648" lon="6.2888">
        <ele>1158</ele>
        <time>2019-11-01T11:12:50Z</time>
      </trkpt>
      <trkpt lat="43.92644" lon="6.28883">
        <ele>1158.2</ele>
        <time>2019-11-01T11:12:52Z</time>
      </trkpt>
      <trkpt lat="43.92641" lon="6.28887">
        <ele>1158.3</ele>
        <time>2019-11-01T11:12:53Z</time>
      </trkpt>
      <trkpt lat="43.92637" lon="6.28891">
        <ele>1158.5</ele>
        <time>2019-11-01T11:12:56Z</time>
      </trkpt>
      <trkpt lat="43.92633" lon="6.28898">
        <ele>1158.3</ele>
        <time>2019-11-01T11:12:58Z</time>
      </trkpt>
      <trkpt lat="43.92632" lon="6.28902">
        <ele>1158</ele>
        <time>2019-11-01T11:12:59Z</time>
      </trkpt>
      <trkpt lat="43.92628" lon="6.28906">
        <ele>1157.8</ele>
        <time>2019-11-01T11:13:02Z</time>
      </trkpt>
      <trkpt lat="43.92626" lon="6.2891">
        <ele>1157.8</ele>
        <time>2019-11-01T11:13:03Z</time>
      </trkpt>
      <trkpt lat="43.92622" lon="6.28916">
        <ele>1157.8</ele>
        <time>2019-11-01T11:13:06Z</time>
      </trkpt>
      <trkpt lat="43.92618" lon="6.28921">
        <ele>1157.8</ele>
        <time>2019-11-01T11:13:09Z</time>
      </trkpt>
      <trkpt lat="43.92616" lon="6.28924">
        <ele>1158</ele>
        <time>2019-11-01T11:13:11Z</time>
      </trkpt>
      <trkpt lat="43.92613" lon="6.2893">
        <ele>1158.4</ele>
        <time>2019-11-01T11:13:14Z</time>
      </trkpt>
      <trkpt lat="43.92611" lon="6.28934">
        <ele>1158.6</ele>
        <time>2019-11-01T11:13:15Z</time>
      </trkpt>
      <trkpt lat="43.92608" lon="6.28938">
        <ele>1159</ele>
        <time>2019-11-01T11:13:18Z</time>
      </trkpt>
      <trkpt lat="43.92606" lon="6.2894">
        <ele>1159.2</ele>
        <time>2019-11-01T11:13:19Z</time>
      </trkpt>
      <trkpt lat="43.92603" lon="6.28944">
        <ele>1159.3</ele>
        <time>2019-11-01T11:13:22Z</time>
      </trkpt>
      <trkpt lat="43.92599" lon="6.2895">
        <ele>1159.2</ele>
        <time>2019-11-01T11:13:24Z</time>
      </trkpt>
      <trkpt lat="43.92596" lon="6.28956">
        <ele>1158.7</ele>
        <time>2019-11-01T11:13:27Z</time>
      </trkpt>
      <trkpt lat="43.92594" lon="6.28959">
        <ele>1158.7</ele>
        <time>2019-11-01T11:13:29Z</time>
      </trkpt>
      <trkpt lat="43.92593" lon="6.28963">
        <ele>1158.8</ele>
        <time>2019-11-01T11:13:30Z</time>
      </trkpt>
      <trkpt lat="43.92591" lon="6.28966">
        <ele>1158.9</ele>
        <time>2019-11-01T11:13:32Z</time>
      </trkpt>
      <trkpt lat="43.92589" lon="6.28969">
        <ele>1159.3</ele>
        <time>2019-11-01T11:13:34Z</time>
      </trkpt>
      <trkpt lat="43.92584" lon="6.28973">
        <ele>1160.2</ele>
        <time>2019-11-01T11:13:37Z</time>
      </trkpt>
      <trkpt lat="43.92582" lon="6.28976">
        <ele>1160.4</ele>
        <time>2019-11-01T11:13:38Z</time>
      </trkpt>
      <trkpt lat="43.92579" lon="6.28979">
        <ele>1160.6</ele>
        <time>2019-11-01T11:13:40Z</time>
      </trkpt>
      <trkpt lat="43.92575" lon="6.28982">
        <ele>1161.3</ele>
        <time>2019-11-01T11:13:42Z</time>
      </trkpt>
      <trkpt lat="43.92571" lon="6.28984">
        <ele>1162</ele>
        <time>2019-11-01T11:13:44Z</time>
      </trkpt>
      <trkpt lat="43.92566" lon="6.28987">
        <ele>1163.4</ele>
        <time>2019-11-01T11:13:47Z</time>
      </trkpt>
      <trkpt lat="43.92562" lon="6.28989">
        <ele>1164.3</ele>
        <time>2019-11-01T11:13:49Z</time>
      </trkpt>
      <trkpt lat="43.92557" lon="6.2899">
        <ele>1165</ele>
        <time>2019-11-01T11:13:52Z</time>
      </trkpt>
      <trkpt lat="43.92554" lon="6.28991">
        <ele>1166.1</ele>
        <time>2019-11-01T11:13:53Z</time>
      </trkpt>
      <trkpt lat="43.92551" lon="6.28993">
        <ele>1167.2</ele>
        <time>2019-11-01T11:13:55Z</time>
      </trkpt>
      <trkpt lat="43.92547" lon="6.28994">
        <ele>1168.5</ele>
        <time>2019-11-01T11:13:57Z</time>
      </trkpt>
      <trkpt lat="43.92543" lon="6.28996">
        <ele>1169.5</ele>
        <time>2019-11-01T11:13:59Z</time>
      </trkpt>
      <trkpt lat="43.92539" lon="6.28998">
        <ele>1170.6</ele>
        <time>2019-11-01T11:14:02Z</time>
      </trkpt>
      <trkpt lat="43.92536" lon="6.28998">
        <ele>1171.2</ele>
        <time>2019-11-01T11:14:04Z</time>
      </trkpt>
      <trkpt lat="43.92533" lon="6.28999">
        <ele>1171.9</ele>
        <time>2019-11-01T11:14:05Z</time>
      </trkpt>
      <trkpt lat="43.92528" lon="6.28999">
        <ele>1173.3</ele>
        <time>2019-11-01T11:14:08Z</time>
      </trkpt>
      <trkpt lat="43.92523" lon="6.28999">
        <ele>1174.3</ele>
        <time>2019-11-01T11:14:10Z</time>
      </trkpt>
      <trkpt lat="43.92519" lon="6.29">
        <ele>1175</ele>
        <time>2019-11-01T11:14:12Z</time>
      </trkpt>
      <trkpt lat="43.92514" lon="6.29002">
        <ele>1176</ele>
        <time>2019-11-01T11:14:15Z</time>
      </trkpt>
      <trkpt lat="43.9251" lon="6.29004">
        <ele>1177.1</ele>
        <time>2019-11-01T11:14:18Z</time>
      </trkpt>
      <trkpt lat="43.92506" lon="6.29005">
        <ele>1178.4</ele>
        <time>2019-11-01T11:14:20Z</time>
      </trkpt>
      <trkpt lat="43.92501" lon="6.29007">
        <ele>1179.9</ele>
        <time>2019-11-01T11:14:22Z</time>
      </trkpt>
      <trkpt lat="43.92495" lon="6.29009">
        <ele>1180.5</ele>
        <time>2019-11-01T11:14:26Z</time>
      </trkpt>
      <trkpt lat="43.9249" lon="6.29011">
        <ele>1180.5</ele>
        <time>2019-11-01T11:14:28Z</time>
      </trkpt>
      <trkpt lat="43.92486" lon="6.29012">
        <ele>1180.3</ele>
        <time>2019-11-01T11:14:31Z</time>
      </trkpt>
      <trkpt lat="43.92482" lon="6.29014">
        <ele>1180.1</ele>
        <time>2019-11-01T11:14:33Z</time>
      </trkpt>
      <trkpt lat="43.92479" lon="6.29016">
        <ele>1179.8</ele>
        <time>2019-11-01T11:14:34Z</time>
      </trkpt>
      <trkpt lat="43.92473" lon="6.2902">
        <ele>1179.8</ele>
        <time>2019-11-01T11:14:38Z</time>
      </trkpt>
      <trkpt lat="43.9247" lon="6.29023">
        <ele>1179.7</ele>
        <time>2019-11-01T11:14:40Z</time>
      </trkpt>
      <trkpt lat="43.92466" lon="6.29025">
        <ele>1178.5</ele>
        <time>2019-11-01T11:14:43Z</time>
      </trkpt>
      <trkpt lat="43.92462" lon="6.29028">
        <ele>1177.3</ele>
        <time>2019-11-01T11:14:46Z</time>
      </trkpt>
      <trkpt lat="43.92458" lon="6.29029">
        <ele>1177.7</ele>
        <time>2019-11-01T11:14:48Z</time>
      </trkpt>
      <trkpt lat="43.92454" lon="6.29029">
        <ele>1178.1</ele>
        <time>2019-11-01T11:14:50Z</time>
      </trkpt>
      <trkpt lat="43.92449" lon="6.29029">
        <ele>1178.6</ele>
        <time>2019-11-01T11:14:53Z</time>
      </trkpt>
      <trkpt lat="43.92445" lon="6.2903">
        <ele>1179.1</ele>
        <time>2019-11-01T11:14:55Z</time>
      </trkpt>
      <trkpt lat="43.9244" lon="6.2903">
        <ele>1179.5</ele>
        <time>2019-11-01T11:14:57Z</time>
      </trkpt>
      <trkpt lat="43.92435" lon="6.29029">
        <ele>1179.9</ele>
        <time>2019-11-01T11:15:00Z</time>
      </trkpt>
      <trkpt lat="43.9243" lon="6.29029">
        <ele>1180.2</ele>
        <time>2019-11-01T11:15:02Z</time>
      </trkpt>
      <trkpt lat="43.92427" lon="6.29029">
        <ele>1180.4</ele>
        <time>2019-11-01T11:15:04Z</time>
      </trkpt>
      <trkpt lat="43.92425" lon="6.29028">
        <ele>1180.7</ele>
        <time>2019-11-01T11:15:05Z</time>
      </trkpt>
      <trkpt lat="43.92421" lon="6.29027">
        <ele>1181.1</ele>
        <time>2019-11-01T11:15:08Z</time>
      </trkpt>
      <trkpt lat="43.92418" lon="6.29028">
        <ele>1181.4</ele>
        <time>2019-11-01T11:15:09Z</time>
      </trkpt>
      <trkpt lat="43.92414" lon="6.29028">
        <ele>1181.9</ele>
        <time>2019-11-01T11:15:12Z</time>
      </trkpt>
      <trkpt lat="43.9241" lon="6.29028">
        <ele>1182.5</ele>
        <time>2019-11-01T11:15:14Z</time>
      </trkpt>
      <trkpt lat="43.92405" lon="6.29028">
        <ele>1183.1</ele>
        <time>2019-11-01T11:15:17Z</time>
      </trkpt>
      <trkpt lat="43.92401" lon="6.29028">
        <ele>1183.8</ele>
        <time>2019-11-01T11:15:20Z</time>
      </trkpt>
      <trkpt lat="43.92395" lon="6.29029">
        <ele>1185.4</ele>
        <time>2019-11-01T11:15:22Z</time>
      </trkpt>
      <trkpt lat="43.92392" lon="6.29028">
        <ele>1186.1</ele>
        <time>2019-11-01T11:15:25Z</time>
      </trkpt>
      <trkpt lat="43.92389" lon="6.29026">
        <ele>1186.7</ele>
        <time>2019-11-01T11:15:26Z</time>
      </trkpt>
      <trkpt lat="43.92384" lon="6.29025">
        <ele>1187.4</ele>
        <time>2019-11-01T11:15:30Z</time>
      </trkpt>
      <trkpt lat="43.9238" lon="6.29024">
        <ele>1187.9</ele>
        <time>2019-11-01T11:15:32Z</time>
      </trkpt>
      <trkpt lat="43.92376" lon="6.29024">
        <ele>1188.9</ele>
        <time>2019-11-01T11:15:34Z</time>
      </trkpt>
      <trkpt lat="43.92373" lon="6.29023">
        <ele>1189.9</ele>
        <time>2019-11-01T11:15:36Z</time>
      </trkpt>
      <trkpt lat="43.92368" lon="6.29022">
        <ele>1191.2</ele>
        <time>2019-11-01T11:15:38Z</time>
      </trkpt>
      <trkpt lat="43.92364" lon="6.29021">
        <ele>1191.8</ele>
        <time>2019-11-01T11:15:40Z</time>
      </trkpt>
      <trkpt lat="43.9236" lon="6.29019">
        <ele>1193</ele>
        <time>2019-11-01T11:15:42Z</time>
      </trkpt>
      <trkpt lat="43.92357" lon="6.29019">
        <ele>1194.5</ele>
        <time>2019-11-01T11:15:45Z</time>
      </trkpt>
      <trkpt lat="43.92354" lon="6.29018">
        <ele>1195.3</ele>
        <time>2019-11-01T11:15:46Z</time>
      </trkpt>
      <trkpt lat="43.9235" lon="6.29017">
        <ele>1195.9</ele>
        <time>2019-11-01T11:15:49Z</time>
      </trkpt>
      <trkpt lat="43.92344" lon="6.29017">
        <ele>1196.8</ele>
        <time>2019-11-01T11:15:52Z</time>
      </trkpt>
      <trkpt lat="43.92339" lon="6.29016">
        <ele>1197.7</ele>
        <time>2019-11-01T11:15:55Z</time>
      </trkpt>
      <trkpt lat="43.92335" lon="6.29016">
        <ele>1198.4</ele>
        <time>2019-11-01T11:15:57Z</time>
      </trkpt>
      <trkpt lat="43.92331" lon="6.29016">
        <ele>1199.2</ele>
        <time>2019-11-01T11:16:00Z</time>
      </trkpt>
      <trkpt lat="43.92328" lon="6.29016">
        <ele>1199.6</ele>
        <time>2019-11-01T11:16:02Z</time>
      </trkpt>
      <trkpt lat="43.92324" lon="6.29017">
        <ele>1199.9</ele>
        <time>2019-11-01T11:16:04Z</time>
      </trkpt>
      <trkpt lat="43.92322" lon="6.29018">
        <ele>1200.2</ele>
        <time>2019-11-01T11:16:05Z</time>
      </trkpt>
      <trkpt lat="43.92317" lon="6.29018">
        <ele>1200.8</ele>
        <time>2019-11-01T11:16:08Z</time>
      </trkpt>
      <trkpt lat="43.92313" lon="6.29018">
        <ele>1201.4</ele>
        <time>2019-11-01T11:16:10Z</time>
      </trkpt>
      <trkpt lat="43.92309" lon="6.29019">
        <ele>1201.2</ele>
        <time>2019-11-01T11:16:12Z</time>
      </trkpt>
      <trkpt lat="43.92306" lon="6.2902">
        <ele>1201</ele>
        <time>2019-11-01T11:16:14Z</time>
      </trkpt>
      <trkpt lat="43.92304" lon="6.29021">
        <ele>1200.9</ele>
        <time>2019-11-01T11:16:15Z</time>
      </trkpt>
      <trkpt lat="43.92301" lon="6.29022">
        <ele>1200.7</ele>
        <time>2019-11-01T11:16:17Z</time>
      </trkpt>
      <trkpt lat="43.92297" lon="6.29023">
        <ele>1200.4</ele>
        <time>2019-11-01T11:16:19Z</time>
      </trkpt>
      <trkpt lat="43.92293" lon="6.29025">
        <ele>1200.6</ele>
        <time>2019-11-01T11:16:21Z</time>
      </trkpt>
      <trkpt lat="43.92288" lon="6.29028">
        <ele>1201</ele>
        <time>2019-11-01T11:16:24Z</time>
      </trkpt>
      <trkpt lat="43.92285" lon="6.2903">
        <ele>1200.8</ele>
        <time>2019-11-01T11:16:25Z</time>
      </trkpt>
      <trkpt lat="43.92282" lon="6.29031">
        <ele>1200.6</ele>
        <time>2019-11-01T11:16:27Z</time>
      </trkpt>
      <trkpt lat="43.92276" lon="6.29034">
        <ele>1200</ele>
        <time>2019-11-01T11:16:30Z</time>
      </trkpt>
      <trkpt lat="43.9227" lon="6.29036">
        <ele>1199.6</ele>
        <time>2019-11-01T11:16:33Z</time>
      </trkpt>
      <trkpt lat="43.92264" lon="6.29036">
        <ele>1199.8</ele>
        <time>2019-11-01T11:16:35Z</time>
      </trkpt>
      <trkpt lat="43.9226" lon="6.29036">
        <ele>1199.8</ele>
        <time>2019-11-01T11:16:37Z</time>
      </trkpt>
      <trkpt lat="43.92258" lon="6.29036">
        <ele>1199.7</ele>
        <time>2019-11-01T11:16:38Z</time>
      </trkpt>
      <trkpt lat="43.92254" lon="6.29035">
        <ele>1199.5</ele>
        <time>2019-11-01T11:16:40Z</time>
      </trkpt>
      <trkpt lat="43.92249" lon="6.29035">
        <ele>1199.1</ele>
        <time>2019-11-01T11:16:42Z</time>
      </trkpt>
      <trkpt lat="43.92245" lon="6.29035">
        <ele>1198.8</ele>
        <time>2019-11-01T11:16:44Z</time>
      </trkpt>
      <trkpt lat="43.92242" lon="6.29035">
        <ele>1198.6</ele>
        <time>2019-11-01T11:16:45Z</time>
      </trkpt>
      <trkpt lat="43.92238" lon="6.29034">
        <ele>1199</ele>
        <time>2019-11-01T11:16:47Z</time>
      </trkpt>
      <trkpt lat="43.92234" lon="6.29033">
        <ele>1199.1</ele>
        <time>2019-11-01T11:16:49Z</time>
      </trkpt>
      <trkpt lat="43.9223" lon="6.29032">
        <ele>1198.4</ele>
        <time>2019-11-01T11:16:51Z</time>
      </trkpt>
      <trkpt lat="43.92227" lon="6.29031">
        <ele>1198</ele>
        <time>2019-11-01T11:16:52Z</time>
      </trkpt>
      <trkpt lat="43.92224" lon="6.29029">
        <ele>1197.7</ele>
        <time>2019-11-01T11:16:53Z</time>
      </trkpt>
      <trkpt lat="43.92221" lon="6.29028">
        <ele>1197.3</ele>
        <time>2019-11-01T11:16:54Z</time>
      </trkpt>
      <trkpt lat="43.92218" lon="6.29028">
        <ele>1197.1</ele>
        <time>2019-11-01T11:16:56Z</time>
      </trkpt>
      <trkpt lat="43.92214" lon="6.29026">
        <ele>1196.9</ele>
        <time>2019-11-01T11:16:57Z</time>
      </trkpt>
      <trkpt lat="43.92211" lon="6.29024">
        <ele>1196.7</ele>
        <time>2019-11-01T11:16:59Z</time>
      </trkpt>
      <trkpt lat="43.92206" lon="6.29023">
        <ele>1196.3</ele>
        <time>2019-11-01T11:17:01Z</time>
      </trkpt>
      <trkpt lat="43.922" lon="6.2902">
        <ele>1196.2</ele>
        <time>2019-11-01T11:17:04Z</time>
      </trkpt>
      <trkpt lat="43.92194" lon="6.2902">
        <ele>1196.2</ele>
        <time>2019-11-01T11:17:06Z</time>
      </trkpt>
      <trkpt lat="43.9219" lon="6.2902">
        <ele>1194.6</ele>
        <time>2019-11-01T11:17:08Z</time>
      </trkpt>
      <trkpt lat="43.92184" lon="6.29023">
        <ele>1192.2</ele>
        <time>2019-11-01T11:17:10Z</time>
      </trkpt>
      <trkpt lat="43.92181" lon="6.29024">
        <ele>1191.3</ele>
        <time>2019-11-01T11:17:11Z</time>
      </trkpt>
      <trkpt lat="43.92177" lon="6.29024">
        <ele>1190.6</ele>
        <time>2019-11-01T11:17:13Z</time>
      </trkpt>
      <trkpt lat="43.92174" lon="6.29025">
        <ele>1190.6</ele>
        <time>2019-11-01T11:17:14Z</time>
      </trkpt>
      <trkpt lat="43.9217" lon="6.29023">
        <ele>1190.4</ele>
        <time>2019-11-01T11:17:16Z</time>
      </trkpt>
      <trkpt lat="43.92167" lon="6.29023">
        <ele>1190</ele>
        <time>2019-11-01T11:17:17Z</time>
      </trkpt>
      <trkpt lat="43.92163" lon="6.29022">
        <ele>1189.4</ele>
        <time>2019-11-01T11:17:18Z</time>
      </trkpt>
      <trkpt lat="43.9216" lon="6.29022">
        <ele>1189.1</ele>
        <time>2019-11-01T11:17:20Z</time>
      </trkpt>
      <trkpt lat="43.92156" lon="6.29021">
        <ele>1188.7</ele>
        <time>2019-11-01T11:17:21Z</time>
      </trkpt>
      <trkpt lat="43.92153" lon="6.29021">
        <ele>1188.5</ele>
        <time>2019-11-01T11:17:22Z</time>
      </trkpt>
      <trkpt lat="43.92148" lon="6.2902">
        <ele>1188.7</ele>
        <time>2019-11-01T11:17:24Z</time>
      </trkpt>
      <trkpt lat="43.92142" lon="6.29019">
        <ele>1189</ele>
        <time>2019-11-01T11:17:26Z</time>
      </trkpt>
      <trkpt lat="43.92137" lon="6.29017">
        <ele>1188.6</ele>
        <time>2019-11-01T11:17:29Z</time>
      </trkpt>
      <trkpt lat="43.92134" lon="6.29016">
        <ele>1188.3</ele>
        <time>2019-11-01T11:17:31Z</time>
      </trkpt>
      <trkpt lat="43.92127" lon="6.29014">
        <ele>1187.9</ele>
        <time>2019-11-01T11:17:33Z</time>
      </trkpt>
      <trkpt lat="43.92124" lon="6.29013">
        <ele>1188</ele>
        <time>2019-11-01T11:17:35Z</time>
      </trkpt>
      <trkpt lat="43.92119" lon="6.29012">
        <ele>1188.5</ele>
        <time>2019-11-01T11:17:37Z</time>
      </trkpt>
      <trkpt lat="43.92114" lon="6.29012">
        <ele>1188.6</ele>
        <time>2019-11-01T11:17:39Z</time>
      </trkpt>
      <trkpt lat="43.9211" lon="6.29011">
        <ele>1188.5</ele>
        <time>2019-11-01T11:17:41Z</time>
      </trkpt>
      <trkpt lat="43.92104" lon="6.29007">
        <ele>1189.8</ele>
        <time>2019-11-01T11:17:43Z</time>
      </trkpt>
      <trkpt lat="43.92101" lon="6.29005">
        <ele>1191</ele>
        <time>2019-11-01T11:17:45Z</time>
      </trkpt>
      <trkpt lat="43.92097" lon="6.29002">
        <ele>1192.7</ele>
        <time>2019-11-01T11:17:47Z</time>
      </trkpt>
      <trkpt lat="43.92094" lon="6.28999">
        <ele>1193.7</ele>
        <time>2019-11-01T11:17:48Z</time>
      </trkpt>
      <trkpt lat="43.92092" lon="6.28996">
        <ele>1194.4</ele>
        <time>2019-11-01T11:17:49Z</time>
      </trkpt>
      <trkpt lat="43.92089" lon="6.28992">
        <ele>1195.1</ele>
        <time>2019-11-01T11:17:51Z</time>
      </trkpt>
      <trkpt lat="43.92088" lon="6.28989">
        <ele>1195.9</ele>
        <time>2019-11-01T11:17:52Z</time>
      </trkpt>
      <trkpt lat="43.92086" lon="6.28986">
        <ele>1196.9</ele>
        <time>2019-11-01T11:17:53Z</time>
      </trkpt>
      <trkpt lat="43.92083" lon="6.28983">
        <ele>1198</ele>
        <time>2019-11-01T11:17:55Z</time>
      </trkpt>
      <trkpt lat="43.92079" lon="6.28978">
        <ele>1198.8</ele>
        <time>2019-11-01T11:17:57Z</time>
      </trkpt>
      <trkpt lat="43.92076" lon="6.28975">
        <ele>1199.5</ele>
        <time>2019-11-01T11:17:59Z</time>
      </trkpt>
      <trkpt lat="43.92073" lon="6.28974">
        <ele>1200.5</ele>
        <time>2019-11-01T11:18:00Z</time>
      </trkpt>
      <trkpt lat="43.92069" lon="6.28973">
        <ele>1201.7</ele>
        <time>2019-11-01T11:18:01Z</time>
      </trkpt>
      <trkpt lat="43.92066" lon="6.28973">
        <ele>1202.2</ele>
        <time>2019-11-01T11:18:03Z</time>
      </trkpt>
      <trkpt lat="43.92063" lon="6.28974">
        <ele>1201.8</ele>
        <time>2019-11-01T11:18:05Z</time>
      </trkpt>
      <trkpt lat="43.92058" lon="6.28975">
        <ele>1201.4</ele>
        <time>2019-11-01T11:18:07Z</time>
      </trkpt>
      <trkpt lat="43.92053" lon="6.28977">
        <ele>1201.9</ele>
        <time>2019-11-01T11:18:09Z</time>
      </trkpt>
      <trkpt lat="43.92049" lon="6.28978">
        <ele>1202.4</ele>
        <time>2019-11-01T11:18:11Z</time>
      </trkpt>
      <trkpt lat="43.92043" lon="6.28979">
        <ele>1203.1</ele>
        <time>2019-11-01T11:18:14Z</time>
      </trkpt>
      <trkpt lat="43.92038" lon="6.28979">
        <ele>1203.1</ele>
        <time>2019-11-01T11:18:17Z</time>
      </trkpt>
      <trkpt lat="43.92034" lon="6.28979">
        <ele>1202.8</ele>
        <time>2019-11-01T11:18:18Z</time>
      </trkpt>
      <trkpt lat="43.92031" lon="6.28979">
        <ele>1203.2</ele>
        <time>2019-11-01T11:18:20Z</time>
      </trkpt>
      <trkpt lat="43.92026" lon="6.2898">
        <ele>1204.1</ele>
        <time>2019-11-01T11:18:22Z</time>
      </trkpt>
      <trkpt lat="43.92022" lon="6.28982">
        <ele>1204.6</ele>
        <time>2019-11-01T11:18:25Z</time>
      </trkpt>
      <trkpt lat="43.92018" lon="6.28983">
        <ele>1205</ele>
        <time>2019-11-01T11:18:27Z</time>
      </trkpt>
      <trkpt lat="43.92015" lon="6.28983">
        <ele>1205.5</ele>
        <time>2019-11-01T11:18:29Z</time>
      </trkpt>
      <trkpt lat="43.9201" lon="6.28984">
        <ele>1206.5</ele>
        <time>2019-11-01T11:18:31Z</time>
      </trkpt>
      <trkpt lat="43.92004" lon="6.28986">
        <ele>1207.2</ele>
        <time>2019-11-01T11:18:33Z</time>
      </trkpt>
      <trkpt lat="43.91998" lon="6.28987">
        <ele>1207.6</ele>
        <time>2019-11-01T11:18:36Z</time>
      </trkpt>
      <trkpt lat="43.91996" lon="6.28987">
        <ele>1208.4</ele>
        <time>2019-11-01T11:18:38Z</time>
      </trkpt>
      <trkpt lat="43.9199" lon="6.28988">
        <ele>1210</ele>
        <time>2019-11-01T11:18:40Z</time>
      </trkpt>
      <trkpt lat="43.91985" lon="6.2899">
        <ele>1211.5</ele>
        <time>2019-11-01T11:18:44Z</time>
      </trkpt>
      <trkpt lat="43.9198" lon="6.28992">
        <ele>1212.8</ele>
        <time>2019-11-01T11:18:46Z</time>
      </trkpt>
      <trkpt lat="43.91976" lon="6.28993">
        <ele>1213.6</ele>
        <time>2019-11-01T11:18:49Z</time>
      </trkpt>
      <trkpt lat="43.91972" lon="6.28994">
        <ele>1214.3</ele>
        <time>2019-11-01T11:18:51Z</time>
      </trkpt>
      <trkpt lat="43.91969" lon="6.28996">
        <ele>1215.3</ele>
        <time>2019-11-01T11:18:52Z</time>
      </trkpt>
      <trkpt lat="43.91963" lon="6.29001">
        <ele>1216.4</ele>
        <time>2019-11-01T11:18:56Z</time>
      </trkpt>
      <trkpt lat="43.9196" lon="6.29004">
        <ele>1216.8</ele>
        <time>2019-11-01T11:18:58Z</time>
      </trkpt>
      <trkpt lat="43.91958" lon="6.29007">
        <ele>1217</ele>
        <time>2019-11-01T11:19:00Z</time>
      </trkpt>
      <trkpt lat="43.91955" lon="6.29011">
        <ele>1217.4</ele>
        <time>2019-11-01T11:19:02Z</time>
      </trkpt>
      <trkpt lat="43.91952" lon="6.29014">
        <ele>1217.4</ele>
        <time>2019-11-01T11:19:04Z</time>
      </trkpt>
      <trkpt lat="43.91949" lon="6.29017">
        <ele>1217.2</ele>
        <time>2019-11-01T11:19:05Z</time>
      </trkpt>
      <trkpt lat="43.91946" lon="6.2902">
        <ele>1216.9</ele>
        <time>2019-11-01T11:19:07Z</time>
      </trkpt>
      <trkpt lat="43.91943" lon="6.29022">
        <ele>1217</ele>
        <time>2019-11-01T11:19:09Z</time>
      </trkpt>
      <trkpt lat="43.91939" lon="6.29026">
        <ele>1217.1</ele>
        <time>2019-11-01T11:19:11Z</time>
      </trkpt>
      <trkpt lat="43.91937" lon="6.29029">
        <ele>1217.8</ele>
        <time>2019-11-01T11:19:13Z</time>
      </trkpt>
      <trkpt lat="43.91934" lon="6.29032">
        <ele>1218.5</ele>
        <time>2019-11-01T11:19:14Z</time>
      </trkpt>
      <trkpt lat="43.9193" lon="6.29036">
        <ele>1218.9</ele>
        <time>2019-11-01T11:19:17Z</time>
      </trkpt>
      <trkpt lat="43.91926" lon="6.29039">
        <ele>1219.1</ele>
        <time>2019-11-01T11:19:19Z</time>
      </trkpt>
      <trkpt lat="43.91924" lon="6.29041">
        <ele>1219.6</ele>
        <time>2019-11-01T11:19:21Z</time>
      </trkpt>
      <trkpt lat="43.9192" lon="6.29044">
        <ele>1220.2</ele>
        <time>2019-11-01T11:19:23Z</time>
      </trkpt>
      <trkpt lat="43.91917" lon="6.29046">
        <ele>1221.2</ele>
        <time>2019-11-01T11:19:24Z</time>
      </trkpt>
      <trkpt lat="43.91913" lon="6.29052">
        <ele>1223.4</ele>
        <time>2019-11-01T11:19:28Z</time>
      </trkpt>
      <trkpt lat="43.9191" lon="6.29054">
        <ele>1223.5</ele>
        <time>2019-11-01T11:19:29Z</time>
      </trkpt>
      <trkpt lat="43.91907" lon="6.29056">
        <ele>1223.4</ele>
        <time>2019-11-01T11:19:30Z</time>
      </trkpt>
      <trkpt lat="43.91903" lon="6.2906">
        <ele>1223.5</ele>
        <time>2019-11-01T11:19:33Z</time>
      </trkpt>
      <trkpt lat="43.91898" lon="6.29064">
        <ele>1224.1</ele>
        <time>2019-11-01T11:19:36Z</time>
      </trkpt>
      <trkpt lat="43.91896" lon="6.29066">
        <ele>1224.2</ele>
        <time>2019-11-01T11:19:38Z</time>
      </trkpt>
      <trkpt lat="43.91893" lon="6.29067">
        <ele>1224.4</ele>
        <time>2019-11-01T11:19:39Z</time>
      </trkpt>
      <trkpt lat="43.91889" lon="6.29069">
        <ele>1224.6</ele>
        <time>2019-11-01T11:19:42Z</time>
      </trkpt>
      <trkpt lat="43.91886" lon="6.29071">
        <ele>1225</ele>
        <time>2019-11-01T11:19:43Z</time>
      </trkpt>
      <trkpt lat="43.91883" lon="6.29073">
        <ele>1225.4</ele>
        <time>2019-11-01T11:19:44Z</time>
      </trkpt>
      <trkpt lat="43.91879" lon="6.29075">
        <ele>1226.1</ele>
        <time>2019-11-01T11:19:47Z</time>
      </trkpt>
      <trkpt lat="43.91875" lon="6.29078">
        <ele>1227.1</ele>
        <time>2019-11-01T11:19:50Z</time>
      </trkpt>
      <trkpt lat="43.91871" lon="6.2908">
        <ele>1227.6</ele>
        <time>2019-11-01T11:19:53Z</time>
      </trkpt>
      <trkpt lat="43.91866" lon="6.29081">
        <ele>1227.9</ele>
        <time>2019-11-01T11:19:55Z</time>
      </trkpt>
      <trkpt lat="43.91863" lon="6.29083">
        <ele>1228.3</ele>
        <time>2019-11-01T11:19:56Z</time>
      </trkpt>
      <trkpt lat="43.9186" lon="6.29085">
        <ele>1229</ele>
        <time>2019-11-01T11:19:59Z</time>
      </trkpt>
      <trkpt lat="43.91856" lon="6.29086">
        <ele>1229.7</ele>
        <time>2019-11-01T11:20:01Z</time>
      </trkpt>
      <trkpt lat="43.91852" lon="6.29087">
        <ele>1230.3</ele>
        <time>2019-11-01T11:20:04Z</time>
      </trkpt>
      <trkpt lat="43.91848" lon="6.29089">
        <ele>1231</ele>
        <time>2019-11-01T11:20:06Z</time>
      </trkpt>
      <trkpt lat="43.91843" lon="6.29089">
        <ele>1232.2</ele>
        <time>2019-11-01T11:20:10Z</time>
      </trkpt>
      <trkpt lat="43.9184" lon="6.29087">
        <ele>1232.9</ele>
        <time>2019-11-01T11:20:14Z</time>
      </trkpt>
      <trkpt lat="43.91833" lon="6.29088">
        <ele>1233</ele>
        <time>2019-11-01T11:20:16Z</time>
      </trkpt>
      <trkpt lat="43.91829" lon="6.29089">
        <ele>1234.1</ele>
        <time>2019-11-01T11:20:19Z</time>
      </trkpt>
      <trkpt lat="43.91825" lon="6.29092">
        <ele>1234.8</ele>
        <time>2019-11-01T11:20:22Z</time>
      </trkpt>
      <trkpt lat="43.9182" lon="6.29094">
        <ele>1235.1</ele>
        <time>2019-11-01T11:20:25Z</time>
      </trkpt>
      <trkpt lat="43.91815" lon="6.29097">
        <ele>1234</ele>
        <time>2019-11-01T11:20:28Z</time>
      </trkpt>
      <trkpt lat="43.91811" lon="6.29099">
        <ele>1233</ele>
        <time>2019-11-01T11:20:30Z</time>
      </trkpt>
      <trkpt lat="43.91807" lon="6.291">
        <ele>1233.7</ele>
        <time>2019-11-01T11:20:33Z</time>
      </trkpt>
      <trkpt lat="43.91803" lon="6.291">
        <ele>1234.3</ele>
        <time>2019-11-01T11:20:35Z</time>
      </trkpt>
      <trkpt lat="43.91801" lon="6.29101">
        <ele>1234.6</ele>
        <time>2019-11-01T11:20:37Z</time>
      </trkpt>
      <trkpt lat="43.91795" lon="6.29101">
        <ele>1235.1</ele>
        <time>2019-11-01T11:20:39Z</time>
      </trkpt>
      <trkpt lat="43.9179" lon="6.29102">
        <ele>1235.6</ele>
        <time>2019-11-01T11:20:42Z</time>
      </trkpt>
      <trkpt lat="43.91784" lon="6.29101">
        <ele>1235.9</ele>
        <time>2019-11-01T11:20:45Z</time>
      </trkpt>
      <trkpt lat="43.91778" lon="6.29099">
        <ele>1236.5</ele>
        <time>2019-11-01T11:20:48Z</time>
      </trkpt>
      <trkpt lat="43.91775" lon="6.29097">
        <ele>1237.2</ele>
        <time>2019-11-01T11:20:49Z</time>
      </trkpt>
      <trkpt lat="43.9177" lon="6.29095">
        <ele>1237.8</ele>
        <time>2019-11-01T11:20:52Z</time>
      </trkpt>
      <trkpt lat="43.91767" lon="6.29093">
        <ele>1237.8</ele>
        <time>2019-11-01T11:20:54Z</time>
      </trkpt>
      <trkpt lat="43.91763" lon="6.29091">
        <ele>1237.9</ele>
        <time>2019-11-01T11:20:57Z</time>
      </trkpt>
      <trkpt lat="43.9176" lon="6.2909">
        <ele>1238.2</ele>
        <time>2019-11-01T11:20:58Z</time>
      </trkpt>
      <trkpt lat="43.91756" lon="6.29088">
        <ele>1238.7</ele>
        <time>2019-11-01T11:21:01Z</time>
      </trkpt>
      <trkpt lat="43.91752" lon="6.29089">
        <ele>1239.1</ele>
        <time>2019-11-01T11:21:03Z</time>
      </trkpt>
      <trkpt lat="43.91747" lon="6.29088">
        <ele>1239.4</ele>
        <time>2019-11-01T11:21:06Z</time>
      </trkpt>
      <trkpt lat="43.91742" lon="6.29084">
        <ele>1239</ele>
        <time>2019-11-01T11:21:09Z</time>
      </trkpt>
      <trkpt lat="43.9174" lon="6.29081">
        <ele>1238.9</ele>
        <time>2019-11-01T11:21:10Z</time>
      </trkpt>
      <trkpt lat="43.91737" lon="6.29076">
        <ele>1238.7</ele>
        <time>2019-11-01T11:21:11Z</time>
      </trkpt>
      <trkpt lat="43.91735" lon="6.29073">
        <ele>1238.6</ele>
        <time>2019-11-01T11:21:13Z</time>
      </trkpt>
      <trkpt lat="43.91732" lon="6.29069">
        <ele>1238.5</ele>
        <time>2019-11-01T11:21:14Z</time>
      </trkpt>
      <trkpt lat="43.91729" lon="6.29066">
        <ele>1238.4</ele>
        <time>2019-11-01T11:21:16Z</time>
      </trkpt>
      <trkpt lat="43.91725" lon="6.29064">
        <ele>1238.3</ele>
        <time>2019-11-01T11:21:18Z</time>
      </trkpt>
      <trkpt lat="43.91721" lon="6.29063">
        <ele>1237.9</ele>
        <time>2019-11-01T11:21:20Z</time>
      </trkpt>
      <trkpt lat="43.91718" lon="6.2906">
        <ele>1237.4</ele>
        <time>2019-11-01T11:21:21Z</time>
      </trkpt>
      <trkpt lat="43.91713" lon="6.29057">
        <ele>1236.7</ele>
        <time>2019-11-01T11:21:24Z</time>
      </trkpt>
      <trkpt lat="43.91708" lon="6.29054">
        <ele>1235.7</ele>
        <time>2019-11-01T11:21:26Z</time>
      </trkpt>
      <trkpt lat="43.91706" lon="6.29048">
        <ele>1234.5</ele>
        <time>2019-11-01T11:21:29Z</time>
      </trkpt>
      <trkpt lat="43.91703" lon="6.29045">
        <ele>1234.1</ele>
        <time>2019-11-01T11:21:31Z</time>
      </trkpt>
      <trkpt lat="43.91701" lon="6.29042">
        <ele>1233.9</ele>
        <time>2019-11-01T11:21:32Z</time>
      </trkpt>
      <trkpt lat="43.917" lon="6.29036">
        <ele>1233.2</ele>
        <time>2019-11-01T11:21:35Z</time>
      </trkpt>
      <trkpt lat="43.91699" lon="6.29031">
        <ele>1232.5</ele>
        <time>2019-11-01T11:21:38Z</time>
      </trkpt>
      <trkpt lat="43.91696" lon="6.29031">
        <ele>1232</ele>
        <time>2019-11-01T11:21:40Z</time>
      </trkpt>
      <trkpt lat="43.91692" lon="6.29031">
        <ele>1229.8</ele>
        <time>2019-11-01T11:21:43Z</time>
      </trkpt>
      <trkpt lat="43.91688" lon="6.29033">
        <ele>1229.5</ele>
        <time>2019-11-01T11:21:45Z</time>
      </trkpt>
      <trkpt lat="43.91683" lon="6.29033">
        <ele>1229.3</ele>
        <time>2019-11-01T11:21:48Z</time>
      </trkpt>
      <trkpt lat="43.9168" lon="6.2903">
        <ele>1229.1</ele>
        <time>2019-11-01T11:21:50Z</time>
      </trkpt>
      <trkpt lat="43.91677" lon="6.29025">
        <ele>1228.9</ele>
        <time>2019-11-01T11:21:53Z</time>
      </trkpt>
      <trkpt lat="43.91674" lon="6.29023">
        <ele>1228.9</ele>
        <time>2019-11-01T11:21:55Z</time>
      </trkpt>
      <trkpt lat="43.91669" lon="6.29026">
        <ele>1229.2</ele>
        <time>2019-11-01T11:21:57Z</time>
      </trkpt>
      <trkpt lat="43.91664" lon="6.2903">
        <ele>1229.6</ele>
        <time>2019-11-01T11:21:59Z</time>
      </trkpt>
      <trkpt lat="43.91661" lon="6.29032">
        <ele>1229.8</ele>
        <time>2019-11-01T11:22:01Z</time>
      </trkpt>
      <trkpt lat="43.91657" lon="6.29034">
        <ele>1229.9</ele>
        <time>2019-11-01T11:22:03Z</time>
      </trkpt>
      <trkpt lat="43.91653" lon="6.29028">
        <ele>1230</ele>
        <time>2019-11-01T11:22:07Z</time>
      </trkpt>
      <trkpt lat="43.91654" lon="6.29024">
        <ele>1230</ele>
        <time>2019-11-01T11:22:08Z</time>
      </trkpt>
      <trkpt lat="43.91656" lon="6.29021">
        <ele>1230</ele>
        <time>2019-11-01T11:22:10Z</time>
      </trkpt>
      <trkpt lat="43.91659" lon="6.29019">
        <ele>1229.9</ele>
        <time>2019-11-01T11:22:11Z</time>
      </trkpt>
      <trkpt lat="43.91662" lon="6.2902">
        <ele>1229.9</ele>
        <time>2019-11-01T11:22:13Z</time>
      </trkpt>
      <trkpt lat="43.91667" lon="6.29015">
        <ele>1229.7</ele>
        <time>2019-11-01T11:22:17Z</time>
      </trkpt>
      <trkpt lat="43.91667" lon="6.29009">
        <ele>1229.5</ele>
        <time>2019-11-01T11:23:56Z</time>
      </trkpt>
      <trkpt lat="43.91665" lon="6.29007">
        <ele>1229.4</ele>
        <time>2019-11-01T11:24:00Z</time>
      </trkpt>
      <trkpt lat="43.91667" lon="6.29014">
        <ele>1229.3</ele>
        <time>2019-11-01T11:24:36Z</time>
      </trkpt>
      <trkpt lat="43.91664" lon="6.29016">
        <ele>1229.3</ele>
        <time>2019-11-01T11:26:41Z</time>
      </trkpt>
      <trkpt lat="43.91663" lon="6.29021">
        <ele>1229.5</ele>
        <time>2019-11-01T11:26:43Z</time>
      </trkpt>
      <trkpt lat="43.91664" lon="6.29026">
        <ele>1229.7</ele>
        <time>2019-11-01T11:26:45Z</time>
      </trkpt>
      <trkpt lat="43.91666" lon="6.29031">
        <ele>1230</ele>
        <time>2019-11-01T11:26:47Z</time>
      </trkpt>
      <trkpt lat="43.91669" lon="6.29033">
        <ele>1230.3</ele>
        <time>2019-11-01T11:26:49Z</time>
      </trkpt>
      <trkpt lat="43.91672" lon="6.29035">
        <ele>1230.6</ele>
        <time>2019-11-01T11:26:51Z</time>
      </trkpt>
      <trkpt lat="43.91673" lon="6.29039">
        <ele>1231</ele>
        <time>2019-11-01T11:26:53Z</time>
      </trkpt>
      <trkpt lat="43.91675" lon="6.29043">
        <ele>1231.4</ele>
        <time>2019-11-01T11:26:55Z</time>
      </trkpt>
      <trkpt lat="43.91676" lon="6.2905">
        <ele>1232.1</ele>
        <time>2019-11-01T11:26:58Z</time>
      </trkpt>
      <trkpt lat="43.91679" lon="6.29056">
        <ele>1232.8</ele>
        <time>2019-11-01T11:27:01Z</time>
      </trkpt>
      <trkpt lat="43.91681" lon="6.29061">
        <ele>1233.2</ele>
        <time>2019-11-01T11:27:03Z</time>
      </trkpt>
      <trkpt lat="43.91682" lon="6.29065">
        <ele>1233.4</ele>
        <time>2019-11-01T11:27:05Z</time>
      </trkpt>
      <trkpt lat="43.91684" lon="6.29069">
        <ele>1233.6</ele>
        <time>2019-11-01T11:27:07Z</time>
      </trkpt>
      <trkpt lat="43.91683" lon="6.29073">
        <ele>1233.8</ele>
        <time>2019-11-01T11:27:08Z</time>
      </trkpt>
      <trkpt lat="43.91683" lon="6.29078">
        <ele>1234.2</ele>
        <time>2019-11-01T11:27:10Z</time>
      </trkpt>
      <trkpt lat="43.91683" lon="6.29082">
        <ele>1234.4</ele>
        <time>2019-11-01T11:27:11Z</time>
      </trkpt>
      <trkpt lat="43.91682" lon="6.29085">
        <ele>1234.5</ele>
        <time>2019-11-01T11:27:12Z</time>
      </trkpt>
      <trkpt lat="43.9168" lon="6.29091">
        <ele>1234.6</ele>
        <time>2019-11-01T11:27:14Z</time>
      </trkpt>
      <trkpt lat="43.9168" lon="6.29095">
        <ele>1234.7</ele>
        <time>2019-11-01T11:27:15Z</time>
      </trkpt>
      <trkpt lat="43.9168" lon="6.29101">
        <ele>1234.9</ele>
        <time>2019-11-01T11:27:16Z</time>
      </trkpt>
      <trkpt lat="43.91679" lon="6.29109">
        <ele>1235.3</ele>
        <time>2019-11-01T11:27:19Z</time>
      </trkpt>
      <trkpt lat="43.91678" lon="6.29117">
        <ele>1235.4</ele>
        <time>2019-11-01T11:27:21Z</time>
      </trkpt>
      <trkpt lat="43.91677" lon="6.29125">
        <ele>1235.5</ele>
        <time>2019-11-01T11:27:24Z</time>
      </trkpt>
      <trkpt lat="43.91675" lon="6.29131">
        <ele>1235.8</ele>
        <time>2019-11-01T11:27:26Z</time>
      </trkpt>
      <trkpt lat="43.91675" lon="6.29137">
        <ele>1235.8</ele>
        <time>2019-11-01T11:27:28Z</time>
      </trkpt>
      <trkpt lat="43.91673" lon="6.29143">
        <ele>1235.7</ele>
        <time>2019-11-01T11:27:30Z</time>
      </trkpt>
      <trkpt lat="43.91672" lon="6.29147">
        <ele>1235.7</ele>
        <time>2019-11-01T11:27:32Z</time>
      </trkpt>
      <trkpt lat="43.9167" lon="6.29151">
        <ele>1235.7</ele>
        <time>2019-11-01T11:27:33Z</time>
      </trkpt>
      <trkpt lat="43.91667" lon="6.29158">
        <ele>1235.6</ele>
        <time>2019-11-01T11:27:36Z</time>
      </trkpt>
      <trkpt lat="43.91665" lon="6.29162">
        <ele>1235.6</ele>
        <time>2019-11-01T11:27:37Z</time>
      </trkpt>
      <trkpt lat="43.91663" lon="6.29168">
        <ele>1235</ele>
        <time>2019-11-01T11:27:39Z</time>
      </trkpt>
      <trkpt lat="43.91665" lon="6.29175">
        <ele>1234.3</ele>
        <time>2019-11-01T11:27:42Z</time>
      </trkpt>
      <trkpt lat="43.91667" lon="6.29179">
        <ele>1234.1</ele>
        <time>2019-11-01T11:27:43Z</time>
      </trkpt>
      <trkpt lat="43.9167" lon="6.29186">
        <ele>1234.1</ele>
        <time>2019-11-01T11:27:46Z</time>
      </trkpt>
      <trkpt lat="43.91672" lon="6.2919">
        <ele>1234.4</ele>
        <time>2019-11-01T11:27:48Z</time>
      </trkpt>
      <trkpt lat="43.91677" lon="6.29194">
        <ele>1234</ele>
        <time>2019-11-01T11:27:50Z</time>
      </trkpt>
      <trkpt lat="43.9168" lon="6.29198">
        <ele>1233.8</ele>
        <time>2019-11-01T11:27:53Z</time>
      </trkpt>
      <trkpt lat="43.91682" lon="6.29202">
        <ele>1233.8</ele>
        <time>2019-11-01T11:27:54Z</time>
      </trkpt>
      <trkpt lat="43.91685" lon="6.29208">
        <ele>1233.2</ele>
        <time>2019-11-01T11:27:57Z</time>
      </trkpt>
      <trkpt lat="43.91688" lon="6.29213">
        <ele>1232.2</ele>
        <time>2019-11-01T11:27:59Z</time>
      </trkpt>
      <trkpt lat="43.9169" lon="6.29219">
        <ele>1231</ele>
        <time>2019-11-01T11:28:02Z</time>
      </trkpt>
      <trkpt lat="43.91693" lon="6.29224">
        <ele>1229.8</ele>
        <time>2019-11-01T11:28:04Z</time>
      </trkpt>
      <trkpt lat="43.91694" lon="6.29228">
        <ele>1228.8</ele>
        <time>2019-11-01T11:28:06Z</time>
      </trkpt>
      <trkpt lat="43.91697" lon="6.29233">
        <ele>1227.3</ele>
        <time>2019-11-01T11:28:08Z</time>
      </trkpt>
      <trkpt lat="43.917" lon="6.2924">
        <ele>1225.5</ele>
        <time>2019-11-01T11:28:10Z</time>
      </trkpt>
      <trkpt lat="43.91703" lon="6.29245">
        <ele>1223.9</ele>
        <time>2019-11-01T11:28:13Z</time>
      </trkpt>
      <trkpt lat="43.91705" lon="6.29248">
        <ele>1223.1</ele>
        <time>2019-11-01T11:28:14Z</time>
      </trkpt>
      <trkpt lat="43.91709" lon="6.29253">
        <ele>1222.7</ele>
        <time>2019-11-01T11:28:17Z</time>
      </trkpt>
      <trkpt lat="43.91711" lon="6.29256">
        <ele>1221.8</ele>
        <time>2019-11-01T11:28:18Z</time>
      </trkpt>
      <trkpt lat="43.91714" lon="6.2926">
        <ele>1220.5</ele>
        <time>2019-11-01T11:28:21Z</time>
      </trkpt>
      <trkpt lat="43.91717" lon="6.29263">
        <ele>1221.3</ele>
        <time>2019-11-01T11:28:22Z</time>
      </trkpt>
      <trkpt lat="43.9172" lon="6.29265">
        <ele>1222.4</ele>
        <time>2019-11-01T11:28:24Z</time>
      </trkpt>
      <trkpt lat="43.91722" lon="6.29267">
        <ele>1223.4</ele>
        <time>2019-11-01T11:28:26Z</time>
      </trkpt>
      <trkpt lat="43.91725" lon="6.29272">
        <ele>1224.7</ele>
        <time>2019-11-01T11:28:28Z</time>
      </trkpt>
      <trkpt lat="43.91729" lon="6.29279">
        <ele>1226.4</ele>
        <time>2019-11-01T11:28:31Z</time>
      </trkpt>
      <trkpt lat="43.91732" lon="6.29286">
        <ele>1228.7</ele>
        <time>2019-11-01T11:28:34Z</time>
      </trkpt>
      <trkpt lat="43.91734" lon="6.29291">
        <ele>1231</ele>
        <time>2019-11-01T11:28:36Z</time>
      </trkpt>
      <trkpt lat="43.91736" lon="6.29297">
        <ele>1233</ele>
        <time>2019-11-01T11:28:38Z</time>
      </trkpt>
      <trkpt lat="43.9174" lon="6.29303">
        <ele>1235</ele>
        <time>2019-11-01T11:28:41Z</time>
      </trkpt>
      <trkpt lat="43.91743" lon="6.29306">
        <ele>1236.5</ele>
        <time>2019-11-01T11:28:43Z</time>
      </trkpt>
      <trkpt lat="43.91746" lon="6.29308">
        <ele>1237.8</ele>
        <time>2019-11-01T11:28:44Z</time>
      </trkpt>
      <trkpt lat="43.91749" lon="6.29311">
        <ele>1239.8</ele>
        <time>2019-11-01T11:28:47Z</time>
      </trkpt>
      <trkpt lat="43.91753" lon="6.29314">
        <ele>1241.5</ele>
        <time>2019-11-01T11:28:50Z</time>
      </trkpt>
      <trkpt lat="43.91756" lon="6.29317">
        <ele>1242.7</ele>
        <time>2019-11-01T11:28:52Z</time>
      </trkpt>
      <trkpt lat="43.91761" lon="6.29321">
        <ele>1244.3</ele>
        <time>2019-11-01T11:28:55Z</time>
      </trkpt>
      <trkpt lat="43.91765" lon="6.29325">
        <ele>1245.7</ele>
        <time>2019-11-01T11:28:57Z</time>
      </trkpt>
      <trkpt lat="43.91769" lon="6.29327">
        <ele>1247.6</ele>
        <time>2019-11-01T11:29:00Z</time>
      </trkpt>
      <trkpt lat="43.91772" lon="6.29329">
        <ele>1248.8</ele>
        <time>2019-11-01T11:29:02Z</time>
      </trkpt>
      <trkpt lat="43.91774" lon="6.29331">
        <ele>1249.6</ele>
        <time>2019-11-01T11:29:03Z</time>
      </trkpt>
      <trkpt lat="43.91778" lon="6.29335">
        <ele>1250.5</ele>
        <time>2019-11-01T11:29:06Z</time>
      </trkpt>
      <trkpt lat="43.91779" lon="6.2934">
        <ele>1251.3</ele>
        <time>2019-11-01T11:29:08Z</time>
      </trkpt>
      <trkpt lat="43.91779" lon="6.29345">
        <ele>1252.1</ele>
        <time>2019-11-01T11:29:11Z</time>
      </trkpt>
      <trkpt lat="43.91779" lon="6.29352">
        <ele>1253.1</ele>
        <time>2019-11-01T11:29:14Z</time>
      </trkpt>
      <trkpt lat="43.91777" lon="6.29356">
        <ele>1253.8</ele>
        <time>2019-11-01T11:29:15Z</time>
      </trkpt>
      <trkpt lat="43.91774" lon="6.29361">
        <ele>1254.9</ele>
        <time>2019-11-01T11:29:17Z</time>
      </trkpt>
      <trkpt lat="43.91771" lon="6.29363">
        <ele>1255.7</ele>
        <time>2019-11-01T11:29:19Z</time>
      </trkpt>
      <trkpt lat="43.91767" lon="6.29367">
        <ele>1256.9</ele>
        <time>2019-11-01T11:29:22Z</time>
      </trkpt>
      <trkpt lat="43.91763" lon="6.29369">
        <ele>1257.7</ele>
        <time>2019-11-01T11:29:24Z</time>
      </trkpt>
      <trkpt lat="43.91758" lon="6.29371">
        <ele>1258.9</ele>
        <time>2019-11-01T11:29:27Z</time>
      </trkpt>
      <trkpt lat="43.91755" lon="6.29372">
        <ele>1259.7</ele>
        <time>2019-11-01T11:29:28Z</time>
      </trkpt>
      <trkpt lat="43.9175" lon="6.29373">
        <ele>1260.7</ele>
        <time>2019-11-01T11:29:31Z</time>
      </trkpt>
      <trkpt lat="43.91745" lon="6.29375">
        <ele>1261.2</ele>
        <time>2019-11-01T11:29:33Z</time>
      </trkpt>
      <trkpt lat="43.91741" lon="6.29376">
        <ele>1262</ele>
        <time>2019-11-01T11:29:36Z</time>
      </trkpt>
      <trkpt lat="43.91738" lon="6.29377">
        <ele>1262.6</ele>
        <time>2019-11-01T11:29:37Z</time>
      </trkpt>
      <trkpt lat="43.91734" lon="6.29378">
        <ele>1263.4</ele>
        <time>2019-11-01T11:29:40Z</time>
      </trkpt>
      <trkpt lat="43.91729" lon="6.29382">
        <ele>1264.4</ele>
        <time>2019-11-01T11:29:43Z</time>
      </trkpt>
      <trkpt lat="43.91724" lon="6.29383">
        <ele>1265.3</ele>
        <time>2019-11-01T11:29:45Z</time>
      </trkpt>
      <trkpt lat="43.91721" lon="6.29385">
        <ele>1265.8</ele>
        <time>2019-11-01T11:29:46Z</time>
      </trkpt>
      <trkpt lat="43.91716" lon="6.29389">
        <ele>1265.8</ele>
        <time>2019-11-01T11:29:49Z</time>
      </trkpt>
      <trkpt lat="43.91714" lon="6.29392">
        <ele>1266.1</ele>
        <time>2019-11-01T11:29:51Z</time>
      </trkpt>
      <trkpt lat="43.9171" lon="6.29395">
        <ele>1266.7</ele>
        <time>2019-11-01T11:29:53Z</time>
      </trkpt>
      <trkpt lat="43.91708" lon="6.29398">
        <ele>1267.2</ele>
        <time>2019-11-01T11:29:55Z</time>
      </trkpt>
      <trkpt lat="43.91703" lon="6.29403">
        <ele>1268</ele>
        <time>2019-11-01T11:29:57Z</time>
      </trkpt>
      <trkpt lat="43.917" lon="6.29407">
        <ele>1268.3</ele>
        <time>2019-11-01T11:30:00Z</time>
      </trkpt>
      <trkpt lat="43.91697" lon="6.2941">
        <ele>1268.3</ele>
        <time>2019-11-01T11:30:01Z</time>
      </trkpt>
      <trkpt lat="43.91694" lon="6.29414">
        <ele>1268.3</ele>
        <time>2019-11-01T11:30:04Z</time>
      </trkpt>
      <trkpt lat="43.91691" lon="6.29419">
        <ele>1268.5</ele>
        <time>2019-11-01T11:30:06Z</time>
      </trkpt>
      <trkpt lat="43.91688" lon="6.29423">
        <ele>1268.5</ele>
        <time>2019-11-01T11:30:08Z</time>
      </trkpt>
      <trkpt lat="43.91686" lon="6.29425">
        <ele>1268.4</ele>
        <time>2019-11-01T11:30:10Z</time>
      </trkpt>
      <trkpt lat="43.91681" lon="6.29429">
        <ele>1268.3</ele>
        <time>2019-11-01T11:30:12Z</time>
      </trkpt>
      <trkpt lat="43.91678" lon="6.29434">
        <ele>1268.5</ele>
        <time>2019-11-01T11:30:15Z</time>
      </trkpt>
      <trkpt lat="43.91674" lon="6.29438">
        <ele>1269</ele>
        <time>2019-11-01T11:30:17Z</time>
      </trkpt>
      <trkpt lat="43.91672" lon="6.2944">
        <ele>1269.3</ele>
        <time>2019-11-01T11:30:19Z</time>
      </trkpt>
      <trkpt lat="43.91667" lon="6.29446">
        <ele>1269.6</ele>
        <time>2019-11-01T11:30:22Z</time>
      </trkpt>
      <trkpt lat="43.91663" lon="6.29451">
        <ele>1269.1</ele>
        <time>2019-11-01T11:30:24Z</time>
      </trkpt>
      <trkpt lat="43.9166" lon="6.29456">
        <ele>1269.3</ele>
        <time>2019-11-01T11:30:27Z</time>
      </trkpt>
      <trkpt lat="43.91657" lon="6.29459">
        <ele>1269.7</ele>
        <time>2019-11-01T11:30:28Z</time>
      </trkpt>
      <trkpt lat="43.91654" lon="6.29463">
        <ele>1270.2</ele>
        <time>2019-11-01T11:30:31Z</time>
      </trkpt>
      <trkpt lat="43.91652" lon="6.29465">
        <ele>1270.5</ele>
        <time>2019-11-01T11:30:32Z</time>
      </trkpt>
      <trkpt lat="43.91648" lon="6.29469">
        <ele>1270.9</ele>
        <time>2019-11-01T11:30:34Z</time>
      </trkpt>
      <trkpt lat="43.91646" lon="6.29473">
        <ele>1271.2</ele>
        <time>2019-11-01T11:30:36Z</time>
      </trkpt>
      <trkpt lat="43.91644" lon="6.29476">
        <ele>1271.4</ele>
        <time>2019-11-01T11:30:38Z</time>
      </trkpt>
      <trkpt lat="43.91641" lon="6.29482">
        <ele>1271.9</ele>
        <time>2019-11-01T11:30:41Z</time>
      </trkpt>
      <trkpt lat="43.91639" lon="6.29488">
        <ele>1272.4</ele>
        <time>2019-11-01T11:30:42Z</time>
      </trkpt>
      <trkpt lat="43.91637" lon="6.29492">
        <ele>1272.7</ele>
        <time>2019-11-01T11:30:45Z</time>
      </trkpt>
      <trkpt lat="43.91635" lon="6.29497">
        <ele>1272.7</ele>
        <time>2019-11-01T11:30:47Z</time>
      </trkpt>
      <trkpt lat="43.91633" lon="6.29502">
        <ele>1272.8</ele>
        <time>2019-11-01T11:30:48Z</time>
      </trkpt>
      <trkpt lat="43.91631" lon="6.29507">
        <ele>1272.7</ele>
        <time>2019-11-01T11:30:50Z</time>
      </trkpt>
      <trkpt lat="43.91629" lon="6.2951">
        <ele>1272.6</ele>
        <time>2019-11-01T11:30:52Z</time>
      </trkpt>
      <trkpt lat="43.91627" lon="6.29513">
        <ele>1272.7</ele>
        <time>2019-11-01T11:30:53Z</time>
      </trkpt>
      <trkpt lat="43.91623" lon="6.29517">
        <ele>1273.2</ele>
        <time>2019-11-01T11:30:56Z</time>
      </trkpt>
      <trkpt lat="43.91621" lon="6.29521">
        <ele>1274</ele>
        <time>2019-11-01T11:30:57Z</time>
      </trkpt>
      <trkpt lat="43.91619" lon="6.29525">
        <ele>1275.1</ele>
        <time>2019-11-01T11:31:00Z</time>
      </trkpt>
      <trkpt lat="43.91615" lon="6.2953">
        <ele>1276.8</ele>
        <time>2019-11-01T11:31:02Z</time>
      </trkpt>
      <trkpt lat="43.91613" lon="6.29534">
        <ele>1277.3</ele>
        <time>2019-11-01T11:31:05Z</time>
      </trkpt>
      <trkpt lat="43.91611" lon="6.29539">
        <ele>1278</ele>
        <time>2019-11-01T11:31:07Z</time>
      </trkpt>
      <trkpt lat="43.91607" lon="6.29545">
        <ele>1279</ele>
        <time>2019-11-01T11:31:10Z</time>
      </trkpt>
      <trkpt lat="43.91604" lon="6.29549">
        <ele>1279.7</ele>
        <time>2019-11-01T11:31:12Z</time>
      </trkpt>
      <trkpt lat="43.91602" lon="6.29552">
        <ele>1280.2</ele>
        <time>2019-11-01T11:31:13Z</time>
      </trkpt>
      <trkpt lat="43.91599" lon="6.29556">
        <ele>1280.8</ele>
        <time>2019-11-01T11:31:16Z</time>
      </trkpt>
      <trkpt lat="43.91596" lon="6.29561">
        <ele>1281.5</ele>
        <time>2019-11-01T11:31:18Z</time>
      </trkpt>
      <trkpt lat="43.91593" lon="6.29565">
        <ele>1282.1</ele>
        <time>2019-11-01T11:31:20Z</time>
      </trkpt>
      <trkpt lat="43.9159" lon="6.29572">
        <ele>1283</ele>
        <time>2019-11-01T11:31:23Z</time>
      </trkpt>
      <trkpt lat="43.91585" lon="6.29577">
        <ele>1283.9</ele>
        <time>2019-11-01T11:31:26Z</time>
      </trkpt>
      <trkpt lat="43.91583" lon="6.29581">
        <ele>1284.3</ele>
        <time>2019-11-01T11:31:28Z</time>
      </trkpt>
      <trkpt lat="43.91582" lon="6.29585">
        <ele>1284.8</ele>
        <time>2019-11-01T11:31:29Z</time>
      </trkpt>
      <trkpt lat="43.9158" lon="6.29591">
        <ele>1284.9</ele>
        <time>2019-11-01T11:31:31Z</time>
      </trkpt>
      <trkpt lat="43.91578" lon="6.29594">
        <ele>1284.9</ele>
        <time>2019-11-01T11:31:33Z</time>
      </trkpt>
      <trkpt lat="43.91574" lon="6.29599">
        <ele>1285.7</ele>
        <time>2019-11-01T11:31:35Z</time>
      </trkpt>
      <trkpt lat="43.91571" lon="6.29603">
        <ele>1286.6</ele>
        <time>2019-11-01T11:31:38Z</time>
      </trkpt>
      <trkpt lat="43.91569" lon="6.29607">
        <ele>1286.8</ele>
        <time>2019-11-01T11:31:40Z</time>
      </trkpt>
      <trkpt lat="43.91564" lon="6.29613">
        <ele>1286.8</ele>
        <time>2019-11-01T11:31:43Z</time>
      </trkpt>
      <trkpt lat="43.91562" lon="6.29616">
        <ele>1287.1</ele>
        <time>2019-11-01T11:31:44Z</time>
      </trkpt>
      <trkpt lat="43.91559" lon="6.29618">
        <ele>1287.3</ele>
        <time>2019-11-01T11:31:46Z</time>
      </trkpt>
      <trkpt lat="43.91555" lon="6.29621">
        <ele>1287.6</ele>
        <time>2019-11-01T11:31:49Z</time>
      </trkpt>
      <trkpt lat="43.9155" lon="6.29624">
        <ele>1287.8</ele>
        <time>2019-11-01T11:31:51Z</time>
      </trkpt>
      <trkpt lat="43.91546" lon="6.29627">
        <ele>1288.2</ele>
        <time>2019-11-01T11:31:54Z</time>
      </trkpt>
      <trkpt lat="43.91543" lon="6.29628">
        <ele>1288.5</ele>
        <time>2019-11-01T11:31:55Z</time>
      </trkpt>
      <trkpt lat="43.91539" lon="6.29631">
        <ele>1288.9</ele>
        <time>2019-11-01T11:31:58Z</time>
      </trkpt>
      <trkpt lat="43.91536" lon="6.29633">
        <ele>1289.1</ele>
        <time>2019-11-01T11:32:00Z</time>
      </trkpt>
      <trkpt lat="43.91532" lon="6.29637">
        <ele>1289.1</ele>
        <time>2019-11-01T11:32:02Z</time>
      </trkpt>
      <trkpt lat="43.91529" lon="6.2964">
        <ele>1288.8</ele>
        <time>2019-11-01T11:32:04Z</time>
      </trkpt>
      <trkpt lat="43.91525" lon="6.29642">
        <ele>1288.4</ele>
        <time>2019-11-01T11:32:06Z</time>
      </trkpt>
      <trkpt lat="43.91519" lon="6.29647">
        <ele>1288.5</ele>
        <time>2019-11-01T11:32:09Z</time>
      </trkpt>
      <trkpt lat="43.91516" lon="6.29651">
        <ele>1288.3</ele>
        <time>2019-11-01T11:32:12Z</time>
      </trkpt>
      <trkpt lat="43.91513" lon="6.29655">
        <ele>1288</ele>
        <time>2019-11-01T11:32:14Z</time>
      </trkpt>
      <trkpt lat="43.91509" lon="6.29659">
        <ele>1287.3</ele>
        <time>2019-11-01T11:32:16Z</time>
      </trkpt>
      <trkpt lat="43.91506" lon="6.29664">
        <ele>1286.7</ele>
        <time>2019-11-01T11:32:19Z</time>
      </trkpt>
      <trkpt lat="43.91503" lon="6.29667">
        <ele>1286.4</ele>
        <time>2019-11-01T11:32:21Z</time>
      </trkpt>
      <trkpt lat="43.91499" lon="6.29669">
        <ele>1286.3</ele>
        <time>2019-11-01T11:32:23Z</time>
      </trkpt>
      <trkpt lat="43.91496" lon="6.2967">
        <ele>1286.3</ele>
        <time>2019-11-01T11:32:24Z</time>
      </trkpt>
      <trkpt lat="43.91492" lon="6.29672">
        <ele>1286.4</ele>
        <time>2019-11-01T11:32:27Z</time>
      </trkpt>
      <trkpt lat="43.9149" lon="6.29674">
        <ele>1286.5</ele>
        <time>2019-11-01T11:32:29Z</time>
      </trkpt>
      <trkpt lat="43.91487" lon="6.29676">
        <ele>1286.7</ele>
        <time>2019-11-01T11:32:30Z</time>
      </trkpt>
      <trkpt lat="43.91482" lon="6.2968">
        <ele>1287.6</ele>
        <time>2019-11-01T11:32:33Z</time>
      </trkpt>
      <trkpt lat="43.9148" lon="6.29683">
        <ele>1287.9</ele>
        <time>2019-11-01T11:32:34Z</time>
      </trkpt>
      <trkpt lat="43.91476" lon="6.29687">
        <ele>1288.1</ele>
        <time>2019-11-01T11:32:37Z</time>
      </trkpt>
      <trkpt lat="43.91474" lon="6.2969">
        <ele>1288.3</ele>
        <time>2019-11-01T11:32:38Z</time>
      </trkpt>
      <trkpt lat="43.91471" lon="6.29694">
        <ele>1288.6</ele>
        <time>2019-11-01T11:32:41Z</time>
      </trkpt>
      <trkpt lat="43.91467" lon="6.29699">
        <ele>1289.7</ele>
        <time>2019-11-01T11:32:43Z</time>
      </trkpt>
      <trkpt lat="43.91465" lon="6.29704">
        <ele>1290.8</ele>
        <time>2019-11-01T11:32:45Z</time>
      </trkpt>
      <trkpt lat="43.91462" lon="6.29708">
        <ele>1291.7</ele>
        <time>2019-11-01T11:32:47Z</time>
      </trkpt>
      <trkpt lat="43.9146" lon="6.29712">
        <ele>1292.5</ele>
        <time>2019-11-01T11:32:49Z</time>
      </trkpt>
      <trkpt lat="43.91458" lon="6.29716">
        <ele>1293</ele>
        <time>2019-11-01T11:32:51Z</time>
      </trkpt>
      <trkpt lat="43.91456" lon="6.2972">
        <ele>1293.7</ele>
        <time>2019-11-01T11:32:53Z</time>
      </trkpt>
      <trkpt lat="43.91453" lon="6.29725">
        <ele>1294.8</ele>
        <time>2019-11-01T11:32:55Z</time>
      </trkpt>
      <trkpt lat="43.91452" lon="6.29728">
        <ele>1295.5</ele>
        <time>2019-11-01T11:32:57Z</time>
      </trkpt>
      <trkpt lat="43.91451" lon="6.29732">
        <ele>1296.3</ele>
        <time>2019-11-01T11:32:58Z</time>
      </trkpt>
      <trkpt lat="43.9145" lon="6.29737">
        <ele>1297.1</ele>
        <time>2019-11-01T11:33:00Z</time>
      </trkpt>
      <trkpt lat="43.91448" lon="6.29741">
        <ele>1297.7</ele>
        <time>2019-11-01T11:33:02Z</time>
      </trkpt>
      <trkpt lat="43.91447" lon="6.29745">
        <ele>1298.2</ele>
        <time>2019-11-01T11:33:03Z</time>
      </trkpt>
      <trkpt lat="43.91444" lon="6.29748">
        <ele>1298.5</ele>
        <time>2019-11-01T11:33:05Z</time>
      </trkpt>
      <trkpt lat="43.91443" lon="6.29752">
        <ele>1298.9</ele>
        <time>2019-11-01T11:33:06Z</time>
      </trkpt>
      <trkpt lat="43.91441" lon="6.29756">
        <ele>1299.4</ele>
        <time>2019-11-01T11:33:08Z</time>
      </trkpt>
      <trkpt lat="43.91438" lon="6.29761">
        <ele>1300.1</ele>
        <time>2019-11-01T11:33:10Z</time>
      </trkpt>
      <trkpt lat="43.91437" lon="6.29764">
        <ele>1300.3</ele>
        <time>2019-11-01T11:33:11Z</time>
      </trkpt>
      <trkpt lat="43.91433" lon="6.29769">
        <ele>1300.8</ele>
        <time>2019-11-01T11:33:14Z</time>
      </trkpt>
      <trkpt lat="43.9143" lon="6.29771">
        <ele>1301.3</ele>
        <time>2019-11-01T11:33:16Z</time>
      </trkpt>
      <trkpt lat="43.91428" lon="6.29773">
        <ele>1301.8</ele>
        <time>2019-11-01T11:33:17Z</time>
      </trkpt>
      <trkpt lat="43.91424" lon="6.29776">
        <ele>1302.6</ele>
        <time>2019-11-01T11:33:19Z</time>
      </trkpt>
      <trkpt lat="43.9142" lon="6.29777">
        <ele>1303.6</ele>
        <time>2019-11-01T11:33:21Z</time>
      </trkpt>
      <trkpt lat="43.91417" lon="6.29779">
        <ele>1304.3</ele>
        <time>2019-11-01T11:33:23Z</time>
      </trkpt>
      <trkpt lat="43.91413" lon="6.29781">
        <ele>1305.3</ele>
        <time>2019-11-01T11:33:25Z</time>
      </trkpt>
      <trkpt lat="43.91408" lon="6.29783">
        <ele>1306.3</ele>
        <time>2019-11-01T11:33:27Z</time>
      </trkpt>
      <trkpt lat="43.91405" lon="6.29786">
        <ele>1306.3</ele>
        <time>2019-11-01T11:33:29Z</time>
      </trkpt>
      <trkpt lat="43.91402" lon="6.29788">
        <ele>1306.2</ele>
        <time>2019-11-01T11:33:31Z</time>
      </trkpt>
      <trkpt lat="43.914" lon="6.29791">
        <ele>1306.2</ele>
        <time>2019-11-01T11:33:33Z</time>
      </trkpt>
      <trkpt lat="43.91397" lon="6.29797">
        <ele>1306.5</ele>
        <time>2019-11-01T11:33:35Z</time>
      </trkpt>
      <trkpt lat="43.91395" lon="6.298">
        <ele>1306.6</ele>
        <time>2019-11-01T11:33:37Z</time>
      </trkpt>
      <trkpt lat="43.91391" lon="6.29806">
        <ele>1307.5</ele>
        <time>2019-11-01T11:33:39Z</time>
      </trkpt>
      <trkpt lat="43.91388" lon="6.29811">
        <ele>1308.2</ele>
        <time>2019-11-01T11:33:42Z</time>
      </trkpt>
      <trkpt lat="43.91386" lon="6.29814">
        <ele>1308.7</ele>
        <time>2019-11-01T11:33:43Z</time>
      </trkpt>
      <trkpt lat="43.91383" lon="6.29817">
        <ele>1309.2</ele>
        <time>2019-11-01T11:33:45Z</time>
      </trkpt>
      <trkpt lat="43.91379" lon="6.29822">
        <ele>1309.4</ele>
        <time>2019-11-01T11:33:47Z</time>
      </trkpt>
      <trkpt lat="43.91377" lon="6.29827">
        <ele>1309.4</ele>
        <time>2019-11-01T11:33:50Z</time>
      </trkpt>
      <trkpt lat="43.91374" lon="6.29831">
        <ele>1309.5</ele>
        <time>2019-11-01T11:33:53Z</time>
      </trkpt>
      <trkpt lat="43.91372" lon="6.29834">
        <ele>1309.7</ele>
        <time>2019-11-01T11:33:54Z</time>
      </trkpt>
      <trkpt lat="43.9137" lon="6.29839">
        <ele>1309.9</ele>
        <time>2019-11-01T11:33:55Z</time>
      </trkpt>
      <trkpt lat="43.91367" lon="6.29844">
        <ele>1309.6</ele>
        <time>2019-11-01T11:33:58Z</time>
      </trkpt>
      <trkpt lat="43.91365" lon="6.2985">
        <ele>1309.2</ele>
        <time>2019-11-01T11:34:00Z</time>
      </trkpt>
      <trkpt lat="43.91363" lon="6.29854">
        <ele>1309.5</ele>
        <time>2019-11-01T11:34:01Z</time>
      </trkpt>
      <trkpt lat="43.91361" lon="6.29859">
        <ele>1310.1</ele>
        <time>2019-11-01T11:34:04Z</time>
      </trkpt>
      <trkpt lat="43.9136" lon="6.29863">
        <ele>1310.2</ele>
        <time>2019-11-01T11:34:06Z</time>
      </trkpt>
      <trkpt lat="43.91358" lon="6.29867">
        <ele>1310.2</ele>
        <time>2019-11-01T11:34:07Z</time>
      </trkpt>
      <trkpt lat="43.91356" lon="6.2987">
        <ele>1310.1</ele>
        <time>2019-11-01T11:34:09Z</time>
      </trkpt>
      <trkpt lat="43.91351" lon="6.29875">
        <ele>1310.4</ele>
        <time>2019-11-01T11:34:12Z</time>
      </trkpt>
      <trkpt lat="43.9135" lon="6.29878">
        <ele>1310.6</ele>
        <time>2019-11-01T11:34:13Z</time>
      </trkpt>
      <trkpt lat="43.91347" lon="6.29883">
        <ele>1310.9</ele>
        <time>2019-11-01T11:34:14Z</time>
      </trkpt>
      <trkpt lat="43.91345" lon="6.29887">
        <ele>1311.2</ele>
        <time>2019-11-01T11:34:17Z</time>
      </trkpt>
      <trkpt lat="43.91341" lon="6.29893">
        <ele>1311.1</ele>
        <time>2019-11-01T11:34:19Z</time>
      </trkpt>
      <trkpt lat="43.91337" lon="6.29899">
        <ele>1310.4</ele>
        <time>2019-11-01T11:34:22Z</time>
      </trkpt>
      <trkpt lat="43.91334" lon="6.29904">
        <ele>1310.6</ele>
        <time>2019-11-01T11:34:24Z</time>
      </trkpt>
      <trkpt lat="43.91331" lon="6.29911">
        <ele>1310.8</ele>
        <time>2019-11-01T11:34:27Z</time>
      </trkpt>
      <trkpt lat="43.91328" lon="6.29914">
        <ele>1310.9</ele>
        <time>2019-11-01T11:34:29Z</time>
      </trkpt>
      <trkpt lat="43.91326" lon="6.29918">
        <ele>1311.1</ele>
        <time>2019-11-01T11:34:30Z</time>
      </trkpt>
      <trkpt lat="43.91322" lon="6.29924">
        <ele>1311.3</ele>
        <time>2019-11-01T11:34:33Z</time>
      </trkpt>
      <trkpt lat="43.91319" lon="6.29929">
        <ele>1311.4</ele>
        <time>2019-11-01T11:34:36Z</time>
      </trkpt>
      <trkpt lat="43.91317" lon="6.29933">
        <ele>1311.8</ele>
        <time>2019-11-01T11:34:37Z</time>
      </trkpt>
      <trkpt lat="43.91314" lon="6.29938">
        <ele>1312.5</ele>
        <time>2019-11-01T11:34:40Z</time>
      </trkpt>
      <trkpt lat="43.91311" lon="6.29943">
        <ele>1313.1</ele>
        <time>2019-11-01T11:34:42Z</time>
      </trkpt>
      <trkpt lat="43.91307" lon="6.29948">
        <ele>1313.8</ele>
        <time>2019-11-01T11:34:45Z</time>
      </trkpt>
      <trkpt lat="43.91304" lon="6.29953">
        <ele>1315.5</ele>
        <time>2019-11-01T11:34:47Z</time>
      </trkpt>
      <trkpt lat="43.91302" lon="6.29958">
        <ele>1316.6</ele>
        <time>2019-11-01T11:34:49Z</time>
      </trkpt>
      <trkpt lat="43.91298" lon="6.29964">
        <ele>1317.4</ele>
        <time>2019-11-01T11:34:52Z</time>
      </trkpt>
      <trkpt lat="43.91295" lon="6.29969">
        <ele>1317.8</ele>
        <time>2019-11-01T11:34:54Z</time>
      </trkpt>
      <trkpt lat="43.91292" lon="6.29975">
        <ele>1318.3</ele>
        <time>2019-11-01T11:34:57Z</time>
      </trkpt>
      <trkpt lat="43.9129" lon="6.29979">
        <ele>1318.6</ele>
        <time>2019-11-01T11:34:59Z</time>
      </trkpt>
      <trkpt lat="43.91286" lon="6.29986">
        <ele>1319.1</ele>
        <time>2019-11-01T11:35:02Z</time>
      </trkpt>
      <trkpt lat="43.91282" lon="6.29991">
        <ele>1319.9</ele>
        <time>2019-11-01T11:35:04Z</time>
      </trkpt>
      <trkpt lat="43.9128" lon="6.29994">
        <ele>1320.7</ele>
        <time>2019-11-01T11:35:06Z</time>
      </trkpt>
      <trkpt lat="43.91277" lon="6.29997">
        <ele>1321.8</ele>
        <time>2019-11-01T11:35:07Z</time>
      </trkpt>
      <trkpt lat="43.91273" lon="6.30002">
        <ele>1323.2</ele>
        <time>2019-11-01T11:35:10Z</time>
      </trkpt>
      <trkpt lat="43.91271" lon="6.30005">
        <ele>1323.8</ele>
        <time>2019-11-01T11:35:12Z</time>
      </trkpt>
      <trkpt lat="43.91268" lon="6.3001">
        <ele>1324.6</ele>
        <time>2019-11-01T11:35:14Z</time>
      </trkpt>
      <trkpt lat="43.91262" lon="6.30012">
        <ele>1325</ele>
        <time>2019-11-01T11:35:16Z</time>
      </trkpt>
      <trkpt lat="43.91256" lon="6.30013">
        <ele>1326.1</ele>
        <time>2019-11-01T11:35:20Z</time>
      </trkpt>
      <trkpt lat="43.91252" lon="6.30015">
        <ele>1326.7</ele>
        <time>2019-11-01T11:35:21Z</time>
      </trkpt>
      <trkpt lat="43.91248" lon="6.30018">
        <ele>1326.8</ele>
        <time>2019-11-01T11:35:24Z</time>
      </trkpt>
      <trkpt lat="43.91246" lon="6.3002">
        <ele>1326.9</ele>
        <time>2019-11-01T11:35:25Z</time>
      </trkpt>
      <trkpt lat="43.91243" lon="6.30022">
        <ele>1328</ele>
        <time>2019-11-01T11:35:27Z</time>
      </trkpt>
      <trkpt lat="43.9124" lon="6.30026">
        <ele>1329.5</ele>
        <time>2019-11-01T11:35:29Z</time>
      </trkpt>
      <trkpt lat="43.91236" lon="6.30031">
        <ele>1329.1</ele>
        <time>2019-11-01T11:35:32Z</time>
      </trkpt>
      <trkpt lat="43.91232" lon="6.30035">
        <ele>1328.5</ele>
        <time>2019-11-01T11:35:34Z</time>
      </trkpt>
      <trkpt lat="43.91228" lon="6.30038">
        <ele>1329.2</ele>
        <time>2019-11-01T11:35:37Z</time>
      </trkpt>
      <trkpt lat="43.91223" lon="6.30041">
        <ele>1329.9</ele>
        <time>2019-11-01T11:35:40Z</time>
      </trkpt>
      <trkpt lat="43.91217" lon="6.30042">
        <ele>1330</ele>
        <time>2019-11-01T11:35:43Z</time>
      </trkpt>
      <trkpt lat="43.91211" lon="6.30043">
        <ele>1330.5</ele>
        <time>2019-11-01T11:35:45Z</time>
      </trkpt>
      <trkpt lat="43.91207" lon="6.30046">
        <ele>1330.9</ele>
        <time>2019-11-01T11:35:48Z</time>
      </trkpt>
      <trkpt lat="43.91202" lon="6.30047">
        <ele>1330.1</ele>
        <time>2019-11-01T11:35:50Z</time>
      </trkpt>
      <trkpt lat="43.91198" lon="6.3005">
        <ele>1329</ele>
        <time>2019-11-01T11:35:53Z</time>
      </trkpt>
      <trkpt lat="43.91195" lon="6.30052">
        <ele>1328.1</ele>
        <time>2019-11-01T11:35:55Z</time>
      </trkpt>
      <trkpt lat="43.91192" lon="6.30055">
        <ele>1327.1</ele>
        <time>2019-11-01T11:35:57Z</time>
      </trkpt>
      <trkpt lat="43.91187" lon="6.30057">
        <ele>1326.4</ele>
        <time>2019-11-01T11:35:59Z</time>
      </trkpt>
      <trkpt lat="43.91184" lon="6.30057">
        <ele>1325.8</ele>
        <time>2019-11-01T11:36:00Z</time>
      </trkpt>
      <trkpt lat="43.91178" lon="6.30056">
        <ele>1324.5</ele>
        <time>2019-11-01T11:36:03Z</time>
      </trkpt>
      <trkpt lat="43.91175" lon="6.30058">
        <ele>1324.4</ele>
        <time>2019-11-01T11:36:05Z</time>
      </trkpt>
      <trkpt lat="43.91172" lon="6.30059">
        <ele>1324.8</ele>
        <time>2019-11-01T11:36:07Z</time>
      </trkpt>
      <trkpt lat="43.91169" lon="6.30062">
        <ele>1325.3</ele>
        <time>2019-11-01T11:36:09Z</time>
      </trkpt>
      <trkpt lat="43.91167" lon="6.30064">
        <ele>1325.5</ele>
        <time>2019-11-01T11:36:10Z</time>
      </trkpt>
      <trkpt lat="43.91163" lon="6.30066">
        <ele>1325.7</ele>
        <time>2019-11-01T11:36:13Z</time>
      </trkpt>
      <trkpt lat="43.91157" lon="6.30071">
        <ele>1327.3</ele>
        <time>2019-11-01T11:36:16Z</time>
      </trkpt>
      <trkpt lat="43.91153" lon="6.30074">
        <ele>1328.1</ele>
        <time>2019-11-01T11:36:18Z</time>
      </trkpt>
      <trkpt lat="43.9115" lon="6.30077">
        <ele>1328.1</ele>
        <time>2019-11-01T11:36:20Z</time>
      </trkpt>
      <trkpt lat="43.91146" lon="6.3008">
        <ele>1328.3</ele>
        <time>2019-11-01T11:36:22Z</time>
      </trkpt>
      <trkpt lat="43.91143" lon="6.30084">
        <ele>1328.8</ele>
        <time>2019-11-01T11:36:25Z</time>
      </trkpt>
      <trkpt lat="43.9114" lon="6.30087">
        <ele>1329.2</ele>
        <time>2019-11-01T11:36:26Z</time>
      </trkpt>
      <trkpt lat="43.91138" lon="6.30091">
        <ele>1329.7</ele>
        <time>2019-11-01T11:36:28Z</time>
      </trkpt>
      <trkpt lat="43.91136" lon="6.30096">
        <ele>1330.3</ele>
        <time>2019-11-01T11:36:30Z</time>
      </trkpt>
      <trkpt lat="43.91134" lon="6.30102">
        <ele>1330.8</ele>
        <time>2019-11-01T11:36:34Z</time>
      </trkpt>
      <trkpt lat="43.91132" lon="6.30106">
        <ele>1331</ele>
        <time>2019-11-01T11:36:35Z</time>
      </trkpt>
      <trkpt lat="43.91128" lon="6.30111">
        <ele>1331.6</ele>
        <time>2019-11-01T11:36:38Z</time>
      </trkpt>
      <trkpt lat="43.91125" lon="6.30115">
        <ele>1332.2</ele>
        <time>2019-11-01T11:36:40Z</time>
      </trkpt>
      <trkpt lat="43.91122" lon="6.30116">
        <ele>1332.5</ele>
        <time>2019-11-01T11:36:42Z</time>
      </trkpt>
      <trkpt lat="43.91117" lon="6.30117">
        <ele>1333</ele>
        <time>2019-11-01T11:36:45Z</time>
      </trkpt>
      <trkpt lat="43.91113" lon="6.30118">
        <ele>1334.2</ele>
        <time>2019-11-01T11:36:47Z</time>
      </trkpt>
      <trkpt lat="43.91109" lon="6.30119">
        <ele>1335.3</ele>
        <time>2019-11-01T11:36:48Z</time>
      </trkpt>
      <trkpt lat="43.91105" lon="6.30123">
        <ele>1336.2</ele>
        <time>2019-11-01T11:36:51Z</time>
      </trkpt>
      <trkpt lat="43.91101" lon="6.30126">
        <ele>1337.1</ele>
        <time>2019-11-01T11:36:53Z</time>
      </trkpt>
      <trkpt lat="43.91096" lon="6.30129">
        <ele>1337.9</ele>
        <time>2019-11-01T11:36:56Z</time>
      </trkpt>
      <trkpt lat="43.91092" lon="6.3013">
        <ele>1338.3</ele>
        <time>2019-11-01T11:36:58Z</time>
      </trkpt>
      <trkpt lat="43.91089" lon="6.30131">
        <ele>1339.4</ele>
        <time>2019-11-01T11:37:00Z</time>
      </trkpt>
      <trkpt lat="43.91085" lon="6.30133">
        <ele>1341.1</ele>
        <time>2019-11-01T11:37:02Z</time>
      </trkpt>
      <trkpt lat="43.91079" lon="6.30134">
        <ele>1342.6</ele>
        <time>2019-11-01T11:37:04Z</time>
      </trkpt>
      <trkpt lat="43.91074" lon="6.30134">
        <ele>1343.9</ele>
        <time>2019-11-01T11:37:07Z</time>
      </trkpt>
      <trkpt lat="43.91071" lon="6.30136">
        <ele>1344.8</ele>
        <time>2019-11-01T11:37:09Z</time>
      </trkpt>
      <trkpt lat="43.91068" lon="6.30137">
        <ele>1345.7</ele>
        <time>2019-11-01T11:37:11Z</time>
      </trkpt>
      <trkpt lat="43.91064" lon="6.30138">
        <ele>1347.1</ele>
        <time>2019-11-01T11:37:13Z</time>
      </trkpt>
      <trkpt lat="43.91061" lon="6.30138">
        <ele>1348.2</ele>
        <time>2019-11-01T11:37:14Z</time>
      </trkpt>
      <trkpt lat="43.91055" lon="6.3014">
        <ele>1349.9</ele>
        <time>2019-11-01T11:37:17Z</time>
      </trkpt>
      <trkpt lat="43.91052" lon="6.30141">
        <ele>1350.1</ele>
        <time>2019-11-01T11:37:19Z</time>
      </trkpt>
      <trkpt lat="43.91048" lon="6.30144">
        <ele>1350.3</ele>
        <time>2019-11-01T11:37:21Z</time>
      </trkpt>
      <trkpt lat="43.91046" lon="6.30146">
        <ele>1350.7</ele>
        <time>2019-11-01T11:37:22Z</time>
      </trkpt>
      <trkpt lat="43.91043" lon="6.3015">
        <ele>1351.6</ele>
        <time>2019-11-01T11:37:25Z</time>
      </trkpt>
      <trkpt lat="43.91037" lon="6.30149">
        <ele>1352.4</ele>
        <time>2019-11-01T11:37:27Z</time>
      </trkpt>
      <trkpt lat="43.91032" lon="6.30149">
        <ele>1352.7</ele>
        <time>2019-11-01T11:37:30Z</time>
      </trkpt>
      <trkpt lat="43.91028" lon="6.30151">
        <ele>1352.5</ele>
        <time>2019-11-01T11:37:33Z</time>
      </trkpt>
      <trkpt lat="43.91023" lon="6.30153">
        <ele>1352.5</ele>
        <time>2019-11-01T11:37:35Z</time>
      </trkpt>
      <trkpt lat="43.91019" lon="6.30155">
        <ele>1352.9</ele>
        <time>2019-11-01T11:37:37Z</time>
      </trkpt>
      <trkpt lat="43.91016" lon="6.30157">
        <ele>1352.8</ele>
        <time>2019-11-01T11:37:39Z</time>
      </trkpt>
      <trkpt lat="43.91012" lon="6.30159">
        <ele>1352.6</ele>
        <time>2019-11-01T11:37:41Z</time>
      </trkpt>
      <trkpt lat="43.91009" lon="6.30159">
        <ele>1352.4</ele>
        <time>2019-11-01T11:37:43Z</time>
      </trkpt>
      <trkpt lat="43.91005" lon="6.3016">
        <ele>1352.1</ele>
        <time>2019-11-01T11:37:45Z</time>
      </trkpt>
      <trkpt lat="43.91002" lon="6.30162">
        <ele>1352</ele>
        <time>2019-11-01T11:37:46Z</time>
      </trkpt>
      <trkpt lat="43.90998" lon="6.30165">
        <ele>1352.4</ele>
        <time>2019-11-01T11:37:49Z</time>
      </trkpt>
      <trkpt lat="43.90994" lon="6.30164">
        <ele>1352.5</ele>
        <time>2019-11-01T11:37:50Z</time>
      </trkpt>
      <trkpt lat="43.9099" lon="6.30163">
        <ele>1352.1</ele>
        <time>2019-11-01T11:37:53Z</time>
      </trkpt>
      <trkpt lat="43.90987" lon="6.30166">
        <ele>1351.8</ele>
        <time>2019-11-01T11:37:55Z</time>
      </trkpt>
      <trkpt lat="43.90983" lon="6.30171">
        <ele>1351.8</ele>
        <time>2019-11-01T11:37:58Z</time>
      </trkpt>
      <trkpt lat="43.9098" lon="6.30174">
        <ele>1351.7</ele>
        <time>2019-11-01T11:37:59Z</time>
      </trkpt>
      <trkpt lat="43.90978" lon="6.30178">
        <ele>1351.7</ele>
        <time>2019-11-01T11:38:01Z</time>
      </trkpt>
      <trkpt lat="43.90976" lon="6.30181">
        <ele>1351.6</ele>
        <time>2019-11-01T11:38:03Z</time>
      </trkpt>
      <trkpt lat="43.90973" lon="6.30189">
        <ele>1352</ele>
        <time>2019-11-01T11:38:06Z</time>
      </trkpt>
      <trkpt lat="43.90972" lon="6.30193">
        <ele>1352</ele>
        <time>2019-11-01T11:38:07Z</time>
      </trkpt>
      <trkpt lat="43.90969" lon="6.30198">
        <ele>1351.4</ele>
        <time>2019-11-01T11:38:10Z</time>
      </trkpt>
      <trkpt lat="43.90967" lon="6.30201">
        <ele>1351.1</ele>
        <time>2019-11-01T11:38:12Z</time>
      </trkpt>
      <trkpt lat="43.90965" lon="6.30204">
        <ele>1351.3</ele>
        <time>2019-11-01T11:38:13Z</time>
      </trkpt>
      <trkpt lat="43.90963" lon="6.30209">
        <ele>1351.7</ele>
        <time>2019-11-01T11:38:15Z</time>
      </trkpt>
      <trkpt lat="43.90959" lon="6.30211">
        <ele>1351.4</ele>
        <time>2019-11-01T11:38:17Z</time>
      </trkpt>
      <trkpt lat="43.90958" lon="6.30214">
        <ele>1351.2</ele>
        <time>2019-11-01T11:38:19Z</time>
      </trkpt>
      <trkpt lat="43.90957" lon="6.30219">
        <ele>1351.4</ele>
        <time>2019-11-01T11:38:20Z</time>
      </trkpt>
      <trkpt lat="43.90954" lon="6.30224">
        <ele>1351.9</ele>
        <time>2019-11-01T11:38:23Z</time>
      </trkpt>
      <trkpt lat="43.90953" lon="6.30229">
        <ele>1352.4</ele>
        <time>2019-11-01T11:38:25Z</time>
      </trkpt>
      <trkpt lat="43.90951" lon="6.30234">
        <ele>1353</ele>
        <time>2019-11-01T11:38:27Z</time>
      </trkpt>
      <trkpt lat="43.90949" lon="6.30238">
        <ele>1353.2</ele>
        <time>2019-11-01T11:38:28Z</time>
      </trkpt>
      <trkpt lat="43.90947" lon="6.30245">
        <ele>1353.4</ele>
        <time>2019-11-01T11:38:31Z</time>
      </trkpt>
      <trkpt lat="43.90947" lon="6.30249">
        <ele>1353.6</ele>
        <time>2019-11-01T11:38:33Z</time>
      </trkpt>
      <trkpt lat="43.90945" lon="6.30253">
        <ele>1353.9</ele>
        <time>2019-11-01T11:38:34Z</time>
      </trkpt>
      <trkpt lat="43.90942" lon="6.3026">
        <ele>1354.3</ele>
        <time>2019-11-01T11:38:37Z</time>
      </trkpt>
      <trkpt lat="43.9094" lon="6.30266">
        <ele>1354.3</ele>
        <time>2019-11-01T11:38:39Z</time>
      </trkpt>
      <trkpt lat="43.90937" lon="6.30271">
        <ele>1354.2</ele>
        <time>2019-11-01T11:38:42Z</time>
      </trkpt>
      <trkpt lat="43.90935" lon="6.30275">
        <ele>1354.1</ele>
        <time>2019-11-01T11:38:44Z</time>
      </trkpt>
      <trkpt lat="43.90933" lon="6.30278">
        <ele>1354.1</ele>
        <time>2019-11-01T11:38:45Z</time>
      </trkpt>
      <trkpt lat="43.90931" lon="6.30284">
        <ele>1354.2</ele>
        <time>2019-11-01T11:38:48Z</time>
      </trkpt>
      <trkpt lat="43.90928" lon="6.30288">
        <ele>1354.1</ele>
        <time>2019-11-01T11:38:50Z</time>
      </trkpt>
      <trkpt lat="43.90925" lon="6.30291">
        <ele>1354</ele>
        <time>2019-11-01T11:38:51Z</time>
      </trkpt>
      <trkpt lat="43.90919" lon="6.30294">
        <ele>1354.1</ele>
        <time>2019-11-01T11:38:54Z</time>
      </trkpt>
      <trkpt lat="43.90917" lon="6.30296">
        <ele>1354.3</ele>
        <time>2019-11-01T11:38:56Z</time>
      </trkpt>
      <trkpt lat="43.90912" lon="6.30299">
        <ele>1354.3</ele>
        <time>2019-11-01T11:38:58Z</time>
      </trkpt>
      <trkpt lat="43.90909" lon="6.30301">
        <ele>1354.3</ele>
        <time>2019-11-01T11:39:00Z</time>
      </trkpt>
      <trkpt lat="43.90906" lon="6.30303">
        <ele>1354.3</ele>
        <time>2019-11-01T11:39:02Z</time>
      </trkpt>
      <trkpt lat="43.909" lon="6.30305">
        <ele>1354.3</ele>
        <time>2019-11-01T11:39:05Z</time>
      </trkpt>
      <trkpt lat="43.90897" lon="6.30306">
        <ele>1354.5</ele>
        <time>2019-11-01T11:39:06Z</time>
      </trkpt>
      <trkpt lat="43.90893" lon="6.30309">
        <ele>1354.8</ele>
        <time>2019-11-01T11:39:09Z</time>
      </trkpt>
      <trkpt lat="43.9089" lon="6.30313">
        <ele>1355.1</ele>
        <time>2019-11-01T11:39:10Z</time>
      </trkpt>
      <trkpt lat="43.90886" lon="6.30319">
        <ele>1355.3</ele>
        <time>2019-11-01T11:39:13Z</time>
      </trkpt>
      <trkpt lat="43.90883" lon="6.3032">
        <ele>1356</ele>
        <time>2019-11-01T11:39:15Z</time>
      </trkpt>
      <trkpt lat="43.90877" lon="6.30321">
        <ele>1357.1</ele>
        <time>2019-11-01T11:39:18Z</time>
      </trkpt>
      <trkpt lat="43.90874" lon="6.30322">
        <ele>1357.6</ele>
        <time>2019-11-01T11:39:20Z</time>
      </trkpt>
      <trkpt lat="43.90872" lon="6.30326">
        <ele>1358.2</ele>
        <time>2019-11-01T11:39:22Z</time>
      </trkpt>
      <trkpt lat="43.9087" lon="6.3033">
        <ele>1358.7</ele>
        <time>2019-11-01T11:39:23Z</time>
      </trkpt>
      <trkpt lat="43.90867" lon="6.30336">
        <ele>1359.5</ele>
        <time>2019-11-01T11:39:26Z</time>
      </trkpt>
      <trkpt lat="43.90864" lon="6.3034">
        <ele>1360</ele>
        <time>2019-11-01T11:39:28Z</time>
      </trkpt>
      <trkpt lat="43.90859" lon="6.30345">
        <ele>1360.5</ele>
        <time>2019-11-01T11:39:31Z</time>
      </trkpt>
      <trkpt lat="43.90856" lon="6.30349">
        <ele>1361.8</ele>
        <time>2019-11-01T11:39:32Z</time>
      </trkpt>
      <trkpt lat="43.90855" lon="6.30352">
        <ele>1362.8</ele>
        <time>2019-11-01T11:39:33Z</time>
      </trkpt>
      <trkpt lat="43.90851" lon="6.30358">
        <ele>1363.3</ele>
        <time>2019-11-01T11:39:37Z</time>
      </trkpt>
      <trkpt lat="43.90848" lon="6.3036">
        <ele>1363.3</ele>
        <time>2019-11-01T11:39:38Z</time>
      </trkpt>
      <trkpt lat="43.90846" lon="6.30364">
        <ele>1363.4</ele>
        <time>2019-11-01T11:39:40Z</time>
      </trkpt>
      <trkpt lat="43.90843" lon="6.30367">
        <ele>1363.4</ele>
        <time>2019-11-01T11:39:42Z</time>
      </trkpt>
      <trkpt lat="43.9084" lon="6.3037">
        <ele>1363.6</ele>
        <time>2019-11-01T11:39:44Z</time>
      </trkpt>
      <trkpt lat="43.90835" lon="6.30374">
        <ele>1364.1</ele>
        <time>2019-11-01T11:39:46Z</time>
      </trkpt>
      <trkpt lat="43.90831" lon="6.30375">
        <ele>1365</ele>
        <time>2019-11-01T11:39:49Z</time>
      </trkpt>
      <trkpt lat="43.90827" lon="6.30377">
        <ele>1365.7</ele>
        <time>2019-11-01T11:39:50Z</time>
      </trkpt>
      <trkpt lat="43.90822" lon="6.30379">
        <ele>1366.9</ele>
        <time>2019-11-01T11:39:53Z</time>
      </trkpt>
      <trkpt lat="43.9082" lon="6.30382">
        <ele>1367.2</ele>
        <time>2019-11-01T11:39:55Z</time>
      </trkpt>
      <trkpt lat="43.90816" lon="6.30386">
        <ele>1367.4</ele>
        <time>2019-11-01T11:39:57Z</time>
      </trkpt>
      <trkpt lat="43.90814" lon="6.30388">
        <ele>1367.9</ele>
        <time>2019-11-01T11:39:58Z</time>
      </trkpt>
      <trkpt lat="43.90811" lon="6.30392">
        <ele>1368.8</ele>
        <time>2019-11-01T11:40:01Z</time>
      </trkpt>
      <trkpt lat="43.90806" lon="6.30396">
        <ele>1370.1</ele>
        <time>2019-11-01T11:40:03Z</time>
      </trkpt>
      <trkpt lat="43.90804" lon="6.30399">
        <ele>1371</ele>
        <time>2019-11-01T11:40:05Z</time>
      </trkpt>
      <trkpt lat="43.90802" lon="6.30404">
        <ele>1372.1</ele>
        <time>2019-11-01T11:40:07Z</time>
      </trkpt>
      <trkpt lat="43.908" lon="6.30407">
        <ele>1372.7</ele>
        <time>2019-11-01T11:40:08Z</time>
      </trkpt>
      <trkpt lat="43.90797" lon="6.30413">
        <ele>1373.7</ele>
        <time>2019-11-01T11:40:11Z</time>
      </trkpt>
      <trkpt lat="43.90794" lon="6.30417">
        <ele>1374.4</ele>
        <time>2019-11-01T11:40:14Z</time>
      </trkpt>
      <trkpt lat="43.90793" lon="6.30421">
        <ele>1375</ele>
        <time>2019-11-01T11:40:15Z</time>
      </trkpt>
      <trkpt lat="43.9079" lon="6.30427">
        <ele>1376.2</ele>
        <time>2019-11-01T11:40:19Z</time>
      </trkpt>
      <trkpt lat="43.90788" lon="6.30432">
        <ele>1377.2</ele>
        <time>2019-11-01T11:40:21Z</time>
      </trkpt>
      <trkpt lat="43.90786" lon="6.30436">
        <ele>1377.6</ele>
        <time>2019-11-01T11:40:22Z</time>
      </trkpt>
      <trkpt lat="43.90784" lon="6.30438">
        <ele>1378</ele>
        <time>2019-11-01T11:40:24Z</time>
      </trkpt>
      <trkpt lat="43.9078" lon="6.30442">
        <ele>1378.5</ele>
        <time>2019-11-01T11:40:26Z</time>
      </trkpt>
      <trkpt lat="43.90778" lon="6.30445">
        <ele>1379</ele>
        <time>2019-11-01T11:40:28Z</time>
      </trkpt>
      <trkpt lat="43.90773" lon="6.30449">
        <ele>1379.9</ele>
        <time>2019-11-01T11:40:31Z</time>
      </trkpt>
      <trkpt lat="43.9077" lon="6.30454">
        <ele>1381</ele>
        <time>2019-11-01T11:40:33Z</time>
      </trkpt>
      <trkpt lat="43.90766" lon="6.30458">
        <ele>1382.4</ele>
        <time>2019-11-01T11:40:36Z</time>
      </trkpt>
      <trkpt lat="43.90763" lon="6.30461">
        <ele>1383.7</ele>
        <time>2019-11-01T11:40:38Z</time>
      </trkpt>
      <trkpt lat="43.90759" lon="6.30467">
        <ele>1385.3</ele>
        <time>2019-11-01T11:40:41Z</time>
      </trkpt>
      <trkpt lat="43.90755" lon="6.30473">
        <ele>1387.4</ele>
        <time>2019-11-01T11:40:43Z</time>
      </trkpt>
      <trkpt lat="43.90751" lon="6.30476">
        <ele>1388.8</ele>
        <time>2019-11-01T11:40:45Z</time>
      </trkpt>
      <trkpt lat="43.90748" lon="6.30481">
        <ele>1390</ele>
        <time>2019-11-01T11:40:48Z</time>
      </trkpt>
      <trkpt lat="43.90747" lon="6.30484">
        <ele>1390.6</ele>
        <time>2019-11-01T11:40:49Z</time>
      </trkpt>
      <trkpt lat="43.90744" lon="6.30488">
        <ele>1391.3</ele>
        <time>2019-11-01T11:40:52Z</time>
      </trkpt>
      <trkpt lat="43.90742" lon="6.30491">
        <ele>1391.6</ele>
        <time>2019-11-01T11:40:53Z</time>
      </trkpt>
      <trkpt lat="43.9074" lon="6.30494">
        <ele>1391.5</ele>
        <time>2019-11-01T11:40:55Z</time>
      </trkpt>
      <trkpt lat="43.90737" lon="6.30498">
        <ele>1391.3</ele>
        <time>2019-11-01T11:40:58Z</time>
      </trkpt>
      <trkpt lat="43.90733" lon="6.30501">
        <ele>1391.1</ele>
        <time>2019-11-01T11:41:00Z</time>
      </trkpt>
      <trkpt lat="43.90731" lon="6.30504">
        <ele>1391</ele>
        <time>2019-11-01T11:41:01Z</time>
      </trkpt>
      <trkpt lat="43.90728" lon="6.30509">
        <ele>1390.4</ele>
        <time>2019-11-01T11:41:04Z</time>
      </trkpt>
      <trkpt lat="43.90723" lon="6.30511">
        <ele>1389.7</ele>
        <time>2019-11-01T11:41:06Z</time>
      </trkpt>
      <trkpt lat="43.9072" lon="6.30513">
        <ele>1390.2</ele>
        <time>2019-11-01T11:41:08Z</time>
      </trkpt>
      <trkpt lat="43.90715" lon="6.30514">
        <ele>1390.9</ele>
        <time>2019-11-01T11:41:10Z</time>
      </trkpt>
      <trkpt lat="43.90712" lon="6.30512">
        <ele>1391.3</ele>
        <time>2019-11-01T11:41:12Z</time>
      </trkpt>
      <trkpt lat="43.90707" lon="6.30515">
        <ele>1391.7</ele>
        <time>2019-11-01T11:41:15Z</time>
      </trkpt>
      <trkpt lat="43.90704" lon="6.30515">
        <ele>1391.9</ele>
        <time>2019-11-01T11:41:16Z</time>
      </trkpt>
      <trkpt lat="43.907" lon="6.30518">
        <ele>1392.3</ele>
        <time>2019-11-01T11:41:19Z</time>
      </trkpt>
      <trkpt lat="43.90698" lon="6.3052">
        <ele>1392.7</ele>
        <time>2019-11-01T11:41:21Z</time>
      </trkpt>
      <trkpt lat="43.90694" lon="6.30526">
        <ele>1393.5</ele>
        <time>2019-11-01T11:41:23Z</time>
      </trkpt>
      <trkpt lat="43.90692" lon="6.30531">
        <ele>1393.6</ele>
        <time>2019-11-01T11:41:25Z</time>
      </trkpt>
      <trkpt lat="43.90691" lon="6.30537">
        <ele>1393.8</ele>
        <time>2019-11-01T11:41:27Z</time>
      </trkpt>
      <trkpt lat="43.90691" lon="6.30545">
        <ele>1394.7</ele>
        <time>2019-11-01T11:41:30Z</time>
      </trkpt>
      <trkpt lat="43.9069" lon="6.30549">
        <ele>1395.1</ele>
        <time>2019-11-01T11:41:32Z</time>
      </trkpt>
      <trkpt lat="43.90687" lon="6.30553">
        <ele>1395.5</ele>
        <time>2019-11-01T11:41:34Z</time>
      </trkpt>
      <trkpt lat="43.90684" lon="6.30556">
        <ele>1395.8</ele>
        <time>2019-11-01T11:41:36Z</time>
      </trkpt>
      <trkpt lat="43.90681" lon="6.3056">
        <ele>1396.1</ele>
        <time>2019-11-01T11:41:38Z</time>
      </trkpt>
      <trkpt lat="43.90678" lon="6.30565">
        <ele>1396.2</ele>
        <time>2019-11-01T11:41:40Z</time>
      </trkpt>
      <trkpt lat="43.90676" lon="6.30568">
        <ele>1395.8</ele>
        <time>2019-11-01T11:41:42Z</time>
      </trkpt>
      <trkpt lat="43.90673" lon="6.30571">
        <ele>1395.3</ele>
        <time>2019-11-01T11:41:44Z</time>
      </trkpt>
      <trkpt lat="43.9067" lon="6.30573">
        <ele>1395.4</ele>
        <time>2019-11-01T11:41:45Z</time>
      </trkpt>
      <trkpt lat="43.90667" lon="6.30578">
        <ele>1395.5</ele>
        <time>2019-11-01T11:41:48Z</time>
      </trkpt>
      <trkpt lat="43.90664" lon="6.30582">
        <ele>1395.3</ele>
        <time>2019-11-01T11:41:51Z</time>
      </trkpt>
      <trkpt lat="43.90661" lon="6.30585">
        <ele>1395.1</ele>
        <time>2019-11-01T11:41:53Z</time>
      </trkpt>
      <trkpt lat="43.90658" lon="6.30587">
        <ele>1394.5</ele>
        <time>2019-11-01T11:41:54Z</time>
      </trkpt>
      <trkpt lat="43.90654" lon="6.3059">
        <ele>1393.9</ele>
        <time>2019-11-01T11:41:57Z</time>
      </trkpt>
      <trkpt lat="43.90652" lon="6.30592">
        <ele>1393.8</ele>
        <time>2019-11-01T11:41:58Z</time>
      </trkpt>
      <trkpt lat="43.90648" lon="6.30596">
        <ele>1393.6</ele>
        <time>2019-11-01T11:42:01Z</time>
      </trkpt>
      <trkpt lat="43.90645" lon="6.30601">
        <ele>1393.6</ele>
        <time>2019-11-01T11:42:03Z</time>
      </trkpt>
      <trkpt lat="43.90643" lon="6.30603">
        <ele>1393.5</ele>
        <time>2019-11-01T11:42:05Z</time>
      </trkpt>
      <trkpt lat="43.90639" lon="6.30608">
        <ele>1393.4</ele>
        <time>2019-11-01T11:42:08Z</time>
      </trkpt>
      <trkpt lat="43.90637" lon="6.30612">
        <ele>1393.5</ele>
        <time>2019-11-01T11:42:10Z</time>
      </trkpt>
      <trkpt lat="43.90635" lon="6.30617">
        <ele>1394.6</ele>
        <time>2019-11-01T11:42:13Z</time>
      </trkpt>
      <trkpt lat="43.90634" lon="6.30622">
        <ele>1395.5</ele>
        <time>2019-11-01T11:42:14Z</time>
      </trkpt>
      <trkpt lat="43.90632" lon="6.30626">
        <ele>1396.2</ele>
        <time>2019-11-01T11:42:16Z</time>
      </trkpt>
      <trkpt lat="43.90629" lon="6.30631">
        <ele>1396.9</ele>
        <time>2019-11-01T11:42:18Z</time>
      </trkpt>
      <trkpt lat="43.90626" lon="6.30635">
        <ele>1397.4</ele>
        <time>2019-11-01T11:42:21Z</time>
      </trkpt>
      <trkpt lat="43.90623" lon="6.3064">
        <ele>1398.4</ele>
        <time>2019-11-01T11:42:23Z</time>
      </trkpt>
      <trkpt lat="43.90621" lon="6.30643">
        <ele>1399.1</ele>
        <time>2019-11-01T11:42:25Z</time>
      </trkpt>
      <trkpt lat="43.90619" lon="6.3065">
        <ele>1400.3</ele>
        <time>2019-11-01T11:42:27Z</time>
      </trkpt>
      <trkpt lat="43.90618" lon="6.30657">
        <ele>1402</ele>
        <time>2019-11-01T11:42:30Z</time>
      </trkpt>
      <trkpt lat="43.90617" lon="6.30663">
        <ele>1403.4</ele>
        <time>2019-11-01T11:42:32Z</time>
      </trkpt>
      <trkpt lat="43.90616" lon="6.30668">
        <ele>1404.3</ele>
        <time>2019-11-01T11:42:34Z</time>
      </trkpt>
      <trkpt lat="43.90615" lon="6.30673">
        <ele>1405.1</ele>
        <time>2019-11-01T11:42:35Z</time>
      </trkpt>
      <trkpt lat="43.90612" lon="6.30678">
        <ele>1406.1</ele>
        <time>2019-11-01T11:42:38Z</time>
      </trkpt>
      <trkpt lat="43.90609" lon="6.30682">
        <ele>1407.6</ele>
        <time>2019-11-01T11:42:39Z</time>
      </trkpt>
      <trkpt lat="43.90606" lon="6.30684">
        <ele>1409.1</ele>
        <time>2019-11-01T11:42:41Z</time>
      </trkpt>
      <trkpt lat="43.90604" lon="6.30687">
        <ele>1409.4</ele>
        <time>2019-11-01T11:42:43Z</time>
      </trkpt>
      <trkpt lat="43.90601" lon="6.30689">
        <ele>1409.7</ele>
        <time>2019-11-01T11:42:44Z</time>
      </trkpt>
      <trkpt lat="43.90598" lon="6.30692">
        <ele>1410.1</ele>
        <time>2019-11-01T11:42:46Z</time>
      </trkpt>
      <trkpt lat="43.90596" lon="6.30694">
        <ele>1410.7</ele>
        <time>2019-11-01T11:42:47Z</time>
      </trkpt>
      <trkpt lat="43.9059" lon="6.30697">
        <ele>1411.6</ele>
        <time>2019-11-01T11:42:51Z</time>
      </trkpt>
      <trkpt lat="43.90586" lon="6.30701">
        <ele>1412.2</ele>
        <time>2019-11-01T11:42:54Z</time>
      </trkpt>
      <trkpt lat="43.90583" lon="6.30702">
        <ele>1412.5</ele>
        <time>2019-11-01T11:42:55Z</time>
      </trkpt>
      <trkpt lat="43.9058" lon="6.30704">
        <ele>1412.7</ele>
        <time>2019-11-01T11:42:57Z</time>
      </trkpt>
      <trkpt lat="43.90576" lon="6.30706">
        <ele>1413.2</ele>
        <time>2019-11-01T11:42:59Z</time>
      </trkpt>
      <trkpt lat="43.90571" lon="6.3071">
        <ele>1413.7</ele>
        <time>2019-11-01T11:43:02Z</time>
      </trkpt>
      <trkpt lat="43.90567" lon="6.30711">
        <ele>1413.6</ele>
        <time>2019-11-01T11:43:04Z</time>
      </trkpt>
      <trkpt lat="43.90563" lon="6.30713">
        <ele>1413.4</ele>
        <time>2019-11-01T11:43:06Z</time>
      </trkpt>
      <trkpt lat="43.9056" lon="6.30714">
        <ele>1413.3</ele>
        <time>2019-11-01T11:43:08Z</time>
      </trkpt>
      <trkpt lat="43.90557" lon="6.30717">
        <ele>1413.1</ele>
        <time>2019-11-01T11:43:10Z</time>
      </trkpt>
      <trkpt lat="43.90555" lon="6.3072">
        <ele>1413</ele>
        <time>2019-11-01T11:43:11Z</time>
      </trkpt>
      <trkpt lat="43.90553" lon="6.30722">
        <ele>1412.9</ele>
        <time>2019-11-01T11:43:12Z</time>
      </trkpt>
      <trkpt lat="43.90549" lon="6.30728">
        <ele>1412.6</ele>
        <time>2019-11-01T11:43:15Z</time>
      </trkpt>
      <trkpt lat="43.90546" lon="6.30733">
        <ele>1412.6</ele>
        <time>2019-11-01T11:43:17Z</time>
      </trkpt>
      <trkpt lat="43.90543" lon="6.30737">
        <ele>1412.9</ele>
        <time>2019-11-01T11:43:20Z</time>
      </trkpt>
      <trkpt lat="43.90541" lon="6.3074">
        <ele>1412.9</ele>
        <time>2019-11-01T11:43:21Z</time>
      </trkpt>
      <trkpt lat="43.90539" lon="6.30743">
        <ele>1412.7</ele>
        <time>2019-11-01T11:43:23Z</time>
      </trkpt>
      <trkpt lat="43.90537" lon="6.30748">
        <ele>1412.8</ele>
        <time>2019-11-01T11:43:25Z</time>
      </trkpt>
      <trkpt lat="43.90535" lon="6.30751">
        <ele>1413.4</ele>
        <time>2019-11-01T11:43:27Z</time>
      </trkpt>
      <trkpt lat="43.90533" lon="6.30754">
        <ele>1413.8</ele>
        <time>2019-11-01T11:43:28Z</time>
      </trkpt>
      <trkpt lat="43.90531" lon="6.30759">
        <ele>1412.7</ele>
        <time>2019-11-01T11:43:31Z</time>
      </trkpt>
      <trkpt lat="43.90529" lon="6.30764">
        <ele>1411.7</ele>
        <time>2019-11-01T11:43:33Z</time>
      </trkpt>
      <trkpt lat="43.90529" lon="6.30771">
        <ele>1411.4</ele>
        <time>2019-11-01T11:43:35Z</time>
      </trkpt>
      <trkpt lat="43.90529" lon="6.30775">
        <ele>1411.2</ele>
        <time>2019-11-01T11:43:36Z</time>
      </trkpt>
      <trkpt lat="43.90526" lon="6.30782">
        <ele>1410.7</ele>
        <time>2019-11-01T11:43:39Z</time>
      </trkpt>
      <trkpt lat="43.90523" lon="6.30787">
        <ele>1410.1</ele>
        <time>2019-11-01T11:43:42Z</time>
      </trkpt>
      <trkpt lat="43.90519" lon="6.3079">
        <ele>1409.6</ele>
        <time>2019-11-01T11:43:44Z</time>
      </trkpt>
      <trkpt lat="43.90516" lon="6.30793">
        <ele>1409.3</ele>
        <time>2019-11-01T11:43:46Z</time>
      </trkpt>
      <trkpt lat="43.90514" lon="6.30799">
        <ele>1408.9</ele>
        <time>2019-11-01T11:43:48Z</time>
      </trkpt>
      <trkpt lat="43.90511" lon="6.30804">
        <ele>1408.6</ele>
        <time>2019-11-01T11:43:51Z</time>
      </trkpt>
      <trkpt lat="43.90509" lon="6.30807">
        <ele>1408.4</ele>
        <time>2019-11-01T11:43:52Z</time>
      </trkpt>
      <trkpt lat="43.90506" lon="6.30812">
        <ele>1408.7</ele>
        <time>2019-11-01T11:43:55Z</time>
      </trkpt>
      <trkpt lat="43.90504" lon="6.30817">
        <ele>1408.9</ele>
        <time>2019-11-01T11:43:57Z</time>
      </trkpt>
      <trkpt lat="43.90502" lon="6.30823">
        <ele>1408.7</ele>
        <time>2019-11-01T11:43:59Z</time>
      </trkpt>
      <trkpt lat="43.905" lon="6.30828">
        <ele>1408.5</ele>
        <time>2019-11-01T11:44:02Z</time>
      </trkpt>
      <trkpt lat="43.90499" lon="6.30833">
        <ele>1409.1</ele>
        <time>2019-11-01T11:44:04Z</time>
      </trkpt>
      <trkpt lat="43.90498" lon="6.30839">
        <ele>1409.7</ele>
        <time>2019-11-01T11:44:06Z</time>
      </trkpt>
      <trkpt lat="43.90497" lon="6.30843">
        <ele>1409.6</ele>
        <time>2019-11-01T11:44:08Z</time>
      </trkpt>
      <trkpt lat="43.90495" lon="6.3085">
        <ele>1409.6</ele>
        <time>2019-11-01T11:44:10Z</time>
      </trkpt>
      <trkpt lat="43.90493" lon="6.30854">
        <ele>1410.1</ele>
        <time>2019-11-01T11:44:13Z</time>
      </trkpt>
      <trkpt lat="43.90492" lon="6.30859">
        <ele>1410.5</ele>
        <time>2019-11-01T11:44:14Z</time>
      </trkpt>
      <trkpt lat="43.9049" lon="6.30864">
        <ele>1411.1</ele>
        <time>2019-11-01T11:44:17Z</time>
      </trkpt>
      <trkpt lat="43.90488" lon="6.30868">
        <ele>1411.5</ele>
        <time>2019-11-01T11:44:19Z</time>
      </trkpt>
      <trkpt lat="43.90486" lon="6.30873">
        <ele>1412.3</ele>
        <time>2019-11-01T11:44:21Z</time>
      </trkpt>
      <trkpt lat="43.90484" lon="6.30876">
        <ele>1412.9</ele>
        <time>2019-11-01T11:44:22Z</time>
      </trkpt>
      <trkpt lat="43.90481" lon="6.3088">
        <ele>1413.5</ele>
        <time>2019-11-01T11:44:25Z</time>
      </trkpt>
      <trkpt lat="43.9048" lon="6.30885">
        <ele>1413.7</ele>
        <time>2019-11-01T11:44:27Z</time>
      </trkpt>
      <trkpt lat="43.90476" lon="6.30889">
        <ele>1414.3</ele>
        <time>2019-11-01T11:44:30Z</time>
      </trkpt>
      <trkpt lat="43.90472" lon="6.30894">
        <ele>1415.4</ele>
        <time>2019-11-01T11:44:32Z</time>
      </trkpt>
      <trkpt lat="43.90471" lon="6.309">
        <ele>1416.4</ele>
        <time>2019-11-01T11:44:35Z</time>
      </trkpt>
      <trkpt lat="43.90468" lon="6.30902">
        <ele>1417.2</ele>
        <time>2019-11-01T11:44:36Z</time>
      </trkpt>
      <trkpt lat="43.90464" lon="6.30905">
        <ele>1417.7</ele>
        <time>2019-11-01T11:44:39Z</time>
      </trkpt>
      <trkpt lat="43.90461" lon="6.30911">
        <ele>1418.1</ele>
        <time>2019-11-01T11:44:41Z</time>
      </trkpt>
      <trkpt lat="43.90459" lon="6.30916">
        <ele>1418.4</ele>
        <time>2019-11-01T11:44:44Z</time>
      </trkpt>
      <trkpt lat="43.90458" lon="6.30921">
        <ele>1418.9</ele>
        <time>2019-11-01T11:44:45Z</time>
      </trkpt>
      <trkpt lat="43.90455" lon="6.30925">
        <ele>1420.2</ele>
        <time>2019-11-01T11:44:48Z</time>
      </trkpt>
      <trkpt lat="43.90451" lon="6.30929">
        <ele>1421.2</ele>
        <time>2019-11-01T11:44:50Z</time>
      </trkpt>
      <trkpt lat="43.90448" lon="6.30933">
        <ele>1421.6</ele>
        <time>2019-11-01T11:44:52Z</time>
      </trkpt>
      <trkpt lat="43.90445" lon="6.30936">
        <ele>1422.6</ele>
        <time>2019-11-01T11:44:55Z</time>
      </trkpt>
      <trkpt lat="43.90442" lon="6.3094">
        <ele>1423.6</ele>
        <time>2019-11-01T11:44:56Z</time>
      </trkpt>
      <trkpt lat="43.90439" lon="6.30946">
        <ele>1424.2</ele>
        <time>2019-11-01T11:44:58Z</time>
      </trkpt>
      <trkpt lat="43.90436" lon="6.30951">
        <ele>1425</ele>
        <time>2019-11-01T11:45:01Z</time>
      </trkpt>
      <trkpt lat="43.90434" lon="6.30956">
        <ele>1426.1</ele>
        <time>2019-11-01T11:45:04Z</time>
      </trkpt>
      <trkpt lat="43.90432" lon="6.3096">
        <ele>1427</ele>
        <time>2019-11-01T11:45:05Z</time>
      </trkpt>
      <trkpt lat="43.90429" lon="6.30966">
        <ele>1428.3</ele>
        <time>2019-11-01T11:45:08Z</time>
      </trkpt>
      <trkpt lat="43.90427" lon="6.30971">
        <ele>1428.9</ele>
        <time>2019-11-01T11:45:10Z</time>
      </trkpt>
      <trkpt lat="43.90425" lon="6.30976">
        <ele>1429.6</ele>
        <time>2019-11-01T11:45:12Z</time>
      </trkpt>
      <trkpt lat="43.90423" lon="6.30979">
        <ele>1430.3</ele>
        <time>2019-11-01T11:45:14Z</time>
      </trkpt>
      <trkpt lat="43.90421" lon="6.30983">
        <ele>1431.2</ele>
        <time>2019-11-01T11:45:16Z</time>
      </trkpt>
      <trkpt lat="43.90419" lon="6.30986">
        <ele>1432</ele>
        <time>2019-11-01T11:45:18Z</time>
      </trkpt>
      <trkpt lat="43.90415" lon="6.3099">
        <ele>1433.5</ele>
        <time>2019-11-01T11:45:20Z</time>
      </trkpt>
      <trkpt lat="43.90411" lon="6.30995">
        <ele>1434.6</ele>
        <time>2019-11-01T11:45:23Z</time>
      </trkpt>
      <trkpt lat="43.90408" lon="6.31">
        <ele>1435.8</ele>
        <time>2019-11-01T11:45:25Z</time>
      </trkpt>
      <trkpt lat="43.90406" lon="6.31003">
        <ele>1436.9</ele>
        <time>2019-11-01T11:45:27Z</time>
      </trkpt>
      <trkpt lat="43.90402" lon="6.31008">
        <ele>1438.4</ele>
        <time>2019-11-01T11:45:30Z</time>
      </trkpt>
      <trkpt lat="43.90399" lon="6.31012">
        <ele>1439.4</ele>
        <time>2019-11-01T11:45:32Z</time>
      </trkpt>
      <trkpt lat="43.90395" lon="6.31017">
        <ele>1440.3</ele>
        <time>2019-11-01T11:45:35Z</time>
      </trkpt>
      <trkpt lat="43.90392" lon="6.31021">
        <ele>1440.9</ele>
        <time>2019-11-01T11:45:37Z</time>
      </trkpt>
      <trkpt lat="43.9039" lon="6.31024">
        <ele>1441.2</ele>
        <time>2019-11-01T11:45:38Z</time>
      </trkpt>
      <trkpt lat="43.90387" lon="6.31026">
        <ele>1441.1</ele>
        <time>2019-11-01T11:45:40Z</time>
      </trkpt>
      <trkpt lat="43.90384" lon="6.3103">
        <ele>1441</ele>
        <time>2019-11-01T11:45:42Z</time>
      </trkpt>
      <trkpt lat="43.90381" lon="6.31035">
        <ele>1440.6</ele>
        <time>2019-11-01T11:45:45Z</time>
      </trkpt>
      <trkpt lat="43.90377" lon="6.31038">
        <ele>1440.2</ele>
        <time>2019-11-01T11:45:47Z</time>
      </trkpt>
      <trkpt lat="43.90374" lon="6.3104">
        <ele>1439.9</ele>
        <time>2019-11-01T11:45:50Z</time>
      </trkpt>
      <trkpt lat="43.9037" lon="6.31045">
        <ele>1439.5</ele>
        <time>2019-11-01T11:45:52Z</time>
      </trkpt>
      <trkpt lat="43.90367" lon="6.31047">
        <ele>1439.1</ele>
        <time>2019-11-01T11:45:54Z</time>
      </trkpt>
      <trkpt lat="43.90363" lon="6.31049">
        <ele>1438.4</ele>
        <time>2019-11-01T11:45:57Z</time>
      </trkpt>
      <trkpt lat="43.9036" lon="6.31051">
        <ele>1438.1</ele>
        <time>2019-11-01T11:45:58Z</time>
      </trkpt>
      <trkpt lat="43.90357" lon="6.31054">
        <ele>1437.8</ele>
        <time>2019-11-01T11:46:00Z</time>
      </trkpt>
      <trkpt lat="43.90354" lon="6.31058">
        <ele>1437.8</ele>
        <time>2019-11-01T11:46:02Z</time>
      </trkpt>
      <trkpt lat="43.9035" lon="6.31063">
        <ele>1438.6</ele>
        <time>2019-11-01T11:46:05Z</time>
      </trkpt>
      <trkpt lat="43.90348" lon="6.3107">
        <ele>1438.4</ele>
        <time>2019-11-01T11:46:08Z</time>
      </trkpt>
      <trkpt lat="43.90346" lon="6.31077">
        <ele>1438</ele>
        <time>2019-11-01T11:46:10Z</time>
      </trkpt>
      <trkpt lat="43.90345" lon="6.3108">
        <ele>1437.8</ele>
        <time>2019-11-01T11:46:12Z</time>
      </trkpt>
      <trkpt lat="43.90344" lon="6.31088">
        <ele>1437.6</ele>
        <time>2019-11-01T11:46:14Z</time>
      </trkpt>
      <trkpt lat="43.90343" lon="6.31092">
        <ele>1437.4</ele>
        <time>2019-11-01T11:46:16Z</time>
      </trkpt>
      <trkpt lat="43.90342" lon="6.31099">
        <ele>1437.1</ele>
        <time>2019-11-01T11:46:19Z</time>
      </trkpt>
      <trkpt lat="43.90341" lon="6.31104">
        <ele>1436.7</ele>
        <time>2019-11-01T11:46:21Z</time>
      </trkpt>
      <trkpt lat="43.9034" lon="6.31108">
        <ele>1436.3</ele>
        <time>2019-11-01T11:46:22Z</time>
      </trkpt>
      <trkpt lat="43.90338" lon="6.31114">
        <ele>1435.4</ele>
        <time>2019-11-01T11:46:25Z</time>
      </trkpt>
      <trkpt lat="43.90336" lon="6.31119">
        <ele>1434.6</ele>
        <time>2019-11-01T11:46:26Z</time>
      </trkpt>
      <trkpt lat="43.90335" lon="6.31125">
        <ele>1435.2</ele>
        <time>2019-11-01T11:46:29Z</time>
      </trkpt>
      <trkpt lat="43.90335" lon="6.31132">
        <ele>1435.7</ele>
        <time>2019-11-01T11:46:30Z</time>
      </trkpt>
      <trkpt lat="43.90333" lon="6.31136">
        <ele>1436</ele>
        <time>2019-11-01T11:46:32Z</time>
      </trkpt>
      <trkpt lat="43.9033" lon="6.31141">
        <ele>1436.7</ele>
        <time>2019-11-01T11:46:34Z</time>
      </trkpt>
      <trkpt lat="43.90328" lon="6.31144">
        <ele>1437.2</ele>
        <time>2019-11-01T11:46:35Z</time>
      </trkpt>
      <trkpt lat="43.90327" lon="6.31149">
        <ele>1437.4</ele>
        <time>2019-11-01T11:46:36Z</time>
      </trkpt>
      <trkpt lat="43.90325" lon="6.31154">
        <ele>1437.2</ele>
        <time>2019-11-01T11:46:38Z</time>
      </trkpt>
      <trkpt lat="43.90323" lon="6.31158">
        <ele>1437.1</ele>
        <time>2019-11-01T11:46:39Z</time>
      </trkpt>
      <trkpt lat="43.9032" lon="6.31166">
        <ele>1436.9</ele>
        <time>2019-11-01T11:46:42Z</time>
      </trkpt>
      <trkpt lat="43.90318" lon="6.3117">
        <ele>1436.9</ele>
        <time>2019-11-01T11:46:43Z</time>
      </trkpt>
      <trkpt lat="43.90317" lon="6.31173">
        <ele>1436.8</ele>
        <time>2019-11-01T11:46:44Z</time>
      </trkpt>
      <trkpt lat="43.90314" lon="6.31178">
        <ele>1436.5</ele>
        <time>2019-11-01T11:46:46Z</time>
      </trkpt>
      <trkpt lat="43.90313" lon="6.31181">
        <ele>1436.2</ele>
        <time>2019-11-01T11:46:47Z</time>
      </trkpt>
      <trkpt lat="43.9031" lon="6.31186">
        <ele>1436.1</ele>
        <time>2019-11-01T11:46:49Z</time>
      </trkpt>
      <trkpt lat="43.90309" lon="6.31189">
        <ele>1436.1</ele>
        <time>2019-11-01T11:46:50Z</time>
      </trkpt>
      <trkpt lat="43.90306" lon="6.31194">
        <ele>1435.6</ele>
        <time>2019-11-01T11:46:51Z</time>
      </trkpt>
      <trkpt lat="43.90304" lon="6.31197">
        <ele>1434.7</ele>
        <time>2019-11-01T11:46:52Z</time>
      </trkpt>
      <trkpt lat="43.90302" lon="6.31202">
        <ele>1433.8</ele>
        <time>2019-11-01T11:46:54Z</time>
      </trkpt>
      <trkpt lat="43.903" lon="6.31205">
        <ele>1434.7</ele>
        <time>2019-11-01T11:46:55Z</time>
      </trkpt>
      <trkpt lat="43.90299" lon="6.31208">
        <ele>1435.4</ele>
        <time>2019-11-01T11:46:56Z</time>
      </trkpt>
      <trkpt lat="43.90297" lon="6.31212">
        <ele>1436.2</ele>
        <time>2019-11-01T11:46:57Z</time>
      </trkpt>
      <trkpt lat="43.90295" lon="6.31216">
        <ele>1436.8</ele>
        <time>2019-11-01T11:46:59Z</time>
      </trkpt>
      <trkpt lat="43.90294" lon="6.31221">
        <ele>1437.4</ele>
        <time>2019-11-01T11:47:01Z</time>
      </trkpt>
      <trkpt lat="43.90292" lon="6.31228">
        <ele>1439.9</ele>
        <time>2019-11-01T11:47:03Z</time>
      </trkpt>
      <trkpt lat="43.90291" lon="6.31233">
        <ele>1441.4</ele>
        <time>2019-11-01T11:47:05Z</time>
      </trkpt>
      <trkpt lat="43.9029" lon="6.31238">
        <ele>1442.3</ele>
        <time>2019-11-01T11:47:07Z</time>
      </trkpt>
      <trkpt lat="43.90289" lon="6.31243">
        <ele>1443.2</ele>
        <time>2019-11-01T11:47:08Z</time>
      </trkpt>
      <trkpt lat="43.90287" lon="6.3125">
        <ele>1443.8</ele>
        <time>2019-11-01T11:47:10Z</time>
      </trkpt>
      <trkpt lat="43.90286" lon="6.31254">
        <ele>1444.2</ele>
        <time>2019-11-01T11:47:12Z</time>
      </trkpt>
      <trkpt lat="43.90283" lon="6.3126">
        <ele>1445</ele>
        <time>2019-11-01T11:47:14Z</time>
      </trkpt>
      <trkpt lat="43.9028" lon="6.31265">
        <ele>1445.6</ele>
        <time>2019-11-01T11:47:17Z</time>
      </trkpt>
      <trkpt lat="43.90275" lon="6.31268">
        <ele>1446.2</ele>
        <time>2019-11-01T11:47:19Z</time>
      </trkpt>
      <trkpt lat="43.9027" lon="6.31269">
        <ele>1446.5</ele>
        <time>2019-11-01T11:47:22Z</time>
      </trkpt>
      <trkpt lat="43.90265" lon="6.31272">
        <ele>1446.8</ele>
        <time>2019-11-01T11:47:24Z</time>
      </trkpt>
      <trkpt lat="43.90261" lon="6.31275">
        <ele>1447.2</ele>
        <time>2019-11-01T11:47:26Z</time>
      </trkpt>
      <trkpt lat="43.90257" lon="6.31279">
        <ele>1447.6</ele>
        <time>2019-11-01T11:47:28Z</time>
      </trkpt>
      <trkpt lat="43.90255" lon="6.31283">
        <ele>1448</ele>
        <time>2019-11-01T11:47:30Z</time>
      </trkpt>
      <trkpt lat="43.90252" lon="6.31288">
        <ele>1448.6</ele>
        <time>2019-11-01T11:47:32Z</time>
      </trkpt>
      <trkpt lat="43.9025" lon="6.31291">
        <ele>1448.7</ele>
        <time>2019-11-01T11:47:33Z</time>
      </trkpt>
      <trkpt lat="43.90246" lon="6.31295">
        <ele>1448.7</ele>
        <time>2019-11-01T11:47:35Z</time>
      </trkpt>
      <trkpt lat="43.90243" lon="6.31301">
        <ele>1449.2</ele>
        <time>2019-11-01T11:47:37Z</time>
      </trkpt>
      <trkpt lat="43.90239" lon="6.31306">
        <ele>1449.9</ele>
        <time>2019-11-01T11:47:40Z</time>
      </trkpt>
      <trkpt lat="43.90238" lon="6.31309">
        <ele>1450.2</ele>
        <time>2019-11-01T11:47:41Z</time>
      </trkpt>
      <trkpt lat="43.90235" lon="6.31311">
        <ele>1450.7</ele>
        <time>2019-11-01T11:47:42Z</time>
      </trkpt>
      <trkpt lat="43.90231" lon="6.31316">
        <ele>1451.6</ele>
        <time>2019-11-01T11:47:44Z</time>
      </trkpt>
      <trkpt lat="43.90229" lon="6.3132">
        <ele>1452.2</ele>
        <time>2019-11-01T11:47:46Z</time>
      </trkpt>
      <trkpt lat="43.90226" lon="6.31323">
        <ele>1452.9</ele>
        <time>2019-11-01T11:47:47Z</time>
      </trkpt>
      <trkpt lat="43.90224" lon="6.31327">
        <ele>1452.9</ele>
        <time>2019-11-01T11:47:48Z</time>
      </trkpt>
      <trkpt lat="43.90222" lon="6.31331">
        <ele>1453.1</ele>
        <time>2019-11-01T11:47:50Z</time>
      </trkpt>
      <trkpt lat="43.90219" lon="6.31335">
        <ele>1453.9</ele>
        <time>2019-11-01T11:47:52Z</time>
      </trkpt>
      <trkpt lat="43.90217" lon="6.31342">
        <ele>1453.1</ele>
        <time>2019-11-01T11:47:55Z</time>
      </trkpt>
      <trkpt lat="43.90213" lon="6.31346">
        <ele>1451.8</ele>
        <time>2019-11-01T11:47:56Z</time>
      </trkpt>
      <trkpt lat="43.90211" lon="6.3135">
        <ele>1450.9</ele>
        <time>2019-11-01T11:47:58Z</time>
      </trkpt>
      <trkpt lat="43.90205" lon="6.31354">
        <ele>1448.9</ele>
        <time>2019-11-01T11:48:00Z</time>
      </trkpt>
      <trkpt lat="43.90202" lon="6.31359">
        <ele>1447</ele>
        <time>2019-11-01T11:48:03Z</time>
      </trkpt>
      <trkpt lat="43.90199" lon="6.31364">
        <ele>1445.5</ele>
        <time>2019-11-01T11:48:05Z</time>
      </trkpt>
      <trkpt lat="43.90197" lon="6.3137">
        <ele>1443.9</ele>
        <time>2019-11-01T11:48:07Z</time>
      </trkpt>
      <trkpt lat="43.90196" lon="6.31376">
        <ele>1442</ele>
        <time>2019-11-01T11:48:09Z</time>
      </trkpt>
      <trkpt lat="43.90196" lon="6.3138">
        <ele>1441</ele>
        <time>2019-11-01T11:48:10Z</time>
      </trkpt>
      <trkpt lat="43.90197" lon="6.31386">
        <ele>1439.9</ele>
        <time>2019-11-01T11:48:11Z</time>
      </trkpt>
      <trkpt lat="43.90199" lon="6.31389">
        <ele>1439.2</ele>
        <time>2019-11-01T11:48:12Z</time>
      </trkpt>
      <trkpt lat="43.90202" lon="6.3139">
        <ele>1438.3</ele>
        <time>2019-11-01T11:48:14Z</time>
      </trkpt>
      <trkpt lat="43.90206" lon="6.31389">
        <ele>1437</ele>
        <time>2019-11-01T11:48:15Z</time>
      </trkpt>
      <trkpt lat="43.90209" lon="6.31388">
        <ele>1436.1</ele>
        <time>2019-11-01T11:48:16Z</time>
      </trkpt>
      <trkpt lat="43.90212" lon="6.31388">
        <ele>1435.2</ele>
        <time>2019-11-01T11:48:17Z</time>
      </trkpt>
      <trkpt lat="43.90217" lon="6.31387">
        <ele>1434.7</ele>
        <time>2019-11-01T11:48:19Z</time>
      </trkpt>
      <trkpt lat="43.90223" lon="6.31387">
        <ele>1434.7</ele>
        <time>2019-11-01T11:48:22Z</time>
      </trkpt>
      <trkpt lat="43.9023" lon="6.31386">
        <ele>1434.4</ele>
        <time>2019-11-01T11:48:25Z</time>
      </trkpt>
      <trkpt lat="43.90233" lon="6.31386">
        <ele>1434.7</ele>
        <time>2019-11-01T11:48:26Z</time>
      </trkpt>
      <trkpt lat="43.90237" lon="6.31386">
        <ele>1434.9</ele>
        <time>2019-11-01T11:48:28Z</time>
      </trkpt>
      <trkpt lat="43.90242" lon="6.31386">
        <ele>1435.5</ele>
        <time>2019-11-01T11:48:30Z</time>
      </trkpt>
      <trkpt lat="43.90244" lon="6.31387">
        <ele>1435.9</ele>
        <time>2019-11-01T11:48:31Z</time>
      </trkpt>
      <trkpt lat="43.90248" lon="6.31389">
        <ele>1436.7</ele>
        <time>2019-11-01T11:48:33Z</time>
      </trkpt>
      <trkpt lat="43.90251" lon="6.31392">
        <ele>1437.5</ele>
        <time>2019-11-01T11:48:34Z</time>
      </trkpt>
      <trkpt lat="43.90253" lon="6.31395">
        <ele>1438</ele>
        <time>2019-11-01T11:48:36Z</time>
      </trkpt>
      <trkpt lat="43.90256" lon="6.31398">
        <ele>1438.6</ele>
        <time>2019-11-01T11:48:37Z</time>
      </trkpt>
      <trkpt lat="43.90259" lon="6.31406">
        <ele>1440</ele>
        <time>2019-11-01T11:48:40Z</time>
      </trkpt>
      <trkpt lat="43.9026" lon="6.31411">
        <ele>1441</ele>
        <time>2019-11-01T11:48:42Z</time>
      </trkpt>
      <trkpt lat="43.90261" lon="6.31418">
        <ele>1442.2</ele>
        <time>2019-11-01T11:48:43Z</time>
      </trkpt>
      <trkpt lat="43.90261" lon="6.31423">
        <ele>1442.7</ele>
        <time>2019-11-01T11:48:45Z</time>
      </trkpt>
      <trkpt lat="43.90261" lon="6.3143">
        <ele>1443.2</ele>
        <time>2019-11-01T11:48:47Z</time>
      </trkpt>
      <trkpt lat="43.90261" lon="6.31436">
        <ele>1444.2</ele>
        <time>2019-11-01T11:48:49Z</time>
      </trkpt>
      <trkpt lat="43.90259" lon="6.31441">
        <ele>1445.1</ele>
        <time>2019-11-01T11:48:50Z</time>
      </trkpt>
      <trkpt lat="43.90258" lon="6.31445">
        <ele>1445.6</ele>
        <time>2019-11-01T11:48:51Z</time>
      </trkpt>
      <trkpt lat="43.90256" lon="6.31453">
        <ele>1446.7</ele>
        <time>2019-11-01T11:48:54Z</time>
      </trkpt>
      <trkpt lat="43.90254" lon="6.3146">
        <ele>1447.5</ele>
        <time>2019-11-01T11:48:56Z</time>
      </trkpt>
      <trkpt lat="43.90252" lon="6.31468">
        <ele>1448.3</ele>
        <time>2019-11-01T11:48:59Z</time>
      </trkpt>
      <trkpt lat="43.90251" lon="6.31475">
        <ele>1448.8</ele>
        <time>2019-11-01T11:49:01Z</time>
      </trkpt>
      <trkpt lat="43.90249" lon="6.31481">
        <ele>1449.3</ele>
        <time>2019-11-01T11:49:03Z</time>
      </trkpt>
      <trkpt lat="43.90247" lon="6.31487">
        <ele>1449.9</ele>
        <time>2019-11-01T11:49:06Z</time>
      </trkpt>
      <trkpt lat="43.90245" lon="6.3149">
        <ele>1450.1</ele>
        <time>2019-11-01T11:49:07Z</time>
      </trkpt>
      <trkpt lat="43.90243" lon="6.31498">
        <ele>1450.3</ele>
        <time>2019-11-01T11:49:10Z</time>
      </trkpt>
      <trkpt lat="43.90242" lon="6.31506">
        <ele>1451.1</ele>
        <time>2019-11-01T11:49:12Z</time>
      </trkpt>
      <trkpt lat="43.9024" lon="6.3151">
        <ele>1451.7</ele>
        <time>2019-11-01T11:49:13Z</time>
      </trkpt>
      <trkpt lat="43.90237" lon="6.31515">
        <ele>1452.4</ele>
        <time>2019-11-01T11:49:16Z</time>
      </trkpt>
      <trkpt lat="43.90235" lon="6.31521">
        <ele>1453</ele>
        <time>2019-11-01T11:49:18Z</time>
      </trkpt>
      <trkpt lat="43.90233" lon="6.31527">
        <ele>1453.2</ele>
        <time>2019-11-01T11:49:20Z</time>
      </trkpt>
      <trkpt lat="43.90233" lon="6.31532">
        <ele>1453.4</ele>
        <time>2019-11-01T11:49:22Z</time>
      </trkpt>
      <trkpt lat="43.90231" lon="6.31536">
        <ele>1453.8</ele>
        <time>2019-11-01T11:49:24Z</time>
      </trkpt>
      <trkpt lat="43.90231" lon="6.31541">
        <ele>1454.2</ele>
        <time>2019-11-01T11:49:25Z</time>
      </trkpt>
      <trkpt lat="43.9023" lon="6.31545">
        <ele>1454.6</ele>
        <time>2019-11-01T11:49:26Z</time>
      </trkpt>
      <trkpt lat="43.90229" lon="6.31552">
        <ele>1455.2</ele>
        <time>2019-11-01T11:49:29Z</time>
      </trkpt>
      <trkpt lat="43.90227" lon="6.31555">
        <ele>1455.5</ele>
        <time>2019-11-01T11:49:30Z</time>
      </trkpt>
      <trkpt lat="43.90225" lon="6.3156">
        <ele>1455.8</ele>
        <time>2019-11-01T11:49:31Z</time>
      </trkpt>
      <trkpt lat="43.90224" lon="6.31566">
        <ele>1456.2</ele>
        <time>2019-11-01T11:49:34Z</time>
      </trkpt>
      <trkpt lat="43.90224" lon="6.31575">
        <ele>1456.9</ele>
        <time>2019-11-01T11:49:37Z</time>
      </trkpt>
      <trkpt lat="43.90223" lon="6.31583">
        <ele>1457.4</ele>
        <time>2019-11-01T11:49:39Z</time>
      </trkpt>
      <trkpt lat="43.90222" lon="6.31589">
        <ele>1457.8</ele>
        <time>2019-11-01T11:49:41Z</time>
      </trkpt>
      <trkpt lat="43.90222" lon="6.31596">
        <ele>1458.6</ele>
        <time>2019-11-01T11:49:44Z</time>
      </trkpt>
      <trkpt lat="43.90222" lon="6.31601">
        <ele>1459.2</ele>
        <time>2019-11-01T11:49:45Z</time>
      </trkpt>
      <trkpt lat="43.90221" lon="6.31607">
        <ele>1459.7</ele>
        <time>2019-11-01T11:49:47Z</time>
      </trkpt>
      <trkpt lat="43.90219" lon="6.31613">
        <ele>1460.5</ele>
        <time>2019-11-01T11:49:49Z</time>
      </trkpt>
      <trkpt lat="43.90218" lon="6.31617">
        <ele>1461.1</ele>
        <time>2019-11-01T11:49:51Z</time>
      </trkpt>
      <trkpt lat="43.90216" lon="6.31621">
        <ele>1461.8</ele>
        <time>2019-11-01T11:49:53Z</time>
      </trkpt>
      <trkpt lat="43.90213" lon="6.31626">
        <ele>1462.4</ele>
        <time>2019-11-01T11:49:56Z</time>
      </trkpt>
      <trkpt lat="43.90211" lon="6.31631">
        <ele>1463.1</ele>
        <time>2019-11-01T11:49:58Z</time>
      </trkpt>
      <trkpt lat="43.9021" lon="6.31635">
        <ele>1463.8</ele>
        <time>2019-11-01T11:50:00Z</time>
      </trkpt>
      <trkpt lat="43.90209" lon="6.31641">
        <ele>1464.8</ele>
        <time>2019-11-01T11:50:02Z</time>
      </trkpt>
      <trkpt lat="43.90209" lon="6.31646">
        <ele>1465.6</ele>
        <time>2019-11-01T11:50:04Z</time>
      </trkpt>
      <trkpt lat="43.90209" lon="6.31654">
        <ele>1466.8</ele>
        <time>2019-11-01T11:50:06Z</time>
      </trkpt>
      <trkpt lat="43.90209" lon="6.31658">
        <ele>1467.3</ele>
        <time>2019-11-01T11:50:08Z</time>
      </trkpt>
      <trkpt lat="43.90211" lon="6.31667">
        <ele>1468.5</ele>
        <time>2019-11-01T11:50:11Z</time>
      </trkpt>
      <trkpt lat="43.90212" lon="6.31672">
        <ele>1469.2</ele>
        <time>2019-11-01T11:50:12Z</time>
      </trkpt>
      <trkpt lat="43.90212" lon="6.31678">
        <ele>1469.9</ele>
        <time>2019-11-01T11:50:14Z</time>
      </trkpt>
      <trkpt lat="43.90213" lon="6.31687">
        <ele>1471.4</ele>
        <time>2019-11-01T11:50:17Z</time>
      </trkpt>
      <trkpt lat="43.90212" lon="6.31692">
        <ele>1471.8</ele>
        <time>2019-11-01T11:50:18Z</time>
      </trkpt>
      <trkpt lat="43.90211" lon="6.31697">
        <ele>1472.3</ele>
        <time>2019-11-01T11:50:20Z</time>
      </trkpt>
      <trkpt lat="43.90211" lon="6.31702">
        <ele>1472.5</ele>
        <time>2019-11-01T11:50:21Z</time>
      </trkpt>
      <trkpt lat="43.9021" lon="6.31707">
        <ele>1472.8</ele>
        <time>2019-11-01T11:50:23Z</time>
      </trkpt>
      <trkpt lat="43.90209" lon="6.31713">
        <ele>1473.8</ele>
        <time>2019-11-01T11:50:25Z</time>
      </trkpt>
      <trkpt lat="43.90209" lon="6.3172">
        <ele>1475.7</ele>
        <time>2019-11-01T11:50:27Z</time>
      </trkpt>
      <trkpt lat="43.9021" lon="6.31725">
        <ele>1478.1</ele>
        <time>2019-11-01T11:50:28Z</time>
      </trkpt>
      <trkpt lat="43.9021" lon="6.31731">
        <ele>1480.8</ele>
        <time>2019-11-01T11:50:30Z</time>
      </trkpt>
      <trkpt lat="43.90211" lon="6.31737">
        <ele>1483</ele>
        <time>2019-11-01T11:50:32Z</time>
      </trkpt>
      <trkpt lat="43.90212" lon="6.3174">
        <ele>1484.2</ele>
        <time>2019-11-01T11:50:33Z</time>
      </trkpt>
      <trkpt lat="43.90214" lon="6.31745">
        <ele>1485.9</ele>
        <time>2019-11-01T11:50:35Z</time>
      </trkpt>
      <trkpt lat="43.90215" lon="6.31756">
        <ele>1486.3</ele>
        <time>2019-11-01T11:50:37Z</time>
      </trkpt>
      <trkpt lat="43.90216" lon="6.31763">
        <ele>1487.4</ele>
        <time>2019-11-01T11:50:40Z</time>
      </trkpt>
      <trkpt lat="43.90217" lon="6.31769">
        <ele>1488.4</ele>
        <time>2019-11-01T11:50:42Z</time>
      </trkpt>
      <trkpt lat="43.90218" lon="6.31772">
        <ele>1488.4</ele>
        <time>2019-11-01T11:50:43Z</time>
      </trkpt>
      <trkpt lat="43.90223" lon="6.31779">
        <ele>1488.3</ele>
        <time>2019-11-01T11:50:46Z</time>
      </trkpt>
      <trkpt lat="43.90227" lon="6.31783">
        <ele>1489</ele>
        <time>2019-11-01T11:50:48Z</time>
      </trkpt>
      <trkpt lat="43.9023" lon="6.31785">
        <ele>1489.3</ele>
        <time>2019-11-01T11:50:49Z</time>
      </trkpt>
      <trkpt lat="43.90232" lon="6.31787">
        <ele>1489.1</ele>
        <time>2019-11-01T11:50:50Z</time>
      </trkpt>
      <trkpt lat="43.90234" lon="6.31791">
        <ele>1488.9</ele>
        <time>2019-11-01T11:50:52Z</time>
      </trkpt>
      <trkpt lat="43.90235" lon="6.31795">
        <ele>1488.8</ele>
        <time>2019-11-01T11:50:53Z</time>
      </trkpt>
      <trkpt lat="43.90237" lon="6.31802">
        <ele>1489.3</ele>
        <time>2019-11-01T11:50:55Z</time>
      </trkpt>
      <trkpt lat="43.90237" lon="6.31808">
        <ele>1489.4</ele>
        <time>2019-11-01T11:50:56Z</time>
      </trkpt>
      <trkpt lat="43.90238" lon="6.31818">
        <ele>1488.6</ele>
        <time>2019-11-01T11:50:59Z</time>
      </trkpt>
      <trkpt lat="43.90238" lon="6.31824">
        <ele>1489</ele>
        <time>2019-11-01T11:51:00Z</time>
      </trkpt>
      <trkpt lat="43.90239" lon="6.31828">
        <ele>1489.5</ele>
        <time>2019-11-01T11:51:01Z</time>
      </trkpt>
      <trkpt lat="43.90239" lon="6.31832">
        <ele>1489.7</ele>
        <time>2019-11-01T11:51:02Z</time>
      </trkpt>
      <trkpt lat="43.9024" lon="6.31836">
        <ele>1489.5</ele>
        <time>2019-11-01T11:51:04Z</time>
      </trkpt>
      <trkpt lat="43.9024" lon="6.3184">
        <ele>1489.3</ele>
        <time>2019-11-01T11:51:05Z</time>
      </trkpt>
      <trkpt lat="43.9024" lon="6.31847">
        <ele>1488.8</ele>
        <time>2019-11-01T11:51:07Z</time>
      </trkpt>
      <trkpt lat="43.9024" lon="6.31857">
        <ele>1488.3</ele>
        <time>2019-11-01T11:51:09Z</time>
      </trkpt>
      <trkpt lat="43.9024" lon="6.31862">
        <ele>1488.1</ele>
        <time>2019-11-01T11:51:11Z</time>
      </trkpt>
      <trkpt lat="43.9024" lon="6.31866">
        <ele>1488</ele>
        <time>2019-11-01T11:51:12Z</time>
      </trkpt>
      <trkpt lat="43.90241" lon="6.31869">
        <ele>1487.8</ele>
        <time>2019-11-01T11:51:13Z</time>
      </trkpt>
      <trkpt lat="43.90243" lon="6.31874">
        <ele>1487.6</ele>
        <time>2019-11-01T11:51:14Z</time>
      </trkpt>
      <trkpt lat="43.90243" lon="6.31878">
        <ele>1487.4</ele>
        <time>2019-11-01T11:51:16Z</time>
      </trkpt>
      <trkpt lat="43.90243" lon="6.31882">
        <ele>1487.1</ele>
        <time>2019-11-01T11:51:17Z</time>
      </trkpt>
      <trkpt lat="43.90245" lon="6.31886">
        <ele>1487.7</ele>
        <time>2019-11-01T11:51:18Z</time>
      </trkpt>
      <trkpt lat="43.90247" lon="6.3189">
        <ele>1488.7</ele>
        <time>2019-11-01T11:51:19Z</time>
      </trkpt>
      <trkpt lat="43.90249" lon="6.31896">
        <ele>1489.9</ele>
        <time>2019-11-01T11:51:22Z</time>
      </trkpt>
      <trkpt lat="43.90249" lon="6.319">
        <ele>1490.6</ele>
        <time>2019-11-01T11:51:23Z</time>
      </trkpt>
      <trkpt lat="43.90248" lon="6.31909">
        <ele>1490.7</ele>
        <time>2019-11-01T11:51:25Z</time>
      </trkpt>
      <trkpt lat="43.90245" lon="6.31917">
        <ele>1491.3</ele>
        <time>2019-11-01T11:51:27Z</time>
      </trkpt>
      <trkpt lat="43.90244" lon="6.31921">
        <ele>1491.9</ele>
        <time>2019-11-01T11:51:28Z</time>
      </trkpt>
      <trkpt lat="43.90243" lon="6.31925">
        <ele>1491.8</ele>
        <time>2019-11-01T11:51:29Z</time>
      </trkpt>
      <trkpt lat="43.90245" lon="6.31932">
        <ele>1491.6</ele>
        <time>2019-11-01T11:51:31Z</time>
      </trkpt>
      <trkpt lat="43.90246" lon="6.31936">
        <ele>1492.2</ele>
        <time>2019-11-01T11:51:32Z</time>
      </trkpt>
      <trkpt lat="43.90248" lon="6.3194">
        <ele>1492.9</ele>
        <time>2019-11-01T11:51:33Z</time>
      </trkpt>
      <trkpt lat="43.90249" lon="6.31944">
        <ele>1492.9</ele>
        <time>2019-11-01T11:51:34Z</time>
      </trkpt>
      <trkpt lat="43.90251" lon="6.31949">
        <ele>1492.7</ele>
        <time>2019-11-01T11:51:35Z</time>
      </trkpt>
      <trkpt lat="43.90252" lon="6.31955">
        <ele>1492.4</ele>
        <time>2019-11-01T11:51:37Z</time>
      </trkpt>
      <trkpt lat="43.90253" lon="6.31959">
        <ele>1492.1</ele>
        <time>2019-11-01T11:51:38Z</time>
      </trkpt>
      <trkpt lat="43.90255" lon="6.31968">
        <ele>1491.8</ele>
        <time>2019-11-01T11:51:40Z</time>
      </trkpt>
      <trkpt lat="43.90257" lon="6.31973">
        <ele>1491.2</ele>
        <time>2019-11-01T11:51:41Z</time>
      </trkpt>
      <trkpt lat="43.90258" lon="6.31981">
        <ele>1489.7</ele>
        <time>2019-11-01T11:51:44Z</time>
      </trkpt>
      <trkpt lat="43.90258" lon="6.31986">
        <ele>1489.6</ele>
        <time>2019-11-01T11:51:45Z</time>
      </trkpt>
      <trkpt lat="43.90258" lon="6.31993">
        <ele>1489.3</ele>
        <time>2019-11-01T11:51:47Z</time>
      </trkpt>
      <trkpt lat="43.90258" lon="6.31997">
        <ele>1488.6</ele>
        <time>2019-11-01T11:51:48Z</time>
      </trkpt>
      <trkpt lat="43.9026" lon="6.32002">
        <ele>1487.8</ele>
        <time>2019-11-01T11:51:49Z</time>
      </trkpt>
      <trkpt lat="43.90261" lon="6.32006">
        <ele>1487.5</ele>
        <time>2019-11-01T11:51:50Z</time>
      </trkpt>
      <trkpt lat="43.90261" lon="6.32014">
        <ele>1487.2</ele>
        <time>2019-11-01T11:51:51Z</time>
      </trkpt>
      <trkpt lat="43.9026" lon="6.32019">
        <ele>1486.1</ele>
        <time>2019-11-01T11:51:53Z</time>
      </trkpt>
      <trkpt lat="43.90259" lon="6.32025">
        <ele>1484.9</ele>
        <time>2019-11-01T11:51:54Z</time>
      </trkpt>
      <trkpt lat="43.90258" lon="6.32031">
        <ele>1484.6</ele>
        <time>2019-11-01T11:51:55Z</time>
      </trkpt>
      <trkpt lat="43.90257" lon="6.32039">
        <ele>1484.4</ele>
        <time>2019-11-01T11:51:56Z</time>
      </trkpt>
      <trkpt lat="43.90256" lon="6.32046">
        <ele>1484.6</ele>
        <time>2019-11-01T11:51:58Z</time>
      </trkpt>
      <trkpt lat="43.90255" lon="6.32056">
        <ele>1484.9</ele>
        <time>2019-11-01T11:52:00Z</time>
      </trkpt>
      <trkpt lat="43.90254" lon="6.32062">
        <ele>1484.7</ele>
        <time>2019-11-01T11:52:01Z</time>
      </trkpt>
      <trkpt lat="43.90252" lon="6.32069">
        <ele>1484</ele>
        <time>2019-11-01T11:52:03Z</time>
      </trkpt>
      <trkpt lat="43.9025" lon="6.32075">
        <ele>1483.3</ele>
        <time>2019-11-01T11:52:04Z</time>
      </trkpt>
      <trkpt lat="43.90249" lon="6.32083">
        <ele>1482.5</ele>
        <time>2019-11-01T11:52:06Z</time>
      </trkpt>
      <trkpt lat="43.90249" lon="6.32089">
        <ele>1481.8</ele>
        <time>2019-11-01T11:52:07Z</time>
      </trkpt>
      <trkpt lat="43.9025" lon="6.32093">
        <ele>1481.3</ele>
        <time>2019-11-01T11:52:09Z</time>
      </trkpt>
      <trkpt lat="43.90252" lon="6.32098">
        <ele>1480.9</ele>
        <time>2019-11-01T11:52:10Z</time>
      </trkpt>
      <trkpt lat="43.90255" lon="6.32104">
        <ele>1480.3</ele>
        <time>2019-11-01T11:52:11Z</time>
      </trkpt>
      <trkpt lat="43.90257" lon="6.32111">
        <ele>1479.9</ele>
        <time>2019-11-01T11:52:13Z</time>
      </trkpt>
      <trkpt lat="43.90258" lon="6.32116">
        <ele>1479.6</ele>
        <time>2019-11-01T11:52:14Z</time>
      </trkpt>
      <trkpt lat="43.90258" lon="6.32121">
        <ele>1479.2</ele>
        <time>2019-11-01T11:52:15Z</time>
      </trkpt>
      <trkpt lat="43.90258" lon="6.32129">
        <ele>1478.3</ele>
        <time>2019-11-01T11:52:17Z</time>
      </trkpt>
      <trkpt lat="43.90258" lon="6.32133">
        <ele>1477.8</ele>
        <time>2019-11-01T11:52:18Z</time>
      </trkpt>
      <trkpt lat="43.90258" lon="6.32137">
        <ele>1477.4</ele>
        <time>2019-11-01T11:52:19Z</time>
      </trkpt>
      <trkpt lat="43.90258" lon="6.32142">
        <ele>1476.8</ele>
        <time>2019-11-01T11:52:20Z</time>
      </trkpt>
      <trkpt lat="43.90258" lon="6.32148">
        <ele>1475.9</ele>
        <time>2019-11-01T11:52:21Z</time>
      </trkpt>
      <trkpt lat="43.90259" lon="6.32154">
        <ele>1475.2</ele>
        <time>2019-11-01T11:52:23Z</time>
      </trkpt>
      <trkpt lat="43.90259" lon="6.32162">
        <ele>1473.8</ele>
        <time>2019-11-01T11:52:25Z</time>
      </trkpt>
      <trkpt lat="43.90259" lon="6.32166">
        <ele>1473.2</ele>
        <time>2019-11-01T11:52:26Z</time>
      </trkpt>
      <trkpt lat="43.9026" lon="6.32171">
        <ele>1472.7</ele>
        <time>2019-11-01T11:52:27Z</time>
      </trkpt>
      <trkpt lat="43.9026" lon="6.32175">
        <ele>1472.2</ele>
        <time>2019-11-01T11:52:28Z</time>
      </trkpt>
      <trkpt lat="43.90259" lon="6.32181">
        <ele>1471.4</ele>
        <time>2019-11-01T11:52:30Z</time>
      </trkpt>
      <trkpt lat="43.90259" lon="6.32185">
        <ele>1470.9</ele>
        <time>2019-11-01T11:52:31Z</time>
      </trkpt>
      <trkpt lat="43.90259" lon="6.32192">
        <ele>1469.4</ele>
        <time>2019-11-01T11:52:32Z</time>
      </trkpt>
      <trkpt lat="43.90258" lon="6.32199">
        <ele>1468</ele>
        <time>2019-11-01T11:52:34Z</time>
      </trkpt>
      <trkpt lat="43.90258" lon="6.32204">
        <ele>1467.3</ele>
        <time>2019-11-01T11:52:35Z</time>
      </trkpt>
      <trkpt lat="43.90257" lon="6.32208">
        <ele>1467.2</ele>
        <time>2019-11-01T11:52:36Z</time>
      </trkpt>
      <trkpt lat="43.90256" lon="6.32212">
        <ele>1467.2</ele>
        <time>2019-11-01T11:52:38Z</time>
      </trkpt>
      <trkpt lat="43.90255" lon="6.32218">
        <ele>1466.4</ele>
        <time>2019-11-01T11:52:39Z</time>
      </trkpt>
      <trkpt lat="43.90254" lon="6.32223">
        <ele>1465.8</ele>
        <time>2019-11-01T11:52:40Z</time>
      </trkpt>
      <trkpt lat="43.90253" lon="6.3223">
        <ele>1465</ele>
        <time>2019-11-01T11:52:42Z</time>
      </trkpt>
      <trkpt lat="43.90252" lon="6.32237">
        <ele>1463.9</ele>
        <time>2019-11-01T11:52:43Z</time>
      </trkpt>
      <trkpt lat="43.90251" lon="6.32245">
        <ele>1462.6</ele>
        <time>2019-11-01T11:52:45Z</time>
      </trkpt>
      <trkpt lat="43.90251" lon="6.32251">
        <ele>1462.7</ele>
        <time>2019-11-01T11:52:46Z</time>
      </trkpt>
      <trkpt lat="43.90252" lon="6.32255">
        <ele>1462.9</ele>
        <time>2019-11-01T11:52:47Z</time>
      </trkpt>
      <trkpt lat="43.90254" lon="6.3226">
        <ele>1463.3</ele>
        <time>2019-11-01T11:52:48Z</time>
      </trkpt>
      <trkpt lat="43.90256" lon="6.32265">
        <ele>1463.7</ele>
        <time>2019-11-01T11:52:49Z</time>
      </trkpt>
      <trkpt lat="43.90258" lon="6.32271">
        <ele>1464.5</ele>
        <time>2019-11-01T11:52:51Z</time>
      </trkpt>
      <trkpt lat="43.9026" lon="6.32276">
        <ele>1465.1</ele>
        <time>2019-11-01T11:52:52Z</time>
      </trkpt>
      <trkpt lat="43.90262" lon="6.32283">
        <ele>1466</ele>
        <time>2019-11-01T11:52:54Z</time>
      </trkpt>
      <trkpt lat="43.90263" lon="6.32288">
        <ele>1466.5</ele>
        <time>2019-11-01T11:52:55Z</time>
      </trkpt>
      <trkpt lat="43.90265" lon="6.32292">
        <ele>1467</ele>
        <time>2019-11-01T11:52:56Z</time>
      </trkpt>
      <trkpt lat="43.90268" lon="6.32294">
        <ele>1467.4</ele>
        <time>2019-11-01T11:52:57Z</time>
      </trkpt>
      <trkpt lat="43.90272" lon="6.32296">
        <ele>1468</ele>
        <time>2019-11-01T11:52:58Z</time>
      </trkpt>
      <trkpt lat="43.90276" lon="6.32294">
        <ele>1468.4</ele>
        <time>2019-11-01T11:53:00Z</time>
      </trkpt>
      <trkpt lat="43.90279" lon="6.32292">
        <ele>1468.8</ele>
        <time>2019-11-01T11:53:01Z</time>
      </trkpt>
      <trkpt lat="43.90282" lon="6.3229">
        <ele>1469</ele>
        <time>2019-11-01T11:53:02Z</time>
      </trkpt>
      <trkpt lat="43.90288" lon="6.32286">
        <ele>1469.6</ele>
        <time>2019-11-01T11:53:04Z</time>
      </trkpt>
      <trkpt lat="43.90297" lon="6.3228">
        <ele>1470.4</ele>
        <time>2019-11-01T11:53:06Z</time>
      </trkpt>
      <trkpt lat="43.90301" lon="6.32277">
        <ele>1470.2</ele>
        <time>2019-11-01T11:53:07Z</time>
      </trkpt>
      <trkpt lat="43.90306" lon="6.32274">
        <ele>1470.3</ele>
        <time>2019-11-01T11:53:08Z</time>
      </trkpt>
      <trkpt lat="43.90315" lon="6.32269">
        <ele>1470.9</ele>
        <time>2019-11-01T11:53:10Z</time>
      </trkpt>
      <trkpt lat="43.90324" lon="6.32267">
        <ele>1471.1</ele>
        <time>2019-11-01T11:53:12Z</time>
      </trkpt>
      <trkpt lat="43.90328" lon="6.32265">
        <ele>1471.1</ele>
        <time>2019-11-01T11:53:13Z</time>
      </trkpt>
      <trkpt lat="43.90338" lon="6.3226">
        <ele>1471.2</ele>
        <time>2019-11-01T11:53:15Z</time>
      </trkpt>
      <trkpt lat="43.90347" lon="6.32254">
        <ele>1471.3</ele>
        <time>2019-11-01T11:53:17Z</time>
      </trkpt>
      <trkpt lat="43.90357" lon="6.32247">
        <ele>1471.8</ele>
        <time>2019-11-01T11:53:19Z</time>
      </trkpt>
      <trkpt lat="43.90362" lon="6.32244">
        <ele>1471.7</ele>
        <time>2019-11-01T11:53:20Z</time>
      </trkpt>
      <trkpt lat="43.90367" lon="6.3224">
        <ele>1471.6</ele>
        <time>2019-11-01T11:53:21Z</time>
      </trkpt>
      <trkpt lat="43.90372" lon="6.32236">
        <ele>1471.9</ele>
        <time>2019-11-01T11:53:22Z</time>
      </trkpt>
      <trkpt lat="43.90382" lon="6.32226">
        <ele>1470.4</ele>
        <time>2019-11-01T11:53:24Z</time>
      </trkpt>
      <trkpt lat="43.90388" lon="6.32222">
        <ele>1469.9</ele>
        <time>2019-11-01T11:53:25Z</time>
      </trkpt>
      <trkpt lat="43.90393" lon="6.32217">
        <ele>1469.1</ele>
        <time>2019-11-01T11:53:26Z</time>
      </trkpt>
      <trkpt lat="43.90403" lon="6.32209">
        <ele>1467.4</ele>
        <time>2019-11-01T11:53:28Z</time>
      </trkpt>
      <trkpt lat="43.90414" lon="6.32206">
        <ele>1465.7</ele>
        <time>2019-11-01T11:53:30Z</time>
      </trkpt>
      <trkpt lat="43.90426" lon="6.32204">
        <ele>1464.5</ele>
        <time>2019-11-01T11:53:32Z</time>
      </trkpt>
      <trkpt lat="43.90433" lon="6.32203">
        <ele>1464.2</ele>
        <time>2019-11-01T11:53:33Z</time>
      </trkpt>
      <trkpt lat="43.90447" lon="6.32201">
        <ele>1462.7</ele>
        <time>2019-11-01T11:53:35Z</time>
      </trkpt>
      <trkpt lat="43.9046" lon="6.32203">
        <ele>1461.9</ele>
        <time>2019-11-01T11:53:37Z</time>
      </trkpt>
      <trkpt lat="43.90472" lon="6.32211">
        <ele>1461.4</ele>
        <time>2019-11-01T11:53:39Z</time>
      </trkpt>
      <trkpt lat="43.90477" lon="6.32216">
        <ele>1461.3</ele>
        <time>2019-11-01T11:53:40Z</time>
      </trkpt>
      <trkpt lat="43.90483" lon="6.32221">
        <ele>1461.3</ele>
        <time>2019-11-01T11:53:41Z</time>
      </trkpt>
      <trkpt lat="43.90493" lon="6.32232">
        <ele>1461.7</ele>
        <time>2019-11-01T11:53:43Z</time>
      </trkpt>
      <trkpt lat="43.90497" lon="6.32239">
        <ele>1461.9</ele>
        <time>2019-11-01T11:53:44Z</time>
      </trkpt>
      <trkpt lat="43.905" lon="6.32247">
        <ele>1462</ele>
        <time>2019-11-01T11:53:45Z</time>
      </trkpt>
      <trkpt lat="43.90507" lon="6.32262">
        <ele>1462.2</ele>
        <time>2019-11-01T11:53:47Z</time>
      </trkpt>
      <trkpt lat="43.90514" lon="6.32275">
        <ele>1462.2</ele>
        <time>2019-11-01T11:53:49Z</time>
      </trkpt>
      <trkpt lat="43.90521" lon="6.32287">
        <ele>1463.3</ele>
        <time>2019-11-01T11:53:51Z</time>
      </trkpt>
      <trkpt lat="43.9053" lon="6.32296">
        <ele>1464.2</ele>
        <time>2019-11-01T11:53:53Z</time>
      </trkpt>
      <trkpt lat="43.90541" lon="6.32306">
        <ele>1465.7</ele>
        <time>2019-11-01T11:53:55Z</time>
      </trkpt>
      <trkpt lat="43.90546" lon="6.32312">
        <ele>1466.9</ele>
        <time>2019-11-01T11:53:56Z</time>
      </trkpt>
      <trkpt lat="43.9055" lon="6.32317">
        <ele>1467.8</ele>
        <time>2019-11-01T11:53:57Z</time>
      </trkpt>
      <trkpt lat="43.90561" lon="6.32325">
        <ele>1468</ele>
        <time>2019-11-01T11:53:59Z</time>
      </trkpt>
      <trkpt lat="43.90571" lon="6.32333">
        <ele>1467.2</ele>
        <time>2019-11-01T11:54:01Z</time>
      </trkpt>
      <trkpt lat="43.90578" lon="6.32347">
        <ele>1466.9</ele>
        <time>2019-11-01T11:54:03Z</time>
      </trkpt>
      <trkpt lat="43.9058" lon="6.32358">
        <ele>1465.9</ele>
        <time>2019-11-01T11:54:05Z</time>
      </trkpt>
      <trkpt lat="43.90581" lon="6.32367">
        <ele>1465.4</ele>
        <time>2019-11-01T11:54:07Z</time>
      </trkpt>
      <trkpt lat="43.9058" lon="6.32378">
        <ele>1464.6</ele>
        <time>2019-11-01T11:54:09Z</time>
      </trkpt>
      <trkpt lat="43.90577" lon="6.32388">
        <ele>1464.3</ele>
        <time>2019-11-01T11:54:11Z</time>
      </trkpt>
      <trkpt lat="43.90576" lon="6.32393">
        <ele>1464.1</ele>
        <time>2019-11-01T11:54:12Z</time>
      </trkpt>
      <trkpt lat="43.90577" lon="6.32397">
        <ele>1464</ele>
        <time>2019-11-01T11:54:13Z</time>
      </trkpt>
      <trkpt lat="43.90573" lon="6.32409">
        <ele>1463.4</ele>
        <time>2019-11-01T11:54:15Z</time>
      </trkpt>
      <trkpt lat="43.90572" lon="6.32417">
        <ele>1463.5</ele>
        <time>2019-11-01T11:54:17Z</time>
      </trkpt>
      <trkpt lat="43.90568" lon="6.32429">
        <ele>1463.1</ele>
        <time>2019-11-01T11:54:20Z</time>
      </trkpt>
      <trkpt lat="43.90569" lon="6.32436">
        <ele>1462.9</ele>
        <time>2019-11-01T11:54:21Z</time>
      </trkpt>
      <trkpt lat="43.90568" lon="6.32442">
        <ele>1462.6</ele>
        <time>2019-11-01T11:54:22Z</time>
      </trkpt>
      <trkpt lat="43.90565" lon="6.32454">
        <ele>1461.3</ele>
        <time>2019-11-01T11:54:24Z</time>
      </trkpt>
      <trkpt lat="43.90563" lon="6.32459">
        <ele>1461.1</ele>
        <time>2019-11-01T11:54:25Z</time>
      </trkpt>
      <trkpt lat="43.9056" lon="6.32462">
        <ele>1460.9</ele>
        <time>2019-11-01T11:54:26Z</time>
      </trkpt>
      <trkpt lat="43.90558" lon="6.3247">
        <ele>1460</ele>
        <time>2019-11-01T11:54:27Z</time>
      </trkpt>
      <trkpt lat="43.90556" lon="6.32476">
        <ele>1459.4</ele>
        <time>2019-11-01T11:54:29Z</time>
      </trkpt>
      <trkpt lat="43.90553" lon="6.32482">
        <ele>1459.2</ele>
        <time>2019-11-01T11:54:30Z</time>
      </trkpt>
      <trkpt lat="43.9055" lon="6.32489">
        <ele>1458.5</ele>
        <time>2019-11-01T11:54:31Z</time>
      </trkpt>
      <trkpt lat="43.90547" lon="6.32493">
        <ele>1458</ele>
        <time>2019-11-01T11:54:33Z</time>
      </trkpt>
      <trkpt lat="43.90544" lon="6.32498">
        <ele>1457.6</ele>
        <time>2019-11-01T11:54:34Z</time>
      </trkpt>
      <trkpt lat="43.90541" lon="6.32504">
        <ele>1457.2</ele>
        <time>2019-11-01T11:54:36Z</time>
      </trkpt>
      <trkpt lat="43.90539" lon="6.32507">
        <ele>1456.9</ele>
        <time>2019-11-01T11:54:37Z</time>
      </trkpt>
      <trkpt lat="43.90537" lon="6.32514">
        <ele>1456.4</ele>
        <time>2019-11-01T11:54:39Z</time>
      </trkpt>
      <trkpt lat="43.90535" lon="6.32519">
        <ele>1456.1</ele>
        <time>2019-11-01T11:54:40Z</time>
      </trkpt>
      <trkpt lat="43.90534" lon="6.32523">
        <ele>1457.2</ele>
        <time>2019-11-01T11:54:42Z</time>
      </trkpt>
      <trkpt lat="43.90534" lon="6.32527">
        <ele>1458.1</ele>
        <time>2019-11-01T11:54:43Z</time>
      </trkpt>
      <trkpt lat="43.90535" lon="6.32532">
        <ele>1459.1</ele>
        <time>2019-11-01T11:54:45Z</time>
      </trkpt>
      <trkpt lat="43.90536" lon="6.32537">
        <ele>1460.1</ele>
        <time>2019-11-01T11:54:47Z</time>
      </trkpt>
      <trkpt lat="43.90538" lon="6.3254">
        <ele>1461</ele>
        <time>2019-11-01T11:54:49Z</time>
      </trkpt>
      <trkpt lat="43.90541" lon="6.32547">
        <ele>1462.5</ele>
        <time>2019-11-01T11:54:51Z</time>
      </trkpt>
      <trkpt lat="43.90544" lon="6.32553">
        <ele>1463.6</ele>
        <time>2019-11-01T11:54:52Z</time>
      </trkpt>
      <trkpt lat="43.90546" lon="6.32559">
        <ele>1464.1</ele>
        <time>2019-11-01T11:54:54Z</time>
      </trkpt>
      <trkpt lat="43.90549" lon="6.32566">
        <ele>1464.7</ele>
        <time>2019-11-01T11:54:55Z</time>
      </trkpt>
      <trkpt lat="43.90551" lon="6.32578">
        <ele>1466.3</ele>
        <time>2019-11-01T11:54:57Z</time>
      </trkpt>
      <trkpt lat="43.9055" lon="6.32592">
        <ele>1468.3</ele>
        <time>2019-11-01T11:54:59Z</time>
      </trkpt>
      <trkpt lat="43.9055" lon="6.32603">
        <ele>1469.4</ele>
        <time>2019-11-01T11:55:01Z</time>
      </trkpt>
      <trkpt lat="43.90553" lon="6.32614">
        <ele>1470.4</ele>
        <time>2019-11-01T11:55:03Z</time>
      </trkpt>
      <trkpt lat="43.90554" lon="6.32626">
        <ele>1471.2</ele>
        <time>2019-11-01T11:55:05Z</time>
      </trkpt>
      <trkpt lat="43.90552" lon="6.32639">
        <ele>1471</ele>
        <time>2019-11-01T11:55:07Z</time>
      </trkpt>
      <trkpt lat="43.9055" lon="6.32644">
        <ele>1470.7</ele>
        <time>2019-11-01T11:55:08Z</time>
      </trkpt>
      <trkpt lat="43.90546" lon="6.32652">
        <ele>1469.5</ele>
        <time>2019-11-01T11:55:10Z</time>
      </trkpt>
      <trkpt lat="43.9054" lon="6.32659">
        <ele>1466.9</ele>
        <time>2019-11-01T11:55:12Z</time>
      </trkpt>
      <trkpt lat="43.90537" lon="6.32663">
        <ele>1465.2</ele>
        <time>2019-11-01T11:55:13Z</time>
      </trkpt>
      <trkpt lat="43.90534" lon="6.32665">
        <ele>1463.7</ele>
        <time>2019-11-01T11:55:14Z</time>
      </trkpt>
      <trkpt lat="43.90527" lon="6.32668">
        <ele>1462.2</ele>
        <time>2019-11-01T11:55:17Z</time>
      </trkpt>
      <trkpt lat="43.90523" lon="6.32677">
        <ele>1461.7</ele>
        <time>2019-11-01T11:55:19Z</time>
      </trkpt>
      <trkpt lat="43.90519" lon="6.32686">
        <ele>1461.6</ele>
        <time>2019-11-01T11:55:20Z</time>
      </trkpt>
      <trkpt lat="43.90517" lon="6.32692">
        <ele>1461.6</ele>
        <time>2019-11-01T11:55:21Z</time>
      </trkpt>
      <trkpt lat="43.90516" lon="6.32697">
        <ele>1460.6</ele>
        <time>2019-11-01T11:55:22Z</time>
      </trkpt>
      <trkpt lat="43.90514" lon="6.32705">
        <ele>1459.5</ele>
        <time>2019-11-01T11:55:24Z</time>
      </trkpt>
      <trkpt lat="43.90511" lon="6.32711">
        <ele>1459.1</ele>
        <time>2019-11-01T11:55:25Z</time>
      </trkpt>
      <trkpt lat="43.90508" lon="6.32716">
        <ele>1458.8</ele>
        <time>2019-11-01T11:55:27Z</time>
      </trkpt>
      <trkpt lat="43.90505" lon="6.32723">
        <ele>1457.8</ele>
        <time>2019-11-01T11:55:28Z</time>
      </trkpt>
      <trkpt lat="43.90501" lon="6.32729">
        <ele>1455.9</ele>
        <time>2019-11-01T11:55:30Z</time>
      </trkpt>
      <trkpt lat="43.90499" lon="6.32733">
        <ele>1455.7</ele>
        <time>2019-11-01T11:55:31Z</time>
      </trkpt>
      <trkpt lat="43.90495" lon="6.3274">
        <ele>1454.1</ele>
        <time>2019-11-01T11:55:32Z</time>
      </trkpt>
      <trkpt lat="43.90492" lon="6.32744">
        <ele>1453</ele>
        <time>2019-11-01T11:55:33Z</time>
      </trkpt>
      <trkpt lat="43.90489" lon="6.32749">
        <ele>1452.8</ele>
        <time>2019-11-01T11:55:35Z</time>
      </trkpt>
      <trkpt lat="43.90485" lon="6.32757">
        <ele>1452.5</ele>
        <time>2019-11-01T11:55:37Z</time>
      </trkpt>
      <trkpt lat="43.90482" lon="6.32764">
        <ele>1453.6</ele>
        <time>2019-11-01T11:55:38Z</time>
      </trkpt>
      <trkpt lat="43.9048" lon="6.3277">
        <ele>1454.1</ele>
        <time>2019-11-01T11:55:39Z</time>
      </trkpt>
      <trkpt lat="43.90479" lon="6.32776">
        <ele>1454.6</ele>
        <time>2019-11-01T11:55:41Z</time>
      </trkpt>
      <trkpt lat="43.90478" lon="6.32784">
        <ele>1455.5</ele>
        <time>2019-11-01T11:55:42Z</time>
      </trkpt>
      <trkpt lat="43.90477" lon="6.32791">
        <ele>1456.3</ele>
        <time>2019-11-01T11:55:44Z</time>
      </trkpt>
      <trkpt lat="43.90477" lon="6.32796">
        <ele>1456.5</ele>
        <time>2019-11-01T11:55:45Z</time>
      </trkpt>
      <trkpt lat="43.90476" lon="6.32803">
        <ele>1457.3</ele>
        <time>2019-11-01T11:55:46Z</time>
      </trkpt>
      <trkpt lat="43.90477" lon="6.32807">
        <ele>1458.3</ele>
        <time>2019-11-01T11:55:48Z</time>
      </trkpt>
      <trkpt lat="43.90476" lon="6.32814">
        <ele>1459.3</ele>
        <time>2019-11-01T11:55:49Z</time>
      </trkpt>
      <trkpt lat="43.90476" lon="6.32818">
        <ele>1459.2</ele>
        <time>2019-11-01T11:55:50Z</time>
      </trkpt>
      <trkpt lat="43.90475" lon="6.32822">
        <ele>1459.1</ele>
        <time>2019-11-01T11:55:52Z</time>
      </trkpt>
      <trkpt lat="43.90475" lon="6.32832">
        <ele>1460.7</ele>
        <time>2019-11-01T11:55:54Z</time>
      </trkpt>
      <trkpt lat="43.90474" lon="6.3284">
        <ele>1461.9</ele>
        <time>2019-11-01T11:55:56Z</time>
      </trkpt>
      <trkpt lat="43.90473" lon="6.32844">
        <ele>1462.4</ele>
        <time>2019-11-01T11:55:57Z</time>
      </trkpt>
      <trkpt lat="43.90472" lon="6.32849">
        <ele>1462.2</ele>
        <time>2019-11-01T11:55:59Z</time>
      </trkpt>
      <trkpt lat="43.9047" lon="6.32852">
        <ele>1461.5</ele>
        <time>2019-11-01T11:56:00Z</time>
      </trkpt>
      <trkpt lat="43.90468" lon="6.32856">
        <ele>1461</ele>
        <time>2019-11-01T11:56:01Z</time>
      </trkpt>
      <trkpt lat="43.90465" lon="6.32859">
        <ele>1460.7</ele>
        <time>2019-11-01T11:56:02Z</time>
      </trkpt>
      <trkpt lat="43.90463" lon="6.32862">
        <ele>1461.3</ele>
        <time>2019-11-01T11:56:04Z</time>
      </trkpt>
      <trkpt lat="43.90461" lon="6.32867">
        <ele>1462.3</ele>
        <time>2019-11-01T11:56:05Z</time>
      </trkpt>
      <trkpt lat="43.90461" lon="6.32872">
        <ele>1462.8</ele>
        <time>2019-11-01T11:56:06Z</time>
      </trkpt>
      <trkpt lat="43.9046" lon="6.32877">
        <ele>1463</ele>
        <time>2019-11-01T11:56:07Z</time>
      </trkpt>
      <trkpt lat="43.90459" lon="6.32881">
        <ele>1463.2</ele>
        <time>2019-11-01T11:56:08Z</time>
      </trkpt>
      <trkpt lat="43.90457" lon="6.32886">
        <ele>1463.5</ele>
        <time>2019-11-01T11:56:10Z</time>
      </trkpt>
      <trkpt lat="43.90455" lon="6.32889">
        <ele>1463</ele>
        <time>2019-11-01T11:56:11Z</time>
      </trkpt>
      <trkpt lat="43.90453" lon="6.32893">
        <ele>1462.4</ele>
        <time>2019-11-01T11:56:12Z</time>
      </trkpt>
      <trkpt lat="43.9045" lon="6.32897">
        <ele>1462.2</ele>
        <time>2019-11-01T11:56:13Z</time>
      </trkpt>
      <trkpt lat="43.90448" lon="6.329">
        <ele>1462.2</ele>
        <time>2019-11-01T11:56:15Z</time>
      </trkpt>
      <trkpt lat="43.90445" lon="6.32907">
        <ele>1461.7</ele>
        <time>2019-11-01T11:56:17Z</time>
      </trkpt>
      <trkpt lat="43.90442" lon="6.32913">
        <ele>1461.2</ele>
        <time>2019-11-01T11:56:19Z</time>
      </trkpt>
      <trkpt lat="43.90439" lon="6.3292">
        <ele>1460.9</ele>
        <time>2019-11-01T11:56:20Z</time>
      </trkpt>
      <trkpt lat="43.90437" lon="6.32926">
        <ele>1461</ele>
        <time>2019-11-01T11:56:22Z</time>
      </trkpt>
      <trkpt lat="43.90435" lon="6.3293">
        <ele>1461.1</ele>
        <time>2019-11-01T11:56:23Z</time>
      </trkpt>
      <trkpt lat="43.90433" lon="6.32935">
        <ele>1461.2</ele>
        <time>2019-11-01T11:56:25Z</time>
      </trkpt>
      <trkpt lat="43.90431" lon="6.32939">
        <ele>1461.1</ele>
        <time>2019-11-01T11:56:26Z</time>
      </trkpt>
      <trkpt lat="43.90427" lon="6.32945">
        <ele>1460.3</ele>
        <time>2019-11-01T11:56:27Z</time>
      </trkpt>
      <trkpt lat="43.90424" lon="6.32949">
        <ele>1459.8</ele>
        <time>2019-11-01T11:56:28Z</time>
      </trkpt>
      <trkpt lat="43.9042" lon="6.32954">
        <ele>1459</ele>
        <time>2019-11-01T11:56:30Z</time>
      </trkpt>
      <trkpt lat="43.90417" lon="6.32956">
        <ele>1458.6</ele>
        <time>2019-11-01T11:56:32Z</time>
      </trkpt>
      <trkpt lat="43.90414" lon="6.3296">
        <ele>1458</ele>
        <time>2019-11-01T11:56:33Z</time>
      </trkpt>
      <trkpt lat="43.90411" lon="6.32964">
        <ele>1457.9</ele>
        <time>2019-11-01T11:56:34Z</time>
      </trkpt>
      <trkpt lat="43.90407" lon="6.32971">
        <ele>1458</ele>
        <time>2019-11-01T11:56:37Z</time>
      </trkpt>
      <trkpt lat="43.90404" lon="6.32976">
        <ele>1457.5</ele>
        <time>2019-11-01T11:56:39Z</time>
      </trkpt>
      <trkpt lat="43.90402" lon="6.32982">
        <ele>1457.1</ele>
        <time>2019-11-01T11:56:41Z</time>
      </trkpt>
      <trkpt lat="43.904" lon="6.32984">
        <ele>1457.1</ele>
        <time>2019-11-01T11:56:43Z</time>
      </trkpt>
      <trkpt lat="43.90393" lon="6.32991">
        <ele>1456.3</ele>
        <time>2019-11-01T11:56:58Z</time>
      </trkpt>
      <trkpt lat="43.90391" lon="6.32994">
        <ele>1456.2</ele>
        <time>2019-11-01T11:57:00Z</time>
      </trkpt>
      <trkpt lat="43.90391" lon="6.32998">
        <ele>1456.9</ele>
        <time>2019-11-01T11:57:01Z</time>
      </trkpt>
      <trkpt lat="43.90391" lon="6.33002">
        <ele>1457.6</ele>
        <time>2019-11-01T11:57:03Z</time>
      </trkpt>
      <trkpt lat="43.90392" lon="6.33006">
        <ele>1458.5</ele>
        <time>2019-11-01T11:57:04Z</time>
      </trkpt>
      <trkpt lat="43.90393" lon="6.33014">
        <ele>1459.3</ele>
        <time>2019-11-01T11:57:06Z</time>
      </trkpt>
      <trkpt lat="43.90394" lon="6.33019">
        <ele>1459.9</ele>
        <time>2019-11-01T11:57:07Z</time>
      </trkpt>
      <trkpt lat="43.90395" lon="6.33026">
        <ele>1460.6</ele>
        <time>2019-11-01T11:57:08Z</time>
      </trkpt>
      <trkpt lat="43.90395" lon="6.33031">
        <ele>1460.8</ele>
        <time>2019-11-01T11:57:10Z</time>
      </trkpt>
      <trkpt lat="43.90394" lon="6.33035">
        <ele>1460.7</ele>
        <time>2019-11-01T11:57:11Z</time>
      </trkpt>
      <trkpt lat="43.90393" lon="6.33045">
        <ele>1460.8</ele>
        <time>2019-11-01T11:57:12Z</time>
      </trkpt>
      <trkpt lat="43.90392" lon="6.33049">
        <ele>1461.2</ele>
        <time>2019-11-01T11:57:14Z</time>
      </trkpt>
      <trkpt lat="43.90391" lon="6.33054">
        <ele>1461.7</ele>
        <time>2019-11-01T11:57:15Z</time>
      </trkpt>
      <trkpt lat="43.90387" lon="6.33068">
        <ele>1461.1</ele>
        <time>2019-11-01T11:57:17Z</time>
      </trkpt>
      <trkpt lat="43.90383" lon="6.3308">
        <ele>1459.9</ele>
        <time>2019-11-01T11:57:19Z</time>
      </trkpt>
      <trkpt lat="43.90381" lon="6.33087">
        <ele>1459.1</ele>
        <time>2019-11-01T11:57:20Z</time>
      </trkpt>
      <trkpt lat="43.90379" lon="6.33094">
        <ele>1458.8</ele>
        <time>2019-11-01T11:57:21Z</time>
      </trkpt>
      <trkpt lat="43.90374" lon="6.33108">
        <ele>1458.3</ele>
        <time>2019-11-01T11:57:23Z</time>
      </trkpt>
      <trkpt lat="43.90371" lon="6.33114">
        <ele>1458.1</ele>
        <time>2019-11-01T11:57:24Z</time>
      </trkpt>
      <trkpt lat="43.90365" lon="6.33125">
        <ele>1456.9</ele>
        <time>2019-11-01T11:57:26Z</time>
      </trkpt>
      <trkpt lat="43.90356" lon="6.33137">
        <ele>1454.7</ele>
        <time>2019-11-01T11:57:28Z</time>
      </trkpt>
      <trkpt lat="43.9035" lon="6.33143">
        <ele>1454.4</ele>
        <time>2019-11-01T11:57:29Z</time>
      </trkpt>
      <trkpt lat="43.90344" lon="6.33149">
        <ele>1454.2</ele>
        <time>2019-11-01T11:57:30Z</time>
      </trkpt>
      <trkpt lat="43.90333" lon="6.33159">
        <ele>1452.5</ele>
        <time>2019-11-01T11:57:32Z</time>
      </trkpt>
      <trkpt lat="43.90323" lon="6.33171">
        <ele>1451.6</ele>
        <time>2019-11-01T11:57:34Z</time>
      </trkpt>
      <trkpt lat="43.90318" lon="6.33177">
        <ele>1450.7</ele>
        <time>2019-11-01T11:57:35Z</time>
      </trkpt>
      <trkpt lat="43.90307" lon="6.33189">
        <ele>1448.3</ele>
        <time>2019-11-01T11:57:37Z</time>
      </trkpt>
      <trkpt lat="43.90293" lon="6.332">
        <ele>1446.9</ele>
        <time>2019-11-01T11:57:39Z</time>
      </trkpt>
      <trkpt lat="43.90282" lon="6.33208">
        <ele>1444.6</ele>
        <time>2019-11-01T11:57:41Z</time>
      </trkpt>
      <trkpt lat="43.90273" lon="6.33218">
        <ele>1442.9</ele>
        <time>2019-11-01T11:57:43Z</time>
      </trkpt>
      <trkpt lat="43.90263" lon="6.33228">
        <ele>1442.6</ele>
        <time>2019-11-01T11:57:45Z</time>
      </trkpt>
      <trkpt lat="43.90255" lon="6.33241">
        <ele>1442.2</ele>
        <time>2019-11-01T11:57:47Z</time>
      </trkpt>
      <trkpt lat="43.90248" lon="6.33247">
        <ele>1440</ele>
        <time>2019-11-01T11:57:49Z</time>
      </trkpt>
      <trkpt lat="43.90242" lon="6.3324">
        <ele>1438.2</ele>
        <time>2019-11-01T11:57:51Z</time>
      </trkpt>
      <trkpt lat="43.90248" lon="6.33225">
        <ele>1437</ele>
        <time>2019-11-01T11:57:53Z</time>
      </trkpt>
      <trkpt lat="43.90257" lon="6.3321">
        <ele>1436</ele>
        <time>2019-11-01T11:57:55Z</time>
      </trkpt>
      <trkpt lat="43.90261" lon="6.33192">
        <ele>1434.1</ele>
        <time>2019-11-01T11:57:57Z</time>
      </trkpt>
      <trkpt lat="43.90261" lon="6.3317">
        <ele>1431.3</ele>
        <time>2019-11-01T11:57:59Z</time>
      </trkpt>
      <trkpt lat="43.90261" lon="6.3316">
        <ele>1430.2</ele>
        <time>2019-11-01T11:58:00Z</time>
      </trkpt>
      <trkpt lat="43.90262" lon="6.33141">
        <ele>1428.8</ele>
        <time>2019-11-01T11:58:02Z</time>
      </trkpt>
      <trkpt lat="43.90263" lon="6.33132">
        <ele>1428.1</ele>
        <time>2019-11-01T11:58:03Z</time>
      </trkpt>
      <trkpt lat="43.90265" lon="6.33114">
        <ele>1426.6</ele>
        <time>2019-11-01T11:58:05Z</time>
      </trkpt>
      <trkpt lat="43.90266" lon="6.33106">
        <ele>1426.1</ele>
        <time>2019-11-01T11:58:06Z</time>
      </trkpt>
      <trkpt lat="43.90267" lon="6.3309">
        <ele>1424.8</ele>
        <time>2019-11-01T11:58:08Z</time>
      </trkpt>
      <trkpt lat="43.90264" lon="6.33071">
        <ele>1422.2</ele>
        <time>2019-11-01T11:58:10Z</time>
      </trkpt>
      <trkpt lat="43.9026" lon="6.33061">
        <ele>1420.5</ele>
        <time>2019-11-01T11:58:11Z</time>
      </trkpt>
      <trkpt lat="43.90254" lon="6.33044">
        <ele>1417.1</ele>
        <time>2019-11-01T11:58:13Z</time>
      </trkpt>
      <trkpt lat="43.90251" lon="6.33035">
        <ele>1415.7</ele>
        <time>2019-11-01T11:58:14Z</time>
      </trkpt>
      <trkpt lat="43.90248" lon="6.33028">
        <ele>1414</ele>
        <time>2019-11-01T11:58:15Z</time>
      </trkpt>
      <trkpt lat="43.90243" lon="6.33015">
        <ele>1412.2</ele>
        <time>2019-11-01T11:58:17Z</time>
      </trkpt>
      <trkpt lat="43.90238" lon="6.33005">
        <ele>1409.8</ele>
        <time>2019-11-01T11:58:19Z</time>
      </trkpt>
      <trkpt lat="43.90234" lon="6.33003">
        <ele>1409.2</ele>
        <time>2019-11-01T11:58:20Z</time>
      </trkpt>
      <trkpt lat="43.9023" lon="6.33007">
        <ele>1408.9</ele>
        <time>2019-11-01T11:58:21Z</time>
      </trkpt>
      <trkpt lat="43.90227" lon="6.3302">
        <ele>1410.2</ele>
        <time>2019-11-01T11:58:23Z</time>
      </trkpt>
      <trkpt lat="43.90228" lon="6.33027">
        <ele>1411.3</ele>
        <time>2019-11-01T11:58:24Z</time>
      </trkpt>
      <trkpt lat="43.90232" lon="6.33039">
        <ele>1412.1</ele>
        <time>2019-11-01T11:58:26Z</time>
      </trkpt>
      <trkpt lat="43.9023" lon="6.33053">
        <ele>1412.2</ele>
        <time>2019-11-01T11:58:28Z</time>
      </trkpt>
      <trkpt lat="43.90227" lon="6.3306">
        <ele>1412.1</ele>
        <time>2019-11-01T11:58:29Z</time>
      </trkpt>
      <trkpt lat="43.90221" lon="6.33075">
        <ele>1411.6</ele>
        <time>2019-11-01T11:58:31Z</time>
      </trkpt>
      <trkpt lat="43.9021" lon="6.33087">
        <ele>1410.3</ele>
        <time>2019-11-01T11:58:33Z</time>
      </trkpt>
      <trkpt lat="43.90203" lon="6.33091">
        <ele>1409.1</ele>
        <time>2019-11-01T11:58:34Z</time>
      </trkpt>
      <trkpt lat="43.90189" lon="6.33096">
        <ele>1406.9</ele>
        <time>2019-11-01T11:58:36Z</time>
      </trkpt>
      <trkpt lat="43.90182" lon="6.33099">
        <ele>1406.1</ele>
        <time>2019-11-01T11:58:37Z</time>
      </trkpt>
      <trkpt lat="43.90169" lon="6.33106">
        <ele>1406</ele>
        <time>2019-11-01T11:58:39Z</time>
      </trkpt>
      <trkpt lat="43.90164" lon="6.33121">
        <ele>1406.4</ele>
        <time>2019-11-01T11:58:41Z</time>
      </trkpt>
      <trkpt lat="43.90162" lon="6.33128">
        <ele>1407.4</ele>
        <time>2019-11-01T11:58:42Z</time>
      </trkpt>
      <trkpt lat="43.90159" lon="6.33144">
        <ele>1409.3</ele>
        <time>2019-11-01T11:58:44Z</time>
      </trkpt>
      <trkpt lat="43.90159" lon="6.33151">
        <ele>1409.4</ele>
        <time>2019-11-01T11:58:45Z</time>
      </trkpt>
      <trkpt lat="43.9016" lon="6.33158">
        <ele>1409.7</ele>
        <time>2019-11-01T11:58:46Z</time>
      </trkpt>
      <trkpt lat="43.90157" lon="6.33169">
        <ele>1409.4</ele>
        <time>2019-11-01T11:58:48Z</time>
      </trkpt>
      <trkpt lat="43.90151" lon="6.33173">
        <ele>1408.5</ele>
        <time>2019-11-01T11:58:49Z</time>
      </trkpt>
      <trkpt lat="43.90138" lon="6.33171">
        <ele>1405.6</ele>
        <time>2019-11-01T11:58:51Z</time>
      </trkpt>
      <trkpt lat="43.90132" lon="6.33168">
        <ele>1404.5</ele>
        <time>2019-11-01T11:58:52Z</time>
      </trkpt>
      <trkpt lat="43.90119" lon="6.33163">
        <ele>1402.6</ele>
        <time>2019-11-01T11:58:54Z</time>
      </trkpt>
      <trkpt lat="43.90106" lon="6.33161">
        <ele>1401.8</ele>
        <time>2019-11-01T11:58:56Z</time>
      </trkpt>
      <trkpt lat="43.90099" lon="6.33162">
        <ele>1401.8</ele>
        <time>2019-11-01T11:58:57Z</time>
      </trkpt>
      <trkpt lat="43.90088" lon="6.33172">
        <ele>1401.2</ele>
        <time>2019-11-01T11:58:59Z</time>
      </trkpt>
      <trkpt lat="43.90077" lon="6.33182">
        <ele>1399.7</ele>
        <time>2019-11-01T11:59:01Z</time>
      </trkpt>
      <trkpt lat="43.90072" lon="6.33183">
        <ele>1398.7</ele>
        <time>2019-11-01T11:59:02Z</time>
      </trkpt>
      <trkpt lat="43.90066" lon="6.33181">
        <ele>1397.3</ele>
        <time>2019-11-01T11:59:03Z</time>
      </trkpt>
      <trkpt lat="43.90052" lon="6.33173">
        <ele>1394.2</ele>
        <time>2019-11-01T11:59:05Z</time>
      </trkpt>
      <trkpt lat="43.90037" lon="6.33169">
        <ele>1390.6</ele>
        <time>2019-11-01T11:59:07Z</time>
      </trkpt>
      <trkpt lat="43.90029" lon="6.33167">
        <ele>1388.7</ele>
        <time>2019-11-01T11:59:08Z</time>
      </trkpt>
      <trkpt lat="43.90022" lon="6.33165">
        <ele>1387.1</ele>
        <time>2019-11-01T11:59:09Z</time>
      </trkpt>
      <trkpt lat="43.9001" lon="6.33156">
        <ele>1384.3</ele>
        <time>2019-11-01T11:59:11Z</time>
      </trkpt>
      <trkpt lat="43.90005" lon="6.33152">
        <ele>1383.4</ele>
        <time>2019-11-01T11:59:12Z</time>
      </trkpt>
      <trkpt lat="43.89994" lon="6.33147">
        <ele>1381.7</ele>
        <time>2019-11-01T11:59:14Z</time>
      </trkpt>
      <trkpt lat="43.89979" lon="6.33147">
        <ele>1379.1</ele>
        <time>2019-11-01T11:59:16Z</time>
      </trkpt>
      <trkpt lat="43.89972" lon="6.33147">
        <ele>1377.3</ele>
        <time>2019-11-01T11:59:17Z</time>
      </trkpt>
      <trkpt lat="43.89967" lon="6.33145">
        <ele>1375.9</ele>
        <time>2019-11-01T11:59:18Z</time>
      </trkpt>
      <trkpt lat="43.89958" lon="6.33133">
        <ele>1373.5</ele>
        <time>2019-11-01T11:59:20Z</time>
      </trkpt>
      <trkpt lat="43.89948" lon="6.33119">
        <ele>1371.4</ele>
        <time>2019-11-01T11:59:22Z</time>
      </trkpt>
      <trkpt lat="43.89943" lon="6.33115">
        <ele>1370.4</ele>
        <time>2019-11-01T11:59:23Z</time>
      </trkpt>
      <trkpt lat="43.89934" lon="6.33105">
        <ele>1368</ele>
        <time>2019-11-01T11:59:25Z</time>
      </trkpt>
      <trkpt lat="43.89931" lon="6.331">
        <ele>1368</ele>
        <time>2019-11-01T11:59:26Z</time>
      </trkpt>
      <trkpt lat="43.89922" lon="6.33096">
        <ele>1367.2</ele>
        <time>2019-11-01T11:59:28Z</time>
      </trkpt>
      <trkpt lat="43.89916" lon="6.331">
        <ele>1367</ele>
        <time>2019-11-01T11:59:29Z</time>
      </trkpt>
      <trkpt lat="43.89912" lon="6.33105">
        <ele>1366.7</ele>
        <time>2019-11-01T11:59:30Z</time>
      </trkpt>
      <trkpt lat="43.89908" lon="6.33112">
        <ele>1366.7</ele>
        <time>2019-11-01T11:59:31Z</time>
      </trkpt>
      <trkpt lat="43.899" lon="6.33125">
        <ele>1365.8</ele>
        <time>2019-11-01T11:59:33Z</time>
      </trkpt>
      <trkpt lat="43.89893" lon="6.3313">
        <ele>1365.3</ele>
        <time>2019-11-01T11:59:34Z</time>
      </trkpt>
      <trkpt lat="43.8988" lon="6.33136">
        <ele>1365.8</ele>
        <time>2019-11-01T11:59:36Z</time>
      </trkpt>
      <trkpt lat="43.89875" lon="6.33142">
        <ele>1366.1</ele>
        <time>2019-11-01T11:59:37Z</time>
      </trkpt>
      <trkpt lat="43.8987" lon="6.33149">
        <ele>1366.8</ele>
        <time>2019-11-01T11:59:38Z</time>
      </trkpt>
      <trkpt lat="43.89867" lon="6.33158">
        <ele>1367.6</ele>
        <time>2019-11-01T11:59:39Z</time>
      </trkpt>
      <trkpt lat="43.89863" lon="6.33178">
        <ele>1368.7</ele>
        <time>2019-11-01T11:59:41Z</time>
      </trkpt>
      <trkpt lat="43.89863" lon="6.33187">
        <ele>1368.5</ele>
        <time>2019-11-01T11:59:42Z</time>
      </trkpt>
      <trkpt lat="43.89861" lon="6.33193">
        <ele>1368.1</ele>
        <time>2019-11-01T11:59:43Z</time>
      </trkpt>
      <trkpt lat="43.89853" lon="6.33201">
        <ele>1366.8</ele>
        <time>2019-11-01T11:59:45Z</time>
      </trkpt>
      <trkpt lat="43.89839" lon="6.33203">
        <ele>1365.4</ele>
        <time>2019-11-01T11:59:47Z</time>
      </trkpt>
      <trkpt lat="43.89832" lon="6.33204">
        <ele>1364.7</ele>
        <time>2019-11-01T11:59:48Z</time>
      </trkpt>
      <trkpt lat="43.89819" lon="6.33213">
        <ele>1364.2</ele>
        <time>2019-11-01T11:59:50Z</time>
      </trkpt>
      <trkpt lat="43.89813" lon="6.33221">
        <ele>1364.2</ele>
        <time>2019-11-01T11:59:51Z</time>
      </trkpt>
      <trkpt lat="43.89808" lon="6.33229">
        <ele>1363.8</ele>
        <time>2019-11-01T11:59:52Z</time>
      </trkpt>
      <trkpt lat="43.89803" lon="6.33236">
        <ele>1363</ele>
        <time>2019-11-01T11:59:53Z</time>
      </trkpt>
      <trkpt lat="43.8979" lon="6.33243">
        <ele>1360.7</ele>
        <time>2019-11-01T11:59:55Z</time>
      </trkpt>
      <trkpt lat="43.89778" lon="6.3324">
        <ele>1358.7</ele>
        <time>2019-11-01T11:59:57Z</time>
      </trkpt>
      <trkpt lat="43.89768" lon="6.33235">
        <ele>1358.2</ele>
        <time>2019-11-01T11:59:59Z</time>
      </trkpt>
      <trkpt lat="43.89757" lon="6.3324">
        <ele>1357.5</ele>
        <time>2019-11-01T12:00:01Z</time>
      </trkpt>
      <trkpt lat="43.89746" lon="6.33251">
        <ele>1355.8</ele>
        <time>2019-11-01T12:00:03Z</time>
      </trkpt>
      <trkpt lat="43.89733" lon="6.33251">
        <ele>1353.1</ele>
        <time>2019-11-01T12:00:05Z</time>
      </trkpt>
      <trkpt lat="43.89727" lon="6.33247">
        <ele>1351.8</ele>
        <time>2019-11-01T12:00:06Z</time>
      </trkpt>
      <trkpt lat="43.89715" lon="6.33241">
        <ele>1350.5</ele>
        <time>2019-11-01T12:00:08Z</time>
      </trkpt>
      <trkpt lat="43.89709" lon="6.33241">
        <ele>1350.3</ele>
        <time>2019-11-01T12:00:09Z</time>
      </trkpt>
      <trkpt lat="43.89704" lon="6.33244">
        <ele>1350.2</ele>
        <time>2019-11-01T12:00:10Z</time>
      </trkpt>
      <trkpt lat="43.89699" lon="6.33248">
        <ele>1349.6</ele>
        <time>2019-11-01T12:00:11Z</time>
      </trkpt>
      <trkpt lat="43.89692" lon="6.33258">
        <ele>1350.5</ele>
        <time>2019-11-01T12:00:13Z</time>
      </trkpt>
      <trkpt lat="43.89691" lon="6.33263">
        <ele>1350.7</ele>
        <time>2019-11-01T12:00:14Z</time>
      </trkpt>
      <trkpt lat="43.89693" lon="6.33272">
        <ele>1350.7</ele>
        <time>2019-11-01T12:00:16Z</time>
      </trkpt>
      <trkpt lat="43.89694" lon="6.33279">
        <ele>1350.4</ele>
        <time>2019-11-01T12:00:18Z</time>
      </trkpt>
      <trkpt lat="43.89692" lon="6.33286">
        <ele>1350.2</ele>
        <time>2019-11-01T12:00:20Z</time>
      </trkpt>
      <trkpt lat="43.89691" lon="6.3329">
        <ele>1350</ele>
        <time>2019-11-01T12:00:21Z</time>
      </trkpt>
      <trkpt lat="43.89687" lon="6.33298">
        <ele>1349.3</ele>
        <time>2019-11-01T12:00:24Z</time>
      </trkpt>
      <trkpt lat="43.89683" lon="6.33305">
        <ele>1348.5</ele>
        <time>2019-11-01T12:00:25Z</time>
      </trkpt>
      <trkpt lat="43.89677" lon="6.33313">
        <ele>1347.7</ele>
        <time>2019-11-01T12:00:27Z</time>
      </trkpt>
      <trkpt lat="43.89675" lon="6.33319">
        <ele>1347.2</ele>
        <time>2019-11-01T12:00:28Z</time>
      </trkpt>
      <trkpt lat="43.89673" lon="6.33324">
        <ele>1347</ele>
        <time>2019-11-01T12:00:29Z</time>
      </trkpt>
      <trkpt lat="43.89671" lon="6.3333">
        <ele>1346.9</ele>
        <time>2019-11-01T12:00:30Z</time>
      </trkpt>
      <trkpt lat="43.8967" lon="6.33338">
        <ele>1346.8</ele>
        <time>2019-11-01T12:00:33Z</time>
      </trkpt>
      <trkpt lat="43.89668" lon="6.33348">
        <ele>1346.7</ele>
        <time>2019-11-01T12:00:34Z</time>
      </trkpt>
      <trkpt lat="43.89668" lon="6.33354">
        <ele>1346.7</ele>
        <time>2019-11-01T12:00:35Z</time>
      </trkpt>
      <trkpt lat="43.89668" lon="6.33368">
        <ele>1346.6</ele>
        <time>2019-11-01T12:00:37Z</time>
      </trkpt>
      <trkpt lat="43.89669" lon="6.33377">
        <ele>1346.5</ele>
        <time>2019-11-01T12:00:38Z</time>
      </trkpt>
      <trkpt lat="43.8967" lon="6.33395">
        <ele>1346.3</ele>
        <time>2019-11-01T12:00:40Z</time>
      </trkpt>
      <trkpt lat="43.89671" lon="6.33404">
        <ele>1346.8</ele>
        <time>2019-11-01T12:00:41Z</time>
      </trkpt>
      <trkpt lat="43.89671" lon="6.33414">
        <ele>1346.9</ele>
        <time>2019-11-01T12:00:42Z</time>
      </trkpt>
      <trkpt lat="43.89672" lon="6.33423">
        <ele>1347.4</ele>
        <time>2019-11-01T12:00:43Z</time>
      </trkpt>
      <trkpt lat="43.89676" lon="6.33439">
        <ele>1346.8</ele>
        <time>2019-11-01T12:00:45Z</time>
      </trkpt>
      <trkpt lat="43.89676" lon="6.33454">
        <ele>1344.8</ele>
        <time>2019-11-01T12:00:47Z</time>
      </trkpt>
      <trkpt lat="43.89668" lon="6.33466">
        <ele>1342.8</ele>
        <time>2019-11-01T12:00:49Z</time>
      </trkpt>
      <trkpt lat="43.89659" lon="6.33478">
        <ele>1342</ele>
        <time>2019-11-01T12:00:51Z</time>
      </trkpt>
      <trkpt lat="43.89655" lon="6.33485">
        <ele>1341</ele>
        <time>2019-11-01T12:00:52Z</time>
      </trkpt>
      <trkpt lat="43.89646" lon="6.33501">
        <ele>1338.3</ele>
        <time>2019-11-01T12:00:54Z</time>
      </trkpt>
      <trkpt lat="43.89635" lon="6.33511">
        <ele>1336.1</ele>
        <time>2019-11-01T12:00:56Z</time>
      </trkpt>
      <trkpt lat="43.89629" lon="6.33516">
        <ele>1335</ele>
        <time>2019-11-01T12:00:57Z</time>
      </trkpt>
      <trkpt lat="43.89619" lon="6.33528">
        <ele>1332.9</ele>
        <time>2019-11-01T12:00:59Z</time>
      </trkpt>
      <trkpt lat="43.89613" lon="6.33534">
        <ele>1331.8</ele>
        <time>2019-11-01T12:01:00Z</time>
      </trkpt>
      <trkpt lat="43.89604" lon="6.33548">
        <ele>1330.7</ele>
        <time>2019-11-01T12:01:02Z</time>
      </trkpt>
      <trkpt lat="43.896" lon="6.33554">
        <ele>1329.8</ele>
        <time>2019-11-01T12:01:03Z</time>
      </trkpt>
      <trkpt lat="43.89592" lon="6.33567">
        <ele>1328.6</ele>
        <time>2019-11-01T12:01:05Z</time>
      </trkpt>
      <trkpt lat="43.89589" lon="6.33575">
        <ele>1327.7</ele>
        <time>2019-11-01T12:01:06Z</time>
      </trkpt>
      <trkpt lat="43.89583" lon="6.33589">
        <ele>1327.2</ele>
        <time>2019-11-01T12:01:08Z</time>
      </trkpt>
      <trkpt lat="43.89578" lon="6.33606">
        <ele>1325.7</ele>
        <time>2019-11-01T12:01:10Z</time>
      </trkpt>
      <trkpt lat="43.89573" lon="6.33623">
        <ele>1323.7</ele>
        <time>2019-11-01T12:01:12Z</time>
      </trkpt>
      <trkpt lat="43.89565" lon="6.33638">
        <ele>1322.7</ele>
        <time>2019-11-01T12:01:14Z</time>
      </trkpt>
      <trkpt lat="43.89561" lon="6.33655">
        <ele>1322.8</ele>
        <time>2019-11-01T12:01:16Z</time>
      </trkpt>
      <trkpt lat="43.8956" lon="6.33665">
        <ele>1322.4</ele>
        <time>2019-11-01T12:01:17Z</time>
      </trkpt>
      <trkpt lat="43.89558" lon="6.33673">
        <ele>1321.7</ele>
        <time>2019-11-01T12:01:18Z</time>
      </trkpt>
      <trkpt lat="43.89552" lon="6.33687">
        <ele>1319.4</ele>
        <time>2019-11-01T12:01:20Z</time>
      </trkpt>
      <trkpt lat="43.89546" lon="6.33693">
        <ele>1318.2</ele>
        <time>2019-11-01T12:01:21Z</time>
      </trkpt>
      <trkpt lat="43.89539" lon="6.33698">
        <ele>1317.6</ele>
        <time>2019-11-01T12:01:22Z</time>
      </trkpt>
      <trkpt lat="43.8953" lon="6.33711">
        <ele>1315.6</ele>
        <time>2019-11-01T12:01:24Z</time>
      </trkpt>
      <trkpt lat="43.89525" lon="6.33718">
        <ele>1314.6</ele>
        <time>2019-11-01T12:01:25Z</time>
      </trkpt>
      <trkpt lat="43.89521" lon="6.33724">
        <ele>1313.4</ele>
        <time>2019-11-01T12:01:26Z</time>
      </trkpt>
      <trkpt lat="43.89516" lon="6.33729">
        <ele>1312.2</ele>
        <time>2019-11-01T12:01:27Z</time>
      </trkpt>
      <trkpt lat="43.89509" lon="6.33742">
        <ele>1311.9</ele>
        <time>2019-11-01T12:01:29Z</time>
      </trkpt>
      <trkpt lat="43.89506" lon="6.33751">
        <ele>1312.1</ele>
        <time>2019-11-01T12:01:30Z</time>
      </trkpt>
      <trkpt lat="43.89503" lon="6.33772">
        <ele>1311</ele>
        <time>2019-11-01T12:01:32Z</time>
      </trkpt>
      <trkpt lat="43.89499" lon="6.33787">
        <ele>1309.4</ele>
        <time>2019-11-01T12:01:34Z</time>
      </trkpt>
      <trkpt lat="43.89489" lon="6.33796">
        <ele>1307.4</ele>
        <time>2019-11-01T12:01:36Z</time>
      </trkpt>
      <trkpt lat="43.89477" lon="6.33803">
        <ele>1305.5</ele>
        <time>2019-11-01T12:01:38Z</time>
      </trkpt>
      <trkpt lat="43.89474" lon="6.33808">
        <ele>1304.6</ele>
        <time>2019-11-01T12:01:39Z</time>
      </trkpt>
      <trkpt lat="43.89469" lon="6.33821">
        <ele>1303.5</ele>
        <time>2019-11-01T12:01:41Z</time>
      </trkpt>
      <trkpt lat="43.89459" lon="6.33837">
        <ele>1301.4</ele>
        <time>2019-11-01T12:01:43Z</time>
      </trkpt>
      <trkpt lat="43.89453" lon="6.33845">
        <ele>1300.9</ele>
        <time>2019-11-01T12:01:44Z</time>
      </trkpt>
      <trkpt lat="43.89442" lon="6.33865">
        <ele>1298.5</ele>
        <time>2019-11-01T12:01:46Z</time>
      </trkpt>
      <trkpt lat="43.89437" lon="6.33875">
        <ele>1298.1</ele>
        <time>2019-11-01T12:01:47Z</time>
      </trkpt>
      <trkpt lat="43.89427" lon="6.33895">
        <ele>1297.1</ele>
        <time>2019-11-01T12:01:49Z</time>
      </trkpt>
      <trkpt lat="43.89419" lon="6.33915">
        <ele>1296.5</ele>
        <time>2019-11-01T12:01:51Z</time>
      </trkpt>
      <trkpt lat="43.89417" lon="6.33925">
        <ele>1296</ele>
        <time>2019-11-01T12:01:52Z</time>
      </trkpt>
      <trkpt lat="43.89413" lon="6.33948">
        <ele>1296</ele>
        <time>2019-11-01T12:01:54Z</time>
      </trkpt>
      <trkpt lat="43.89412" lon="6.33969">
        <ele>1296.2</ele>
        <time>2019-11-01T12:01:56Z</time>
      </trkpt>
      <trkpt lat="43.89412" lon="6.3399">
        <ele>1295.9</ele>
        <time>2019-11-01T12:01:58Z</time>
      </trkpt>
      <trkpt lat="43.89414" lon="6.34009">
        <ele>1296.3</ele>
        <time>2019-11-01T12:02:00Z</time>
      </trkpt>
      <trkpt lat="43.89414" lon="6.34019">
        <ele>1296.6</ele>
        <time>2019-11-01T12:02:01Z</time>
      </trkpt>
      <trkpt lat="43.89413" lon="6.34037">
        <ele>1296.9</ele>
        <time>2019-11-01T12:02:03Z</time>
      </trkpt>
      <trkpt lat="43.89408" lon="6.34051">
        <ele>1295.5</ele>
        <time>2019-11-01T12:02:05Z</time>
      </trkpt>
      <trkpt lat="43.894" lon="6.34064">
        <ele>1294</ele>
        <time>2019-11-01T12:02:07Z</time>
      </trkpt>
      <trkpt lat="43.89394" lon="6.34076">
        <ele>1293.6</ele>
        <time>2019-11-01T12:02:09Z</time>
      </trkpt>
      <trkpt lat="43.89392" lon="6.34084">
        <ele>1293.7</ele>
        <time>2019-11-01T12:02:10Z</time>
      </trkpt>
      <trkpt lat="43.8939" lon="6.34101">
        <ele>1292.8</ele>
        <time>2019-11-01T12:02:12Z</time>
      </trkpt>
      <trkpt lat="43.89389" lon="6.3411">
        <ele>1292.1</ele>
        <time>2019-11-01T12:02:13Z</time>
      </trkpt>
      <trkpt lat="43.89384" lon="6.34125">
        <ele>1290.1</ele>
        <time>2019-11-01T12:02:15Z</time>
      </trkpt>
      <trkpt lat="43.89375" lon="6.34137">
        <ele>1287.6</ele>
        <time>2019-11-01T12:02:17Z</time>
      </trkpt>
      <trkpt lat="43.89365" lon="6.34149">
        <ele>1285.3</ele>
        <time>2019-11-01T12:02:19Z</time>
      </trkpt>
      <trkpt lat="43.89361" lon="6.34156">
        <ele>1284.5</ele>
        <time>2019-11-01T12:02:20Z</time>
      </trkpt>
      <trkpt lat="43.89359" lon="6.34165">
        <ele>1283.8</ele>
        <time>2019-11-01T12:02:21Z</time>
      </trkpt>
      <trkpt lat="43.89356" lon="6.34182">
        <ele>1283.2</ele>
        <time>2019-11-01T12:02:23Z</time>
      </trkpt>
      <trkpt lat="43.89353" lon="6.3419">
        <ele>1282</ele>
        <time>2019-11-01T12:02:24Z</time>
      </trkpt>
      <trkpt lat="43.89344" lon="6.34208">
        <ele>1280</ele>
        <time>2019-11-01T12:02:26Z</time>
      </trkpt>
      <trkpt lat="43.89339" lon="6.34217">
        <ele>1279.1</ele>
        <time>2019-11-01T12:02:27Z</time>
      </trkpt>
      <trkpt lat="43.8933" lon="6.34234">
        <ele>1277.1</ele>
        <time>2019-11-01T12:02:29Z</time>
      </trkpt>
      <trkpt lat="43.89325" lon="6.34242">
        <ele>1276.2</ele>
        <time>2019-11-01T12:02:30Z</time>
      </trkpt>
      <trkpt lat="43.89317" lon="6.34255">
        <ele>1274.5</ele>
        <time>2019-11-01T12:02:32Z</time>
      </trkpt>
      <trkpt lat="43.89314" lon="6.3427">
        <ele>1274.6</ele>
        <time>2019-11-01T12:02:34Z</time>
      </trkpt>
      <trkpt lat="43.89316" lon="6.34278">
        <ele>1274.8</ele>
        <time>2019-11-01T12:02:35Z</time>
      </trkpt>
      <trkpt lat="43.8932" lon="6.34291">
        <ele>1275.8</ele>
        <time>2019-11-01T12:02:37Z</time>
      </trkpt>
      <trkpt lat="43.89322" lon="6.34297">
        <ele>1276.4</ele>
        <time>2019-11-01T12:02:38Z</time>
      </trkpt>
      <trkpt lat="43.8932" lon="6.34305">
        <ele>1276.7</ele>
        <time>2019-11-01T12:02:40Z</time>
      </trkpt>
      <trkpt lat="43.89316" lon="6.34305">
        <ele>1275.9</ele>
        <time>2019-11-01T12:02:41Z</time>
      </trkpt>
      <trkpt lat="43.89308" lon="6.34297">
        <ele>1274.1</ele>
        <time>2019-11-01T12:02:43Z</time>
      </trkpt>
      <trkpt lat="43.89301" lon="6.34284">
        <ele>1271.8</ele>
        <time>2019-11-01T12:02:45Z</time>
      </trkpt>
      <trkpt lat="43.89298" lon="6.3428">
        <ele>1270.7</ele>
        <time>2019-11-01T12:02:46Z</time>
      </trkpt>
      <trkpt lat="43.89293" lon="6.34276">
        <ele>1270.1</ele>
        <time>2019-11-01T12:02:47Z</time>
      </trkpt>
      <trkpt lat="43.89284" lon="6.3427">
        <ele>1268.4</ele>
        <time>2019-11-01T12:02:49Z</time>
      </trkpt>
      <trkpt lat="43.8928" lon="6.34266">
        <ele>1266.9</ele>
        <time>2019-11-01T12:02:50Z</time>
      </trkpt>
      <trkpt lat="43.89272" lon="6.34255">
        <ele>1265.2</ele>
        <time>2019-11-01T12:02:52Z</time>
      </trkpt>
      <trkpt lat="43.89266" lon="6.34243">
        <ele>1264</ele>
        <time>2019-11-01T12:02:54Z</time>
      </trkpt>
      <trkpt lat="43.89264" lon="6.34229">
        <ele>1263</ele>
        <time>2019-11-01T12:02:56Z</time>
      </trkpt>
      <trkpt lat="43.89265" lon="6.34221">
        <ele>1262.7</ele>
        <time>2019-11-01T12:02:57Z</time>
      </trkpt>
      <trkpt lat="43.89265" lon="6.34205">
        <ele>1262.8</ele>
        <time>2019-11-01T12:02:59Z</time>
      </trkpt>
      <trkpt lat="43.89264" lon="6.34185">
        <ele>1262.5</ele>
        <time>2019-11-01T12:03:01Z</time>
      </trkpt>
      <trkpt lat="43.89262" lon="6.34175">
        <ele>1261.7</ele>
        <time>2019-11-01T12:03:02Z</time>
      </trkpt>
      <trkpt lat="43.89258" lon="6.34158">
        <ele>1260.9</ele>
        <time>2019-11-01T12:03:04Z</time>
      </trkpt>
      <trkpt lat="43.89255" lon="6.34149">
        <ele>1260.1</ele>
        <time>2019-11-01T12:03:05Z</time>
      </trkpt>
      <trkpt lat="43.89249" lon="6.34131">
        <ele>1258.3</ele>
        <time>2019-11-01T12:03:07Z</time>
      </trkpt>
      <trkpt lat="43.89245" lon="6.34112">
        <ele>1257.2</ele>
        <time>2019-11-01T12:03:09Z</time>
      </trkpt>
      <trkpt lat="43.89243" lon="6.34092">
        <ele>1256.2</ele>
        <time>2019-11-01T12:03:11Z</time>
      </trkpt>
      <trkpt lat="43.8924" lon="6.34083">
        <ele>1255.8</ele>
        <time>2019-11-01T12:03:12Z</time>
      </trkpt>
      <trkpt lat="43.89232" lon="6.34065">
        <ele>1253.6</ele>
        <time>2019-11-01T12:03:14Z</time>
      </trkpt>
      <trkpt lat="43.89227" lon="6.34046">
        <ele>1251.6</ele>
        <time>2019-11-01T12:03:16Z</time>
      </trkpt>
      <trkpt lat="43.89224" lon="6.3403">
        <ele>1251.4</ele>
        <time>2019-11-01T12:03:18Z</time>
      </trkpt>
      <trkpt lat="43.89222" lon="6.34026">
        <ele>1251.3</ele>
        <time>2019-11-01T12:03:19Z</time>
      </trkpt>
      <trkpt lat="43.89217" lon="6.34024">
        <ele>1250.1</ele>
        <time>2019-11-01T12:03:21Z</time>
      </trkpt>
      <trkpt lat="43.89212" lon="6.34029">
        <ele>1248.5</ele>
        <time>2019-11-01T12:03:37Z</time>
      </trkpt>
      <trkpt lat="43.89211" lon="6.34033">
        <ele>1247.7</ele>
        <time>2019-11-01T12:03:49Z</time>
      </trkpt>
      <trkpt lat="43.8921" lon="6.34036">
        <ele>1247.2</ele>
        <time>2019-11-01T12:03:50Z</time>
      </trkpt>
      <trkpt lat="43.89207" lon="6.3404">
        <ele>1246.3</ele>
        <time>2019-11-01T12:03:51Z</time>
      </trkpt>
      <trkpt lat="43.89205" lon="6.34045">
        <ele>1245.8</ele>
        <time>2019-11-01T12:03:52Z</time>
      </trkpt>
      <trkpt lat="43.89204" lon="6.34049">
        <ele>1245.6</ele>
        <time>2019-11-01T12:03:53Z</time>
      </trkpt>
      <trkpt lat="43.89203" lon="6.34053">
        <ele>1245.3</ele>
        <time>2019-11-01T12:03:55Z</time>
      </trkpt>
      <trkpt lat="43.89201" lon="6.34057">
        <ele>1245</ele>
        <time>2019-11-01T12:03:57Z</time>
      </trkpt>
      <trkpt lat="43.89199" lon="6.34061">
        <ele>1244.7</ele>
        <time>2019-11-01T12:07:21Z</time>
      </trkpt>
      <trkpt lat="43.89198" lon="6.34066">
        <ele>1244.4</ele>
        <time>2019-11-01T12:07:23Z</time>
      </trkpt>
      <trkpt lat="43.89197" lon="6.34072">
        <ele>1244</ele>
        <time>2019-11-01T12:07:25Z</time>
      </trkpt>
      <trkpt lat="43.89196" lon="6.34076">
        <ele>1243.7</ele>
        <time>2019-11-01T12:07:27Z</time>
      </trkpt>
      <trkpt lat="43.89195" lon="6.3408">
        <ele>1243.4</ele>
        <time>2019-11-01T12:07:28Z</time>
      </trkpt>
      <trkpt lat="43.89194" lon="6.34085">
        <ele>1243</ele>
        <time>2019-11-01T12:07:29Z</time>
      </trkpt>
      <trkpt lat="43.89193" lon="6.34092">
        <ele>1242.3</ele>
        <time>2019-11-01T12:07:30Z</time>
      </trkpt>
      <trkpt lat="43.8919" lon="6.34104">
        <ele>1241</ele>
        <time>2019-11-01T12:07:32Z</time>
      </trkpt>
      <trkpt lat="43.89189" lon="6.34112">
        <ele>1240.7</ele>
        <time>2019-11-01T12:07:33Z</time>
      </trkpt>
      <trkpt lat="43.89187" lon="6.34121">
        <ele>1240.4</ele>
        <time>2019-11-01T12:07:34Z</time>
      </trkpt>
      <trkpt lat="43.89182" lon="6.3414">
        <ele>1238.9</ele>
        <time>2019-11-01T12:07:36Z</time>
      </trkpt>
      <trkpt lat="43.89178" lon="6.34159">
        <ele>1237.5</ele>
        <time>2019-11-01T12:07:38Z</time>
      </trkpt>
      <trkpt lat="43.89173" lon="6.34178">
        <ele>1235.9</ele>
        <time>2019-11-01T12:07:40Z</time>
      </trkpt>
      <trkpt lat="43.8917" lon="6.34186">
        <ele>1234.8</ele>
        <time>2019-11-01T12:07:41Z</time>
      </trkpt>
      <trkpt lat="43.89167" lon="6.34204">
        <ele>1232.6</ele>
        <time>2019-11-01T12:07:43Z</time>
      </trkpt>
      <trkpt lat="43.89165" lon="6.34222">
        <ele>1231.8</ele>
        <time>2019-11-01T12:07:45Z</time>
      </trkpt>
      <trkpt lat="43.89163" lon="6.34228">
        <ele>1231.5</ele>
        <time>2019-11-01T12:07:46Z</time>
      </trkpt>
      <trkpt lat="43.89161" lon="6.34236">
        <ele>1231</ele>
        <time>2019-11-01T12:07:48Z</time>
      </trkpt>
      <trkpt lat="43.8916" lon="6.34242">
        <ele>1230.6</ele>
        <time>2019-11-01T12:08:00Z</time>
      </trkpt>
      <trkpt lat="43.89161" lon="6.34247">
        <ele>1230.6</ele>
        <time>2019-11-01T12:08:02Z</time>
      </trkpt>
      <trkpt lat="43.89164" lon="6.34255">
        <ele>1229.9</ele>
        <time>2019-11-01T12:08:05Z</time>
      </trkpt>
      <trkpt lat="43.89166" lon="6.34261">
        <ele>1229.9</ele>
        <time>2019-11-01T12:08:07Z</time>
      </trkpt>
      <trkpt lat="43.89167" lon="6.34266">
        <ele>1230</ele>
        <time>2019-11-01T12:08:08Z</time>
      </trkpt>
      <trkpt lat="43.89168" lon="6.34272">
        <ele>1230.1</ele>
        <time>2019-11-01T12:08:09Z</time>
      </trkpt>
      <trkpt lat="43.89172" lon="6.34284">
        <ele>1229.2</ele>
        <time>2019-11-01T12:08:11Z</time>
      </trkpt>
      <trkpt lat="43.89174" lon="6.3429">
        <ele>1229.1</ele>
        <time>2019-11-01T12:08:12Z</time>
      </trkpt>
      <trkpt lat="43.89178" lon="6.34303">
        <ele>1229.2</ele>
        <time>2019-11-01T12:08:14Z</time>
      </trkpt>
      <trkpt lat="43.89181" lon="6.34318">
        <ele>1229.2</ele>
        <time>2019-11-01T12:08:16Z</time>
      </trkpt>
      <trkpt lat="43.89183" lon="6.34335">
        <ele>1228.2</ele>
        <time>2019-11-01T12:08:18Z</time>
      </trkpt>
      <trkpt lat="43.89183" lon="6.34353">
        <ele>1225.8</ele>
        <time>2019-11-01T12:08:20Z</time>
      </trkpt>
      <trkpt lat="43.89183" lon="6.34363">
        <ele>1224.4</ele>
        <time>2019-11-01T12:08:21Z</time>
      </trkpt>
      <trkpt lat="43.89182" lon="6.34372">
        <ele>1223.1</ele>
        <time>2019-11-01T12:08:22Z</time>
      </trkpt>
      <trkpt lat="43.89181" lon="6.34382">
        <ele>1221.5</ele>
        <time>2019-11-01T12:08:23Z</time>
      </trkpt>
      <trkpt lat="43.89182" lon="6.34391">
        <ele>1219.2</ele>
        <time>2019-11-01T12:08:24Z</time>
      </trkpt>
      <trkpt lat="43.89185" lon="6.34409">
        <ele>1218.8</ele>
        <time>2019-11-01T12:08:26Z</time>
      </trkpt>
      <trkpt lat="43.89187" lon="6.34418">
        <ele>1218.2</ele>
        <time>2019-11-01T12:08:27Z</time>
      </trkpt>
      <trkpt lat="43.89186" lon="6.34433">
        <ele>1215.8</ele>
        <time>2019-11-01T12:08:29Z</time>
      </trkpt>
      <trkpt lat="43.89181" lon="6.34451">
        <ele>1212.5</ele>
        <time>2019-11-01T12:08:31Z</time>
      </trkpt>
      <trkpt lat="43.89177" lon="6.3446">
        <ele>1210.7</ele>
        <time>2019-11-01T12:08:32Z</time>
      </trkpt>
      <trkpt lat="43.89171" lon="6.34474">
        <ele>1207.9</ele>
        <time>2019-11-01T12:08:34Z</time>
      </trkpt>
      <trkpt lat="43.89172" lon="6.34491">
        <ele>1206.9</ele>
        <time>2019-11-01T12:08:36Z</time>
      </trkpt>
      <trkpt lat="43.89172" lon="6.345">
        <ele>1206.5</ele>
        <time>2019-11-01T12:08:37Z</time>
      </trkpt>
      <trkpt lat="43.89169" lon="6.34516">
        <ele>1204.5</ele>
        <time>2019-11-01T12:08:39Z</time>
      </trkpt>
      <trkpt lat="43.89161" lon="6.34535">
        <ele>1201.3</ele>
        <time>2019-11-01T12:08:41Z</time>
      </trkpt>
      <trkpt lat="43.89153" lon="6.34558">
        <ele>1198.9</ele>
        <time>2019-11-01T12:08:43Z</time>
      </trkpt>
      <trkpt lat="43.89145" lon="6.34579">
        <ele>1196.1</ele>
        <time>2019-11-01T12:08:45Z</time>
      </trkpt>
      <trkpt lat="43.8914" lon="6.34601">
        <ele>1193.7</ele>
        <time>2019-11-01T12:08:47Z</time>
      </trkpt>
      <trkpt lat="43.89137" lon="6.34624">
        <ele>1192</ele>
        <time>2019-11-01T12:08:49Z</time>
      </trkpt>
      <trkpt lat="43.89135" lon="6.34634">
        <ele>1192</ele>
        <time>2019-11-01T12:08:50Z</time>
      </trkpt>
      <trkpt lat="43.89128" lon="6.34652">
        <ele>1188.7</ele>
        <time>2019-11-01T12:08:52Z</time>
      </trkpt>
      <trkpt lat="43.89119" lon="6.34668">
        <ele>1186.3</ele>
        <time>2019-11-01T12:08:54Z</time>
      </trkpt>
      <trkpt lat="43.89115" lon="6.34689">
        <ele>1185</ele>
        <time>2019-11-01T12:08:56Z</time>
      </trkpt>
      <trkpt lat="43.8911" lon="6.34711">
        <ele>1186</ele>
        <time>2019-11-01T12:08:58Z</time>
      </trkpt>
      <trkpt lat="43.89103" lon="6.34732">
        <ele>1184.9</ele>
        <time>2019-11-01T12:09:00Z</time>
      </trkpt>
      <trkpt lat="43.89099" lon="6.3474">
        <ele>1183.1</ele>
        <time>2019-11-01T12:09:01Z</time>
      </trkpt>
      <trkpt lat="43.89089" lon="6.34755">
        <ele>1183.4</ele>
        <time>2019-11-01T12:09:03Z</time>
      </trkpt>
      <trkpt lat="43.89084" lon="6.34773">
        <ele>1184.4</ele>
        <time>2019-11-01T12:09:05Z</time>
      </trkpt>
      <trkpt lat="43.89081" lon="6.34781">
        <ele>1184.8</ele>
        <time>2019-11-01T12:09:06Z</time>
      </trkpt>
      <trkpt lat="43.89072" lon="6.34788">
        <ele>1184</ele>
        <time>2019-11-01T12:09:08Z</time>
      </trkpt>
      <trkpt lat="43.89058" lon="6.34791">
        <ele>1181.4</ele>
        <time>2019-11-01T12:09:10Z</time>
      </trkpt>
      <trkpt lat="43.89044" lon="6.34794">
        <ele>1177.5</ele>
        <time>2019-11-01T12:09:12Z</time>
      </trkpt>
      <trkpt lat="43.89031" lon="6.348">
        <ele>1175.1</ele>
        <time>2019-11-01T12:09:14Z</time>
      </trkpt>
      <trkpt lat="43.89015" lon="6.34807">
        <ele>1172.7</ele>
        <time>2019-11-01T12:09:16Z</time>
      </trkpt>
      <trkpt lat="43.89003" lon="6.34817">
        <ele>1171.9</ele>
        <time>2019-11-01T12:09:18Z</time>
      </trkpt>
      <trkpt lat="43.88993" lon="6.34823">
        <ele>1171.4</ele>
        <time>2019-11-01T12:09:20Z</time>
      </trkpt>
      <trkpt lat="43.88988" lon="6.3482">
        <ele>1169.9</ele>
        <time>2019-11-01T12:09:21Z</time>
      </trkpt>
      <trkpt lat="43.88986" lon="6.34809">
        <ele>1167.2</ele>
        <time>2019-11-01T12:09:23Z</time>
      </trkpt>
      <trkpt lat="43.88989" lon="6.34803">
        <ele>1165.5</ele>
        <time>2019-11-01T12:09:24Z</time>
      </trkpt>
      <trkpt lat="43.88992" lon="6.34797">
        <ele>1163.6</ele>
        <time>2019-11-01T12:09:25Z</time>
      </trkpt>
      <trkpt lat="43.89" lon="6.34787">
        <ele>1164.2</ele>
        <time>2019-11-01T12:09:27Z</time>
      </trkpt>
      <trkpt lat="43.89008" lon="6.34773">
        <ele>1162.9</ele>
        <time>2019-11-01T12:09:29Z</time>
      </trkpt>
      <trkpt lat="43.89012" lon="6.34765">
        <ele>1162.1</ele>
        <time>2019-11-01T12:09:30Z</time>
      </trkpt>
      <trkpt lat="43.8902" lon="6.3475">
        <ele>1161.2</ele>
        <time>2019-11-01T12:09:32Z</time>
      </trkpt>
      <trkpt lat="43.89024" lon="6.34743">
        <ele>1161.3</ele>
        <time>2019-11-01T12:09:33Z</time>
      </trkpt>
      <trkpt lat="43.89028" lon="6.34727">
        <ele>1160</ele>
        <time>2019-11-01T12:09:35Z</time>
      </trkpt>
      <trkpt lat="43.89029" lon="6.34718">
        <ele>1159.2</ele>
        <time>2019-11-01T12:09:36Z</time>
      </trkpt>
      <trkpt lat="43.89029" lon="6.347">
        <ele>1157.5</ele>
        <time>2019-11-01T12:09:38Z</time>
      </trkpt>
      <trkpt lat="43.89024" lon="6.34683">
        <ele>1156.3</ele>
        <time>2019-11-01T12:09:40Z</time>
      </trkpt>
      <trkpt lat="43.89023" lon="6.34674">
        <ele>1155.5</ele>
        <time>2019-11-01T12:09:41Z</time>
      </trkpt>
      <trkpt lat="43.89028" lon="6.34656">
        <ele>1155.9</ele>
        <time>2019-11-01T12:09:43Z</time>
      </trkpt>
      <trkpt lat="43.89032" lon="6.34642">
        <ele>1156.8</ele>
        <time>2019-11-01T12:09:45Z</time>
      </trkpt>
      <trkpt lat="43.89029" lon="6.34636">
        <ele>1156.9</ele>
        <time>2019-11-01T12:09:46Z</time>
      </trkpt>
      <trkpt lat="43.89019" lon="6.34639">
        <ele>1155.6</ele>
        <time>2019-11-01T12:09:48Z</time>
      </trkpt>
      <trkpt lat="43.89012" lon="6.34654">
        <ele>1152.9</ele>
        <time>2019-11-01T12:09:50Z</time>
      </trkpt>
      <trkpt lat="43.89008" lon="6.34662">
        <ele>1151.6</ele>
        <time>2019-11-01T12:09:51Z</time>
      </trkpt>
      <trkpt lat="43.88998" lon="6.34677">
        <ele>1149.5</ele>
        <time>2019-11-01T12:09:53Z</time>
      </trkpt>
      <trkpt lat="43.88991" lon="6.34685">
        <ele>1147.4</ele>
        <time>2019-11-01T12:09:54Z</time>
      </trkpt>
      <trkpt lat="43.88984" lon="6.34692">
        <ele>1146.6</ele>
        <time>2019-11-01T12:09:55Z</time>
      </trkpt>
      <trkpt lat="43.88969" lon="6.34702">
        <ele>1143.6</ele>
        <time>2019-11-01T12:09:57Z</time>
      </trkpt>
      <trkpt lat="43.88961" lon="6.34706">
        <ele>1141.7</ele>
        <time>2019-11-01T12:09:58Z</time>
      </trkpt>
      <trkpt lat="43.88953" lon="6.34709">
        <ele>1140.4</ele>
        <time>2019-11-01T12:09:59Z</time>
      </trkpt>
      <trkpt lat="43.88939" lon="6.34719">
        <ele>1137</ele>
        <time>2019-11-01T12:10:01Z</time>
      </trkpt>
      <trkpt lat="43.88933" lon="6.34725">
        <ele>1136.4</ele>
        <time>2019-11-01T12:10:02Z</time>
      </trkpt>
      <trkpt lat="43.88924" lon="6.34731">
        <ele>1134.3</ele>
        <time>2019-11-01T12:10:04Z</time>
      </trkpt>
      <trkpt lat="43.88919" lon="6.34729">
        <ele>1133.3</ele>
        <time>2019-11-01T12:10:05Z</time>
      </trkpt>
      <trkpt lat="43.88915" lon="6.34718">
        <ele>1131.8</ele>
        <time>2019-11-01T12:10:07Z</time>
      </trkpt>
      <trkpt lat="43.88917" lon="6.34711">
        <ele>1131.2</ele>
        <time>2019-11-01T12:10:08Z</time>
      </trkpt>
      <trkpt lat="43.88923" lon="6.34701">
        <ele>1131.3</ele>
        <time>2019-11-01T12:10:10Z</time>
      </trkpt>
      <trkpt lat="43.88926" lon="6.34697">
        <ele>1131.5</ele>
        <time>2019-11-01T12:10:11Z</time>
      </trkpt>
      <trkpt lat="43.88928" lon="6.34689">
        <ele>1131.9</ele>
        <time>2019-11-01T12:11:57Z</time>
      </trkpt>
      <trkpt lat="43.88929" lon="6.34685">
        <ele>1132.1</ele>
        <time>2019-11-01T12:11:58Z</time>
      </trkpt>
      <trkpt lat="43.8893" lon="6.34679">
        <ele>1132.4</ele>
        <time>2019-11-01T12:11:59Z</time>
      </trkpt>
      <trkpt lat="43.88933" lon="6.34667">
        <ele>1133.7</ele>
        <time>2019-11-01T12:12:01Z</time>
      </trkpt>
      <trkpt lat="43.88937" lon="6.34654">
        <ele>1134.4</ele>
        <time>2019-11-01T12:12:03Z</time>
      </trkpt>
      <trkpt lat="43.8894" lon="6.34647">
        <ele>1134.9</ele>
        <time>2019-11-01T12:12:04Z</time>
      </trkpt>
      <trkpt lat="43.88941" lon="6.3464">
        <ele>1135.6</ele>
        <time>2019-11-01T12:12:05Z</time>
      </trkpt>
      <trkpt lat="43.88943" lon="6.34622">
        <ele>1136.3</ele>
        <time>2019-11-01T12:12:07Z</time>
      </trkpt>
      <trkpt lat="43.8894" lon="6.34604">
        <ele>1136.7</ele>
        <time>2019-11-01T12:12:09Z</time>
      </trkpt>
      <trkpt lat="43.88933" lon="6.34587">
        <ele>1135.4</ele>
        <time>2019-11-01T12:12:11Z</time>
      </trkpt>
      <trkpt lat="43.88929" lon="6.34578">
        <ele>1134.6</ele>
        <time>2019-11-01T12:12:12Z</time>
      </trkpt>
      <trkpt lat="43.88925" lon="6.34568">
        <ele>1134.1</ele>
        <time>2019-11-01T12:12:13Z</time>
      </trkpt>
      <trkpt lat="43.8892" lon="6.34558">
        <ele>1133.8</ele>
        <time>2019-11-01T12:12:14Z</time>
      </trkpt>
      <trkpt lat="43.88915" lon="6.3455">
        <ele>1132.8</ele>
        <time>2019-11-01T12:12:15Z</time>
      </trkpt>
      <trkpt lat="43.8891" lon="6.34544">
        <ele>1131.4</ele>
        <time>2019-11-01T12:12:16Z</time>
      </trkpt>
      <trkpt lat="43.88905" lon="6.34537">
        <ele>1129.7</ele>
        <time>2019-11-01T12:12:17Z</time>
      </trkpt>
      <trkpt lat="43.88895" lon="6.34526">
        <ele>1127.1</ele>
        <time>2019-11-01T12:12:19Z</time>
      </trkpt>
      <trkpt lat="43.88891" lon="6.34521">
        <ele>1126.6</ele>
        <time>2019-11-01T12:12:20Z</time>
      </trkpt>
      <trkpt lat="43.88889" lon="6.34508">
        <ele>1125.9</ele>
        <time>2019-11-01T12:12:22Z</time>
      </trkpt>
      <trkpt lat="43.8889" lon="6.3449">
        <ele>1126.5</ele>
        <time>2019-11-01T12:12:24Z</time>
      </trkpt>
      <trkpt lat="43.8889" lon="6.34481">
        <ele>1126.6</ele>
        <time>2019-11-01T12:12:25Z</time>
      </trkpt>
      <trkpt lat="43.88886" lon="6.34472">
        <ele>1126.6</ele>
        <time>2019-11-01T12:12:27Z</time>
      </trkpt>
      <trkpt lat="43.88881" lon="6.34472">
        <ele>1125.6</ele>
        <time>2019-11-01T12:12:28Z</time>
      </trkpt>
      <trkpt lat="43.88877" lon="6.34476">
        <ele>1124.4</ele>
        <time>2019-11-01T12:12:29Z</time>
      </trkpt>
      <trkpt lat="43.88873" lon="6.34482">
        <ele>1123.1</ele>
        <time>2019-11-01T12:12:30Z</time>
      </trkpt>
      <trkpt lat="43.88867" lon="6.34496">
        <ele>1121.5</ele>
        <time>2019-11-01T12:12:32Z</time>
      </trkpt>
      <trkpt lat="43.88863" lon="6.34504">
        <ele>1120.4</ele>
        <time>2019-11-01T12:12:33Z</time>
      </trkpt>
      <trkpt lat="43.8886" lon="6.3452">
        <ele>1119</ele>
        <time>2019-11-01T12:12:35Z</time>
      </trkpt>
      <trkpt lat="43.88858" lon="6.34529">
        <ele>1118.5</ele>
        <time>2019-11-01T12:12:36Z</time>
      </trkpt>
      <trkpt lat="43.88855" lon="6.34547">
        <ele>1116.9</ele>
        <time>2019-11-01T12:12:38Z</time>
      </trkpt>
      <trkpt lat="43.8885" lon="6.34562">
        <ele>1115.6</ele>
        <time>2019-11-01T12:12:40Z</time>
      </trkpt>
      <trkpt lat="43.88839" lon="6.3457">
        <ele>1112.9</ele>
        <time>2019-11-01T12:12:42Z</time>
      </trkpt>
      <trkpt lat="43.88832" lon="6.34572">
        <ele>1110.9</ele>
        <time>2019-11-01T12:12:43Z</time>
      </trkpt>
      <trkpt lat="43.88818" lon="6.34575">
        <ele>1107.6</ele>
        <time>2019-11-01T12:12:45Z</time>
      </trkpt>
      <trkpt lat="43.8881" lon="6.34576">
        <ele>1106</ele>
        <time>2019-11-01T12:12:46Z</time>
      </trkpt>
      <trkpt lat="43.88794" lon="6.34578">
        <ele>1103</ele>
        <time>2019-11-01T12:12:48Z</time>
      </trkpt>
      <trkpt lat="43.88778" lon="6.34579">
        <ele>1100.1</ele>
        <time>2019-11-01T12:12:50Z</time>
      </trkpt>
      <trkpt lat="43.88769" lon="6.34581">
        <ele>1098.3</ele>
        <time>2019-11-01T12:12:51Z</time>
      </trkpt>
      <trkpt lat="43.88753" lon="6.34586">
        <ele>1096.1</ele>
        <time>2019-11-01T12:12:53Z</time>
      </trkpt>
      <trkpt lat="43.88738" lon="6.34594">
        <ele>1093.8</ele>
        <time>2019-11-01T12:12:55Z</time>
      </trkpt>
      <trkpt lat="43.88731" lon="6.34598">
        <ele>1092.7</ele>
        <time>2019-11-01T12:12:56Z</time>
      </trkpt>
      <trkpt lat="43.88718" lon="6.34606">
        <ele>1090.5</ele>
        <time>2019-11-01T12:12:58Z</time>
      </trkpt>
      <trkpt lat="43.88714" lon="6.34609">
        <ele>1089.7</ele>
        <time>2019-11-01T12:12:59Z</time>
      </trkpt>
      <trkpt lat="43.88708" lon="6.34615">
        <ele>1088.5</ele>
        <time>2019-11-01T12:13:01Z</time>
      </trkpt>
      <trkpt lat="43.88705" lon="6.34619">
        <ele>1087.8</ele>
        <time>2019-11-01T12:13:03Z</time>
      </trkpt>
      <trkpt lat="43.88699" lon="6.34625">
        <ele>1086.3</ele>
        <time>2019-11-01T12:13:15Z</time>
      </trkpt>
      <trkpt lat="43.88697" lon="6.34627">
        <ele>1086</ele>
        <time>2019-11-01T12:13:16Z</time>
      </trkpt>
      <trkpt lat="43.88693" lon="6.34633">
        <ele>1084.8</ele>
        <time>2019-11-01T12:13:18Z</time>
      </trkpt>
      <trkpt lat="43.8869" lon="6.34637">
        <ele>1084.2</ele>
        <time>2019-11-01T12:13:19Z</time>
      </trkpt>
      <trkpt lat="43.88682" lon="6.34647">
        <ele>1081.7</ele>
        <time>2019-11-01T12:13:21Z</time>
      </trkpt>
      <trkpt lat="43.8868" lon="6.34654">
        <ele>1080.7</ele>
        <time>2019-11-01T12:13:22Z</time>
      </trkpt>
      <trkpt lat="43.88677" lon="6.34668">
        <ele>1078</ele>
        <time>2019-11-01T12:13:24Z</time>
      </trkpt>
      <trkpt lat="43.88676" lon="6.34682">
        <ele>1075.8</ele>
        <time>2019-11-01T12:13:26Z</time>
      </trkpt>
      <trkpt lat="43.88674" lon="6.34685">
        <ele>1074.6</ele>
        <time>2019-11-01T12:13:27Z</time>
      </trkpt>
      <trkpt lat="43.88671" lon="6.34687">
        <ele>1073.6</ele>
        <time>2019-11-01T12:13:28Z</time>
      </trkpt>
      <trkpt lat="43.88666" lon="6.34685">
        <ele>1073</ele>
        <time>2019-11-01T12:13:30Z</time>
      </trkpt>
      <trkpt lat="43.88663" lon="6.34681">
        <ele>1073.1</ele>
        <time>2019-11-01T12:13:31Z</time>
      </trkpt>
      <trkpt lat="43.88657" lon="6.34673">
        <ele>1073</ele>
        <time>2019-11-01T12:13:33Z</time>
      </trkpt>
      <trkpt lat="43.88652" lon="6.34669">
        <ele>1072.2</ele>
        <time>2019-11-01T12:13:34Z</time>
      </trkpt>
      <trkpt lat="43.88645" lon="6.34665">
        <ele>1071.4</ele>
        <time>2019-11-01T12:13:36Z</time>
      </trkpt>
      <trkpt lat="43.88637" lon="6.34659">
        <ele>1071.1</ele>
        <time>2019-11-01T12:13:38Z</time>
      </trkpt>
      <trkpt lat="43.8863" lon="6.34652">
        <ele>1070.5</ele>
        <time>2019-11-01T12:13:40Z</time>
      </trkpt>
      <trkpt lat="43.88626" lon="6.34646">
        <ele>1070.4</ele>
        <time>2019-11-01T12:13:41Z</time>
      </trkpt>
      <trkpt lat="43.88621" lon="6.34636">
        <ele>1071</ele>
        <time>2019-11-01T12:13:43Z</time>
      </trkpt>
      <trkpt lat="43.88618" lon="6.3463">
        <ele>1071.6</ele>
        <time>2019-11-01T12:13:44Z</time>
      </trkpt>
      <trkpt lat="43.88616" lon="6.34624">
        <ele>1071.9</ele>
        <time>2019-11-01T12:13:45Z</time>
      </trkpt>
      <trkpt lat="43.88611" lon="6.34611">
        <ele>1072.3</ele>
        <time>2019-11-01T12:13:47Z</time>
      </trkpt>
      <trkpt lat="43.88606" lon="6.34597">
        <ele>1072.1</ele>
        <time>2019-11-01T12:13:49Z</time>
      </trkpt>
      <trkpt lat="43.88603" lon="6.3459">
        <ele>1072</ele>
        <time>2019-11-01T12:13:50Z</time>
      </trkpt>
      <trkpt lat="43.88593" lon="6.3458">
        <ele>1070.7</ele>
        <time>2019-11-01T12:13:52Z</time>
      </trkpt>
      <trkpt lat="43.88582" lon="6.34575">
        <ele>1068.6</ele>
        <time>2019-11-01T12:13:54Z</time>
      </trkpt>
      <trkpt lat="43.88568" lon="6.34573">
        <ele>1065.9</ele>
        <time>2019-11-01T12:13:56Z</time>
      </trkpt>
      <trkpt lat="43.88554" lon="6.34573">
        <ele>1063.2</ele>
        <time>2019-11-01T12:13:58Z</time>
      </trkpt>
      <trkpt lat="43.88541" lon="6.34573">
        <ele>1060.9</ele>
        <time>2019-11-01T12:14:00Z</time>
      </trkpt>
      <trkpt lat="43.88536" lon="6.34573">
        <ele>1059.6</ele>
        <time>2019-11-01T12:14:01Z</time>
      </trkpt>
      <trkpt lat="43.88525" lon="6.34578">
        <ele>1057.1</ele>
        <time>2019-11-01T12:14:03Z</time>
      </trkpt>
      <trkpt lat="43.88519" lon="6.34584">
        <ele>1056</ele>
        <time>2019-11-01T12:14:04Z</time>
      </trkpt>
      <trkpt lat="43.88514" lon="6.34593">
        <ele>1054.6</ele>
        <time>2019-11-01T12:14:05Z</time>
      </trkpt>
      <trkpt lat="43.88506" lon="6.34611">
        <ele>1052.8</ele>
        <time>2019-11-01T12:14:07Z</time>
      </trkpt>
      <trkpt lat="43.88503" lon="6.34629">
        <ele>1051.7</ele>
        <time>2019-11-01T12:14:09Z</time>
      </trkpt>
      <trkpt lat="43.88506" lon="6.34643">
        <ele>1052.4</ele>
        <time>2019-11-01T12:14:11Z</time>
      </trkpt>
      <trkpt lat="43.88515" lon="6.34655">
        <ele>1053</ele>
        <time>2019-11-01T12:14:13Z</time>
      </trkpt>
      <trkpt lat="43.88525" lon="6.34666">
        <ele>1053.4</ele>
        <time>2019-11-01T12:14:15Z</time>
      </trkpt>
      <trkpt lat="43.88535" lon="6.34678">
        <ele>1053.2</ele>
        <time>2019-11-01T12:14:17Z</time>
      </trkpt>
      <trkpt lat="43.8854" lon="6.34685">
        <ele>1052.8</ele>
        <time>2019-11-01T12:14:18Z</time>
      </trkpt>
      <trkpt lat="43.8855" lon="6.34699">
        <ele>1052.4</ele>
        <time>2019-11-01T12:14:20Z</time>
      </trkpt>
      <trkpt lat="43.8856" lon="6.34712">
        <ele>1050.7</ele>
        <time>2019-11-01T12:14:22Z</time>
      </trkpt>
      <trkpt lat="43.88565" lon="6.34719">
        <ele>1049.6</ele>
        <time>2019-11-01T12:14:23Z</time>
      </trkpt>
      <trkpt lat="43.8857" lon="6.34725">
        <ele>1049.3</ele>
        <time>2019-11-01T12:14:24Z</time>
      </trkpt>
      <trkpt lat="43.88575" lon="6.34728">
        <ele>1048.8</ele>
        <time>2019-11-01T12:14:25Z</time>
      </trkpt>
      <trkpt lat="43.88582" lon="6.34734">
        <ele>1047.8</ele>
        <time>2019-11-01T12:14:27Z</time>
      </trkpt>
      <trkpt lat="43.88583" lon="6.34738">
        <ele>1047.1</ele>
        <time>2019-11-01T12:14:28Z</time>
      </trkpt>
      <trkpt lat="43.88575" lon="6.34746">
        <ele>1045</ele>
        <time>2019-11-01T12:14:30Z</time>
      </trkpt>
      <trkpt lat="43.8857" lon="6.34746">
        <ele>1044.8</ele>
        <time>2019-11-01T12:14:31Z</time>
      </trkpt>
      <trkpt lat="43.88563" lon="6.34744">
        <ele>1044.4</ele>
        <time>2019-11-01T12:14:32Z</time>
      </trkpt>
      <trkpt lat="43.88551" lon="6.34738">
        <ele>1044.3</ele>
        <time>2019-11-01T12:14:34Z</time>
      </trkpt>
      <trkpt lat="43.88538" lon="6.34732">
        <ele>1044.2</ele>
        <time>2019-11-01T12:14:36Z</time>
      </trkpt>
      <trkpt lat="43.88532" lon="6.34729">
        <ele>1043.6</ele>
        <time>2019-11-01T12:14:37Z</time>
      </trkpt>
      <trkpt lat="43.88521" lon="6.34722">
        <ele>1042.7</ele>
        <time>2019-11-01T12:14:39Z</time>
      </trkpt>
      <trkpt lat="43.88516" lon="6.34721">
        <ele>1041.8</ele>
        <time>2019-11-01T12:14:40Z</time>
      </trkpt>
      <trkpt lat="43.8851" lon="6.34731">
        <ele>1040.8</ele>
        <time>2019-11-01T12:14:42Z</time>
      </trkpt>
      <trkpt lat="43.88515" lon="6.34745">
        <ele>1039.6</ele>
        <time>2019-11-01T12:14:44Z</time>
      </trkpt>
      <trkpt lat="43.88524" lon="6.34757">
        <ele>1038.3</ele>
        <time>2019-11-01T12:14:46Z</time>
      </trkpt>
      <trkpt lat="43.88531" lon="6.34774">
        <ele>1037</ele>
        <time>2019-11-01T12:14:48Z</time>
      </trkpt>
      <trkpt lat="43.88535" lon="6.34794">
        <ele>1036</ele>
        <time>2019-11-01T12:14:50Z</time>
      </trkpt>
      <trkpt lat="43.88537" lon="6.34803">
        <ele>1035.7</ele>
        <time>2019-11-01T12:14:51Z</time>
      </trkpt>
      <trkpt lat="43.88543" lon="6.34818">
        <ele>1036.4</ele>
        <time>2019-11-01T12:14:53Z</time>
      </trkpt>
      <trkpt lat="43.88549" lon="6.34822">
        <ele>1037</ele>
        <time>2019-11-01T12:14:54Z</time>
      </trkpt>
      <trkpt lat="43.88556" lon="6.34825">
        <ele>1037.9</ele>
        <time>2019-11-01T12:14:55Z</time>
      </trkpt>
      <trkpt lat="43.88563" lon="6.34827">
        <ele>1039.2</ele>
        <time>2019-11-01T12:14:56Z</time>
      </trkpt>
      <trkpt lat="43.88576" lon="6.3483">
        <ele>1041.3</ele>
        <time>2019-11-01T12:14:58Z</time>
      </trkpt>
      <trkpt lat="43.88583" lon="6.34835">
        <ele>1042.4</ele>
        <time>2019-11-01T12:15:00Z</time>
      </trkpt>
      <trkpt lat="43.88585" lon="6.34838">
        <ele>1042.7</ele>
        <time>2019-11-01T12:15:01Z</time>
      </trkpt>
      <trkpt lat="43.88586" lon="6.34842">
        <ele>1042.9</ele>
        <time>2019-11-01T12:15:03Z</time>
      </trkpt>
      <trkpt lat="43.88588" lon="6.34847">
        <ele>1043</ele>
        <time>2019-11-01T12:17:57Z</time>
      </trkpt>
      <trkpt lat="43.88588" lon="6.34853">
        <ele>1042.9</ele>
        <time>2019-11-01T12:17:59Z</time>
      </trkpt>
      <trkpt lat="43.88587" lon="6.34858">
        <ele>1042</ele>
        <time>2019-11-01T12:18:01Z</time>
      </trkpt>
      <trkpt lat="43.88582" lon="6.34862">
        <ele>1041.1</ele>
        <time>2019-11-01T12:18:05Z</time>
      </trkpt>
      <trkpt lat="43.88578" lon="6.34864">
        <ele>1040.1</ele>
        <time>2019-11-01T12:18:07Z</time>
      </trkpt>
      <trkpt lat="43.88574" lon="6.34864">
        <ele>1038.7</ele>
        <time>2019-11-01T12:18:09Z</time>
      </trkpt>
      <trkpt lat="43.88569" lon="6.34866">
        <ele>1037.7</ele>
        <time>2019-11-01T12:18:11Z</time>
      </trkpt>
      <trkpt lat="43.88566" lon="6.34867">
        <ele>1037.2</ele>
        <time>2019-11-01T12:18:13Z</time>
      </trkpt>
      <trkpt lat="43.88562" lon="6.34868">
        <ele>1036.8</ele>
        <time>2019-11-01T12:18:15Z</time>
      </trkpt>
      <trkpt lat="43.88559" lon="6.34871">
        <ele>1036.1</ele>
        <time>2019-11-01T12:18:16Z</time>
      </trkpt>
      <trkpt lat="43.88556" lon="6.34874">
        <ele>1035.4</ele>
        <time>2019-11-01T12:18:18Z</time>
      </trkpt>
      <trkpt lat="43.88554" lon="6.34877">
        <ele>1034.8</ele>
        <time>2019-11-01T12:18:19Z</time>
      </trkpt>
      <trkpt lat="43.8855" lon="6.34881">
        <ele>1033.8</ele>
        <time>2019-11-01T12:18:20Z</time>
      </trkpt>
      <trkpt lat="43.88548" lon="6.34884">
        <ele>1033.3</ele>
        <time>2019-11-01T12:18:21Z</time>
      </trkpt>
      <trkpt lat="43.88543" lon="6.34893">
        <ele>1032.5</ele>
        <time>2019-11-01T12:18:23Z</time>
      </trkpt>
      <trkpt lat="43.88537" lon="6.34901">
        <ele>1031.4</ele>
        <time>2019-11-01T12:18:25Z</time>
      </trkpt>
      <trkpt lat="43.88534" lon="6.34905">
        <ele>1030.8</ele>
        <time>2019-11-01T12:18:26Z</time>
      </trkpt>
      <trkpt lat="43.88526" lon="6.34909">
        <ele>1029</ele>
        <time>2019-11-01T12:18:29Z</time>
      </trkpt>
      <trkpt lat="43.88521" lon="6.34912">
        <ele>1027.9</ele>
        <time>2019-11-01T12:18:31Z</time>
      </trkpt>
      <trkpt lat="43.88515" lon="6.34913">
        <ele>1027.2</ele>
        <time>2019-11-01T12:18:32Z</time>
      </trkpt>
      <trkpt lat="43.88509" lon="6.34913">
        <ele>1026.3</ele>
        <time>2019-11-01T12:18:34Z</time>
      </trkpt>
      <trkpt lat="43.88506" lon="6.34913">
        <ele>1025.7</ele>
        <time>2019-11-01T12:18:35Z</time>
      </trkpt>
      <trkpt lat="43.88502" lon="6.34912">
        <ele>1024.8</ele>
        <time>2019-11-01T12:18:36Z</time>
      </trkpt>
      <trkpt lat="43.88497" lon="6.34911">
        <ele>1024</ele>
        <time>2019-11-01T12:18:37Z</time>
      </trkpt>
      <trkpt lat="43.88495" lon="6.3491">
        <ele>1023.6</ele>
        <time>2019-11-01T12:18:39Z</time>
      </trkpt>
      <trkpt lat="43.88491" lon="6.34909">
        <ele>1023.1</ele>
        <time>2019-11-01T12:18:41Z</time>
      </trkpt>
      <trkpt lat="43.88487" lon="6.34912">
        <ele>1022.5</ele>
        <time>2019-11-01T12:18:44Z</time>
      </trkpt>
      <trkpt lat="43.88483" lon="6.34915">
        <ele>1022</ele>
        <time>2019-11-01T12:18:47Z</time>
      </trkpt>
      <trkpt lat="43.88478" lon="6.34918">
        <ele>1021.4</ele>
        <time>2019-11-01T12:18:48Z</time>
      </trkpt>
      <trkpt lat="43.88469" lon="6.34922">
        <ele>1020.2</ele>
        <time>2019-11-01T12:18:50Z</time>
      </trkpt>
      <trkpt lat="43.88458" lon="6.34925">
        <ele>1019.1</ele>
        <time>2019-11-01T12:18:52Z</time>
      </trkpt>
      <trkpt lat="43.88453" lon="6.34926">
        <ele>1018.4</ele>
        <time>2019-11-01T12:18:53Z</time>
      </trkpt>
      <trkpt lat="43.88447" lon="6.34927">
        <ele>1017.8</ele>
        <time>2019-11-01T12:18:54Z</time>
      </trkpt>
      <trkpt lat="43.88436" lon="6.3493">
        <ele>1016.3</ele>
        <time>2019-11-01T12:18:56Z</time>
      </trkpt>
      <trkpt lat="43.88425" lon="6.34932">
        <ele>1015.6</ele>
        <time>2019-11-01T12:18:58Z</time>
      </trkpt>
      <trkpt lat="43.88419" lon="6.34933">
        <ele>1014.9</ele>
        <time>2019-11-01T12:18:59Z</time>
      </trkpt>
      <trkpt lat="43.88407" lon="6.34933">
        <ele>1013.7</ele>
        <time>2019-11-01T12:19:01Z</time>
      </trkpt>
      <trkpt lat="43.884" lon="6.34932">
        <ele>1013.2</ele>
        <time>2019-11-01T12:19:02Z</time>
      </trkpt>
      <trkpt lat="43.88394" lon="6.34933">
        <ele>1012.7</ele>
        <time>2019-11-01T12:19:03Z</time>
      </trkpt>
      <trkpt lat="43.88388" lon="6.34935">
        <ele>1011.6</ele>
        <time>2019-11-01T12:19:04Z</time>
      </trkpt>
      <trkpt lat="43.88375" lon="6.34943">
        <ele>1011</ele>
        <time>2019-11-01T12:19:06Z</time>
      </trkpt>
      <trkpt lat="43.88368" lon="6.34949">
        <ele>1010.5</ele>
        <time>2019-11-01T12:19:07Z</time>
      </trkpt>
      <trkpt lat="43.88362" lon="6.34956">
        <ele>1009.9</ele>
        <time>2019-11-01T12:19:08Z</time>
      </trkpt>
      <trkpt lat="43.88349" lon="6.34968">
        <ele>1009.3</ele>
        <time>2019-11-01T12:19:10Z</time>
      </trkpt>
      <trkpt lat="43.88336" lon="6.3497">
        <ele>1007.3</ele>
        <time>2019-11-01T12:19:12Z</time>
      </trkpt>
      <trkpt lat="43.8833" lon="6.34969">
        <ele>1006</ele>
        <time>2019-11-01T12:19:13Z</time>
      </trkpt>
      <trkpt lat="43.88318" lon="6.34968">
        <ele>1004</ele>
        <time>2019-11-01T12:19:15Z</time>
      </trkpt>
      <trkpt lat="43.88313" lon="6.34968">
        <ele>1002.9</ele>
        <time>2019-11-01T12:19:16Z</time>
      </trkpt>
      <trkpt lat="43.88308" lon="6.34969">
        <ele>1001.9</ele>
        <time>2019-11-01T12:19:17Z</time>
      </trkpt>
      <trkpt lat="43.88299" lon="6.34967">
        <ele>1000.2</ele>
        <time>2019-11-01T12:19:19Z</time>
      </trkpt>
      <trkpt lat="43.88289" lon="6.34958">
        <ele>997.4</ele>
        <time>2019-11-01T12:19:21Z</time>
      </trkpt>
      <trkpt lat="43.88276" lon="6.34957">
        <ele>995.2</ele>
        <time>2019-11-01T12:19:23Z</time>
      </trkpt>
      <trkpt lat="43.88269" lon="6.34961">
        <ele>994.2</ele>
        <time>2019-11-01T12:19:24Z</time>
      </trkpt>
      <trkpt lat="43.88254" lon="6.3497">
        <ele>993.4</ele>
        <time>2019-11-01T12:19:26Z</time>
      </trkpt>
      <trkpt lat="43.88246" lon="6.34975">
        <ele>992.6</ele>
        <time>2019-11-01T12:19:27Z</time>
      </trkpt>
      <trkpt lat="43.88233" lon="6.34983">
        <ele>990.9</ele>
        <time>2019-11-01T12:19:29Z</time>
      </trkpt>
      <trkpt lat="43.88225" lon="6.34984">
        <ele>989.8</ele>
        <time>2019-11-01T12:19:30Z</time>
      </trkpt>
      <trkpt lat="43.88209" lon="6.34982">
        <ele>987.9</ele>
        <time>2019-11-01T12:19:32Z</time>
      </trkpt>
      <trkpt lat="43.88194" lon="6.34979">
        <ele>985.7</ele>
        <time>2019-11-01T12:19:34Z</time>
      </trkpt>
      <trkpt lat="43.88188" lon="6.34979">
        <ele>985</ele>
        <time>2019-11-01T12:19:35Z</time>
      </trkpt>
      <trkpt lat="43.88181" lon="6.34983">
        <ele>984.7</ele>
        <time>2019-11-01T12:19:36Z</time>
      </trkpt>
      <trkpt lat="43.88169" lon="6.34994">
        <ele>984.1</ele>
        <time>2019-11-01T12:19:38Z</time>
      </trkpt>
      <trkpt lat="43.88154" lon="6.35005">
        <ele>983.8</ele>
        <time>2019-11-01T12:19:40Z</time>
      </trkpt>
      <trkpt lat="43.88148" lon="6.3501">
        <ele>983.7</ele>
        <time>2019-11-01T12:19:41Z</time>
      </trkpt>
      <trkpt lat="43.88136" lon="6.35025">
        <ele>983.3</ele>
        <time>2019-11-01T12:19:43Z</time>
      </trkpt>
      <trkpt lat="43.8813" lon="6.35034">
        <ele>982.9</ele>
        <time>2019-11-01T12:19:44Z</time>
      </trkpt>
      <trkpt lat="43.88126" lon="6.35044">
        <ele>982.4</ele>
        <time>2019-11-01T12:19:45Z</time>
      </trkpt>
      <trkpt lat="43.88118" lon="6.35064">
        <ele>981.4</ele>
        <time>2019-11-01T12:19:47Z</time>
      </trkpt>
      <trkpt lat="43.88114" lon="6.35073">
        <ele>981</ele>
        <time>2019-11-01T12:19:48Z</time>
      </trkpt>
      <trkpt lat="43.88107" lon="6.35092">
        <ele>980.1</ele>
        <time>2019-11-01T12:19:50Z</time>
      </trkpt>
      <trkpt lat="43.88104" lon="6.351">
        <ele>979.9</ele>
        <time>2019-11-01T12:19:51Z</time>
      </trkpt>
      <trkpt lat="43.88099" lon="6.35114">
        <ele>979.8</ele>
        <time>2019-11-01T12:19:53Z</time>
      </trkpt>
      <trkpt lat="43.88097" lon="6.3512">
        <ele>979.8</ele>
        <time>2019-11-01T12:19:54Z</time>
      </trkpt>
      <trkpt lat="43.88095" lon="6.35126">
        <ele>979.7</ele>
        <time>2019-11-01T12:19:55Z</time>
      </trkpt>
      <trkpt lat="43.88091" lon="6.35137">
        <ele>979.5</ele>
        <time>2019-11-01T12:19:57Z</time>
      </trkpt>
      <trkpt lat="43.88087" lon="6.35149">
        <ele>978.9</ele>
        <time>2019-11-01T12:19:59Z</time>
      </trkpt>
      <trkpt lat="43.88082" lon="6.35162">
        <ele>978.4</ele>
        <time>2019-11-01T12:20:01Z</time>
      </trkpt>
      <trkpt lat="43.88079" lon="6.35168">
        <ele>978.2</ele>
        <time>2019-11-01T12:20:02Z</time>
      </trkpt>
      <trkpt lat="43.88073" lon="6.35181">
        <ele>977.4</ele>
        <time>2019-11-01T12:20:04Z</time>
      </trkpt>
      <trkpt lat="43.8807" lon="6.35188">
        <ele>977.2</ele>
        <time>2019-11-01T12:20:05Z</time>
      </trkpt>
      <trkpt lat="43.88065" lon="6.352">
        <ele>977.1</ele>
        <time>2019-11-01T12:20:07Z</time>
      </trkpt>
      <trkpt lat="43.8806" lon="6.35212">
        <ele>977</ele>
        <time>2019-11-01T12:20:09Z</time>
      </trkpt>
      <trkpt lat="43.88057" lon="6.35218">
        <ele>976.8</ele>
        <time>2019-11-01T12:20:10Z</time>
      </trkpt>
      <trkpt lat="43.88053" lon="6.3523">
        <ele>976.4</ele>
        <time>2019-11-01T12:20:12Z</time>
      </trkpt>
      <trkpt lat="43.8805" lon="6.35237">
        <ele>976.2</ele>
        <time>2019-11-01T12:20:13Z</time>
      </trkpt>
      <trkpt lat="43.88049" lon="6.35243">
        <ele>976</ele>
        <time>2019-11-01T12:20:14Z</time>
      </trkpt>
      <trkpt lat="43.88046" lon="6.35257">
        <ele>975.5</ele>
        <time>2019-11-01T12:20:16Z</time>
      </trkpt>
      <trkpt lat="43.88045" lon="6.35271">
        <ele>975.1</ele>
        <time>2019-11-01T12:20:18Z</time>
      </trkpt>
      <trkpt lat="43.88044" lon="6.35278">
        <ele>974.7</ele>
        <time>2019-11-01T12:20:19Z</time>
      </trkpt>
      <trkpt lat="43.88043" lon="6.35292">
        <ele>974</ele>
        <time>2019-11-01T12:20:21Z</time>
      </trkpt>
      <trkpt lat="43.88041" lon="6.35307">
        <ele>973.2</ele>
        <time>2019-11-01T12:20:23Z</time>
      </trkpt>
      <trkpt lat="43.88041" lon="6.35314">
        <ele>972.8</ele>
        <time>2019-11-01T12:20:24Z</time>
      </trkpt>
      <trkpt lat="43.8804" lon="6.35321">
        <ele>972.4</ele>
        <time>2019-11-01T12:20:25Z</time>
      </trkpt>
      <trkpt lat="43.88038" lon="6.35335">
        <ele>971.3</ele>
        <time>2019-11-01T12:20:27Z</time>
      </trkpt>
      <trkpt lat="43.88036" lon="6.35349">
        <ele>970.4</ele>
        <time>2019-11-01T12:20:29Z</time>
      </trkpt>
      <trkpt lat="43.88035" lon="6.35356">
        <ele>969.9</ele>
        <time>2019-11-01T12:20:30Z</time>
      </trkpt>
      <trkpt lat="43.88032" lon="6.3537">
        <ele>968.5</ele>
        <time>2019-11-01T12:20:32Z</time>
      </trkpt>
      <trkpt lat="43.8803" lon="6.35377">
        <ele>967.8</ele>
        <time>2019-11-01T12:20:33Z</time>
      </trkpt>
      <trkpt lat="43.88025" lon="6.35391">
        <ele>966.5</ele>
        <time>2019-11-01T12:20:35Z</time>
      </trkpt>
      <trkpt lat="43.88021" lon="6.35405">
        <ele>965.4</ele>
        <time>2019-11-01T12:20:37Z</time>
      </trkpt>
      <trkpt lat="43.88015" lon="6.35419">
        <ele>964.2</ele>
        <time>2019-11-01T12:20:39Z</time>
      </trkpt>
      <trkpt lat="43.88012" lon="6.35427">
        <ele>963.9</ele>
        <time>2019-11-01T12:20:40Z</time>
      </trkpt>
      <trkpt lat="43.88009" lon="6.35434">
        <ele>963.8</ele>
        <time>2019-11-01T12:20:41Z</time>
      </trkpt>
      <trkpt lat="43.88001" lon="6.3545">
        <ele>963.6</ele>
        <time>2019-11-01T12:20:43Z</time>
      </trkpt>
      <trkpt lat="43.87992" lon="6.35467">
        <ele>963</ele>
        <time>2019-11-01T12:20:45Z</time>
      </trkpt>
      <trkpt lat="43.87988" lon="6.35475">
        <ele>962.7</ele>
        <time>2019-11-01T12:20:46Z</time>
      </trkpt>
      <trkpt lat="43.87979" lon="6.35491">
        <ele>962.2</ele>
        <time>2019-11-01T12:20:48Z</time>
      </trkpt>
      <trkpt lat="43.87975" lon="6.35499">
        <ele>962</ele>
        <time>2019-11-01T12:20:49Z</time>
      </trkpt>
      <trkpt lat="43.87966" lon="6.35515">
        <ele>962</ele>
        <time>2019-11-01T12:20:51Z</time>
      </trkpt>
      <trkpt lat="43.87958" lon="6.3553">
        <ele>962.3</ele>
        <time>2019-11-01T12:20:53Z</time>
      </trkpt>
      <trkpt lat="43.87954" lon="6.35538">
        <ele>962.5</ele>
        <time>2019-11-01T12:20:54Z</time>
      </trkpt>
      <trkpt lat="43.87945" lon="6.35554">
        <ele>963.2</ele>
        <time>2019-11-01T12:20:56Z</time>
      </trkpt>
      <trkpt lat="43.87937" lon="6.35569">
        <ele>963.3</ele>
        <time>2019-11-01T12:20:58Z</time>
      </trkpt>
      <trkpt lat="43.87929" lon="6.35585">
        <ele>963.6</ele>
        <time>2019-11-01T12:21:00Z</time>
      </trkpt>
      <trkpt lat="43.87925" lon="6.35594">
        <ele>963.7</ele>
        <time>2019-11-01T12:21:01Z</time>
      </trkpt>
      <trkpt lat="43.87921" lon="6.35602">
        <ele>963.9</ele>
        <time>2019-11-01T12:21:02Z</time>
      </trkpt>
      <trkpt lat="43.87911" lon="6.3562">
        <ele>964.1</ele>
        <time>2019-11-01T12:21:04Z</time>
      </trkpt>
      <trkpt lat="43.87906" lon="6.35628">
        <ele>964</ele>
        <time>2019-11-01T12:21:05Z</time>
      </trkpt>
      <trkpt lat="43.87896" lon="6.35644">
        <ele>964</ele>
        <time>2019-11-01T12:21:07Z</time>
      </trkpt>
      <trkpt lat="43.87885" lon="6.35658">
        <ele>963.3</ele>
        <time>2019-11-01T12:21:09Z</time>
      </trkpt>
      <trkpt lat="43.8788" lon="6.35665">
        <ele>962.8</ele>
        <time>2019-11-01T12:21:10Z</time>
      </trkpt>
      <trkpt lat="43.87875" lon="6.35671">
        <ele>962.5</ele>
        <time>2019-11-01T12:21:11Z</time>
      </trkpt>
      <trkpt lat="43.87866" lon="6.35684">
        <ele>961.2</ele>
        <time>2019-11-01T12:21:13Z</time>
      </trkpt>
      <trkpt lat="43.87859" lon="6.357">
        <ele>959.9</ele>
        <time>2019-11-01T12:21:15Z</time>
      </trkpt>
      <trkpt lat="43.87854" lon="6.35716">
        <ele>958.3</ele>
        <time>2019-11-01T12:21:17Z</time>
      </trkpt>
      <trkpt lat="43.87852" lon="6.35724">
        <ele>957.9</ele>
        <time>2019-11-01T12:21:18Z</time>
      </trkpt>
      <trkpt lat="43.87847" lon="6.3574">
        <ele>956.5</ele>
        <time>2019-11-01T12:21:20Z</time>
      </trkpt>
      <trkpt lat="43.87843" lon="6.35747">
        <ele>956</ele>
        <time>2019-11-01T12:21:21Z</time>
      </trkpt>
      <trkpt lat="43.87839" lon="6.35753">
        <ele>955.1</ele>
        <time>2019-11-01T12:21:22Z</time>
      </trkpt>
      <trkpt lat="43.87835" lon="6.35759">
        <ele>954.3</ele>
        <time>2019-11-01T12:21:23Z</time>
      </trkpt>
      <trkpt lat="43.8783" lon="6.35764">
        <ele>953.8</ele>
        <time>2019-11-01T12:21:24Z</time>
      </trkpt>
      <trkpt lat="43.87821" lon="6.35774">
        <ele>953.2</ele>
        <time>2019-11-01T12:21:26Z</time>
      </trkpt>
      <trkpt lat="43.87812" lon="6.35785">
        <ele>952.4</ele>
        <time>2019-11-01T12:21:28Z</time>
      </trkpt>
      <trkpt lat="43.87807" lon="6.3579">
        <ele>952.1</ele>
        <time>2019-11-01T12:21:29Z</time>
      </trkpt>
      <trkpt lat="43.87798" lon="6.35802">
        <ele>952.6</ele>
        <time>2019-11-01T12:21:31Z</time>
      </trkpt>
      <trkpt lat="43.87792" lon="6.35815">
        <ele>952.5</ele>
        <time>2019-11-01T12:21:33Z</time>
      </trkpt>
      <trkpt lat="43.87787" lon="6.35829">
        <ele>952.9</ele>
        <time>2019-11-01T12:21:35Z</time>
      </trkpt>
      <trkpt lat="43.87785" lon="6.35837">
        <ele>953.4</ele>
        <time>2019-11-01T12:21:36Z</time>
      </trkpt>
      <trkpt lat="43.87783" lon="6.35853">
        <ele>954.5</ele>
        <time>2019-11-01T12:21:38Z</time>
      </trkpt>
      <trkpt lat="43.87782" lon="6.35861">
        <ele>954.8</ele>
        <time>2019-11-01T12:21:39Z</time>
      </trkpt>
      <trkpt lat="43.87778" lon="6.35875">
        <ele>955</ele>
        <time>2019-11-01T12:21:41Z</time>
      </trkpt>
      <trkpt lat="43.8777" lon="6.35887">
        <ele>956.2</ele>
        <time>2019-11-01T12:21:43Z</time>
      </trkpt>
      <trkpt lat="43.87766" lon="6.35893">
        <ele>956.9</ele>
        <time>2019-11-01T12:21:44Z</time>
      </trkpt>
      <trkpt lat="43.8776" lon="6.35905">
        <ele>957.7</ele>
        <time>2019-11-01T12:21:46Z</time>
      </trkpt>
      <trkpt lat="43.87757" lon="6.3592">
        <ele>958.8</ele>
        <time>2019-11-01T12:21:48Z</time>
      </trkpt>
      <trkpt lat="43.87754" lon="6.35935">
        <ele>959.5</ele>
        <time>2019-11-01T12:21:50Z</time>
      </trkpt>
      <trkpt lat="43.87749" lon="6.35948">
        <ele>960</ele>
        <time>2019-11-01T12:21:52Z</time>
      </trkpt>
      <trkpt lat="43.87746" lon="6.35954">
        <ele>960.2</ele>
        <time>2019-11-01T12:21:53Z</time>
      </trkpt>
      <trkpt lat="43.8774" lon="6.35966">
        <ele>960.6</ele>
        <time>2019-11-01T12:21:55Z</time>
      </trkpt>
      <trkpt lat="43.87734" lon="6.3598">
        <ele>961.2</ele>
        <time>2019-11-01T12:21:57Z</time>
      </trkpt>
      <trkpt lat="43.87727" lon="6.35994">
        <ele>959.8</ele>
        <time>2019-11-01T12:21:59Z</time>
      </trkpt>
      <trkpt lat="43.87718" lon="6.36007">
        <ele>957.7</ele>
        <time>2019-11-01T12:22:01Z</time>
      </trkpt>
      <trkpt lat="43.87709" lon="6.36018">
        <ele>957.2</ele>
        <time>2019-11-01T12:22:03Z</time>
      </trkpt>
      <trkpt lat="43.87704" lon="6.36024">
        <ele>956.6</ele>
        <time>2019-11-01T12:22:04Z</time>
      </trkpt>
      <trkpt lat="43.87695" lon="6.36034">
        <ele>955.2</ele>
        <time>2019-11-01T12:22:06Z</time>
      </trkpt>
      <trkpt lat="43.87686" lon="6.36045">
        <ele>954.1</ele>
        <time>2019-11-01T12:22:08Z</time>
      </trkpt>
      <trkpt lat="43.87681" lon="6.3605">
        <ele>953.8</ele>
        <time>2019-11-01T12:22:09Z</time>
      </trkpt>
      <trkpt lat="43.87677" lon="6.36056">
        <ele>953.9</ele>
        <time>2019-11-01T12:22:10Z</time>
      </trkpt>
      <trkpt lat="43.8767" lon="6.36068">
        <ele>954.3</ele>
        <time>2019-11-01T12:22:12Z</time>
      </trkpt>
      <trkpt lat="43.87667" lon="6.36075">
        <ele>954.3</ele>
        <time>2019-11-01T12:22:13Z</time>
      </trkpt>
      <trkpt lat="43.87661" lon="6.36089">
        <ele>954.2</ele>
        <time>2019-11-01T12:22:15Z</time>
      </trkpt>
      <trkpt lat="43.87655" lon="6.36104">
        <ele>955.7</ele>
        <time>2019-11-01T12:22:17Z</time>
      </trkpt>
      <trkpt lat="43.87648" lon="6.36117">
        <ele>958.2</ele>
        <time>2019-11-01T12:22:19Z</time>
      </trkpt>
      <trkpt lat="43.8764" lon="6.3613">
        <ele>959.8</ele>
        <time>2019-11-01T12:22:21Z</time>
      </trkpt>
      <trkpt lat="43.87637" lon="6.36136">
        <ele>960.2</ele>
        <time>2019-11-01T12:22:22Z</time>
      </trkpt>
      <trkpt lat="43.87629" lon="6.36149">
        <ele>961.4</ele>
        <time>2019-11-01T12:22:24Z</time>
      </trkpt>
      <trkpt lat="43.87621" lon="6.3616">
        <ele>962.2</ele>
        <time>2019-11-01T12:22:26Z</time>
      </trkpt>
      <trkpt lat="43.87617" lon="6.36166">
        <ele>961.9</ele>
        <time>2019-11-01T12:22:27Z</time>
      </trkpt>
      <trkpt lat="43.87612" lon="6.36171">
        <ele>962.1</ele>
        <time>2019-11-01T12:22:28Z</time>
      </trkpt>
      <trkpt lat="43.87602" lon="6.36181">
        <ele>962.8</ele>
        <time>2019-11-01T12:22:30Z</time>
      </trkpt>
      <trkpt lat="43.87597" lon="6.36186">
        <ele>962</ele>
        <time>2019-11-01T12:22:31Z</time>
      </trkpt>
      <trkpt lat="43.87586" lon="6.36196">
        <ele>961.9</ele>
        <time>2019-11-01T12:22:33Z</time>
      </trkpt>
      <trkpt lat="43.87575" lon="6.36206">
        <ele>961.5</ele>
        <time>2019-11-01T12:22:35Z</time>
      </trkpt>
      <trkpt lat="43.87571" lon="6.3621">
        <ele>961.4</ele>
        <time>2019-11-01T12:22:36Z</time>
      </trkpt>
      <trkpt lat="43.87561" lon="6.36218">
        <ele>960.6</ele>
        <time>2019-11-01T12:22:38Z</time>
      </trkpt>
      <trkpt lat="43.87556" lon="6.36223">
        <ele>960.5</ele>
        <time>2019-11-01T12:22:39Z</time>
      </trkpt>
      <trkpt lat="43.87546" lon="6.36232">
        <ele>961</ele>
        <time>2019-11-01T12:22:41Z</time>
      </trkpt>
      <trkpt lat="43.87537" lon="6.36242">
        <ele>960.1</ele>
        <time>2019-11-01T12:22:43Z</time>
      </trkpt>
      <trkpt lat="43.87529" lon="6.36251">
        <ele>960.6</ele>
        <time>2019-11-01T12:22:45Z</time>
      </trkpt>
      <trkpt lat="43.87522" lon="6.36261">
        <ele>960.4</ele>
        <time>2019-11-01T12:22:47Z</time>
      </trkpt>
      <trkpt lat="43.87518" lon="6.36266">
        <ele>960.2</ele>
        <time>2019-11-01T12:22:48Z</time>
      </trkpt>
      <trkpt lat="43.87511" lon="6.36276">
        <ele>960.8</ele>
        <time>2019-11-01T12:22:50Z</time>
      </trkpt>
      <trkpt lat="43.87507" lon="6.36281">
        <ele>961.3</ele>
        <time>2019-11-01T12:22:51Z</time>
      </trkpt>
      <trkpt lat="43.87504" lon="6.36286">
        <ele>961.3</ele>
        <time>2019-11-01T12:22:52Z</time>
      </trkpt>
      <trkpt lat="43.87496" lon="6.36296">
        <ele>961.1</ele>
        <time>2019-11-01T12:22:54Z</time>
      </trkpt>
      <trkpt lat="43.87488" lon="6.36304">
        <ele>961.9</ele>
        <time>2019-11-01T12:22:56Z</time>
      </trkpt>
      <trkpt lat="43.87484" lon="6.36309">
        <ele>962.6</ele>
        <time>2019-11-01T12:22:57Z</time>
      </trkpt>
      <trkpt lat="43.8748" lon="6.36313">
        <ele>963.2</ele>
        <time>2019-11-01T12:22:58Z</time>
      </trkpt>
      <trkpt lat="43.87476" lon="6.36317">
        <ele>963.2</ele>
        <time>2019-11-01T12:22:59Z</time>
      </trkpt>
      <trkpt lat="43.87468" lon="6.36326">
        <ele>964.1</ele>
        <time>2019-11-01T12:23:01Z</time>
      </trkpt>
      <trkpt lat="43.87465" lon="6.3633">
        <ele>964.5</ele>
        <time>2019-11-01T12:23:02Z</time>
      </trkpt>
      <trkpt lat="43.87458" lon="6.36338">
        <ele>965.2</ele>
        <time>2019-11-01T12:23:04Z</time>
      </trkpt>
      <trkpt lat="43.87454" lon="6.36343">
        <ele>965.3</ele>
        <time>2019-11-01T12:23:05Z</time>
      </trkpt>
      <trkpt lat="43.87446" lon="6.36351">
        <ele>966.7</ele>
        <time>2019-11-01T12:23:07Z</time>
      </trkpt>
      <trkpt lat="43.87438" lon="6.3636">
        <ele>967.8</ele>
        <time>2019-11-01T12:23:09Z</time>
      </trkpt>
      <trkpt lat="43.8743" lon="6.36368">
        <ele>968.3</ele>
        <time>2019-11-01T12:23:11Z</time>
      </trkpt>
      <trkpt lat="43.87421" lon="6.36376">
        <ele>968.7</ele>
        <time>2019-11-01T12:23:13Z</time>
      </trkpt>
      <trkpt lat="43.87417" lon="6.3638">
        <ele>968.4</ele>
        <time>2019-11-01T12:23:14Z</time>
      </trkpt>
      <trkpt lat="43.87409" lon="6.36389">
        <ele>967.5</ele>
        <time>2019-11-01T12:23:16Z</time>
      </trkpt>
      <trkpt lat="43.87401" lon="6.36399">
        <ele>967.2</ele>
        <time>2019-11-01T12:23:18Z</time>
      </trkpt>
      <trkpt lat="43.87397" lon="6.36404">
        <ele>967.1</ele>
        <time>2019-11-01T12:23:19Z</time>
      </trkpt>
      <trkpt lat="43.8739" lon="6.36414">
        <ele>967.6</ele>
        <time>2019-11-01T12:23:21Z</time>
      </trkpt>
      <trkpt lat="43.87386" lon="6.36419">
        <ele>967.5</ele>
        <time>2019-11-01T12:23:22Z</time>
      </trkpt>
      <trkpt lat="43.87378" lon="6.3643">
        <ele>966.7</ele>
        <time>2019-11-01T12:23:24Z</time>
      </trkpt>
      <trkpt lat="43.87369" lon="6.36437">
        <ele>966.2</ele>
        <time>2019-11-01T12:23:26Z</time>
      </trkpt>
      <trkpt lat="43.87363" lon="6.3644">
        <ele>965</ele>
        <time>2019-11-01T12:23:27Z</time>
      </trkpt>
      <trkpt lat="43.87353" lon="6.36446">
        <ele>963.5</ele>
        <time>2019-11-01T12:23:29Z</time>
      </trkpt>
      <trkpt lat="43.87344" lon="6.36454">
        <ele>961.5</ele>
        <time>2019-11-01T12:23:31Z</time>
      </trkpt>
      <trkpt lat="43.87337" lon="6.36463">
        <ele>962.6</ele>
        <time>2019-11-01T12:23:33Z</time>
      </trkpt>
      <trkpt lat="43.87332" lon="6.36475">
        <ele>962.2</ele>
        <time>2019-11-01T12:23:35Z</time>
      </trkpt>
      <trkpt lat="43.87329" lon="6.36481">
        <ele>962.8</ele>
        <time>2019-11-01T12:23:36Z</time>
      </trkpt>
      <trkpt lat="43.87327" lon="6.36487">
        <ele>962.8</ele>
        <time>2019-11-01T12:23:37Z</time>
      </trkpt>
      <trkpt lat="43.87322" lon="6.365">
        <ele>963.1</ele>
        <time>2019-11-01T12:23:39Z</time>
      </trkpt>
      <trkpt lat="43.87319" lon="6.36506">
        <ele>963.9</ele>
        <time>2019-11-01T12:23:40Z</time>
      </trkpt>
      <trkpt lat="43.87315" lon="6.3652">
        <ele>964.6</ele>
        <time>2019-11-01T12:23:42Z</time>
      </trkpt>
      <trkpt lat="43.87313" lon="6.36526">
        <ele>964.8</ele>
        <time>2019-11-01T12:23:43Z</time>
      </trkpt>
      <trkpt lat="43.87308" lon="6.36539">
        <ele>965</ele>
        <time>2019-11-01T12:23:45Z</time>
      </trkpt>
      <trkpt lat="43.87303" lon="6.36552">
        <ele>964.3</ele>
        <time>2019-11-01T12:23:47Z</time>
      </trkpt>
      <trkpt lat="43.873" lon="6.36558">
        <ele>964.9</ele>
        <time>2019-11-01T12:23:48Z</time>
      </trkpt>
      <trkpt lat="43.87298" lon="6.36564">
        <ele>965</ele>
        <time>2019-11-01T12:23:49Z</time>
      </trkpt>
      <trkpt lat="43.87295" lon="6.3657">
        <ele>965</ele>
        <time>2019-11-01T12:23:50Z</time>
      </trkpt>
      <trkpt lat="43.87291" lon="6.36582">
        <ele>966.3</ele>
        <time>2019-11-01T12:23:52Z</time>
      </trkpt>
      <trkpt lat="43.87288" lon="6.36588">
        <ele>966.5</ele>
        <time>2019-11-01T12:23:53Z</time>
      </trkpt>
      <trkpt lat="43.87284" lon="6.36601">
        <ele>966.7</ele>
        <time>2019-11-01T12:23:55Z</time>
      </trkpt>
      <trkpt lat="43.87282" lon="6.36607">
        <ele>966.8</ele>
        <time>2019-11-01T12:23:56Z</time>
      </trkpt>
      <trkpt lat="43.87277" lon="6.36619">
        <ele>967.3</ele>
        <time>2019-11-01T12:23:58Z</time>
      </trkpt>
      <trkpt lat="43.87273" lon="6.36631">
        <ele>967.1</ele>
        <time>2019-11-01T12:24:00Z</time>
      </trkpt>
      <trkpt lat="43.87269" lon="6.36643">
        <ele>967.3</ele>
        <time>2019-11-01T12:24:02Z</time>
      </trkpt>
      <trkpt lat="43.87264" lon="6.36655">
        <ele>968.3</ele>
        <time>2019-11-01T12:24:04Z</time>
      </trkpt>
      <trkpt lat="43.87259" lon="6.36667">
        <ele>968.4</ele>
        <time>2019-11-01T12:24:06Z</time>
      </trkpt>
      <trkpt lat="43.87257" lon="6.36673">
        <ele>968.1</ele>
        <time>2019-11-01T12:24:07Z</time>
      </trkpt>
      <trkpt lat="43.87255" lon="6.36678">
        <ele>967.9</ele>
        <time>2019-11-01T12:24:08Z</time>
      </trkpt>
      <trkpt lat="43.87251" lon="6.36689">
        <ele>968</ele>
        <time>2019-11-01T12:24:10Z</time>
      </trkpt>
      <trkpt lat="43.87249" lon="6.36695">
        <ele>968.3</ele>
        <time>2019-11-01T12:24:11Z</time>
      </trkpt>
      <trkpt lat="43.87245" lon="6.36705">
        <ele>967.7</ele>
        <time>2019-11-01T12:24:13Z</time>
      </trkpt>
      <trkpt lat="43.87243" lon="6.3671">
        <ele>967.2</ele>
        <time>2019-11-01T12:24:14Z</time>
      </trkpt>
      <trkpt lat="43.8724" lon="6.36719">
        <ele>967.5</ele>
        <time>2019-11-01T12:24:16Z</time>
      </trkpt>
      <trkpt lat="43.87237" lon="6.36727">
        <ele>967.4</ele>
        <time>2019-11-01T12:24:18Z</time>
      </trkpt>
      <trkpt lat="43.87235" lon="6.36731">
        <ele>967.3</ele>
        <time>2019-11-01T12:24:19Z</time>
      </trkpt>
      <trkpt lat="43.87233" lon="6.36736">
        <ele>966.9</ele>
        <time>2019-11-01T12:24:20Z</time>
      </trkpt>
      <trkpt lat="43.8723" lon="6.36744">
        <ele>966.4</ele>
        <time>2019-11-01T12:24:22Z</time>
      </trkpt>
      <trkpt lat="43.87227" lon="6.36752">
        <ele>966.2</ele>
        <time>2019-11-01T12:24:24Z</time>
      </trkpt>
      <trkpt lat="43.87224" lon="6.3676">
        <ele>966.3</ele>
        <time>2019-11-01T12:24:26Z</time>
      </trkpt>
      <trkpt lat="43.87221" lon="6.36768">
        <ele>966.2</ele>
        <time>2019-11-01T12:24:28Z</time>
      </trkpt>
      <trkpt lat="43.87219" lon="6.36771">
        <ele>966.1</ele>
        <time>2019-11-01T12:24:29Z</time>
      </trkpt>
      <trkpt lat="43.87217" lon="6.36777">
        <ele>965.7</ele>
        <time>2019-11-01T12:24:31Z</time>
      </trkpt>
      <trkpt lat="43.87216" lon="6.36782">
        <ele>965.3</ele>
        <time>2019-11-01T12:24:32Z</time>
      </trkpt>
      <trkpt lat="43.87214" lon="6.36786">
        <ele>965</ele>
        <time>2019-11-01T12:24:33Z</time>
      </trkpt>
      <trkpt lat="43.87213" lon="6.36791">
        <ele>965.1</ele>
        <time>2019-11-01T12:24:34Z</time>
      </trkpt>
      <trkpt lat="43.87211" lon="6.36803">
        <ele>964.9</ele>
        <time>2019-11-01T12:24:36Z</time>
      </trkpt>
      <trkpt lat="43.87208" lon="6.36812">
        <ele>964.8</ele>
        <time>2019-11-01T12:24:38Z</time>
      </trkpt>
      <trkpt lat="43.87207" lon="6.36817">
        <ele>964.8</ele>
        <time>2019-11-01T12:24:39Z</time>
      </trkpt>
      <trkpt lat="43.87205" lon="6.36826">
        <ele>964.6</ele>
        <time>2019-11-01T12:24:41Z</time>
      </trkpt>
      <trkpt lat="43.87203" lon="6.36835">
        <ele>964.5</ele>
        <time>2019-11-01T12:24:43Z</time>
      </trkpt>
      <trkpt lat="43.87202" lon="6.36839">
        <ele>964.5</ele>
        <time>2019-11-01T12:24:44Z</time>
      </trkpt>
      <trkpt lat="43.87199" lon="6.36848">
        <ele>964.4</ele>
        <time>2019-11-01T12:24:46Z</time>
      </trkpt>
      <trkpt lat="43.87197" lon="6.36853">
        <ele>964.3</ele>
        <time>2019-11-01T12:24:47Z</time>
      </trkpt>
      <trkpt lat="43.87196" lon="6.36857">
        <ele>964.5</ele>
        <time>2019-11-01T12:24:48Z</time>
      </trkpt>
      <trkpt lat="43.87194" lon="6.36866">
        <ele>964.9</ele>
        <time>2019-11-01T12:24:50Z</time>
      </trkpt>
      <trkpt lat="43.87192" lon="6.36876">
        <ele>964.6</ele>
        <time>2019-11-01T12:24:52Z</time>
      </trkpt>
      <trkpt lat="43.8719" lon="6.36885">
        <ele>964.2</ele>
        <time>2019-11-01T12:24:54Z</time>
      </trkpt>
      <trkpt lat="43.87189" lon="6.36889">
        <ele>963.9</ele>
        <time>2019-11-01T12:24:55Z</time>
      </trkpt>
      <trkpt lat="43.87188" lon="6.36894">
        <ele>963.7</ele>
        <time>2019-11-01T12:24:56Z</time>
      </trkpt>
      <trkpt lat="43.87186" lon="6.36903">
        <ele>963.1</ele>
        <time>2019-11-01T12:24:58Z</time>
      </trkpt>
      <trkpt lat="43.87184" lon="6.36913">
        <ele>962.4</ele>
        <time>2019-11-01T12:25:00Z</time>
      </trkpt>
      <trkpt lat="43.87182" lon="6.36922">
        <ele>962.4</ele>
        <time>2019-11-01T12:25:02Z</time>
      </trkpt>
      <trkpt lat="43.87182" lon="6.36927">
        <ele>962.1</ele>
        <time>2019-11-01T12:25:03Z</time>
      </trkpt>
      <trkpt lat="43.87181" lon="6.36937">
        <ele>961</ele>
        <time>2019-11-01T12:25:05Z</time>
      </trkpt>
      <trkpt lat="43.8718" lon="6.36941">
        <ele>960.8</ele>
        <time>2019-11-01T12:25:06Z</time>
      </trkpt>
      <trkpt lat="43.87179" lon="6.3695">
        <ele>960.4</ele>
        <time>2019-11-01T12:25:08Z</time>
      </trkpt>
      <trkpt lat="43.87178" lon="6.36959">
        <ele>959.8</ele>
        <time>2019-11-01T12:25:10Z</time>
      </trkpt>
      <trkpt lat="43.87177" lon="6.36963">
        <ele>959.3</ele>
        <time>2019-11-01T12:25:11Z</time>
      </trkpt>
      <trkpt lat="43.87177" lon="6.36968">
        <ele>958.6</ele>
        <time>2019-11-01T12:25:12Z</time>
      </trkpt>
      <trkpt lat="43.87176" lon="6.36978">
        <ele>957.6</ele>
        <time>2019-11-01T12:25:14Z</time>
      </trkpt>
      <trkpt lat="43.87177" lon="6.36984">
        <ele>957.1</ele>
        <time>2019-11-01T12:25:15Z</time>
      </trkpt>
      <trkpt lat="43.87178" lon="6.36988">
        <ele>957.5</ele>
        <time>2019-11-01T12:25:16Z</time>
      </trkpt>
      <trkpt lat="43.87181" lon="6.36992">
        <ele>957.6</ele>
        <time>2019-11-01T12:25:17Z</time>
      </trkpt>
      <trkpt lat="43.87188" lon="6.36996">
        <ele>958.8</ele>
        <time>2019-11-01T12:25:19Z</time>
      </trkpt>
      <trkpt lat="43.87192" lon="6.36997">
        <ele>959.7</ele>
        <time>2019-11-01T12:25:20Z</time>
      </trkpt>
      <trkpt lat="43.87202" lon="6.36996">
        <ele>961.9</ele>
        <time>2019-11-01T12:25:22Z</time>
      </trkpt>
      <trkpt lat="43.87212" lon="6.36997">
        <ele>964.9</ele>
        <time>2019-11-01T12:25:24Z</time>
      </trkpt>
      <trkpt lat="43.87217" lon="6.36997">
        <ele>965.9</ele>
        <time>2019-11-01T12:25:25Z</time>
      </trkpt>
      <trkpt lat="43.87226" lon="6.36996">
        <ele>967.8</ele>
        <time>2019-11-01T12:25:27Z</time>
      </trkpt>
      <trkpt lat="43.87231" lon="6.36994">
        <ele>968.4</ele>
        <time>2019-11-01T12:25:28Z</time>
      </trkpt>
      <trkpt lat="43.87236" lon="6.36992">
        <ele>969.2</ele>
        <time>2019-11-01T12:25:29Z</time>
      </trkpt>
      <trkpt lat="43.87246" lon="6.36985">
        <ele>971.2</ele>
        <time>2019-11-01T12:25:31Z</time>
      </trkpt>
      <trkpt lat="43.87251" lon="6.36981">
        <ele>972.5</ele>
        <time>2019-11-01T12:25:32Z</time>
      </trkpt>
      <trkpt lat="43.87255" lon="6.36976">
        <ele>973.7</ele>
        <time>2019-11-01T12:25:33Z</time>
      </trkpt>
      <trkpt lat="43.87263" lon="6.36964">
        <ele>975.2</ele>
        <time>2019-11-01T12:25:35Z</time>
      </trkpt>
      <trkpt lat="43.87267" lon="6.36958">
        <ele>975.7</ele>
        <time>2019-11-01T12:25:36Z</time>
      </trkpt>
      <trkpt lat="43.87272" lon="6.36952">
        <ele>976.6</ele>
        <time>2019-11-01T12:25:37Z</time>
      </trkpt>
      <trkpt lat="43.87282" lon="6.36939">
        <ele>978.3</ele>
        <time>2019-11-01T12:25:39Z</time>
      </trkpt>
      <trkpt lat="43.87287" lon="6.36933">
        <ele>978.7</ele>
        <time>2019-11-01T12:25:40Z</time>
      </trkpt>
      <trkpt lat="43.87298" lon="6.36921">
        <ele>979.3</ele>
        <time>2019-11-01T12:25:42Z</time>
      </trkpt>
      <trkpt lat="43.87304" lon="6.36914">
        <ele>979.2</ele>
        <time>2019-11-01T12:25:43Z</time>
      </trkpt>
      <trkpt lat="43.87317" lon="6.36904">
        <ele>979.3</ele>
        <time>2019-11-01T12:25:45Z</time>
      </trkpt>
      <trkpt lat="43.87328" lon="6.36895">
        <ele>978.1</ele>
        <time>2019-11-01T12:25:47Z</time>
      </trkpt>
      <trkpt lat="43.87332" lon="6.36893">
        <ele>977.9</ele>
        <time>2019-11-01T12:25:48Z</time>
      </trkpt>
      <trkpt lat="43.87336" lon="6.36894">
        <ele>977.9</ele>
        <time>2019-11-01T12:25:49Z</time>
      </trkpt>
      <trkpt lat="43.87343" lon="6.36905">
        <ele>975.2</ele>
        <time>2019-11-01T12:25:51Z</time>
      </trkpt>
      <trkpt lat="43.87347" lon="6.36917">
        <ele>973.6</ele>
        <time>2019-11-01T12:25:53Z</time>
      </trkpt>
      <trkpt lat="43.87349" lon="6.36928">
        <ele>972.3</ele>
        <time>2019-11-01T12:25:55Z</time>
      </trkpt>
      <trkpt lat="43.87342" lon="6.36937">
        <ele>971.3</ele>
        <time>2019-11-01T12:25:57Z</time>
      </trkpt>
      <trkpt lat="43.87337" lon="6.36941">
        <ele>970.9</ele>
        <time>2019-11-01T12:25:59Z</time>
      </trkpt>
      <trkpt lat="43.87334" lon="6.36947">
        <ele>970.5</ele>
        <time>2019-11-01T12:26:01Z</time>
      </trkpt>
      <trkpt lat="43.87332" lon="6.36951">
        <ele>970.3</ele>
        <time>2019-11-01T12:26:02Z</time>
      </trkpt>
      <trkpt lat="43.87328" lon="6.36959">
        <ele>969.8</ele>
        <time>2019-11-01T12:26:04Z</time>
      </trkpt>
      <trkpt lat="43.87325" lon="6.36968">
        <ele>969.3</ele>
        <time>2019-11-01T12:26:06Z</time>
      </trkpt>
      <trkpt lat="43.87324" lon="6.36972">
        <ele>969.1</ele>
        <time>2019-11-01T12:26:07Z</time>
      </trkpt>
      <trkpt lat="43.87322" lon="6.36981">
        <ele>968.6</ele>
        <time>2019-11-01T12:26:09Z</time>
      </trkpt>
      <trkpt lat="43.87319" lon="6.36991">
        <ele>968.2</ele>
        <time>2019-11-01T12:26:11Z</time>
      </trkpt>
      <trkpt lat="43.87315" lon="6.37001">
        <ele>967.7</ele>
        <time>2019-11-01T12:26:13Z</time>
      </trkpt>
      <trkpt lat="43.87314" lon="6.37006">
        <ele>967.4</ele>
        <time>2019-11-01T12:26:14Z</time>
      </trkpt>
      <trkpt lat="43.87309" lon="6.37017">
        <ele>966.9</ele>
        <time>2019-11-01T12:26:16Z</time>
      </trkpt>
      <trkpt lat="43.87304" lon="6.37028">
        <ele>966.3</ele>
        <time>2019-11-01T12:26:18Z</time>
      </trkpt>
      <trkpt lat="43.87301" lon="6.37033">
        <ele>966</ele>
        <time>2019-11-01T12:26:19Z</time>
      </trkpt>
      <trkpt lat="43.87298" lon="6.37039">
        <ele>965.6</ele>
        <time>2019-11-01T12:26:20Z</time>
      </trkpt>
      <trkpt lat="43.87294" lon="6.37044">
        <ele>965.2</ele>
        <time>2019-11-01T12:26:21Z</time>
      </trkpt>
      <trkpt lat="43.87286" lon="6.37054">
        <ele>964.1</ele>
        <time>2019-11-01T12:26:23Z</time>
      </trkpt>
      <trkpt lat="43.87278" lon="6.37063">
        <ele>963.3</ele>
        <time>2019-11-01T12:26:25Z</time>
      </trkpt>
      <trkpt lat="43.87273" lon="6.37067">
        <ele>962.6</ele>
        <time>2019-11-01T12:26:26Z</time>
      </trkpt>
      <trkpt lat="43.87269" lon="6.37071">
        <ele>962</ele>
        <time>2019-11-01T12:26:27Z</time>
      </trkpt>
      <trkpt lat="43.87262" lon="6.3708">
        <ele>961.1</ele>
        <time>2019-11-01T12:26:29Z</time>
      </trkpt>
      <trkpt lat="43.87256" lon="6.37088">
        <ele>960</ele>
        <time>2019-11-01T12:26:31Z</time>
      </trkpt>
      <trkpt lat="43.87254" lon="6.37093">
        <ele>959.3</ele>
        <time>2019-11-01T12:26:33Z</time>
      </trkpt>
      <trkpt lat="43.87251" lon="6.37098">
        <ele>958.6</ele>
        <time>2019-11-01T12:26:35Z</time>
      </trkpt>
      <trkpt lat="43.87249" lon="6.37101">
        <ele>958.1</ele>
        <time>2019-11-01T12:26:36Z</time>
      </trkpt>
      <trkpt lat="43.87245" lon="6.37107">
        <ele>957.5</ele>
        <time>2019-11-01T12:26:38Z</time>
      </trkpt>
      <trkpt lat="43.8724" lon="6.37115">
        <ele>956.7</ele>
        <time>2019-11-01T12:26:40Z</time>
      </trkpt>
      <trkpt lat="43.87237" lon="6.37119">
        <ele>956.3</ele>
        <time>2019-11-01T12:26:41Z</time>
      </trkpt>
      <trkpt lat="43.87235" lon="6.37123">
        <ele>955.9</ele>
        <time>2019-11-01T12:26:42Z</time>
      </trkpt>
      <trkpt lat="43.8723" lon="6.37129">
        <ele>955</ele>
        <time>2019-11-01T12:26:45Z</time>
      </trkpt>
      <trkpt lat="43.87228" lon="6.37132">
        <ele>954.7</ele>
        <time>2019-11-01T12:26:46Z</time>
      </trkpt>
      <trkpt lat="43.87223" lon="6.37137">
        <ele>953.8</ele>
        <time>2019-11-01T12:26:48Z</time>
      </trkpt>
      <trkpt lat="43.8722" lon="6.37139">
        <ele>953.2</ele>
        <time>2019-11-01T12:26:49Z</time>
      </trkpt>
      <trkpt lat="43.87213" lon="6.37145">
        <ele>952.4</ele>
        <time>2019-11-01T12:26:51Z</time>
      </trkpt>
      <trkpt lat="43.87205" lon="6.37151">
        <ele>951.6</ele>
        <time>2019-11-01T12:26:53Z</time>
      </trkpt>
      <trkpt lat="43.87201" lon="6.37154">
        <ele>951.1</ele>
        <time>2019-11-01T12:26:54Z</time>
      </trkpt>
      <trkpt lat="43.87197" lon="6.37156">
        <ele>951</ele>
        <time>2019-11-01T12:26:55Z</time>
      </trkpt>
      <trkpt lat="43.87189" lon="6.37162">
        <ele>950.3</ele>
        <time>2019-11-01T12:26:57Z</time>
      </trkpt>
      <trkpt lat="43.87181" lon="6.37168">
        <ele>949.8</ele>
        <time>2019-11-01T12:26:59Z</time>
      </trkpt>
      <trkpt lat="43.87178" lon="6.37171">
        <ele>949.6</ele>
        <time>2019-11-01T12:27:00Z</time>
      </trkpt>
      <trkpt lat="43.87174" lon="6.37175">
        <ele>949.6</ele>
        <time>2019-11-01T12:27:01Z</time>
      </trkpt>
      <trkpt lat="43.87168" lon="6.37181">
        <ele>949.7</ele>
        <time>2019-11-01T12:27:03Z</time>
      </trkpt>
      <trkpt lat="43.87165" lon="6.37185">
        <ele>949.7</ele>
        <time>2019-11-01T12:27:04Z</time>
      </trkpt>
      <trkpt lat="43.87159" lon="6.37193">
        <ele>949.2</ele>
        <time>2019-11-01T12:27:06Z</time>
      </trkpt>
      <trkpt lat="43.87152" lon="6.37201">
        <ele>948.8</ele>
        <time>2019-11-01T12:27:08Z</time>
      </trkpt>
      <trkpt lat="43.87148" lon="6.37205">
        <ele>948.7</ele>
        <time>2019-11-01T12:27:09Z</time>
      </trkpt>
      <trkpt lat="43.87142" lon="6.37213">
        <ele>948.8</ele>
        <time>2019-11-01T12:27:11Z</time>
      </trkpt>
      <trkpt lat="43.87135" lon="6.37221">
        <ele>948.7</ele>
        <time>2019-11-01T12:27:13Z</time>
      </trkpt>
      <trkpt lat="43.87132" lon="6.37225">
        <ele>948.6</ele>
        <time>2019-11-01T12:27:14Z</time>
      </trkpt>
      <trkpt lat="43.87129" lon="6.37229">
        <ele>948.4</ele>
        <time>2019-11-01T12:27:15Z</time>
      </trkpt>
      <trkpt lat="43.87124" lon="6.37236">
        <ele>948</ele>
        <time>2019-11-01T12:27:17Z</time>
      </trkpt>
      <trkpt lat="43.87121" lon="6.37239">
        <ele>948</ele>
        <time>2019-11-01T12:27:18Z</time>
      </trkpt>
      <trkpt lat="43.87119" lon="6.37242">
        <ele>948</ele>
        <time>2019-11-01T12:27:19Z</time>
      </trkpt>
      <trkpt lat="43.87113" lon="6.37248">
        <ele>947.4</ele>
        <time>2019-11-01T12:27:21Z</time>
      </trkpt>
      <trkpt lat="43.8711" lon="6.37251">
        <ele>947.1</ele>
        <time>2019-11-01T12:27:22Z</time>
      </trkpt>
      <trkpt lat="43.87104" lon="6.37256">
        <ele>946.7</ele>
        <time>2019-11-01T12:27:24Z</time>
      </trkpt>
      <trkpt lat="43.87101" lon="6.37259">
        <ele>946.3</ele>
        <time>2019-11-01T12:27:25Z</time>
      </trkpt>
      <trkpt lat="43.87096" lon="6.37264">
        <ele>945.7</ele>
        <time>2019-11-01T12:27:27Z</time>
      </trkpt>
      <trkpt lat="43.87093" lon="6.37271">
        <ele>945.9</ele>
        <time>2019-11-01T12:27:29Z</time>
      </trkpt>
      <trkpt lat="43.87091" lon="6.37279">
        <ele>945.7</ele>
        <time>2019-11-01T12:27:31Z</time>
      </trkpt>
      <trkpt lat="43.8709" lon="6.37283">
        <ele>945.4</ele>
        <time>2019-11-01T12:27:32Z</time>
      </trkpt>
      <trkpt lat="43.87086" lon="6.37293">
        <ele>945.4</ele>
        <time>2019-11-01T12:27:34Z</time>
      </trkpt>
      <trkpt lat="43.87084" lon="6.37298">
        <ele>945.4</ele>
        <time>2019-11-01T12:27:35Z</time>
      </trkpt>
      <trkpt lat="43.87083" lon="6.37304">
        <ele>945.2</ele>
        <time>2019-11-01T12:27:36Z</time>
      </trkpt>
      <trkpt lat="43.87081" lon="6.37309">
        <ele>944.9</ele>
        <time>2019-11-01T12:27:37Z</time>
      </trkpt>
      <trkpt lat="43.87077" lon="6.37321">
        <ele>943.8</ele>
        <time>2019-11-01T12:27:39Z</time>
      </trkpt>
      <trkpt lat="43.87075" lon="6.37328">
        <ele>943.7</ele>
        <time>2019-11-01T12:27:40Z</time>
      </trkpt>
      <trkpt lat="43.87073" lon="6.37334">
        <ele>943.4</ele>
        <time>2019-11-01T12:27:41Z</time>
      </trkpt>
      <trkpt lat="43.87069" lon="6.37349">
        <ele>942.7</ele>
        <time>2019-11-01T12:27:43Z</time>
      </trkpt>
      <trkpt lat="43.87064" lon="6.37364">
        <ele>941.6</ele>
        <time>2019-11-01T12:27:45Z</time>
      </trkpt>
      <trkpt lat="43.87059" lon="6.37382">
        <ele>940.3</ele>
        <time>2019-11-01T12:27:47Z</time>
      </trkpt>
      <trkpt lat="43.87054" lon="6.374">
        <ele>938.5</ele>
        <time>2019-11-01T12:27:49Z</time>
      </trkpt>
      <trkpt lat="43.87052" lon="6.3741">
        <ele>937.8</ele>
        <time>2019-11-01T12:27:50Z</time>
      </trkpt>
      <trkpt lat="43.8705" lon="6.37419">
        <ele>937.8</ele>
        <time>2019-11-01T12:27:51Z</time>
      </trkpt>
      <trkpt lat="43.87048" lon="6.37428">
        <ele>936.9</ele>
        <time>2019-11-01T12:27:52Z</time>
      </trkpt>
      <trkpt lat="43.87044" lon="6.37446">
        <ele>935.2</ele>
        <time>2019-11-01T12:27:54Z</time>
      </trkpt>
      <trkpt lat="43.87042" lon="6.37454">
        <ele>934.7</ele>
        <time>2019-11-01T12:27:55Z</time>
      </trkpt>
      <trkpt lat="43.87039" lon="6.37463">
        <ele>934.4</ele>
        <time>2019-11-01T12:27:56Z</time>
      </trkpt>
      <trkpt lat="43.87034" lon="6.37482">
        <ele>932.3</ele>
        <time>2019-11-01T12:27:58Z</time>
      </trkpt>
      <trkpt lat="43.87031" lon="6.37491">
        <ele>931.1</ele>
        <time>2019-11-01T12:27:59Z</time>
      </trkpt>
      <trkpt lat="43.87025" lon="6.3751">
        <ele>927.3</ele>
        <time>2019-11-01T12:28:01Z</time>
      </trkpt>
      <trkpt lat="43.87023" lon="6.3752">
        <ele>926.3</ele>
        <time>2019-11-01T12:28:02Z</time>
      </trkpt>
      <trkpt lat="43.87024" lon="6.3754">
        <ele>926.1</ele>
        <time>2019-11-01T12:28:04Z</time>
      </trkpt>
      <trkpt lat="43.87025" lon="6.3755">
        <ele>925.5</ele>
        <time>2019-11-01T12:28:05Z</time>
      </trkpt>
      <trkpt lat="43.87028" lon="6.3756">
        <ele>925.2</ele>
        <time>2019-11-01T12:28:06Z</time>
      </trkpt>
      <trkpt lat="43.87035" lon="6.37579">
        <ele>925.9</ele>
        <time>2019-11-01T12:28:08Z</time>
      </trkpt>
      <trkpt lat="43.87046" lon="6.37596">
        <ele>926.6</ele>
        <time>2019-11-01T12:28:10Z</time>
      </trkpt>
      <trkpt lat="43.87052" lon="6.37613">
        <ele>926.6</ele>
        <time>2019-11-01T12:28:12Z</time>
      </trkpt>
      <trkpt lat="43.87051" lon="6.3763">
        <ele>925.8</ele>
        <time>2019-11-01T12:28:14Z</time>
      </trkpt>
      <trkpt lat="43.87045" lon="6.37648">
        <ele>925</ele>
        <time>2019-11-01T12:28:16Z</time>
      </trkpt>
      <trkpt lat="43.87041" lon="6.37669">
        <ele>923.1</ele>
        <time>2019-11-01T12:28:18Z</time>
      </trkpt>
      <trkpt lat="43.87038" lon="6.3768">
        <ele>922.1</ele>
        <time>2019-11-01T12:28:19Z</time>
      </trkpt>
      <trkpt lat="43.87032" lon="6.37702">
        <ele>921.8</ele>
        <time>2019-11-01T12:28:21Z</time>
      </trkpt>
      <trkpt lat="43.8703" lon="6.37725">
        <ele>921.5</ele>
        <time>2019-11-01T12:28:23Z</time>
      </trkpt>
      <trkpt lat="43.87036" lon="6.3774">
        <ele>922.5</ele>
        <time>2019-11-01T12:28:25Z</time>
      </trkpt>
      <trkpt lat="43.87041" lon="6.37743">
        <ele>923</ele>
        <time>2019-11-01T12:28:26Z</time>
      </trkpt>
      <trkpt lat="43.87046" lon="6.37746">
        <ele>923</ele>
        <time>2019-11-01T12:28:27Z</time>
      </trkpt>
      <trkpt lat="43.8705" lon="6.37749">
        <ele>923</ele>
        <time>2019-11-01T12:28:28Z</time>
      </trkpt>
      <trkpt lat="43.87055" lon="6.37758">
        <ele>924</ele>
        <time>2019-11-01T12:28:30Z</time>
      </trkpt>
      <trkpt lat="43.87058" lon="6.37772">
        <ele>925.3</ele>
        <time>2019-11-01T12:28:32Z</time>
      </trkpt>
      <trkpt lat="43.87059" lon="6.3778">
        <ele>926.2</ele>
        <time>2019-11-01T12:28:33Z</time>
      </trkpt>
      <trkpt lat="43.87058" lon="6.37797">
        <ele>927</ele>
        <time>2019-11-01T12:28:35Z</time>
      </trkpt>
      <trkpt lat="43.87057" lon="6.37816">
        <ele>927.5</ele>
        <time>2019-11-01T12:28:37Z</time>
      </trkpt>
      <trkpt lat="43.87053" lon="6.37834">
        <ele>926.1</ele>
        <time>2019-11-01T12:28:39Z</time>
      </trkpt>
      <trkpt lat="43.87049" lon="6.37853">
        <ele>923.6</ele>
        <time>2019-11-01T12:28:41Z</time>
      </trkpt>
      <trkpt lat="43.87045" lon="6.37873">
        <ele>922.5</ele>
        <time>2019-11-01T12:28:43Z</time>
      </trkpt>
      <trkpt lat="43.8704" lon="6.37894">
        <ele>920.7</ele>
        <time>2019-11-01T12:28:45Z</time>
      </trkpt>
      <trkpt lat="43.87034" lon="6.37913">
        <ele>918.5</ele>
        <time>2019-11-01T12:28:47Z</time>
      </trkpt>
      <trkpt lat="43.87032" lon="6.37924">
        <ele>917.1</ele>
        <time>2019-11-01T12:28:48Z</time>
      </trkpt>
      <trkpt lat="43.87027" lon="6.37946">
        <ele>915.6</ele>
        <time>2019-11-01T12:28:50Z</time>
      </trkpt>
      <trkpt lat="43.87026" lon="6.37957">
        <ele>914.1</ele>
        <time>2019-11-01T12:28:51Z</time>
      </trkpt>
      <trkpt lat="43.87025" lon="6.3798">
        <ele>912.9</ele>
        <time>2019-11-01T12:28:53Z</time>
      </trkpt>
      <trkpt lat="43.87025" lon="6.37992">
        <ele>913.3</ele>
        <time>2019-11-01T12:28:54Z</time>
      </trkpt>
      <trkpt lat="43.87026" lon="6.38015">
        <ele>913.3</ele>
        <time>2019-11-01T12:28:56Z</time>
      </trkpt>
      <trkpt lat="43.8703" lon="6.38037">
        <ele>913.2</ele>
        <time>2019-11-01T12:28:58Z</time>
      </trkpt>
      <trkpt lat="43.87033" lon="6.38047">
        <ele>913.7</ele>
        <time>2019-11-01T12:28:59Z</time>
      </trkpt>
      <trkpt lat="43.87038" lon="6.38056">
        <ele>914.2</ele>
        <time>2019-11-01T12:29:00Z</time>
      </trkpt>
      <trkpt lat="43.87047" lon="6.38075">
        <ele>915.2</ele>
        <time>2019-11-01T12:29:02Z</time>
      </trkpt>
      <trkpt lat="43.87053" lon="6.38096">
        <ele>916.5</ele>
        <time>2019-11-01T12:29:04Z</time>
      </trkpt>
      <trkpt lat="43.87054" lon="6.38108">
        <ele>916.3</ele>
        <time>2019-11-01T12:29:05Z</time>
      </trkpt>
      <trkpt lat="43.87051" lon="6.38131">
        <ele>915</ele>
        <time>2019-11-01T12:29:07Z</time>
      </trkpt>
      <trkpt lat="43.87045" lon="6.38152">
        <ele>913.1</ele>
        <time>2019-11-01T12:29:09Z</time>
      </trkpt>
      <trkpt lat="43.8704" lon="6.3816">
        <ele>912.1</ele>
        <time>2019-11-01T12:29:10Z</time>
      </trkpt>
      <trkpt lat="43.87028" lon="6.38175">
        <ele>910.1</ele>
        <time>2019-11-01T12:29:12Z</time>
      </trkpt>
      <trkpt lat="43.87023" lon="6.38183">
        <ele>909.2</ele>
        <time>2019-11-01T12:29:13Z</time>
      </trkpt>
      <trkpt lat="43.87016" lon="6.38202">
        <ele>907.7</ele>
        <time>2019-11-01T12:29:15Z</time>
      </trkpt>
      <trkpt lat="43.87013" lon="6.38223">
        <ele>905.8</ele>
        <time>2019-11-01T12:29:17Z</time>
      </trkpt>
      <trkpt lat="43.87008" lon="6.38244">
        <ele>905.8</ele>
        <time>2019-11-01T12:29:19Z</time>
      </trkpt>
      <trkpt lat="43.87003" lon="6.38264">
        <ele>905.1</ele>
        <time>2019-11-01T12:29:21Z</time>
      </trkpt>
      <trkpt lat="43.87001" lon="6.38274">
        <ele>904.8</ele>
        <time>2019-11-01T12:29:22Z</time>
      </trkpt>
      <trkpt lat="43.86999" lon="6.38285">
        <ele>905</ele>
        <time>2019-11-01T12:29:23Z</time>
      </trkpt>
      <trkpt lat="43.86993" lon="6.38304">
        <ele>904.7</ele>
        <time>2019-11-01T12:29:25Z</time>
      </trkpt>
      <trkpt lat="43.86981" lon="6.38319">
        <ele>904.6</ele>
        <time>2019-11-01T12:29:27Z</time>
      </trkpt>
      <trkpt lat="43.86966" lon="6.38334">
        <ele>902.7</ele>
        <time>2019-11-01T12:29:29Z</time>
      </trkpt>
      <trkpt lat="43.8696" lon="6.38341">
        <ele>901.9</ele>
        <time>2019-11-01T12:29:30Z</time>
      </trkpt>
      <trkpt lat="43.86951" lon="6.38357">
        <ele>900.4</ele>
        <time>2019-11-01T12:29:32Z</time>
      </trkpt>
      <trkpt lat="43.86944" lon="6.38374">
        <ele>898.4</ele>
        <time>2019-11-01T12:29:34Z</time>
      </trkpt>
      <trkpt lat="43.86938" lon="6.38394">
        <ele>897.2</ele>
        <time>2019-11-01T12:29:36Z</time>
      </trkpt>
      <trkpt lat="43.86933" lon="6.38417">
        <ele>896.3</ele>
        <time>2019-11-01T12:29:38Z</time>
      </trkpt>
      <trkpt lat="43.86928" lon="6.38439">
        <ele>895.5</ele>
        <time>2019-11-01T12:29:40Z</time>
      </trkpt>
      <trkpt lat="43.86927" lon="6.3846">
        <ele>895.3</ele>
        <time>2019-11-01T12:29:42Z</time>
      </trkpt>
      <trkpt lat="43.8693" lon="6.3848">
        <ele>895.9</ele>
        <time>2019-11-01T12:29:44Z</time>
      </trkpt>
      <trkpt lat="43.86935" lon="6.385">
        <ele>896.4</ele>
        <time>2019-11-01T12:29:46Z</time>
      </trkpt>
      <trkpt lat="43.86938" lon="6.38521">
        <ele>895.9</ele>
        <time>2019-11-01T12:29:48Z</time>
      </trkpt>
      <trkpt lat="43.86941" lon="6.38542">
        <ele>895.2</ele>
        <time>2019-11-01T12:29:50Z</time>
      </trkpt>
      <trkpt lat="43.86939" lon="6.38566">
        <ele>894.6</ele>
        <time>2019-11-01T12:29:52Z</time>
      </trkpt>
      <trkpt lat="43.86934" lon="6.38588">
        <ele>892.3</ele>
        <time>2019-11-01T12:29:54Z</time>
      </trkpt>
      <trkpt lat="43.86926" lon="6.38608">
        <ele>890.3</ele>
        <time>2019-11-01T12:29:56Z</time>
      </trkpt>
      <trkpt lat="43.86916" lon="6.38626">
        <ele>888.7</ele>
        <time>2019-11-01T12:29:58Z</time>
      </trkpt>
      <trkpt lat="43.86911" lon="6.38635">
        <ele>888</ele>
        <time>2019-11-01T12:29:59Z</time>
      </trkpt>
      <trkpt lat="43.86903" lon="6.38653">
        <ele>886.7</ele>
        <time>2019-11-01T12:30:01Z</time>
      </trkpt>
      <trkpt lat="43.86902" lon="6.38663">
        <ele>886.1</ele>
        <time>2019-11-01T12:30:02Z</time>
      </trkpt>
      <trkpt lat="43.869" lon="6.38685">
        <ele>884.3</ele>
        <time>2019-11-01T12:30:04Z</time>
      </trkpt>
      <trkpt lat="43.86897" lon="6.38696">
        <ele>883.9</ele>
        <time>2019-11-01T12:30:05Z</time>
      </trkpt>
      <trkpt lat="43.86893" lon="6.38706">
        <ele>883.4</ele>
        <time>2019-11-01T12:30:06Z</time>
      </trkpt>
      <trkpt lat="43.86886" lon="6.38726">
        <ele>882.7</ele>
        <time>2019-11-01T12:30:08Z</time>
      </trkpt>
      <trkpt lat="43.86882" lon="6.38747">
        <ele>882.1</ele>
        <time>2019-11-01T12:30:10Z</time>
      </trkpt>
      <trkpt lat="43.86883" lon="6.38758">
        <ele>882.6</ele>
        <time>2019-11-01T12:30:11Z</time>
      </trkpt>
      <trkpt lat="43.86885" lon="6.38768">
        <ele>883.6</ele>
        <time>2019-11-01T12:30:12Z</time>
      </trkpt>
      <trkpt lat="43.86893" lon="6.38787">
        <ele>885.1</ele>
        <time>2019-11-01T12:30:14Z</time>
      </trkpt>
      <trkpt lat="43.86893" lon="6.38808">
        <ele>884.9</ele>
        <time>2019-11-01T12:30:16Z</time>
      </trkpt>
      <trkpt lat="43.86892" lon="6.38819">
        <ele>884.3</ele>
        <time>2019-11-01T12:30:17Z</time>
      </trkpt>
      <trkpt lat="43.8689" lon="6.38829">
        <ele>884.1</ele>
        <time>2019-11-01T12:30:18Z</time>
      </trkpt>
      <trkpt lat="43.86889" lon="6.38847">
        <ele>883.6</ele>
        <time>2019-11-01T12:30:20Z</time>
      </trkpt>
      <trkpt lat="43.86889" lon="6.38856">
        <ele>883.1</ele>
        <time>2019-11-01T12:30:21Z</time>
      </trkpt>
      <trkpt lat="43.86894" lon="6.38871">
        <ele>883.4</ele>
        <time>2019-11-01T12:30:23Z</time>
      </trkpt>
      <trkpt lat="43.869" lon="6.38882">
        <ele>883.8</ele>
        <time>2019-11-01T12:30:25Z</time>
      </trkpt>
      <trkpt lat="43.86901" lon="6.38887">
        <ele>884.2</ele>
        <time>2019-11-01T12:30:26Z</time>
      </trkpt>
      <trkpt lat="43.86905" lon="6.38896">
        <ele>884.2</ele>
        <time>2019-11-01T12:30:28Z</time>
      </trkpt>
      <trkpt lat="43.86908" lon="6.38906">
        <ele>884.3</ele>
        <time>2019-11-01T12:30:30Z</time>
      </trkpt>
      <trkpt lat="43.8691" lon="6.3891">
        <ele>884.4</ele>
        <time>2019-11-01T12:30:31Z</time>
      </trkpt>
      <trkpt lat="43.86911" lon="6.38915">
        <ele>884.5</ele>
        <time>2019-11-01T12:30:32Z</time>
      </trkpt>
      <trkpt lat="43.86914" lon="6.38924">
        <ele>884.8</ele>
        <time>2019-11-01T12:30:34Z</time>
      </trkpt>
      <trkpt lat="43.86916" lon="6.38929">
        <ele>885.2</ele>
        <time>2019-11-01T12:30:35Z</time>
      </trkpt>
      <trkpt lat="43.86919" lon="6.38938">
        <ele>885.6</ele>
        <time>2019-11-01T12:30:37Z</time>
      </trkpt>
      <trkpt lat="43.8692" lon="6.38942">
        <ele>885.6</ele>
        <time>2019-11-01T12:30:38Z</time>
      </trkpt>
      <trkpt lat="43.86922" lon="6.38946">
        <ele>885.6</ele>
        <time>2019-11-01T12:30:39Z</time>
      </trkpt>
      <trkpt lat="43.86924" lon="6.38955">
        <ele>885.3</ele>
        <time>2019-11-01T12:30:41Z</time>
      </trkpt>
      <trkpt lat="43.86926" lon="6.38964">
        <ele>885.3</ele>
        <time>2019-11-01T12:30:43Z</time>
      </trkpt>
      <trkpt lat="43.86928" lon="6.38975">
        <ele>885.3</ele>
        <time>2019-11-01T12:30:45Z</time>
      </trkpt>
      <trkpt lat="43.86929" lon="6.38981">
        <ele>885.3</ele>
        <time>2019-11-01T12:30:46Z</time>
      </trkpt>
      <trkpt lat="43.86931" lon="6.38991">
        <ele>884.8</ele>
        <time>2019-11-01T12:30:48Z</time>
      </trkpt>
      <trkpt lat="43.86931" lon="6.38998">
        <ele>884.8</ele>
        <time>2019-11-01T12:30:49Z</time>
      </trkpt>
      <trkpt lat="43.86932" lon="6.39004">
        <ele>884.8</ele>
        <time>2019-11-01T12:30:50Z</time>
      </trkpt>
      <trkpt lat="43.86934" lon="6.39018">
        <ele>884.2</ele>
        <time>2019-11-01T12:30:52Z</time>
      </trkpt>
      <trkpt lat="43.86936" lon="6.39032">
        <ele>883.3</ele>
        <time>2019-11-01T12:30:54Z</time>
      </trkpt>
      <trkpt lat="43.86936" lon="6.39039">
        <ele>882.7</ele>
        <time>2019-11-01T12:30:55Z</time>
      </trkpt>
      <trkpt lat="43.86938" lon="6.39052">
        <ele>881.9</ele>
        <time>2019-11-01T12:30:57Z</time>
      </trkpt>
      <trkpt lat="43.86939" lon="6.39064">
        <ele>881.2</ele>
        <time>2019-11-01T12:30:59Z</time>
      </trkpt>
      <trkpt lat="43.86939" lon="6.39077">
        <ele>880.5</ele>
        <time>2019-11-01T12:31:01Z</time>
      </trkpt>
      <trkpt lat="43.8694" lon="6.39091">
        <ele>880.2</ele>
        <time>2019-11-01T12:31:03Z</time>
      </trkpt>
      <trkpt lat="43.86941" lon="6.39098">
        <ele>880.4</ele>
        <time>2019-11-01T12:31:04Z</time>
      </trkpt>
      <trkpt lat="43.86944" lon="6.39113">
        <ele>879.9</ele>
        <time>2019-11-01T12:31:06Z</time>
      </trkpt>
      <trkpt lat="43.86946" lon="6.39129">
        <ele>879.6</ele>
        <time>2019-11-01T12:31:08Z</time>
      </trkpt>
      <trkpt lat="43.86949" lon="6.39145">
        <ele>879.3</ele>
        <time>2019-11-01T12:31:10Z</time>
      </trkpt>
      <trkpt lat="43.86952" lon="6.39162">
        <ele>879</ele>
        <time>2019-11-01T12:31:12Z</time>
      </trkpt>
      <trkpt lat="43.86955" lon="6.39177">
        <ele>878.7</ele>
        <time>2019-11-01T12:31:14Z</time>
      </trkpt>
      <trkpt lat="43.86956" lon="6.39184">
        <ele>878.7</ele>
        <time>2019-11-01T12:31:15Z</time>
      </trkpt>
      <trkpt lat="43.86958" lon="6.3919">
        <ele>878.6</ele>
        <time>2019-11-01T12:31:16Z</time>
      </trkpt>
      <trkpt lat="43.8696" lon="6.39195">
        <ele>878.5</ele>
        <time>2019-11-01T12:31:17Z</time>
      </trkpt>
      <trkpt lat="43.86963" lon="6.39201">
        <ele>878.4</ele>
        <time>2019-11-01T12:31:18Z</time>
      </trkpt>
      <trkpt lat="43.8697" lon="6.39211">
        <ele>879.2</ele>
        <time>2019-11-01T12:31:20Z</time>
      </trkpt>
      <trkpt lat="43.86977" lon="6.3922">
        <ele>879.9</ele>
        <time>2019-11-01T12:31:22Z</time>
      </trkpt>
      <trkpt lat="43.86981" lon="6.39223">
        <ele>880.6</ele>
        <time>2019-11-01T12:31:23Z</time>
      </trkpt>
      <trkpt lat="43.86985" lon="6.39226">
        <ele>881.2</ele>
        <time>2019-11-01T12:31:24Z</time>
      </trkpt>
      <trkpt lat="43.8699" lon="6.39229">
        <ele>881.4</ele>
        <time>2019-11-01T12:31:25Z</time>
      </trkpt>
      <trkpt lat="43.86999" lon="6.39233">
        <ele>881.7</ele>
        <time>2019-11-01T12:31:27Z</time>
      </trkpt>
      <trkpt lat="43.87003" lon="6.39236">
        <ele>882.1</ele>
        <time>2019-11-01T12:31:28Z</time>
      </trkpt>
      <trkpt lat="43.87012" lon="6.3924">
        <ele>882.7</ele>
        <time>2019-11-01T12:31:30Z</time>
      </trkpt>
      <trkpt lat="43.87023" lon="6.39248">
        <ele>883.9</ele>
        <time>2019-11-01T12:31:32Z</time>
      </trkpt>
      <trkpt lat="43.87033" lon="6.39256">
        <ele>884.1</ele>
        <time>2019-11-01T12:31:34Z</time>
      </trkpt>
      <trkpt lat="43.87042" lon="6.39264">
        <ele>884.4</ele>
        <time>2019-11-01T12:31:36Z</time>
      </trkpt>
      <trkpt lat="43.87046" lon="6.39267">
        <ele>884.4</ele>
        <time>2019-11-01T12:31:37Z</time>
      </trkpt>
      <trkpt lat="43.87051" lon="6.39271">
        <ele>884.5</ele>
        <time>2019-11-01T12:31:38Z</time>
      </trkpt>
      <trkpt lat="43.8706" lon="6.39281">
        <ele>884.8</ele>
        <time>2019-11-01T12:31:40Z</time>
      </trkpt>
      <trkpt lat="43.87065" lon="6.39286">
        <ele>884.6</ele>
        <time>2019-11-01T12:31:41Z</time>
      </trkpt>
      <trkpt lat="43.87069" lon="6.39291">
        <ele>884.4</ele>
        <time>2019-11-01T12:31:42Z</time>
      </trkpt>
      <trkpt lat="43.87077" lon="6.39302">
        <ele>883.8</ele>
        <time>2019-11-01T12:31:44Z</time>
      </trkpt>
      <trkpt lat="43.87081" lon="6.39308">
        <ele>883.5</ele>
        <time>2019-11-01T12:31:45Z</time>
      </trkpt>
      <trkpt lat="43.8709" lon="6.39318">
        <ele>882.9</ele>
        <time>2019-11-01T12:31:47Z</time>
      </trkpt>
      <trkpt lat="43.87098" lon="6.3933">
        <ele>881.8</ele>
        <time>2019-11-01T12:31:49Z</time>
      </trkpt>
      <trkpt lat="43.87106" lon="6.39342">
        <ele>881</ele>
        <time>2019-11-01T12:31:51Z</time>
      </trkpt>
      <trkpt lat="43.87115" lon="6.39354">
        <ele>880.5</ele>
        <time>2019-11-01T12:31:53Z</time>
      </trkpt>
      <trkpt lat="43.87119" lon="6.3936">
        <ele>880.5</ele>
        <time>2019-11-01T12:31:54Z</time>
      </trkpt>
      <trkpt lat="43.87127" lon="6.39373">
        <ele>879.6</ele>
        <time>2019-11-01T12:31:56Z</time>
      </trkpt>
      <trkpt lat="43.8713" lon="6.39379">
        <ele>879.2</ele>
        <time>2019-11-01T12:31:57Z</time>
      </trkpt>
      <trkpt lat="43.87137" lon="6.39392">
        <ele>878.6</ele>
        <time>2019-11-01T12:31:59Z</time>
      </trkpt>
      <trkpt lat="43.87141" lon="6.39398">
        <ele>878.3</ele>
        <time>2019-11-01T12:32:00Z</time>
      </trkpt>
      <trkpt lat="43.87145" lon="6.39404">
        <ele>877.9</ele>
        <time>2019-11-01T12:32:01Z</time>
      </trkpt>
      <trkpt lat="43.87156" lon="6.39413">
        <ele>876.7</ele>
        <time>2019-11-01T12:32:03Z</time>
      </trkpt>
      <trkpt lat="43.87167" lon="6.39418">
        <ele>876.7</ele>
        <time>2019-11-01T12:32:05Z</time>
      </trkpt>
      <trkpt lat="43.87179" lon="6.39425">
        <ele>877.4</ele>
        <time>2019-11-01T12:32:07Z</time>
      </trkpt>
      <trkpt lat="43.87187" lon="6.39434">
        <ele>877.5</ele>
        <time>2019-11-01T12:32:09Z</time>
      </trkpt>
      <trkpt lat="43.87193" lon="6.39447">
        <ele>878.5</ele>
        <time>2019-11-01T12:32:11Z</time>
      </trkpt>
      <trkpt lat="43.87197" lon="6.3946">
        <ele>879.3</ele>
        <time>2019-11-01T12:32:13Z</time>
      </trkpt>
      <trkpt lat="43.87203" lon="6.39473">
        <ele>880.1</ele>
        <time>2019-11-01T12:32:15Z</time>
      </trkpt>
      <trkpt lat="43.87205" lon="6.39481">
        <ele>880</ele>
        <time>2019-11-01T12:32:16Z</time>
      </trkpt>
      <trkpt lat="43.87206" lon="6.39489">
        <ele>879.4</ele>
        <time>2019-11-01T12:32:17Z</time>
      </trkpt>
      <trkpt lat="43.87207" lon="6.39497">
        <ele>879.4</ele>
        <time>2019-11-01T12:32:18Z</time>
      </trkpt>
      <trkpt lat="43.87208" lon="6.39512">
        <ele>880.1</ele>
        <time>2019-11-01T12:32:20Z</time>
      </trkpt>
      <trkpt lat="43.8721" lon="6.39519">
        <ele>880.1</ele>
        <time>2019-11-01T12:32:21Z</time>
      </trkpt>
      <trkpt lat="43.87212" lon="6.39525">
        <ele>880.2</ele>
        <time>2019-11-01T12:32:22Z</time>
      </trkpt>
      <trkpt lat="43.87219" lon="6.39535">
        <ele>880.4</ele>
        <time>2019-11-01T12:32:24Z</time>
      </trkpt>
      <trkpt lat="43.87227" lon="6.39545">
        <ele>880.5</ele>
        <time>2019-11-01T12:32:26Z</time>
      </trkpt>
      <trkpt lat="43.8723" lon="6.39549">
        <ele>880.8</ele>
        <time>2019-11-01T12:32:27Z</time>
      </trkpt>
      <trkpt lat="43.87237" lon="6.39559">
        <ele>881.2</ele>
        <time>2019-11-01T12:32:29Z</time>
      </trkpt>
      <trkpt lat="43.8724" lon="6.39565">
        <ele>881.2</ele>
        <time>2019-11-01T12:32:30Z</time>
      </trkpt>
      <trkpt lat="43.87242" lon="6.39571">
        <ele>881.5</ele>
        <time>2019-11-01T12:32:31Z</time>
      </trkpt>
      <trkpt lat="43.87247" lon="6.39583">
        <ele>880.7</ele>
        <time>2019-11-01T12:32:33Z</time>
      </trkpt>
      <trkpt lat="43.87253" lon="6.39594">
        <ele>880.9</ele>
        <time>2019-11-01T12:32:35Z</time>
      </trkpt>
      <trkpt lat="43.87256" lon="6.39599">
        <ele>880.7</ele>
        <time>2019-11-01T12:32:36Z</time>
      </trkpt>
      <trkpt lat="43.8726" lon="6.39604">
        <ele>880.7</ele>
        <time>2019-11-01T12:32:37Z</time>
      </trkpt>
      <trkpt lat="43.87267" lon="6.39614">
        <ele>881</ele>
        <time>2019-11-01T12:32:39Z</time>
      </trkpt>
      <trkpt lat="43.87274" lon="6.39624">
        <ele>881.6</ele>
        <time>2019-11-01T12:32:41Z</time>
      </trkpt>
      <trkpt lat="43.87278" lon="6.39629">
        <ele>881.6</ele>
        <time>2019-11-01T12:32:42Z</time>
      </trkpt>
      <trkpt lat="43.87285" lon="6.39638">
        <ele>882.1</ele>
        <time>2019-11-01T12:32:44Z</time>
      </trkpt>
      <trkpt lat="43.87289" lon="6.39642">
        <ele>882.5</ele>
        <time>2019-11-01T12:32:45Z</time>
      </trkpt>
      <trkpt lat="43.87293" lon="6.39647">
        <ele>882.8</ele>
        <time>2019-11-01T12:32:46Z</time>
      </trkpt>
      <trkpt lat="43.873" lon="6.39655">
        <ele>883.5</ele>
        <time>2019-11-01T12:32:48Z</time>
      </trkpt>
      <trkpt lat="43.87306" lon="6.39665">
        <ele>884.4</ele>
        <time>2019-11-01T12:32:50Z</time>
      </trkpt>
      <trkpt lat="43.87309" lon="6.3967">
        <ele>884.5</ele>
        <time>2019-11-01T12:32:51Z</time>
      </trkpt>
      <trkpt lat="43.87311" lon="6.39676">
        <ele>884.6</ele>
        <time>2019-11-01T12:32:52Z</time>
      </trkpt>
      <trkpt lat="43.87313" lon="6.39688">
        <ele>884.8</ele>
        <time>2019-11-01T12:32:54Z</time>
      </trkpt>
      <trkpt lat="43.87312" lon="6.39695">
        <ele>885</ele>
        <time>2019-11-01T12:32:55Z</time>
      </trkpt>
      <trkpt lat="43.87309" lon="6.39708">
        <ele>884.9</ele>
        <time>2019-11-01T12:32:57Z</time>
      </trkpt>
      <trkpt lat="43.87309" lon="6.39721">
        <ele>885</ele>
        <time>2019-11-01T12:32:59Z</time>
      </trkpt>
      <trkpt lat="43.87313" lon="6.39734">
        <ele>885</ele>
        <time>2019-11-01T12:33:01Z</time>
      </trkpt>
      <trkpt lat="43.87318" lon="6.39746">
        <ele>885.3</ele>
        <time>2019-11-01T12:33:03Z</time>
      </trkpt>
      <trkpt lat="43.87324" lon="6.39757">
        <ele>885.2</ele>
        <time>2019-11-01T12:33:05Z</time>
      </trkpt>
      <trkpt lat="43.87327" lon="6.39762">
        <ele>885.1</ele>
        <time>2019-11-01T12:33:06Z</time>
      </trkpt>
      <trkpt lat="43.8733" lon="6.39768">
        <ele>885</ele>
        <time>2019-11-01T12:33:07Z</time>
      </trkpt>
      <trkpt lat="43.87338" lon="6.39777">
        <ele>884.9</ele>
        <time>2019-11-01T12:33:09Z</time>
      </trkpt>
      <trkpt lat="43.87347" lon="6.39785">
        <ele>884.4</ele>
        <time>2019-11-01T12:33:11Z</time>
      </trkpt>
      <trkpt lat="43.87355" lon="6.39795">
        <ele>883.7</ele>
        <time>2019-11-01T12:33:13Z</time>
      </trkpt>
      <trkpt lat="43.8736" lon="6.39806">
        <ele>882.8</ele>
        <time>2019-11-01T12:33:15Z</time>
      </trkpt>
      <trkpt lat="43.87362" lon="6.39812">
        <ele>882.7</ele>
        <time>2019-11-01T12:33:16Z</time>
      </trkpt>
      <trkpt lat="43.87365" lon="6.39818">
        <ele>882.2</ele>
        <time>2019-11-01T12:33:17Z</time>
      </trkpt>
      <trkpt lat="43.87368" lon="6.39823">
        <ele>881.5</ele>
        <time>2019-11-01T12:33:18Z</time>
      </trkpt>
      <trkpt lat="43.87374" lon="6.39836">
        <ele>879.8</ele>
        <time>2019-11-01T12:33:20Z</time>
      </trkpt>
      <trkpt lat="43.8738" lon="6.39849">
        <ele>878.3</ele>
        <time>2019-11-01T12:33:22Z</time>
      </trkpt>
      <trkpt lat="43.87383" lon="6.39856">
        <ele>877.8</ele>
        <time>2019-11-01T12:33:23Z</time>
      </trkpt>
      <trkpt lat="43.87391" lon="6.39869">
        <ele>877.1</ele>
        <time>2019-11-01T12:33:25Z</time>
      </trkpt>
      <trkpt lat="43.87395" lon="6.39875">
        <ele>876</ele>
        <time>2019-11-01T12:33:26Z</time>
      </trkpt>
      <trkpt lat="43.87404" lon="6.39886">
        <ele>874.6</ele>
        <time>2019-11-01T12:33:28Z</time>
      </trkpt>
      <trkpt lat="43.87409" lon="6.39903">
        <ele>873.4</ele>
        <time>2019-11-01T12:33:30Z</time>
      </trkpt>
      <trkpt lat="43.8741" lon="6.39912">
        <ele>872.7</ele>
        <time>2019-11-01T12:33:31Z</time>
      </trkpt>
      <trkpt lat="43.87412" lon="6.39931">
        <ele>871.4</ele>
        <time>2019-11-01T12:33:33Z</time>
      </trkpt>
      <trkpt lat="43.87416" lon="6.3995">
        <ele>870.4</ele>
        <time>2019-11-01T12:33:35Z</time>
      </trkpt>
      <trkpt lat="43.87419" lon="6.39959">
        <ele>870.3</ele>
        <time>2019-11-01T12:33:36Z</time>
      </trkpt>
      <trkpt lat="43.87422" lon="6.39968">
        <ele>870.2</ele>
        <time>2019-11-01T12:33:37Z</time>
      </trkpt>
      <trkpt lat="43.87425" lon="6.39986">
        <ele>869.9</ele>
        <time>2019-11-01T12:33:39Z</time>
      </trkpt>
      <trkpt lat="43.87426" lon="6.39995">
        <ele>869.8</ele>
        <time>2019-11-01T12:33:40Z</time>
      </trkpt>
      <trkpt lat="43.87427" lon="6.40005">
        <ele>870</ele>
        <time>2019-11-01T12:33:41Z</time>
      </trkpt>
      <trkpt lat="43.8743" lon="6.40024">
        <ele>870.3</ele>
        <time>2019-11-01T12:33:43Z</time>
      </trkpt>
      <trkpt lat="43.87435" lon="6.4004">
        <ele>869.8</ele>
        <time>2019-11-01T12:33:45Z</time>
      </trkpt>
      <trkpt lat="43.87439" lon="6.40047">
        <ele>869.6</ele>
        <time>2019-11-01T12:33:46Z</time>
      </trkpt>
      <trkpt lat="43.87448" lon="6.40059">
        <ele>869.6</ele>
        <time>2019-11-01T12:33:48Z</time>
      </trkpt>
      <trkpt lat="43.87457" lon="6.40072">
        <ele>870</ele>
        <time>2019-11-01T12:33:50Z</time>
      </trkpt>
      <trkpt lat="43.87468" lon="6.40083">
        <ele>870.5</ele>
        <time>2019-11-01T12:33:52Z</time>
      </trkpt>
      <trkpt lat="43.87473" lon="6.40086">
        <ele>870.8</ele>
        <time>2019-11-01T12:33:53Z</time>
      </trkpt>
      <trkpt lat="43.87485" lon="6.40091">
        <ele>871.3</ele>
        <time>2019-11-01T12:33:55Z</time>
      </trkpt>
      <trkpt lat="43.87495" lon="6.40096">
        <ele>871.9</ele>
        <time>2019-11-01T12:33:57Z</time>
      </trkpt>
      <trkpt lat="43.87504" lon="6.40103">
        <ele>872.5</ele>
        <time>2019-11-01T12:33:59Z</time>
      </trkpt>
      <trkpt lat="43.87508" lon="6.40107">
        <ele>872.4</ele>
        <time>2019-11-01T12:34:00Z</time>
      </trkpt>
      <trkpt lat="43.87515" lon="6.40117">
        <ele>872</ele>
        <time>2019-11-01T12:34:02Z</time>
      </trkpt>
      <trkpt lat="43.87518" lon="6.40123">
        <ele>871.7</ele>
        <time>2019-11-01T12:34:03Z</time>
      </trkpt>
      <trkpt lat="43.87523" lon="6.40135">
        <ele>872.1</ele>
        <time>2019-11-01T12:34:05Z</time>
      </trkpt>
      <trkpt lat="43.87527" lon="6.40145">
        <ele>872.1</ele>
        <time>2019-11-01T12:34:07Z</time>
      </trkpt>
      <trkpt lat="43.87529" lon="6.40151">
        <ele>872.4</ele>
        <time>2019-11-01T12:34:08Z</time>
      </trkpt>
      <trkpt lat="43.87534" lon="6.40161">
        <ele>872.2</ele>
        <time>2019-11-01T12:34:10Z</time>
      </trkpt>
      <trkpt lat="43.87539" lon="6.40173">
        <ele>870.9</ele>
        <time>2019-11-01T12:34:12Z</time>
      </trkpt>
      <trkpt lat="43.87542" lon="6.40186">
        <ele>870</ele>
        <time>2019-11-01T12:34:14Z</time>
      </trkpt>
      <trkpt lat="43.87543" lon="6.40193">
        <ele>869.3</ele>
        <time>2019-11-01T12:34:15Z</time>
      </trkpt>
      <trkpt lat="43.87545" lon="6.40205">
        <ele>868</ele>
        <time>2019-11-01T12:34:17Z</time>
      </trkpt>
      <trkpt lat="43.87546" lon="6.40212">
        <ele>867.4</ele>
        <time>2019-11-01T12:34:18Z</time>
      </trkpt>
      <trkpt lat="43.87549" lon="6.40225">
        <ele>866.4</ele>
        <time>2019-11-01T12:34:20Z</time>
      </trkpt>
      <trkpt lat="43.87551" lon="6.40238">
        <ele>865.7</ele>
        <time>2019-11-01T12:34:22Z</time>
      </trkpt>
      <trkpt lat="43.87552" lon="6.40252">
        <ele>864.8</ele>
        <time>2019-11-01T12:34:24Z</time>
      </trkpt>
      <trkpt lat="43.87553" lon="6.40258">
        <ele>864.5</ele>
        <time>2019-11-01T12:34:25Z</time>
      </trkpt>
      <trkpt lat="43.87553" lon="6.40265">
        <ele>864.3</ele>
        <time>2019-11-01T12:34:26Z</time>
      </trkpt>
      <trkpt lat="43.87555" lon="6.40278">
        <ele>863.9</ele>
        <time>2019-11-01T12:34:28Z</time>
      </trkpt>
      <trkpt lat="43.8756" lon="6.40291">
        <ele>863.3</ele>
        <time>2019-11-01T12:34:30Z</time>
      </trkpt>
      <trkpt lat="43.87568" lon="6.40301">
        <ele>863.5</ele>
        <time>2019-11-01T12:34:32Z</time>
      </trkpt>
      <trkpt lat="43.87579" lon="6.40307">
        <ele>864.2</ele>
        <time>2019-11-01T12:34:34Z</time>
      </trkpt>
      <trkpt lat="43.87584" lon="6.40309">
        <ele>864.6</ele>
        <time>2019-11-01T12:34:35Z</time>
      </trkpt>
      <trkpt lat="43.87594" lon="6.40313">
        <ele>865.4</ele>
        <time>2019-11-01T12:34:37Z</time>
      </trkpt>
      <trkpt lat="43.87599" lon="6.40315">
        <ele>865.7</ele>
        <time>2019-11-01T12:34:38Z</time>
      </trkpt>
      <trkpt lat="43.87609" lon="6.4032">
        <ele>866.3</ele>
        <time>2019-11-01T12:34:40Z</time>
      </trkpt>
      <trkpt lat="43.87619" lon="6.40326">
        <ele>866.7</ele>
        <time>2019-11-01T12:34:42Z</time>
      </trkpt>
      <trkpt lat="43.87629" lon="6.40333">
        <ele>867.5</ele>
        <time>2019-11-01T12:34:44Z</time>
      </trkpt>
      <trkpt lat="43.87634" lon="6.40337">
        <ele>867.8</ele>
        <time>2019-11-01T12:34:45Z</time>
      </trkpt>
      <trkpt lat="43.87646" lon="6.40348">
        <ele>867.2</ele>
        <time>2019-11-01T12:34:47Z</time>
      </trkpt>
      <trkpt lat="43.8765" lon="6.40357">
        <ele>866.9</ele>
        <time>2019-11-01T12:34:48Z</time>
      </trkpt>
      <trkpt lat="43.87651" lon="6.40376">
        <ele>864.7</ele>
        <time>2019-11-01T12:34:50Z</time>
      </trkpt>
      <trkpt lat="43.87648" lon="6.40385">
        <ele>863.6</ele>
        <time>2019-11-01T12:34:51Z</time>
      </trkpt>
      <trkpt lat="43.87643" lon="6.40401">
        <ele>861.3</ele>
        <time>2019-11-01T12:34:53Z</time>
      </trkpt>
      <trkpt lat="43.87641" lon="6.40409">
        <ele>860.8</ele>
        <time>2019-11-01T12:34:54Z</time>
      </trkpt>
      <trkpt lat="43.8764" lon="6.40418">
        <ele>859.9</ele>
        <time>2019-11-01T12:34:55Z</time>
      </trkpt>
      <trkpt lat="43.87638" lon="6.40435">
        <ele>858.7</ele>
        <time>2019-11-01T12:34:57Z</time>
      </trkpt>
      <trkpt lat="43.87637" lon="6.40453">
        <ele>857.6</ele>
        <time>2019-11-01T12:34:59Z</time>
      </trkpt>
      <trkpt lat="43.87636" lon="6.40461">
        <ele>857.3</ele>
        <time>2019-11-01T12:35:00Z</time>
      </trkpt>
      <trkpt lat="43.87635" lon="6.4047">
        <ele>857.1</ele>
        <time>2019-11-01T12:35:01Z</time>
      </trkpt>
      <trkpt lat="43.87635" lon="6.40486">
        <ele>856.9</ele>
        <time>2019-11-01T12:35:03Z</time>
      </trkpt>
      <trkpt lat="43.87635" lon="6.40502">
        <ele>857.2</ele>
        <time>2019-11-01T12:35:05Z</time>
      </trkpt>
      <trkpt lat="43.87635" lon="6.40517">
        <ele>858.6</ele>
        <time>2019-11-01T12:35:07Z</time>
      </trkpt>
      <trkpt lat="43.87637" lon="6.40532">
        <ele>859</ele>
        <time>2019-11-01T12:35:09Z</time>
      </trkpt>
      <trkpt lat="43.87641" lon="6.40546">
        <ele>859.9</ele>
        <time>2019-11-01T12:35:11Z</time>
      </trkpt>
      <trkpt lat="43.87643" lon="6.40561">
        <ele>860.5</ele>
        <time>2019-11-01T12:35:13Z</time>
      </trkpt>
      <trkpt lat="43.87643" lon="6.40569">
        <ele>860.5</ele>
        <time>2019-11-01T12:35:14Z</time>
      </trkpt>
      <trkpt lat="43.87642" lon="6.40584">
        <ele>860.6</ele>
        <time>2019-11-01T12:35:16Z</time>
      </trkpt>
      <trkpt lat="43.87641" lon="6.40592">
        <ele>860.7</ele>
        <time>2019-11-01T12:35:17Z</time>
      </trkpt>
      <trkpt lat="43.87641" lon="6.40608">
        <ele>860.8</ele>
        <time>2019-11-01T12:35:19Z</time>
      </trkpt>
      <trkpt lat="43.87642" lon="6.40616">
        <ele>860.9</ele>
        <time>2019-11-01T12:35:20Z</time>
      </trkpt>
      <trkpt lat="43.87642" lon="6.40624">
        <ele>861.8</ele>
        <time>2019-11-01T12:35:21Z</time>
      </trkpt>
      <trkpt lat="43.87644" lon="6.4064">
        <ele>861.8</ele>
        <time>2019-11-01T12:35:23Z</time>
      </trkpt>
      <trkpt lat="43.87645" lon="6.40648">
        <ele>861.4</ele>
        <time>2019-11-01T12:35:24Z</time>
      </trkpt>
      <trkpt lat="43.87647" lon="6.40664">
        <ele>860.4</ele>
        <time>2019-11-01T12:35:26Z</time>
      </trkpt>
      <trkpt lat="43.87648" lon="6.40672">
        <ele>860</ele>
        <time>2019-11-01T12:35:27Z</time>
      </trkpt>
      <trkpt lat="43.87651" lon="6.40689">
        <ele>859.1</ele>
        <time>2019-11-01T12:35:29Z</time>
      </trkpt>
      <trkpt lat="43.87652" lon="6.40698">
        <ele>858.7</ele>
        <time>2019-11-01T12:35:30Z</time>
      </trkpt>
      <trkpt lat="43.87656" lon="6.40715">
        <ele>858</ele>
        <time>2019-11-01T12:35:32Z</time>
      </trkpt>
      <trkpt lat="43.87659" lon="6.40724">
        <ele>857.7</ele>
        <time>2019-11-01T12:35:33Z</time>
      </trkpt>
      <trkpt lat="43.87664" lon="6.4074">
        <ele>856.8</ele>
        <time>2019-11-01T12:35:35Z</time>
      </trkpt>
      <trkpt lat="43.87667" lon="6.40748">
        <ele>856.4</ele>
        <time>2019-11-01T12:35:36Z</time>
      </trkpt>
      <trkpt lat="43.8767" lon="6.40765">
        <ele>855.5</ele>
        <time>2019-11-01T12:35:38Z</time>
      </trkpt>
      <trkpt lat="43.8767" lon="6.40782">
        <ele>854.7</ele>
        <time>2019-11-01T12:35:40Z</time>
      </trkpt>
      <trkpt lat="43.87669" lon="6.408">
        <ele>854.1</ele>
        <time>2019-11-01T12:35:42Z</time>
      </trkpt>
      <trkpt lat="43.87669" lon="6.40808">
        <ele>853.8</ele>
        <time>2019-11-01T12:35:43Z</time>
      </trkpt>
      <trkpt lat="43.87669" lon="6.40827">
        <ele>853.3</ele>
        <time>2019-11-01T12:35:45Z</time>
      </trkpt>
      <trkpt lat="43.87668" lon="6.40845">
        <ele>852.8</ele>
        <time>2019-11-01T12:35:47Z</time>
      </trkpt>
      <trkpt lat="43.87668" lon="6.40854">
        <ele>852.7</ele>
        <time>2019-11-01T12:35:48Z</time>
      </trkpt>
      <trkpt lat="43.87667" lon="6.40864">
        <ele>852.5</ele>
        <time>2019-11-01T12:35:49Z</time>
      </trkpt>
      <trkpt lat="43.8767" lon="6.40882">
        <ele>852.3</ele>
        <time>2019-11-01T12:35:51Z</time>
      </trkpt>
      <trkpt lat="43.87673" lon="6.4089">
        <ele>852.1</ele>
        <time>2019-11-01T12:35:52Z</time>
      </trkpt>
      <trkpt lat="43.87682" lon="6.40906">
        <ele>852.2</ele>
        <time>2019-11-01T12:35:54Z</time>
      </trkpt>
      <trkpt lat="43.87686" lon="6.40914">
        <ele>852.2</ele>
        <time>2019-11-01T12:35:55Z</time>
      </trkpt>
      <trkpt lat="43.87695" lon="6.40928">
        <ele>852.5</ele>
        <time>2019-11-01T12:35:57Z</time>
      </trkpt>
      <trkpt lat="43.877" lon="6.40934">
        <ele>852.6</ele>
        <time>2019-11-01T12:35:58Z</time>
      </trkpt>
      <trkpt lat="43.87704" lon="6.40941">
        <ele>852.7</ele>
        <time>2019-11-01T12:35:59Z</time>
      </trkpt>
      <trkpt lat="43.87708" lon="6.40947">
        <ele>852.8</ele>
        <time>2019-11-01T12:36:00Z</time>
      </trkpt>
      <trkpt lat="43.87715" lon="6.4096">
        <ele>853</ele>
        <time>2019-11-01T12:36:02Z</time>
      </trkpt>
      <trkpt lat="43.87719" lon="6.40967">
        <ele>853.2</ele>
        <time>2019-11-01T12:36:03Z</time>
      </trkpt>
      <trkpt lat="43.87726" lon="6.40981">
        <ele>853.5</ele>
        <time>2019-11-01T12:36:05Z</time>
      </trkpt>
      <trkpt lat="43.87729" lon="6.40988">
        <ele>853.7</ele>
        <time>2019-11-01T12:36:06Z</time>
      </trkpt>
      <trkpt lat="43.87735" lon="6.41001">
        <ele>853.9</ele>
        <time>2019-11-01T12:36:08Z</time>
      </trkpt>
      <trkpt lat="43.87738" lon="6.41008">
        <ele>854</ele>
        <time>2019-11-01T12:36:09Z</time>
      </trkpt>
      <trkpt lat="43.87744" lon="6.41022">
        <ele>854.3</ele>
        <time>2019-11-01T12:36:11Z</time>
      </trkpt>
      <trkpt lat="43.87746" lon="6.41028">
        <ele>854.4</ele>
        <time>2019-11-01T12:36:12Z</time>
      </trkpt>
      <trkpt lat="43.87749" lon="6.41034">
        <ele>854.6</ele>
        <time>2019-11-01T12:36:13Z</time>
      </trkpt>
      <trkpt lat="43.87753" lon="6.41048">
        <ele>854.8</ele>
        <time>2019-11-01T12:36:15Z</time>
      </trkpt>
      <trkpt lat="43.87755" lon="6.41055">
        <ele>854.9</ele>
        <time>2019-11-01T12:36:16Z</time>
      </trkpt>
      <trkpt lat="43.87756" lon="6.41063">
        <ele>855</ele>
        <time>2019-11-01T12:36:17Z</time>
      </trkpt>
      <trkpt lat="43.87758" lon="6.41077">
        <ele>855</ele>
        <time>2019-11-01T12:36:19Z</time>
      </trkpt>
      <trkpt lat="43.87759" lon="6.41085">
        <ele>855.1</ele>
        <time>2019-11-01T12:36:20Z</time>
      </trkpt>
      <trkpt lat="43.87761" lon="6.41099">
        <ele>855.1</ele>
        <time>2019-11-01T12:36:22Z</time>
      </trkpt>
      <trkpt lat="43.87761" lon="6.41107">
        <ele>855.1</ele>
        <time>2019-11-01T12:36:23Z</time>
      </trkpt>
      <trkpt lat="43.8776" lon="6.41123">
        <ele>855.1</ele>
        <time>2019-11-01T12:36:25Z</time>
      </trkpt>
      <trkpt lat="43.87759" lon="6.41137">
        <ele>855.2</ele>
        <time>2019-11-01T12:36:27Z</time>
      </trkpt>
      <trkpt lat="43.87761" lon="6.41144">
        <ele>855.2</ele>
        <time>2019-11-01T12:36:28Z</time>
      </trkpt>
      <trkpt lat="43.87768" lon="6.41155">
        <ele>855.1</ele>
        <time>2019-11-01T12:36:30Z</time>
      </trkpt>
      <trkpt lat="43.87773" lon="6.41157">
        <ele>855.1</ele>
        <time>2019-11-01T12:36:31Z</time>
      </trkpt>
      <trkpt lat="43.87785" lon="6.41159">
        <ele>854.9</ele>
        <time>2019-11-01T12:36:33Z</time>
      </trkpt>
      <trkpt lat="43.87797" lon="6.41163">
        <ele>854.6</ele>
        <time>2019-11-01T12:36:35Z</time>
      </trkpt>
      <trkpt lat="43.87811" lon="6.41169">
        <ele>854.4</ele>
        <time>2019-11-01T12:36:37Z</time>
      </trkpt>
      <trkpt lat="43.87818" lon="6.41171">
        <ele>854.4</ele>
        <time>2019-11-01T12:36:38Z</time>
      </trkpt>
      <trkpt lat="43.87831" lon="6.41174">
        <ele>854.5</ele>
        <time>2019-11-01T12:36:40Z</time>
      </trkpt>
      <trkpt lat="43.87837" lon="6.41174">
        <ele>854.5</ele>
        <time>2019-11-01T12:36:41Z</time>
      </trkpt>
      <trkpt lat="43.8785" lon="6.41176">
        <ele>854.8</ele>
        <time>2019-11-01T12:36:43Z</time>
      </trkpt>
      <trkpt lat="43.8786" lon="6.41182">
        <ele>855.2</ele>
        <time>2019-11-01T12:36:45Z</time>
      </trkpt>
      <trkpt lat="43.87865" lon="6.41187">
        <ele>855.4</ele>
        <time>2019-11-01T12:36:46Z</time>
      </trkpt>
      <trkpt lat="43.8787" lon="6.41192">
        <ele>855.7</ele>
        <time>2019-11-01T12:36:47Z</time>
      </trkpt>
      <trkpt lat="43.87879" lon="6.41206">
        <ele>856.2</ele>
        <time>2019-11-01T12:36:49Z</time>
      </trkpt>
      <trkpt lat="43.87884" lon="6.41221">
        <ele>856.9</ele>
        <time>2019-11-01T12:36:51Z</time>
      </trkpt>
      <trkpt lat="43.87886" lon="6.41229">
        <ele>857.3</ele>
        <time>2019-11-01T12:36:52Z</time>
      </trkpt>
      <trkpt lat="43.87889" lon="6.41245">
        <ele>858.1</ele>
        <time>2019-11-01T12:36:54Z</time>
      </trkpt>
      <trkpt lat="43.8789" lon="6.4126">
        <ele>858.9</ele>
        <time>2019-11-01T12:36:56Z</time>
      </trkpt>
      <trkpt lat="43.8789" lon="6.41275">
        <ele>859.6</ele>
        <time>2019-11-01T12:36:58Z</time>
      </trkpt>
      <trkpt lat="43.87889" lon="6.4129">
        <ele>860.2</ele>
        <time>2019-11-01T12:37:00Z</time>
      </trkpt>
      <trkpt lat="43.87887" lon="6.41305">
        <ele>860.6</ele>
        <time>2019-11-01T12:37:02Z</time>
      </trkpt>
      <trkpt lat="43.87884" lon="6.4132">
        <ele>860.8</ele>
        <time>2019-11-01T12:37:04Z</time>
      </trkpt>
      <trkpt lat="43.87881" lon="6.41336">
        <ele>860.8</ele>
        <time>2019-11-01T12:37:06Z</time>
      </trkpt>
      <trkpt lat="43.87879" lon="6.41344">
        <ele>860.8</ele>
        <time>2019-11-01T12:37:07Z</time>
      </trkpt>
      <trkpt lat="43.87876" lon="6.41351">
        <ele>860.9</ele>
        <time>2019-11-01T12:37:08Z</time>
      </trkpt>
      <trkpt lat="43.87873" lon="6.41359">
        <ele>860.9</ele>
        <time>2019-11-01T12:37:09Z</time>
      </trkpt>
      <trkpt lat="43.87868" lon="6.41373">
        <ele>860.9</ele>
        <time>2019-11-01T12:37:11Z</time>
      </trkpt>
      <trkpt lat="43.87865" lon="6.4138">
        <ele>860.9</ele>
        <time>2019-11-01T12:37:12Z</time>
      </trkpt>
      <trkpt lat="43.87864" lon="6.41387">
        <ele>860.8</ele>
        <time>2019-11-01T12:37:13Z</time>
      </trkpt>
      <trkpt lat="43.87864" lon="6.41394">
        <ele>860.8</ele>
        <time>2019-11-01T12:37:14Z</time>
      </trkpt>
      <trkpt lat="43.8787" lon="6.41405">
        <ele>860.5</ele>
        <time>2019-11-01T12:37:16Z</time>
      </trkpt>
      <trkpt lat="43.87881" lon="6.41408">
        <ele>860.3</ele>
        <time>2019-11-01T12:37:18Z</time>
      </trkpt>
      <trkpt lat="43.87892" lon="6.41404">
        <ele>860</ele>
        <time>2019-11-01T12:37:20Z</time>
      </trkpt>
      <trkpt lat="43.87898" lon="6.41401">
        <ele>859.8</ele>
        <time>2019-11-01T12:37:21Z</time>
      </trkpt>
      <trkpt lat="43.87908" lon="6.41396">
        <ele>859.4</ele>
        <time>2019-11-01T12:37:23Z</time>
      </trkpt>
      <trkpt lat="43.87912" lon="6.41393">
        <ele>859.1</ele>
        <time>2019-11-01T12:37:24Z</time>
      </trkpt>
      <trkpt lat="43.87917" lon="6.41391">
        <ele>858.9</ele>
        <time>2019-11-01T12:37:25Z</time>
      </trkpt>
      <trkpt lat="43.87927" lon="6.41386">
        <ele>858.4</ele>
        <time>2019-11-01T12:37:27Z</time>
      </trkpt>
      <trkpt lat="43.87937" lon="6.41379">
        <ele>858</ele>
        <time>2019-11-01T12:37:29Z</time>
      </trkpt>
      <trkpt lat="43.87942" lon="6.41374">
        <ele>857.7</ele>
        <time>2019-11-01T12:37:30Z</time>
      </trkpt>
      <trkpt lat="43.87951" lon="6.41365">
        <ele>857</ele>
        <time>2019-11-01T12:37:32Z</time>
      </trkpt>
      <trkpt lat="43.87959" lon="6.41354">
        <ele>856.2</ele>
        <time>2019-11-01T12:37:34Z</time>
      </trkpt>
      <trkpt lat="43.87963" lon="6.41347">
        <ele>855.6</ele>
        <time>2019-11-01T12:37:35Z</time>
      </trkpt>
      <trkpt lat="43.87969" lon="6.41335">
        <ele>854.4</ele>
        <time>2019-11-01T12:37:37Z</time>
      </trkpt>
      <trkpt lat="43.87976" lon="6.41326">
        <ele>853.3</ele>
        <time>2019-11-01T12:37:39Z</time>
      </trkpt>
      <trkpt lat="43.87985" lon="6.41319">
        <ele>852.3</ele>
        <time>2019-11-01T12:37:41Z</time>
      </trkpt>
      <trkpt lat="43.87989" lon="6.41316">
        <ele>852.1</ele>
        <time>2019-11-01T12:37:42Z</time>
      </trkpt>
      <trkpt lat="43.87994" lon="6.41314">
        <ele>851.8</ele>
        <time>2019-11-01T12:37:43Z</time>
      </trkpt>
      <trkpt lat="43.88003" lon="6.41309">
        <ele>851.2</ele>
        <time>2019-11-01T12:37:45Z</time>
      </trkpt>
      <trkpt lat="43.88008" lon="6.41308">
        <ele>850.9</ele>
        <time>2019-11-01T12:37:46Z</time>
      </trkpt>
      <trkpt lat="43.88018" lon="6.41307">
        <ele>850.3</ele>
        <time>2019-11-01T12:37:48Z</time>
      </trkpt>
      <trkpt lat="43.88024" lon="6.41307">
        <ele>850</ele>
        <time>2019-11-01T12:37:49Z</time>
      </trkpt>
      <trkpt lat="43.8803" lon="6.41309">
        <ele>849.5</ele>
        <time>2019-11-01T12:37:50Z</time>
      </trkpt>
      <trkpt lat="43.88041" lon="6.41313">
        <ele>848.1</ele>
        <time>2019-11-01T12:37:52Z</time>
      </trkpt>
      <trkpt lat="43.88051" lon="6.41317">
        <ele>845.8</ele>
        <time>2019-11-01T12:37:54Z</time>
      </trkpt>
      <trkpt lat="43.88061" lon="6.41322">
        <ele>843.4</ele>
        <time>2019-11-01T12:37:56Z</time>
      </trkpt>
      <trkpt lat="43.88066" lon="6.41324">
        <ele>842.5</ele>
        <time>2019-11-01T12:37:57Z</time>
      </trkpt>
      <trkpt lat="43.88076" lon="6.4133">
        <ele>841.5</ele>
        <time>2019-11-01T12:37:59Z</time>
      </trkpt>
      <trkpt lat="43.88085" lon="6.41338">
        <ele>841.1</ele>
        <time>2019-11-01T12:38:01Z</time>
      </trkpt>
      <trkpt lat="43.88089" lon="6.41343">
        <ele>840.9</ele>
        <time>2019-11-01T12:38:02Z</time>
      </trkpt>
      <trkpt lat="43.88092" lon="6.41349">
        <ele>840.8</ele>
        <time>2019-11-01T12:38:03Z</time>
      </trkpt>
      <trkpt lat="43.88098" lon="6.4136">
        <ele>840.3</ele>
        <time>2019-11-01T12:38:05Z</time>
      </trkpt>
      <trkpt lat="43.88103" lon="6.41373">
        <ele>839.7</ele>
        <time>2019-11-01T12:38:07Z</time>
      </trkpt>
      <trkpt lat="43.88107" lon="6.41386">
        <ele>839</ele>
        <time>2019-11-01T12:38:09Z</time>
      </trkpt>
      <trkpt lat="43.88108" lon="6.41393">
        <ele>838.5</ele>
        <time>2019-11-01T12:38:10Z</time>
      </trkpt>
      <trkpt lat="43.88112" lon="6.41407">
        <ele>837.7</ele>
        <time>2019-11-01T12:38:12Z</time>
      </trkpt>
      <trkpt lat="43.88114" lon="6.41414">
        <ele>837.2</ele>
        <time>2019-11-01T12:38:13Z</time>
      </trkpt>
      <trkpt lat="43.88116" lon="6.41422">
        <ele>836.8</ele>
        <time>2019-11-01T12:38:14Z</time>
      </trkpt>
      <trkpt lat="43.88121" lon="6.41436">
        <ele>835.8</ele>
        <time>2019-11-01T12:38:16Z</time>
      </trkpt>
      <trkpt lat="43.8813" lon="6.41447">
        <ele>834.6</ele>
        <time>2019-11-01T12:38:18Z</time>
      </trkpt>
      <trkpt lat="43.88141" lon="6.41456">
        <ele>833.4</ele>
        <time>2019-11-01T12:38:20Z</time>
      </trkpt>
      <trkpt lat="43.88152" lon="6.41461">
        <ele>832.4</ele>
        <time>2019-11-01T12:38:22Z</time>
      </trkpt>
      <trkpt lat="43.88163" lon="6.41464">
        <ele>831.4</ele>
        <time>2019-11-01T12:38:24Z</time>
      </trkpt>
      <trkpt lat="43.88169" lon="6.41464">
        <ele>831</ele>
        <time>2019-11-01T12:38:25Z</time>
      </trkpt>
      <trkpt lat="43.8818" lon="6.41464">
        <ele>830.1</ele>
        <time>2019-11-01T12:38:27Z</time>
      </trkpt>
      <trkpt lat="43.88186" lon="6.41465">
        <ele>829.8</ele>
        <time>2019-11-01T12:38:28Z</time>
      </trkpt>
      <trkpt lat="43.88197" lon="6.41467">
        <ele>829.2</ele>
        <time>2019-11-01T12:38:30Z</time>
      </trkpt>
      <trkpt lat="43.88207" lon="6.41471">
        <ele>829.1</ele>
        <time>2019-11-01T12:38:32Z</time>
      </trkpt>
      <trkpt lat="43.88218" lon="6.41476">
        <ele>829.4</ele>
        <time>2019-11-01T12:38:34Z</time>
      </trkpt>
      <trkpt lat="43.88229" lon="6.41481">
        <ele>829.9</ele>
        <time>2019-11-01T12:38:36Z</time>
      </trkpt>
      <trkpt lat="43.88234" lon="6.41482">
        <ele>830.3</ele>
        <time>2019-11-01T12:38:37Z</time>
      </trkpt>
      <trkpt lat="43.88245" lon="6.41484">
        <ele>831</ele>
        <time>2019-11-01T12:38:39Z</time>
      </trkpt>
      <trkpt lat="43.88251" lon="6.41485">
        <ele>831.6</ele>
        <time>2019-11-01T12:38:40Z</time>
      </trkpt>
      <trkpt lat="43.88256" lon="6.41485">
        <ele>832.2</ele>
        <time>2019-11-01T12:38:41Z</time>
      </trkpt>
      <trkpt lat="43.88268" lon="6.41484">
        <ele>833.4</ele>
        <time>2019-11-01T12:38:43Z</time>
      </trkpt>
      <trkpt lat="43.88274" lon="6.41483">
        <ele>834</ele>
        <time>2019-11-01T12:38:44Z</time>
      </trkpt>
      <trkpt lat="43.88285" lon="6.41481">
        <ele>835</ele>
        <time>2019-11-01T12:38:46Z</time>
      </trkpt>
      <trkpt lat="43.88296" lon="6.41478">
        <ele>835.9</ele>
        <time>2019-11-01T12:38:48Z</time>
      </trkpt>
      <trkpt lat="43.88301" lon="6.41475">
        <ele>836.4</ele>
        <time>2019-11-01T12:38:49Z</time>
      </trkpt>
      <trkpt lat="43.88312" lon="6.41469">
        <ele>837.4</ele>
        <time>2019-11-01T12:38:51Z</time>
      </trkpt>
      <trkpt lat="43.88317" lon="6.41465">
        <ele>837.8</ele>
        <time>2019-11-01T12:38:52Z</time>
      </trkpt>
      <trkpt lat="43.88322" lon="6.4146">
        <ele>838.2</ele>
        <time>2019-11-01T12:38:53Z</time>
      </trkpt>
      <trkpt lat="43.88332" lon="6.41452">
        <ele>839</ele>
        <time>2019-11-01T12:38:55Z</time>
      </trkpt>
      <trkpt lat="43.8834" lon="6.41443">
        <ele>839.8</ele>
        <time>2019-11-01T12:38:57Z</time>
      </trkpt>
      <trkpt lat="43.88343" lon="6.41439">
        <ele>840</ele>
        <time>2019-11-01T12:38:58Z</time>
      </trkpt>
      <trkpt lat="43.88351" lon="6.41431">
        <ele>840.4</ele>
        <time>2019-11-01T12:39:00Z</time>
      </trkpt>
      <trkpt lat="43.88356" lon="6.41427">
        <ele>840.6</ele>
        <time>2019-11-01T12:39:01Z</time>
      </trkpt>
      <trkpt lat="43.88367" lon="6.41423">
        <ele>841</ele>
        <time>2019-11-01T12:39:03Z</time>
      </trkpt>
      <trkpt lat="43.88377" lon="6.4142">
        <ele>841.2</ele>
        <time>2019-11-01T12:39:05Z</time>
      </trkpt>
      <trkpt lat="43.88383" lon="6.41419">
        <ele>841.4</ele>
        <time>2019-11-01T12:39:06Z</time>
      </trkpt>
      <trkpt lat="43.88389" lon="6.4142">
        <ele>841.5</ele>
        <time>2019-11-01T12:39:07Z</time>
      </trkpt>
      <trkpt lat="43.884" lon="6.41423">
        <ele>841.7</ele>
        <time>2019-11-01T12:39:09Z</time>
      </trkpt>
      <trkpt lat="43.88411" lon="6.41425">
        <ele>841.7</ele>
        <time>2019-11-01T12:39:11Z</time>
      </trkpt>
      <trkpt lat="43.88416" lon="6.41427">
        <ele>841.8</ele>
        <time>2019-11-01T12:39:12Z</time>
      </trkpt>
      <trkpt lat="43.88428" lon="6.41429">
        <ele>841.8</ele>
        <time>2019-11-01T12:39:14Z</time>
      </trkpt>
      <trkpt lat="43.88434" lon="6.41431">
        <ele>841.8</ele>
        <time>2019-11-01T12:39:15Z</time>
      </trkpt>
      <trkpt lat="43.8844" lon="6.41435">
        <ele>841.8</ele>
        <time>2019-11-01T12:39:16Z</time>
      </trkpt>
      <trkpt lat="43.8845" lon="6.41447">
        <ele>841.9</ele>
        <time>2019-11-01T12:39:18Z</time>
      </trkpt>
      <trkpt lat="43.88458" lon="6.41461">
        <ele>841.9</ele>
        <time>2019-11-01T12:39:20Z</time>
      </trkpt>
      <trkpt lat="43.88463" lon="6.41468">
        <ele>841.9</ele>
        <time>2019-11-01T12:39:21Z</time>
      </trkpt>
      <trkpt lat="43.88473" lon="6.41479">
        <ele>842</ele>
        <time>2019-11-01T12:39:23Z</time>
      </trkpt>
      <trkpt lat="43.88478" lon="6.41484">
        <ele>842</ele>
        <time>2019-11-01T12:39:24Z</time>
      </trkpt>
      <trkpt lat="43.88488" lon="6.41493">
        <ele>842</ele>
        <time>2019-11-01T12:39:26Z</time>
      </trkpt>
      <trkpt lat="43.88498" lon="6.41501">
        <ele>842.1</ele>
        <time>2019-11-01T12:39:28Z</time>
      </trkpt>
      <trkpt lat="43.88507" lon="6.41509">
        <ele>842.1</ele>
        <time>2019-11-01T12:39:30Z</time>
      </trkpt>
      <trkpt lat="43.88517" lon="6.41516">
        <ele>842.1</ele>
        <time>2019-11-01T12:39:32Z</time>
      </trkpt>
      <trkpt lat="43.88527" lon="6.41524">
        <ele>842.1</ele>
        <time>2019-11-01T12:39:34Z</time>
      </trkpt>
      <trkpt lat="43.88531" lon="6.41529">
        <ele>842.2</ele>
        <time>2019-11-01T12:39:35Z</time>
      </trkpt>
      <trkpt lat="43.88539" lon="6.41541">
        <ele>842.2</ele>
        <time>2019-11-01T12:39:37Z</time>
      </trkpt>
      <trkpt lat="43.88547" lon="6.41554">
        <ele>842.2</ele>
        <time>2019-11-01T12:39:39Z</time>
      </trkpt>
      <trkpt lat="43.88551" lon="6.41561">
        <ele>842.2</ele>
        <time>2019-11-01T12:39:40Z</time>
      </trkpt>
      <trkpt lat="43.88561" lon="6.41572">
        <ele>842.3</ele>
        <time>2019-11-01T12:39:42Z</time>
      </trkpt>
      <trkpt lat="43.88567" lon="6.41578">
        <ele>842.2</ele>
        <time>2019-11-01T12:39:43Z</time>
      </trkpt>
      <trkpt lat="43.88578" lon="6.41589">
        <ele>842.2</ele>
        <time>2019-11-01T12:39:45Z</time>
      </trkpt>
      <trkpt lat="43.88588" lon="6.416">
        <ele>842</ele>
        <time>2019-11-01T12:39:47Z</time>
      </trkpt>
      <trkpt lat="43.88593" lon="6.41606">
        <ele>841.8</ele>
        <time>2019-11-01T12:39:48Z</time>
      </trkpt>
      <trkpt lat="43.88601" lon="6.41619">
        <ele>841.5</ele>
        <time>2019-11-01T12:39:50Z</time>
      </trkpt>
      <trkpt lat="43.88608" lon="6.41631">
        <ele>841.1</ele>
        <time>2019-11-01T12:39:52Z</time>
      </trkpt>
      <trkpt lat="43.88612" lon="6.41637">
        <ele>840.9</ele>
        <time>2019-11-01T12:39:53Z</time>
      </trkpt>
      <trkpt lat="43.88621" lon="6.41646">
        <ele>840.2</ele>
        <time>2019-11-01T12:39:55Z</time>
      </trkpt>
      <trkpt lat="43.8863" lon="6.41653">
        <ele>839.4</ele>
        <time>2019-11-01T12:39:57Z</time>
      </trkpt>
      <trkpt lat="43.8864" lon="6.41659">
        <ele>838.6</ele>
        <time>2019-11-01T12:39:59Z</time>
      </trkpt>
      <trkpt lat="43.88651" lon="6.41665">
        <ele>837.6</ele>
        <time>2019-11-01T12:40:01Z</time>
      </trkpt>
      <trkpt lat="43.88662" lon="6.41668">
        <ele>836.7</ele>
        <time>2019-11-01T12:40:03Z</time>
      </trkpt>
      <trkpt lat="43.88668" lon="6.41668">
        <ele>836.1</ele>
        <time>2019-11-01T12:40:04Z</time>
      </trkpt>
      <trkpt lat="43.88673" lon="6.41667">
        <ele>835.6</ele>
        <time>2019-11-01T12:40:05Z</time>
      </trkpt>
      <trkpt lat="43.88679" lon="6.41666">
        <ele>834.9</ele>
        <time>2019-11-01T12:40:06Z</time>
      </trkpt>
      <trkpt lat="43.88684" lon="6.41665">
        <ele>834.2</ele>
        <time>2019-11-01T12:40:07Z</time>
      </trkpt>
      <trkpt lat="43.88696" lon="6.41661">
        <ele>832.7</ele>
        <time>2019-11-01T12:40:09Z</time>
      </trkpt>
      <trkpt lat="43.88707" lon="6.41658">
        <ele>831</ele>
        <time>2019-11-01T12:40:11Z</time>
      </trkpt>
      <trkpt lat="43.88719" lon="6.4166">
        <ele>828.9</ele>
        <time>2019-11-01T12:40:13Z</time>
      </trkpt>
      <trkpt lat="43.88724" lon="6.41661">
        <ele>827.9</ele>
        <time>2019-11-01T12:40:14Z</time>
      </trkpt>
      <trkpt lat="43.88729" lon="6.41664">
        <ele>826.9</ele>
        <time>2019-11-01T12:40:16Z</time>
      </trkpt>
      <trkpt lat="43.88731" lon="6.4166">
        <ele>826.1</ele>
        <time>2019-11-01T12:40:18Z</time>
      </trkpt>
      <trkpt lat="43.88731" lon="6.41654">
        <ele>826.7</ele>
        <time>2019-11-01T12:40:20Z</time>
      </trkpt>
      <trkpt lat="43.88731" lon="6.4165">
        <ele>827.1</ele>
        <time>2019-11-01T12:40:22Z</time>
      </trkpt>
      <trkpt lat="43.88734" lon="6.41645">
        <ele>827.7</ele>
        <time>2019-11-01T12:40:26Z</time>
      </trkpt>
      <trkpt lat="43.88738" lon="6.41641">
        <ele>828.2</ele>
        <time>2019-11-01T12:40:28Z</time>
      </trkpt>
      <trkpt lat="43.88741" lon="6.41636">
        <ele>828.9</ele>
        <time>2019-11-01T12:40:30Z</time>
      </trkpt>
      <trkpt lat="43.88746" lon="6.41629">
        <ele>830.1</ele>
        <time>2019-11-01T12:40:33Z</time>
      </trkpt>
      <trkpt lat="43.88749" lon="6.41625">
        <ele>830.7</ele>
        <time>2019-11-01T12:40:35Z</time>
      </trkpt>
      <trkpt lat="43.88751" lon="6.41619">
        <ele>831.4</ele>
        <time>2019-11-01T12:40:37Z</time>
      </trkpt>
      <trkpt lat="43.88755" lon="6.41613">
        <ele>832.5</ele>
        <time>2019-11-01T12:40:39Z</time>
      </trkpt>
      <trkpt lat="43.88759" lon="6.41607">
        <ele>833.7</ele>
        <time>2019-11-01T12:40:40Z</time>
      </trkpt>
      <trkpt lat="43.88761" lon="6.41603">
        <ele>834.8</ele>
        <time>2019-11-01T12:40:42Z</time>
      </trkpt>
      <trkpt lat="43.88765" lon="6.416">
        <ele>835.5</ele>
        <time>2019-11-01T12:40:43Z</time>
      </trkpt>
      <trkpt lat="43.88777" lon="6.41593">
        <ele>837.1</ele>
        <time>2019-11-01T12:40:45Z</time>
      </trkpt>
      <trkpt lat="43.88782" lon="6.41592">
        <ele>837.7</ele>
        <time>2019-11-01T12:40:46Z</time>
      </trkpt>
      <trkpt lat="43.88792" lon="6.41591">
        <ele>838.3</ele>
        <time>2019-11-01T12:40:48Z</time>
      </trkpt>
      <trkpt lat="43.88796" lon="6.41591">
        <ele>838.4</ele>
        <time>2019-11-01T12:40:49Z</time>
      </trkpt>
      <trkpt lat="43.88801" lon="6.4159">
        <ele>838.5</ele>
        <time>2019-11-01T12:40:50Z</time>
      </trkpt>
      <trkpt lat="43.88809" lon="6.41588">
        <ele>839.5</ele>
        <time>2019-11-01T12:40:52Z</time>
      </trkpt>
      <trkpt lat="43.88813" lon="6.41586">
        <ele>839.8</ele>
        <time>2019-11-01T12:40:53Z</time>
      </trkpt>
      <trkpt lat="43.88825" lon="6.41587">
        <ele>841</ele>
        <time>2019-11-01T12:40:56Z</time>
      </trkpt>
      <trkpt lat="43.88834" lon="6.41588">
        <ele>840.7</ele>
        <time>2019-11-01T12:40:58Z</time>
      </trkpt>
      <trkpt lat="43.88842" lon="6.41592">
        <ele>839.8</ele>
        <time>2019-11-01T12:41:00Z</time>
      </trkpt>
      <trkpt lat="43.88846" lon="6.41594">
        <ele>839.4</ele>
        <time>2019-11-01T12:41:01Z</time>
      </trkpt>
      <trkpt lat="43.8885" lon="6.41596">
        <ele>839</ele>
        <time>2019-11-01T12:41:02Z</time>
      </trkpt>
      <trkpt lat="43.88858" lon="6.41601">
        <ele>838.1</ele>
        <time>2019-11-01T12:41:04Z</time>
      </trkpt>
      <trkpt lat="43.88862" lon="6.41603">
        <ele>837.8</ele>
        <time>2019-11-01T12:41:05Z</time>
      </trkpt>
      <trkpt lat="43.8887" lon="6.41608">
        <ele>836.9</ele>
        <time>2019-11-01T12:41:07Z</time>
      </trkpt>
      <trkpt lat="43.88876" lon="6.41617">
        <ele>835.3</ele>
        <time>2019-11-01T12:41:09Z</time>
      </trkpt>
      <trkpt lat="43.88879" lon="6.41621">
        <ele>834.6</ele>
        <time>2019-11-01T12:41:10Z</time>
      </trkpt>
      <trkpt lat="43.88882" lon="6.41626">
        <ele>834</ele>
        <time>2019-11-01T12:41:11Z</time>
      </trkpt>
      <trkpt lat="43.88889" lon="6.41634">
        <ele>833.1</ele>
        <time>2019-11-01T12:41:13Z</time>
      </trkpt>
      <trkpt lat="43.88897" lon="6.41643">
        <ele>831.8</ele>
        <time>2019-11-01T12:41:15Z</time>
      </trkpt>
      <trkpt lat="43.88901" lon="6.41648">
        <ele>831</ele>
        <time>2019-11-01T12:41:16Z</time>
      </trkpt>
      <trkpt lat="43.8891" lon="6.4166">
        <ele>829.9</ele>
        <time>2019-11-01T12:41:18Z</time>
      </trkpt>
      <trkpt lat="43.88914" lon="6.41666">
        <ele>829.2</ele>
        <time>2019-11-01T12:41:19Z</time>
      </trkpt>
      <trkpt lat="43.88922" lon="6.41679">
        <ele>827.6</ele>
        <time>2019-11-01T12:41:21Z</time>
      </trkpt>
      <trkpt lat="43.88932" lon="6.41693">
        <ele>825.5</ele>
        <time>2019-11-01T12:41:23Z</time>
      </trkpt>
      <trkpt lat="43.88936" lon="6.417">
        <ele>824.5</ele>
        <time>2019-11-01T12:41:24Z</time>
      </trkpt>
      <trkpt lat="43.88941" lon="6.41707">
        <ele>823.5</ele>
        <time>2019-11-01T12:41:25Z</time>
      </trkpt>
      <trkpt lat="43.88952" lon="6.4172">
        <ele>821.6</ele>
        <time>2019-11-01T12:41:27Z</time>
      </trkpt>
      <trkpt lat="43.88957" lon="6.41726">
        <ele>820.5</ele>
        <time>2019-11-01T12:41:28Z</time>
      </trkpt>
      <trkpt lat="43.88967" lon="6.41736">
        <ele>818.8</ele>
        <time>2019-11-01T12:41:30Z</time>
      </trkpt>
      <trkpt lat="43.88976" lon="6.41746">
        <ele>817.3</ele>
        <time>2019-11-01T12:41:32Z</time>
      </trkpt>
      <trkpt lat="43.88985" lon="6.41755">
        <ele>815.9</ele>
        <time>2019-11-01T12:41:34Z</time>
      </trkpt>
      <trkpt lat="43.88994" lon="6.41764">
        <ele>814.9</ele>
        <time>2019-11-01T12:41:36Z</time>
      </trkpt>
      <trkpt lat="43.88999" lon="6.41769">
        <ele>814.6</ele>
        <time>2019-11-01T12:41:37Z</time>
      </trkpt>
      <trkpt lat="43.89003" lon="6.41775">
        <ele>814.1</ele>
        <time>2019-11-01T12:41:38Z</time>
      </trkpt>
      <trkpt lat="43.89007" lon="6.41779">
        <ele>813.7</ele>
        <time>2019-11-01T12:41:39Z</time>
      </trkpt>
      <trkpt lat="43.89016" lon="6.41788">
        <ele>813</ele>
        <time>2019-11-01T12:41:41Z</time>
      </trkpt>
      <trkpt lat="43.89023" lon="6.41797">
        <ele>812.7</ele>
        <time>2019-11-01T12:41:43Z</time>
      </trkpt>
      <trkpt lat="43.89027" lon="6.41802">
        <ele>812.5</ele>
        <time>2019-11-01T12:41:44Z</time>
      </trkpt>
      <trkpt lat="43.89036" lon="6.4181">
        <ele>812.3</ele>
        <time>2019-11-01T12:41:46Z</time>
      </trkpt>
      <trkpt lat="43.89045" lon="6.41815">
        <ele>812.2</ele>
        <time>2019-11-01T12:41:48Z</time>
      </trkpt>
      <trkpt lat="43.89049" lon="6.41816">
        <ele>812.2</ele>
        <time>2019-11-01T12:41:49Z</time>
      </trkpt>
      <trkpt lat="43.89058" lon="6.41819">
        <ele>812.2</ele>
        <time>2019-11-01T12:41:51Z</time>
      </trkpt>
      <trkpt lat="43.89066" lon="6.41823">
        <ele>812.1</ele>
        <time>2019-11-01T12:41:53Z</time>
      </trkpt>
      <trkpt lat="43.89069" lon="6.41825">
        <ele>812.1</ele>
        <time>2019-11-01T12:41:54Z</time>
      </trkpt>
      <trkpt lat="43.89075" lon="6.41827">
        <ele>812.2</ele>
        <time>2019-11-01T12:41:56Z</time>
      </trkpt>
      <trkpt lat="43.8908" lon="6.41824">
        <ele>812.6</ele>
        <time>2019-11-01T12:41:58Z</time>
      </trkpt>
      <trkpt lat="43.89085" lon="6.41819">
        <ele>813</ele>
        <time>2019-11-01T12:42:00Z</time>
      </trkpt>
      <trkpt lat="43.89088" lon="6.41821">
        <ele>813.2</ele>
        <time>2019-11-01T12:42:01Z</time>
      </trkpt>
      <trkpt lat="43.89091" lon="6.41817">
        <ele>813.5</ele>
        <time>2019-11-01T12:42:03Z</time>
      </trkpt>
      <trkpt lat="43.89094" lon="6.41816">
        <ele>813.7</ele>
        <time>2019-11-01T12:42:04Z</time>
      </trkpt>
      <trkpt lat="43.89096" lon="6.41814">
        <ele>813.9</ele>
        <time>2019-11-01T12:42:05Z</time>
      </trkpt>
      <trkpt lat="43.89102" lon="6.4181">
        <ele>814.3</ele>
        <time>2019-11-01T12:42:07Z</time>
      </trkpt>
      <trkpt lat="43.89106" lon="6.41805">
        <ele>814.7</ele>
        <time>2019-11-01T12:42:09Z</time>
      </trkpt>
      <trkpt lat="43.8911" lon="6.418">
        <ele>815.1</ele>
        <time>2019-11-01T12:42:10Z</time>
      </trkpt>
      <trkpt lat="43.89111" lon="6.41796">
        <ele>815.2</ele>
        <time>2019-11-01T12:42:12Z</time>
      </trkpt>
      <trkpt lat="43.89113" lon="6.41793">
        <ele>815.3</ele>
        <time>2019-11-01T12:42:13Z</time>
      </trkpt>
      <trkpt lat="43.89116" lon="6.41786">
        <ele>815.5</ele>
        <time>2019-11-01T12:42:15Z</time>
      </trkpt>
      <trkpt lat="43.8912" lon="6.41781">
        <ele>815.7</ele>
        <time>2019-11-01T12:42:17Z</time>
      </trkpt>
      <trkpt lat="43.89123" lon="6.41778">
        <ele>815.8</ele>
        <time>2019-11-01T12:42:18Z</time>
      </trkpt>
      <trkpt lat="43.89126" lon="6.41777">
        <ele>815.9</ele>
        <time>2019-11-01T12:42:20Z</time>
      </trkpt>
      <trkpt lat="43.89129" lon="6.41775">
        <ele>815.9</ele>
        <time>2019-11-01T12:42:21Z</time>
      </trkpt>
      <trkpt lat="43.89133" lon="6.41773">
        <ele>815.9</ele>
        <time>2019-11-01T12:42:23Z</time>
      </trkpt>
      <trkpt lat="43.89136" lon="6.41771">
        <ele>816</ele>
        <time>2019-11-01T12:42:24Z</time>
      </trkpt>
      <trkpt lat="43.8914" lon="6.41767">
        <ele>816</ele>
        <time>2019-11-01T12:42:26Z</time>
      </trkpt>
      <trkpt lat="43.89145" lon="6.4176">
        <ele>816.3</ele>
        <time>2019-11-01T12:42:29Z</time>
      </trkpt>
      <trkpt lat="43.89147" lon="6.41756">
        <ele>816.4</ele>
        <time>2019-11-01T12:42:30Z</time>
      </trkpt>
      <trkpt lat="43.8915" lon="6.41752">
        <ele>816.4</ele>
        <time>2019-11-01T12:42:32Z</time>
      </trkpt>
      <trkpt lat="43.89152" lon="6.41749">
        <ele>816.5</ele>
        <time>2019-11-01T12:42:33Z</time>
      </trkpt>
      <trkpt lat="43.89157" lon="6.41744">
        <ele>816.8</ele>
        <time>2019-11-01T12:42:35Z</time>
      </trkpt>
      <trkpt lat="43.89163" lon="6.4174">
        <ele>817.3</ele>
        <time>2019-11-01T12:42:38Z</time>
      </trkpt>
      <trkpt lat="43.89168" lon="6.41736">
        <ele>818</ele>
        <time>2019-11-01T12:42:40Z</time>
      </trkpt>
      <trkpt lat="43.89173" lon="6.41734">
        <ele>818.3</ele>
        <time>2019-11-01T12:42:42Z</time>
      </trkpt>
      <trkpt lat="43.8918" lon="6.41732">
        <ele>818.6</ele>
        <time>2019-11-01T12:42:45Z</time>
      </trkpt>
      <trkpt lat="43.89182" lon="6.41731">
        <ele>818.9</ele>
        <time>2019-11-01T12:42:46Z</time>
      </trkpt>
      <trkpt lat="43.89186" lon="6.41731">
        <ele>819.2</ele>
        <time>2019-11-01T12:42:47Z</time>
      </trkpt>
      <trkpt lat="43.89192" lon="6.4173">
        <ele>819.6</ele>
        <time>2019-11-01T12:42:50Z</time>
      </trkpt>
      <trkpt lat="43.89196" lon="6.41728">
        <ele>820.1</ele>
        <time>2019-11-01T12:42:53Z</time>
      </trkpt>
      <trkpt lat="43.89198" lon="6.41726">
        <ele>820.5</ele>
        <time>2019-11-01T12:42:54Z</time>
      </trkpt>
      <trkpt lat="43.89203" lon="6.41723">
        <ele>821.1</ele>
        <time>2019-11-01T12:42:58Z</time>
      </trkpt>
      <trkpt lat="43.89206" lon="6.41722">
        <ele>821.6</ele>
        <time>2019-11-01T12:43:00Z</time>
      </trkpt>
      <trkpt lat="43.89209" lon="6.41721">
        <ele>822</ele>
        <time>2019-11-01T12:43:02Z</time>
      </trkpt>
      <trkpt lat="43.89215" lon="6.41719">
        <ele>822.6</ele>
        <time>2019-11-01T12:43:07Z</time>
      </trkpt>
      <trkpt lat="43.89217" lon="6.41716">
        <ele>823</ele>
        <time>2019-11-01T12:43:08Z</time>
      </trkpt>
      <trkpt lat="43.8922" lon="6.41713">
        <ele>823.5</ele>
        <time>2019-11-01T12:43:11Z</time>
      </trkpt>
      <trkpt lat="43.89226" lon="6.41709">
        <ele>824.4</ele>
        <time>2019-11-01T12:43:14Z</time>
      </trkpt>
      <trkpt lat="43.8923" lon="6.41708">
        <ele>825.1</ele>
        <time>2019-11-01T12:43:16Z</time>
      </trkpt>
      <trkpt lat="43.89233" lon="6.41706">
        <ele>825.5</ele>
        <time>2019-11-01T12:43:20Z</time>
      </trkpt>
      <trkpt lat="43.89235" lon="6.41701">
        <ele>826</ele>
        <time>2019-11-01T12:43:22Z</time>
      </trkpt>
      <trkpt lat="43.89239" lon="6.41698">
        <ele>826.5</ele>
        <time>2019-11-01T12:43:24Z</time>
      </trkpt>
      <trkpt lat="43.89243" lon="6.41696">
        <ele>827.3</ele>
        <time>2019-11-01T12:43:27Z</time>
      </trkpt>
      <trkpt lat="43.89246" lon="6.41695">
        <ele>827.9</ele>
        <time>2019-11-01T12:43:30Z</time>
      </trkpt>
      <trkpt lat="43.89251" lon="6.41695">
        <ele>828.8</ele>
        <time>2019-11-01T12:43:33Z</time>
      </trkpt>
      <trkpt lat="43.89254" lon="6.41694">
        <ele>829.5</ele>
        <time>2019-11-01T12:43:35Z</time>
      </trkpt>
      <trkpt lat="43.89256" lon="6.41691">
        <ele>830</ele>
        <time>2019-11-01T12:43:39Z</time>
      </trkpt>
      <trkpt lat="43.8926" lon="6.41689">
        <ele>830.4</ele>
        <time>2019-11-01T12:43:42Z</time>
      </trkpt>
      <trkpt lat="43.89263" lon="6.41688">
        <ele>830.7</ele>
        <time>2019-11-01T12:43:43Z</time>
      </trkpt>
      <trkpt lat="43.8927" lon="6.41687">
        <ele>831.9</ele>
        <time>2019-11-01T12:43:47Z</time>
      </trkpt>
      <trkpt lat="43.89273" lon="6.41686">
        <ele>832.5</ele>
        <time>2019-11-01T12:43:49Z</time>
      </trkpt>
      <trkpt lat="43.89278" lon="6.41684">
        <ele>833.4</ele>
        <time>2019-11-01T12:43:52Z</time>
      </trkpt>
      <trkpt lat="43.89281" lon="6.41682">
        <ele>834.2</ele>
        <time>2019-11-01T12:43:54Z</time>
      </trkpt>
      <trkpt lat="43.89285" lon="6.4168">
        <ele>835.1</ele>
        <time>2019-11-01T12:43:57Z</time>
      </trkpt>
      <trkpt lat="43.89288" lon="6.41678">
        <ele>836</ele>
        <time>2019-11-01T12:44:00Z</time>
      </trkpt>
      <trkpt lat="43.89291" lon="6.41673">
        <ele>837</ele>
        <time>2019-11-01T12:44:03Z</time>
      </trkpt>
      <trkpt lat="43.89294" lon="6.41668">
        <ele>838</ele>
        <time>2019-11-01T12:44:06Z</time>
      </trkpt>
      <trkpt lat="43.89298" lon="6.41667">
        <ele>838.5</ele>
        <time>2019-11-01T12:44:09Z</time>
      </trkpt>
      <trkpt lat="43.89301" lon="6.41665">
        <ele>839.2</ele>
        <time>2019-11-01T12:44:11Z</time>
      </trkpt>
      <trkpt lat="43.89304" lon="6.41664">
        <ele>839.6</ele>
        <time>2019-11-01T12:44:16Z</time>
      </trkpt>
      <trkpt lat="43.89307" lon="6.41663">
        <ele>840</ele>
        <time>2019-11-01T12:44:19Z</time>
      </trkpt>
      <trkpt lat="43.89312" lon="6.41665">
        <ele>840.3</ele>
        <time>2019-11-01T12:44:23Z</time>
      </trkpt>
      <trkpt lat="43.89315" lon="6.41667">
        <ele>840.1</ele>
        <time>2019-11-01T12:44:26Z</time>
      </trkpt>
      <trkpt lat="43.89319" lon="6.41672">
        <ele>840</ele>
        <time>2019-11-01T12:44:29Z</time>
      </trkpt>
      <trkpt lat="43.89322" lon="6.41671">
        <ele>840.1</ele>
        <time>2019-11-01T12:44:32Z</time>
      </trkpt>
      <trkpt lat="43.89326" lon="6.4167">
        <ele>840.4</ele>
        <time>2019-11-01T12:44:34Z</time>
      </trkpt>
      <trkpt lat="43.89329" lon="6.41668">
        <ele>840.8</ele>
        <time>2019-11-01T12:44:36Z</time>
      </trkpt>
      <trkpt lat="43.89333" lon="6.41664">
        <ele>841.4</ele>
        <time>2019-11-01T12:46:24Z</time>
      </trkpt>
      <trkpt lat="43.89336" lon="6.41661">
        <ele>841.8</ele>
        <time>2019-11-01T12:46:26Z</time>
      </trkpt>
      <trkpt lat="43.89338" lon="6.41659">
        <ele>842.1</ele>
        <time>2019-11-01T12:46:28Z</time>
      </trkpt>
      <trkpt lat="43.8934" lon="6.41657">
        <ele>842.5</ele>
        <time>2019-11-01T12:46:30Z</time>
      </trkpt>
      <trkpt lat="43.89344" lon="6.41653">
        <ele>843.3</ele>
        <time>2019-11-01T12:46:33Z</time>
      </trkpt>
      <trkpt lat="43.89349" lon="6.4165">
        <ele>844</ele>
        <time>2019-11-01T12:46:36Z</time>
      </trkpt>
      <trkpt lat="43.89354" lon="6.41649">
        <ele>844.4</ele>
        <time>2019-11-01T12:46:39Z</time>
      </trkpt>
      <trkpt lat="43.89357" lon="6.41647">
        <ele>844.5</ele>
        <time>2019-11-01T12:46:42Z</time>
      </trkpt>
      <trkpt lat="43.8936" lon="6.41645">
        <ele>844.6</ele>
        <time>2019-11-01T12:46:43Z</time>
      </trkpt>
      <trkpt lat="43.89362" lon="6.41643">
        <ele>844.6</ele>
        <time>2019-11-01T12:46:45Z</time>
      </trkpt>
      <trkpt lat="43.89365" lon="6.4164">
        <ele>845.2</ele>
        <time>2019-11-01T12:46:47Z</time>
      </trkpt>
      <trkpt lat="43.89368" lon="6.41638">
        <ele>845.8</ele>
        <time>2019-11-01T12:46:48Z</time>
      </trkpt>
      <trkpt lat="43.89373" lon="6.41633">
        <ele>846.4</ele>
        <time>2019-11-01T12:46:50Z</time>
      </trkpt>
      <trkpt lat="43.89376" lon="6.41631">
        <ele>846.6</ele>
        <time>2019-11-01T12:46:53Z</time>
      </trkpt>
      <trkpt lat="43.89378" lon="6.41628">
        <ele>846.7</ele>
        <time>2019-11-01T12:46:55Z</time>
      </trkpt>
      <trkpt lat="43.89381" lon="6.41626">
        <ele>846.9</ele>
        <time>2019-11-01T12:46:57Z</time>
      </trkpt>
      <trkpt lat="43.89385" lon="6.41625">
        <ele>847</ele>
        <time>2019-11-01T12:46:59Z</time>
      </trkpt>
      <trkpt lat="43.89389" lon="6.41625">
        <ele>847.2</ele>
        <time>2019-11-01T12:47:00Z</time>
      </trkpt>
      <trkpt lat="43.89394" lon="6.41623">
        <ele>847.6</ele>
        <time>2019-11-01T12:47:03Z</time>
      </trkpt>
      <trkpt lat="43.89397" lon="6.41623">
        <ele>847.6</ele>
        <time>2019-11-01T12:47:04Z</time>
      </trkpt>
      <trkpt lat="43.89401" lon="6.41622">
        <ele>847.7</ele>
        <time>2019-11-01T12:47:06Z</time>
      </trkpt>
      <trkpt lat="43.89406" lon="6.4162">
        <ele>847.7</ele>
        <time>2019-11-01T12:47:08Z</time>
      </trkpt>
      <trkpt lat="43.89408" lon="6.41617">
        <ele>847.7</ele>
        <time>2019-11-01T12:47:09Z</time>
      </trkpt>
      <trkpt lat="43.89413" lon="6.41615">
        <ele>847.6</ele>
        <time>2019-11-01T12:47:12Z</time>
      </trkpt>
      <trkpt lat="43.89416" lon="6.41615">
        <ele>847.4</ele>
        <time>2019-11-01T12:47:13Z</time>
      </trkpt>
      <trkpt lat="43.89419" lon="6.41615">
        <ele>847.2</ele>
        <time>2019-11-01T12:47:14Z</time>
      </trkpt>
      <trkpt lat="43.89424" lon="6.41614">
        <ele>847.3</ele>
        <time>2019-11-01T12:47:17Z</time>
      </trkpt>
      <trkpt lat="43.89428" lon="6.41613">
        <ele>847.3</ele>
        <time>2019-11-01T12:47:18Z</time>
      </trkpt>
      <trkpt lat="43.89432" lon="6.41609">
        <ele>846.6</ele>
        <time>2019-11-01T12:47:21Z</time>
      </trkpt>
      <trkpt lat="43.89437" lon="6.41606">
        <ele>845.8</ele>
        <time>2019-11-01T12:47:23Z</time>
      </trkpt>
      <trkpt lat="43.89442" lon="6.41604">
        <ele>845.8</ele>
        <time>2019-11-01T12:47:26Z</time>
      </trkpt>
      <trkpt lat="43.89446" lon="6.41602">
        <ele>845.9</ele>
        <time>2019-11-01T12:47:28Z</time>
      </trkpt>
      <trkpt lat="43.89451" lon="6.41599">
        <ele>845.9</ele>
        <time>2019-11-01T12:47:30Z</time>
      </trkpt>
      <trkpt lat="43.89455" lon="6.41598">
        <ele>845.8</ele>
        <time>2019-11-01T12:47:33Z</time>
      </trkpt>
      <trkpt lat="43.89461" lon="6.41596">
        <ele>845.5</ele>
        <time>2019-11-01T12:47:35Z</time>
      </trkpt>
      <trkpt lat="43.89465" lon="6.41595">
        <ele>845.3</ele>
        <time>2019-11-01T12:47:37Z</time>
      </trkpt>
      <trkpt lat="43.89468" lon="6.41593">
        <ele>845.1</ele>
        <time>2019-11-01T12:47:39Z</time>
      </trkpt>
      <trkpt lat="43.89472" lon="6.4159">
        <ele>844.8</ele>
        <time>2019-11-01T12:47:41Z</time>
      </trkpt>
      <trkpt lat="43.89477" lon="6.41586">
        <ele>844.5</ele>
        <time>2019-11-01T12:47:43Z</time>
      </trkpt>
      <trkpt lat="43.8948" lon="6.41583">
        <ele>844.5</ele>
        <time>2019-11-01T12:47:45Z</time>
      </trkpt>
      <trkpt lat="43.89484" lon="6.41579">
        <ele>844.7</ele>
        <time>2019-11-01T12:47:46Z</time>
      </trkpt>
      <trkpt lat="43.89487" lon="6.41577">
        <ele>845.1</ele>
        <time>2019-11-01T12:47:47Z</time>
      </trkpt>
      <trkpt lat="43.89491" lon="6.41573">
        <ele>846</ele>
        <time>2019-11-01T12:47:48Z</time>
      </trkpt>
      <trkpt lat="43.89494" lon="6.41571">
        <ele>846.4</ele>
        <time>2019-11-01T12:47:49Z</time>
      </trkpt>
      <trkpt lat="43.89497" lon="6.41569">
        <ele>846.5</ele>
        <time>2019-11-01T12:47:51Z</time>
      </trkpt>
      <trkpt lat="43.89501" lon="6.41567">
        <ele>846.6</ele>
        <time>2019-11-01T12:47:52Z</time>
      </trkpt>
      <trkpt lat="43.89506" lon="6.41564">
        <ele>847.3</ele>
        <time>2019-11-01T12:47:53Z</time>
      </trkpt>
      <trkpt lat="43.89509" lon="6.41562">
        <ele>847.8</ele>
        <time>2019-11-01T12:47:55Z</time>
      </trkpt>
      <trkpt lat="43.89512" lon="6.4156">
        <ele>848</ele>
        <time>2019-11-01T12:47:56Z</time>
      </trkpt>
      <trkpt lat="43.89516" lon="6.41556">
        <ele>848.3</ele>
        <time>2019-11-01T12:47:57Z</time>
      </trkpt>
      <trkpt lat="43.89517" lon="6.41552">
        <ele>848.9</ele>
        <time>2019-11-01T12:47:58Z</time>
      </trkpt>
      <trkpt lat="43.8952" lon="6.41549">
        <ele>849.6</ele>
        <time>2019-11-01T12:47:59Z</time>
      </trkpt>
      <trkpt lat="43.89522" lon="6.41546">
        <ele>850.2</ele>
        <time>2019-11-01T12:48:01Z</time>
      </trkpt>
      <trkpt lat="43.89524" lon="6.41543">
        <ele>850.4</ele>
        <time>2019-11-01T12:48:02Z</time>
      </trkpt>
      <trkpt lat="43.89527" lon="6.4154">
        <ele>850.6</ele>
        <time>2019-11-01T12:48:03Z</time>
      </trkpt>
      <trkpt lat="43.8953" lon="6.41536">
        <ele>851.1</ele>
        <time>2019-11-01T12:48:04Z</time>
      </trkpt>
      <trkpt lat="43.89533" lon="6.41534">
        <ele>851.5</ele>
        <time>2019-11-01T12:48:05Z</time>
      </trkpt>
      <trkpt lat="43.89536" lon="6.41531">
        <ele>851.9</ele>
        <time>2019-11-01T12:48:07Z</time>
      </trkpt>
      <trkpt lat="43.8954" lon="6.41529">
        <ele>852</ele>
        <time>2019-11-01T12:48:09Z</time>
      </trkpt>
      <trkpt lat="43.89546" lon="6.41526">
        <ele>852.1</ele>
        <time>2019-11-01T12:48:11Z</time>
      </trkpt>
      <trkpt lat="43.8955" lon="6.41525">
        <ele>852.1</ele>
        <time>2019-11-01T12:48:13Z</time>
      </trkpt>
      <trkpt lat="43.89555" lon="6.41523">
        <ele>852.2</ele>
        <time>2019-11-01T12:48:14Z</time>
      </trkpt>
      <trkpt lat="43.89558" lon="6.41522">
        <ele>852.3</ele>
        <time>2019-11-01T12:48:16Z</time>
      </trkpt>
      <trkpt lat="43.89563" lon="6.4152">
        <ele>852.4</ele>
        <time>2019-11-01T12:48:17Z</time>
      </trkpt>
      <trkpt lat="43.89567" lon="6.41518">
        <ele>852.4</ele>
        <time>2019-11-01T12:48:19Z</time>
      </trkpt>
      <trkpt lat="43.89571" lon="6.41517">
        <ele>852.2</ele>
        <time>2019-11-01T12:48:20Z</time>
      </trkpt>
      <trkpt lat="43.89578" lon="6.41515">
        <ele>851.7</ele>
        <time>2019-11-01T12:48:22Z</time>
      </trkpt>
      <trkpt lat="43.89583" lon="6.41513">
        <ele>851.8</ele>
        <time>2019-11-01T12:48:24Z</time>
      </trkpt>
      <trkpt lat="43.89589" lon="6.41509">
        <ele>852</ele>
        <time>2019-11-01T12:48:26Z</time>
      </trkpt>
      <trkpt lat="43.89591" lon="6.41507">
        <ele>852</ele>
        <time>2019-11-01T12:48:27Z</time>
      </trkpt>
      <trkpt lat="43.89595" lon="6.41506">
        <ele>852.1</ele>
        <time>2019-11-01T12:48:28Z</time>
      </trkpt>
      <trkpt lat="43.89598" lon="6.41504">
        <ele>852.2</ele>
        <time>2019-11-01T12:48:29Z</time>
      </trkpt>
      <trkpt lat="43.89603" lon="6.41502">
        <ele>852.5</ele>
        <time>2019-11-01T12:48:31Z</time>
      </trkpt>
      <trkpt lat="43.89609" lon="6.415">
        <ele>852.8</ele>
        <time>2019-11-01T12:48:33Z</time>
      </trkpt>
      <trkpt lat="43.89614" lon="6.41497">
        <ele>853.1</ele>
        <time>2019-11-01T12:48:35Z</time>
      </trkpt>
      <trkpt lat="43.89617" lon="6.41496">
        <ele>853.2</ele>
        <time>2019-11-01T12:48:36Z</time>
      </trkpt>
      <trkpt lat="43.8962" lon="6.41494">
        <ele>853.3</ele>
        <time>2019-11-01T12:48:37Z</time>
      </trkpt>
      <trkpt lat="43.89624" lon="6.41489">
        <ele>853.3</ele>
        <time>2019-11-01T12:48:39Z</time>
      </trkpt>
      <trkpt lat="43.89625" lon="6.41486">
        <ele>853.3</ele>
        <time>2019-11-01T12:48:40Z</time>
      </trkpt>
      <trkpt lat="43.89627" lon="6.4148">
        <ele>862.6</ele>
        <time>2019-11-01T12:48:42Z</time>
      </trkpt>
      <trkpt lat="43.89629" lon="6.41478">
        <ele>862.6</ele>
        <time>2019-11-01T12:48:44Z</time>
      </trkpt>
      <trkpt lat="43.89632" lon="6.41476">
        <ele>862.6</ele>
        <time>2019-11-01T12:48:45Z</time>
      </trkpt>
      <trkpt lat="43.89637" lon="6.41478">
        <ele>863.1</ele>
        <time>2019-11-01T12:48:48Z</time>
      </trkpt>
      <trkpt lat="43.8964" lon="6.41479">
        <ele>863.6</ele>
        <time>2019-11-01T12:48:49Z</time>
      </trkpt>
      <trkpt lat="43.89645" lon="6.41479">
        <ele>864.1</ele>
        <time>2019-11-01T12:48:52Z</time>
      </trkpt>
      <trkpt lat="43.8965" lon="6.41475">
        <ele>864</ele>
        <time>2019-11-01T12:48:55Z</time>
      </trkpt>
      <trkpt lat="43.89653" lon="6.4147">
        <ele>863.9</ele>
        <time>2019-11-01T12:48:56Z</time>
      </trkpt>
      <trkpt lat="43.89655" lon="6.41466">
        <ele>863.8</ele>
        <time>2019-11-01T12:48:58Z</time>
      </trkpt>
      <trkpt lat="43.89658" lon="6.41463">
        <ele>863.7</ele>
        <time>2019-11-01T12:48:59Z</time>
      </trkpt>
      <trkpt lat="43.8966" lon="6.4146">
        <ele>863.8</ele>
        <time>2019-11-01T12:49:01Z</time>
      </trkpt>
      <trkpt lat="43.89663" lon="6.41457">
        <ele>863.9</ele>
        <time>2019-11-01T12:49:03Z</time>
      </trkpt>
      <trkpt lat="43.89667" lon="6.41454">
        <ele>864</ele>
        <time>2019-11-01T12:49:04Z</time>
      </trkpt>
      <trkpt lat="43.89669" lon="6.41452">
        <ele>863.9</ele>
        <time>2019-11-01T12:49:05Z</time>
      </trkpt>
      <trkpt lat="43.89672" lon="6.4145">
        <ele>863.9</ele>
        <time>2019-11-01T12:49:07Z</time>
      </trkpt>
      <trkpt lat="43.89675" lon="6.41447">
        <ele>864.1</ele>
        <time>2019-11-01T12:49:10Z</time>
      </trkpt>
      <trkpt lat="43.89679" lon="6.41445">
        <ele>864.6</ele>
        <time>2019-11-01T12:49:14Z</time>
      </trkpt>
      <trkpt lat="43.89683" lon="6.41441">
        <ele>865</ele>
        <time>2019-11-01T12:49:16Z</time>
      </trkpt>
      <trkpt lat="43.8969" lon="6.41437">
        <ele>865.1</ele>
        <time>2019-11-01T12:49:18Z</time>
      </trkpt>
      <trkpt lat="43.89696" lon="6.41432">
        <ele>865.4</ele>
        <time>2019-11-01T12:49:19Z</time>
      </trkpt>
      <trkpt lat="43.89699" lon="6.41429">
        <ele>865.5</ele>
        <time>2019-11-01T12:49:21Z</time>
      </trkpt>
      <trkpt lat="43.89705" lon="6.41422">
        <ele>865.3</ele>
        <time>2019-11-01T12:49:22Z</time>
      </trkpt>
      <trkpt lat="43.89707" lon="6.41419">
        <ele>865.5</ele>
        <time>2019-11-01T12:49:24Z</time>
      </trkpt>
      <trkpt lat="43.89711" lon="6.41417">
        <ele>865.8</ele>
        <time>2019-11-01T12:49:25Z</time>
      </trkpt>
      <trkpt lat="43.89717" lon="6.41413">
        <ele>865.6</ele>
        <time>2019-11-01T12:49:26Z</time>
      </trkpt>
      <trkpt lat="43.89721" lon="6.4141">
        <ele>865.1</ele>
        <time>2019-11-01T12:49:27Z</time>
      </trkpt>
      <trkpt lat="43.89724" lon="6.41408">
        <ele>864.9</ele>
        <time>2019-11-01T12:49:29Z</time>
      </trkpt>
      <trkpt lat="43.89727" lon="6.41406">
        <ele>864.7</ele>
        <time>2019-11-01T12:49:30Z</time>
      </trkpt>
      <trkpt lat="43.8973" lon="6.41403">
        <ele>864.5</ele>
        <time>2019-11-01T12:49:31Z</time>
      </trkpt>
      <trkpt lat="43.89734" lon="6.41399">
        <ele>863.7</ele>
        <time>2019-11-01T12:49:33Z</time>
      </trkpt>
      <trkpt lat="43.89737" lon="6.41392">
        <ele>863</ele>
        <time>2019-11-01T12:49:34Z</time>
      </trkpt>
      <trkpt lat="43.89738" lon="6.41388">
        <ele>862.7</ele>
        <time>2019-11-01T12:49:35Z</time>
      </trkpt>
      <trkpt lat="43.8974" lon="6.41384">
        <ele>862.4</ele>
        <time>2019-11-01T12:49:37Z</time>
      </trkpt>
      <trkpt lat="43.89742" lon="6.41377">
        <ele>862.5</ele>
        <time>2019-11-01T12:49:39Z</time>
      </trkpt>
      <trkpt lat="43.89745" lon="6.41373">
        <ele>862.7</ele>
        <time>2019-11-01T12:49:42Z</time>
      </trkpt>
      <trkpt lat="43.89748" lon="6.41368">
        <ele>862</ele>
        <time>2019-11-01T12:49:44Z</time>
      </trkpt>
      <trkpt lat="43.89751" lon="6.41363">
        <ele>861.4</ele>
        <time>2019-11-01T12:49:45Z</time>
      </trkpt>
      <trkpt lat="43.89754" lon="6.41361">
        <ele>861</ele>
        <time>2019-11-01T12:49:46Z</time>
      </trkpt>
      <trkpt lat="43.89757" lon="6.41359">
        <ele>860.6</ele>
        <time>2019-11-01T12:49:47Z</time>
      </trkpt>
      <trkpt lat="43.89762" lon="6.41359">
        <ele>860.1</ele>
        <time>2019-11-01T12:49:49Z</time>
      </trkpt>
      <trkpt lat="43.89766" lon="6.41358">
        <ele>859.6</ele>
        <time>2019-11-01T12:49:50Z</time>
      </trkpt>
      <trkpt lat="43.89769" lon="6.41358">
        <ele>859.2</ele>
        <time>2019-11-01T12:49:51Z</time>
      </trkpt>
      <trkpt lat="43.89772" lon="6.41358">
        <ele>858.8</ele>
        <time>2019-11-01T12:49:52Z</time>
      </trkpt>
      <trkpt lat="43.89778" lon="6.41358">
        <ele>858.2</ele>
        <time>2019-11-01T12:49:54Z</time>
      </trkpt>
      <trkpt lat="43.89782" lon="6.41356">
        <ele>858</ele>
        <time>2019-11-01T12:49:55Z</time>
      </trkpt>
      <trkpt lat="43.89788" lon="6.4135">
        <ele>857.8</ele>
        <time>2019-11-01T12:49:57Z</time>
      </trkpt>
      <trkpt lat="43.89791" lon="6.41345">
        <ele>857.1</ele>
        <time>2019-11-01T12:49:58Z</time>
      </trkpt>
      <trkpt lat="43.89792" lon="6.41339">
        <ele>856.6</ele>
        <time>2019-11-01T12:49:59Z</time>
      </trkpt>
      <trkpt lat="43.89793" lon="6.41335">
        <ele>856.3</ele>
        <time>2019-11-01T12:50:00Z</time>
      </trkpt>
      <trkpt lat="43.89793" lon="6.41328">
        <ele>855.8</ele>
        <time>2019-11-01T12:50:02Z</time>
      </trkpt>
      <trkpt lat="43.89794" lon="6.41324">
        <ele>855.6</ele>
        <time>2019-11-01T12:50:03Z</time>
      </trkpt>
      <trkpt lat="43.89796" lon="6.41318">
        <ele>855.5</ele>
        <time>2019-11-01T12:50:04Z</time>
      </trkpt>
      <trkpt lat="43.89799" lon="6.41313">
        <ele>855.4</ele>
        <time>2019-11-01T12:50:07Z</time>
      </trkpt>
      <trkpt lat="43.898" lon="6.41309">
        <ele>855</ele>
        <time>2019-11-01T12:50:08Z</time>
      </trkpt>
      <trkpt lat="43.89801" lon="6.41305">
        <ele>854.6</ele>
        <time>2019-11-01T12:50:10Z</time>
      </trkpt>
      <trkpt lat="43.89802" lon="6.41301">
        <ele>854.2</ele>
        <time>2019-11-01T12:50:12Z</time>
      </trkpt>
      <trkpt lat="43.89806" lon="6.41297">
        <ele>853.7</ele>
        <time>2019-11-01T12:50:14Z</time>
      </trkpt>
      <trkpt lat="43.89809" lon="6.41296">
        <ele>853.4</ele>
        <time>2019-11-01T12:50:16Z</time>
      </trkpt>
      <trkpt lat="43.89812" lon="6.41293">
        <ele>853</ele>
        <time>2019-11-01T12:50:17Z</time>
      </trkpt>
      <trkpt lat="43.89815" lon="6.4129">
        <ele>852.7</ele>
        <time>2019-11-01T12:50:18Z</time>
      </trkpt>
      <trkpt lat="43.89817" lon="6.41288">
        <ele>852.4</ele>
        <time>2019-11-01T12:50:19Z</time>
      </trkpt>
      <trkpt lat="43.8982" lon="6.41286">
        <ele>852.2</ele>
        <time>2019-11-01T12:50:20Z</time>
      </trkpt>
      <trkpt lat="43.89824" lon="6.41283">
        <ele>851.9</ele>
        <time>2019-11-01T12:50:21Z</time>
      </trkpt>
      <trkpt lat="43.89827" lon="6.41282">
        <ele>851.6</ele>
        <time>2019-11-01T12:50:22Z</time>
      </trkpt>
      <trkpt lat="43.89831" lon="6.41284">
        <ele>852</ele>
        <time>2019-11-01T12:50:24Z</time>
      </trkpt>
      <trkpt lat="43.89835" lon="6.41286">
        <ele>852.6</ele>
        <time>2019-11-01T12:50:26Z</time>
      </trkpt>
      <trkpt lat="43.8984" lon="6.41284">
        <ele>853.1</ele>
        <time>2019-11-01T12:50:30Z</time>
      </trkpt>
      <trkpt lat="43.89842" lon="6.41281">
        <ele>853.2</ele>
        <time>2019-11-01T12:50:34Z</time>
      </trkpt>
      <trkpt lat="43.89845" lon="6.41279">
        <ele>853.3</ele>
        <time>2019-11-01T12:50:38Z</time>
      </trkpt>
      <trkpt lat="43.89847" lon="6.41276">
        <ele>853.6</ele>
        <time>2019-11-01T12:50:44Z</time>
      </trkpt>
      <trkpt lat="43.89849" lon="6.41274">
        <ele>853.9</ele>
        <time>2019-11-01T12:50:47Z</time>
      </trkpt>
      <trkpt lat="43.89852" lon="6.41271">
        <ele>854.1</ele>
        <time>2019-11-01T12:50:54Z</time>
      </trkpt>
      <trkpt lat="43.89854" lon="6.41269">
        <ele>854.5</ele>
        <time>2019-11-01T12:50:55Z</time>
      </trkpt>
      <trkpt lat="43.89857" lon="6.41265">
        <ele>854.9</ele>
        <time>2019-11-01T12:50:57Z</time>
      </trkpt>
      <trkpt lat="43.89861" lon="6.41263">
        <ele>855.3</ele>
        <time>2019-11-01T12:51:03Z</time>
      </trkpt>
      <trkpt lat="43.89864" lon="6.4126">
        <ele>855.5</ele>
        <time>2019-11-01T12:51:17Z</time>
      </trkpt>
      <trkpt lat="43.89865" lon="6.41257">
        <ele>855.6</ele>
        <time>2019-11-01T12:51:21Z</time>
      </trkpt>
      <trkpt lat="43.89867" lon="6.41253">
        <ele>855.7</ele>
        <time>2019-11-01T12:51:27Z</time>
      </trkpt>
      <trkpt lat="43.89866" lon="6.41248">
        <ele>855.8</ele>
        <time>2019-11-01T12:51:36Z</time>
      </trkpt>
      <trkpt lat="43.89867" lon="6.41244">
        <ele>855.9</ele>
        <time>2019-11-01T12:51:41Z</time>
      </trkpt>
      <trkpt lat="43.89866" lon="6.41239">
        <ele>856.1</ele>
        <time>2019-11-01T12:51:46Z</time>
      </trkpt>
      <trkpt lat="43.89867" lon="6.41235">
        <ele>856.1</ele>
        <time>2019-11-01T12:51:52Z</time>
      </trkpt>
      <trkpt lat="43.89868" lon="6.41229">
        <ele>856.2</ele>
        <time>2019-11-01T12:52:00Z</time>
      </trkpt>
      <trkpt lat="43.89869" lon="6.41224">
        <ele>856.3</ele>
        <time>2019-11-01T12:52:05Z</time>
      </trkpt>
      <trkpt lat="43.89871" lon="6.41221">
        <ele>856.9</ele>
        <time>2019-11-01T12:52:10Z</time>
      </trkpt>
      <trkpt lat="43.89873" lon="6.41217">
        <ele>857.5</ele>
        <time>2019-11-01T12:52:15Z</time>
      </trkpt>
      <trkpt lat="43.89875" lon="6.41213">
        <ele>858</ele>
        <time>2019-11-01T12:52:18Z</time>
      </trkpt>
      <trkpt lat="43.89877" lon="6.41209">
        <ele>858.2</ele>
        <time>2019-11-01T12:52:21Z</time>
      </trkpt>
      <trkpt lat="43.89881" lon="6.41207">
        <ele>858.3</ele>
        <time>2019-11-01T12:52:25Z</time>
      </trkpt>
      <trkpt lat="43.89883" lon="6.41205">
        <ele>858.5</ele>
        <time>2019-11-01T12:52:26Z</time>
      </trkpt>
      <trkpt lat="43.89886" lon="6.41202">
        <ele>858.8</ele>
        <time>2019-11-01T12:52:28Z</time>
      </trkpt>
      <trkpt lat="43.89889" lon="6.41199">
        <ele>859</ele>
        <time>2019-11-01T12:52:29Z</time>
      </trkpt>
      <trkpt lat="43.89892" lon="6.41197">
        <ele>859.6</ele>
        <time>2019-11-01T12:52:30Z</time>
      </trkpt>
      <trkpt lat="43.89895" lon="6.41193">
        <ele>860.9</ele>
        <time>2019-11-01T12:52:31Z</time>
      </trkpt>
      <trkpt lat="43.89899" lon="6.41189">
        <ele>862.2</ele>
        <time>2019-11-01T12:52:34Z</time>
      </trkpt>
      <trkpt lat="43.89902" lon="6.41185">
        <ele>862.8</ele>
        <time>2019-11-01T12:52:37Z</time>
      </trkpt>
      <trkpt lat="43.89905" lon="6.41182">
        <ele>863.4</ele>
        <time>2019-11-01T12:52:43Z</time>
      </trkpt>
      <trkpt lat="43.89908" lon="6.41179">
        <ele>864.3</ele>
        <time>2019-11-01T12:52:44Z</time>
      </trkpt>
      <trkpt lat="43.89914" lon="6.41173">
        <ele>866</ele>
        <time>2019-11-01T12:52:45Z</time>
      </trkpt>
      <trkpt lat="43.89917" lon="6.41171">
        <ele>866.4</ele>
        <time>2019-11-01T12:52:46Z</time>
      </trkpt>
      <trkpt lat="43.89919" lon="6.41167">
        <ele>866.9</ele>
        <time>2019-11-01T12:52:48Z</time>
      </trkpt>
      <trkpt lat="43.89921" lon="6.4116">
        <ele>867.9</ele>
        <time>2019-11-01T12:52:50Z</time>
      </trkpt>
      <trkpt lat="43.89921" lon="6.41154">
        <ele>868.7</ele>
        <time>2019-11-01T12:52:54Z</time>
      </trkpt>
      <trkpt lat="43.8992" lon="6.4115">
        <ele>869.2</ele>
        <time>2019-11-01T12:53:02Z</time>
      </trkpt>
      <trkpt lat="43.8992" lon="6.41145">
        <ele>869.8</ele>
        <time>2019-11-01T12:53:14Z</time>
      </trkpt>
      <trkpt lat="43.8992" lon="6.41138">
        <ele>870.7</ele>
        <time>2019-11-01T12:53:20Z</time>
      </trkpt>
      <trkpt lat="43.89921" lon="6.41134">
        <ele>871.5</ele>
        <time>2019-11-01T12:53:23Z</time>
      </trkpt>
      <trkpt lat="43.89919" lon="6.4113">
        <ele>872.3</ele>
        <time>2019-11-01T12:53:28Z</time>
      </trkpt>
      <trkpt lat="43.8992" lon="6.41126">
        <ele>873</ele>
        <time>2019-11-01T12:53:33Z</time>
      </trkpt>
      <trkpt lat="43.89919" lon="6.41122">
        <ele>873.5</ele>
        <time>2019-11-01T12:53:41Z</time>
      </trkpt>
      <trkpt lat="43.89921" lon="6.41118">
        <ele>874</ele>
        <time>2019-11-01T12:53:48Z</time>
      </trkpt>
      <trkpt lat="43.89923" lon="6.41113">
        <ele>875</ele>
        <time>2019-11-01T12:53:50Z</time>
      </trkpt>
      <trkpt lat="43.89923" lon="6.41109">
        <ele>875.9</ele>
        <time>2019-11-01T12:53:58Z</time>
      </trkpt>
      <trkpt lat="43.89925" lon="6.41096">
        <ele>877.9</ele>
        <time>2019-11-01T12:54:01Z</time>
      </trkpt>
      <trkpt lat="43.89926" lon="6.4109">
        <ele>878.7</ele>
        <time>2019-11-01T12:54:03Z</time>
      </trkpt>
      <trkpt lat="43.89927" lon="6.41085">
        <ele>879.7</ele>
        <time>2019-11-01T12:54:05Z</time>
      </trkpt>
      <trkpt lat="43.89926" lon="6.41079">
        <ele>880.7</ele>
        <time>2019-11-01T12:54:07Z</time>
      </trkpt>
      <trkpt lat="43.89925" lon="6.41074">
        <ele>880.7</ele>
        <time>2019-11-01T12:54:10Z</time>
      </trkpt>
      <trkpt lat="43.89928" lon="6.41063">
        <ele>881.2</ele>
        <time>2019-11-01T12:55:06Z</time>
      </trkpt>
      <trkpt lat="43.89929" lon="6.41059">
        <ele>881.5</ele>
        <time>2019-11-01T12:55:09Z</time>
      </trkpt>
      <trkpt lat="43.89929" lon="6.41055">
        <ele>881.9</ele>
        <time>2019-11-01T12:55:19Z</time>
      </trkpt>
      <trkpt lat="43.8993" lon="6.41051">
        <ele>882.1</ele>
        <time>2019-11-01T12:55:32Z</time>
      </trkpt>
      <trkpt lat="43.89932" lon="6.41043">
        <ele>882.4</ele>
        <time>2019-11-01T12:55:35Z</time>
      </trkpt>
      <trkpt lat="43.89934" lon="6.41038">
        <ele>882.1</ele>
        <time>2019-11-01T12:55:41Z</time>
      </trkpt>
      <trkpt lat="43.89937" lon="6.41034">
        <ele>881.7</ele>
        <time>2019-11-01T12:55:47Z</time>
      </trkpt>
      <trkpt lat="43.8994" lon="6.41032">
        <ele>881.8</ele>
        <time>2019-11-01T12:55:51Z</time>
      </trkpt>
      <trkpt lat="43.89942" lon="6.41029">
        <ele>881.8</ele>
        <time>2019-11-01T12:55:55Z</time>
      </trkpt>
      <trkpt lat="43.89945" lon="6.41026">
        <ele>881.8</ele>
        <time>2019-11-01T12:55:59Z</time>
      </trkpt>
      <trkpt lat="43.89948" lon="6.41024">
        <ele>881.5</ele>
        <time>2019-11-01T12:56:05Z</time>
      </trkpt>
      <trkpt lat="43.8995" lon="6.41021">
        <ele>881.3</ele>
        <time>2019-11-01T12:56:11Z</time>
      </trkpt>
      <trkpt lat="43.89952" lon="6.41019">
        <ele>881.1</ele>
        <time>2019-11-01T12:56:17Z</time>
      </trkpt>
      <trkpt lat="43.89954" lon="6.41015">
        <ele>881.2</ele>
        <time>2019-11-01T12:56:24Z</time>
      </trkpt>
      <trkpt lat="43.89957" lon="6.41013">
        <ele>881.2</ele>
        <time>2019-11-01T12:56:29Z</time>
      </trkpt>
      <trkpt lat="43.8996" lon="6.41012">
        <ele>881.2</ele>
        <time>2019-11-01T12:56:48Z</time>
      </trkpt>
      <trkpt lat="43.89963" lon="6.41011">
        <ele>881</ele>
        <time>2019-11-01T12:56:53Z</time>
      </trkpt>
      <trkpt lat="43.89966" lon="6.4101">
        <ele>880.8</ele>
        <time>2019-11-01T12:56:55Z</time>
      </trkpt>
      <trkpt lat="43.89971" lon="6.41012">
        <ele>880.9</ele>
        <time>2019-11-01T12:56:56Z</time>
      </trkpt>
      <trkpt lat="43.89977" lon="6.41014">
        <ele>880.7</ele>
        <time>2019-11-01T12:56:57Z</time>
      </trkpt>
      <trkpt lat="43.89981" lon="6.41017">
        <ele>879.9</ele>
        <time>2019-11-01T12:56:58Z</time>
      </trkpt>
      <trkpt lat="43.89984" lon="6.41018">
        <ele>879.3</ele>
        <time>2019-11-01T12:57:00Z</time>
      </trkpt>
      <trkpt lat="43.8999" lon="6.41021">
        <ele>878.7</ele>
        <time>2019-11-01T12:57:01Z</time>
      </trkpt>
      <trkpt lat="43.89994" lon="6.41022">
        <ele>878.4</ele>
        <time>2019-11-01T12:57:02Z</time>
      </trkpt>
      <trkpt lat="43.89997" lon="6.41022">
        <ele>878.3</ele>
        <time>2019-11-01T12:57:03Z</time>
      </trkpt>
      <trkpt lat="43.9" lon="6.41023">
        <ele>878.2</ele>
        <time>2019-11-01T12:57:05Z</time>
      </trkpt>
      <trkpt lat="43.90004" lon="6.41025">
        <ele>877.6</ele>
        <time>2019-11-01T12:57:07Z</time>
      </trkpt>
      <trkpt lat="43.90007" lon="6.41027">
        <ele>877.2</ele>
        <time>2019-11-01T12:57:08Z</time>
      </trkpt>
      <trkpt lat="43.9001" lon="6.41027">
        <ele>876.8</ele>
        <time>2019-11-01T12:57:09Z</time>
      </trkpt>
      <trkpt lat="43.90015" lon="6.41028">
        <ele>876.3</ele>
        <time>2019-11-01T12:57:12Z</time>
      </trkpt>
      <trkpt lat="43.90019" lon="6.41028">
        <ele>876.1</ele>
        <time>2019-11-01T12:57:15Z</time>
      </trkpt>
      <trkpt lat="43.90022" lon="6.41029">
        <ele>876</ele>
        <time>2019-11-01T12:57:18Z</time>
      </trkpt>
      <trkpt lat="43.90026" lon="6.41029">
        <ele>875.9</ele>
        <time>2019-11-01T12:57:21Z</time>
      </trkpt>
      <trkpt lat="43.9003" lon="6.41028">
        <ele>875.5</ele>
        <time>2019-11-01T12:57:24Z</time>
      </trkpt>
      <trkpt lat="43.90038" lon="6.41024">
        <ele>874.5</ele>
        <time>2019-11-01T12:57:26Z</time>
      </trkpt>
      <trkpt lat="43.90041" lon="6.41023">
        <ele>874.1</ele>
        <time>2019-11-01T12:57:27Z</time>
      </trkpt>
      <trkpt lat="43.90047" lon="6.41021">
        <ele>873.5</ele>
        <time>2019-11-01T12:57:29Z</time>
      </trkpt>
      <trkpt lat="43.90051" lon="6.4102">
        <ele>872.8</ele>
        <time>2019-11-01T12:57:30Z</time>
      </trkpt>
      <trkpt lat="43.90054" lon="6.41019">
        <ele>872.4</ele>
        <time>2019-11-01T12:57:31Z</time>
      </trkpt>
      <trkpt lat="43.90058" lon="6.41019">
        <ele>872.3</ele>
        <time>2019-11-01T12:57:32Z</time>
      </trkpt>
      <trkpt lat="43.90063" lon="6.41019">
        <ele>872.1</ele>
        <time>2019-11-01T12:57:33Z</time>
      </trkpt>
      <trkpt lat="43.90065" lon="6.4102">
        <ele>871.3</ele>
        <time>2019-11-01T12:57:35Z</time>
      </trkpt>
      <trkpt lat="43.90068" lon="6.41022">
        <ele>870.4</ele>
        <time>2019-11-01T12:57:36Z</time>
      </trkpt>
      <trkpt lat="43.90071" lon="6.41025">
        <ele>869.3</ele>
        <time>2019-11-01T12:57:37Z</time>
      </trkpt>
      <trkpt lat="43.90075" lon="6.41029">
        <ele>868.2</ele>
        <time>2019-11-01T12:57:39Z</time>
      </trkpt>
      <trkpt lat="43.90078" lon="6.41032">
        <ele>867.5</ele>
        <time>2019-11-01T12:57:40Z</time>
      </trkpt>
      <trkpt lat="43.9008" lon="6.41034">
        <ele>867.1</ele>
        <time>2019-11-01T12:57:42Z</time>
      </trkpt>
      <trkpt lat="43.90082" lon="6.41036">
        <ele>866.6</ele>
        <time>2019-11-01T12:57:45Z</time>
      </trkpt>
      <trkpt lat="43.90086" lon="6.41037">
        <ele>866</ele>
        <time>2019-11-01T12:57:48Z</time>
      </trkpt>
      <trkpt lat="43.90089" lon="6.41038">
        <ele>865.2</ele>
        <time>2019-11-01T12:57:50Z</time>
      </trkpt>
      <trkpt lat="43.90093" lon="6.41037">
        <ele>864.1</ele>
        <time>2019-11-01T12:57:52Z</time>
      </trkpt>
      <trkpt lat="43.90098" lon="6.41034">
        <ele>863</ele>
        <time>2019-11-01T12:57:53Z</time>
      </trkpt>
      <trkpt lat="43.90102" lon="6.41031">
        <ele>862.2</ele>
        <time>2019-11-01T12:57:55Z</time>
      </trkpt>
      <trkpt lat="43.90105" lon="6.41029">
        <ele>861.4</ele>
        <time>2019-11-01T12:57:56Z</time>
      </trkpt>
      <trkpt lat="43.90108" lon="6.41025">
        <ele>860.4</ele>
        <time>2019-11-01T12:57:57Z</time>
      </trkpt>
      <trkpt lat="43.90111" lon="6.41022">
        <ele>859.6</ele>
        <time>2019-11-01T12:57:59Z</time>
      </trkpt>
      <trkpt lat="43.90113" lon="6.41019">
        <ele>859</ele>
        <time>2019-11-01T12:58:00Z</time>
      </trkpt>
      <trkpt lat="43.90116" lon="6.41015">
        <ele>858.2</ele>
        <time>2019-11-01T12:58:01Z</time>
      </trkpt>
      <trkpt lat="43.90121" lon="6.41008">
        <ele>856.7</ele>
        <time>2019-11-01T12:58:03Z</time>
      </trkpt>
      <trkpt lat="43.90123" lon="6.41005">
        <ele>856</ele>
        <time>2019-11-01T12:58:05Z</time>
      </trkpt>
      <trkpt lat="43.90126" lon="6.41003">
        <ele>855.3</ele>
        <time>2019-11-01T12:58:21Z</time>
      </trkpt>
      <trkpt lat="43.9013" lon="6.41">
        <ele>854.4</ele>
        <time>2019-11-01T12:58:24Z</time>
      </trkpt>
      <trkpt lat="43.90134" lon="6.40997">
        <ele>853.6</ele>
        <time>2019-11-01T12:58:26Z</time>
      </trkpt>
      <trkpt lat="43.90138" lon="6.40996">
        <ele>852.7</ele>
        <time>2019-11-01T12:58:27Z</time>
      </trkpt>
      <trkpt lat="43.90142" lon="6.40994">
        <ele>851.6</ele>
        <time>2019-11-01T12:58:28Z</time>
      </trkpt>
      <trkpt lat="43.90146" lon="6.40992">
        <ele>850.9</ele>
        <time>2019-11-01T12:58:30Z</time>
      </trkpt>
      <trkpt lat="43.90151" lon="6.40987">
        <ele>850</ele>
        <time>2019-11-01T12:58:31Z</time>
      </trkpt>
      <trkpt lat="43.90154" lon="6.40983">
        <ele>849.5</ele>
        <time>2019-11-01T12:58:32Z</time>
      </trkpt>
      <trkpt lat="43.90157" lon="6.40978">
        <ele>849.1</ele>
        <time>2019-11-01T12:58:33Z</time>
      </trkpt>
      <trkpt lat="43.9016" lon="6.40974">
        <ele>848.9</ele>
        <time>2019-11-01T12:58:35Z</time>
      </trkpt>
      <trkpt lat="43.90165" lon="6.40968">
        <ele>848.3</ele>
        <time>2019-11-01T12:58:36Z</time>
      </trkpt>
      <trkpt lat="43.90168" lon="6.40966">
        <ele>847.9</ele>
        <time>2019-11-01T12:58:37Z</time>
      </trkpt>
      <trkpt lat="43.90173" lon="6.40966">
        <ele>846.9</ele>
        <time>2019-11-01T12:58:39Z</time>
      </trkpt>
      <trkpt lat="43.90179" lon="6.40964">
        <ele>845.6</ele>
        <time>2019-11-01T12:58:40Z</time>
      </trkpt>
      <trkpt lat="43.90181" lon="6.40962">
        <ele>845.9</ele>
        <time>2019-11-01T12:58:42Z</time>
      </trkpt>
      <trkpt lat="43.90184" lon="6.40959">
        <ele>846.2</ele>
        <time>2019-11-01T12:58:44Z</time>
      </trkpt>
      <trkpt lat="43.90183" lon="6.40954">
        <ele>846.5</ele>
        <time>2019-11-01T12:58:45Z</time>
      </trkpt>
      <trkpt lat="43.90182" lon="6.40948">
        <ele>846.6</ele>
        <time>2019-11-01T12:58:46Z</time>
      </trkpt>
      <trkpt lat="43.90182" lon="6.40943">
        <ele>846.7</ele>
        <time>2019-11-01T12:58:47Z</time>
      </trkpt>
      <trkpt lat="43.90182" lon="6.40936">
        <ele>846.4</ele>
        <time>2019-11-01T12:58:49Z</time>
      </trkpt>
      <trkpt lat="43.90183" lon="6.40932">
        <ele>846.2</ele>
        <time>2019-11-01T12:58:50Z</time>
      </trkpt>
      <trkpt lat="43.90184" lon="6.40928">
        <ele>845.9</ele>
        <time>2019-11-01T12:58:51Z</time>
      </trkpt>
      <trkpt lat="43.90186" lon="6.40923">
        <ele>845.7</ele>
        <time>2019-11-01T12:58:52Z</time>
      </trkpt>
      <trkpt lat="43.90189" lon="6.40919">
        <ele>845.3</ele>
        <time>2019-11-01T12:58:54Z</time>
      </trkpt>
      <trkpt lat="43.90192" lon="6.40916">
        <ele>845</ele>
        <time>2019-11-01T12:58:55Z</time>
      </trkpt>
      <trkpt lat="43.90195" lon="6.40914">
        <ele>844.8</ele>
        <time>2019-11-01T12:58:56Z</time>
      </trkpt>
      <trkpt lat="43.90198" lon="6.40912">
        <ele>844.5</ele>
        <time>2019-11-01T12:58:58Z</time>
      </trkpt>
      <trkpt lat="43.90201" lon="6.4091">
        <ele>844.4</ele>
        <time>2019-11-01T12:58:59Z</time>
      </trkpt>
      <trkpt lat="43.90204" lon="6.40907">
        <ele>844.1</ele>
        <time>2019-11-01T12:59:01Z</time>
      </trkpt>
      <trkpt lat="43.90208" lon="6.40907">
        <ele>844</ele>
        <time>2019-11-01T12:59:03Z</time>
      </trkpt>
      <trkpt lat="43.90211" lon="6.40906">
        <ele>844</ele>
        <time>2019-11-01T12:59:06Z</time>
      </trkpt>
      <trkpt lat="43.90212" lon="6.40902">
        <ele>844</ele>
        <time>2019-11-01T12:59:08Z</time>
      </trkpt>
      <trkpt lat="43.9021" lon="6.40896">
        <ele>844</ele>
        <time>2019-11-01T12:59:10Z</time>
      </trkpt>
      <trkpt lat="43.90211" lon="6.40892">
        <ele>844</ele>
        <time>2019-11-01T12:59:12Z</time>
      </trkpt>
      <trkpt lat="43.90213" lon="6.40887">
        <ele>843.8</ele>
        <time>2019-11-01T12:59:13Z</time>
      </trkpt>
      <trkpt lat="43.90216" lon="6.40882">
        <ele>843.6</ele>
        <time>2019-11-01T12:59:16Z</time>
      </trkpt>
      <trkpt lat="43.90218" lon="6.40878">
        <ele>843.7</ele>
        <time>2019-11-01T12:59:18Z</time>
      </trkpt>
      <trkpt lat="43.90219" lon="6.40872">
        <ele>843.9</ele>
        <time>2019-11-01T12:59:20Z</time>
      </trkpt>
      <trkpt lat="43.90218" lon="6.40866">
        <ele>844</ele>
        <time>2019-11-01T12:59:23Z</time>
      </trkpt>
      <trkpt lat="43.90217" lon="6.40863">
        <ele>844</ele>
        <time>2019-11-01T12:59:27Z</time>
      </trkpt>
      <trkpt lat="43.90218" lon="6.40859">
        <ele>844</ele>
        <time>2019-11-01T12:59:35Z</time>
      </trkpt>
      <trkpt lat="43.90219" lon="6.40855">
        <ele>844.3</ele>
        <time>2019-11-01T12:59:39Z</time>
      </trkpt>
      <trkpt lat="43.90221" lon="6.40853">
        <ele>844.8</ele>
        <time>2019-11-01T12:59:43Z</time>
      </trkpt>
      <trkpt lat="43.90226" lon="6.4085">
        <ele>845.3</ele>
        <time>2019-11-01T12:59:46Z</time>
      </trkpt>
      <trkpt lat="43.9023" lon="6.40848">
        <ele>845.5</ele>
        <time>2019-11-01T12:59:47Z</time>
      </trkpt>
      <trkpt lat="43.90233" lon="6.40846">
        <ele>845.7</ele>
        <time>2019-11-01T12:59:48Z</time>
      </trkpt>
      <trkpt lat="43.90235" lon="6.40842">
        <ele>846</ele>
        <time>2019-11-01T12:59:51Z</time>
      </trkpt>
      <trkpt lat="43.90236" lon="6.40838">
        <ele>846.3</ele>
        <time>2019-11-01T13:00:06Z</time>
      </trkpt>
      <trkpt lat="43.90238" lon="6.40833">
        <ele>846.6</ele>
        <time>2019-11-01T13:00:09Z</time>
      </trkpt>
      <trkpt lat="43.9024" lon="6.40827">
        <ele>847</ele>
        <time>2019-11-01T13:00:11Z</time>
      </trkpt>
      <trkpt lat="43.90243" lon="6.40822">
        <ele>846.9</ele>
        <time>2019-11-01T13:00:12Z</time>
      </trkpt>
      <trkpt lat="43.90246" lon="6.4082">
        <ele>846.7</ele>
        <time>2019-11-01T13:00:14Z</time>
      </trkpt>
      <trkpt lat="43.90249" lon="6.40819">
        <ele>846.4</ele>
        <time>2019-11-01T13:00:15Z</time>
      </trkpt>
      <trkpt lat="43.90252" lon="6.40818">
        <ele>846.2</ele>
        <time>2019-11-01T13:00:17Z</time>
      </trkpt>
      <trkpt lat="43.90257" lon="6.40818">
        <ele>845.8</ele>
        <time>2019-11-01T13:00:19Z</time>
      </trkpt>
      <trkpt lat="43.9026" lon="6.40818">
        <ele>845.6</ele>
        <time>2019-11-01T13:00:21Z</time>
      </trkpt>
      <trkpt lat="43.90265" lon="6.40818">
        <ele>845.2</ele>
        <time>2019-11-01T13:00:24Z</time>
      </trkpt>
      <trkpt lat="43.90268" lon="6.40817">
        <ele>845.1</ele>
        <time>2019-11-01T13:00:26Z</time>
      </trkpt>
      <trkpt lat="43.90271" lon="6.40818">
        <ele>844.9</ele>
        <time>2019-11-01T13:00:27Z</time>
      </trkpt>
      <trkpt lat="43.90274" lon="6.40818">
        <ele>844.7</ele>
        <time>2019-11-01T13:00:29Z</time>
      </trkpt>
      <trkpt lat="43.90278" lon="6.40818">
        <ele>844.5</ele>
        <time>2019-11-01T13:00:31Z</time>
      </trkpt>
      <trkpt lat="43.90282" lon="6.40818">
        <ele>844.4</ele>
        <time>2019-11-01T13:00:33Z</time>
      </trkpt>
      <trkpt lat="43.90285" lon="6.40818">
        <ele>844.2</ele>
        <time>2019-11-01T13:00:36Z</time>
      </trkpt>
      <trkpt lat="43.90288" lon="6.4082">
        <ele>844</ele>
        <time>2019-11-01T13:00:37Z</time>
      </trkpt>
      <trkpt lat="43.90292" lon="6.40822">
        <ele>843.6</ele>
        <time>2019-11-01T13:00:39Z</time>
      </trkpt>
      <trkpt lat="43.90295" lon="6.40825">
        <ele>843.5</ele>
        <time>2019-11-01T13:00:41Z</time>
      </trkpt>
      <trkpt lat="43.90299" lon="6.40825">
        <ele>843.5</ele>
        <time>2019-11-01T13:00:44Z</time>
      </trkpt>
      <trkpt lat="43.90302" lon="6.40825">
        <ele>843.5</ele>
        <time>2019-11-01T13:00:46Z</time>
      </trkpt>
      <trkpt lat="43.90305" lon="6.40825">
        <ele>843.4</ele>
        <time>2019-11-01T13:00:47Z</time>
      </trkpt>
      <trkpt lat="43.90309" lon="6.40825">
        <ele>843.4</ele>
        <time>2019-11-01T13:00:49Z</time>
      </trkpt>
      <trkpt lat="43.90315" lon="6.40828">
        <ele>843.3</ele>
        <time>2019-11-01T13:00:51Z</time>
      </trkpt>
      <trkpt lat="43.9032" lon="6.40831">
        <ele>843.1</ele>
        <time>2019-11-01T13:00:53Z</time>
      </trkpt>
      <trkpt lat="43.90323" lon="6.40832">
        <ele>842.9</ele>
        <time>2019-11-01T13:00:54Z</time>
      </trkpt>
      <trkpt lat="43.90326" lon="6.40834">
        <ele>842.6</ele>
        <time>2019-11-01T13:00:55Z</time>
      </trkpt>
      <trkpt lat="43.9033" lon="6.40836">
        <ele>842.2</ele>
        <time>2019-11-01T13:00:56Z</time>
      </trkpt>
      <trkpt lat="43.90333" lon="6.40837">
        <ele>841.8</ele>
        <time>2019-11-01T13:00:57Z</time>
      </trkpt>
      <trkpt lat="43.90336" lon="6.40839">
        <ele>841.5</ele>
        <time>2019-11-01T13:00:59Z</time>
      </trkpt>
      <trkpt lat="43.90341" lon="6.40842">
        <ele>841.2</ele>
        <time>2019-11-01T13:01:01Z</time>
      </trkpt>
      <trkpt lat="43.90344" lon="6.40845">
        <ele>841</ele>
        <time>2019-11-01T13:01:02Z</time>
      </trkpt>
      <trkpt lat="43.90347" lon="6.40848">
        <ele>840.8</ele>
        <time>2019-11-01T13:01:04Z</time>
      </trkpt>
      <trkpt lat="43.90351" lon="6.40851">
        <ele>840.5</ele>
        <time>2019-11-01T13:01:05Z</time>
      </trkpt>
      <trkpt lat="43.90355" lon="6.40855">
        <ele>840.2</ele>
        <time>2019-11-01T13:01:07Z</time>
      </trkpt>
      <trkpt lat="43.90359" lon="6.40859">
        <ele>840</ele>
        <time>2019-11-01T13:01:08Z</time>
      </trkpt>
      <trkpt lat="43.90362" lon="6.40862">
        <ele>839.8</ele>
        <time>2019-11-01T13:01:10Z</time>
      </trkpt>
      <trkpt lat="43.90366" lon="6.40864">
        <ele>839.6</ele>
        <time>2019-11-01T13:01:11Z</time>
      </trkpt>
      <trkpt lat="43.90369" lon="6.40867">
        <ele>839.2</ele>
        <time>2019-11-01T13:01:12Z</time>
      </trkpt>
      <trkpt lat="43.90373" lon="6.40872">
        <ele>838.6</ele>
        <time>2019-11-01T13:01:13Z</time>
      </trkpt>
      <trkpt lat="43.90378" lon="6.40877">
        <ele>838.2</ele>
        <time>2019-11-01T13:01:15Z</time>
      </trkpt>
      <trkpt lat="43.90382" lon="6.40881">
        <ele>838</ele>
        <time>2019-11-01T13:01:16Z</time>
      </trkpt>
      <trkpt lat="43.90389" lon="6.40888">
        <ele>837.4</ele>
        <time>2019-11-01T13:01:18Z</time>
      </trkpt>
      <trkpt lat="43.90397" lon="6.40894">
        <ele>836.7</ele>
        <time>2019-11-01T13:01:20Z</time>
      </trkpt>
      <trkpt lat="43.90405" lon="6.409">
        <ele>836.2</ele>
        <time>2019-11-01T13:01:22Z</time>
      </trkpt>
      <trkpt lat="43.90414" lon="6.40905">
        <ele>835.7</ele>
        <time>2019-11-01T13:01:24Z</time>
      </trkpt>
      <trkpt lat="43.90422" lon="6.40908">
        <ele>835.3</ele>
        <time>2019-11-01T13:01:26Z</time>
      </trkpt>
      <trkpt lat="43.90428" lon="6.40909">
        <ele>835.1</ele>
        <time>2019-11-01T13:01:28Z</time>
      </trkpt>
      <trkpt lat="43.90431" lon="6.40907">
        <ele>835.1</ele>
        <time>2019-11-01T13:01:29Z</time>
      </trkpt>
      <trkpt lat="43.90433" lon="6.40904">
        <ele>835.1</ele>
        <time>2019-11-01T13:01:30Z</time>
      </trkpt>
      <trkpt lat="43.90435" lon="6.409">
        <ele>835.1</ele>
        <time>2019-11-01T13:01:55Z</time>
      </trkpt>
      <trkpt lat="43.90441" lon="6.40894">
        <ele>835.2</ele>
        <time>2019-11-01T13:01:58Z</time>
      </trkpt>
      <trkpt lat="43.90444" lon="6.40891">
        <ele>835.1</ele>
        <time>2019-11-01T13:02:00Z</time>
      </trkpt>
      <trkpt lat="43.90446" lon="6.40885">
        <ele>835.1</ele>
        <time>2019-11-01T13:02:04Z</time>
      </trkpt>
      <trkpt lat="43.90449" lon="6.40884">
        <ele>835</ele>
        <time>2019-11-01T13:02:07Z</time>
      </trkpt>
      <trkpt lat="43.90452" lon="6.40886">
        <ele>835</ele>
        <time>2019-11-01T13:11:46Z</time>
      </trkpt>
      <trkpt lat="43.90457" lon="6.40885">
        <ele>835</ele>
        <time>2019-11-01T13:19:21Z</time>
      </trkpt>
      <trkpt lat="43.9046" lon="6.40886">
        <ele>835</ele>
        <time>2019-11-01T13:19:23Z</time>
      </trkpt>
      <trkpt lat="43.90464" lon="6.40884">
        <ele>835</ele>
        <time>2019-11-01T13:19:25Z</time>
      </trkpt>
      <trkpt lat="43.90466" lon="6.40881">
        <ele>834.9</ele>
        <time>2019-11-01T13:19:27Z</time>
      </trkpt>
      <trkpt lat="43.90471" lon="6.40879">
        <ele>834.6</ele>
        <time>2019-11-01T13:19:30Z</time>
      </trkpt>
      <trkpt lat="43.90473" lon="6.40876">
        <ele>834.4</ele>
        <time>2019-11-01T13:19:31Z</time>
      </trkpt>
      <trkpt lat="43.90477" lon="6.40872">
        <ele>834.2</ele>
        <time>2019-11-01T13:19:32Z</time>
      </trkpt>
      <trkpt lat="43.9048" lon="6.4087">
        <ele>834</ele>
        <time>2019-11-01T13:19:34Z</time>
      </trkpt>
      <trkpt lat="43.90483" lon="6.40867">
        <ele>833.9</ele>
        <time>2019-11-01T13:19:35Z</time>
      </trkpt>
      <trkpt lat="43.90488" lon="6.40863">
        <ele>833.6</ele>
        <time>2019-11-01T13:19:37Z</time>
      </trkpt>
      <trkpt lat="43.90491" lon="6.4086">
        <ele>833.5</ele>
        <time>2019-11-01T13:19:38Z</time>
      </trkpt>
      <trkpt lat="43.90494" lon="6.40856">
        <ele>833.3</ele>
        <time>2019-11-01T13:19:40Z</time>
      </trkpt>
      <trkpt lat="43.90497" lon="6.40853">
        <ele>833.2</ele>
        <time>2019-11-01T13:19:41Z</time>
      </trkpt>
      <trkpt lat="43.905" lon="6.40849">
        <ele>833</ele>
        <time>2019-11-01T13:19:42Z</time>
      </trkpt>
      <trkpt lat="43.90503" lon="6.40846">
        <ele>832.8</ele>
        <time>2019-11-01T13:19:44Z</time>
      </trkpt>
      <trkpt lat="43.90506" lon="6.40842">
        <ele>832.6</ele>
        <time>2019-11-01T13:19:46Z</time>
      </trkpt>
      <trkpt lat="43.90508" lon="6.40838">
        <ele>832.4</ele>
        <time>2019-11-01T13:19:47Z</time>
      </trkpt>
      <trkpt lat="43.9051" lon="6.40835">
        <ele>832.2</ele>
        <time>2019-11-01T13:19:48Z</time>
      </trkpt>
      <trkpt lat="43.90513" lon="6.4083">
        <ele>831.8</ele>
        <time>2019-11-01T13:19:50Z</time>
      </trkpt>
      <trkpt lat="43.90514" lon="6.40827">
        <ele>831.6</ele>
        <time>2019-11-01T13:19:51Z</time>
      </trkpt>
      <trkpt lat="43.90517" lon="6.40823">
        <ele>831.3</ele>
        <time>2019-11-01T13:19:53Z</time>
      </trkpt>
      <trkpt lat="43.90519" lon="6.4082">
        <ele>831.1</ele>
        <time>2019-11-01T13:19:54Z</time>
      </trkpt>
      <trkpt lat="43.90522" lon="6.40817">
        <ele>830.8</ele>
        <time>2019-11-01T13:19:55Z</time>
      </trkpt>
      <trkpt lat="43.90525" lon="6.40813">
        <ele>830.5</ele>
        <time>2019-11-01T13:19:56Z</time>
      </trkpt>
      <trkpt lat="43.90527" lon="6.4081">
        <ele>830.1</ele>
        <time>2019-11-01T13:19:57Z</time>
      </trkpt>
      <trkpt lat="43.90529" lon="6.40807">
        <ele>829.9</ele>
        <time>2019-11-01T13:19:58Z</time>
      </trkpt>
      <trkpt lat="43.90533" lon="6.408">
        <ele>829.4</ele>
        <time>2019-11-01T13:20:00Z</time>
      </trkpt>
      <trkpt lat="43.90535" lon="6.40797">
        <ele>829.2</ele>
        <time>2019-11-01T13:20:01Z</time>
      </trkpt>
      <trkpt lat="43.90538" lon="6.40788">
        <ele>828.8</ele>
        <time>2019-11-01T13:20:03Z</time>
      </trkpt>
      <trkpt lat="43.90542" lon="6.40777">
        <ele>828</ele>
        <time>2019-11-01T13:20:05Z</time>
      </trkpt>
      <trkpt lat="43.90544" lon="6.40771">
        <ele>827.8</ele>
        <time>2019-11-01T13:20:06Z</time>
      </trkpt>
      <trkpt lat="43.90548" lon="6.4076">
        <ele>827.2</ele>
        <time>2019-11-01T13:20:08Z</time>
      </trkpt>
      <trkpt lat="43.90554" lon="6.40748">
        <ele>826.2</ele>
        <time>2019-11-01T13:20:10Z</time>
      </trkpt>
      <trkpt lat="43.90558" lon="6.40736">
        <ele>825.4</ele>
        <time>2019-11-01T13:20:12Z</time>
      </trkpt>
      <trkpt lat="43.9056" lon="6.40729">
        <ele>825</ele>
        <time>2019-11-01T13:20:13Z</time>
      </trkpt>
      <trkpt lat="43.90564" lon="6.40717">
        <ele>824.4</ele>
        <time>2019-11-01T13:20:15Z</time>
      </trkpt>
      <trkpt lat="43.90571" lon="6.40712">
        <ele>824.2</ele>
        <time>2019-11-01T13:20:17Z</time>
      </trkpt>
      <trkpt lat="43.90576" lon="6.40712">
        <ele>824.1</ele>
        <time>2019-11-01T13:20:18Z</time>
      </trkpt>
      <trkpt lat="43.9058" lon="6.40712">
        <ele>824</ele>
        <time>2019-11-01T13:20:19Z</time>
      </trkpt>
      <trkpt lat="43.90587" lon="6.40712">
        <ele>823.7</ele>
        <time>2019-11-01T13:20:21Z</time>
      </trkpt>
      <trkpt lat="43.90591" lon="6.40712">
        <ele>823.5</ele>
        <time>2019-11-01T13:20:23Z</time>
      </trkpt>
      <trkpt lat="43.90597" lon="6.40712">
        <ele>823.2</ele>
        <time>2019-11-01T13:20:26Z</time>
      </trkpt>
      <trkpt lat="43.90602" lon="6.40712">
        <ele>823</ele>
        <time>2019-11-01T13:20:29Z</time>
      </trkpt>
      <trkpt lat="43.90604" lon="6.40712">
        <ele>822.8</ele>
        <time>2019-11-01T13:20:30Z</time>
      </trkpt>
      <trkpt lat="43.90609" lon="6.40711">
        <ele>822.6</ele>
        <time>2019-11-01T13:20:31Z</time>
      </trkpt>
      <trkpt lat="43.90612" lon="6.4071">
        <ele>822.5</ele>
        <time>2019-11-01T13:20:32Z</time>
      </trkpt>
      <trkpt lat="43.90617" lon="6.4071">
        <ele>822.2</ele>
        <time>2019-11-01T13:20:34Z</time>
      </trkpt>
      <trkpt lat="43.90621" lon="6.40709">
        <ele>822.1</ele>
        <time>2019-11-01T13:20:35Z</time>
      </trkpt>
      <trkpt lat="43.90626" lon="6.40708">
        <ele>821.8</ele>
        <time>2019-11-01T13:20:36Z</time>
      </trkpt>
      <trkpt lat="43.90629" lon="6.40707">
        <ele>821.7</ele>
        <time>2019-11-01T13:20:37Z</time>
      </trkpt>
      <trkpt lat="43.90632" lon="6.40707">
        <ele>821.5</ele>
        <time>2019-11-01T13:20:39Z</time>
      </trkpt>
      <trkpt lat="43.90636" lon="6.40706">
        <ele>821.3</ele>
        <time>2019-11-01T13:20:40Z</time>
      </trkpt>
      <trkpt lat="43.90646" lon="6.407">
        <ele>820.9</ele>
        <time>2019-11-01T13:20:42Z</time>
      </trkpt>
      <trkpt lat="43.9065" lon="6.40695">
        <ele>820.6</ele>
        <time>2019-11-01T13:20:43Z</time>
      </trkpt>
      <trkpt lat="43.90655" lon="6.40691">
        <ele>820.4</ele>
        <time>2019-11-01T13:20:44Z</time>
      </trkpt>
      <trkpt lat="43.9066" lon="6.40687">
        <ele>820.1</ele>
        <time>2019-11-01T13:20:45Z</time>
      </trkpt>
      <trkpt lat="43.90671" lon="6.40682">
        <ele>819.7</ele>
        <time>2019-11-01T13:20:47Z</time>
      </trkpt>
      <trkpt lat="43.90684" lon="6.40681">
        <ele>819</ele>
        <time>2019-11-01T13:20:49Z</time>
      </trkpt>
      <trkpt lat="43.90697" lon="6.40685">
        <ele>818.3</ele>
        <time>2019-11-01T13:20:51Z</time>
      </trkpt>
      <trkpt lat="43.90703" lon="6.40687">
        <ele>817.9</ele>
        <time>2019-11-01T13:20:52Z</time>
      </trkpt>
      <trkpt lat="43.90716" lon="6.40691">
        <ele>817.2</ele>
        <time>2019-11-01T13:20:54Z</time>
      </trkpt>
      <trkpt lat="43.90722" lon="6.40692">
        <ele>817</ele>
        <time>2019-11-01T13:20:55Z</time>
      </trkpt>
      <trkpt lat="43.90733" lon="6.40691">
        <ele>815.1</ele>
        <time>2019-11-01T13:20:57Z</time>
      </trkpt>
      <trkpt lat="43.90744" lon="6.40684">
        <ele>813.6</ele>
        <time>2019-11-01T13:20:59Z</time>
      </trkpt>
      <trkpt lat="43.90758" lon="6.40668">
        <ele>810.7</ele>
        <time>2019-11-01T13:21:01Z</time>
      </trkpt>
      <trkpt lat="43.9077" lon="6.4065">
        <ele>807.6</ele>
        <time>2019-11-01T13:21:03Z</time>
      </trkpt>
      <trkpt lat="43.90784" lon="6.40631">
        <ele>805.4</ele>
        <time>2019-11-01T13:21:05Z</time>
      </trkpt>
      <trkpt lat="43.90797" lon="6.40614">
        <ele>804.1</ele>
        <time>2019-11-01T13:21:07Z</time>
      </trkpt>
      <trkpt lat="43.9081" lon="6.406">
        <ele>802.5</ele>
        <time>2019-11-01T13:21:09Z</time>
      </trkpt>
      <trkpt lat="43.90815" lon="6.40595">
        <ele>802.1</ele>
        <time>2019-11-01T13:21:10Z</time>
      </trkpt>
      <trkpt lat="43.90825" lon="6.40595">
        <ele>801.7</ele>
        <time>2019-11-01T13:21:12Z</time>
      </trkpt>
      <trkpt lat="43.90837" lon="6.40601">
        <ele>801.1</ele>
        <time>2019-11-01T13:21:14Z</time>
      </trkpt>
      <trkpt lat="43.90843" lon="6.40603">
        <ele>800.9</ele>
        <time>2019-11-01T13:21:15Z</time>
      </trkpt>
      <trkpt lat="43.90854" lon="6.40606">
        <ele>800.4</ele>
        <time>2019-11-01T13:21:17Z</time>
      </trkpt>
      <trkpt lat="43.90859" lon="6.40606">
        <ele>800.2</ele>
        <time>2019-11-01T13:21:18Z</time>
      </trkpt>
      <trkpt lat="43.9087" lon="6.40605">
        <ele>799.7</ele>
        <time>2019-11-01T13:21:20Z</time>
      </trkpt>
      <trkpt lat="43.90882" lon="6.40605">
        <ele>799.1</ele>
        <time>2019-11-01T13:21:22Z</time>
      </trkpt>
      <trkpt lat="43.90895" lon="6.40606">
        <ele>798.4</ele>
        <time>2019-11-01T13:21:24Z</time>
      </trkpt>
      <trkpt lat="43.90901" lon="6.40607">
        <ele>798.1</ele>
        <time>2019-11-01T13:21:25Z</time>
      </trkpt>
      <trkpt lat="43.90915" lon="6.4061">
        <ele>797.5</ele>
        <time>2019-11-01T13:21:27Z</time>
      </trkpt>
      <trkpt lat="43.90929" lon="6.40613">
        <ele>796.7</ele>
        <time>2019-11-01T13:21:29Z</time>
      </trkpt>
      <trkpt lat="43.90943" lon="6.40615">
        <ele>796</ele>
        <time>2019-11-01T13:21:31Z</time>
      </trkpt>
      <trkpt lat="43.90958" lon="6.40616">
        <ele>795.4</ele>
        <time>2019-11-01T13:21:33Z</time>
      </trkpt>
      <trkpt lat="43.90965" lon="6.40616">
        <ele>795.1</ele>
        <time>2019-11-01T13:21:34Z</time>
      </trkpt>
      <trkpt lat="43.90979" lon="6.40619">
        <ele>794.4</ele>
        <time>2019-11-01T13:21:36Z</time>
      </trkpt>
      <trkpt lat="43.90986" lon="6.4062">
        <ele>794</ele>
        <time>2019-11-01T13:21:37Z</time>
      </trkpt>
      <trkpt lat="43.90999" lon="6.40623">
        <ele>793.3</ele>
        <time>2019-11-01T13:21:39Z</time>
      </trkpt>
      <trkpt lat="43.91006" lon="6.40624">
        <ele>792.9</ele>
        <time>2019-11-01T13:21:40Z</time>
      </trkpt>
      <trkpt lat="43.9102" lon="6.40625">
        <ele>792.3</ele>
        <time>2019-11-01T13:21:42Z</time>
      </trkpt>
      <trkpt lat="43.91028" lon="6.40625">
        <ele>791.9</ele>
        <time>2019-11-01T13:21:43Z</time>
      </trkpt>
      <trkpt lat="43.91035" lon="6.40624">
        <ele>791.6</ele>
        <time>2019-11-01T13:21:44Z</time>
      </trkpt>
      <trkpt lat="43.91049" lon="6.40623">
        <ele>791</ele>
        <time>2019-11-01T13:21:46Z</time>
      </trkpt>
      <trkpt lat="43.91063" lon="6.40619">
        <ele>790.5</ele>
        <time>2019-11-01T13:21:48Z</time>
      </trkpt>
      <trkpt lat="43.9107" lon="6.40617">
        <ele>790.2</ele>
        <time>2019-11-01T13:21:49Z</time>
      </trkpt>
      <trkpt lat="43.91082" lon="6.40613">
        <ele>789.6</ele>
        <time>2019-11-01T13:21:51Z</time>
      </trkpt>
      <trkpt lat="43.91089" lon="6.40612">
        <ele>789.3</ele>
        <time>2019-11-01T13:21:52Z</time>
      </trkpt>
      <trkpt lat="43.91102" lon="6.40611">
        <ele>788.6</ele>
        <time>2019-11-01T13:21:54Z</time>
      </trkpt>
      <trkpt lat="43.9111" lon="6.40611">
        <ele>788.2</ele>
        <time>2019-11-01T13:21:55Z</time>
      </trkpt>
      <trkpt lat="43.91124" lon="6.4061">
        <ele>787.7</ele>
        <time>2019-11-01T13:21:57Z</time>
      </trkpt>
      <trkpt lat="43.91137" lon="6.40608">
        <ele>787.1</ele>
        <time>2019-11-01T13:21:59Z</time>
      </trkpt>
      <trkpt lat="43.91144" lon="6.40608">
        <ele>786.8</ele>
        <time>2019-11-01T13:22:00Z</time>
      </trkpt>
      <trkpt lat="43.9115" lon="6.40607">
        <ele>786.6</ele>
        <time>2019-11-01T13:22:01Z</time>
      </trkpt>
      <trkpt lat="43.91162" lon="6.40602">
        <ele>786.2</ele>
        <time>2019-11-01T13:22:03Z</time>
      </trkpt>
      <trkpt lat="43.91174" lon="6.40599">
        <ele>786.1</ele>
        <time>2019-11-01T13:22:05Z</time>
      </trkpt>
      <trkpt lat="43.9118" lon="6.40597">
        <ele>786.1</ele>
        <time>2019-11-01T13:22:06Z</time>
      </trkpt>
      <trkpt lat="43.91192" lon="6.40594">
        <ele>786.1</ele>
        <time>2019-11-01T13:22:08Z</time>
      </trkpt>
      <trkpt lat="43.91198" lon="6.40592">
        <ele>786.1</ele>
        <time>2019-11-01T13:22:09Z</time>
      </trkpt>
      <trkpt lat="43.9121" lon="6.40592">
        <ele>786.1</ele>
        <time>2019-11-01T13:22:11Z</time>
      </trkpt>
      <trkpt lat="43.91221" lon="6.40594">
        <ele>786</ele>
        <time>2019-11-01T13:22:13Z</time>
      </trkpt>
      <trkpt lat="43.91232" lon="6.40593">
        <ele>785.9</ele>
        <time>2019-11-01T13:22:15Z</time>
      </trkpt>
      <trkpt lat="43.91243" lon="6.40589">
        <ele>785.8</ele>
        <time>2019-11-01T13:22:17Z</time>
      </trkpt>
      <trkpt lat="43.91249" lon="6.40588">
        <ele>785.8</ele>
        <time>2019-11-01T13:22:18Z</time>
      </trkpt>
      <trkpt lat="43.9126" lon="6.4059">
        <ele>785.8</ele>
        <time>2019-11-01T13:22:20Z</time>
      </trkpt>
      <trkpt lat="43.91266" lon="6.40593">
        <ele>785.8</ele>
        <time>2019-11-01T13:22:21Z</time>
      </trkpt>
      <trkpt lat="43.91276" lon="6.40598">
        <ele>785.9</ele>
        <time>2019-11-01T13:22:23Z</time>
      </trkpt>
      <trkpt lat="43.91287" lon="6.406">
        <ele>786.3</ele>
        <time>2019-11-01T13:22:25Z</time>
      </trkpt>
      <trkpt lat="43.91297" lon="6.40602">
        <ele>786.8</ele>
        <time>2019-11-01T13:22:27Z</time>
      </trkpt>
      <trkpt lat="43.91301" lon="6.40603">
        <ele>787</ele>
        <time>2019-11-01T13:22:28Z</time>
      </trkpt>
      <trkpt lat="43.9131" lon="6.40604">
        <ele>786.6</ele>
        <time>2019-11-01T13:22:30Z</time>
      </trkpt>
      <trkpt lat="43.91314" lon="6.40605">
        <ele>786.4</ele>
        <time>2019-11-01T13:22:31Z</time>
      </trkpt>
      <trkpt lat="43.91318" lon="6.40606">
        <ele>786.2</ele>
        <time>2019-11-01T13:22:32Z</time>
      </trkpt>
      <trkpt lat="43.91323" lon="6.40607">
        <ele>785.9</ele>
        <time>2019-11-01T13:22:33Z</time>
      </trkpt>
      <trkpt lat="43.91332" lon="6.40611">
        <ele>785.4</ele>
        <time>2019-11-01T13:22:35Z</time>
      </trkpt>
      <trkpt lat="43.91341" lon="6.40617">
        <ele>785.1</ele>
        <time>2019-11-01T13:22:37Z</time>
      </trkpt>
      <trkpt lat="43.91349" lon="6.40622">
        <ele>784.9</ele>
        <time>2019-11-01T13:22:39Z</time>
      </trkpt>
      <trkpt lat="43.91353" lon="6.40624">
        <ele>784.7</ele>
        <time>2019-11-01T13:22:40Z</time>
      </trkpt>
      <trkpt lat="43.91357" lon="6.40626">
        <ele>784.6</ele>
        <time>2019-11-01T13:22:41Z</time>
      </trkpt>
      <trkpt lat="43.91366" lon="6.40631">
        <ele>784.1</ele>
        <time>2019-11-01T13:22:43Z</time>
      </trkpt>
      <trkpt lat="43.91374" lon="6.40636">
        <ele>783.9</ele>
        <time>2019-11-01T13:22:45Z</time>
      </trkpt>
      <trkpt lat="43.91379" lon="6.40639">
        <ele>783.7</ele>
        <time>2019-11-01T13:22:46Z</time>
      </trkpt>
      <trkpt lat="43.91383" lon="6.40641">
        <ele>783.6</ele>
        <time>2019-11-01T13:22:47Z</time>
      </trkpt>
      <trkpt lat="43.91387" lon="6.40644">
        <ele>783.5</ele>
        <time>2019-11-01T13:22:48Z</time>
      </trkpt>
      <trkpt lat="43.91396" lon="6.40649">
        <ele>783.3</ele>
        <time>2019-11-01T13:22:50Z</time>
      </trkpt>
      <trkpt lat="43.914" lon="6.40652">
        <ele>783.2</ele>
        <time>2019-11-01T13:22:51Z</time>
      </trkpt>
      <trkpt lat="43.91409" lon="6.40657">
        <ele>783</ele>
        <time>2019-11-01T13:22:53Z</time>
      </trkpt>
      <trkpt lat="43.91417" lon="6.40664">
        <ele>782.8</ele>
        <time>2019-11-01T13:22:55Z</time>
      </trkpt>
      <trkpt lat="43.91419" lon="6.40668">
        <ele>782.7</ele>
        <time>2019-11-01T13:22:56Z</time>
      </trkpt>
      <trkpt lat="43.91422" lon="6.40673">
        <ele>782.7</ele>
        <time>2019-11-01T13:22:57Z</time>
      </trkpt>
      <trkpt lat="43.91425" lon="6.40677">
        <ele>782.7</ele>
        <time>2019-11-01T13:22:58Z</time>
      </trkpt>
      <trkpt lat="43.91431" lon="6.40684">
        <ele>782.7</ele>
        <time>2019-11-01T13:23:00Z</time>
      </trkpt>
      <trkpt lat="43.91437" lon="6.40692">
        <ele>782.7</ele>
        <time>2019-11-01T13:23:02Z</time>
      </trkpt>
      <trkpt lat="43.91441" lon="6.40696">
        <ele>782.6</ele>
        <time>2019-11-01T13:23:03Z</time>
      </trkpt>
      <trkpt lat="43.91448" lon="6.40705">
        <ele>782.6</ele>
        <time>2019-11-01T13:23:05Z</time>
      </trkpt>
      <trkpt lat="43.91455" lon="6.40714">
        <ele>782.5</ele>
        <time>2019-11-01T13:23:07Z</time>
      </trkpt>
      <trkpt lat="43.91462" lon="6.40725">
        <ele>782.4</ele>
        <time>2019-11-01T13:23:09Z</time>
      </trkpt>
      <trkpt lat="43.91467" lon="6.40735">
        <ele>782.4</ele>
        <time>2019-11-01T13:23:11Z</time>
      </trkpt>
      <trkpt lat="43.91471" lon="6.40739">
        <ele>782.4</ele>
        <time>2019-11-01T13:23:12Z</time>
      </trkpt>
      <trkpt lat="43.91474" lon="6.40743">
        <ele>782.4</ele>
        <time>2019-11-01T13:23:13Z</time>
      </trkpt>
      <trkpt lat="43.91481" lon="6.4075">
        <ele>782.5</ele>
        <time>2019-11-01T13:23:15Z</time>
      </trkpt>
      <trkpt lat="43.91488" lon="6.40754">
        <ele>782.5</ele>
        <time>2019-11-01T13:23:17Z</time>
      </trkpt>
      <trkpt lat="43.91496" lon="6.40755">
        <ele>782.5</ele>
        <time>2019-11-01T13:23:19Z</time>
      </trkpt>
      <trkpt lat="43.91505" lon="6.40755">
        <ele>784.6</ele>
        <time>2019-11-01T13:23:21Z</time>
      </trkpt>
      <trkpt lat="43.91509" lon="6.40754">
        <ele>784.9</ele>
        <time>2019-11-01T13:23:22Z</time>
      </trkpt>
      <trkpt lat="43.91513" lon="6.40755">
        <ele>785.3</ele>
        <time>2019-11-01T13:23:23Z</time>
      </trkpt>
      <trkpt lat="43.91521" lon="6.40761">
        <ele>786.1</ele>
        <time>2019-11-01T13:23:25Z</time>
      </trkpt>
      <trkpt lat="43.91528" lon="6.40769">
        <ele>786.8</ele>
        <time>2019-11-01T13:23:27Z</time>
      </trkpt>
      <trkpt lat="43.91532" lon="6.40774">
        <ele>787.1</ele>
        <time>2019-11-01T13:23:28Z</time>
      </trkpt>
      <trkpt lat="43.91536" lon="6.40778">
        <ele>787.5</ele>
        <time>2019-11-01T13:23:29Z</time>
      </trkpt>
      <trkpt lat="43.91543" lon="6.40787">
        <ele>787.9</ele>
        <time>2019-11-01T13:23:31Z</time>
      </trkpt>
      <trkpt lat="43.91547" lon="6.4079">
        <ele>787.4</ele>
        <time>2019-11-01T13:23:32Z</time>
      </trkpt>
      <trkpt lat="43.91554" lon="6.40798">
        <ele>786.7</ele>
        <time>2019-11-01T13:23:34Z</time>
      </trkpt>
      <trkpt lat="43.9156" lon="6.40805">
        <ele>786</ele>
        <time>2019-11-01T13:23:36Z</time>
      </trkpt>
      <trkpt lat="43.91563" lon="6.40808">
        <ele>785.8</ele>
        <time>2019-11-01T13:23:37Z</time>
      </trkpt>
      <trkpt lat="43.91569" lon="6.40813">
        <ele>785.3</ele>
        <time>2019-11-01T13:23:39Z</time>
      </trkpt>
      <trkpt lat="43.91575" lon="6.40815">
        <ele>784.9</ele>
        <time>2019-11-01T13:23:41Z</time>
      </trkpt>
      <trkpt lat="43.91582" lon="6.40814">
        <ele>784.6</ele>
        <time>2019-11-01T13:23:43Z</time>
      </trkpt>
      <trkpt lat="43.91591" lon="6.40813">
        <ele>784.2</ele>
        <time>2019-11-01T13:23:45Z</time>
      </trkpt>
      <trkpt lat="43.91594" lon="6.40812">
        <ele>784</ele>
        <time>2019-11-01T13:23:46Z</time>
      </trkpt>
      <trkpt lat="43.91597" lon="6.40812">
        <ele>783.9</ele>
        <time>2019-11-01T13:23:47Z</time>
      </trkpt>
      <trkpt lat="43.91603" lon="6.40813">
        <ele>783.6</ele>
        <time>2019-11-01T13:23:48Z</time>
      </trkpt>
      <trkpt lat="43.91607" lon="6.40813">
        <ele>783.5</ele>
        <time>2019-11-01T13:23:50Z</time>
      </trkpt>
      <trkpt lat="43.9161" lon="6.40814">
        <ele>783.3</ele>
        <time>2019-11-01T13:23:51Z</time>
      </trkpt>
      <trkpt lat="43.91616" lon="6.40818">
        <ele>783.1</ele>
        <time>2019-11-01T13:23:53Z</time>
      </trkpt>
      <trkpt lat="43.91621" lon="6.40822">
        <ele>782.9</ele>
        <time>2019-11-01T13:23:55Z</time>
      </trkpt>
      <trkpt lat="43.91625" lon="6.40826">
        <ele>782.7</ele>
        <time>2019-11-01T13:23:57Z</time>
      </trkpt>
      <trkpt lat="43.91627" lon="6.40829">
        <ele>782.6</ele>
        <time>2019-11-01T13:23:58Z</time>
      </trkpt>
      <trkpt lat="43.91632" lon="6.40837">
        <ele>782.4</ele>
        <time>2019-11-01T13:24:01Z</time>
      </trkpt>
      <trkpt lat="43.91636" lon="6.40843">
        <ele>782.3</ele>
        <time>2019-11-01T13:24:03Z</time>
      </trkpt>
      <trkpt lat="43.91641" lon="6.4085">
        <ele>782.1</ele>
        <time>2019-11-01T13:24:06Z</time>
      </trkpt>
      <trkpt lat="43.91644" lon="6.40858">
        <ele>781.9</ele>
        <time>2019-11-01T13:24:09Z</time>
      </trkpt>
      <trkpt lat="43.91644" lon="6.40865">
        <ele>783.1</ele>
        <time>2019-11-01T13:24:11Z</time>
      </trkpt>
      <trkpt lat="43.91644" lon="6.40876">
        <ele>785.1</ele>
        <time>2019-11-01T13:24:13Z</time>
      </trkpt>
      <trkpt lat="43.91643" lon="6.40884">
        <ele>786.5</ele>
        <time>2019-11-01T13:24:15Z</time>
      </trkpt>
      <trkpt lat="43.91643" lon="6.40888">
        <ele>787.3</ele>
        <time>2019-11-01T13:24:16Z</time>
      </trkpt>
      <trkpt lat="43.91643" lon="6.40897">
        <ele>788.9</ele>
        <time>2019-11-01T13:24:18Z</time>
      </trkpt>
      <trkpt lat="43.91642" lon="6.40901">
        <ele>789.7</ele>
        <time>2019-11-01T13:24:19Z</time>
      </trkpt>
      <trkpt lat="43.91642" lon="6.40905">
        <ele>790.6</ele>
        <time>2019-11-01T13:24:20Z</time>
      </trkpt>
      <trkpt lat="43.91641" lon="6.40912">
        <ele>791.4</ele>
        <time>2019-11-01T13:24:22Z</time>
      </trkpt>
      <trkpt lat="43.91641" lon="6.40919">
        <ele>792</ele>
        <time>2019-11-01T13:24:25Z</time>
      </trkpt>
      <trkpt lat="43.91646" lon="6.40924">
        <ele>791.5</ele>
        <time>2019-11-01T13:24:28Z</time>
      </trkpt>
      <trkpt lat="43.91651" lon="6.40925">
        <ele>791.1</ele>
        <time>2019-11-01T13:24:30Z</time>
      </trkpt>
      <trkpt lat="43.91654" lon="6.40924">
        <ele>790.9</ele>
        <time>2019-11-01T13:24:56Z</time>
      </trkpt>
      <trkpt lat="43.91657" lon="6.40922">
        <ele>790.6</ele>
        <time>2019-11-01T13:24:59Z</time>
      </trkpt>
      <trkpt lat="43.91663" lon="6.40924">
        <ele>790.1</ele>
        <time>2019-11-01T13:25:02Z</time>
      </trkpt>
      <trkpt lat="43.91665" lon="6.40925">
        <ele>789.8</ele>
        <time>2019-11-01T13:25:03Z</time>
      </trkpt>
      <trkpt lat="43.91671" lon="6.40925">
        <ele>789.2</ele>
        <time>2019-11-01T13:25:05Z</time>
      </trkpt>
      <trkpt lat="43.91678" lon="6.40925">
        <ele>788.3</ele>
        <time>2019-11-01T13:25:07Z</time>
      </trkpt>
      <trkpt lat="43.91686" lon="6.40927">
        <ele>787.3</ele>
        <time>2019-11-01T13:25:09Z</time>
      </trkpt>
      <trkpt lat="43.91694" lon="6.40927">
        <ele>786.2</ele>
        <time>2019-11-01T13:25:11Z</time>
      </trkpt>
      <trkpt lat="43.91703" lon="6.40928">
        <ele>785.2</ele>
        <time>2019-11-01T13:25:13Z</time>
      </trkpt>
      <trkpt lat="43.91707" lon="6.40929">
        <ele>784.8</ele>
        <time>2019-11-01T13:25:14Z</time>
      </trkpt>
      <trkpt lat="43.91716" lon="6.40928">
        <ele>783.8</ele>
        <time>2019-11-01T13:25:16Z</time>
      </trkpt>
      <trkpt lat="43.91726" lon="6.40928">
        <ele>782.8</ele>
        <time>2019-11-01T13:25:18Z</time>
      </trkpt>
      <trkpt lat="43.9173" lon="6.40928">
        <ele>782.5</ele>
        <time>2019-11-01T13:25:19Z</time>
      </trkpt>
      <trkpt lat="43.9174" lon="6.40927">
        <ele>781.7</ele>
        <time>2019-11-01T13:25:21Z</time>
      </trkpt>
      <trkpt lat="43.9175" lon="6.40926">
        <ele>781.2</ele>
        <time>2019-11-01T13:25:23Z</time>
      </trkpt>
      <trkpt lat="43.91755" lon="6.40926">
        <ele>781</ele>
        <time>2019-11-01T13:25:24Z</time>
      </trkpt>
      <trkpt lat="43.91766" lon="6.40925">
        <ele>780.5</ele>
        <time>2019-11-01T13:25:26Z</time>
      </trkpt>
      <trkpt lat="43.91772" lon="6.40924">
        <ele>780.3</ele>
        <time>2019-11-01T13:25:27Z</time>
      </trkpt>
      <trkpt lat="43.91783" lon="6.40922">
        <ele>779.9</ele>
        <time>2019-11-01T13:25:29Z</time>
      </trkpt>
      <trkpt lat="43.91794" lon="6.4092">
        <ele>779.5</ele>
        <time>2019-11-01T13:25:31Z</time>
      </trkpt>
      <trkpt lat="43.918" lon="6.40919">
        <ele>779.3</ele>
        <time>2019-11-01T13:25:32Z</time>
      </trkpt>
      <trkpt lat="43.91805" lon="6.40917">
        <ele>779.2</ele>
        <time>2019-11-01T13:25:33Z</time>
      </trkpt>
      <trkpt lat="43.9181" lon="6.40916">
        <ele>779</ele>
        <time>2019-11-01T13:25:34Z</time>
      </trkpt>
      <trkpt lat="43.9182" lon="6.40913">
        <ele>778.6</ele>
        <time>2019-11-01T13:25:36Z</time>
      </trkpt>
      <trkpt lat="43.91826" lon="6.40911">
        <ele>778.3</ele>
        <time>2019-11-01T13:25:37Z</time>
      </trkpt>
      <trkpt lat="43.91831" lon="6.40909">
        <ele>778.1</ele>
        <time>2019-11-01T13:25:38Z</time>
      </trkpt>
      <trkpt lat="43.91836" lon="6.40908">
        <ele>777.9</ele>
        <time>2019-11-01T13:25:39Z</time>
      </trkpt>
      <trkpt lat="43.91846" lon="6.40904">
        <ele>777.5</ele>
        <time>2019-11-01T13:25:41Z</time>
      </trkpt>
      <trkpt lat="43.91857" lon="6.409">
        <ele>777</ele>
        <time>2019-11-01T13:25:43Z</time>
      </trkpt>
      <trkpt lat="43.91862" lon="6.40898">
        <ele>776.8</ele>
        <time>2019-11-01T13:25:44Z</time>
      </trkpt>
      <trkpt lat="43.91873" lon="6.40893">
        <ele>776.3</ele>
        <time>2019-11-01T13:25:46Z</time>
      </trkpt>
      <trkpt lat="43.91882" lon="6.40888">
        <ele>775.9</ele>
        <time>2019-11-01T13:25:48Z</time>
      </trkpt>
      <trkpt lat="43.91887" lon="6.40885">
        <ele>775.7</ele>
        <time>2019-11-01T13:25:49Z</time>
      </trkpt>
      <trkpt lat="43.91892" lon="6.40882">
        <ele>775.5</ele>
        <time>2019-11-01T13:25:50Z</time>
      </trkpt>
      <trkpt lat="43.91901" lon="6.40876">
        <ele>775.1</ele>
        <time>2019-11-01T13:25:52Z</time>
      </trkpt>
      <trkpt lat="43.91905" lon="6.40872">
        <ele>774.8</ele>
        <time>2019-11-01T13:25:53Z</time>
      </trkpt>
      <trkpt lat="43.91913" lon="6.40865">
        <ele>774.4</ele>
        <time>2019-11-01T13:25:55Z</time>
      </trkpt>
      <trkpt lat="43.91917" lon="6.4086">
        <ele>774.2</ele>
        <time>2019-11-01T13:25:56Z</time>
      </trkpt>
      <trkpt lat="43.91921" lon="6.40856">
        <ele>773.9</ele>
        <time>2019-11-01T13:25:57Z</time>
      </trkpt>
      <trkpt lat="43.91928" lon="6.40848">
        <ele>773.5</ele>
        <time>2019-11-01T13:25:59Z</time>
      </trkpt>
      <trkpt lat="43.91936" lon="6.40839">
        <ele>773.2</ele>
        <time>2019-11-01T13:26:01Z</time>
      </trkpt>
      <trkpt lat="43.9194" lon="6.40834">
        <ele>773</ele>
        <time>2019-11-01T13:26:02Z</time>
      </trkpt>
      <trkpt lat="43.91944" lon="6.4083">
        <ele>772.8</ele>
        <time>2019-11-01T13:26:03Z</time>
      </trkpt>
      <trkpt lat="43.91951" lon="6.40821">
        <ele>772.6</ele>
        <time>2019-11-01T13:26:05Z</time>
      </trkpt>
      <trkpt lat="43.91955" lon="6.40817">
        <ele>772.4</ele>
        <time>2019-11-01T13:26:06Z</time>
      </trkpt>
      <trkpt lat="43.91959" lon="6.40812">
        <ele>772.3</ele>
        <time>2019-11-01T13:26:07Z</time>
      </trkpt>
      <trkpt lat="43.91966" lon="6.40803">
        <ele>772</ele>
        <time>2019-11-01T13:26:09Z</time>
      </trkpt>
      <trkpt lat="43.91973" lon="6.40795">
        <ele>771.7</ele>
        <time>2019-11-01T13:26:11Z</time>
      </trkpt>
      <trkpt lat="43.91977" lon="6.4079">
        <ele>771.6</ele>
        <time>2019-11-01T13:26:12Z</time>
      </trkpt>
      <trkpt lat="43.91981" lon="6.40785">
        <ele>771.6</ele>
        <time>2019-11-01T13:26:13Z</time>
      </trkpt>
      <trkpt lat="43.91988" lon="6.40776">
        <ele>771.4</ele>
        <time>2019-11-01T13:26:15Z</time>
      </trkpt>
      <trkpt lat="43.91991" lon="6.40772">
        <ele>771.3</ele>
        <time>2019-11-01T13:26:16Z</time>
      </trkpt>
      <trkpt lat="43.91995" lon="6.40767">
        <ele>771.1</ele>
        <time>2019-11-01T13:26:17Z</time>
      </trkpt>
      <trkpt lat="43.92002" lon="6.4076">
        <ele>770.4</ele>
        <time>2019-11-01T13:26:19Z</time>
      </trkpt>
      <trkpt lat="43.9201" lon="6.40759">
        <ele>770.2</ele>
        <time>2019-11-01T13:26:21Z</time>
      </trkpt>
      <trkpt lat="43.92017" lon="6.40767">
        <ele>770.3</ele>
        <time>2019-11-01T13:26:23Z</time>
      </trkpt>
      <trkpt lat="43.92023" lon="6.40774">
        <ele>770.6</ele>
        <time>2019-11-01T13:26:25Z</time>
      </trkpt>
      <trkpt lat="43.92025" lon="6.40778">
        <ele>770.8</ele>
        <time>2019-11-01T13:26:26Z</time>
      </trkpt>
      <trkpt lat="43.92028" lon="6.40781">
        <ele>770.9</ele>
        <time>2019-11-01T13:26:27Z</time>
      </trkpt>
      <trkpt lat="43.92033" lon="6.40788">
        <ele>771.3</ele>
        <time>2019-11-01T13:26:29Z</time>
      </trkpt>
      <trkpt lat="43.92038" lon="6.40795">
        <ele>771.7</ele>
        <time>2019-11-01T13:26:31Z</time>
      </trkpt>
      <trkpt lat="43.92041" lon="6.40798">
        <ele>771.8</ele>
        <time>2019-11-01T13:26:32Z</time>
      </trkpt>
      <trkpt lat="43.92046" lon="6.40806">
        <ele>772.1</ele>
        <time>2019-11-01T13:26:34Z</time>
      </trkpt>
      <trkpt lat="43.92048" lon="6.40809">
        <ele>772.3</ele>
        <time>2019-11-01T13:26:35Z</time>
      </trkpt>
      <trkpt lat="43.92053" lon="6.40818">
        <ele>772.6</ele>
        <time>2019-11-01T13:26:37Z</time>
      </trkpt>
      <trkpt lat="43.92056" lon="6.40822">
        <ele>772.7</ele>
        <time>2019-11-01T13:26:38Z</time>
      </trkpt>
      <trkpt lat="43.92058" lon="6.40826">
        <ele>772.9</ele>
        <time>2019-11-01T13:26:39Z</time>
      </trkpt>
      <trkpt lat="43.92063" lon="6.40834">
        <ele>773.3</ele>
        <time>2019-11-01T13:26:41Z</time>
      </trkpt>
      <trkpt lat="43.92068" lon="6.40842">
        <ele>773.6</ele>
        <time>2019-11-01T13:26:43Z</time>
      </trkpt>
      <trkpt lat="43.9207" lon="6.40846">
        <ele>773.7</ele>
        <time>2019-11-01T13:26:44Z</time>
      </trkpt>
      <trkpt lat="43.92077" lon="6.40852">
        <ele>773.9</ele>
        <time>2019-11-01T13:26:46Z</time>
      </trkpt>
      <trkpt lat="43.92083" lon="6.40859">
        <ele>774</ele>
        <time>2019-11-01T13:26:48Z</time>
      </trkpt>
      <trkpt lat="43.92086" lon="6.40862">
        <ele>774.1</ele>
        <time>2019-11-01T13:26:49Z</time>
      </trkpt>
      <trkpt lat="43.92091" lon="6.40871">
        <ele>774.2</ele>
        <time>2019-11-01T13:26:51Z</time>
      </trkpt>
      <trkpt lat="43.92096" lon="6.40881">
        <ele>774.2</ele>
        <time>2019-11-01T13:26:53Z</time>
      </trkpt>
      <trkpt lat="43.92099" lon="6.40891">
        <ele>774.3</ele>
        <time>2019-11-01T13:26:55Z</time>
      </trkpt>
      <trkpt lat="43.92104" lon="6.409">
        <ele>774.4</ele>
        <time>2019-11-01T13:26:57Z</time>
      </trkpt>
      <trkpt lat="43.92108" lon="6.40908">
        <ele>774.6</ele>
        <time>2019-11-01T13:26:59Z</time>
      </trkpt>
      <trkpt lat="43.9211" lon="6.40913">
        <ele>774.7</ele>
        <time>2019-11-01T13:27:00Z</time>
      </trkpt>
      <trkpt lat="43.92114" lon="6.40922">
        <ele>775.1</ele>
        <time>2019-11-01T13:27:02Z</time>
      </trkpt>
      <trkpt lat="43.92118" lon="6.40931">
        <ele>775.5</ele>
        <time>2019-11-01T13:27:04Z</time>
      </trkpt>
      <trkpt lat="43.92122" lon="6.4094">
        <ele>775.9</ele>
        <time>2019-11-01T13:27:06Z</time>
      </trkpt>
      <trkpt lat="43.92123" lon="6.40944">
        <ele>776</ele>
        <time>2019-11-01T13:27:07Z</time>
      </trkpt>
      <trkpt lat="43.92127" lon="6.40953">
        <ele>776.3</ele>
        <time>2019-11-01T13:27:09Z</time>
      </trkpt>
      <trkpt lat="43.9213" lon="6.40962">
        <ele>776.5</ele>
        <time>2019-11-01T13:27:11Z</time>
      </trkpt>
      <trkpt lat="43.92134" lon="6.40971">
        <ele>776.6</ele>
        <time>2019-11-01T13:27:13Z</time>
      </trkpt>
      <trkpt lat="43.92138" lon="6.4098">
        <ele>776.8</ele>
        <time>2019-11-01T13:27:15Z</time>
      </trkpt>
      <trkpt lat="43.92141" lon="6.40989">
        <ele>777</ele>
        <time>2019-11-01T13:27:17Z</time>
      </trkpt>
      <trkpt lat="43.92142" lon="6.40994">
        <ele>777.1</ele>
        <time>2019-11-01T13:27:18Z</time>
      </trkpt>
      <trkpt lat="43.92143" lon="6.41">
        <ele>777.2</ele>
        <time>2019-11-01T13:27:19Z</time>
      </trkpt>
      <trkpt lat="43.92147" lon="6.41009">
        <ele>777.5</ele>
        <time>2019-11-01T13:27:21Z</time>
      </trkpt>
      <trkpt lat="43.92151" lon="6.41019">
        <ele>777.8</ele>
        <time>2019-11-01T13:27:23Z</time>
      </trkpt>
      <trkpt lat="43.92153" lon="6.41024">
        <ele>778</ele>
        <time>2019-11-01T13:27:24Z</time>
      </trkpt>
      <trkpt lat="43.92157" lon="6.41033">
        <ele>778.2</ele>
        <time>2019-11-01T13:27:26Z</time>
      </trkpt>
      <trkpt lat="43.92161" lon="6.41041">
        <ele>778.5</ele>
        <time>2019-11-01T13:27:28Z</time>
      </trkpt>
      <trkpt lat="43.92163" lon="6.41045">
        <ele>778.6</ele>
        <time>2019-11-01T13:27:29Z</time>
      </trkpt>
      <trkpt lat="43.92164" lon="6.41049">
        <ele>778.7</ele>
        <time>2019-11-01T13:27:30Z</time>
      </trkpt>
      <trkpt lat="43.92167" lon="6.41053">
        <ele>778.8</ele>
        <time>2019-11-01T13:27:31Z</time>
      </trkpt>
      <trkpt lat="43.92171" lon="6.4106">
        <ele>779.1</ele>
        <time>2019-11-01T13:27:33Z</time>
      </trkpt>
      <trkpt lat="43.92176" lon="6.41067">
        <ele>779.4</ele>
        <time>2019-11-01T13:27:35Z</time>
      </trkpt>
      <trkpt lat="43.92178" lon="6.41071">
        <ele>779.5</ele>
        <time>2019-11-01T13:27:36Z</time>
      </trkpt>
      <trkpt lat="43.9218" lon="6.41074">
        <ele>779.7</ele>
        <time>2019-11-01T13:27:37Z</time>
      </trkpt>
      <trkpt lat="43.92185" lon="6.4108">
        <ele>780.1</ele>
        <time>2019-11-01T13:27:39Z</time>
      </trkpt>
      <trkpt lat="43.92188" lon="6.41083">
        <ele>780.3</ele>
        <time>2019-11-01T13:27:40Z</time>
      </trkpt>
      <trkpt lat="43.92194" lon="6.41089">
        <ele>780.7</ele>
        <time>2019-11-01T13:27:42Z</time>
      </trkpt>
      <trkpt lat="43.92197" lon="6.41092">
        <ele>781</ele>
        <time>2019-11-01T13:27:43Z</time>
      </trkpt>
      <trkpt lat="43.92203" lon="6.41099">
        <ele>781.4</ele>
        <time>2019-11-01T13:27:45Z</time>
      </trkpt>
      <trkpt lat="43.92206" lon="6.41102">
        <ele>781.6</ele>
        <time>2019-11-01T13:27:46Z</time>
      </trkpt>
      <trkpt lat="43.92212" lon="6.41108">
        <ele>781.9</ele>
        <time>2019-11-01T13:27:48Z</time>
      </trkpt>
      <trkpt lat="43.92215" lon="6.41111">
        <ele>782.1</ele>
        <time>2019-11-01T13:27:49Z</time>
      </trkpt>
      <trkpt lat="43.92218" lon="6.41113">
        <ele>782.1</ele>
        <time>2019-11-01T13:27:50Z</time>
      </trkpt>
      <trkpt lat="43.92224" lon="6.41118">
        <ele>782.3</ele>
        <time>2019-11-01T13:27:52Z</time>
      </trkpt>
      <trkpt lat="43.92227" lon="6.4112">
        <ele>782.4</ele>
        <time>2019-11-01T13:27:53Z</time>
      </trkpt>
      <trkpt lat="43.92233" lon="6.41125">
        <ele>782.5</ele>
        <time>2019-11-01T13:27:55Z</time>
      </trkpt>
      <trkpt lat="43.92237" lon="6.41127">
        <ele>782.5</ele>
        <time>2019-11-01T13:27:56Z</time>
      </trkpt>
      <trkpt lat="43.92244" lon="6.41131">
        <ele>782.6</ele>
        <time>2019-11-01T13:27:58Z</time>
      </trkpt>
      <trkpt lat="43.92251" lon="6.41135">
        <ele>782.7</ele>
        <time>2019-11-01T13:28:00Z</time>
      </trkpt>
      <trkpt lat="43.92255" lon="6.41137">
        <ele>782.7</ele>
        <time>2019-11-01T13:28:01Z</time>
      </trkpt>
      <trkpt lat="43.92259" lon="6.41139">
        <ele>782.7</ele>
        <time>2019-11-01T13:28:02Z</time>
      </trkpt>
      <trkpt lat="43.92262" lon="6.41141">
        <ele>782.8</ele>
        <time>2019-11-01T13:28:03Z</time>
      </trkpt>
      <trkpt lat="43.92269" lon="6.41146">
        <ele>782.8</ele>
        <time>2019-11-01T13:28:05Z</time>
      </trkpt>
      <trkpt lat="43.92272" lon="6.41148">
        <ele>782.9</ele>
        <time>2019-11-01T13:28:06Z</time>
      </trkpt>
      <trkpt lat="43.92275" lon="6.4115">
        <ele>783</ele>
        <time>2019-11-01T13:28:07Z</time>
      </trkpt>
      <trkpt lat="43.92283" lon="6.41156">
        <ele>783.3</ele>
        <time>2019-11-01T13:28:09Z</time>
      </trkpt>
      <trkpt lat="43.92291" lon="6.41161">
        <ele>783.8</ele>
        <time>2019-11-01T13:28:11Z</time>
      </trkpt>
      <trkpt lat="43.92298" lon="6.41166">
        <ele>784.3</ele>
        <time>2019-11-01T13:28:13Z</time>
      </trkpt>
      <trkpt lat="43.92304" lon="6.41171">
        <ele>784.8</ele>
        <time>2019-11-01T13:28:15Z</time>
      </trkpt>
      <trkpt lat="43.9231" lon="6.41174">
        <ele>785.3</ele>
        <time>2019-11-01T13:28:17Z</time>
      </trkpt>
      <trkpt lat="43.92316" lon="6.41176">
        <ele>785.8</ele>
        <time>2019-11-01T13:28:19Z</time>
      </trkpt>
      <trkpt lat="43.92323" lon="6.41176">
        <ele>786.2</ele>
        <time>2019-11-01T13:28:21Z</time>
      </trkpt>
      <trkpt lat="43.92327" lon="6.41176">
        <ele>786.5</ele>
        <time>2019-11-01T13:28:22Z</time>
      </trkpt>
      <trkpt lat="43.92334" lon="6.41176">
        <ele>787</ele>
        <time>2019-11-01T13:28:24Z</time>
      </trkpt>
      <trkpt lat="43.92337" lon="6.41176">
        <ele>787.3</ele>
        <time>2019-11-01T13:28:25Z</time>
      </trkpt>
      <trkpt lat="43.92344" lon="6.41175">
        <ele>787.9</ele>
        <time>2019-11-01T13:28:27Z</time>
      </trkpt>
      <trkpt lat="43.92347" lon="6.41174">
        <ele>788.2</ele>
        <time>2019-11-01T13:28:28Z</time>
      </trkpt>
      <trkpt lat="43.92352" lon="6.41173">
        <ele>788.6</ele>
        <time>2019-11-01T13:28:30Z</time>
      </trkpt>
      <trkpt lat="43.92357" lon="6.41171">
        <ele>788.9</ele>
        <time>2019-11-01T13:28:32Z</time>
      </trkpt>
      <trkpt lat="43.92362" lon="6.41169">
        <ele>789.1</ele>
        <time>2019-11-01T13:28:34Z</time>
      </trkpt>
      <trkpt lat="43.92369" lon="6.41166">
        <ele>789.4</ele>
        <time>2019-11-01T13:28:37Z</time>
      </trkpt>
      <trkpt lat="43.92376" lon="6.41161">
        <ele>789.9</ele>
        <time>2019-11-01T13:28:40Z</time>
      </trkpt>
      <trkpt lat="43.9238" lon="6.41156">
        <ele>790.2</ele>
        <time>2019-11-01T13:28:42Z</time>
      </trkpt>
      <trkpt lat="43.92381" lon="6.41153">
        <ele>790.5</ele>
        <time>2019-11-01T13:28:43Z</time>
      </trkpt>
      <trkpt lat="43.92384" lon="6.41147">
        <ele>791</ele>
        <time>2019-11-01T13:28:45Z</time>
      </trkpt>
      <trkpt lat="43.92387" lon="6.41141">
        <ele>791.5</ele>
        <time>2019-11-01T13:28:47Z</time>
      </trkpt>
      <trkpt lat="43.92389" lon="6.41135">
        <ele>792</ele>
        <time>2019-11-01T13:28:49Z</time>
      </trkpt>
      <trkpt lat="43.92392" lon="6.41129">
        <ele>792.6</ele>
        <time>2019-11-01T13:28:51Z</time>
      </trkpt>
      <trkpt lat="43.92394" lon="6.41124">
        <ele>793.1</ele>
        <time>2019-11-01T13:28:53Z</time>
      </trkpt>
      <trkpt lat="43.92397" lon="6.41119">
        <ele>793.6</ele>
        <time>2019-11-01T13:28:55Z</time>
      </trkpt>
      <trkpt lat="43.924" lon="6.41114">
        <ele>794.1</ele>
        <time>2019-11-01T13:28:57Z</time>
      </trkpt>
      <trkpt lat="43.92404" lon="6.4111">
        <ele>794.5</ele>
        <time>2019-11-01T13:28:59Z</time>
      </trkpt>
      <trkpt lat="43.92407" lon="6.41106">
        <ele>794.9</ele>
        <time>2019-11-01T13:29:01Z</time>
      </trkpt>
      <trkpt lat="43.92414" lon="6.411">
        <ele>795.6</ele>
        <time>2019-11-01T13:29:04Z</time>
      </trkpt>
      <trkpt lat="43.9242" lon="6.41097">
        <ele>796.2</ele>
        <time>2019-11-01T13:29:07Z</time>
      </trkpt>
      <trkpt lat="43.92427" lon="6.41096">
        <ele>796.7</ele>
        <time>2019-11-01T13:29:10Z</time>
      </trkpt>
      <trkpt lat="43.92432" lon="6.41096">
        <ele>797.3</ele>
        <time>2019-11-01T13:29:12Z</time>
      </trkpt>
      <trkpt lat="43.92439" lon="6.41098">
        <ele>798</ele>
        <time>2019-11-01T13:29:15Z</time>
      </trkpt>
      <trkpt lat="43.92443" lon="6.411">
        <ele>798.6</ele>
        <time>2019-11-01T13:29:17Z</time>
      </trkpt>
      <trkpt lat="43.92447" lon="6.41102">
        <ele>799.1</ele>
        <time>2019-11-01T13:29:19Z</time>
      </trkpt>
      <trkpt lat="43.92451" lon="6.41105">
        <ele>799.5</ele>
        <time>2019-11-01T13:29:21Z</time>
      </trkpt>
      <trkpt lat="43.92455" lon="6.41107">
        <ele>799.9</ele>
        <time>2019-11-01T13:29:23Z</time>
      </trkpt>
      <trkpt lat="43.92459" lon="6.41109">
        <ele>800.4</ele>
        <time>2019-11-01T13:29:25Z</time>
      </trkpt>
      <trkpt lat="43.92463" lon="6.41111">
        <ele>800.8</ele>
        <time>2019-11-01T13:29:27Z</time>
      </trkpt>
      <trkpt lat="43.92466" lon="6.41114">
        <ele>801.2</ele>
        <time>2019-11-01T13:29:29Z</time>
      </trkpt>
      <trkpt lat="43.92471" lon="6.41119">
        <ele>801.7</ele>
        <time>2019-11-01T13:29:32Z</time>
      </trkpt>
      <trkpt lat="43.92475" lon="6.41125">
        <ele>802.2</ele>
        <time>2019-11-01T13:29:35Z</time>
      </trkpt>
      <trkpt lat="43.92477" lon="6.41129">
        <ele>802.5</ele>
        <time>2019-11-01T13:29:37Z</time>
      </trkpt>
      <trkpt lat="43.9248" lon="6.41135">
        <ele>803.1</ele>
        <time>2019-11-01T13:29:40Z</time>
      </trkpt>
      <trkpt lat="43.92483" lon="6.41139">
        <ele>803.5</ele>
        <time>2019-11-01T13:29:42Z</time>
      </trkpt>
      <trkpt lat="43.92486" lon="6.41143">
        <ele>804</ele>
        <time>2019-11-01T13:29:44Z</time>
      </trkpt>
      <trkpt lat="43.92489" lon="6.41147">
        <ele>804.5</ele>
        <time>2019-11-01T13:29:46Z</time>
      </trkpt>
      <trkpt lat="43.92495" lon="6.4115">
        <ele>805.1</ele>
        <time>2019-11-01T13:29:49Z</time>
      </trkpt>
      <trkpt lat="43.92499" lon="6.41153">
        <ele>805.6</ele>
        <time>2019-11-01T13:29:51Z</time>
      </trkpt>
      <trkpt lat="43.92503" lon="6.41155">
        <ele>806</ele>
        <time>2019-11-01T13:29:53Z</time>
      </trkpt>
      <trkpt lat="43.92506" lon="6.41158">
        <ele>806.5</ele>
        <time>2019-11-01T13:29:55Z</time>
      </trkpt>
      <trkpt lat="43.9251" lon="6.4116">
        <ele>807</ele>
        <time>2019-11-01T13:29:57Z</time>
      </trkpt>
      <trkpt lat="43.92514" lon="6.41163">
        <ele>807.4</ele>
        <time>2019-11-01T13:29:59Z</time>
      </trkpt>
      <trkpt lat="43.92519" lon="6.41168">
        <ele>808</ele>
        <time>2019-11-01T13:30:02Z</time>
      </trkpt>
      <trkpt lat="43.92524" lon="6.41174">
        <ele>808.5</ele>
        <time>2019-11-01T13:30:05Z</time>
      </trkpt>
      <trkpt lat="43.92527" lon="6.41177">
        <ele>808.9</ele>
        <time>2019-11-01T13:30:07Z</time>
      </trkpt>
      <trkpt lat="43.92531" lon="6.41181">
        <ele>809.1</ele>
        <time>2019-11-01T13:30:09Z</time>
      </trkpt>
      <trkpt lat="43.92534" lon="6.41185">
        <ele>809.4</ele>
        <time>2019-11-01T13:30:11Z</time>
      </trkpt>
      <trkpt lat="43.92539" lon="6.41192">
        <ele>809.6</ele>
        <time>2019-11-01T13:30:14Z</time>
      </trkpt>
      <trkpt lat="43.92542" lon="6.412">
        <ele>809.9</ele>
        <time>2019-11-01T13:30:17Z</time>
      </trkpt>
      <trkpt lat="43.92544" lon="6.41205">
        <ele>810.2</ele>
        <time>2019-11-01T13:30:19Z</time>
      </trkpt>
      <trkpt lat="43.92546" lon="6.41214">
        <ele>810.6</ele>
        <time>2019-11-01T13:30:22Z</time>
      </trkpt>
      <trkpt lat="43.92548" lon="6.4122">
        <ele>811</ele>
        <time>2019-11-01T13:30:24Z</time>
      </trkpt>
      <trkpt lat="43.9255" lon="6.41225">
        <ele>811.4</ele>
        <time>2019-11-01T13:30:26Z</time>
      </trkpt>
      <trkpt lat="43.92553" lon="6.41228">
        <ele>811.8</ele>
        <time>2019-11-01T13:30:28Z</time>
      </trkpt>
      <trkpt lat="43.92557" lon="6.41233">
        <ele>812.5</ele>
        <time>2019-11-01T13:30:31Z</time>
      </trkpt>
      <trkpt lat="43.92561" lon="6.41235">
        <ele>813</ele>
        <time>2019-11-01T13:30:33Z</time>
      </trkpt>
      <trkpt lat="43.92567" lon="6.41236">
        <ele>813.7</ele>
        <time>2019-11-01T13:30:36Z</time>
      </trkpt>
      <trkpt lat="43.92573" lon="6.41235">
        <ele>814.4</ele>
        <time>2019-11-01T13:30:39Z</time>
      </trkpt>
      <trkpt lat="43.92577" lon="6.41235">
        <ele>814.9</ele>
        <time>2019-11-01T13:30:41Z</time>
      </trkpt>
      <trkpt lat="43.92582" lon="6.41235">
        <ele>815.3</ele>
        <time>2019-11-01T13:30:43Z</time>
      </trkpt>
      <trkpt lat="43.92584" lon="6.41235">
        <ele>815.5</ele>
        <time>2019-11-01T13:30:45Z</time>
      </trkpt>
      <trkpt lat="43.9259" lon="6.41236">
        <ele>815.9</ele>
        <time>2019-11-01T13:30:48Z</time>
      </trkpt>
      <trkpt lat="43.92594" lon="6.41237">
        <ele>816.2</ele>
        <time>2019-11-01T13:30:50Z</time>
      </trkpt>
      <trkpt lat="43.92598" lon="6.41239">
        <ele>816.4</ele>
        <time>2019-11-01T13:30:52Z</time>
      </trkpt>
      <trkpt lat="43.92602" lon="6.41241">
        <ele>816.7</ele>
        <time>2019-11-01T13:30:54Z</time>
      </trkpt>
      <trkpt lat="43.92608" lon="6.41243">
        <ele>817.3</ele>
        <time>2019-11-01T13:30:57Z</time>
      </trkpt>
      <trkpt lat="43.92613" lon="6.41246">
        <ele>817.8</ele>
        <time>2019-11-01T13:30:59Z</time>
      </trkpt>
      <trkpt lat="43.92616" lon="6.41248">
        <ele>818.2</ele>
        <time>2019-11-01T13:31:01Z</time>
      </trkpt>
      <trkpt lat="43.9262" lon="6.41249">
        <ele>818.8</ele>
        <time>2019-11-01T13:31:03Z</time>
      </trkpt>
      <trkpt lat="43.92624" lon="6.41251">
        <ele>819.3</ele>
        <time>2019-11-01T13:31:05Z</time>
      </trkpt>
      <trkpt lat="43.92628" lon="6.41253">
        <ele>819.9</ele>
        <time>2019-11-01T13:31:07Z</time>
      </trkpt>
      <trkpt lat="43.92631" lon="6.41254">
        <ele>820.4</ele>
        <time>2019-11-01T13:31:09Z</time>
      </trkpt>
      <trkpt lat="43.92638" lon="6.41255">
        <ele>821.2</ele>
        <time>2019-11-01T13:31:13Z</time>
      </trkpt>
      <trkpt lat="43.92642" lon="6.41255">
        <ele>821.8</ele>
        <time>2019-11-01T13:31:16Z</time>
      </trkpt>
      <trkpt lat="43.92647" lon="6.41255">
        <ele>822.5</ele>
        <time>2019-11-01T13:31:19Z</time>
      </trkpt>
      <trkpt lat="43.92652" lon="6.41255">
        <ele>823.2</ele>
        <time>2019-11-01T13:31:21Z</time>
      </trkpt>
      <trkpt lat="43.92655" lon="6.41254">
        <ele>823.7</ele>
        <time>2019-11-01T13:31:23Z</time>
      </trkpt>
      <trkpt lat="43.92659" lon="6.41255">
        <ele>824.2</ele>
        <time>2019-11-01T13:31:25Z</time>
      </trkpt>
      <trkpt lat="43.92663" lon="6.41256">
        <ele>825</ele>
        <time>2019-11-01T13:31:28Z</time>
      </trkpt>
      <trkpt lat="43.92667" lon="6.41258">
        <ele>825.5</ele>
        <time>2019-11-01T13:31:30Z</time>
      </trkpt>
      <trkpt lat="43.9267" lon="6.41259">
        <ele>825.9</ele>
        <time>2019-11-01T13:31:32Z</time>
      </trkpt>
      <trkpt lat="43.92673" lon="6.41261">
        <ele>826.4</ele>
        <time>2019-11-01T13:31:34Z</time>
      </trkpt>
      <trkpt lat="43.92676" lon="6.41263">
        <ele>826.9</ele>
        <time>2019-11-01T13:31:36Z</time>
      </trkpt>
      <trkpt lat="43.92679" lon="6.41264">
        <ele>827.4</ele>
        <time>2019-11-01T13:31:38Z</time>
      </trkpt>
      <trkpt lat="43.92684" lon="6.41266">
        <ele>828</ele>
        <time>2019-11-01T13:31:41Z</time>
      </trkpt>
      <trkpt lat="43.92687" lon="6.41266">
        <ele>828.5</ele>
        <time>2019-11-01T13:31:43Z</time>
      </trkpt>
      <trkpt lat="43.9269" lon="6.41266">
        <ele>829</ele>
        <time>2019-11-01T13:31:45Z</time>
      </trkpt>
      <trkpt lat="43.92694" lon="6.41266">
        <ele>829.5</ele>
        <time>2019-11-01T13:31:47Z</time>
      </trkpt>
      <trkpt lat="43.92699" lon="6.41265">
        <ele>830.3</ele>
        <time>2019-11-01T13:31:50Z</time>
      </trkpt>
      <trkpt lat="43.92704" lon="6.41265">
        <ele>831</ele>
        <time>2019-11-01T13:31:53Z</time>
      </trkpt>
      <trkpt lat="43.92707" lon="6.41264">
        <ele>831.5</ele>
        <time>2019-11-01T13:31:55Z</time>
      </trkpt>
      <trkpt lat="43.92711" lon="6.41263">
        <ele>832</ele>
        <time>2019-11-01T13:31:58Z</time>
      </trkpt>
      <trkpt lat="43.92714" lon="6.4126">
        <ele>832.6</ele>
        <time>2019-11-01T13:32:00Z</time>
      </trkpt>
      <trkpt lat="43.92718" lon="6.41256">
        <ele>833.2</ele>
        <time>2019-11-01T13:32:03Z</time>
      </trkpt>
      <trkpt lat="43.92721" lon="6.41254">
        <ele>833.6</ele>
        <time>2019-11-01T13:32:05Z</time>
      </trkpt>
      <trkpt lat="43.92723" lon="6.41251">
        <ele>833.9</ele>
        <time>2019-11-01T13:32:07Z</time>
      </trkpt>
      <trkpt lat="43.92725" lon="6.41248">
        <ele>834.4</ele>
        <time>2019-11-01T13:32:09Z</time>
      </trkpt>
      <trkpt lat="43.92728" lon="6.41245">
        <ele>834.9</ele>
        <time>2019-11-01T13:32:11Z</time>
      </trkpt>
      <trkpt lat="43.9273" lon="6.41241">
        <ele>835.3</ele>
        <time>2019-11-01T13:32:13Z</time>
      </trkpt>
      <trkpt lat="43.92732" lon="6.41239">
        <ele>835.8</ele>
        <time>2019-11-01T13:32:15Z</time>
      </trkpt>
      <trkpt lat="43.92735" lon="6.41237">
        <ele>836.3</ele>
        <time>2019-11-01T13:32:17Z</time>
      </trkpt>
      <trkpt lat="43.92738" lon="6.41236">
        <ele>836.9</ele>
        <time>2019-11-01T13:32:19Z</time>
      </trkpt>
      <trkpt lat="43.92741" lon="6.41236">
        <ele>837.4</ele>
        <time>2019-11-01T13:32:21Z</time>
      </trkpt>
      <trkpt lat="43.92745" lon="6.41235">
        <ele>838</ele>
        <time>2019-11-01T13:32:23Z</time>
      </trkpt>
      <trkpt lat="43.92748" lon="6.41235">
        <ele>838.5</ele>
        <time>2019-11-01T13:32:25Z</time>
      </trkpt>
      <trkpt lat="43.92753" lon="6.41235">
        <ele>839.2</ele>
        <time>2019-11-01T13:32:28Z</time>
      </trkpt>
      <trkpt lat="43.92757" lon="6.41234">
        <ele>839.7</ele>
        <time>2019-11-01T13:32:30Z</time>
      </trkpt>
      <trkpt lat="43.9276" lon="6.41233">
        <ele>840.2</ele>
        <time>2019-11-01T13:32:32Z</time>
      </trkpt>
      <trkpt lat="43.92763" lon="6.41232">
        <ele>840.6</ele>
        <time>2019-11-01T13:32:34Z</time>
      </trkpt>
      <trkpt lat="43.92766" lon="6.41233">
        <ele>841</ele>
        <time>2019-11-01T13:32:36Z</time>
      </trkpt>
      <trkpt lat="43.9277" lon="6.41233">
        <ele>841.4</ele>
        <time>2019-11-01T13:32:38Z</time>
      </trkpt>
      <trkpt lat="43.92773" lon="6.41234">
        <ele>841.8</ele>
        <time>2019-11-01T13:32:40Z</time>
      </trkpt>
      <trkpt lat="43.92776" lon="6.41236">
        <ele>842.2</ele>
        <time>2019-11-01T13:32:42Z</time>
      </trkpt>
      <trkpt lat="43.92779" lon="6.4124">
        <ele>842.6</ele>
        <time>2019-11-01T13:32:44Z</time>
      </trkpt>
      <trkpt lat="43.92782" lon="6.41245">
        <ele>843</ele>
        <time>2019-11-01T13:32:47Z</time>
      </trkpt>
      <trkpt lat="43.92783" lon="6.41248">
        <ele>843.3</ele>
        <time>2019-11-01T13:32:49Z</time>
      </trkpt>
      <trkpt lat="43.92785" lon="6.41253">
        <ele>843.6</ele>
        <time>2019-11-01T13:32:51Z</time>
      </trkpt>
      <trkpt lat="43.92786" lon="6.41257">
        <ele>843.9</ele>
        <time>2019-11-01T13:32:53Z</time>
      </trkpt>
      <trkpt lat="43.92786" lon="6.41262">
        <ele>844.3</ele>
        <time>2019-11-01T13:32:55Z</time>
      </trkpt>
      <trkpt lat="43.92787" lon="6.41268">
        <ele>844.6</ele>
        <time>2019-11-01T13:32:57Z</time>
      </trkpt>
      <trkpt lat="43.92788" lon="6.41272">
        <ele>844.9</ele>
        <time>2019-11-01T13:32:59Z</time>
      </trkpt>
      <trkpt lat="43.92788" lon="6.41277">
        <ele>845.2</ele>
        <time>2019-11-01T13:33:01Z</time>
      </trkpt>
      <trkpt lat="43.92789" lon="6.41284">
        <ele>845.6</ele>
        <time>2019-11-01T13:33:04Z</time>
      </trkpt>
      <trkpt lat="43.92789" lon="6.41289">
        <ele>845.9</ele>
        <time>2019-11-01T13:33:06Z</time>
      </trkpt>
      <trkpt lat="43.92791" lon="6.41295">
        <ele>846.4</ele>
        <time>2019-11-01T13:33:09Z</time>
      </trkpt>
      <trkpt lat="43.92794" lon="6.41299">
        <ele>846.8</ele>
        <time>2019-11-01T13:33:12Z</time>
      </trkpt>
      <trkpt lat="43.92799" lon="6.41297">
        <ele>848.5</ele>
        <time>2019-11-01T13:33:15Z</time>
      </trkpt>
      <trkpt lat="43.92801" lon="6.41293">
        <ele>848.9</ele>
        <time>2019-11-01T13:33:17Z</time>
      </trkpt>
      <trkpt lat="43.92804" lon="6.41289">
        <ele>849.4</ele>
        <time>2019-11-01T13:33:19Z</time>
      </trkpt>
      <trkpt lat="43.92807" lon="6.41283">
        <ele>850</ele>
        <time>2019-11-01T13:33:22Z</time>
      </trkpt>
      <trkpt lat="43.9281" lon="6.4128">
        <ele>850.4</ele>
        <time>2019-11-01T13:33:24Z</time>
      </trkpt>
      <trkpt lat="43.92813" lon="6.41276">
        <ele>850.9</ele>
        <time>2019-11-01T13:33:26Z</time>
      </trkpt>
      <trkpt lat="43.92817" lon="6.41272">
        <ele>851.6</ele>
        <time>2019-11-01T13:33:29Z</time>
      </trkpt>
      <trkpt lat="43.9282" lon="6.4127">
        <ele>852.1</ele>
        <time>2019-11-01T13:33:31Z</time>
      </trkpt>
      <trkpt lat="43.92824" lon="6.41267">
        <ele>852.8</ele>
        <time>2019-11-01T13:33:33Z</time>
      </trkpt>
      <trkpt lat="43.92827" lon="6.41264">
        <ele>853.5</ele>
        <time>2019-11-01T13:33:35Z</time>
      </trkpt>
      <trkpt lat="43.9283" lon="6.41262">
        <ele>854.2</ele>
        <time>2019-11-01T13:33:37Z</time>
      </trkpt>
      <trkpt lat="43.92833" lon="6.41259">
        <ele>855.1</ele>
        <time>2019-11-01T13:33:39Z</time>
      </trkpt>
      <trkpt lat="43.92836" lon="6.41252">
        <ele>855.9</ele>
        <time>2019-11-01T13:33:42Z</time>
      </trkpt>
      <trkpt lat="43.92838" lon="6.41248">
        <ele>856.4</ele>
        <time>2019-11-01T13:33:44Z</time>
      </trkpt>
      <trkpt lat="43.9284" lon="6.41243">
        <ele>856.9</ele>
        <time>2019-11-01T13:33:46Z</time>
      </trkpt>
      <trkpt lat="43.92842" lon="6.41239">
        <ele>857.4</ele>
        <time>2019-11-01T13:33:48Z</time>
      </trkpt>
      <trkpt lat="43.92844" lon="6.41232">
        <ele>858.6</ele>
        <time>2019-11-01T13:33:51Z</time>
      </trkpt>
      <trkpt lat="43.92846" lon="6.41228">
        <ele>859.5</ele>
        <time>2019-11-01T13:33:53Z</time>
      </trkpt>
      <trkpt lat="43.92847" lon="6.41222">
        <ele>860</ele>
        <time>2019-11-01T13:33:55Z</time>
      </trkpt>
      <trkpt lat="43.92848" lon="6.41217">
        <ele>860.6</ele>
        <time>2019-11-01T13:33:57Z</time>
      </trkpt>
      <trkpt lat="43.92849" lon="6.41214">
        <ele>861</ele>
        <time>2019-11-01T13:33:59Z</time>
      </trkpt>
      <trkpt lat="43.92851" lon="6.4121">
        <ele>861.5</ele>
        <time>2019-11-01T13:34:01Z</time>
      </trkpt>
      <trkpt lat="43.92852" lon="6.41203">
        <ele>862.2</ele>
        <time>2019-11-01T13:34:03Z</time>
      </trkpt>
      <trkpt lat="43.92854" lon="6.41195">
        <ele>862.9</ele>
        <time>2019-11-01T13:34:06Z</time>
      </trkpt>
      <trkpt lat="43.92855" lon="6.41191">
        <ele>862.9</ele>
        <time>2019-11-01T13:34:08Z</time>
      </trkpt>
      <trkpt lat="43.92856" lon="6.41185">
        <ele>863</ele>
        <time>2019-11-01T13:34:10Z</time>
      </trkpt>
      <trkpt lat="43.92857" lon="6.4118">
        <ele>863.4</ele>
        <time>2019-11-01T13:34:12Z</time>
      </trkpt>
      <trkpt lat="43.92858" lon="6.41176">
        <ele>863.9</ele>
        <time>2019-11-01T13:34:14Z</time>
      </trkpt>
      <trkpt lat="43.92861" lon="6.41172">
        <ele>864.8</ele>
        <time>2019-11-01T13:34:16Z</time>
      </trkpt>
      <trkpt lat="43.92864" lon="6.4117">
        <ele>865.7</ele>
        <time>2019-11-01T13:34:18Z</time>
      </trkpt>
      <trkpt lat="43.92869" lon="6.41174">
        <ele>867.3</ele>
        <time>2019-11-01T13:34:21Z</time>
      </trkpt>
      <trkpt lat="43.92871" lon="6.41184">
        <ele>868.3</ele>
        <time>2019-11-01T13:34:24Z</time>
      </trkpt>
      <trkpt lat="43.92869" lon="6.41189">
        <ele>868.6</ele>
        <time>2019-11-01T13:34:26Z</time>
      </trkpt>
      <trkpt lat="43.92868" lon="6.41195">
        <ele>868.7</ele>
        <time>2019-11-01T13:34:28Z</time>
      </trkpt>
      <trkpt lat="43.92867" lon="6.41202">
        <ele>868.7</ele>
        <time>2019-11-01T13:34:31Z</time>
      </trkpt>
      <trkpt lat="43.92866" lon="6.41208">
        <ele>868.3</ele>
        <time>2019-11-01T13:34:33Z</time>
      </trkpt>
      <trkpt lat="43.92866" lon="6.41212">
        <ele>868.1</ele>
        <time>2019-11-01T13:34:35Z</time>
      </trkpt>
      <trkpt lat="43.92866" lon="6.41217">
        <ele>868.1</ele>
        <time>2019-11-01T13:34:37Z</time>
      </trkpt>
      <trkpt lat="43.92867" lon="6.41225">
        <ele>868.4</ele>
        <time>2019-11-01T13:34:40Z</time>
      </trkpt>
      <trkpt lat="43.92868" lon="6.41233">
        <ele>869.3</ele>
        <time>2019-11-01T13:34:43Z</time>
      </trkpt>
      <trkpt lat="43.92869" lon="6.41237">
        <ele>869.9</ele>
        <time>2019-11-01T13:34:44Z</time>
      </trkpt>
      <trkpt lat="43.92872" lon="6.41245">
        <ele>870.9</ele>
        <time>2019-11-01T13:34:48Z</time>
      </trkpt>
      <trkpt lat="43.92874" lon="6.41249">
        <ele>871.6</ele>
        <time>2019-11-01T13:34:50Z</time>
      </trkpt>
      <trkpt lat="43.92876" lon="6.41253">
        <ele>872.2</ele>
        <time>2019-11-01T13:34:52Z</time>
      </trkpt>
      <trkpt lat="43.92879" lon="6.4126">
        <ele>873.4</ele>
        <time>2019-11-01T13:34:55Z</time>
      </trkpt>
      <trkpt lat="43.92883" lon="6.41267">
        <ele>875.9</ele>
        <time>2019-11-01T13:34:58Z</time>
      </trkpt>
      <trkpt lat="43.92885" lon="6.41274">
        <ele>877.6</ele>
        <time>2019-11-01T13:35:01Z</time>
      </trkpt>
      <trkpt lat="43.92886" lon="6.41277">
        <ele>878.4</ele>
        <time>2019-11-01T13:35:03Z</time>
      </trkpt>
      <trkpt lat="43.92888" lon="6.41281">
        <ele>878.8</ele>
        <time>2019-11-01T13:35:05Z</time>
      </trkpt>
      <trkpt lat="43.92889" lon="6.41284">
        <ele>879</ele>
        <time>2019-11-01T13:35:07Z</time>
      </trkpt>
      <trkpt lat="43.9289" lon="6.41289">
        <ele>879.1</ele>
        <time>2019-11-01T13:35:08Z</time>
      </trkpt>
      <trkpt lat="43.92891" lon="6.41294">
        <ele>880.3</ele>
        <time>2019-11-01T13:35:10Z</time>
      </trkpt>
      <trkpt lat="43.92891" lon="6.413">
        <ele>881.4</ele>
        <time>2019-11-01T13:35:12Z</time>
      </trkpt>
      <trkpt lat="43.92892" lon="6.41305">
        <ele>881.8</ele>
        <time>2019-11-01T13:35:14Z</time>
      </trkpt>
      <trkpt lat="43.92892" lon="6.41312">
        <ele>882.4</ele>
        <time>2019-11-01T13:35:18Z</time>
      </trkpt>
      <trkpt lat="43.92894" lon="6.41316">
        <ele>884</ele>
        <time>2019-11-01T13:35:20Z</time>
      </trkpt>
      <trkpt lat="43.92898" lon="6.41322">
        <ele>886.3</ele>
        <time>2019-11-01T13:35:23Z</time>
      </trkpt>
      <trkpt lat="43.92901" lon="6.41324">
        <ele>886.3</ele>
        <time>2019-11-01T13:35:25Z</time>
      </trkpt>
      <trkpt lat="43.92906" lon="6.41322">
        <ele>886.3</ele>
        <time>2019-11-01T13:35:28Z</time>
      </trkpt>
      <trkpt lat="43.92908" lon="6.41319">
        <ele>888.2</ele>
        <time>2019-11-01T13:35:30Z</time>
      </trkpt>
      <trkpt lat="43.92912" lon="6.41313">
        <ele>890.3</ele>
        <time>2019-11-01T13:35:33Z</time>
      </trkpt>
      <trkpt lat="43.92914" lon="6.41309">
        <ele>890.8</ele>
        <time>2019-11-01T13:35:35Z</time>
      </trkpt>
      <trkpt lat="43.92916" lon="6.41301">
        <ele>890.5</ele>
        <time>2019-11-01T13:35:38Z</time>
      </trkpt>
      <trkpt lat="43.92916" lon="6.41293">
        <ele>891.7</ele>
        <time>2019-11-01T13:35:41Z</time>
      </trkpt>
      <trkpt lat="43.92916" lon="6.41288">
        <ele>892.5</ele>
        <time>2019-11-01T13:35:43Z</time>
      </trkpt>
      <trkpt lat="43.92918" lon="6.41281">
        <ele>893.6</ele>
        <time>2019-11-01T13:35:46Z</time>
      </trkpt>
      <trkpt lat="43.92918" lon="6.41276">
        <ele>894</ele>
        <time>2019-11-01T13:35:48Z</time>
      </trkpt>
      <trkpt lat="43.92918" lon="6.41271">
        <ele>894.4</ele>
        <time>2019-11-01T13:35:50Z</time>
      </trkpt>
      <trkpt lat="43.92919" lon="6.41266">
        <ele>894.3</ele>
        <time>2019-11-01T13:35:52Z</time>
      </trkpt>
      <trkpt lat="43.9292" lon="6.41261">
        <ele>893.9</ele>
        <time>2019-11-01T13:35:54Z</time>
      </trkpt>
      <trkpt lat="43.92922" lon="6.41255">
        <ele>893.5</ele>
        <time>2019-11-01T13:35:57Z</time>
      </trkpt>
      <trkpt lat="43.92923" lon="6.41251">
        <ele>893.7</ele>
        <time>2019-11-01T13:35:59Z</time>
      </trkpt>
      <trkpt lat="43.92925" lon="6.41247">
        <ele>894</ele>
        <time>2019-11-01T13:36:01Z</time>
      </trkpt>
      <trkpt lat="43.92928" lon="6.41241">
        <ele>894.4</ele>
        <time>2019-11-01T13:36:04Z</time>
      </trkpt>
      <trkpt lat="43.9293" lon="6.41235">
        <ele>894.7</ele>
        <time>2019-11-01T13:36:07Z</time>
      </trkpt>
      <trkpt lat="43.92932" lon="6.41231">
        <ele>895.4</ele>
        <time>2019-11-01T13:36:09Z</time>
      </trkpt>
      <trkpt lat="43.92934" lon="6.41227">
        <ele>896</ele>
        <time>2019-11-01T13:36:11Z</time>
      </trkpt>
      <trkpt lat="43.92936" lon="6.41223">
        <ele>896.7</ele>
        <time>2019-11-01T13:36:13Z</time>
      </trkpt>
      <trkpt lat="43.92938" lon="6.4122">
        <ele>897.5</ele>
        <time>2019-11-01T13:36:15Z</time>
      </trkpt>
      <trkpt lat="43.9294" lon="6.41217">
        <ele>898.4</ele>
        <time>2019-11-01T13:36:17Z</time>
      </trkpt>
      <trkpt lat="43.92941" lon="6.41212">
        <ele>898.5</ele>
        <time>2019-11-01T13:36:19Z</time>
      </trkpt>
      <trkpt lat="43.92942" lon="6.41208">
        <ele>898.2</ele>
        <time>2019-11-01T13:36:21Z</time>
      </trkpt>
      <trkpt lat="43.92942" lon="6.41204">
        <ele>897.8</ele>
        <time>2019-11-01T13:36:23Z</time>
      </trkpt>
      <trkpt lat="43.92943" lon="6.41197">
        <ele>898.1</ele>
        <time>2019-11-01T13:36:26Z</time>
      </trkpt>
      <trkpt lat="43.92943" lon="6.4119">
        <ele>898</ele>
        <time>2019-11-01T13:36:29Z</time>
      </trkpt>
      <trkpt lat="43.92943" lon="6.41183">
        <ele>897.3</ele>
        <time>2019-11-01T13:36:32Z</time>
      </trkpt>
      <trkpt lat="43.92944" lon="6.41178">
        <ele>897.2</ele>
        <time>2019-11-01T13:36:34Z</time>
      </trkpt>
      <trkpt lat="43.92945" lon="6.41171">
        <ele>897.3</ele>
        <time>2019-11-01T13:36:37Z</time>
      </trkpt>
      <trkpt lat="43.92947" lon="6.41164">
        <ele>897.6</ele>
        <time>2019-11-01T13:36:40Z</time>
      </trkpt>
      <trkpt lat="43.92948" lon="6.41158">
        <ele>897.4</ele>
        <time>2019-11-01T13:36:43Z</time>
      </trkpt>
      <trkpt lat="43.92949" lon="6.41154">
        <ele>897.1</ele>
        <time>2019-11-01T13:36:45Z</time>
      </trkpt>
      <trkpt lat="43.92951" lon="6.41151">
        <ele>897.5</ele>
        <time>2019-11-01T13:36:47Z</time>
      </trkpt>
      <trkpt lat="43.92953" lon="6.41147">
        <ele>899.1</ele>
        <time>2019-11-01T13:36:49Z</time>
      </trkpt>
      <trkpt lat="43.92956" lon="6.41145">
        <ele>900</ele>
        <time>2019-11-01T13:36:51Z</time>
      </trkpt>
      <trkpt lat="43.92959" lon="6.41143">
        <ele>900.7</ele>
        <time>2019-11-01T13:36:53Z</time>
      </trkpt>
      <trkpt lat="43.92963" lon="6.41143">
        <ele>902.5</ele>
        <time>2019-11-01T13:36:55Z</time>
      </trkpt>
      <trkpt lat="43.92966" lon="6.41145">
        <ele>905.1</ele>
        <time>2019-11-01T13:36:57Z</time>
      </trkpt>
      <trkpt lat="43.92969" lon="6.41149">
        <ele>906.6</ele>
        <time>2019-11-01T13:36:59Z</time>
      </trkpt>
      <trkpt lat="43.92971" lon="6.41154">
        <ele>907.5</ele>
        <time>2019-11-01T13:37:01Z</time>
      </trkpt>
      <trkpt lat="43.92972" lon="6.41161">
        <ele>910</ele>
        <time>2019-11-01T13:37:04Z</time>
      </trkpt>
      <trkpt lat="43.92972" lon="6.41166">
        <ele>910.7</ele>
        <time>2019-11-01T13:37:06Z</time>
      </trkpt>
      <trkpt lat="43.92972" lon="6.41171">
        <ele>911.2</ele>
        <time>2019-11-01T13:37:08Z</time>
      </trkpt>
      <trkpt lat="43.92971" lon="6.41176">
        <ele>911.4</ele>
        <time>2019-11-01T13:37:10Z</time>
      </trkpt>
      <trkpt lat="43.92971" lon="6.41181">
        <ele>911.5</ele>
        <time>2019-11-01T13:37:12Z</time>
      </trkpt>
      <trkpt lat="43.9297" lon="6.41186">
        <ele>911.6</ele>
        <time>2019-11-01T13:37:14Z</time>
      </trkpt>
      <trkpt lat="43.92968" lon="6.41193">
        <ele>912.5</ele>
        <time>2019-11-01T13:37:17Z</time>
      </trkpt>
      <trkpt lat="43.92968" lon="6.41198">
        <ele>912.8</ele>
        <time>2019-11-01T13:37:19Z</time>
      </trkpt>
      <trkpt lat="43.92967" lon="6.41203">
        <ele>912.8</ele>
        <time>2019-11-01T13:37:21Z</time>
      </trkpt>
      <trkpt lat="43.92966" lon="6.41208">
        <ele>912.9</ele>
        <time>2019-11-01T13:37:23Z</time>
      </trkpt>
      <trkpt lat="43.92966" lon="6.41215">
        <ele>914</ele>
        <time>2019-11-01T13:37:26Z</time>
      </trkpt>
      <trkpt lat="43.92965" lon="6.4122">
        <ele>914.4</ele>
        <time>2019-11-01T13:37:28Z</time>
      </trkpt>
      <trkpt lat="43.92965" lon="6.41227">
        <ele>914</ele>
        <time>2019-11-01T13:37:31Z</time>
      </trkpt>
      <trkpt lat="43.92965" lon="6.41235">
        <ele>914.5</ele>
        <time>2019-11-01T13:37:34Z</time>
      </trkpt>
      <trkpt lat="43.92964" lon="6.41239">
        <ele>915.1</ele>
        <time>2019-11-01T13:37:36Z</time>
      </trkpt>
      <trkpt lat="43.92963" lon="6.41243">
        <ele>915.4</ele>
        <time>2019-11-01T13:37:38Z</time>
      </trkpt>
      <trkpt lat="43.92961" lon="6.41247">
        <ele>915.2</ele>
        <time>2019-11-01T13:37:40Z</time>
      </trkpt>
      <trkpt lat="43.9296" lon="6.41251">
        <ele>915</ele>
        <time>2019-11-01T13:37:42Z</time>
      </trkpt>
      <trkpt lat="43.92958" lon="6.41257">
        <ele>915.6</ele>
        <time>2019-11-01T13:37:45Z</time>
      </trkpt>
      <trkpt lat="43.92957" lon="6.41262">
        <ele>915.9</ele>
        <time>2019-11-01T13:37:47Z</time>
      </trkpt>
      <trkpt lat="43.92957" lon="6.41266">
        <ele>915.6</ele>
        <time>2019-11-01T13:37:49Z</time>
      </trkpt>
      <trkpt lat="43.92956" lon="6.41271">
        <ele>915.3</ele>
        <time>2019-11-01T13:37:51Z</time>
      </trkpt>
      <trkpt lat="43.92955" lon="6.41276">
        <ele>914.8</ele>
        <time>2019-11-01T13:37:53Z</time>
      </trkpt>
      <trkpt lat="43.92954" lon="6.4128">
        <ele>914.3</ele>
        <time>2019-11-01T13:37:55Z</time>
      </trkpt>
      <trkpt lat="43.92952" lon="6.41285">
        <ele>914.4</ele>
        <time>2019-11-01T13:37:57Z</time>
      </trkpt>
      <trkpt lat="43.92951" lon="6.41292">
        <ele>915</ele>
        <time>2019-11-01T13:38:00Z</time>
      </trkpt>
      <trkpt lat="43.9295" lon="6.41296">
        <ele>914.6</ele>
        <time>2019-11-01T13:38:02Z</time>
      </trkpt>
      <trkpt lat="43.9295" lon="6.41301">
        <ele>914.2</ele>
        <time>2019-11-01T13:38:04Z</time>
      </trkpt>
      <trkpt lat="43.9295" lon="6.41306">
        <ele>915</ele>
        <time>2019-11-01T13:38:06Z</time>
      </trkpt>
      <trkpt lat="43.92952" lon="6.4131">
        <ele>916.2</ele>
        <time>2019-11-01T13:38:08Z</time>
      </trkpt>
      <trkpt lat="43.92953" lon="6.41315">
        <ele>917.7</ele>
        <time>2019-11-01T13:38:10Z</time>
      </trkpt>
      <trkpt lat="43.92955" lon="6.41319">
        <ele>919.5</ele>
        <time>2019-11-01T13:38:12Z</time>
      </trkpt>
      <trkpt lat="43.92958" lon="6.41323">
        <ele>921.2</ele>
        <time>2019-11-01T13:38:14Z</time>
      </trkpt>
      <trkpt lat="43.9296" lon="6.41328">
        <ele>922.7</ele>
        <time>2019-11-01T13:38:16Z</time>
      </trkpt>
      <trkpt lat="43.92962" lon="6.41333">
        <ele>924.3</ele>
        <time>2019-11-01T13:38:18Z</time>
      </trkpt>
      <trkpt lat="43.92964" lon="6.41338">
        <ele>925.7</ele>
        <time>2019-11-01T13:38:20Z</time>
      </trkpt>
      <trkpt lat="43.92966" lon="6.41344">
        <ele>927.5</ele>
        <time>2019-11-01T13:38:22Z</time>
      </trkpt>
      <trkpt lat="43.92967" lon="6.41353">
        <ele>928.8</ele>
        <time>2019-11-01T13:38:25Z</time>
      </trkpt>
      <trkpt lat="43.92968" lon="6.41359">
        <ele>929.3</ele>
        <time>2019-11-01T13:38:27Z</time>
      </trkpt>
      <trkpt lat="43.92968" lon="6.41368">
        <ele>929.9</ele>
        <time>2019-11-01T13:38:30Z</time>
      </trkpt>
      <trkpt lat="43.92968" lon="6.41374">
        <ele>930.5</ele>
        <time>2019-11-01T13:38:32Z</time>
      </trkpt>
      <trkpt lat="43.92967" lon="6.41382">
        <ele>931.1</ele>
        <time>2019-11-01T13:38:35Z</time>
      </trkpt>
      <trkpt lat="43.92966" lon="6.41387">
        <ele>931.3</ele>
        <time>2019-11-01T13:38:37Z</time>
      </trkpt>
      <trkpt lat="43.92965" lon="6.41391">
        <ele>931.1</ele>
        <time>2019-11-01T13:38:39Z</time>
      </trkpt>
      <trkpt lat="43.92964" lon="6.41395">
        <ele>930.5</ele>
        <time>2019-11-01T13:38:41Z</time>
      </trkpt>
      <trkpt lat="43.92963" lon="6.414">
        <ele>929.8</ele>
        <time>2019-11-01T13:38:43Z</time>
      </trkpt>
      <trkpt lat="43.92962" lon="6.41405">
        <ele>929.2</ele>
        <time>2019-11-01T13:38:45Z</time>
      </trkpt>
      <trkpt lat="43.92962" lon="6.41409">
        <ele>928.5</ele>
        <time>2019-11-01T13:38:47Z</time>
      </trkpt>
      <trkpt lat="43.92961" lon="6.41414">
        <ele>928.3</ele>
        <time>2019-11-01T13:38:49Z</time>
      </trkpt>
      <trkpt lat="43.92959" lon="6.41422">
        <ele>928.5</ele>
        <time>2019-11-01T13:38:52Z</time>
      </trkpt>
      <trkpt lat="43.92959" lon="6.41426">
        <ele>928.7</ele>
        <time>2019-11-01T13:38:54Z</time>
      </trkpt>
      <trkpt lat="43.92959" lon="6.41431">
        <ele>928.9</ele>
        <time>2019-11-01T13:38:56Z</time>
      </trkpt>
      <trkpt lat="43.92959" lon="6.41436">
        <ele>929.2</ele>
        <time>2019-11-01T13:38:58Z</time>
      </trkpt>
      <trkpt lat="43.92959" lon="6.41441">
        <ele>929.4</ele>
        <time>2019-11-01T13:39:00Z</time>
      </trkpt>
      <trkpt lat="43.92959" lon="6.41445">
        <ele>929.6</ele>
        <time>2019-11-01T13:39:02Z</time>
      </trkpt>
      <trkpt lat="43.92959" lon="6.4145">
        <ele>930.1</ele>
        <time>2019-11-01T13:39:04Z</time>
      </trkpt>
      <trkpt lat="43.92959" lon="6.41457">
        <ele>930.7</ele>
        <time>2019-11-01T13:39:07Z</time>
      </trkpt>
      <trkpt lat="43.9296" lon="6.41464">
        <ele>931.5</ele>
        <time>2019-11-01T13:39:10Z</time>
      </trkpt>
      <trkpt lat="43.92959" lon="6.41469">
        <ele>931.8</ele>
        <time>2019-11-01T13:39:12Z</time>
      </trkpt>
      <trkpt lat="43.92959" lon="6.41473">
        <ele>932.1</ele>
        <time>2019-11-01T13:39:14Z</time>
      </trkpt>
      <trkpt lat="43.92959" lon="6.41478">
        <ele>932.3</ele>
        <time>2019-11-01T13:39:16Z</time>
      </trkpt>
      <trkpt lat="43.92958" lon="6.41483">
        <ele>931.9</ele>
        <time>2019-11-01T13:39:18Z</time>
      </trkpt>
      <trkpt lat="43.92958" lon="6.41487">
        <ele>931.5</ele>
        <time>2019-11-01T13:39:20Z</time>
      </trkpt>
      <trkpt lat="43.92957" lon="6.41492">
        <ele>931.3</ele>
        <time>2019-11-01T13:39:22Z</time>
      </trkpt>
      <trkpt lat="43.92956" lon="6.41498">
        <ele>931.7</ele>
        <time>2019-11-01T13:39:25Z</time>
      </trkpt>
      <trkpt lat="43.92956" lon="6.41503">
        <ele>930.7</ele>
        <time>2019-11-01T13:39:27Z</time>
      </trkpt>
      <trkpt lat="43.92955" lon="6.41507">
        <ele>929.4</ele>
        <time>2019-11-01T13:39:29Z</time>
      </trkpt>
      <trkpt lat="43.92953" lon="6.41513">
        <ele>928.3</ele>
        <time>2019-11-01T13:39:32Z</time>
      </trkpt>
      <trkpt lat="43.9295" lon="6.41517">
        <ele>927.5</ele>
        <time>2019-11-01T13:39:34Z</time>
      </trkpt>
      <trkpt lat="43.92947" lon="6.41523">
        <ele>926.4</ele>
        <time>2019-11-01T13:39:37Z</time>
      </trkpt>
      <trkpt lat="43.92945" lon="6.41526">
        <ele>925.3</ele>
        <time>2019-11-01T13:39:39Z</time>
      </trkpt>
      <trkpt lat="43.92943" lon="6.4153">
        <ele>923.5</ele>
        <time>2019-11-01T13:39:41Z</time>
      </trkpt>
      <trkpt lat="43.92943" lon="6.41534">
        <ele>921.9</ele>
        <time>2019-11-01T13:39:43Z</time>
      </trkpt>
      <trkpt lat="43.92942" lon="6.41538">
        <ele>922.4</ele>
        <time>2019-11-01T13:39:45Z</time>
      </trkpt>
      <trkpt lat="43.92943" lon="6.41546">
        <ele>923.2</ele>
        <time>2019-11-01T13:39:48Z</time>
      </trkpt>
      <trkpt lat="43.92943" lon="6.41552">
        <ele>923.5</ele>
        <time>2019-11-01T13:39:50Z</time>
      </trkpt>
      <trkpt lat="43.92943" lon="6.41557">
        <ele>923.9</ele>
        <time>2019-11-01T13:39:52Z</time>
      </trkpt>
      <trkpt lat="43.92942" lon="6.41564">
        <ele>924.4</ele>
        <time>2019-11-01T13:39:55Z</time>
      </trkpt>
      <trkpt lat="43.92941" lon="6.41569">
        <ele>924.8</ele>
        <time>2019-11-01T13:39:57Z</time>
      </trkpt>
      <trkpt lat="43.92941" lon="6.41574">
        <ele>925.3</ele>
        <time>2019-11-01T13:39:59Z</time>
      </trkpt>
      <trkpt lat="43.92941" lon="6.41579">
        <ele>926.2</ele>
        <time>2019-11-01T13:40:01Z</time>
      </trkpt>
      <trkpt lat="43.92941" lon="6.41584">
        <ele>927.5</ele>
        <time>2019-11-01T13:40:03Z</time>
      </trkpt>
      <trkpt lat="43.92942" lon="6.41591">
        <ele>929.5</ele>
        <time>2019-11-01T13:40:06Z</time>
      </trkpt>
      <trkpt lat="43.92944" lon="6.41595">
        <ele>930.7</ele>
        <time>2019-11-01T13:40:08Z</time>
      </trkpt>
      <trkpt lat="43.92946" lon="6.41599">
        <ele>931.7</ele>
        <time>2019-11-01T13:40:10Z</time>
      </trkpt>
      <trkpt lat="43.92948" lon="6.41602">
        <ele>932.5</ele>
        <time>2019-11-01T13:40:12Z</time>
      </trkpt>
      <trkpt lat="43.9295" lon="6.41605">
        <ele>933.4</ele>
        <time>2019-11-01T13:40:14Z</time>
      </trkpt>
      <trkpt lat="43.92952" lon="6.41609">
        <ele>935.2</ele>
        <time>2019-11-01T13:40:16Z</time>
      </trkpt>
      <trkpt lat="43.92955" lon="6.41612">
        <ele>937.1</ele>
        <time>2019-11-01T13:40:18Z</time>
      </trkpt>
      <trkpt lat="43.92957" lon="6.41616">
        <ele>938.6</ele>
        <time>2019-11-01T13:40:20Z</time>
      </trkpt>
      <trkpt lat="43.9296" lon="6.41619">
        <ele>940</ele>
        <time>2019-11-01T13:40:22Z</time>
      </trkpt>
      <trkpt lat="43.92963" lon="6.41622">
        <ele>941.1</ele>
        <time>2019-11-01T13:40:24Z</time>
      </trkpt>
      <trkpt lat="43.92965" lon="6.41625">
        <ele>942.2</ele>
        <time>2019-11-01T13:40:26Z</time>
      </trkpt>
      <trkpt lat="43.92967" lon="6.41627">
        <ele>943.3</ele>
        <time>2019-11-01T13:40:28Z</time>
      </trkpt>
      <trkpt lat="43.92969" lon="6.4163">
        <ele>944.3</ele>
        <time>2019-11-01T13:40:30Z</time>
      </trkpt>
      <trkpt lat="43.92972" lon="6.41633">
        <ele>945.4</ele>
        <time>2019-11-01T13:40:32Z</time>
      </trkpt>
      <trkpt lat="43.92974" lon="6.41636">
        <ele>946.5</ele>
        <time>2019-11-01T13:40:34Z</time>
      </trkpt>
      <trkpt lat="43.92978" lon="6.41641">
        <ele>947.7</ele>
        <time>2019-11-01T13:40:37Z</time>
      </trkpt>
      <trkpt lat="43.92982" lon="6.41645">
        <ele>949</ele>
        <time>2019-11-01T13:40:40Z</time>
      </trkpt>
      <trkpt lat="43.92985" lon="6.41648">
        <ele>949.7</ele>
        <time>2019-11-01T13:40:42Z</time>
      </trkpt>
      <trkpt lat="43.92988" lon="6.41651">
        <ele>950.3</ele>
        <time>2019-11-01T13:40:44Z</time>
      </trkpt>
      <trkpt lat="43.92991" lon="6.41656">
        <ele>950.7</ele>
        <time>2019-11-01T13:40:47Z</time>
      </trkpt>
      <trkpt lat="43.92993" lon="6.4166">
        <ele>951</ele>
        <time>2019-11-01T13:40:49Z</time>
      </trkpt>
      <trkpt lat="43.92995" lon="6.41664">
        <ele>951.2</ele>
        <time>2019-11-01T13:40:51Z</time>
      </trkpt>
      <trkpt lat="43.92996" lon="6.4167">
        <ele>951.2</ele>
        <time>2019-11-01T13:40:53Z</time>
      </trkpt>
      <trkpt lat="43.92995" lon="6.41677">
        <ele>950.7</ele>
        <time>2019-11-01T13:40:56Z</time>
      </trkpt>
      <trkpt lat="43.92994" lon="6.41682">
        <ele>950.2</ele>
        <time>2019-11-01T13:40:58Z</time>
      </trkpt>
      <trkpt lat="43.92993" lon="6.41687">
        <ele>949.7</ele>
        <time>2019-11-01T13:41:01Z</time>
      </trkpt>
      <trkpt lat="43.92992" lon="6.41692">
        <ele>948.9</ele>
        <time>2019-11-01T13:41:03Z</time>
      </trkpt>
      <trkpt lat="43.92991" lon="6.41697">
        <ele>948</ele>
        <time>2019-11-01T13:41:05Z</time>
      </trkpt>
      <trkpt lat="43.92989" lon="6.41703">
        <ele>947.4</ele>
        <time>2019-11-01T13:41:08Z</time>
      </trkpt>
      <trkpt lat="43.92989" lon="6.41707">
        <ele>947</ele>
        <time>2019-11-01T13:41:09Z</time>
      </trkpt>
      <trkpt lat="43.92989" lon="6.41711">
        <ele>946.4</ele>
        <time>2019-11-01T13:41:11Z</time>
      </trkpt>
      <trkpt lat="43.92989" lon="6.41716">
        <ele>945.6</ele>
        <time>2019-11-01T13:41:13Z</time>
      </trkpt>
      <trkpt lat="43.9299" lon="6.41728">
        <ele>944.1</ele>
        <time>2019-11-01T13:41:16Z</time>
      </trkpt>
      <trkpt lat="43.92992" lon="6.41737">
        <ele>943.5</ele>
        <time>2019-11-01T13:41:19Z</time>
      </trkpt>
      <trkpt lat="43.92994" lon="6.41742">
        <ele>942.7</ele>
        <time>2019-11-01T13:41:21Z</time>
      </trkpt>
      <trkpt lat="43.92996" lon="6.41747">
        <ele>942.5</ele>
        <time>2019-11-01T13:41:23Z</time>
      </trkpt>
      <trkpt lat="43.93" lon="6.41756">
        <ele>942</ele>
        <time>2019-11-01T13:41:26Z</time>
      </trkpt>
      <trkpt lat="43.93002" lon="6.41762">
        <ele>941.8</ele>
        <time>2019-11-01T13:41:28Z</time>
      </trkpt>
      <trkpt lat="43.93004" lon="6.41766">
        <ele>941.8</ele>
        <time>2019-11-01T13:41:30Z</time>
      </trkpt>
      <trkpt lat="43.93007" lon="6.41777">
        <ele>941.3</ele>
        <time>2019-11-01T13:41:33Z</time>
      </trkpt>
      <trkpt lat="43.93009" lon="6.41781">
        <ele>940.9</ele>
        <time>2019-11-01T13:41:35Z</time>
      </trkpt>
      <trkpt lat="43.9301" lon="6.41784">
        <ele>940.5</ele>
        <time>2019-11-01T13:41:36Z</time>
      </trkpt>
      <trkpt lat="43.93014" lon="6.4179">
        <ele>940</ele>
        <time>2019-11-01T13:41:38Z</time>
      </trkpt>
      <trkpt lat="43.9302" lon="6.41798">
        <ele>939.8</ele>
        <time>2019-11-01T13:41:41Z</time>
      </trkpt>
      <trkpt lat="43.93025" lon="6.41803">
        <ele>941</ele>
        <time>2019-11-01T13:41:43Z</time>
      </trkpt>
      <trkpt lat="43.93028" lon="6.41805">
        <ele>941.5</ele>
        <time>2019-11-01T13:41:44Z</time>
      </trkpt>
      <trkpt lat="43.93034" lon="6.41807">
        <ele>942.2</ele>
        <time>2019-11-01T13:41:46Z</time>
      </trkpt>
      <trkpt lat="43.93045" lon="6.41806">
        <ele>944.3</ele>
        <time>2019-11-01T13:41:48Z</time>
      </trkpt>
      <trkpt lat="43.9305" lon="6.41805">
        <ele>945.2</ele>
        <time>2019-11-01T13:41:49Z</time>
      </trkpt>
      <trkpt lat="43.93057" lon="6.41803">
        <ele>946.9</ele>
        <time>2019-11-01T13:41:51Z</time>
      </trkpt>
      <trkpt lat="43.93061" lon="6.41802">
        <ele>947</ele>
        <time>2019-11-01T13:41:52Z</time>
      </trkpt>
      <trkpt lat="43.93064" lon="6.41802">
        <ele>947</ele>
        <time>2019-11-01T13:41:53Z</time>
      </trkpt>
      <trkpt lat="43.93071" lon="6.41803">
        <ele>948.1</ele>
        <time>2019-11-01T13:41:55Z</time>
      </trkpt>
      <trkpt lat="43.93077" lon="6.41804">
        <ele>948.5</ele>
        <time>2019-11-01T13:41:58Z</time>
      </trkpt>
      <trkpt lat="43.9308" lon="6.41803">
        <ele>948.9</ele>
        <time>2019-11-01T13:42:00Z</time>
      </trkpt>
      <trkpt lat="43.93084" lon="6.41805">
        <ele>949.5</ele>
        <time>2019-11-01T13:42:03Z</time>
      </trkpt>
      <trkpt lat="43.93087" lon="6.41808">
        <ele>949.7</ele>
        <time>2019-11-01T13:42:05Z</time>
      </trkpt>
      <trkpt lat="43.93091" lon="6.41811">
        <ele>950</ele>
        <time>2019-11-01T13:42:07Z</time>
      </trkpt>
      <trkpt lat="43.93094" lon="6.41813">
        <ele>950.2</ele>
        <time>2019-11-01T13:42:08Z</time>
      </trkpt>
      <trkpt lat="43.93097" lon="6.41814">
        <ele>950.3</ele>
        <time>2019-11-01T13:42:09Z</time>
      </trkpt>
      <trkpt lat="43.93101" lon="6.41815">
        <ele>950.4</ele>
        <time>2019-11-01T13:42:11Z</time>
      </trkpt>
      <trkpt lat="43.93104" lon="6.41817">
        <ele>950.4</ele>
        <time>2019-11-01T13:42:12Z</time>
      </trkpt>
      <trkpt lat="43.93109" lon="6.4182">
        <ele>950.5</ele>
        <time>2019-11-01T13:42:15Z</time>
      </trkpt>
      <trkpt lat="43.93113" lon="6.41822">
        <ele>950.4</ele>
        <time>2019-11-01T13:42:16Z</time>
      </trkpt>
      <trkpt lat="43.93116" lon="6.41824">
        <ele>950.2</ele>
        <time>2019-11-01T13:42:19Z</time>
      </trkpt>
      <trkpt lat="43.9312" lon="6.41826">
        <ele>950.2</ele>
        <time>2019-11-01T13:42:21Z</time>
      </trkpt>
      <trkpt lat="43.93124" lon="6.41828">
        <ele>950.1</ele>
        <time>2019-11-01T13:42:22Z</time>
      </trkpt>
      <trkpt lat="43.93129" lon="6.41831">
        <ele>950.1</ele>
        <time>2019-11-01T13:42:25Z</time>
      </trkpt>
      <trkpt lat="43.93134" lon="6.41833">
        <ele>950</ele>
        <time>2019-11-01T13:42:27Z</time>
      </trkpt>
      <trkpt lat="43.93137" lon="6.41835">
        <ele>949.9</ele>
        <time>2019-11-01T13:42:29Z</time>
      </trkpt>
      <trkpt lat="43.93141" lon="6.41837">
        <ele>949.7</ele>
        <time>2019-11-01T13:42:32Z</time>
      </trkpt>
      <trkpt lat="43.93144" lon="6.41839">
        <ele>949.7</ele>
        <time>2019-11-01T13:42:34Z</time>
      </trkpt>
      <trkpt lat="43.93148" lon="6.41842">
        <ele>949.6</ele>
        <time>2019-11-01T13:42:35Z</time>
      </trkpt>
      <trkpt lat="43.93152" lon="6.41843">
        <ele>949.4</ele>
        <time>2019-11-01T13:42:38Z</time>
      </trkpt>
      <trkpt lat="43.93155" lon="6.41844">
        <ele>949.3</ele>
        <time>2019-11-01T13:42:39Z</time>
      </trkpt>
      <trkpt lat="43.93159" lon="6.41845">
        <ele>949.2</ele>
        <time>2019-11-01T13:42:41Z</time>
      </trkpt>
      <trkpt lat="43.93163" lon="6.41845">
        <ele>949.4</ele>
        <time>2019-11-01T13:42:44Z</time>
      </trkpt>
      <trkpt lat="43.93167" lon="6.41845">
        <ele>949.7</ele>
        <time>2019-11-01T13:42:46Z</time>
      </trkpt>
      <trkpt lat="43.93171" lon="6.41844">
        <ele>950</ele>
        <time>2019-11-01T13:42:48Z</time>
      </trkpt>
      <trkpt lat="43.93176" lon="6.41843">
        <ele>950.5</ele>
        <time>2019-11-01T13:42:51Z</time>
      </trkpt>
      <trkpt lat="43.93179" lon="6.41842">
        <ele>950.6</ele>
        <time>2019-11-01T13:42:52Z</time>
      </trkpt>
      <trkpt lat="43.93183" lon="6.41841">
        <ele>951.1</ele>
        <time>2019-11-01T13:42:55Z</time>
      </trkpt>
      <trkpt lat="43.93187" lon="6.4184">
        <ele>951.8</ele>
        <time>2019-11-01T13:42:56Z</time>
      </trkpt>
      <trkpt lat="43.9319" lon="6.41837">
        <ele>952.7</ele>
        <time>2019-11-01T13:42:59Z</time>
      </trkpt>
      <trkpt lat="43.93194" lon="6.41834">
        <ele>953.3</ele>
        <time>2019-11-01T13:43:01Z</time>
      </trkpt>
      <trkpt lat="43.93197" lon="6.41832">
        <ele>953.9</ele>
        <time>2019-11-01T13:43:03Z</time>
      </trkpt>
      <trkpt lat="43.93203" lon="6.41831">
        <ele>955.1</ele>
        <time>2019-11-01T13:43:05Z</time>
      </trkpt>
      <trkpt lat="43.93206" lon="6.4183">
        <ele>955.7</ele>
        <time>2019-11-01T13:43:07Z</time>
      </trkpt>
      <trkpt lat="43.93211" lon="6.41829">
        <ele>956.8</ele>
        <time>2019-11-01T13:43:09Z</time>
      </trkpt>
      <trkpt lat="43.93216" lon="6.41829">
        <ele>958.1</ele>
        <time>2019-11-01T13:43:12Z</time>
      </trkpt>
      <trkpt lat="43.93219" lon="6.41828">
        <ele>959.2</ele>
        <time>2019-11-01T13:43:14Z</time>
      </trkpt>
      <trkpt lat="43.93222" lon="6.41828">
        <ele>960.3</ele>
        <time>2019-11-01T13:43:15Z</time>
      </trkpt>
      <trkpt lat="43.93227" lon="6.41828">
        <ele>961.4</ele>
        <time>2019-11-01T13:43:17Z</time>
      </trkpt>
      <trkpt lat="43.93232" lon="6.41828">
        <ele>962.4</ele>
        <time>2019-11-01T13:43:20Z</time>
      </trkpt>
      <trkpt lat="43.93237" lon="6.41827">
        <ele>963.5</ele>
        <time>2019-11-01T13:43:23Z</time>
      </trkpt>
      <trkpt lat="43.93242" lon="6.41827">
        <ele>964.6</ele>
        <time>2019-11-01T13:43:25Z</time>
      </trkpt>
      <trkpt lat="43.93247" lon="6.41827">
        <ele>966</ele>
        <time>2019-11-01T13:43:28Z</time>
      </trkpt>
      <trkpt lat="43.93251" lon="6.41828">
        <ele>967.1</ele>
        <time>2019-11-01T13:43:29Z</time>
      </trkpt>
      <trkpt lat="43.93254" lon="6.41829">
        <ele>967.7</ele>
        <time>2019-11-01T13:43:31Z</time>
      </trkpt>
      <trkpt lat="43.93258" lon="6.41831">
        <ele>968.7</ele>
        <time>2019-11-01T13:43:33Z</time>
      </trkpt>
      <trkpt lat="43.93263" lon="6.41834">
        <ele>970.1</ele>
        <time>2019-11-01T13:43:35Z</time>
      </trkpt>
      <trkpt lat="43.93265" lon="6.41836">
        <ele>970.6</ele>
        <time>2019-11-01T13:43:37Z</time>
      </trkpt>
      <trkpt lat="43.93268" lon="6.4184">
        <ele>970.9</ele>
        <time>2019-11-01T13:43:39Z</time>
      </trkpt>
      <trkpt lat="43.93271" lon="6.41843">
        <ele>970.6</ele>
        <time>2019-11-01T13:43:40Z</time>
      </trkpt>
      <trkpt lat="43.93274" lon="6.41846">
        <ele>970.7</ele>
        <time>2019-11-01T13:43:41Z</time>
      </trkpt>
      <trkpt lat="43.93278" lon="6.41852">
        <ele>971.5</ele>
        <time>2019-11-01T13:43:44Z</time>
      </trkpt>
      <trkpt lat="43.9328" lon="6.41855">
        <ele>972.2</ele>
        <time>2019-11-01T13:43:46Z</time>
      </trkpt>
      <trkpt lat="43.93283" lon="6.4186">
        <ele>973.1</ele>
        <time>2019-11-01T13:43:48Z</time>
      </trkpt>
      <trkpt lat="43.93286" lon="6.41863">
        <ele>972.9</ele>
        <time>2019-11-01T13:43:50Z</time>
      </trkpt>
      <trkpt lat="43.93287" lon="6.41867">
        <ele>972.9</ele>
        <time>2019-11-01T13:43:51Z</time>
      </trkpt>
      <trkpt lat="43.9329" lon="6.4187">
        <ele>973.6</ele>
        <time>2019-11-01T13:43:53Z</time>
      </trkpt>
      <trkpt lat="43.93292" lon="6.41874">
        <ele>974.3</ele>
        <time>2019-11-01T13:43:54Z</time>
      </trkpt>
      <trkpt lat="43.93294" lon="6.41877">
        <ele>974.1</ele>
        <time>2019-11-01T13:43:56Z</time>
      </trkpt>
      <trkpt lat="43.93298" lon="6.41882">
        <ele>974.1</ele>
        <time>2019-11-01T13:43:58Z</time>
      </trkpt>
      <trkpt lat="43.93301" lon="6.41886">
        <ele>974.6</ele>
        <time>2019-11-01T13:44:00Z</time>
      </trkpt>
      <trkpt lat="43.93303" lon="6.41889">
        <ele>974.9</ele>
        <time>2019-11-01T13:44:02Z</time>
      </trkpt>
      <trkpt lat="43.93307" lon="6.41892">
        <ele>975.2</ele>
        <time>2019-11-01T13:44:04Z</time>
      </trkpt>
      <trkpt lat="43.93309" lon="6.41895">
        <ele>975.5</ele>
        <time>2019-11-01T13:44:05Z</time>
      </trkpt>
      <trkpt lat="43.93313" lon="6.419">
        <ele>976.4</ele>
        <time>2019-11-01T13:44:07Z</time>
      </trkpt>
      <trkpt lat="43.93316" lon="6.41903">
        <ele>976.9</ele>
        <time>2019-11-01T13:44:08Z</time>
      </trkpt>
      <trkpt lat="43.9332" lon="6.4191">
        <ele>977.1</ele>
        <time>2019-11-01T13:44:11Z</time>
      </trkpt>
      <trkpt lat="43.93322" lon="6.41913">
        <ele>977.2</ele>
        <time>2019-11-01T13:44:12Z</time>
      </trkpt>
      <trkpt lat="43.93326" lon="6.41917">
        <ele>977.4</ele>
        <time>2019-11-01T13:44:15Z</time>
      </trkpt>
      <trkpt lat="43.93328" lon="6.4192">
        <ele>977.5</ele>
        <time>2019-11-01T13:44:16Z</time>
      </trkpt>
      <trkpt lat="43.9333" lon="6.41924">
        <ele>977.6</ele>
        <time>2019-11-01T13:44:17Z</time>
      </trkpt>
      <trkpt lat="43.93334" lon="6.41928">
        <ele>977.7</ele>
        <time>2019-11-01T13:44:20Z</time>
      </trkpt>
      <trkpt lat="43.93339" lon="6.41935">
        <ele>977.7</ele>
        <time>2019-11-01T13:44:22Z</time>
      </trkpt>
      <trkpt lat="43.93343" lon="6.4194">
        <ele>978.1</ele>
        <time>2019-11-01T13:44:24Z</time>
      </trkpt>
      <trkpt lat="43.93345" lon="6.41942">
        <ele>978.4</ele>
        <time>2019-11-01T13:44:25Z</time>
      </trkpt>
      <trkpt lat="43.93347" lon="6.41945">
        <ele>978</ele>
        <time>2019-11-01T13:44:26Z</time>
      </trkpt>
      <trkpt lat="43.93351" lon="6.41952">
        <ele>977.3</ele>
        <time>2019-11-01T13:44:29Z</time>
      </trkpt>
      <trkpt lat="43.93355" lon="6.41959">
        <ele>976.5</ele>
        <time>2019-11-01T13:44:32Z</time>
      </trkpt>
      <trkpt lat="43.93359" lon="6.41963">
        <ele>976</ele>
        <time>2019-11-01T13:44:33Z</time>
      </trkpt>
      <trkpt lat="43.93362" lon="6.41967">
        <ele>975.5</ele>
        <time>2019-11-01T13:44:35Z</time>
      </trkpt>
      <trkpt lat="43.93366" lon="6.41971">
        <ele>974.5</ele>
        <time>2019-11-01T13:44:37Z</time>
      </trkpt>
      <trkpt lat="43.93369" lon="6.41974">
        <ele>973.7</ele>
        <time>2019-11-01T13:44:38Z</time>
      </trkpt>
      <trkpt lat="43.93371" lon="6.41978">
        <ele>973</ele>
        <time>2019-11-01T13:44:40Z</time>
      </trkpt>
      <trkpt lat="43.93375" lon="6.41982">
        <ele>972.1</ele>
        <time>2019-11-01T13:44:42Z</time>
      </trkpt>
      <trkpt lat="43.93377" lon="6.41984">
        <ele>971.8</ele>
        <time>2019-11-01T13:44:43Z</time>
      </trkpt>
      <trkpt lat="43.93379" lon="6.41986">
        <ele>971.8</ele>
        <time>2019-11-01T13:44:44Z</time>
      </trkpt>
      <trkpt lat="43.93383" lon="6.41991">
        <ele>971.9</ele>
        <time>2019-11-01T13:44:46Z</time>
      </trkpt>
      <trkpt lat="43.93387" lon="6.41995">
        <ele>971.7</ele>
        <time>2019-11-01T13:44:49Z</time>
      </trkpt>
      <trkpt lat="43.93392" lon="6.41997">
        <ele>971.5</ele>
        <time>2019-11-01T13:44:51Z</time>
      </trkpt>
      <trkpt lat="43.93396" lon="6.41999">
        <ele>971.2</ele>
        <time>2019-11-01T13:44:53Z</time>
      </trkpt>
      <trkpt lat="43.934" lon="6.42">
        <ele>971</ele>
        <time>2019-11-01T13:44:55Z</time>
      </trkpt>
      <trkpt lat="43.93405" lon="6.42002">
        <ele>970.8</ele>
        <time>2019-11-01T13:44:57Z</time>
      </trkpt>
      <trkpt lat="43.93408" lon="6.42003">
        <ele>970.8</ele>
        <time>2019-11-01T13:44:59Z</time>
      </trkpt>
      <trkpt lat="43.93412" lon="6.42005">
        <ele>970.8</ele>
        <time>2019-11-01T13:45:01Z</time>
      </trkpt>
      <trkpt lat="43.93417" lon="6.42008">
        <ele>970.6</ele>
        <time>2019-11-01T13:45:04Z</time>
      </trkpt>
      <trkpt lat="43.93421" lon="6.4201">
        <ele>970.5</ele>
        <time>2019-11-01T13:45:05Z</time>
      </trkpt>
      <trkpt lat="43.93426" lon="6.42012">
        <ele>970.6</ele>
        <time>2019-11-01T13:45:08Z</time>
      </trkpt>
      <trkpt lat="43.93429" lon="6.42014">
        <ele>970.4</ele>
        <time>2019-11-01T13:45:09Z</time>
      </trkpt>
      <trkpt lat="43.93433" lon="6.42017">
        <ele>970</ele>
        <time>2019-11-01T13:45:13Z</time>
      </trkpt>
      <trkpt lat="43.93437" lon="6.42018">
        <ele>969.6</ele>
        <time>2019-11-01T13:45:14Z</time>
      </trkpt>
      <trkpt lat="43.9344" lon="6.42018">
        <ele>969.3</ele>
        <time>2019-11-01T13:45:15Z</time>
      </trkpt>
      <trkpt lat="43.93445" lon="6.42018">
        <ele>970.4</ele>
        <time>2019-11-01T13:45:18Z</time>
      </trkpt>
      <trkpt lat="43.93449" lon="6.42019">
        <ele>971.4</ele>
        <time>2019-11-01T13:45:20Z</time>
      </trkpt>
      <trkpt lat="43.93452" lon="6.42019">
        <ele>971.8</ele>
        <time>2019-11-01T13:45:21Z</time>
      </trkpt>
      <trkpt lat="43.93458" lon="6.42019">
        <ele>972.3</ele>
        <time>2019-11-01T13:45:24Z</time>
      </trkpt>
      <trkpt lat="43.93463" lon="6.42017">
        <ele>973.7</ele>
        <time>2019-11-01T13:45:27Z</time>
      </trkpt>
      <trkpt lat="43.93468" lon="6.42015">
        <ele>974.5</ele>
        <time>2019-11-01T13:45:29Z</time>
      </trkpt>
      <trkpt lat="43.93472" lon="6.42013">
        <ele>974.8</ele>
        <time>2019-11-01T13:45:32Z</time>
      </trkpt>
      <trkpt lat="43.93478" lon="6.42012">
        <ele>975.1</ele>
        <time>2019-11-01T13:45:34Z</time>
      </trkpt>
      <trkpt lat="43.93482" lon="6.4201">
        <ele>975.4</ele>
        <time>2019-11-01T13:45:36Z</time>
      </trkpt>
      <trkpt lat="43.93486" lon="6.42009">
        <ele>976.5</ele>
        <time>2019-11-01T13:45:38Z</time>
      </trkpt>
      <trkpt lat="43.93489" lon="6.42008">
        <ele>977.1</ele>
        <time>2019-11-01T13:45:39Z</time>
      </trkpt>
      <trkpt lat="43.93493" lon="6.42007">
        <ele>977.3</ele>
        <time>2019-11-01T13:45:41Z</time>
      </trkpt>
      <trkpt lat="43.93497" lon="6.42007">
        <ele>977.4</ele>
        <time>2019-11-01T13:45:43Z</time>
      </trkpt>
      <trkpt lat="43.93502" lon="6.42006">
        <ele>977.5</ele>
        <time>2019-11-01T13:45:45Z</time>
      </trkpt>
      <trkpt lat="43.93506" lon="6.42006">
        <ele>977.6</ele>
        <time>2019-11-01T13:45:46Z</time>
      </trkpt>
      <trkpt lat="43.93511" lon="6.42006">
        <ele>977.6</ele>
        <time>2019-11-01T13:45:49Z</time>
      </trkpt>
      <trkpt lat="43.93516" lon="6.42006">
        <ele>977.7</ele>
        <time>2019-11-01T13:45:51Z</time>
      </trkpt>
      <trkpt lat="43.93523" lon="6.42007">
        <ele>977.7</ele>
        <time>2019-11-01T13:45:54Z</time>
      </trkpt>
      <trkpt lat="43.93525" lon="6.42007">
        <ele>977.7</ele>
        <time>2019-11-01T13:45:55Z</time>
      </trkpt>
      <trkpt lat="43.93529" lon="6.42007">
        <ele>977.8</ele>
        <time>2019-11-01T13:45:57Z</time>
      </trkpt>
      <trkpt lat="43.93534" lon="6.42007">
        <ele>977.8</ele>
        <time>2019-11-01T13:45:59Z</time>
      </trkpt>
      <trkpt lat="43.93538" lon="6.42007">
        <ele>977.9</ele>
        <time>2019-11-01T13:46:00Z</time>
      </trkpt>
      <trkpt lat="43.93545" lon="6.42007">
        <ele>978.1</ele>
        <time>2019-11-01T13:46:03Z</time>
      </trkpt>
      <trkpt lat="43.93552" lon="6.42006">
        <ele>978.6</ele>
        <time>2019-11-01T13:46:07Z</time>
      </trkpt>
      <trkpt lat="43.93558" lon="6.42004">
        <ele>979.8</ele>
        <time>2019-11-01T13:46:09Z</time>
      </trkpt>
      <trkpt lat="43.93564" lon="6.41999">
        <ele>981.7</ele>
        <time>2019-11-01T13:46:13Z</time>
      </trkpt>
      <trkpt lat="43.93569" lon="6.41996">
        <ele>982.9</ele>
        <time>2019-11-01T13:46:15Z</time>
      </trkpt>
      <trkpt lat="43.93573" lon="6.41992">
        <ele>984.2</ele>
        <time>2019-11-01T13:46:17Z</time>
      </trkpt>
      <trkpt lat="43.93576" lon="6.41989">
        <ele>985.4</ele>
        <time>2019-11-01T13:46:18Z</time>
      </trkpt>
      <trkpt lat="43.9358" lon="6.41985">
        <ele>987.2</ele>
        <time>2019-11-01T13:46:20Z</time>
      </trkpt>
      <trkpt lat="43.93584" lon="6.41979">
        <ele>989.7</ele>
        <time>2019-11-01T13:46:23Z</time>
      </trkpt>
      <trkpt lat="43.93587" lon="6.41976">
        <ele>990.8</ele>
        <time>2019-11-01T13:46:24Z</time>
      </trkpt>
      <trkpt lat="43.93589" lon="6.41972">
        <ele>991.8</ele>
        <time>2019-11-01T13:46:26Z</time>
      </trkpt>
      <trkpt lat="43.93593" lon="6.41967">
        <ele>993.5</ele>
        <time>2019-11-01T13:46:29Z</time>
      </trkpt>
      <trkpt lat="43.93597" lon="6.41964">
        <ele>995.2</ele>
        <time>2019-11-01T13:46:30Z</time>
      </trkpt>
      <trkpt lat="43.93599" lon="6.41962">
        <ele>996.3</ele>
        <time>2019-11-01T13:46:32Z</time>
      </trkpt>
      <trkpt lat="43.93604" lon="6.41957">
        <ele>998.8</ele>
        <time>2019-11-01T13:46:35Z</time>
      </trkpt>
      <trkpt lat="43.93607" lon="6.41954">
        <ele>1000.1</ele>
        <time>2019-11-01T13:46:36Z</time>
      </trkpt>
      <trkpt lat="43.93611" lon="6.41951">
        <ele>1001.8</ele>
        <time>2019-11-01T13:46:39Z</time>
      </trkpt>
      <trkpt lat="43.93614" lon="6.41949">
        <ele>1003</ele>
        <time>2019-11-01T13:46:40Z</time>
      </trkpt>
      <trkpt lat="43.93617" lon="6.41947">
        <ele>1003.9</ele>
        <time>2019-11-01T13:46:42Z</time>
      </trkpt>
      <trkpt lat="43.93621" lon="6.41945">
        <ele>1005.3</ele>
        <time>2019-11-01T13:46:43Z</time>
      </trkpt>
      <trkpt lat="43.93624" lon="6.41943">
        <ele>1006.3</ele>
        <time>2019-11-01T13:46:45Z</time>
      </trkpt>
      <trkpt lat="43.93627" lon="6.41942">
        <ele>1007.3</ele>
        <time>2019-11-01T13:46:47Z</time>
      </trkpt>
      <trkpt lat="43.93631" lon="6.41939">
        <ele>1008.7</ele>
        <time>2019-11-01T13:46:49Z</time>
      </trkpt>
      <trkpt lat="43.93634" lon="6.41938">
        <ele>1010.1</ele>
        <time>2019-11-01T13:46:50Z</time>
      </trkpt>
      <trkpt lat="43.93637" lon="6.41936">
        <ele>1011.5</ele>
        <time>2019-11-01T13:46:52Z</time>
      </trkpt>
      <trkpt lat="43.93641" lon="6.41935">
        <ele>1013.3</ele>
        <time>2019-11-01T13:46:53Z</time>
      </trkpt>
      <trkpt lat="43.93645" lon="6.41935">
        <ele>1014.4</ele>
        <time>2019-11-01T13:46:55Z</time>
      </trkpt>
      <trkpt lat="43.93647" lon="6.41935">
        <ele>1014.9</ele>
        <time>2019-11-01T13:46:57Z</time>
      </trkpt>
      <trkpt lat="43.93651" lon="6.41937">
        <ele>1015.3</ele>
        <time>2019-11-01T13:46:58Z</time>
      </trkpt>
      <trkpt lat="43.93657" lon="6.41943">
        <ele>1015</ele>
        <time>2019-11-01T13:47:02Z</time>
      </trkpt>
      <trkpt lat="43.93661" lon="6.41947">
        <ele>1014.2</ele>
        <time>2019-11-01T13:47:04Z</time>
      </trkpt>
      <trkpt lat="43.93663" lon="6.4195">
        <ele>1013.7</ele>
        <time>2019-11-01T13:47:05Z</time>
      </trkpt>
      <trkpt lat="43.93665" lon="6.41952">
        <ele>1012.9</ele>
        <time>2019-11-01T13:47:06Z</time>
      </trkpt>
      <trkpt lat="43.93668" lon="6.41955">
        <ele>1011.8</ele>
        <time>2019-11-01T13:47:08Z</time>
      </trkpt>
      <trkpt lat="43.93671" lon="6.41961">
        <ele>1010.3</ele>
        <time>2019-11-01T13:47:10Z</time>
      </trkpt>
      <trkpt lat="43.93674" lon="6.41969">
        <ele>1008.9</ele>
        <time>2019-11-01T13:47:12Z</time>
      </trkpt>
      <trkpt lat="43.93677" lon="6.41977">
        <ele>1007.8</ele>
        <time>2019-11-01T13:47:15Z</time>
      </trkpt>
      <trkpt lat="43.93681" lon="6.41984">
        <ele>1006.3</ele>
        <time>2019-11-01T13:47:18Z</time>
      </trkpt>
      <trkpt lat="43.93686" lon="6.4199">
        <ele>1005.4</ele>
        <time>2019-11-01T13:47:21Z</time>
      </trkpt>
      <trkpt lat="43.93689" lon="6.41996">
        <ele>1004.3</ele>
        <time>2019-11-01T13:47:24Z</time>
      </trkpt>
      <trkpt lat="43.93691" lon="6.42005">
        <ele>1002.8</ele>
        <time>2019-11-01T13:47:26Z</time>
      </trkpt>
      <trkpt lat="43.93691" lon="6.42011">
        <ele>1001.8</ele>
        <time>2019-11-01T13:47:28Z</time>
      </trkpt>
      <trkpt lat="43.93691" lon="6.42015">
        <ele>1001</ele>
        <time>2019-11-01T13:47:29Z</time>
      </trkpt>
      <trkpt lat="43.93691" lon="6.4202">
        <ele>1000.2</ele>
        <time>2019-11-01T13:47:30Z</time>
      </trkpt>
      <trkpt lat="43.93691" lon="6.42024">
        <ele>999.6</ele>
        <time>2019-11-01T13:47:31Z</time>
      </trkpt>
      <trkpt lat="43.93693" lon="6.42028">
        <ele>999</ele>
        <time>2019-11-01T13:47:32Z</time>
      </trkpt>
      <trkpt lat="43.93696" lon="6.4203">
        <ele>998.5</ele>
        <time>2019-11-01T13:47:34Z</time>
      </trkpt>
      <trkpt lat="43.93698" lon="6.42033">
        <ele>998.4</ele>
        <time>2019-11-01T13:47:35Z</time>
      </trkpt>
      <trkpt lat="43.93704" lon="6.42038">
        <ele>998.3</ele>
        <time>2019-11-01T13:47:37Z</time>
      </trkpt>
      <trkpt lat="43.93707" lon="6.4204">
        <ele>998.2</ele>
        <time>2019-11-01T13:47:39Z</time>
      </trkpt>
      <trkpt lat="43.93712" lon="6.42044">
        <ele>997.4</ele>
        <time>2019-11-01T13:47:41Z</time>
      </trkpt>
      <trkpt lat="43.93714" lon="6.42047">
        <ele>997</ele>
        <time>2019-11-01T13:47:42Z</time>
      </trkpt>
      <trkpt lat="43.93717" lon="6.42051">
        <ele>996.7</ele>
        <time>2019-11-01T13:47:43Z</time>
      </trkpt>
      <trkpt lat="43.93719" lon="6.42055">
        <ele>996.3</ele>
        <time>2019-11-01T13:47:44Z</time>
      </trkpt>
      <trkpt lat="43.9372" lon="6.4206">
        <ele>995.7</ele>
        <time>2019-11-01T13:47:45Z</time>
      </trkpt>
      <trkpt lat="43.93722" lon="6.42066">
        <ele>995</ele>
        <time>2019-11-01T13:47:47Z</time>
      </trkpt>
      <trkpt lat="43.93722" lon="6.42072">
        <ele>994.1</ele>
        <time>2019-11-01T13:47:48Z</time>
      </trkpt>
      <trkpt lat="43.93722" lon="6.42081">
        <ele>992.5</ele>
        <time>2019-11-01T13:47:50Z</time>
      </trkpt>
      <trkpt lat="43.93722" lon="6.42086">
        <ele>992.1</ele>
        <time>2019-11-01T13:47:51Z</time>
      </trkpt>
      <trkpt lat="43.93722" lon="6.4209">
        <ele>991.7</ele>
        <time>2019-11-01T13:47:53Z</time>
      </trkpt>
      <trkpt lat="43.93721" lon="6.42095">
        <ele>991.1</ele>
        <time>2019-11-01T13:47:54Z</time>
      </trkpt>
      <trkpt lat="43.93721" lon="6.42102">
        <ele>990.6</ele>
        <time>2019-11-01T13:47:56Z</time>
      </trkpt>
      <trkpt lat="43.93721" lon="6.42106">
        <ele>990.2</ele>
        <time>2019-11-01T13:47:57Z</time>
      </trkpt>
      <trkpt lat="43.93721" lon="6.4211">
        <ele>989.7</ele>
        <time>2019-11-01T13:47:58Z</time>
      </trkpt>
      <trkpt lat="43.93722" lon="6.42114">
        <ele>989.3</ele>
        <time>2019-11-01T13:47:59Z</time>
      </trkpt>
      <trkpt lat="43.93723" lon="6.4212">
        <ele>988.6</ele>
        <time>2019-11-01T13:48:00Z</time>
      </trkpt>
      <trkpt lat="43.93727" lon="6.42124">
        <ele>988</ele>
        <time>2019-11-01T13:48:03Z</time>
      </trkpt>
      <trkpt lat="43.9373" lon="6.42125">
        <ele>987.8</ele>
        <time>2019-11-01T13:48:05Z</time>
      </trkpt>
      <trkpt lat="43.93731" lon="6.42116">
        <ele>988.6</ele>
        <time>2019-11-01T13:49:03Z</time>
      </trkpt>
      <trkpt lat="43.93731" lon="6.42111">
        <ele>988.9</ele>
        <time>2019-11-01T13:49:05Z</time>
      </trkpt>
      <trkpt lat="43.93731" lon="6.42107">
        <ele>989.2</ele>
        <time>2019-11-01T13:49:07Z</time>
      </trkpt>
      <trkpt lat="43.93731" lon="6.42101">
        <ele>989.6</ele>
        <time>2019-11-01T13:49:10Z</time>
      </trkpt>
      <trkpt lat="43.9373" lon="6.42097">
        <ele>990.1</ele>
        <time>2019-11-01T13:49:12Z</time>
      </trkpt>
      <trkpt lat="43.93732" lon="6.42092">
        <ele>990.7</ele>
        <time>2019-11-01T13:49:15Z</time>
      </trkpt>
      <trkpt lat="43.93732" lon="6.42086">
        <ele>991.7</ele>
        <time>2019-11-01T13:49:27Z</time>
      </trkpt>
      <trkpt lat="43.93731" lon="6.42082">
        <ele>992.4</ele>
        <time>2019-11-01T13:49:28Z</time>
      </trkpt>
      <trkpt lat="43.93732" lon="6.42077">
        <ele>993.1</ele>
        <time>2019-11-01T13:49:29Z</time>
      </trkpt>
      <trkpt lat="43.93731" lon="6.42069">
        <ele>994.1</ele>
        <time>2019-11-01T13:49:32Z</time>
      </trkpt>
      <trkpt lat="43.9373" lon="6.42062">
        <ele>995.1</ele>
        <time>2019-11-01T13:49:34Z</time>
      </trkpt>
      <trkpt lat="43.9373" lon="6.42058">
        <ele>995.7</ele>
        <time>2019-11-01T13:49:36Z</time>
      </trkpt>
      <trkpt lat="43.93729" lon="6.42053">
        <ele>996.4</ele>
        <time>2019-11-01T13:49:38Z</time>
      </trkpt>
      <trkpt lat="43.93728" lon="6.42048">
        <ele>997.4</ele>
        <time>2019-11-01T13:49:39Z</time>
      </trkpt>
      <trkpt lat="43.93727" lon="6.42044">
        <ele>998.2</ele>
        <time>2019-11-01T13:49:40Z</time>
      </trkpt>
      <trkpt lat="43.93725" lon="6.42038">
        <ele>999.4</ele>
        <time>2019-11-01T13:49:42Z</time>
      </trkpt>
      <trkpt lat="43.93722" lon="6.42031">
        <ele>1000.5</ele>
        <time>2019-11-01T13:49:46Z</time>
      </trkpt>
      <trkpt lat="43.9372" lon="6.42024">
        <ele>1001.5</ele>
        <time>2019-11-01T13:49:48Z</time>
      </trkpt>
      <trkpt lat="43.93717" lon="6.4202">
        <ele>1002.4</ele>
        <time>2019-11-01T13:49:49Z</time>
      </trkpt>
      <trkpt lat="43.93715" lon="6.42012">
        <ele>1003.9</ele>
        <time>2019-11-01T13:49:52Z</time>
      </trkpt>
      <trkpt lat="43.93715" lon="6.42008">
        <ele>1004.9</ele>
        <time>2019-11-01T13:49:54Z</time>
      </trkpt>
      <trkpt lat="43.93713" lon="6.42002">
        <ele>1006.5</ele>
        <time>2019-11-01T13:49:56Z</time>
      </trkpt>
      <trkpt lat="43.93712" lon="6.41997">
        <ele>1007.5</ele>
        <time>2019-11-01T13:49:58Z</time>
      </trkpt>
      <trkpt lat="43.9371" lon="6.41991">
        <ele>1008.6</ele>
        <time>2019-11-01T13:50:01Z</time>
      </trkpt>
      <trkpt lat="43.93709" lon="6.41987">
        <ele>1009.6</ele>
        <time>2019-11-01T13:50:03Z</time>
      </trkpt>
      <trkpt lat="43.93707" lon="6.41983">
        <ele>1011.1</ele>
        <time>2019-11-01T13:50:05Z</time>
      </trkpt>
      <trkpt lat="43.93706" lon="6.41979">
        <ele>1012.2</ele>
        <time>2019-11-01T13:50:06Z</time>
      </trkpt>
      <trkpt lat="43.93706" lon="6.41973">
        <ele>1013.9</ele>
        <time>2019-11-01T13:50:09Z</time>
      </trkpt>
      <trkpt lat="43.93708" lon="6.4197">
        <ele>1015.1</ele>
        <time>2019-11-01T13:50:10Z</time>
      </trkpt>
      <trkpt lat="43.93711" lon="6.4197">
        <ele>1015.1</ele>
        <time>2019-11-01T13:50:12Z</time>
      </trkpt>
      <trkpt lat="43.93714" lon="6.41974">
        <ele>1014.3</ele>
        <time>2019-11-01T13:50:14Z</time>
      </trkpt>
      <trkpt lat="43.93716" lon="6.41978">
        <ele>1013.6</ele>
        <time>2019-11-01T13:50:16Z</time>
      </trkpt>
      <trkpt lat="43.93718" lon="6.41981">
        <ele>1013</ele>
        <time>2019-11-01T13:50:17Z</time>
      </trkpt>
      <trkpt lat="43.9372" lon="6.41984">
        <ele>1012.3</ele>
        <time>2019-11-01T13:50:19Z</time>
      </trkpt>
      <trkpt lat="43.93724" lon="6.41987">
        <ele>1011.5</ele>
        <time>2019-11-01T13:50:22Z</time>
      </trkpt>
      <trkpt lat="43.93727" lon="6.41991">
        <ele>1010.6</ele>
        <time>2019-11-01T13:50:24Z</time>
      </trkpt>
      <trkpt lat="43.9373" lon="6.41995">
        <ele>1010</ele>
        <time>2019-11-01T13:50:27Z</time>
      </trkpt>
      <trkpt lat="43.93733" lon="6.42">
        <ele>1009.6</ele>
        <time>2019-11-01T13:50:30Z</time>
      </trkpt>
      <trkpt lat="43.93735" lon="6.42002">
        <ele>1009.1</ele>
        <time>2019-11-01T13:50:31Z</time>
      </trkpt>
      <trkpt lat="43.93739" lon="6.42005">
        <ele>1007.9</ele>
        <time>2019-11-01T13:50:34Z</time>
      </trkpt>
      <trkpt lat="43.93742" lon="6.42009">
        <ele>1006.9</ele>
        <time>2019-11-01T13:50:37Z</time>
      </trkpt>
      <trkpt lat="43.93744" lon="6.42014">
        <ele>1006</ele>
        <time>2019-11-01T13:50:40Z</time>
      </trkpt>
      <trkpt lat="43.93749" lon="6.42016">
        <ele>1005.4</ele>
        <time>2019-11-01T13:50:43Z</time>
      </trkpt>
      <trkpt lat="43.93754" lon="6.42016">
        <ele>1005.3</ele>
        <time>2019-11-01T13:50:46Z</time>
      </trkpt>
      <trkpt lat="43.93759" lon="6.42015">
        <ele>1005.2</ele>
        <time>2019-11-01T13:50:48Z</time>
      </trkpt>
      <trkpt lat="43.93765" lon="6.42014">
        <ele>1005.2</ele>
        <time>2019-11-01T13:50:51Z</time>
      </trkpt>
      <trkpt lat="43.93769" lon="6.42012">
        <ele>1005.1</ele>
        <time>2019-11-01T13:50:54Z</time>
      </trkpt>
      <trkpt lat="43.93773" lon="6.4201">
        <ele>1005.7</ele>
        <time>2019-11-01T13:50:56Z</time>
      </trkpt>
      <trkpt lat="43.93776" lon="6.42009">
        <ele>1006.1</ele>
        <time>2019-11-01T13:50:58Z</time>
      </trkpt>
      <trkpt lat="43.93779" lon="6.42008">
        <ele>1006.4</ele>
        <time>2019-11-01T13:51:00Z</time>
      </trkpt>
      <trkpt lat="43.93783" lon="6.42005">
        <ele>1007.1</ele>
        <time>2019-11-01T13:51:02Z</time>
      </trkpt>
      <trkpt lat="43.93786" lon="6.42003">
        <ele>1007.6</ele>
        <time>2019-11-01T13:51:04Z</time>
      </trkpt>
      <trkpt lat="43.93789" lon="6.42001">
        <ele>1008.7</ele>
        <time>2019-11-01T13:51:05Z</time>
      </trkpt>
      <trkpt lat="43.93792" lon="6.41999">
        <ele>1009.8</ele>
        <time>2019-11-01T13:51:08Z</time>
      </trkpt>
      <trkpt lat="43.93796" lon="6.41997">
        <ele>1010.9</ele>
        <time>2019-11-01T13:51:10Z</time>
      </trkpt>
      <trkpt lat="43.938" lon="6.41996">
        <ele>1011.7</ele>
        <time>2019-11-01T13:51:13Z</time>
      </trkpt>
      <trkpt lat="43.93804" lon="6.41994">
        <ele>1012.5</ele>
        <time>2019-11-01T13:51:15Z</time>
      </trkpt>
      <trkpt lat="43.93807" lon="6.41992">
        <ele>1013.3</ele>
        <time>2019-11-01T13:51:17Z</time>
      </trkpt>
      <trkpt lat="43.9381" lon="6.41989">
        <ele>1014.1</ele>
        <time>2019-11-01T13:51:20Z</time>
      </trkpt>
      <trkpt lat="43.93814" lon="6.41987">
        <ele>1015</ele>
        <time>2019-11-01T13:51:23Z</time>
      </trkpt>
      <trkpt lat="43.93818" lon="6.41984">
        <ele>1015.8</ele>
        <time>2019-11-01T13:51:25Z</time>
      </trkpt>
      <trkpt lat="43.93822" lon="6.41981">
        <ele>1016.6</ele>
        <time>2019-11-01T13:51:28Z</time>
      </trkpt>
      <trkpt lat="43.93826" lon="6.41979">
        <ele>1017.2</ele>
        <time>2019-11-01T13:51:31Z</time>
      </trkpt>
      <trkpt lat="43.93829" lon="6.41976">
        <ele>1017.7</ele>
        <time>2019-11-01T13:51:33Z</time>
      </trkpt>
      <trkpt lat="43.93832" lon="6.41975">
        <ele>1018.2</ele>
        <time>2019-11-01T13:51:35Z</time>
      </trkpt>
      <trkpt lat="43.93835" lon="6.41972">
        <ele>1018.6</ele>
        <time>2019-11-01T13:51:37Z</time>
      </trkpt>
      <trkpt lat="43.93838" lon="6.41968">
        <ele>1019.1</ele>
        <time>2019-11-01T13:51:40Z</time>
      </trkpt>
      <trkpt lat="43.9384" lon="6.41965">
        <ele>1019.5</ele>
        <time>2019-11-01T13:51:41Z</time>
      </trkpt>
      <trkpt lat="43.93843" lon="6.41963">
        <ele>1020.4</ele>
        <time>2019-11-01T13:51:43Z</time>
      </trkpt>
      <trkpt lat="43.93847" lon="6.4196">
        <ele>1021.6</ele>
        <time>2019-11-01T13:51:46Z</time>
      </trkpt>
      <trkpt lat="43.93849" lon="6.41957">
        <ele>1022.2</ele>
        <time>2019-11-01T13:51:48Z</time>
      </trkpt>
      <trkpt lat="43.93853" lon="6.41953">
        <ele>1022.9</ele>
        <time>2019-11-01T13:51:51Z</time>
      </trkpt>
      <trkpt lat="43.93856" lon="6.41951">
        <ele>1023.3</ele>
        <time>2019-11-01T13:51:52Z</time>
      </trkpt>
      <trkpt lat="43.93859" lon="6.41948">
        <ele>1023.9</ele>
        <time>2019-11-01T13:51:55Z</time>
      </trkpt>
      <trkpt lat="43.93863" lon="6.41946">
        <ele>1024.5</ele>
        <time>2019-11-01T13:51:58Z</time>
      </trkpt>
      <trkpt lat="43.93866" lon="6.41944">
        <ele>1025</ele>
        <time>2019-11-01T13:52:00Z</time>
      </trkpt>
      <trkpt lat="43.9387" lon="6.41942">
        <ele>1025.6</ele>
        <time>2019-11-01T13:52:03Z</time>
      </trkpt>
      <trkpt lat="43.93873" lon="6.41941">
        <ele>1026.1</ele>
        <time>2019-11-01T13:52:04Z</time>
      </trkpt>
      <trkpt lat="43.93876" lon="6.41939">
        <ele>1026.7</ele>
        <time>2019-11-01T13:52:07Z</time>
      </trkpt>
      <trkpt lat="43.93879" lon="6.41939">
        <ele>1027.1</ele>
        <time>2019-11-01T13:52:09Z</time>
      </trkpt>
      <trkpt lat="43.93884" lon="6.41939">
        <ele>1027.3</ele>
        <time>2019-11-01T13:52:12Z</time>
      </trkpt>
      <trkpt lat="43.93888" lon="6.41941">
        <ele>1027.4</ele>
        <time>2019-11-01T13:52:14Z</time>
      </trkpt>
      <trkpt lat="43.93891" lon="6.41944">
        <ele>1027.6</ele>
        <time>2019-11-01T13:52:17Z</time>
      </trkpt>
      <trkpt lat="43.93895" lon="6.41945">
        <ele>1027.8</ele>
        <time>2019-11-01T13:52:19Z</time>
      </trkpt>
      <trkpt lat="43.93899" lon="6.41946">
        <ele>1028.1</ele>
        <time>2019-11-01T13:52:21Z</time>
      </trkpt>
      <trkpt lat="43.93903" lon="6.41946">
        <ele>1028.4</ele>
        <time>2019-11-01T13:52:24Z</time>
      </trkpt>
      <trkpt lat="43.93906" lon="6.41947">
        <ele>1028.8</ele>
        <time>2019-11-01T13:52:26Z</time>
      </trkpt>
      <trkpt lat="43.93911" lon="6.41946">
        <ele>1029.2</ele>
        <time>2019-11-01T13:52:28Z</time>
      </trkpt>
      <trkpt lat="43.93914" lon="6.41947">
        <ele>1029.5</ele>
        <time>2019-11-01T13:52:30Z</time>
      </trkpt>
      <trkpt lat="43.93917" lon="6.41947">
        <ele>1029.8</ele>
        <time>2019-11-01T13:52:31Z</time>
      </trkpt>
      <trkpt lat="43.93921" lon="6.41947">
        <ele>1030.1</ele>
        <time>2019-11-01T13:52:35Z</time>
      </trkpt>
      <trkpt lat="43.93924" lon="6.41947">
        <ele>1030.4</ele>
        <time>2019-11-01T13:52:36Z</time>
      </trkpt>
      <trkpt lat="43.93928" lon="6.41947">
        <ele>1030.9</ele>
        <time>2019-11-01T13:52:39Z</time>
      </trkpt>
      <trkpt lat="43.93932" lon="6.41948">
        <ele>1031.4</ele>
        <time>2019-11-01T13:52:42Z</time>
      </trkpt>
      <trkpt lat="43.93935" lon="6.41947">
        <ele>1031.8</ele>
        <time>2019-11-01T13:52:44Z</time>
      </trkpt>
      <trkpt lat="43.9394" lon="6.41947">
        <ele>1032.2</ele>
        <time>2019-11-01T13:52:46Z</time>
      </trkpt>
      <trkpt lat="43.93944" lon="6.41948">
        <ele>1032.5</ele>
        <time>2019-11-01T13:52:49Z</time>
      </trkpt>
      <trkpt lat="43.93948" lon="6.41948">
        <ele>1032.9</ele>
        <time>2019-11-01T13:52:51Z</time>
      </trkpt>
      <trkpt lat="43.93951" lon="6.41948">
        <ele>1033.3</ele>
        <time>2019-11-01T13:52:52Z</time>
      </trkpt>
      <trkpt lat="43.93954" lon="6.41948">
        <ele>1033.5</ele>
        <time>2019-11-01T13:52:54Z</time>
      </trkpt>
      <trkpt lat="43.93958" lon="6.41947">
        <ele>1033.2</ele>
        <time>2019-11-01T13:52:56Z</time>
      </trkpt>
      <trkpt lat="43.93961" lon="6.41947">
        <ele>1033</ele>
        <time>2019-11-01T13:52:58Z</time>
      </trkpt>
      <trkpt lat="43.93964" lon="6.41947">
        <ele>1033.4</ele>
        <time>2019-11-01T13:52:59Z</time>
      </trkpt>
      <trkpt lat="43.93968" lon="6.41946">
        <ele>1034.6</ele>
        <time>2019-11-01T13:53:02Z</time>
      </trkpt>
      <trkpt lat="43.93973" lon="6.41943">
        <ele>1035.2</ele>
        <time>2019-11-01T13:53:05Z</time>
      </trkpt>
      <trkpt lat="43.93979" lon="6.41943">
        <ele>1035.5</ele>
        <time>2019-11-01T13:53:08Z</time>
      </trkpt>
      <trkpt lat="43.93983" lon="6.41943">
        <ele>1036.3</ele>
        <time>2019-11-01T13:53:11Z</time>
      </trkpt>
      <trkpt lat="43.93986" lon="6.41942">
        <ele>1036.8</ele>
        <time>2019-11-01T13:53:12Z</time>
      </trkpt>
      <trkpt lat="43.9399" lon="6.41941">
        <ele>1036.9</ele>
        <time>2019-11-01T13:53:15Z</time>
      </trkpt>
      <trkpt lat="43.93994" lon="6.4194">
        <ele>1036.8</ele>
        <time>2019-11-01T13:53:17Z</time>
      </trkpt>
      <trkpt lat="43.93998" lon="6.41939">
        <ele>1036.6</ele>
        <time>2019-11-01T13:53:19Z</time>
      </trkpt>
      <trkpt lat="43.94001" lon="6.41939">
        <ele>1036.3</ele>
        <time>2019-11-01T13:53:20Z</time>
      </trkpt>
      <trkpt lat="43.94005" lon="6.41939">
        <ele>1036.1</ele>
        <time>2019-11-01T13:53:23Z</time>
      </trkpt>
      <trkpt lat="43.94009" lon="6.41939">
        <ele>1036.2</ele>
        <time>2019-11-01T13:53:26Z</time>
      </trkpt>
      <trkpt lat="43.94014" lon="6.41939">
        <ele>1036.3</ele>
        <time>2019-11-01T13:53:29Z</time>
      </trkpt>
      <trkpt lat="43.94019" lon="6.41939">
        <ele>1036.4</ele>
        <time>2019-11-01T13:53:31Z</time>
      </trkpt>
      <trkpt lat="43.94023" lon="6.41936">
        <ele>1036.2</ele>
        <time>2019-11-01T13:53:34Z</time>
      </trkpt>
      <trkpt lat="43.94024" lon="6.41932">
        <ele>1035.9</ele>
        <time>2019-11-01T13:53:36Z</time>
      </trkpt>
      <trkpt lat="43.94023" lon="6.41926">
        <ele>1036</ele>
        <time>2019-11-01T13:53:39Z</time>
      </trkpt>
      <trkpt lat="43.94019" lon="6.41923">
        <ele>1036.9</ele>
        <time>2019-11-01T13:53:41Z</time>
      </trkpt>
      <trkpt lat="43.94015" lon="6.41923">
        <ele>1037.7</ele>
        <time>2019-11-01T13:53:43Z</time>
      </trkpt>
      <trkpt lat="43.9401" lon="6.41924">
        <ele>1039.2</ele>
        <time>2019-11-01T13:53:46Z</time>
      </trkpt>
      <trkpt lat="43.94007" lon="6.41924">
        <ele>1039.9</ele>
        <time>2019-11-01T13:53:48Z</time>
      </trkpt>
      <trkpt lat="43.94003" lon="6.41925">
        <ele>1040.3</ele>
        <time>2019-11-01T13:53:50Z</time>
      </trkpt>
      <trkpt lat="43.94" lon="6.41924">
        <ele>1040.7</ele>
        <time>2019-11-01T13:53:53Z</time>
      </trkpt>
      <trkpt lat="43.93997" lon="6.41922">
        <ele>1041.2</ele>
        <time>2019-11-01T13:53:54Z</time>
      </trkpt>
      <trkpt lat="43.93993" lon="6.41921">
        <ele>1042</ele>
        <time>2019-11-01T13:53:57Z</time>
      </trkpt>
      <trkpt lat="43.93989" lon="6.4192">
        <ele>1042.7</ele>
        <time>2019-11-01T13:53:59Z</time>
      </trkpt>
      <trkpt lat="43.93984" lon="6.41918">
        <ele>1042.8</ele>
        <time>2019-11-01T13:54:03Z</time>
      </trkpt>
      <trkpt lat="43.93979" lon="6.41916">
        <ele>1042.9</ele>
        <time>2019-11-01T13:54:05Z</time>
      </trkpt>
      <trkpt lat="43.93976" lon="6.41916">
        <ele>1042.9</ele>
        <time>2019-11-01T13:54:08Z</time>
      </trkpt>
      <trkpt lat="43.93972" lon="6.41915">
        <ele>1043</ele>
        <time>2019-11-01T13:54:10Z</time>
      </trkpt>
      <trkpt lat="43.93969" lon="6.41914">
        <ele>1043.5</ele>
        <time>2019-11-01T13:54:12Z</time>
      </trkpt>
      <trkpt lat="43.93966" lon="6.41913">
        <ele>1043.9</ele>
        <time>2019-11-01T13:54:14Z</time>
      </trkpt>
      <trkpt lat="43.93962" lon="6.41912">
        <ele>1043.9</ele>
        <time>2019-11-01T13:54:17Z</time>
      </trkpt>
      <trkpt lat="43.93958" lon="6.4191">
        <ele>1043.6</ele>
        <time>2019-11-01T13:54:19Z</time>
      </trkpt>
      <trkpt lat="43.93954" lon="6.41909">
        <ele>1043.7</ele>
        <time>2019-11-01T13:54:22Z</time>
      </trkpt>
      <trkpt lat="43.93949" lon="6.41908">
        <ele>1044</ele>
        <time>2019-11-01T13:54:25Z</time>
      </trkpt>
      <trkpt lat="43.93946" lon="6.41907">
        <ele>1043.8</ele>
        <time>2019-11-01T13:54:27Z</time>
      </trkpt>
      <trkpt lat="43.9394" lon="6.41905">
        <ele>1043.3</ele>
        <time>2019-11-01T13:54:30Z</time>
      </trkpt>
      <trkpt lat="43.93936" lon="6.41904">
        <ele>1043.4</ele>
        <time>2019-11-01T13:54:33Z</time>
      </trkpt>
      <trkpt lat="43.93933" lon="6.41903">
        <ele>1043.4</ele>
        <time>2019-11-01T13:54:34Z</time>
      </trkpt>
      <trkpt lat="43.93929" lon="6.41901">
        <ele>1043.5</ele>
        <time>2019-11-01T13:54:37Z</time>
      </trkpt>
      <trkpt lat="43.93927" lon="6.419">
        <ele>1043.6</ele>
        <time>2019-11-01T13:54:39Z</time>
      </trkpt>
      <trkpt lat="43.93923" lon="6.41898">
        <ele>1043.6</ele>
        <time>2019-11-01T13:54:40Z</time>
      </trkpt>
      <trkpt lat="43.93919" lon="6.41897">
        <ele>1043.4</ele>
        <time>2019-11-01T13:54:43Z</time>
      </trkpt>
      <trkpt lat="43.93914" lon="6.41895">
        <ele>1042.8</ele>
        <time>2019-11-01T13:54:45Z</time>
      </trkpt>
      <trkpt lat="43.93911" lon="6.41893">
        <ele>1042.2</ele>
        <time>2019-11-01T13:54:48Z</time>
      </trkpt>
      <trkpt lat="43.93907" lon="6.41892">
        <ele>1041.8</ele>
        <time>2019-11-01T13:54:49Z</time>
      </trkpt>
      <trkpt lat="43.93902" lon="6.4189">
        <ele>1041.5</ele>
        <time>2019-11-01T13:54:52Z</time>
      </trkpt>
      <trkpt lat="43.93898" lon="6.41888">
        <ele>1041.4</ele>
        <time>2019-11-01T13:54:54Z</time>
      </trkpt>
      <trkpt lat="43.93893" lon="6.41886">
        <ele>1041.4</ele>
        <time>2019-11-01T13:54:57Z</time>
      </trkpt>
      <trkpt lat="43.9389" lon="6.41885">
        <ele>1040.8</ele>
        <time>2019-11-01T13:54:59Z</time>
      </trkpt>
      <trkpt lat="43.93885" lon="6.41883">
        <ele>1040.2</ele>
        <time>2019-11-01T13:55:01Z</time>
      </trkpt>
      <trkpt lat="43.93881" lon="6.41881">
        <ele>1040.3</ele>
        <time>2019-11-01T13:55:04Z</time>
      </trkpt>
      <trkpt lat="43.93877" lon="6.41879">
        <ele>1040.4</ele>
        <time>2019-11-01T13:55:06Z</time>
      </trkpt>
      <trkpt lat="43.93873" lon="6.41878">
        <ele>1040.3</ele>
        <time>2019-11-01T13:55:08Z</time>
      </trkpt>
      <trkpt lat="43.93868" lon="6.41877">
        <ele>1040.3</ele>
        <time>2019-11-01T13:55:10Z</time>
      </trkpt>
      <trkpt lat="43.93863" lon="6.41877">
        <ele>1040.5</ele>
        <time>2019-11-01T13:55:14Z</time>
      </trkpt>
      <trkpt lat="43.93857" lon="6.41876">
        <ele>1041.4</ele>
        <time>2019-11-01T13:55:17Z</time>
      </trkpt>
      <trkpt lat="43.93854" lon="6.41875">
        <ele>1042.3</ele>
        <time>2019-11-01T13:55:18Z</time>
      </trkpt>
      <trkpt lat="43.9385" lon="6.41876">
        <ele>1043</ele>
        <time>2019-11-01T13:55:20Z</time>
      </trkpt>
      <trkpt lat="43.93845" lon="6.41876">
        <ele>1043.6</ele>
        <time>2019-11-01T13:55:23Z</time>
      </trkpt>
      <trkpt lat="43.9384" lon="6.41876">
        <ele>1044.5</ele>
        <time>2019-11-01T13:55:25Z</time>
      </trkpt>
      <trkpt lat="43.93835" lon="6.41876">
        <ele>1045.2</ele>
        <time>2019-11-01T13:55:28Z</time>
      </trkpt>
      <trkpt lat="43.93831" lon="6.41876">
        <ele>1045.7</ele>
        <time>2019-11-01T13:55:29Z</time>
      </trkpt>
      <trkpt lat="43.93826" lon="6.41877">
        <ele>1046.5</ele>
        <time>2019-11-01T13:55:32Z</time>
      </trkpt>
      <trkpt lat="43.93823" lon="6.41878">
        <ele>1046.7</ele>
        <time>2019-11-01T13:55:34Z</time>
      </trkpt>
      <trkpt lat="43.93816" lon="6.41878">
        <ele>1047.2</ele>
        <time>2019-11-01T13:55:36Z</time>
      </trkpt>
      <trkpt lat="43.93812" lon="6.41878">
        <ele>1047.6</ele>
        <time>2019-11-01T13:55:39Z</time>
      </trkpt>
      <trkpt lat="43.93809" lon="6.41878">
        <ele>1047.9</ele>
        <time>2019-11-01T13:55:40Z</time>
      </trkpt>
      <trkpt lat="43.93806" lon="6.41878">
        <ele>1048.1</ele>
        <time>2019-11-01T13:55:41Z</time>
      </trkpt>
      <trkpt lat="43.93801" lon="6.41878">
        <ele>1048.4</ele>
        <time>2019-11-01T13:55:44Z</time>
      </trkpt>
      <trkpt lat="43.93798" lon="6.41877">
        <ele>1048.6</ele>
        <time>2019-11-01T13:55:46Z</time>
      </trkpt>
      <trkpt lat="43.93794" lon="6.41876">
        <ele>1048.8</ele>
        <time>2019-11-01T13:55:47Z</time>
      </trkpt>
      <trkpt lat="43.93789" lon="6.41875">
        <ele>1049.5</ele>
        <time>2019-11-01T13:55:50Z</time>
      </trkpt>
      <trkpt lat="43.93784" lon="6.41875">
        <ele>1050.4</ele>
        <time>2019-11-01T13:55:52Z</time>
      </trkpt>
      <trkpt lat="43.93781" lon="6.41874">
        <ele>1051.1</ele>
        <time>2019-11-01T13:55:53Z</time>
      </trkpt>
      <trkpt lat="43.93775" lon="6.41873">
        <ele>1052.3</ele>
        <time>2019-11-01T13:55:56Z</time>
      </trkpt>
      <trkpt lat="43.93772" lon="6.41871">
        <ele>1053</ele>
        <time>2019-11-01T13:55:58Z</time>
      </trkpt>
      <trkpt lat="43.93772" lon="6.41865">
        <ele>1053.8</ele>
        <time>2019-11-01T13:56:01Z</time>
      </trkpt>
      <trkpt lat="43.93774" lon="6.41861">
        <ele>1054.7</ele>
        <time>2019-11-01T13:56:03Z</time>
      </trkpt>
      <trkpt lat="43.93779" lon="6.41859">
        <ele>1055.7</ele>
        <time>2019-11-01T13:56:05Z</time>
      </trkpt>
      <trkpt lat="43.93783" lon="6.41861">
        <ele>1055.6</ele>
        <time>2019-11-01T13:56:07Z</time>
      </trkpt>
      <trkpt lat="43.93787" lon="6.41864">
        <ele>1055.5</ele>
        <time>2019-11-01T13:56:10Z</time>
      </trkpt>
      <trkpt lat="43.93791" lon="6.41865">
        <ele>1055.4</ele>
        <time>2019-11-01T13:56:13Z</time>
      </trkpt>
      <trkpt lat="43.93794" lon="6.41865">
        <ele>1055.3</ele>
        <time>2019-11-01T13:56:14Z</time>
      </trkpt>
      <trkpt lat="43.93796" lon="6.41865">
        <ele>1055.2</ele>
        <time>2019-11-01T13:56:16Z</time>
      </trkpt>
      <trkpt lat="43.938" lon="6.41865">
        <ele>1055.1</ele>
        <time>2019-11-01T13:56:17Z</time>
      </trkpt>
      <trkpt lat="43.93804" lon="6.41865">
        <ele>1054.9</ele>
        <time>2019-11-01T13:56:20Z</time>
      </trkpt>
      <trkpt lat="43.93808" lon="6.41864">
        <ele>1054.9</ele>
        <time>2019-11-01T13:56:23Z</time>
      </trkpt>
      <trkpt lat="43.93812" lon="6.41862">
        <ele>1054.7</ele>
        <time>2019-11-01T13:56:26Z</time>
      </trkpt>
      <trkpt lat="43.93817" lon="6.41861">
        <ele>1054.6</ele>
        <time>2019-11-01T13:56:28Z</time>
      </trkpt>
      <trkpt lat="43.9382" lon="6.4186">
        <ele>1055.2</ele>
        <time>2019-11-01T13:56:29Z</time>
      </trkpt>
      <trkpt lat="43.93824" lon="6.41859">
        <ele>1055.9</ele>
        <time>2019-11-01T13:56:32Z</time>
      </trkpt>
      <trkpt lat="43.93828" lon="6.41857">
        <ele>1055.6</ele>
        <time>2019-11-01T13:56:33Z</time>
      </trkpt>
      <trkpt lat="43.93833" lon="6.41855">
        <ele>1055.3</ele>
        <time>2019-11-01T13:56:36Z</time>
      </trkpt>
      <trkpt lat="43.93837" lon="6.41854">
        <ele>1055.8</ele>
        <time>2019-11-01T13:56:39Z</time>
      </trkpt>
      <trkpt lat="43.93841" lon="6.41853">
        <ele>1056</ele>
        <time>2019-11-01T13:56:41Z</time>
      </trkpt>
      <trkpt lat="43.93847" lon="6.41849">
        <ele>1056</ele>
        <time>2019-11-01T13:56:44Z</time>
      </trkpt>
      <trkpt lat="43.9385" lon="6.41848">
        <ele>1055.5</ele>
        <time>2019-11-01T13:56:45Z</time>
      </trkpt>
      <trkpt lat="43.93853" lon="6.41847">
        <ele>1055</ele>
        <time>2019-11-01T13:56:47Z</time>
      </trkpt>
      <trkpt lat="43.93857" lon="6.41846">
        <ele>1054.9</ele>
        <time>2019-11-01T13:56:49Z</time>
      </trkpt>
      <trkpt lat="43.9386" lon="6.41844">
        <ele>1054.9</ele>
        <time>2019-11-01T13:56:50Z</time>
      </trkpt>
      <trkpt lat="43.93865" lon="6.41843">
        <ele>1055.1</ele>
        <time>2019-11-01T13:56:53Z</time>
      </trkpt>
      <trkpt lat="43.93869" lon="6.41841">
        <ele>1055.5</ele>
        <time>2019-11-01T13:56:56Z</time>
      </trkpt>
      <trkpt lat="43.93872" lon="6.41839">
        <ele>1055.8</ele>
        <time>2019-11-01T13:56:57Z</time>
      </trkpt>
      <trkpt lat="43.93876" lon="6.41837">
        <ele>1056.2</ele>
        <time>2019-11-01T13:56:59Z</time>
      </trkpt>
      <trkpt lat="43.93879" lon="6.41836">
        <ele>1056.2</ele>
        <time>2019-11-01T13:57:01Z</time>
      </trkpt>
      <trkpt lat="43.93884" lon="6.41835">
        <ele>1056</ele>
        <time>2019-11-01T13:57:03Z</time>
      </trkpt>
      <trkpt lat="43.93887" lon="6.41835">
        <ele>1056.1</ele>
        <time>2019-11-01T13:57:05Z</time>
      </trkpt>
      <trkpt lat="43.93891" lon="6.41836">
        <ele>1056.1</ele>
        <time>2019-11-01T13:57:06Z</time>
      </trkpt>
      <trkpt lat="43.93897" lon="6.41835">
        <ele>1056.5</ele>
        <time>2019-11-01T13:57:09Z</time>
      </trkpt>
      <trkpt lat="43.939" lon="6.41835">
        <ele>1056.8</ele>
        <time>2019-11-01T13:57:10Z</time>
      </trkpt>
      <trkpt lat="43.93904" lon="6.41835">
        <ele>1057.6</ele>
        <time>2019-11-01T13:57:13Z</time>
      </trkpt>
      <trkpt lat="43.93907" lon="6.41836">
        <ele>1058.9</ele>
        <time>2019-11-01T13:57:15Z</time>
      </trkpt>
      <trkpt lat="43.93911" lon="6.41836">
        <ele>1059.9</ele>
        <time>2019-11-01T13:57:17Z</time>
      </trkpt>
      <trkpt lat="43.93916" lon="6.41836">
        <ele>1060.7</ele>
        <time>2019-11-01T13:57:20Z</time>
      </trkpt>
      <trkpt lat="43.93921" lon="6.41837">
        <ele>1061.5</ele>
        <time>2019-11-01T13:57:22Z</time>
      </trkpt>
      <trkpt lat="43.93925" lon="6.41837">
        <ele>1062</ele>
        <time>2019-11-01T13:57:24Z</time>
      </trkpt>
      <trkpt lat="43.93928" lon="6.41837">
        <ele>1062.4</ele>
        <time>2019-11-01T13:57:26Z</time>
      </trkpt>
      <trkpt lat="43.93933" lon="6.41837">
        <ele>1063.2</ele>
        <time>2019-11-01T13:57:28Z</time>
      </trkpt>
      <trkpt lat="43.93936" lon="6.41838">
        <ele>1063.8</ele>
        <time>2019-11-01T13:57:30Z</time>
      </trkpt>
      <trkpt lat="43.93939" lon="6.41838">
        <ele>1064.3</ele>
        <time>2019-11-01T13:57:31Z</time>
      </trkpt>
      <trkpt lat="43.93945" lon="6.41838">
        <ele>1065.3</ele>
        <time>2019-11-01T13:57:34Z</time>
      </trkpt>
      <trkpt lat="43.93947" lon="6.41838">
        <ele>1065.6</ele>
        <time>2019-11-01T13:57:35Z</time>
      </trkpt>
      <trkpt lat="43.93951" lon="6.41838">
        <ele>1066.1</ele>
        <time>2019-11-01T13:57:37Z</time>
      </trkpt>
      <trkpt lat="43.93955" lon="6.41838">
        <ele>1066.4</ele>
        <time>2019-11-01T13:57:38Z</time>
      </trkpt>
      <trkpt lat="43.93957" lon="6.41838">
        <ele>1066.6</ele>
        <time>2019-11-01T13:57:40Z</time>
      </trkpt>
      <trkpt lat="43.93963" lon="6.41836">
        <ele>1066.9</ele>
        <time>2019-11-01T13:57:43Z</time>
      </trkpt>
      <trkpt lat="43.93967" lon="6.41836">
        <ele>1066.9</ele>
        <time>2019-11-01T13:57:45Z</time>
      </trkpt>
      <trkpt lat="43.9397" lon="6.41835">
        <ele>1067</ele>
        <time>2019-11-01T13:57:47Z</time>
      </trkpt>
      <trkpt lat="43.93974" lon="6.41835">
        <ele>1066.9</ele>
        <time>2019-11-01T13:57:49Z</time>
      </trkpt>
      <trkpt lat="43.93978" lon="6.41834">
        <ele>1066.8</ele>
        <time>2019-11-01T13:57:51Z</time>
      </trkpt>
      <trkpt lat="43.93981" lon="6.41833">
        <ele>1066.6</ele>
        <time>2019-11-01T13:57:52Z</time>
      </trkpt>
      <trkpt lat="43.93985" lon="6.41831">
        <ele>1066.3</ele>
        <time>2019-11-01T13:57:54Z</time>
      </trkpt>
      <trkpt lat="43.93988" lon="6.41828">
        <ele>1065.9</ele>
        <time>2019-11-01T13:57:56Z</time>
      </trkpt>
      <trkpt lat="43.93994" lon="6.41827">
        <ele>1065.4</ele>
        <time>2019-11-01T13:57:59Z</time>
      </trkpt>
      <trkpt lat="43.93997" lon="6.41826">
        <ele>1065</ele>
        <time>2019-11-01T13:58:00Z</time>
      </trkpt>
      <trkpt lat="43.94" lon="6.41824">
        <ele>1064.6</ele>
        <time>2019-11-01T13:58:02Z</time>
      </trkpt>
      <trkpt lat="43.94004" lon="6.41818">
        <ele>1064.2</ele>
        <time>2019-11-01T13:58:04Z</time>
      </trkpt>
      <trkpt lat="43.94008" lon="6.41814">
        <ele>1064.8</ele>
        <time>2019-11-01T13:58:07Z</time>
      </trkpt>
      <trkpt lat="43.94012" lon="6.4181">
        <ele>1065.1</ele>
        <time>2019-11-01T13:58:10Z</time>
      </trkpt>
      <trkpt lat="43.94016" lon="6.41808">
        <ele>1065.1</ele>
        <time>2019-11-01T13:58:11Z</time>
      </trkpt>
      <trkpt lat="43.94019" lon="6.41806">
        <ele>1065.2</ele>
        <time>2019-11-01T13:58:13Z</time>
      </trkpt>
      <trkpt lat="43.94024" lon="6.41805">
        <ele>1066.3</ele>
        <time>2019-11-01T13:58:15Z</time>
      </trkpt>
      <trkpt lat="43.94027" lon="6.41804">
        <ele>1067</ele>
        <time>2019-11-01T13:58:18Z</time>
      </trkpt>
      <trkpt lat="43.94032" lon="6.41801">
        <ele>1068.1</ele>
        <time>2019-11-01T13:58:20Z</time>
      </trkpt>
      <trkpt lat="43.94036" lon="6.41797">
        <ele>1069.1</ele>
        <time>2019-11-01T13:58:23Z</time>
      </trkpt>
      <trkpt lat="43.94039" lon="6.41792">
        <ele>1069.7</ele>
        <time>2019-11-01T13:58:26Z</time>
      </trkpt>
      <trkpt lat="43.94038" lon="6.41785">
        <ele>1070.5</ele>
        <time>2019-11-01T13:58:28Z</time>
      </trkpt>
      <trkpt lat="43.94033" lon="6.41783">
        <ele>1071.8</ele>
        <time>2019-11-01T13:58:31Z</time>
      </trkpt>
      <trkpt lat="43.94029" lon="6.41783">
        <ele>1072.5</ele>
        <time>2019-11-01T13:58:34Z</time>
      </trkpt>
      <trkpt lat="43.94026" lon="6.41786">
        <ele>1072.9</ele>
        <time>2019-11-01T13:58:36Z</time>
      </trkpt>
      <trkpt lat="43.94024" lon="6.41789">
        <ele>1073.3</ele>
        <time>2019-11-01T13:58:38Z</time>
      </trkpt>
      <trkpt lat="43.9402" lon="6.41794">
        <ele>1073.5</ele>
        <time>2019-11-01T13:58:41Z</time>
      </trkpt>
      <trkpt lat="43.94017" lon="6.41795">
        <ele>1073.6</ele>
        <time>2019-11-01T13:58:43Z</time>
      </trkpt>
      <trkpt lat="43.94014" lon="6.41797">
        <ele>1073.2</ele>
        <time>2019-11-01T13:58:45Z</time>
      </trkpt>
      <trkpt lat="43.94009" lon="6.41798">
        <ele>1072.7</ele>
        <time>2019-11-01T13:58:48Z</time>
      </trkpt>
      <trkpt lat="43.94005" lon="6.41798">
        <ele>1073</ele>
        <time>2019-11-01T13:58:50Z</time>
      </trkpt>
      <trkpt lat="43.94002" lon="6.41799">
        <ele>1073.1</ele>
        <time>2019-11-01T13:58:51Z</time>
      </trkpt>
      <trkpt lat="43.93998" lon="6.418">
        <ele>1072.7</ele>
        <time>2019-11-01T13:58:55Z</time>
      </trkpt>
      <trkpt lat="43.93994" lon="6.418">
        <ele>1072.3</ele>
        <time>2019-11-01T13:58:56Z</time>
      </trkpt>
      <trkpt lat="43.9399" lon="6.41801">
        <ele>1072.5</ele>
        <time>2019-11-01T13:58:59Z</time>
      </trkpt>
      <trkpt lat="43.93985" lon="6.41801">
        <ele>1072.9</ele>
        <time>2019-11-01T13:59:01Z</time>
      </trkpt>
      <trkpt lat="43.93982" lon="6.41801">
        <ele>1073.3</ele>
        <time>2019-11-01T13:59:04Z</time>
      </trkpt>
      <trkpt lat="43.93979" lon="6.418">
        <ele>1073.6</ele>
        <time>2019-11-01T13:59:05Z</time>
      </trkpt>
      <trkpt lat="43.93975" lon="6.41799">
        <ele>1074</ele>
        <time>2019-11-01T13:59:08Z</time>
      </trkpt>
      <trkpt lat="43.9397" lon="6.41798">
        <ele>1074.7</ele>
        <time>2019-11-01T13:59:11Z</time>
      </trkpt>
      <trkpt lat="43.93968" lon="6.41798">
        <ele>1075.1</ele>
        <time>2019-11-01T13:59:12Z</time>
      </trkpt>
      <trkpt lat="43.93964" lon="6.41798">
        <ele>1075.1</ele>
        <time>2019-11-01T13:59:14Z</time>
      </trkpt>
      <trkpt lat="43.93959" lon="6.41798">
        <ele>1075</ele>
        <time>2019-11-01T13:59:17Z</time>
      </trkpt>
      <trkpt lat="43.93956" lon="6.41797">
        <ele>1075.3</ele>
        <time>2019-11-01T13:59:19Z</time>
      </trkpt>
      <trkpt lat="43.9395" lon="6.41797">
        <ele>1075.8</ele>
        <time>2019-11-01T13:59:22Z</time>
      </trkpt>
      <trkpt lat="43.93947" lon="6.41796">
        <ele>1076.8</ele>
        <time>2019-11-01T13:59:24Z</time>
      </trkpt>
      <trkpt lat="43.93944" lon="6.41795">
        <ele>1077.8</ele>
        <time>2019-11-01T13:59:25Z</time>
      </trkpt>
      <trkpt lat="43.93939" lon="6.41794">
        <ele>1078.8</ele>
        <time>2019-11-01T13:59:28Z</time>
      </trkpt>
      <trkpt lat="43.93934" lon="6.41793">
        <ele>1079.2</ele>
        <time>2019-11-01T13:59:31Z</time>
      </trkpt>
      <trkpt lat="43.93931" lon="6.41793">
        <ele>1079.7</ele>
        <time>2019-11-01T13:59:33Z</time>
      </trkpt>
      <trkpt lat="43.93929" lon="6.41791">
        <ele>1080.4</ele>
        <time>2019-11-01T13:59:34Z</time>
      </trkpt>
      <trkpt lat="43.93924" lon="6.4179">
        <ele>1081.5</ele>
        <time>2019-11-01T13:59:36Z</time>
      </trkpt>
      <trkpt lat="43.9392" lon="6.41788">
        <ele>1082.4</ele>
        <time>2019-11-01T13:59:39Z</time>
      </trkpt>
      <trkpt lat="43.93917" lon="6.41786">
        <ele>1083.2</ele>
        <time>2019-11-01T13:59:42Z</time>
      </trkpt>
      <trkpt lat="43.93914" lon="6.41784">
        <ele>1083.4</ele>
        <time>2019-11-01T13:59:44Z</time>
      </trkpt>
      <trkpt lat="43.9391" lon="6.41781">
        <ele>1083.4</ele>
        <time>2019-11-01T13:59:47Z</time>
      </trkpt>
      <trkpt lat="43.93907" lon="6.4178">
        <ele>1083.8</ele>
        <time>2019-11-01T13:59:48Z</time>
      </trkpt>
      <trkpt lat="43.93903" lon="6.41777">
        <ele>1084.9</ele>
        <time>2019-11-01T13:59:51Z</time>
      </trkpt>
      <trkpt lat="43.93899" lon="6.41775">
        <ele>1086</ele>
        <time>2019-11-01T13:59:54Z</time>
      </trkpt>
      <trkpt lat="43.93896" lon="6.41774">
        <ele>1086.9</ele>
        <time>2019-11-01T13:59:55Z</time>
      </trkpt>
      <trkpt lat="43.93893" lon="6.41773">
        <ele>1087.9</ele>
        <time>2019-11-01T13:59:57Z</time>
      </trkpt>
      <trkpt lat="43.93889" lon="6.41771">
        <ele>1088.1</ele>
        <time>2019-11-01T14:00:00Z</time>
      </trkpt>
      <trkpt lat="43.93884" lon="6.41769">
        <ele>1088.1</ele>
        <time>2019-11-01T14:00:03Z</time>
      </trkpt>
      <trkpt lat="43.9388" lon="6.41767">
        <ele>1089.4</ele>
        <time>2019-11-01T14:00:05Z</time>
      </trkpt>
      <trkpt lat="43.93877" lon="6.41765">
        <ele>1090.5</ele>
        <time>2019-11-01T14:00:08Z</time>
      </trkpt>
      <trkpt lat="43.93873" lon="6.41764">
        <ele>1091.9</ele>
        <time>2019-11-01T14:00:10Z</time>
      </trkpt>
      <trkpt lat="43.9387" lon="6.41763">
        <ele>1093</ele>
        <time>2019-11-01T14:00:12Z</time>
      </trkpt>
      <trkpt lat="43.93866" lon="6.41762">
        <ele>1093.9</ele>
        <time>2019-11-01T14:00:14Z</time>
      </trkpt>
      <trkpt lat="43.93862" lon="6.41761">
        <ele>1093.8</ele>
        <time>2019-11-01T14:00:17Z</time>
      </trkpt>
      <trkpt lat="43.93857" lon="6.4176">
        <ele>1094.2</ele>
        <time>2019-11-01T14:00:20Z</time>
      </trkpt>
      <trkpt lat="43.93853" lon="6.41758">
        <ele>1095.6</ele>
        <time>2019-11-01T14:00:22Z</time>
      </trkpt>
      <trkpt lat="43.9385" lon="6.41757">
        <ele>1096.6</ele>
        <time>2019-11-01T14:00:25Z</time>
      </trkpt>
      <trkpt lat="43.93846" lon="6.41755">
        <ele>1098.1</ele>
        <time>2019-11-01T14:00:27Z</time>
      </trkpt>
      <trkpt lat="43.93842" lon="6.41753">
        <ele>1099.4</ele>
        <time>2019-11-01T14:00:30Z</time>
      </trkpt>
      <trkpt lat="43.93838" lon="6.41753">
        <ele>1099.2</ele>
        <time>2019-11-01T14:00:33Z</time>
      </trkpt>
      <trkpt lat="43.93834" lon="6.41752">
        <ele>1099.1</ele>
        <time>2019-11-01T14:00:35Z</time>
      </trkpt>
      <trkpt lat="43.9383" lon="6.4175">
        <ele>1100.4</ele>
        <time>2019-11-01T14:00:38Z</time>
      </trkpt>
      <trkpt lat="43.93826" lon="6.41749">
        <ele>1101.6</ele>
        <time>2019-11-01T14:00:40Z</time>
      </trkpt>
      <trkpt lat="43.93822" lon="6.41747">
        <ele>1102.8</ele>
        <time>2019-11-01T14:00:43Z</time>
      </trkpt>
      <trkpt lat="43.93819" lon="6.41746">
        <ele>1103.9</ele>
        <time>2019-11-01T14:00:45Z</time>
      </trkpt>
      <trkpt lat="43.93815" lon="6.41744">
        <ele>1104.4</ele>
        <time>2019-11-01T14:00:47Z</time>
      </trkpt>
      <trkpt lat="43.93811" lon="6.41743">
        <ele>1104.3</ele>
        <time>2019-11-01T14:00:50Z</time>
      </trkpt>
      <trkpt lat="43.93807" lon="6.41743">
        <ele>1104.5</ele>
        <time>2019-11-01T14:00:52Z</time>
      </trkpt>
      <trkpt lat="43.93803" lon="6.41741">
        <ele>1105.6</ele>
        <time>2019-11-01T14:00:55Z</time>
      </trkpt>
      <trkpt lat="43.93798" lon="6.41738">
        <ele>1106.8</ele>
        <time>2019-11-01T14:00:58Z</time>
      </trkpt>
      <trkpt lat="43.93795" lon="6.41736">
        <ele>1107.5</ele>
        <time>2019-11-01T14:00:59Z</time>
      </trkpt>
      <trkpt lat="43.93792" lon="6.41734">
        <ele>1108.2</ele>
        <time>2019-11-01T14:01:02Z</time>
      </trkpt>
      <trkpt lat="43.93787" lon="6.4173">
        <ele>1107.9</ele>
        <time>2019-11-01T14:01:04Z</time>
      </trkpt>
      <trkpt lat="43.93783" lon="6.41728">
        <ele>1108</ele>
        <time>2019-11-01T14:01:06Z</time>
      </trkpt>
      <trkpt lat="43.93781" lon="6.41726">
        <ele>1108.4</ele>
        <time>2019-11-01T14:01:07Z</time>
      </trkpt>
      <trkpt lat="43.93776" lon="6.41722">
        <ele>1109.5</ele>
        <time>2019-11-01T14:01:09Z</time>
      </trkpt>
      <trkpt lat="43.93772" lon="6.41716">
        <ele>1112.3</ele>
        <time>2019-11-01T14:01:12Z</time>
      </trkpt>
      <trkpt lat="43.93768" lon="6.41712">
        <ele>1114.4</ele>
        <time>2019-11-01T14:01:15Z</time>
      </trkpt>
      <trkpt lat="43.93763" lon="6.41706">
        <ele>1116.4</ele>
        <time>2019-11-01T14:01:17Z</time>
      </trkpt>
      <trkpt lat="43.93759" lon="6.41701">
        <ele>1116.8</ele>
        <time>2019-11-01T14:01:19Z</time>
      </trkpt>
      <trkpt lat="43.93757" lon="6.41698">
        <ele>1117.5</ele>
        <time>2019-11-01T14:01:21Z</time>
      </trkpt>
      <trkpt lat="43.93754" lon="6.41694">
        <ele>1118.5</ele>
        <time>2019-11-01T14:01:23Z</time>
      </trkpt>
      <trkpt lat="43.93752" lon="6.41691">
        <ele>1119.1</ele>
        <time>2019-11-01T14:01:25Z</time>
      </trkpt>
      <trkpt lat="43.93749" lon="6.41686">
        <ele>1119.9</ele>
        <time>2019-11-01T14:01:28Z</time>
      </trkpt>
      <trkpt lat="43.93747" lon="6.41684">
        <ele>1120.4</ele>
        <time>2019-11-01T14:01:29Z</time>
      </trkpt>
      <trkpt lat="43.93745" lon="6.41679">
        <ele>1120.9</ele>
        <time>2019-11-01T14:01:32Z</time>
      </trkpt>
      <trkpt lat="43.93742" lon="6.41673">
        <ele>1122</ele>
        <time>2019-11-01T14:01:35Z</time>
      </trkpt>
      <trkpt lat="43.93739" lon="6.41669">
        <ele>1123.1</ele>
        <time>2019-11-01T14:01:37Z</time>
      </trkpt>
      <trkpt lat="43.93736" lon="6.41665">
        <ele>1124.2</ele>
        <time>2019-11-01T14:01:40Z</time>
      </trkpt>
      <trkpt lat="43.93735" lon="6.4166">
        <ele>1124.7</ele>
        <time>2019-11-01T14:01:42Z</time>
      </trkpt>
      <trkpt lat="43.93733" lon="6.41657">
        <ele>1125</ele>
        <time>2019-11-01T14:01:44Z</time>
      </trkpt>
      <trkpt lat="43.93731" lon="6.41653">
        <ele>1124.5</ele>
        <time>2019-11-01T14:01:46Z</time>
      </trkpt>
      <trkpt lat="43.93728" lon="6.41649">
        <ele>1124</ele>
        <time>2019-11-01T14:01:48Z</time>
      </trkpt>
      <trkpt lat="43.93725" lon="6.41644">
        <ele>1123</ele>
        <time>2019-11-01T14:01:51Z</time>
      </trkpt>
      <trkpt lat="43.93723" lon="6.41642">
        <ele>1122.4</ele>
        <time>2019-11-01T14:01:53Z</time>
      </trkpt>
      <trkpt lat="43.93719" lon="6.41637">
        <ele>1122.5</ele>
        <time>2019-11-01T14:01:56Z</time>
      </trkpt>
      <trkpt lat="43.93716" lon="6.41633">
        <ele>1122.8</ele>
        <time>2019-11-01T14:01:58Z</time>
      </trkpt>
      <trkpt lat="43.93712" lon="6.4163">
        <ele>1122.3</ele>
        <time>2019-11-01T14:02:01Z</time>
      </trkpt>
      <trkpt lat="43.93708" lon="6.41627">
        <ele>1121.7</ele>
        <time>2019-11-01T14:02:03Z</time>
      </trkpt>
      <trkpt lat="43.93703" lon="6.41622">
        <ele>1122.2</ele>
        <time>2019-11-01T14:02:07Z</time>
      </trkpt>
      <trkpt lat="43.93701" lon="6.4162">
        <ele>1122.4</ele>
        <time>2019-11-01T14:02:08Z</time>
      </trkpt>
      <trkpt lat="43.93697" lon="6.41617">
        <ele>1122.6</ele>
        <time>2019-11-01T14:02:11Z</time>
      </trkpt>
      <trkpt lat="43.93693" lon="6.41615">
        <ele>1122.6</ele>
        <time>2019-11-01T14:02:14Z</time>
      </trkpt>
      <trkpt lat="43.9369" lon="6.41612">
        <ele>1122.5</ele>
        <time>2019-11-01T14:02:16Z</time>
      </trkpt>
      <trkpt lat="43.93686" lon="6.4161">
        <ele>1122.3</ele>
        <time>2019-11-01T14:02:19Z</time>
      </trkpt>
      <trkpt lat="43.93683" lon="6.41609">
        <ele>1122.8</ele>
        <time>2019-11-01T14:02:21Z</time>
      </trkpt>
      <trkpt lat="43.9368" lon="6.41608">
        <ele>1123.3</ele>
        <time>2019-11-01T14:02:23Z</time>
      </trkpt>
      <trkpt lat="43.93677" lon="6.41607">
        <ele>1123.9</ele>
        <time>2019-11-01T14:02:25Z</time>
      </trkpt>
      <trkpt lat="43.93673" lon="6.41605">
        <ele>1124.1</ele>
        <time>2019-11-01T14:02:28Z</time>
      </trkpt>
      <trkpt lat="43.93669" lon="6.41604">
        <ele>1124.2</ele>
        <time>2019-11-01T14:02:30Z</time>
      </trkpt>
      <trkpt lat="43.93665" lon="6.41603">
        <ele>1123.3</ele>
        <time>2019-11-01T14:02:33Z</time>
      </trkpt>
      <trkpt lat="43.9366" lon="6.41603">
        <ele>1122.1</ele>
        <time>2019-11-01T14:02:36Z</time>
      </trkpt>
      <trkpt lat="43.93656" lon="6.41602">
        <ele>1120.9</ele>
        <time>2019-11-01T14:02:38Z</time>
      </trkpt>
      <trkpt lat="43.9365" lon="6.41601">
        <ele>1120.3</ele>
        <time>2019-11-01T14:02:41Z</time>
      </trkpt>
      <trkpt lat="43.93647" lon="6.416">
        <ele>1120.7</ele>
        <time>2019-11-01T14:02:44Z</time>
      </trkpt>
      <trkpt lat="43.93642" lon="6.41599">
        <ele>1120.7</ele>
        <time>2019-11-01T14:02:47Z</time>
      </trkpt>
      <trkpt lat="43.93639" lon="6.41599">
        <ele>1120.4</ele>
        <time>2019-11-01T14:02:48Z</time>
      </trkpt>
      <trkpt lat="43.93635" lon="6.416">
        <ele>1120.2</ele>
        <time>2019-11-01T14:02:51Z</time>
      </trkpt>
      <trkpt lat="43.93631" lon="6.416">
        <ele>1120.3</ele>
        <time>2019-11-01T14:02:53Z</time>
      </trkpt>
      <trkpt lat="43.93626" lon="6.416">
        <ele>1121.7</ele>
        <time>2019-11-01T14:02:56Z</time>
      </trkpt>
      <trkpt lat="43.93622" lon="6.416">
        <ele>1123.6</ele>
        <time>2019-11-01T14:02:58Z</time>
      </trkpt>
      <trkpt lat="43.93617" lon="6.41601">
        <ele>1124.7</ele>
        <time>2019-11-01T14:03:01Z</time>
      </trkpt>
      <trkpt lat="43.93613" lon="6.41602">
        <ele>1125.3</ele>
        <time>2019-11-01T14:03:03Z</time>
      </trkpt>
      <trkpt lat="43.93609" lon="6.41601">
        <ele>1126</ele>
        <time>2019-11-01T14:03:07Z</time>
      </trkpt>
      <trkpt lat="43.93606" lon="6.41602">
        <ele>1126.4</ele>
        <time>2019-11-01T14:03:08Z</time>
      </trkpt>
      <trkpt lat="43.93602" lon="6.41603">
        <ele>1127.4</ele>
        <time>2019-11-01T14:03:10Z</time>
      </trkpt>
      <trkpt lat="43.93597" lon="6.41604">
        <ele>1128.6</ele>
        <time>2019-11-01T14:03:13Z</time>
      </trkpt>
      <trkpt lat="43.93593" lon="6.41605">
        <ele>1129.3</ele>
        <time>2019-11-01T14:03:15Z</time>
      </trkpt>
      <trkpt lat="43.93589" lon="6.41606">
        <ele>1129.9</ele>
        <time>2019-11-01T14:03:17Z</time>
      </trkpt>
      <trkpt lat="43.93586" lon="6.41607">
        <ele>1130.9</ele>
        <time>2019-11-01T14:03:20Z</time>
      </trkpt>
      <trkpt lat="43.93582" lon="6.41608">
        <ele>1131.8</ele>
        <time>2019-11-01T14:03:22Z</time>
      </trkpt>
      <trkpt lat="43.93579" lon="6.41608">
        <ele>1132.7</ele>
        <time>2019-11-01T14:03:24Z</time>
      </trkpt>
      <trkpt lat="43.93574" lon="6.4161">
        <ele>1133.8</ele>
        <time>2019-11-01T14:03:27Z</time>
      </trkpt>
      <trkpt lat="43.93569" lon="6.41609">
        <ele>1134.9</ele>
        <time>2019-11-01T14:03:30Z</time>
      </trkpt>
      <trkpt lat="43.93565" lon="6.41608">
        <ele>1135.8</ele>
        <time>2019-11-01T14:03:32Z</time>
      </trkpt>
      <trkpt lat="43.93561" lon="6.41606">
        <ele>1136.4</ele>
        <time>2019-11-01T14:03:35Z</time>
      </trkpt>
      <trkpt lat="43.93557" lon="6.41602">
        <ele>1137</ele>
        <time>2019-11-01T14:03:37Z</time>
      </trkpt>
      <trkpt lat="43.93555" lon="6.41598">
        <ele>1137.5</ele>
        <time>2019-11-01T14:03:38Z</time>
      </trkpt>
      <trkpt lat="43.93551" lon="6.41593">
        <ele>1138.2</ele>
        <time>2019-11-01T14:03:41Z</time>
      </trkpt>
      <trkpt lat="43.93548" lon="6.41589">
        <ele>1138.5</ele>
        <time>2019-11-01T14:03:43Z</time>
      </trkpt>
      <trkpt lat="43.93546" lon="6.41584">
        <ele>1139.5</ele>
        <time>2019-11-01T14:03:45Z</time>
      </trkpt>
      <trkpt lat="43.93543" lon="6.41577">
        <ele>1142.1</ele>
        <time>2019-11-01T14:03:48Z</time>
      </trkpt>
      <trkpt lat="43.9354" lon="6.41571">
        <ele>1144.1</ele>
        <time>2019-11-01T14:03:51Z</time>
      </trkpt>
      <trkpt lat="43.93539" lon="6.41567">
        <ele>1145</ele>
        <time>2019-11-01T14:03:52Z</time>
      </trkpt>
      <trkpt lat="43.93538" lon="6.41563">
        <ele>1146</ele>
        <time>2019-11-01T14:03:54Z</time>
      </trkpt>
      <trkpt lat="43.93536" lon="6.41559">
        <ele>1147.4</ele>
        <time>2019-11-01T14:03:55Z</time>
      </trkpt>
      <trkpt lat="43.93534" lon="6.41553">
        <ele>1149.3</ele>
        <time>2019-11-01T14:03:58Z</time>
      </trkpt>
      <trkpt lat="43.93532" lon="6.41548">
        <ele>1150.3</ele>
        <time>2019-11-01T14:04:00Z</time>
      </trkpt>
      <trkpt lat="43.93531" lon="6.41544">
        <ele>1151</ele>
        <time>2019-11-01T14:04:02Z</time>
      </trkpt>
      <trkpt lat="43.93528" lon="6.41537">
        <ele>1153</ele>
        <time>2019-11-01T14:04:05Z</time>
      </trkpt>
      <trkpt lat="43.93525" lon="6.41533">
        <ele>1154.5</ele>
        <time>2019-11-01T14:04:07Z</time>
      </trkpt>
      <trkpt lat="43.93523" lon="6.41526">
        <ele>1155.5</ele>
        <time>2019-11-01T14:04:10Z</time>
      </trkpt>
      <trkpt lat="43.9352" lon="6.41519">
        <ele>1156.5</ele>
        <time>2019-11-01T14:04:12Z</time>
      </trkpt>
      <trkpt lat="43.93518" lon="6.41515">
        <ele>1157.2</ele>
        <time>2019-11-01T14:04:14Z</time>
      </trkpt>
      <trkpt lat="43.93516" lon="6.4151">
        <ele>1158</ele>
        <time>2019-11-01T14:04:17Z</time>
      </trkpt>
      <trkpt lat="43.93514" lon="6.41506">
        <ele>1158.6</ele>
        <time>2019-11-01T14:04:18Z</time>
      </trkpt>
      <trkpt lat="43.93513" lon="6.415">
        <ele>1159.4</ele>
        <time>2019-11-01T14:04:21Z</time>
      </trkpt>
      <trkpt lat="43.93511" lon="6.41497">
        <ele>1159.8</ele>
        <time>2019-11-01T14:04:22Z</time>
      </trkpt>
      <trkpt lat="43.93509" lon="6.4149">
        <ele>1160.6</ele>
        <time>2019-11-01T14:04:25Z</time>
      </trkpt>
      <trkpt lat="43.93507" lon="6.41485">
        <ele>1161.7</ele>
        <time>2019-11-01T14:04:27Z</time>
      </trkpt>
      <trkpt lat="43.93505" lon="6.41481">
        <ele>1162.4</ele>
        <time>2019-11-01T14:04:28Z</time>
      </trkpt>
      <trkpt lat="43.93503" lon="6.41474">
        <ele>1162.7</ele>
        <time>2019-11-01T14:04:31Z</time>
      </trkpt>
      <trkpt lat="43.93501" lon="6.41468">
        <ele>1162.9</ele>
        <time>2019-11-01T14:04:34Z</time>
      </trkpt>
      <trkpt lat="43.93499" lon="6.41462">
        <ele>1163.7</ele>
        <time>2019-11-01T14:04:36Z</time>
      </trkpt>
      <trkpt lat="43.93497" lon="6.41455">
        <ele>1164.3</ele>
        <time>2019-11-01T14:04:39Z</time>
      </trkpt>
      <trkpt lat="43.93496" lon="6.41451">
        <ele>1164.5</ele>
        <time>2019-11-01T14:04:40Z</time>
      </trkpt>
      <trkpt lat="43.93495" lon="6.41446">
        <ele>1164.7</ele>
        <time>2019-11-01T14:04:43Z</time>
      </trkpt>
      <trkpt lat="43.93494" lon="6.41439">
        <ele>1164.8</ele>
        <time>2019-11-01T14:04:44Z</time>
      </trkpt>
      <trkpt lat="43.93492" lon="6.41433">
        <ele>1164.9</ele>
        <time>2019-11-01T14:04:48Z</time>
      </trkpt>
      <trkpt lat="43.93491" lon="6.41429">
        <ele>1165.1</ele>
        <time>2019-11-01T14:04:49Z</time>
      </trkpt>
      <trkpt lat="43.9349" lon="6.41424">
        <ele>1165.2</ele>
        <time>2019-11-01T14:04:51Z</time>
      </trkpt>
      <trkpt lat="43.93489" lon="6.41418">
        <ele>1165.6</ele>
        <time>2019-11-01T14:04:54Z</time>
      </trkpt>
      <trkpt lat="43.93487" lon="6.41414">
        <ele>1165.9</ele>
        <time>2019-11-01T14:04:55Z</time>
      </trkpt>
      <trkpt lat="43.93486" lon="6.41408">
        <ele>1165.8</ele>
        <time>2019-11-01T14:04:57Z</time>
      </trkpt>
      <trkpt lat="43.93484" lon="6.41402">
        <ele>1165.3</ele>
        <time>2019-11-01T14:05:00Z</time>
      </trkpt>
      <trkpt lat="43.93482" lon="6.41397">
        <ele>1166.3</ele>
        <time>2019-11-01T14:05:03Z</time>
      </trkpt>
      <trkpt lat="43.9348" lon="6.41394">
        <ele>1167.1</ele>
        <time>2019-11-01T14:05:05Z</time>
      </trkpt>
      <trkpt lat="43.93479" lon="6.41389">
        <ele>1167.9</ele>
        <time>2019-11-01T14:05:07Z</time>
      </trkpt>
      <trkpt lat="43.93478" lon="6.41385">
        <ele>1168.5</ele>
        <time>2019-11-01T14:05:10Z</time>
      </trkpt>
      <trkpt lat="43.9348" lon="6.41381">
        <ele>1169</ele>
        <time>2019-11-01T14:05:11Z</time>
      </trkpt>
      <trkpt lat="43.93482" lon="6.41378">
        <ele>1169.7</ele>
        <time>2019-11-01T14:05:14Z</time>
      </trkpt>
      <trkpt lat="43.93486" lon="6.41382">
        <ele>1170.6</ele>
        <time>2019-11-01T14:05:16Z</time>
      </trkpt>
      <trkpt lat="43.93488" lon="6.41385">
        <ele>1171.2</ele>
        <time>2019-11-01T14:05:18Z</time>
      </trkpt>
      <trkpt lat="43.93489" lon="6.41388">
        <ele>1171.7</ele>
        <time>2019-11-01T14:05:19Z</time>
      </trkpt>
      <trkpt lat="43.93491" lon="6.41392">
        <ele>1172.2</ele>
        <time>2019-11-01T14:05:21Z</time>
      </trkpt>
      <trkpt lat="43.93493" lon="6.41396">
        <ele>1172.5</ele>
        <time>2019-11-01T14:05:23Z</time>
      </trkpt>
      <trkpt lat="43.93496" lon="6.41401">
        <ele>1172.7</ele>
        <time>2019-11-01T14:05:26Z</time>
      </trkpt>
      <trkpt lat="43.93497" lon="6.41404">
        <ele>1172.9</ele>
        <time>2019-11-01T14:05:27Z</time>
      </trkpt>
      <trkpt lat="43.935" lon="6.41409">
        <ele>1173.2</ele>
        <time>2019-11-01T14:05:30Z</time>
      </trkpt>
      <trkpt lat="43.93503" lon="6.41414">
        <ele>1173</ele>
        <time>2019-11-01T14:05:33Z</time>
      </trkpt>
      <trkpt lat="43.93506" lon="6.41418">
        <ele>1173.1</ele>
        <time>2019-11-01T14:05:35Z</time>
      </trkpt>
      <trkpt lat="43.93508" lon="6.41422">
        <ele>1173.8</ele>
        <time>2019-11-01T14:05:38Z</time>
      </trkpt>
      <trkpt lat="43.9351" lon="6.41426">
        <ele>1174.5</ele>
        <time>2019-11-01T14:05:41Z</time>
      </trkpt>
      <trkpt lat="43.93512" lon="6.41428">
        <ele>1174.6</ele>
        <time>2019-11-01T14:05:42Z</time>
      </trkpt>
      <trkpt lat="43.93516" lon="6.41432">
        <ele>1174.8</ele>
        <time>2019-11-01T14:05:46Z</time>
      </trkpt>
      <trkpt lat="43.93519" lon="6.41435">
        <ele>1174.9</ele>
        <time>2019-11-01T14:05:48Z</time>
      </trkpt>
      <trkpt lat="43.9352" lon="6.41439">
        <ele>1174.9</ele>
        <time>2019-11-01T14:05:49Z</time>
      </trkpt>
      <trkpt lat="43.93524" lon="6.41443">
        <ele>1174.6</ele>
        <time>2019-11-01T14:05:52Z</time>
      </trkpt>
      <trkpt lat="43.93526" lon="6.41446">
        <ele>1174.4</ele>
        <time>2019-11-01T14:05:54Z</time>
      </trkpt>
      <trkpt lat="43.93528" lon="6.41451">
        <ele>1174.6</ele>
        <time>2019-11-01T14:05:57Z</time>
      </trkpt>
      <trkpt lat="43.9353" lon="6.41454">
        <ele>1174.8</ele>
        <time>2019-11-01T14:05:59Z</time>
      </trkpt>
      <trkpt lat="43.93533" lon="6.41457">
        <ele>1175.1</ele>
        <time>2019-11-01T14:06:01Z</time>
      </trkpt>
      <trkpt lat="43.93536" lon="6.41462">
        <ele>1175.8</ele>
        <time>2019-11-01T14:06:04Z</time>
      </trkpt>
      <trkpt lat="43.9354" lon="6.41465">
        <ele>1176</ele>
        <time>2019-11-01T14:06:06Z</time>
      </trkpt>
      <trkpt lat="43.93543" lon="6.41469">
        <ele>1175.9</ele>
        <time>2019-11-01T14:06:08Z</time>
      </trkpt>
      <trkpt lat="43.93546" lon="6.41471">
        <ele>1175.8</ele>
        <time>2019-11-01T14:06:11Z</time>
      </trkpt>
      <trkpt lat="43.93548" lon="6.41473">
        <ele>1175.8</ele>
        <time>2019-11-01T14:06:12Z</time>
      </trkpt>
      <trkpt lat="43.93552" lon="6.41476">
        <ele>1175.8</ele>
        <time>2019-11-01T14:06:15Z</time>
      </trkpt>
      <trkpt lat="43.93555" lon="6.41479">
        <ele>1175.8</ele>
        <time>2019-11-01T14:06:17Z</time>
      </trkpt>
      <trkpt lat="43.93557" lon="6.41483">
        <ele>1175.8</ele>
        <time>2019-11-01T14:06:18Z</time>
      </trkpt>
      <trkpt lat="43.93559" lon="6.41486">
        <ele>1175.6</ele>
        <time>2019-11-01T14:06:20Z</time>
      </trkpt>
      <trkpt lat="43.93563" lon="6.41489">
        <ele>1174.8</ele>
        <time>2019-11-01T14:06:22Z</time>
      </trkpt>
      <trkpt lat="43.93568" lon="6.41493">
        <ele>1174</ele>
        <time>2019-11-01T14:06:25Z</time>
      </trkpt>
      <trkpt lat="43.9357" lon="6.41495">
        <ele>1173.5</ele>
        <time>2019-11-01T14:06:26Z</time>
      </trkpt>
      <trkpt lat="43.93574" lon="6.41498">
        <ele>1172.5</ele>
        <time>2019-11-01T14:06:29Z</time>
      </trkpt>
      <trkpt lat="43.93578" lon="6.41502">
        <ele>1171.2</ele>
        <time>2019-11-01T14:06:31Z</time>
      </trkpt>
      <trkpt lat="43.93581" lon="6.41503">
        <ele>1170.9</ele>
        <time>2019-11-01T14:06:33Z</time>
      </trkpt>
      <trkpt lat="43.93585" lon="6.41506">
        <ele>1170.3</ele>
        <time>2019-11-01T14:06:35Z</time>
      </trkpt>
      <trkpt lat="43.93588" lon="6.41507">
        <ele>1169.9</ele>
        <time>2019-11-01T14:06:37Z</time>
      </trkpt>
      <trkpt lat="43.93593" lon="6.41508">
        <ele>1169.2</ele>
        <time>2019-11-01T14:06:39Z</time>
      </trkpt>
      <trkpt lat="43.93596" lon="6.41508">
        <ele>1169.2</ele>
        <time>2019-11-01T14:06:41Z</time>
      </trkpt>
      <trkpt lat="43.93599" lon="6.41509">
        <ele>1169.4</ele>
        <time>2019-11-01T14:06:43Z</time>
      </trkpt>
      <trkpt lat="43.93603" lon="6.41508">
        <ele>1169</ele>
        <time>2019-11-01T14:06:45Z</time>
      </trkpt>
      <trkpt lat="43.93608" lon="6.41508">
        <ele>1168.1</ele>
        <time>2019-11-01T14:06:48Z</time>
      </trkpt>
      <trkpt lat="43.93611" lon="6.41507">
        <ele>1168.1</ele>
        <time>2019-11-01T14:06:51Z</time>
      </trkpt>
      <trkpt lat="43.93615" lon="6.41507">
        <ele>1168</ele>
        <time>2019-11-01T14:06:53Z</time>
      </trkpt>
      <trkpt lat="43.93618" lon="6.41507">
        <ele>1167.4</ele>
        <time>2019-11-01T14:06:54Z</time>
      </trkpt>
      <trkpt lat="43.93621" lon="6.41507">
        <ele>1166.7</ele>
        <time>2019-11-01T14:06:57Z</time>
      </trkpt>
      <trkpt lat="43.93624" lon="6.41507">
        <ele>1166.5</ele>
        <time>2019-11-01T14:06:58Z</time>
      </trkpt>
      <trkpt lat="43.93628" lon="6.41506">
        <ele>1166.5</ele>
        <time>2019-11-01T14:07:01Z</time>
      </trkpt>
      <trkpt lat="43.93631" lon="6.41506">
        <ele>1166.6</ele>
        <time>2019-11-01T14:07:02Z</time>
      </trkpt>
      <trkpt lat="43.93633" lon="6.41505">
        <ele>1167.2</ele>
        <time>2019-11-01T14:07:04Z</time>
      </trkpt>
      <trkpt lat="43.93636" lon="6.41504">
        <ele>1168.1</ele>
        <time>2019-11-01T14:07:06Z</time>
      </trkpt>
      <trkpt lat="43.93641" lon="6.41503">
        <ele>1169.1</ele>
        <time>2019-11-01T14:07:09Z</time>
      </trkpt>
      <trkpt lat="43.93644" lon="6.41503">
        <ele>1169.4</ele>
        <time>2019-11-01T14:07:11Z</time>
      </trkpt>
      <trkpt lat="43.93649" lon="6.41501">
        <ele>1169.8</ele>
        <time>2019-11-01T14:07:14Z</time>
      </trkpt>
      <trkpt lat="43.93652" lon="6.41501">
        <ele>1170.1</ele>
        <time>2019-11-01T14:07:15Z</time>
      </trkpt>
      <trkpt lat="43.93657" lon="6.415">
        <ele>1170.8</ele>
        <time>2019-11-01T14:07:18Z</time>
      </trkpt>
      <trkpt lat="43.93662" lon="6.41499">
        <ele>1173.3</ele>
        <time>2019-11-01T14:07:20Z</time>
      </trkpt>
      <trkpt lat="43.93667" lon="6.41498">
        <ele>1174.7</ele>
        <time>2019-11-01T14:07:23Z</time>
      </trkpt>
      <trkpt lat="43.93671" lon="6.41498">
        <ele>1175.2</ele>
        <time>2019-11-01T14:07:25Z</time>
      </trkpt>
      <trkpt lat="43.93676" lon="6.41498">
        <ele>1176.2</ele>
        <time>2019-11-01T14:07:28Z</time>
      </trkpt>
      <trkpt lat="43.93681" lon="6.41497">
        <ele>1177.4</ele>
        <time>2019-11-01T14:07:30Z</time>
      </trkpt>
      <trkpt lat="43.93685" lon="6.41497">
        <ele>1178.3</ele>
        <time>2019-11-01T14:07:32Z</time>
      </trkpt>
      <trkpt lat="43.9369" lon="6.41498">
        <ele>1179.9</ele>
        <time>2019-11-01T14:07:35Z</time>
      </trkpt>
      <trkpt lat="43.93694" lon="6.41499">
        <ele>1182.1</ele>
        <time>2019-11-01T14:07:37Z</time>
      </trkpt>
      <trkpt lat="43.93699" lon="6.41498">
        <ele>1185</ele>
        <time>2019-11-01T14:07:39Z</time>
      </trkpt>
      <trkpt lat="43.93702" lon="6.41499">
        <ele>1186.3</ele>
        <time>2019-11-01T14:07:41Z</time>
      </trkpt>
      <trkpt lat="43.93706" lon="6.41499">
        <ele>1188</ele>
        <time>2019-11-01T14:07:43Z</time>
      </trkpt>
      <trkpt lat="43.9371" lon="6.41499">
        <ele>1189.1</ele>
        <time>2019-11-01T14:07:45Z</time>
      </trkpt>
      <trkpt lat="43.93713" lon="6.41499">
        <ele>1189.8</ele>
        <time>2019-11-01T14:07:46Z</time>
      </trkpt>
      <trkpt lat="43.93717" lon="6.41499">
        <ele>1190.9</ele>
        <time>2019-11-01T14:07:49Z</time>
      </trkpt>
      <trkpt lat="43.93721" lon="6.415">
        <ele>1191.9</ele>
        <time>2019-11-01T14:07:50Z</time>
      </trkpt>
      <trkpt lat="43.93724" lon="6.415">
        <ele>1193</ele>
        <time>2019-11-01T14:07:53Z</time>
      </trkpt>
      <trkpt lat="43.93728" lon="6.415">
        <ele>1194.2</ele>
        <time>2019-11-01T14:07:55Z</time>
      </trkpt>
      <trkpt lat="43.93732" lon="6.415">
        <ele>1195.5</ele>
        <time>2019-11-01T14:07:57Z</time>
      </trkpt>
      <trkpt lat="43.93736" lon="6.415">
        <ele>1196.4</ele>
        <time>2019-11-01T14:07:59Z</time>
      </trkpt>
      <trkpt lat="43.93739" lon="6.41501">
        <ele>1197.2</ele>
        <time>2019-11-01T14:08:00Z</time>
      </trkpt>
      <trkpt lat="43.93743" lon="6.41501">
        <ele>1198.1</ele>
        <time>2019-11-01T14:08:02Z</time>
      </trkpt>
      <trkpt lat="43.93747" lon="6.41502">
        <ele>1198.9</ele>
        <time>2019-11-01T14:08:04Z</time>
      </trkpt>
      <trkpt lat="43.93752" lon="6.41503">
        <ele>1199.9</ele>
        <time>2019-11-01T14:08:07Z</time>
      </trkpt>
      <trkpt lat="43.93755" lon="6.41502">
        <ele>1200.5</ele>
        <time>2019-11-01T14:08:09Z</time>
      </trkpt>
      <trkpt lat="43.93758" lon="6.41502">
        <ele>1201.1</ele>
        <time>2019-11-01T14:08:10Z</time>
      </trkpt>
      <trkpt lat="43.93764" lon="6.41501">
        <ele>1201.7</ele>
        <time>2019-11-01T14:08:13Z</time>
      </trkpt>
      <trkpt lat="43.93768" lon="6.41502">
        <ele>1202.1</ele>
        <time>2019-11-01T14:08:16Z</time>
      </trkpt>
      <trkpt lat="43.93773" lon="6.41502">
        <ele>1201.8</ele>
        <time>2019-11-01T14:08:18Z</time>
      </trkpt>
      <trkpt lat="43.93776" lon="6.41503">
        <ele>1201.5</ele>
        <time>2019-11-01T14:08:20Z</time>
      </trkpt>
      <trkpt lat="43.9378" lon="6.41503">
        <ele>1201.6</ele>
        <time>2019-11-01T14:08:21Z</time>
      </trkpt>
      <trkpt lat="43.93785" lon="6.41502">
        <ele>1201.9</ele>
        <time>2019-11-01T14:08:24Z</time>
      </trkpt>
      <trkpt lat="43.9379" lon="6.41502">
        <ele>1202.1</ele>
        <time>2019-11-01T14:08:26Z</time>
      </trkpt>
      <trkpt lat="43.93794" lon="6.41503">
        <ele>1202.2</ele>
        <time>2019-11-01T14:08:29Z</time>
      </trkpt>
      <trkpt lat="43.93798" lon="6.41502">
        <ele>1202.2</ele>
        <time>2019-11-01T14:08:31Z</time>
      </trkpt>
      <trkpt lat="43.93802" lon="6.415">
        <ele>1202.1</ele>
        <time>2019-11-01T14:08:34Z</time>
      </trkpt>
      <trkpt lat="43.93808" lon="6.415">
        <ele>1201.9</ele>
        <time>2019-11-01T14:08:37Z</time>
      </trkpt>
      <trkpt lat="43.93812" lon="6.415">
        <ele>1201.8</ele>
        <time>2019-11-01T14:08:39Z</time>
      </trkpt>
      <trkpt lat="43.93818" lon="6.415">
        <ele>1201.5</ele>
        <time>2019-11-01T14:08:41Z</time>
      </trkpt>
      <trkpt lat="43.93823" lon="6.415">
        <ele>1201.2</ele>
        <time>2019-11-01T14:08:44Z</time>
      </trkpt>
      <trkpt lat="43.93827" lon="6.415">
        <ele>1200.9</ele>
        <time>2019-11-01T14:08:46Z</time>
      </trkpt>
      <trkpt lat="43.93833" lon="6.41499">
        <ele>1200.5</ele>
        <time>2019-11-01T14:08:50Z</time>
      </trkpt>
      <trkpt lat="43.93837" lon="6.41496">
        <ele>1200.1</ele>
        <time>2019-11-01T14:08:52Z</time>
      </trkpt>
      <trkpt lat="43.93839" lon="6.41494">
        <ele>1200</ele>
        <time>2019-11-01T14:08:54Z</time>
      </trkpt>
      <trkpt lat="43.93844" lon="6.41491">
        <ele>1199.9</ele>
        <time>2019-11-01T14:08:56Z</time>
      </trkpt>
      <trkpt lat="43.93847" lon="6.41488">
        <ele>1199.8</ele>
        <time>2019-11-01T14:08:59Z</time>
      </trkpt>
      <trkpt lat="43.93853" lon="6.41487">
        <ele>1199.7</ele>
        <time>2019-11-01T14:09:47Z</time>
      </trkpt>
      <trkpt lat="43.93856" lon="6.41484">
        <ele>1199.3</ele>
        <time>2019-11-01T14:09:49Z</time>
      </trkpt>
      <trkpt lat="43.93859" lon="6.41483">
        <ele>1198.8</ele>
        <time>2019-11-01T14:09:51Z</time>
      </trkpt>
      <trkpt lat="43.93864" lon="6.41481">
        <ele>1198.6</ele>
        <time>2019-11-01T14:09:54Z</time>
      </trkpt>
      <trkpt lat="43.9387" lon="6.41479">
        <ele>1198.3</ele>
        <time>2019-11-01T14:09:56Z</time>
      </trkpt>
      <trkpt lat="43.93872" lon="6.41479">
        <ele>1198.1</ele>
        <time>2019-11-01T14:09:57Z</time>
      </trkpt>
      <trkpt lat="43.93877" lon="6.41479">
        <ele>1197.8</ele>
        <time>2019-11-01T14:10:00Z</time>
      </trkpt>
      <trkpt lat="43.9388" lon="6.41478">
        <ele>1197.6</ele>
        <time>2019-11-01T14:10:01Z</time>
      </trkpt>
      <trkpt lat="43.93883" lon="6.41477">
        <ele>1197.4</ele>
        <time>2019-11-01T14:10:03Z</time>
      </trkpt>
      <trkpt lat="43.93887" lon="6.41475">
        <ele>1197.2</ele>
        <time>2019-11-01T14:10:05Z</time>
      </trkpt>
      <trkpt lat="43.93891" lon="6.41472">
        <ele>1197</ele>
        <time>2019-11-01T14:10:07Z</time>
      </trkpt>
      <trkpt lat="43.93895" lon="6.41469">
        <ele>1196.7</ele>
        <time>2019-11-01T14:10:09Z</time>
      </trkpt>
      <trkpt lat="43.939" lon="6.41467">
        <ele>1196.4</ele>
        <time>2019-11-01T14:10:12Z</time>
      </trkpt>
      <trkpt lat="43.93903" lon="6.41465">
        <ele>1196.2</ele>
        <time>2019-11-01T14:10:13Z</time>
      </trkpt>
      <trkpt lat="43.93909" lon="6.41461">
        <ele>1195.9</ele>
        <time>2019-11-01T14:10:17Z</time>
      </trkpt>
      <trkpt lat="43.93914" lon="6.41456">
        <ele>1195.6</ele>
        <time>2019-11-01T14:10:19Z</time>
      </trkpt>
      <trkpt lat="43.93918" lon="6.41452">
        <ele>1195.6</ele>
        <time>2019-11-01T14:10:22Z</time>
      </trkpt>
      <trkpt lat="43.93921" lon="6.41451">
        <ele>1195.6</ele>
        <time>2019-11-01T14:10:23Z</time>
      </trkpt>
      <trkpt lat="43.93924" lon="6.41449">
        <ele>1195.6</ele>
        <time>2019-11-01T14:10:25Z</time>
      </trkpt>
      <trkpt lat="43.93926" lon="6.41446">
        <ele>1195.6</ele>
        <time>2019-11-01T14:10:27Z</time>
      </trkpt>
      <trkpt lat="43.93929" lon="6.41444">
        <ele>1195.5</ele>
        <time>2019-11-01T14:10:28Z</time>
      </trkpt>
      <trkpt lat="43.93933" lon="6.41441">
        <ele>1195.6</ele>
        <time>2019-11-01T14:10:30Z</time>
      </trkpt>
      <trkpt lat="43.93937" lon="6.41438">
        <ele>1195.7</ele>
        <time>2019-11-01T14:10:33Z</time>
      </trkpt>
      <trkpt lat="43.93941" lon="6.41432">
        <ele>1195.5</ele>
        <time>2019-11-01T14:10:35Z</time>
      </trkpt>
      <trkpt lat="43.93945" lon="6.41428">
        <ele>1195.3</ele>
        <time>2019-11-01T14:10:38Z</time>
      </trkpt>
      <trkpt lat="43.93949" lon="6.41426">
        <ele>1195.1</ele>
        <time>2019-11-01T14:10:39Z</time>
      </trkpt>
      <trkpt lat="43.93951" lon="6.41424">
        <ele>1195</ele>
        <time>2019-11-01T14:10:40Z</time>
      </trkpt>
      <trkpt lat="43.93956" lon="6.4142">
        <ele>1195.4</ele>
        <time>2019-11-01T14:10:43Z</time>
      </trkpt>
      <trkpt lat="43.93958" lon="6.41418">
        <ele>1195.6</ele>
        <time>2019-11-01T14:10:45Z</time>
      </trkpt>
      <trkpt lat="43.93961" lon="6.41416">
        <ele>1195.7</ele>
        <time>2019-11-01T14:10:46Z</time>
      </trkpt>
      <trkpt lat="43.93965" lon="6.41412">
        <ele>1195.8</ele>
        <time>2019-11-01T14:10:48Z</time>
      </trkpt>
      <trkpt lat="43.93968" lon="6.41408">
        <ele>1195.8</ele>
        <time>2019-11-01T14:10:51Z</time>
      </trkpt>
      <trkpt lat="43.93972" lon="6.41404">
        <ele>1196</ele>
        <time>2019-11-01T14:10:55Z</time>
      </trkpt>
      <trkpt lat="43.93977" lon="6.41398">
        <ele>1196.6</ele>
        <time>2019-11-01T14:10:57Z</time>
      </trkpt>
      <trkpt lat="43.9398" lon="6.41395">
        <ele>1196.9</ele>
        <time>2019-11-01T14:10:59Z</time>
      </trkpt>
      <trkpt lat="43.93984" lon="6.41391">
        <ele>1197.5</ele>
        <time>2019-11-01T14:11:02Z</time>
      </trkpt>
      <trkpt lat="43.93987" lon="6.41387">
        <ele>1198</ele>
        <time>2019-11-01T14:11:03Z</time>
      </trkpt>
      <trkpt lat="43.9399" lon="6.41384">
        <ele>1197.9</ele>
        <time>2019-11-01T14:11:06Z</time>
      </trkpt>
      <trkpt lat="43.93993" lon="6.41381">
        <ele>1197.8</ele>
        <time>2019-11-01T14:11:07Z</time>
      </trkpt>
      <trkpt lat="43.93997" lon="6.41376">
        <ele>1198.3</ele>
        <time>2019-11-01T14:11:10Z</time>
      </trkpt>
      <trkpt lat="43.94" lon="6.41371">
        <ele>1199.1</ele>
        <time>2019-11-01T14:11:12Z</time>
      </trkpt>
      <trkpt lat="43.94003" lon="6.41367">
        <ele>1199.8</ele>
        <time>2019-11-01T14:11:14Z</time>
      </trkpt>
      <trkpt lat="43.94006" lon="6.41363">
        <ele>1200.5</ele>
        <time>2019-11-01T14:11:17Z</time>
      </trkpt>
      <trkpt lat="43.94009" lon="6.4136">
        <ele>1201.1</ele>
        <time>2019-11-01T14:11:18Z</time>
      </trkpt>
      <trkpt lat="43.94014" lon="6.41357">
        <ele>1201.9</ele>
        <time>2019-11-01T14:11:20Z</time>
      </trkpt>
      <trkpt lat="43.94017" lon="6.41353">
        <ele>1202.6</ele>
        <time>2019-11-01T14:11:23Z</time>
      </trkpt>
      <trkpt lat="43.9402" lon="6.41346">
        <ele>1203.2</ele>
        <time>2019-11-01T14:11:25Z</time>
      </trkpt>
      <trkpt lat="43.94024" lon="6.4134">
        <ele>1203.5</ele>
        <time>2019-11-01T14:11:27Z</time>
      </trkpt>
      <trkpt lat="43.94027" lon="6.41334">
        <ele>1204.3</ele>
        <time>2019-11-01T14:11:30Z</time>
      </trkpt>
      <trkpt lat="43.94031" lon="6.41328">
        <ele>1205.1</ele>
        <time>2019-11-01T14:11:33Z</time>
      </trkpt>
      <trkpt lat="43.94034" lon="6.41325">
        <ele>1205.7</ele>
        <time>2019-11-01T14:11:35Z</time>
      </trkpt>
      <trkpt lat="43.94037" lon="6.41322">
        <ele>1206.2</ele>
        <time>2019-11-01T14:11:37Z</time>
      </trkpt>
      <trkpt lat="43.94041" lon="6.41318">
        <ele>1207.1</ele>
        <time>2019-11-01T14:11:39Z</time>
      </trkpt>
      <trkpt lat="43.94046" lon="6.41312">
        <ele>1208.2</ele>
        <time>2019-11-01T14:11:43Z</time>
      </trkpt>
      <trkpt lat="43.94048" lon="6.41307">
        <ele>1208.7</ele>
        <time>2019-11-01T14:11:46Z</time>
      </trkpt>
      <trkpt lat="43.94049" lon="6.41303">
        <ele>1208.6</ele>
        <time>2019-11-01T14:11:47Z</time>
      </trkpt>
      <trkpt lat="43.9405" lon="6.41299">
        <ele>1208.6</ele>
        <time>2019-11-01T14:11:50Z</time>
      </trkpt>
      <trkpt lat="43.94051" lon="6.41295">
        <ele>1208.8</ele>
        <time>2019-11-01T14:11:53Z</time>
      </trkpt>
      <trkpt lat="43.94048" lon="6.41294">
        <ele>1209.9</ele>
        <time>2019-11-01T14:11:54Z</time>
      </trkpt>
      <trkpt lat="43.94044" lon="6.41293">
        <ele>1211.4</ele>
        <time>2019-11-01T14:11:56Z</time>
      </trkpt>
      <trkpt lat="43.94041" lon="6.41297">
        <ele>1210.9</ele>
        <time>2019-11-01T14:11:59Z</time>
      </trkpt>
      <trkpt lat="43.94038" lon="6.413">
        <ele>1210.5</ele>
        <time>2019-11-01T14:12:01Z</time>
      </trkpt>
      <trkpt lat="43.94035" lon="6.41302">
        <ele>1210.5</ele>
        <time>2019-11-01T14:12:02Z</time>
      </trkpt>
      <trkpt lat="43.94033" lon="6.41304">
        <ele>1210.5</ele>
        <time>2019-11-01T14:12:05Z</time>
      </trkpt>
      <trkpt lat="43.94029" lon="6.41309">
        <ele>1210.7</ele>
        <time>2019-11-01T14:12:07Z</time>
      </trkpt>
      <trkpt lat="43.94026" lon="6.41311">
        <ele>1210.8</ele>
        <time>2019-11-01T14:12:10Z</time>
      </trkpt>
      <trkpt lat="43.94023" lon="6.41313">
        <ele>1210.6</ele>
        <time>2019-11-01T14:12:11Z</time>
      </trkpt>
      <trkpt lat="43.94018" lon="6.41314">
        <ele>1209.9</ele>
        <time>2019-11-01T14:12:14Z</time>
      </trkpt>
      <trkpt lat="43.94015" lon="6.41315">
        <ele>1209.7</ele>
        <time>2019-11-01T14:12:16Z</time>
      </trkpt>
      <trkpt lat="43.94012" lon="6.41317">
        <ele>1209.8</ele>
        <time>2019-11-01T14:12:18Z</time>
      </trkpt>
      <trkpt lat="43.94009" lon="6.41319">
        <ele>1209.8</ele>
        <time>2019-11-01T14:12:19Z</time>
      </trkpt>
      <trkpt lat="43.94006" lon="6.41321">
        <ele>1209.7</ele>
        <time>2019-11-01T14:12:22Z</time>
      </trkpt>
      <trkpt lat="43.94003" lon="6.41323">
        <ele>1209.5</ele>
        <time>2019-11-01T14:12:24Z</time>
      </trkpt>
      <trkpt lat="43.93999" lon="6.41324">
        <ele>1209.4</ele>
        <time>2019-11-01T14:12:26Z</time>
      </trkpt>
      <trkpt lat="43.93996" lon="6.41326">
        <ele>1209.2</ele>
        <time>2019-11-01T14:12:28Z</time>
      </trkpt>
      <trkpt lat="43.93994" lon="6.41328">
        <ele>1209.1</ele>
        <time>2019-11-01T14:12:30Z</time>
      </trkpt>
      <trkpt lat="43.9399" lon="6.41329">
        <ele>1209</ele>
        <time>2019-11-01T14:12:32Z</time>
      </trkpt>
      <trkpt lat="43.93986" lon="6.4133">
        <ele>1208.9</ele>
        <time>2019-11-01T14:12:35Z</time>
      </trkpt>
      <trkpt lat="43.93983" lon="6.41332">
        <ele>1208.9</ele>
        <time>2019-11-01T14:12:36Z</time>
      </trkpt>
      <trkpt lat="43.93979" lon="6.41332">
        <ele>1208.8</ele>
        <time>2019-11-01T14:12:39Z</time>
      </trkpt>
      <trkpt lat="43.93976" lon="6.41333">
        <ele>1208.6</ele>
        <time>2019-11-01T14:12:40Z</time>
      </trkpt>
      <trkpt lat="43.93973" lon="6.41335">
        <ele>1208.4</ele>
        <time>2019-11-01T14:12:43Z</time>
      </trkpt>
      <trkpt lat="43.93969" lon="6.41335">
        <ele>1208.7</ele>
        <time>2019-11-01T14:12:44Z</time>
      </trkpt>
      <trkpt lat="43.93964" lon="6.41336">
        <ele>1209.3</ele>
        <time>2019-11-01T14:12:47Z</time>
      </trkpt>
      <trkpt lat="43.9396" lon="6.41338">
        <ele>1209.1</ele>
        <time>2019-11-01T14:12:50Z</time>
      </trkpt>
      <trkpt lat="43.93955" lon="6.4134">
        <ele>1208.8</ele>
        <time>2019-11-01T14:12:52Z</time>
      </trkpt>
      <trkpt lat="43.93951" lon="6.41342">
        <ele>1209.1</ele>
        <time>2019-11-01T14:12:55Z</time>
      </trkpt>
      <trkpt lat="43.93948" lon="6.41344">
        <ele>1209.5</ele>
        <time>2019-11-01T14:12:57Z</time>
      </trkpt>
      <trkpt lat="43.93943" lon="6.41345">
        <ele>1209.5</ele>
        <time>2019-11-01T14:13:00Z</time>
      </trkpt>
      <trkpt lat="43.93939" lon="6.41347">
        <ele>1209.4</ele>
        <time>2019-11-01T14:13:03Z</time>
      </trkpt>
      <trkpt lat="43.93933" lon="6.41348">
        <ele>1209.7</ele>
        <time>2019-11-01T14:13:06Z</time>
      </trkpt>
      <trkpt lat="43.93928" lon="6.4135">
        <ele>1210</ele>
        <time>2019-11-01T14:13:08Z</time>
      </trkpt>
      <trkpt lat="43.93924" lon="6.41351">
        <ele>1210.5</ele>
        <time>2019-11-01T14:13:11Z</time>
      </trkpt>
      <trkpt lat="43.93919" lon="6.41352">
        <ele>1210.9</ele>
        <time>2019-11-01T14:13:14Z</time>
      </trkpt>
      <trkpt lat="43.93914" lon="6.41354">
        <ele>1211.2</ele>
        <time>2019-11-01T14:13:16Z</time>
      </trkpt>
      <trkpt lat="43.93911" lon="6.41355">
        <ele>1211.7</ele>
        <time>2019-11-01T14:13:18Z</time>
      </trkpt>
      <trkpt lat="43.93907" lon="6.41356">
        <ele>1212.8</ele>
        <time>2019-11-01T14:13:21Z</time>
      </trkpt>
      <trkpt lat="43.93902" lon="6.41357">
        <ele>1213.7</ele>
        <time>2019-11-01T14:13:24Z</time>
      </trkpt>
      <trkpt lat="43.93899" lon="6.41358">
        <ele>1214</ele>
        <time>2019-11-01T14:13:25Z</time>
      </trkpt>
      <trkpt lat="43.93896" lon="6.4136">
        <ele>1214.3</ele>
        <time>2019-11-01T14:13:28Z</time>
      </trkpt>
      <trkpt lat="43.93893" lon="6.41361">
        <ele>1214.8</ele>
        <time>2019-11-01T14:13:29Z</time>
      </trkpt>
      <trkpt lat="43.93888" lon="6.41361">
        <ele>1215.6</ele>
        <time>2019-11-01T14:13:32Z</time>
      </trkpt>
      <trkpt lat="43.93883" lon="6.41361">
        <ele>1216.8</ele>
        <time>2019-11-01T14:13:34Z</time>
      </trkpt>
      <trkpt lat="43.93879" lon="6.41363">
        <ele>1218</ele>
        <time>2019-11-01T14:13:37Z</time>
      </trkpt>
      <trkpt lat="43.93874" lon="6.41364">
        <ele>1219.2</ele>
        <time>2019-11-01T14:13:40Z</time>
      </trkpt>
      <trkpt lat="43.93869" lon="6.41365">
        <ele>1220.5</ele>
        <time>2019-11-01T14:13:42Z</time>
      </trkpt>
      <trkpt lat="43.93865" lon="6.41366">
        <ele>1221.4</ele>
        <time>2019-11-01T14:13:45Z</time>
      </trkpt>
      <trkpt lat="43.93862" lon="6.41366">
        <ele>1222.2</ele>
        <time>2019-11-01T14:13:47Z</time>
      </trkpt>
      <trkpt lat="43.93856" lon="6.41366">
        <ele>1222.2</ele>
        <time>2019-11-01T14:13:49Z</time>
      </trkpt>
      <trkpt lat="43.93853" lon="6.41366">
        <ele>1222.1</ele>
        <time>2019-11-01T14:13:52Z</time>
      </trkpt>
      <trkpt lat="43.93849" lon="6.41366">
        <ele>1222.9</ele>
        <time>2019-11-01T14:13:54Z</time>
      </trkpt>
      <trkpt lat="43.93845" lon="6.41365">
        <ele>1223.9</ele>
        <time>2019-11-01T14:13:56Z</time>
      </trkpt>
      <trkpt lat="43.9384" lon="6.41365">
        <ele>1225.1</ele>
        <time>2019-11-01T14:13:59Z</time>
      </trkpt>
      <trkpt lat="43.93836" lon="6.41365">
        <ele>1226.1</ele>
        <time>2019-11-01T14:14:01Z</time>
      </trkpt>
      <trkpt lat="43.9383" lon="6.41364">
        <ele>1227.1</ele>
        <time>2019-11-01T14:14:04Z</time>
      </trkpt>
      <trkpt lat="43.93826" lon="6.41363">
        <ele>1227.9</ele>
        <time>2019-11-01T14:14:07Z</time>
      </trkpt>
      <trkpt lat="43.93821" lon="6.41362">
        <ele>1229.4</ele>
        <time>2019-11-01T14:14:09Z</time>
      </trkpt>
      <trkpt lat="43.93817" lon="6.41361">
        <ele>1230.6</ele>
        <time>2019-11-01T14:14:11Z</time>
      </trkpt>
      <trkpt lat="43.93813" lon="6.4136">
        <ele>1232.2</ele>
        <time>2019-11-01T14:14:14Z</time>
      </trkpt>
      <trkpt lat="43.93809" lon="6.41359">
        <ele>1234.1</ele>
        <time>2019-11-01T14:14:16Z</time>
      </trkpt>
      <trkpt lat="43.93806" lon="6.41359">
        <ele>1234.9</ele>
        <time>2019-11-01T14:14:18Z</time>
      </trkpt>
      <trkpt lat="43.93802" lon="6.41358">
        <ele>1235.7</ele>
        <time>2019-11-01T14:14:20Z</time>
      </trkpt>
      <trkpt lat="43.93797" lon="6.41356">
        <ele>1237.1</ele>
        <time>2019-11-01T14:14:23Z</time>
      </trkpt>
      <trkpt lat="43.93793" lon="6.41356">
        <ele>1238.6</ele>
        <time>2019-11-01T14:14:25Z</time>
      </trkpt>
      <trkpt lat="43.93791" lon="6.41355">
        <ele>1239.6</ele>
        <time>2019-11-01T14:14:26Z</time>
      </trkpt>
      <trkpt lat="43.93788" lon="6.41354">
        <ele>1239.9</ele>
        <time>2019-11-01T14:14:28Z</time>
      </trkpt>
      <trkpt lat="43.93784" lon="6.41352">
        <ele>1240.4</ele>
        <time>2019-11-01T14:14:30Z</time>
      </trkpt>
      <trkpt lat="43.93779" lon="6.41352">
        <ele>1241.6</ele>
        <time>2019-11-01T14:14:32Z</time>
      </trkpt>
      <trkpt lat="43.93776" lon="6.41351">
        <ele>1242.7</ele>
        <time>2019-11-01T14:14:35Z</time>
      </trkpt>
      <trkpt lat="43.93772" lon="6.4135">
        <ele>1243.8</ele>
        <time>2019-11-01T14:14:37Z</time>
      </trkpt>
      <trkpt lat="43.93767" lon="6.41348">
        <ele>1244.6</ele>
        <time>2019-11-01T14:14:39Z</time>
      </trkpt>
      <trkpt lat="43.93762" lon="6.41347">
        <ele>1245.5</ele>
        <time>2019-11-01T14:14:42Z</time>
      </trkpt>
      <trkpt lat="43.93757" lon="6.41346">
        <ele>1247</ele>
        <time>2019-11-01T14:14:45Z</time>
      </trkpt>
      <trkpt lat="43.93752" lon="6.41344">
        <ele>1248.3</ele>
        <time>2019-11-01T14:14:48Z</time>
      </trkpt>
      <trkpt lat="43.93748" lon="6.41342">
        <ele>1249.4</ele>
        <time>2019-11-01T14:14:51Z</time>
      </trkpt>
      <trkpt lat="43.93744" lon="6.41341">
        <ele>1249.7</ele>
        <time>2019-11-01T14:14:53Z</time>
      </trkpt>
      <trkpt lat="43.93739" lon="6.41339">
        <ele>1249.9</ele>
        <time>2019-11-01T14:14:56Z</time>
      </trkpt>
      <trkpt lat="43.93734" lon="6.41339">
        <ele>1250.7</ele>
        <time>2019-11-01T14:14:59Z</time>
      </trkpt>
      <trkpt lat="43.9373" lon="6.41338">
        <ele>1251.4</ele>
        <time>2019-11-01T14:15:01Z</time>
      </trkpt>
      <trkpt lat="43.93724" lon="6.41336">
        <ele>1251.5</ele>
        <time>2019-11-01T14:15:05Z</time>
      </trkpt>
      <trkpt lat="43.93721" lon="6.41336">
        <ele>1251.5</ele>
        <time>2019-11-01T14:15:06Z</time>
      </trkpt>
      <trkpt lat="43.93717" lon="6.41335">
        <ele>1251.8</ele>
        <time>2019-11-01T14:15:08Z</time>
      </trkpt>
      <trkpt lat="43.93713" lon="6.41334">
        <ele>1252.4</ele>
        <time>2019-11-01T14:15:10Z</time>
      </trkpt>
      <trkpt lat="43.93707" lon="6.41331">
        <ele>1252.5</ele>
        <time>2019-11-01T14:15:14Z</time>
      </trkpt>
      <trkpt lat="43.93704" lon="6.41331">
        <ele>1252.4</ele>
        <time>2019-11-01T14:15:16Z</time>
      </trkpt>
      <trkpt lat="43.937" lon="6.4133">
        <ele>1252.5</ele>
        <time>2019-11-01T14:15:18Z</time>
      </trkpt>
      <trkpt lat="43.93695" lon="6.41328">
        <ele>1252.9</ele>
        <time>2019-11-01T14:15:21Z</time>
      </trkpt>
      <trkpt lat="43.9369" lon="6.41326">
        <ele>1252.7</ele>
        <time>2019-11-01T14:15:23Z</time>
      </trkpt>
      <trkpt lat="43.93687" lon="6.41324">
        <ele>1252.5</ele>
        <time>2019-11-01T14:15:26Z</time>
      </trkpt>
      <trkpt lat="43.93684" lon="6.41323">
        <ele>1252.5</ele>
        <time>2019-11-01T14:15:27Z</time>
      </trkpt>
      <trkpt lat="43.93681" lon="6.41321">
        <ele>1252.9</ele>
        <time>2019-11-01T14:15:30Z</time>
      </trkpt>
      <trkpt lat="43.93678" lon="6.41319">
        <ele>1253.4</ele>
        <time>2019-11-01T14:15:32Z</time>
      </trkpt>
      <trkpt lat="43.93674" lon="6.41317">
        <ele>1253.4</ele>
        <time>2019-11-01T14:15:34Z</time>
      </trkpt>
      <trkpt lat="43.9367" lon="6.41314">
        <ele>1253.6</ele>
        <time>2019-11-01T14:15:38Z</time>
      </trkpt>
      <trkpt lat="43.93667" lon="6.41312">
        <ele>1253.6</ele>
        <time>2019-11-01T14:15:44Z</time>
      </trkpt>
      <trkpt lat="43.93664" lon="6.4131">
        <ele>1253.6</ele>
        <time>2019-11-01T14:15:48Z</time>
      </trkpt>
      <trkpt lat="43.9366" lon="6.41305">
        <ele>1253.6</ele>
        <time>2019-11-01T14:15:50Z</time>
      </trkpt>
      <trkpt lat="43.93656" lon="6.413">
        <ele>1253.6</ele>
        <time>2019-11-01T14:15:53Z</time>
      </trkpt>
      <trkpt lat="43.93653" lon="6.41295">
        <ele>1253.4</ele>
        <time>2019-11-01T14:15:55Z</time>
      </trkpt>
      <trkpt lat="43.93651" lon="6.41292">
        <ele>1253.2</ele>
        <time>2019-11-01T14:15:56Z</time>
      </trkpt>
      <trkpt lat="43.93648" lon="6.41287">
        <ele>1253.3</ele>
        <time>2019-11-01T14:15:59Z</time>
      </trkpt>
      <trkpt lat="43.93646" lon="6.41283">
        <ele>1253.3</ele>
        <time>2019-11-01T14:16:01Z</time>
      </trkpt>
      <trkpt lat="43.93643" lon="6.41277">
        <ele>1254</ele>
        <time>2019-11-01T14:16:04Z</time>
      </trkpt>
      <trkpt lat="43.93641" lon="6.41273">
        <ele>1254.6</ele>
        <time>2019-11-01T14:16:07Z</time>
      </trkpt>
      <trkpt lat="43.9364" lon="6.41269">
        <ele>1254.8</ele>
        <time>2019-11-01T14:16:08Z</time>
      </trkpt>
      <trkpt lat="43.93637" lon="6.41265">
        <ele>1254.7</ele>
        <time>2019-11-01T14:16:10Z</time>
      </trkpt>
      <trkpt lat="43.93636" lon="6.4126">
        <ele>1254.7</ele>
        <time>2019-11-01T14:16:12Z</time>
      </trkpt>
      <trkpt lat="43.93633" lon="6.41255">
        <ele>1254.8</ele>
        <time>2019-11-01T14:16:15Z</time>
      </trkpt>
      <trkpt lat="43.93631" lon="6.41252">
        <ele>1255</ele>
        <time>2019-11-01T14:16:17Z</time>
      </trkpt>
      <trkpt lat="43.93629" lon="6.41247">
        <ele>1254.9</ele>
        <time>2019-11-01T14:16:19Z</time>
      </trkpt>
      <trkpt lat="43.93627" lon="6.41241">
        <ele>1254.7</ele>
        <time>2019-11-01T14:16:21Z</time>
      </trkpt>
      <trkpt lat="43.93625" lon="6.41236">
        <ele>1254.7</ele>
        <time>2019-11-01T14:16:24Z</time>
      </trkpt>
      <trkpt lat="43.93624" lon="6.41231">
        <ele>1254.7</ele>
        <time>2019-11-01T14:16:26Z</time>
      </trkpt>
      <trkpt lat="43.93622" lon="6.41227">
        <ele>1254.4</ele>
        <time>2019-11-01T14:16:28Z</time>
      </trkpt>
      <trkpt lat="43.93619" lon="6.41221">
        <ele>1253.9</ele>
        <time>2019-11-01T14:16:31Z</time>
      </trkpt>
      <trkpt lat="43.93617" lon="6.41216">
        <ele>1253.8</ele>
        <time>2019-11-01T14:16:33Z</time>
      </trkpt>
      <trkpt lat="43.93615" lon="6.4121">
        <ele>1253.8</ele>
        <time>2019-11-01T14:16:35Z</time>
      </trkpt>
      <trkpt lat="43.93614" lon="6.41205">
        <ele>1253.8</ele>
        <time>2019-11-01T14:16:38Z</time>
      </trkpt>
      <trkpt lat="43.93611" lon="6.41201">
        <ele>1253.8</ele>
        <time>2019-11-01T14:16:40Z</time>
      </trkpt>
      <trkpt lat="43.93609" lon="6.41195">
        <ele>1253.7</ele>
        <time>2019-11-01T14:16:43Z</time>
      </trkpt>
      <trkpt lat="43.93608" lon="6.41191">
        <ele>1253.5</ele>
        <time>2019-11-01T14:16:45Z</time>
      </trkpt>
      <trkpt lat="43.93606" lon="6.41185">
        <ele>1253.3</ele>
        <time>2019-11-01T14:16:47Z</time>
      </trkpt>
      <trkpt lat="43.93604" lon="6.41182">
        <ele>1253.2</ele>
        <time>2019-11-01T14:16:49Z</time>
      </trkpt>
      <trkpt lat="43.93602" lon="6.41177">
        <ele>1252.8</ele>
        <time>2019-11-01T14:16:51Z</time>
      </trkpt>
      <trkpt lat="43.936" lon="6.41172">
        <ele>1252.5</ele>
        <time>2019-11-01T14:16:53Z</time>
      </trkpt>
      <trkpt lat="43.93599" lon="6.41164">
        <ele>1251.8</ele>
        <time>2019-11-01T14:16:56Z</time>
      </trkpt>
      <trkpt lat="43.93598" lon="6.41159">
        <ele>1251.3</ele>
        <time>2019-11-01T14:16:59Z</time>
      </trkpt>
      <trkpt lat="43.93597" lon="6.41153">
        <ele>1250.7</ele>
        <time>2019-11-01T14:17:01Z</time>
      </trkpt>
      <trkpt lat="43.93597" lon="6.41149">
        <ele>1250.3</ele>
        <time>2019-11-01T14:17:03Z</time>
      </trkpt>
      <trkpt lat="43.93597" lon="6.41144">
        <ele>1249.8</ele>
        <time>2019-11-01T14:17:05Z</time>
      </trkpt>
      <trkpt lat="43.93599" lon="6.41138">
        <ele>1249.2</ele>
        <time>2019-11-01T14:17:07Z</time>
      </trkpt>
      <trkpt lat="43.93601" lon="6.41133">
        <ele>1249.2</ele>
        <time>2019-11-01T14:17:09Z</time>
      </trkpt>
      <trkpt lat="43.93603" lon="6.41128">
        <ele>1249.9</ele>
        <time>2019-11-01T14:17:12Z</time>
      </trkpt>
      <trkpt lat="43.93606" lon="6.41123">
        <ele>1250.5</ele>
        <time>2019-11-01T14:17:15Z</time>
      </trkpt>
      <trkpt lat="43.93608" lon="6.41119">
        <ele>1250.7</ele>
        <time>2019-11-01T14:17:16Z</time>
      </trkpt>
      <trkpt lat="43.93611" lon="6.41114">
        <ele>1251.4</ele>
        <time>2019-11-01T14:17:19Z</time>
      </trkpt>
      <trkpt lat="43.93614" lon="6.4111">
        <ele>1252.2</ele>
        <time>2019-11-01T14:17:21Z</time>
      </trkpt>
      <trkpt lat="43.93617" lon="6.41106">
        <ele>1252.7</ele>
        <time>2019-11-01T14:17:23Z</time>
      </trkpt>
      <trkpt lat="43.9362" lon="6.41101">
        <ele>1253</ele>
        <time>2019-11-01T14:17:26Z</time>
      </trkpt>
      <trkpt lat="43.93622" lon="6.41098">
        <ele>1253.4</ele>
        <time>2019-11-01T14:17:27Z</time>
      </trkpt>
      <trkpt lat="43.93625" lon="6.41092">
        <ele>1254.3</ele>
        <time>2019-11-01T14:17:30Z</time>
      </trkpt>
      <trkpt lat="43.93628" lon="6.41087">
        <ele>1254.8</ele>
        <time>2019-11-01T14:17:34Z</time>
      </trkpt>
      <trkpt lat="43.9363" lon="6.41083">
        <ele>1255</ele>
        <time>2019-11-01T14:17:36Z</time>
      </trkpt>
      <trkpt lat="43.93633" lon="6.41077">
        <ele>1255.5</ele>
        <time>2019-11-01T14:17:38Z</time>
      </trkpt>
      <trkpt lat="43.93635" lon="6.41071">
        <ele>1256</ele>
        <time>2019-11-01T14:17:42Z</time>
      </trkpt>
      <trkpt lat="43.93636" lon="6.41067">
        <ele>1256.4</ele>
        <time>2019-11-01T14:17:44Z</time>
      </trkpt>
      <trkpt lat="43.93637" lon="6.41063">
        <ele>1256.8</ele>
        <time>2019-11-01T14:17:46Z</time>
      </trkpt>
      <trkpt lat="43.93639" lon="6.41055">
        <ele>1258.1</ele>
        <time>2019-11-01T14:17:49Z</time>
      </trkpt>
      <trkpt lat="43.9364" lon="6.41051">
        <ele>1259.2</ele>
        <time>2019-11-01T14:17:50Z</time>
      </trkpt>
      <trkpt lat="43.93643" lon="6.41044">
        <ele>1260.3</ele>
        <time>2019-11-01T14:17:53Z</time>
      </trkpt>
      <trkpt lat="43.93645" lon="6.41038">
        <ele>1261.1</ele>
        <time>2019-11-01T14:17:56Z</time>
      </trkpt>
      <trkpt lat="43.93646" lon="6.41032">
        <ele>1261.9</ele>
        <time>2019-11-01T14:17:59Z</time>
      </trkpt>
      <trkpt lat="43.93648" lon="6.41026">
        <ele>1262.8</ele>
        <time>2019-11-01T14:18:02Z</time>
      </trkpt>
      <trkpt lat="43.93649" lon="6.41021">
        <ele>1263.5</ele>
        <time>2019-11-01T14:18:03Z</time>
      </trkpt>
      <trkpt lat="43.93649" lon="6.41016">
        <ele>1264.1</ele>
        <time>2019-11-01T14:18:06Z</time>
      </trkpt>
      <trkpt lat="43.9365" lon="6.4101">
        <ele>1264.9</ele>
        <time>2019-11-01T14:18:08Z</time>
      </trkpt>
      <trkpt lat="43.9365" lon="6.41005">
        <ele>1265.4</ele>
        <time>2019-11-01T14:18:10Z</time>
      </trkpt>
      <trkpt lat="43.93652" lon="6.40999">
        <ele>1265.5</ele>
        <time>2019-11-01T14:18:13Z</time>
      </trkpt>
      <trkpt lat="43.93655" lon="6.40992">
        <ele>1266.1</ele>
        <time>2019-11-01T14:18:16Z</time>
      </trkpt>
      <trkpt lat="43.93656" lon="6.40984">
        <ele>1267.1</ele>
        <time>2019-11-01T14:18:18Z</time>
      </trkpt>
      <trkpt lat="43.93656" lon="6.40978">
        <ele>1267.2</ele>
        <time>2019-11-01T14:18:21Z</time>
      </trkpt>
      <trkpt lat="43.93657" lon="6.40974">
        <ele>1267.3</ele>
        <time>2019-11-01T14:18:22Z</time>
      </trkpt>
      <trkpt lat="43.93658" lon="6.40969">
        <ele>1267.4</ele>
        <time>2019-11-01T14:18:25Z</time>
      </trkpt>
      <trkpt lat="43.93658" lon="6.40965">
        <ele>1267.5</ele>
        <time>2019-11-01T14:18:26Z</time>
      </trkpt>
      <trkpt lat="43.93658" lon="6.40958">
        <ele>1268.2</ele>
        <time>2019-11-01T14:18:28Z</time>
      </trkpt>
      <trkpt lat="43.93657" lon="6.40953">
        <ele>1269.1</ele>
        <time>2019-11-01T14:18:30Z</time>
      </trkpt>
      <trkpt lat="43.93657" lon="6.40949">
        <ele>1269.6</ele>
        <time>2019-11-01T14:18:32Z</time>
      </trkpt>
      <trkpt lat="43.93657" lon="6.40943">
        <ele>1269.9</ele>
        <time>2019-11-01T14:18:34Z</time>
      </trkpt>
      <trkpt lat="43.93656" lon="6.40937">
        <ele>1270.1</ele>
        <time>2019-11-01T14:18:36Z</time>
      </trkpt>
      <trkpt lat="43.93656" lon="6.4093">
        <ele>1270.4</ele>
        <time>2019-11-01T14:18:38Z</time>
      </trkpt>
      <trkpt lat="43.93655" lon="6.40925">
        <ele>1270.6</ele>
        <time>2019-11-01T14:18:40Z</time>
      </trkpt>
      <trkpt lat="43.93655" lon="6.40919">
        <ele>1270.9</ele>
        <time>2019-11-01T14:18:43Z</time>
      </trkpt>
      <trkpt lat="43.93655" lon="6.40914">
        <ele>1270.8</ele>
        <time>2019-11-01T14:18:45Z</time>
      </trkpt>
      <trkpt lat="43.93653" lon="6.40906">
        <ele>1270.3</ele>
        <time>2019-11-01T14:18:48Z</time>
      </trkpt>
      <trkpt lat="43.93652" lon="6.40902">
        <ele>1270.5</ele>
        <time>2019-11-01T14:18:50Z</time>
      </trkpt>
      <trkpt lat="43.93651" lon="6.40897">
        <ele>1270.9</ele>
        <time>2019-11-01T14:18:51Z</time>
      </trkpt>
      <trkpt lat="43.93651" lon="6.40891">
        <ele>1271.4</ele>
        <time>2019-11-01T14:18:54Z</time>
      </trkpt>
      <trkpt lat="43.9365" lon="6.40884">
        <ele>1272</ele>
        <time>2019-11-01T14:18:57Z</time>
      </trkpt>
      <trkpt lat="43.93648" lon="6.40878">
        <ele>1271.9</ele>
        <time>2019-11-01T14:19:00Z</time>
      </trkpt>
      <trkpt lat="43.93647" lon="6.40871">
        <ele>1271.7</ele>
        <time>2019-11-01T14:19:02Z</time>
      </trkpt>
      <trkpt lat="43.93646" lon="6.40867">
        <ele>1272</ele>
        <time>2019-11-01T14:19:05Z</time>
      </trkpt>
      <trkpt lat="43.93646" lon="6.40862">
        <ele>1272.3</ele>
        <time>2019-11-01T14:19:06Z</time>
      </trkpt>
      <trkpt lat="43.93645" lon="6.40858">
        <ele>1272.3</ele>
        <time>2019-11-01T14:19:08Z</time>
      </trkpt>
      <trkpt lat="43.93644" lon="6.40852">
        <ele>1272</ele>
        <time>2019-11-01T14:19:11Z</time>
      </trkpt>
      <trkpt lat="43.93644" lon="6.40846">
        <ele>1271.9</ele>
        <time>2019-11-01T14:19:13Z</time>
      </trkpt>
      <trkpt lat="43.93643" lon="6.4084">
        <ele>1272.1</ele>
        <time>2019-11-01T14:19:16Z</time>
      </trkpt>
      <trkpt lat="43.93643" lon="6.40836">
        <ele>1272.3</ele>
        <time>2019-11-01T14:19:18Z</time>
      </trkpt>
      <trkpt lat="43.93643" lon="6.4083">
        <ele>1272.3</ele>
        <time>2019-11-01T14:19:20Z</time>
      </trkpt>
      <trkpt lat="43.93644" lon="6.40826">
        <ele>1272.4</ele>
        <time>2019-11-01T14:19:22Z</time>
      </trkpt>
      <trkpt lat="43.93644" lon="6.4082">
        <ele>1273</ele>
        <time>2019-11-01T14:19:25Z</time>
      </trkpt>
      <trkpt lat="43.93645" lon="6.40814">
        <ele>1273.3</ele>
        <time>2019-11-01T14:19:27Z</time>
      </trkpt>
      <trkpt lat="43.93646" lon="6.40808">
        <ele>1273.2</ele>
        <time>2019-11-01T14:19:29Z</time>
      </trkpt>
      <trkpt lat="43.93647" lon="6.40804">
        <ele>1273.3</ele>
        <time>2019-11-01T14:19:31Z</time>
      </trkpt>
      <trkpt lat="43.93648" lon="6.408">
        <ele>1273.5</ele>
        <time>2019-11-01T14:19:32Z</time>
      </trkpt>
      <trkpt lat="43.93649" lon="6.40796">
        <ele>1273.7</ele>
        <time>2019-11-01T14:19:34Z</time>
      </trkpt>
      <trkpt lat="43.93651" lon="6.40791">
        <ele>1274</ele>
        <time>2019-11-01T14:19:36Z</time>
      </trkpt>
      <trkpt lat="43.93653" lon="6.40785">
        <ele>1274.4</ele>
        <time>2019-11-01T14:19:38Z</time>
      </trkpt>
      <trkpt lat="43.93656" lon="6.40777">
        <ele>1274.7</ele>
        <time>2019-11-01T14:19:42Z</time>
      </trkpt>
      <trkpt lat="43.93658" lon="6.40771">
        <ele>1274.5</ele>
        <time>2019-11-01T14:19:44Z</time>
      </trkpt>
      <trkpt lat="43.9366" lon="6.40766">
        <ele>1274.2</ele>
        <time>2019-11-01T14:19:47Z</time>
      </trkpt>
      <trkpt lat="43.93661" lon="6.40762">
        <ele>1274.1</ele>
        <time>2019-11-01T14:19:48Z</time>
      </trkpt>
      <trkpt lat="43.93664" lon="6.40757">
        <ele>1274.1</ele>
        <time>2019-11-01T14:19:51Z</time>
      </trkpt>
      <trkpt lat="43.93665" lon="6.40753">
        <ele>1274.1</ele>
        <time>2019-11-01T14:19:53Z</time>
      </trkpt>
      <trkpt lat="43.93667" lon="6.40749">
        <ele>1274.3</ele>
        <time>2019-11-01T14:19:55Z</time>
      </trkpt>
      <trkpt lat="43.93669" lon="6.40745">
        <ele>1274.5</ele>
        <time>2019-11-01T14:19:57Z</time>
      </trkpt>
      <trkpt lat="43.93671" lon="6.40742">
        <ele>1274.6</ele>
        <time>2019-11-01T14:19:58Z</time>
      </trkpt>
      <trkpt lat="43.93673" lon="6.40736">
        <ele>1274.6</ele>
        <time>2019-11-01T14:20:01Z</time>
      </trkpt>
      <trkpt lat="43.93675" lon="6.4073">
        <ele>1274.8</ele>
        <time>2019-11-01T14:20:04Z</time>
      </trkpt>
      <trkpt lat="43.93676" lon="6.40722">
        <ele>1275.1</ele>
        <time>2019-11-01T14:20:07Z</time>
      </trkpt>
      <trkpt lat="43.93678" lon="6.40717">
        <ele>1275</ele>
        <time>2019-11-01T14:20:09Z</time>
      </trkpt>
      <trkpt lat="43.9368" lon="6.40713">
        <ele>1275.2</ele>
        <time>2019-11-01T14:20:12Z</time>
      </trkpt>
      <trkpt lat="43.93684" lon="6.40711">
        <ele>1276.7</ele>
        <time>2019-11-01T14:20:14Z</time>
      </trkpt>
      <trkpt lat="43.93687" lon="6.40713">
        <ele>1277.8</ele>
        <time>2019-11-01T14:20:16Z</time>
      </trkpt>
      <trkpt lat="43.9369" lon="6.40716">
        <ele>1278.7</ele>
        <time>2019-11-01T14:20:17Z</time>
      </trkpt>
      <trkpt lat="43.93691" lon="6.40719">
        <ele>1280.3</ele>
        <time>2019-11-01T14:20:19Z</time>
      </trkpt>
      <trkpt lat="43.93693" lon="6.40723">
        <ele>1280.7</ele>
        <time>2019-11-01T14:20:21Z</time>
      </trkpt>
      <trkpt lat="43.93694" lon="6.4073">
        <ele>1282.4</ele>
        <time>2019-11-01T14:20:24Z</time>
      </trkpt>
      <trkpt lat="43.93694" lon="6.40734">
        <ele>1282.7</ele>
        <time>2019-11-01T14:20:26Z</time>
      </trkpt>
      <trkpt lat="43.93693" lon="6.40738">
        <ele>1281.8</ele>
        <time>2019-11-01T14:20:28Z</time>
      </trkpt>
      <trkpt lat="43.93692" lon="6.40744">
        <ele>1282.3</ele>
        <time>2019-11-01T14:20:31Z</time>
      </trkpt>
      <trkpt lat="43.93692" lon="6.4075">
        <ele>1282.6</ele>
        <time>2019-11-01T14:20:34Z</time>
      </trkpt>
      <trkpt lat="43.93691" lon="6.40756">
        <ele>1282.8</ele>
        <time>2019-11-01T14:20:37Z</time>
      </trkpt>
      <trkpt lat="43.93691" lon="6.40761">
        <ele>1283.3</ele>
        <time>2019-11-01T14:20:39Z</time>
      </trkpt>
      <trkpt lat="43.93691" lon="6.40766">
        <ele>1283.5</ele>
        <time>2019-11-01T14:20:40Z</time>
      </trkpt>
      <trkpt lat="43.93692" lon="6.4077">
        <ele>1283.7</ele>
        <time>2019-11-01T14:20:43Z</time>
      </trkpt>
      <trkpt lat="43.93696" lon="6.40773">
        <ele>1284.8</ele>
        <time>2019-11-01T14:20:46Z</time>
      </trkpt>
      <trkpt lat="43.93698" lon="6.40771">
        <ele>1285.9</ele>
        <time>2019-11-01T14:20:47Z</time>
      </trkpt>
      <trkpt lat="43.93702" lon="6.40769">
        <ele>1286.8</ele>
        <time>2019-11-01T14:20:49Z</time>
      </trkpt>
      <trkpt lat="43.93704" lon="6.40766">
        <ele>1287.8</ele>
        <time>2019-11-01T14:20:51Z</time>
      </trkpt>
      <trkpt lat="43.93706" lon="6.40763">
        <ele>1287.6</ele>
        <time>2019-11-01T14:20:52Z</time>
      </trkpt>
      <trkpt lat="43.93708" lon="6.40757">
        <ele>1288.4</ele>
        <time>2019-11-01T14:20:56Z</time>
      </trkpt>
      <trkpt lat="43.9371" lon="6.40749">
        <ele>1289</ele>
        <time>2019-11-01T14:20:59Z</time>
      </trkpt>
      <trkpt lat="43.93711" lon="6.40743">
        <ele>1288.7</ele>
        <time>2019-11-01T14:21:02Z</time>
      </trkpt>
      <trkpt lat="43.93711" lon="6.40737">
        <ele>1288.5</ele>
        <time>2019-11-01T14:21:04Z</time>
      </trkpt>
      <trkpt lat="43.93712" lon="6.40731">
        <ele>1288.2</ele>
        <time>2019-11-01T14:21:07Z</time>
      </trkpt>
      <trkpt lat="43.93711" lon="6.40727">
        <ele>1287.9</ele>
        <time>2019-11-01T14:21:09Z</time>
      </trkpt>
      <trkpt lat="43.9371" lon="6.4072">
        <ele>1287.3</ele>
        <time>2019-11-01T14:21:12Z</time>
      </trkpt>
      <trkpt lat="43.93712" lon="6.40715">
        <ele>1287.9</ele>
        <time>2019-11-01T14:21:15Z</time>
      </trkpt>
      <trkpt lat="43.93719" lon="6.40714">
        <ele>1290.2</ele>
        <time>2019-11-01T14:21:18Z</time>
      </trkpt>
      <trkpt lat="43.93724" lon="6.40717">
        <ele>1291.9</ele>
        <time>2019-11-01T14:21:21Z</time>
      </trkpt>
      <trkpt lat="43.93727" lon="6.4072">
        <ele>1292.9</ele>
        <time>2019-11-01T14:21:24Z</time>
      </trkpt>
      <trkpt lat="43.93732" lon="6.40722">
        <ele>1294.3</ele>
        <time>2019-11-01T14:21:26Z</time>
      </trkpt>
      <trkpt lat="43.93736" lon="6.40724">
        <ele>1295.4</ele>
        <time>2019-11-01T14:21:29Z</time>
      </trkpt>
      <trkpt lat="43.93738" lon="6.40726">
        <ele>1296.2</ele>
        <time>2019-11-01T14:21:31Z</time>
      </trkpt>
      <trkpt lat="43.93742" lon="6.40728">
        <ele>1297.4</ele>
        <time>2019-11-01T14:21:33Z</time>
      </trkpt>
      <trkpt lat="43.93745" lon="6.40729">
        <ele>1298.3</ele>
        <time>2019-11-01T14:21:35Z</time>
      </trkpt>
      <trkpt lat="43.93749" lon="6.4073">
        <ele>1299.6</ele>
        <time>2019-11-01T14:21:37Z</time>
      </trkpt>
      <trkpt lat="43.93753" lon="6.40732">
        <ele>1300.6</ele>
        <time>2019-11-01T14:21:40Z</time>
      </trkpt>
      <trkpt lat="43.93757" lon="6.40733">
        <ele>1301.5</ele>
        <time>2019-11-01T14:21:43Z</time>
      </trkpt>
      <trkpt lat="43.9376" lon="6.40734">
        <ele>1302</ele>
        <time>2019-11-01T14:21:45Z</time>
      </trkpt>
      <trkpt lat="43.93765" lon="6.40736">
        <ele>1302.6</ele>
        <time>2019-11-01T14:21:48Z</time>
      </trkpt>
      <trkpt lat="43.9377" lon="6.40739">
        <ele>1303.6</ele>
        <time>2019-11-01T14:21:52Z</time>
      </trkpt>
      <trkpt lat="43.93774" lon="6.4074">
        <ele>1304.5</ele>
        <time>2019-11-01T14:21:54Z</time>
      </trkpt>
      <trkpt lat="43.93778" lon="6.40741">
        <ele>1305.3</ele>
        <time>2019-11-01T14:21:57Z</time>
      </trkpt>
      <trkpt lat="43.93782" lon="6.40743">
        <ele>1306</ele>
        <time>2019-11-01T14:21:59Z</time>
      </trkpt>
      <trkpt lat="43.93784" lon="6.40745">
        <ele>1306.5</ele>
        <time>2019-11-01T14:22:01Z</time>
      </trkpt>
      <trkpt lat="43.93789" lon="6.40749">
        <ele>1307.5</ele>
        <time>2019-11-01T14:22:04Z</time>
      </trkpt>
      <trkpt lat="43.93794" lon="6.40752">
        <ele>1308.4</ele>
        <time>2019-11-01T14:22:08Z</time>
      </trkpt>
      <trkpt lat="43.93797" lon="6.40754">
        <ele>1308.9</ele>
        <time>2019-11-01T14:22:10Z</time>
      </trkpt>
      <trkpt lat="43.93799" lon="6.40758">
        <ele>1309.2</ele>
        <time>2019-11-01T14:22:11Z</time>
      </trkpt>
      <trkpt lat="43.93803" lon="6.40761">
        <ele>1309.5</ele>
        <time>2019-11-01T14:22:14Z</time>
      </trkpt>
      <trkpt lat="43.93807" lon="6.40763">
        <ele>1309.8</ele>
        <time>2019-11-01T14:22:16Z</time>
      </trkpt>
      <trkpt lat="43.93811" lon="6.40766">
        <ele>1310.1</ele>
        <time>2019-11-01T14:22:18Z</time>
      </trkpt>
      <trkpt lat="43.93815" lon="6.40769">
        <ele>1310.5</ele>
        <time>2019-11-01T14:22:22Z</time>
      </trkpt>
      <trkpt lat="43.9382" lon="6.40772">
        <ele>1311.2</ele>
        <time>2019-11-01T14:22:25Z</time>
      </trkpt>
      <trkpt lat="43.93823" lon="6.40775">
        <ele>1311.5</ele>
        <time>2019-11-01T14:22:27Z</time>
      </trkpt>
      <trkpt lat="43.93827" lon="6.40778">
        <ele>1311.7</ele>
        <time>2019-11-01T14:22:29Z</time>
      </trkpt>
      <trkpt lat="43.9383" lon="6.4078">
        <ele>1311.9</ele>
        <time>2019-11-01T14:22:32Z</time>
      </trkpt>
      <trkpt lat="43.93834" lon="6.40784">
        <ele>1312.4</ele>
        <time>2019-11-01T14:22:35Z</time>
      </trkpt>
      <trkpt lat="43.93837" lon="6.40788">
        <ele>1312.9</ele>
        <time>2019-11-01T14:22:37Z</time>
      </trkpt>
      <trkpt lat="43.93839" lon="6.40791">
        <ele>1313.3</ele>
        <time>2019-11-01T14:22:40Z</time>
      </trkpt>
      <trkpt lat="43.93844" lon="6.40797">
        <ele>1314.1</ele>
        <time>2019-11-01T14:22:43Z</time>
      </trkpt>
      <trkpt lat="43.93846" lon="6.408">
        <ele>1314.4</ele>
        <time>2019-11-01T14:22:44Z</time>
      </trkpt>
      <trkpt lat="43.93849" lon="6.40803">
        <ele>1314.7</ele>
        <time>2019-11-01T14:22:47Z</time>
      </trkpt>
      <trkpt lat="43.93852" lon="6.40805">
        <ele>1314.9</ele>
        <time>2019-11-01T14:22:48Z</time>
      </trkpt>
      <trkpt lat="43.93855" lon="6.40809">
        <ele>1315.2</ele>
        <time>2019-11-01T14:22:51Z</time>
      </trkpt>
      <trkpt lat="43.93858" lon="6.40813">
        <ele>1315.8</ele>
        <time>2019-11-01T14:22:53Z</time>
      </trkpt>
      <trkpt lat="43.93862" lon="6.40815">
        <ele>1316.1</ele>
        <time>2019-11-01T14:22:56Z</time>
      </trkpt>
      <trkpt lat="43.93865" lon="6.40818">
        <ele>1316.4</ele>
        <time>2019-11-01T14:22:58Z</time>
      </trkpt>
      <trkpt lat="43.93869" lon="6.40821">
        <ele>1316.9</ele>
        <time>2019-11-01T14:23:02Z</time>
      </trkpt>
      <trkpt lat="43.93872" lon="6.40824">
        <ele>1317.3</ele>
        <time>2019-11-01T14:23:04Z</time>
      </trkpt>
      <trkpt lat="43.93875" lon="6.40826">
        <ele>1317.7</ele>
        <time>2019-11-01T14:23:05Z</time>
      </trkpt>
      <trkpt lat="43.93878" lon="6.40829">
        <ele>1317.9</ele>
        <time>2019-11-01T14:23:08Z</time>
      </trkpt>
      <trkpt lat="43.93881" lon="6.40833">
        <ele>1318.1</ele>
        <time>2019-11-01T14:23:11Z</time>
      </trkpt>
      <trkpt lat="43.93885" lon="6.40836">
        <ele>1318.2</ele>
        <time>2019-11-01T14:23:13Z</time>
      </trkpt>
      <trkpt lat="43.93887" lon="6.40838">
        <ele>1318.3</ele>
        <time>2019-11-01T14:23:16Z</time>
      </trkpt>
      <trkpt lat="43.9389" lon="6.4084">
        <ele>1318.4</ele>
        <time>2019-11-01T14:23:18Z</time>
      </trkpt>
      <trkpt lat="43.93893" lon="6.40843">
        <ele>1318.7</ele>
        <time>2019-11-01T14:23:21Z</time>
      </trkpt>
      <trkpt lat="43.93898" lon="6.40847">
        <ele>1319.2</ele>
        <time>2019-11-01T14:23:24Z</time>
      </trkpt>
      <trkpt lat="43.93901" lon="6.4085">
        <ele>1319.4</ele>
        <time>2019-11-01T14:23:26Z</time>
      </trkpt>
      <trkpt lat="43.93904" lon="6.40854">
        <ele>1319.5</ele>
        <time>2019-11-01T14:23:28Z</time>
      </trkpt>
      <trkpt lat="43.93907" lon="6.40857">
        <ele>1319.5</ele>
        <time>2019-11-01T14:23:31Z</time>
      </trkpt>
      <trkpt lat="43.93911" lon="6.40861">
        <ele>1319.5</ele>
        <time>2019-11-01T14:23:34Z</time>
      </trkpt>
      <trkpt lat="43.93914" lon="6.40863">
        <ele>1319.6</ele>
        <time>2019-11-01T14:23:37Z</time>
      </trkpt>
      <trkpt lat="43.93918" lon="6.40864">
        <ele>1319.8</ele>
        <time>2019-11-01T14:23:40Z</time>
      </trkpt>
      <trkpt lat="43.93923" lon="6.40866">
        <ele>1319.9</ele>
        <time>2019-11-01T14:23:42Z</time>
      </trkpt>
      <trkpt lat="43.93927" lon="6.40867">
        <ele>1320</ele>
        <time>2019-11-01T14:23:45Z</time>
      </trkpt>
      <trkpt lat="43.9393" lon="6.40868">
        <ele>1320</ele>
        <time>2019-11-01T14:23:47Z</time>
      </trkpt>
      <trkpt lat="43.93934" lon="6.40868">
        <ele>1320.2</ele>
        <time>2019-11-01T14:23:50Z</time>
      </trkpt>
      <trkpt lat="43.93938" lon="6.4087">
        <ele>1320.3</ele>
        <time>2019-11-01T14:23:52Z</time>
      </trkpt>
      <trkpt lat="43.93941" lon="6.40871">
        <ele>1320.3</ele>
        <time>2019-11-01T14:23:55Z</time>
      </trkpt>
      <trkpt lat="43.93945" lon="6.40873">
        <ele>1320.1</ele>
        <time>2019-11-01T14:23:58Z</time>
      </trkpt>
      <trkpt lat="43.93948" lon="6.40874">
        <ele>1320.1</ele>
        <time>2019-11-01T14:24:00Z</time>
      </trkpt>
      <trkpt lat="43.93951" lon="6.40873">
        <ele>1320</ele>
        <time>2019-11-01T14:24:01Z</time>
      </trkpt>
      <trkpt lat="43.93954" lon="6.40869">
        <ele>1319.8</ele>
        <time>2019-11-01T14:24:04Z</time>
      </trkpt>
      <trkpt lat="43.93956" lon="6.40863">
        <ele>1319.8</ele>
        <time>2019-11-01T14:24:07Z</time>
      </trkpt>
      <trkpt lat="43.93957" lon="6.40858">
        <ele>1319.8</ele>
        <time>2019-11-01T14:24:09Z</time>
      </trkpt>
      <trkpt lat="43.93956" lon="6.40852">
        <ele>1319.8</ele>
        <time>2019-11-01T14:24:12Z</time>
      </trkpt>
      <trkpt lat="43.93956" lon="6.40845">
        <ele>1319.9</ele>
        <time>2019-11-01T14:24:15Z</time>
      </trkpt>
      <trkpt lat="43.93956" lon="6.40839">
        <ele>1319.9</ele>
        <time>2019-11-01T14:24:18Z</time>
      </trkpt>
      <trkpt lat="43.93955" lon="6.40835">
        <ele>1320.1</ele>
        <time>2019-11-01T14:24:20Z</time>
      </trkpt>
      <trkpt lat="43.93954" lon="6.40828">
        <ele>1320.3</ele>
        <time>2019-11-01T14:24:23Z</time>
      </trkpt>
      <trkpt lat="43.93953" lon="6.40823">
        <ele>1320.3</ele>
        <time>2019-11-01T14:24:26Z</time>
      </trkpt>
      <trkpt lat="43.93953" lon="6.40819">
        <ele>1320.3</ele>
        <time>2019-11-01T14:24:28Z</time>
      </trkpt>
      <trkpt lat="43.93953" lon="6.40815">
        <ele>1320.3</ele>
        <time>2019-11-01T14:24:30Z</time>
      </trkpt>
      <trkpt lat="43.93952" lon="6.4081">
        <ele>1320.3</ele>
        <time>2019-11-01T14:24:33Z</time>
      </trkpt>
      <trkpt lat="43.93952" lon="6.40806">
        <ele>1320.2</ele>
        <time>2019-11-01T14:24:37Z</time>
      </trkpt>
      <trkpt lat="43.93951" lon="6.408">
        <ele>1320.3</ele>
        <time>2019-11-01T14:24:41Z</time>
      </trkpt>
      <trkpt lat="43.93951" lon="6.40796">
        <ele>1320.4</ele>
        <time>2019-11-01T14:24:44Z</time>
      </trkpt>
      <trkpt lat="43.9395" lon="6.40791">
        <ele>1320.2</ele>
        <time>2019-11-01T14:24:47Z</time>
      </trkpt>
      <trkpt lat="43.9395" lon="6.40787">
        <ele>1320.2</ele>
        <time>2019-11-01T14:24:49Z</time>
      </trkpt>
      <trkpt lat="43.9395" lon="6.40781">
        <ele>1320.2</ele>
        <time>2019-11-01T14:24:50Z</time>
      </trkpt>
      <trkpt lat="43.93948" lon="6.40774">
        <ele>1320.5</ele>
        <time>2019-11-01T14:24:52Z</time>
      </trkpt>
      <trkpt lat="43.93946" lon="6.40768">
        <ele>1320.6</ele>
        <time>2019-11-01T14:24:54Z</time>
      </trkpt>
      <trkpt lat="43.93943" lon="6.40763">
        <ele>1320.7</ele>
        <time>2019-11-01T14:24:57Z</time>
      </trkpt>
      <trkpt lat="43.9394" lon="6.40759">
        <ele>1320.8</ele>
        <time>2019-11-01T14:25:00Z</time>
      </trkpt>
      <trkpt lat="43.93937" lon="6.40755">
        <ele>1320.9</ele>
        <time>2019-11-01T14:25:02Z</time>
      </trkpt>
      <trkpt lat="43.93933" lon="6.40754">
        <ele>1320.9</ele>
        <time>2019-11-01T14:25:04Z</time>
      </trkpt>
      <trkpt lat="43.93931" lon="6.40753">
        <ele>1320.9</ele>
        <time>2019-11-01T14:25:05Z</time>
      </trkpt>
      <trkpt lat="43.93927" lon="6.40751">
        <ele>1321</ele>
        <time>2019-11-01T14:25:08Z</time>
      </trkpt>
      <trkpt lat="43.93923" lon="6.40751">
        <ele>1321.2</ele>
        <time>2019-11-01T14:25:10Z</time>
      </trkpt>
      <trkpt lat="43.93918" lon="6.40751">
        <ele>1321.4</ele>
        <time>2019-11-01T14:25:13Z</time>
      </trkpt>
      <trkpt lat="43.93915" lon="6.40751">
        <ele>1321.6</ele>
        <time>2019-11-01T14:25:15Z</time>
      </trkpt>
      <trkpt lat="43.93912" lon="6.40751">
        <ele>1321.8</ele>
        <time>2019-11-01T14:25:17Z</time>
      </trkpt>
      <trkpt lat="43.93909" lon="6.40752">
        <ele>1321.9</ele>
        <time>2019-11-01T14:25:19Z</time>
      </trkpt>
      <trkpt lat="43.93904" lon="6.40754">
        <ele>1321.9</ele>
        <time>2019-11-01T14:25:22Z</time>
      </trkpt>
      <trkpt lat="43.93902" lon="6.40757">
        <ele>1322</ele>
        <time>2019-11-01T14:25:24Z</time>
      </trkpt>
      <trkpt lat="43.939" lon="6.4076">
        <ele>1321.9</ele>
        <time>2019-11-01T14:25:27Z</time>
      </trkpt>
      <trkpt lat="43.93899" lon="6.40765">
        <ele>1322.1</ele>
        <time>2019-11-01T14:25:29Z</time>
      </trkpt>
      <trkpt lat="43.93898" lon="6.4077">
        <ele>1322.2</ele>
        <time>2019-11-01T14:25:31Z</time>
      </trkpt>
      <trkpt lat="43.93899" lon="6.40775">
        <ele>1322.3</ele>
        <time>2019-11-01T14:25:32Z</time>
      </trkpt>
      <trkpt lat="43.93902" lon="6.4078">
        <ele>1322.5</ele>
        <time>2019-11-01T14:25:35Z</time>
      </trkpt>
      <trkpt lat="43.93906" lon="6.40783">
        <ele>1322.5</ele>
        <time>2019-11-01T14:25:38Z</time>
      </trkpt>
      <trkpt lat="43.9391" lon="6.40786">
        <ele>1322.7</ele>
        <time>2019-11-01T14:25:41Z</time>
      </trkpt>
      <trkpt lat="43.93913" lon="6.40788">
        <ele>1322.7</ele>
        <time>2019-11-01T14:25:43Z</time>
      </trkpt>
      <trkpt lat="43.93915" lon="6.4079">
        <ele>1322.8</ele>
        <time>2019-11-01T14:25:45Z</time>
      </trkpt>
      <trkpt lat="43.93914" lon="6.40783">
        <ele>1322.8</ele>
        <time>2019-11-01T14:26:03Z</time>
      </trkpt>
      <trkpt lat="43.9391" lon="6.40782">
        <ele>1322.7</ele>
        <time>2019-11-01T14:26:05Z</time>
      </trkpt>
      <trkpt lat="43.93906" lon="6.40781">
        <ele>1322.7</ele>
        <time>2019-11-01T14:26:07Z</time>
      </trkpt>
      <trkpt lat="43.93902" lon="6.40779">
        <ele>1322.6</ele>
        <time>2019-11-01T14:26:09Z</time>
      </trkpt>
      <trkpt lat="43.93899" lon="6.40776">
        <ele>1322.5</ele>
        <time>2019-11-01T14:26:11Z</time>
      </trkpt>
      <trkpt lat="43.93896" lon="6.40771">
        <ele>1322.4</ele>
        <time>2019-11-01T14:26:13Z</time>
      </trkpt>
      <trkpt lat="43.93895" lon="6.40766">
        <ele>1322.3</ele>
        <time>2019-11-01T14:26:16Z</time>
      </trkpt>
      <trkpt lat="43.93896" lon="6.40759">
        <ele>1321.7</ele>
        <time>2019-11-01T14:26:18Z</time>
      </trkpt>
      <trkpt lat="43.93897" lon="6.40755">
        <ele>1321.4</ele>
        <time>2019-11-01T14:26:19Z</time>
      </trkpt>
      <trkpt lat="43.939" lon="6.40753">
        <ele>1321.3</ele>
        <time>2019-11-01T14:26:21Z</time>
      </trkpt>
      <trkpt lat="43.93911" lon="6.40751">
        <ele>1322.4</ele>
        <time>2019-11-01T14:29:59Z</time>
      </trkpt>
      <trkpt lat="43.93915" lon="6.4075">
        <ele>1322.8</ele>
        <time>2019-11-01T14:30:01Z</time>
      </trkpt>
      <trkpt lat="43.93921" lon="6.40749">
        <ele>1322.9</ele>
        <time>2019-11-01T14:30:02Z</time>
      </trkpt>
      <trkpt lat="43.93925" lon="6.40749">
        <ele>1323</ele>
        <time>2019-11-01T14:30:03Z</time>
      </trkpt>
      <trkpt lat="43.93929" lon="6.4075">
        <ele>1323</ele>
        <time>2019-11-01T14:30:04Z</time>
      </trkpt>
      <trkpt lat="43.93934" lon="6.40751">
        <ele>1323</ele>
        <time>2019-11-01T14:30:05Z</time>
      </trkpt>
      <trkpt lat="43.93938" lon="6.40754">
        <ele>1322.9</ele>
        <time>2019-11-01T14:30:07Z</time>
      </trkpt>
      <trkpt lat="43.93941" lon="6.40756">
        <ele>1322.8</ele>
        <time>2019-11-01T14:30:08Z</time>
      </trkpt>
      <trkpt lat="43.93944" lon="6.4076">
        <ele>1322.6</ele>
        <time>2019-11-01T14:30:09Z</time>
      </trkpt>
      <trkpt lat="43.9395" lon="6.40774">
        <ele>1322</ele>
        <time>2019-11-01T14:30:11Z</time>
      </trkpt>
      <trkpt lat="43.93951" lon="6.40781">
        <ele>1321.8</ele>
        <time>2019-11-01T14:30:12Z</time>
      </trkpt>
      <trkpt lat="43.93952" lon="6.40794">
        <ele>1321.3</ele>
        <time>2019-11-01T14:30:14Z</time>
      </trkpt>
      <trkpt lat="43.93953" lon="6.40801">
        <ele>1320.8</ele>
        <time>2019-11-01T14:30:15Z</time>
      </trkpt>
      <trkpt lat="43.93954" lon="6.40809">
        <ele>1320.4</ele>
        <time>2019-11-01T14:30:16Z</time>
      </trkpt>
      <trkpt lat="43.93957" lon="6.40825">
        <ele>1319.9</ele>
        <time>2019-11-01T14:30:18Z</time>
      </trkpt>
      <trkpt lat="43.93958" lon="6.40839">
        <ele>1319.6</ele>
        <time>2019-11-01T14:30:20Z</time>
      </trkpt>
      <trkpt lat="43.93958" lon="6.40846">
        <ele>1319.4</ele>
        <time>2019-11-01T14:30:21Z</time>
      </trkpt>
      <trkpt lat="43.93958" lon="6.40857">
        <ele>1319.3</ele>
        <time>2019-11-01T14:30:23Z</time>
      </trkpt>
      <trkpt lat="43.93957" lon="6.40863">
        <ele>1319.5</ele>
        <time>2019-11-01T14:30:25Z</time>
      </trkpt>
      <trkpt lat="43.93958" lon="6.40867">
        <ele>1319.7</ele>
        <time>2019-11-01T14:30:27Z</time>
      </trkpt>
      <trkpt lat="43.93957" lon="6.4087">
        <ele>1319.9</ele>
        <time>2019-11-01T14:30:31Z</time>
      </trkpt>
      <trkpt lat="43.93952" lon="6.40874">
        <ele>1320.2</ele>
        <time>2019-11-01T14:31:15Z</time>
      </trkpt>
      <trkpt lat="43.93946" lon="6.40875">
        <ele>1320.6</ele>
        <time>2019-11-01T14:31:19Z</time>
      </trkpt>
      <trkpt lat="43.9394" lon="6.40873">
        <ele>1320.4</ele>
        <time>2019-11-01T14:31:21Z</time>
      </trkpt>
      <trkpt lat="43.93934" lon="6.40869">
        <ele>1320.2</ele>
        <time>2019-11-01T14:31:23Z</time>
      </trkpt>
      <trkpt lat="43.93931" lon="6.40867">
        <ele>1320.4</ele>
        <time>2019-11-01T14:31:24Z</time>
      </trkpt>
      <trkpt lat="43.93922" lon="6.40864">
        <ele>1320.2</ele>
        <time>2019-11-01T14:31:26Z</time>
      </trkpt>
      <trkpt lat="43.93918" lon="6.40862">
        <ele>1319.9</ele>
        <time>2019-11-01T14:31:27Z</time>
      </trkpt>
      <trkpt lat="43.93913" lon="6.4086">
        <ele>1319.9</ele>
        <time>2019-11-01T14:31:28Z</time>
      </trkpt>
      <trkpt lat="43.93903" lon="6.40853">
        <ele>1319.9</ele>
        <time>2019-11-01T14:31:30Z</time>
      </trkpt>
      <trkpt lat="43.93898" lon="6.40849">
        <ele>1319.6</ele>
        <time>2019-11-01T14:31:31Z</time>
      </trkpt>
      <trkpt lat="43.93888" lon="6.4084">
        <ele>1318.9</ele>
        <time>2019-11-01T14:31:33Z</time>
      </trkpt>
      <trkpt lat="43.93882" lon="6.40835">
        <ele>1318.7</ele>
        <time>2019-11-01T14:31:34Z</time>
      </trkpt>
      <trkpt lat="43.93871" lon="6.40826">
        <ele>1317.3</ele>
        <time>2019-11-01T14:31:36Z</time>
      </trkpt>
      <trkpt lat="43.93865" lon="6.40821">
        <ele>1316.6</ele>
        <time>2019-11-01T14:31:37Z</time>
      </trkpt>
      <trkpt lat="43.93859" lon="6.40815">
        <ele>1316</ele>
        <time>2019-11-01T14:31:38Z</time>
      </trkpt>
      <trkpt lat="43.93854" lon="6.4081">
        <ele>1315.3</ele>
        <time>2019-11-01T14:31:39Z</time>
      </trkpt>
      <trkpt lat="43.93848" lon="6.40803">
        <ele>1314.7</ele>
        <time>2019-11-01T14:31:40Z</time>
      </trkpt>
      <trkpt lat="43.93837" lon="6.40791">
        <ele>1312.8</ele>
        <time>2019-11-01T14:31:42Z</time>
      </trkpt>
      <trkpt lat="43.9383" lon="6.40786">
        <ele>1312</ele>
        <time>2019-11-01T14:31:43Z</time>
      </trkpt>
      <trkpt lat="43.93816" lon="6.40775">
        <ele>1310.6</ele>
        <time>2019-11-01T14:31:45Z</time>
      </trkpt>
      <trkpt lat="43.93803" lon="6.40764">
        <ele>1309.4</ele>
        <time>2019-11-01T14:31:47Z</time>
      </trkpt>
      <trkpt lat="43.93797" lon="6.40759">
        <ele>1308.7</ele>
        <time>2019-11-01T14:31:48Z</time>
      </trkpt>
      <trkpt lat="43.93791" lon="6.40753">
        <ele>1307.6</ele>
        <time>2019-11-01T14:31:49Z</time>
      </trkpt>
      <trkpt lat="43.93779" lon="6.40747">
        <ele>1305.3</ele>
        <time>2019-11-01T14:31:51Z</time>
      </trkpt>
      <trkpt lat="43.93773" lon="6.40744">
        <ele>1304.1</ele>
        <time>2019-11-01T14:31:52Z</time>
      </trkpt>
      <trkpt lat="43.93766" lon="6.40742">
        <ele>1302.8</ele>
        <time>2019-11-01T14:31:53Z</time>
      </trkpt>
      <trkpt lat="43.93754" lon="6.40737">
        <ele>1300.7</ele>
        <time>2019-11-01T14:31:55Z</time>
      </trkpt>
      <trkpt lat="43.93747" lon="6.40735">
        <ele>1299</ele>
        <time>2019-11-01T14:31:56Z</time>
      </trkpt>
      <trkpt lat="43.93735" lon="6.40731">
        <ele>1295.2</ele>
        <time>2019-11-01T14:31:58Z</time>
      </trkpt>
      <trkpt lat="43.9373" lon="6.40729">
        <ele>1293.6</ele>
        <time>2019-11-01T14:31:59Z</time>
      </trkpt>
      <trkpt lat="43.93724" lon="6.40725">
        <ele>1292.2</ele>
        <time>2019-11-01T14:32:00Z</time>
      </trkpt>
      <trkpt lat="43.93716" lon="6.40719">
        <ele>1289.1</ele>
        <time>2019-11-01T14:32:02Z</time>
      </trkpt>
      <trkpt lat="43.9371" lon="6.40721">
        <ele>1287</ele>
        <time>2019-11-01T14:32:04Z</time>
      </trkpt>
      <trkpt lat="43.93707" lon="6.40725">
        <ele>1286.2</ele>
        <time>2019-11-01T14:32:05Z</time>
      </trkpt>
      <trkpt lat="43.93707" lon="6.40729">
        <ele>1286.5</ele>
        <time>2019-11-01T14:32:06Z</time>
      </trkpt>
      <trkpt lat="43.93707" lon="6.40734">
        <ele>1286.7</ele>
        <time>2019-11-01T14:32:07Z</time>
      </trkpt>
      <trkpt lat="43.93707" lon="6.40751">
        <ele>1287.4</ele>
        <time>2019-11-01T14:32:09Z</time>
      </trkpt>
      <trkpt lat="43.93705" lon="6.4076">
        <ele>1286.7</ele>
        <time>2019-11-01T14:32:10Z</time>
      </trkpt>
      <trkpt lat="43.93703" lon="6.40767">
        <ele>1285.9</ele>
        <time>2019-11-01T14:32:11Z</time>
      </trkpt>
      <trkpt lat="43.93694" lon="6.40774">
        <ele>1282.9</ele>
        <time>2019-11-01T14:32:14Z</time>
      </trkpt>
      <trkpt lat="43.93689" lon="6.4077">
        <ele>1281.5</ele>
        <time>2019-11-01T14:32:16Z</time>
      </trkpt>
      <trkpt lat="43.93687" lon="6.40761">
        <ele>1279.9</ele>
        <time>2019-11-01T14:32:17Z</time>
      </trkpt>
      <trkpt lat="43.93688" lon="6.40745">
        <ele>1279.8</ele>
        <time>2019-11-01T14:32:19Z</time>
      </trkpt>
      <trkpt lat="43.9369" lon="6.40731">
        <ele>1278.8</ele>
        <time>2019-11-01T14:32:21Z</time>
      </trkpt>
      <trkpt lat="43.9369" lon="6.40724">
        <ele>1277.9</ele>
        <time>2019-11-01T14:32:22Z</time>
      </trkpt>
      <trkpt lat="43.93687" lon="6.40712">
        <ele>1275</ele>
        <time>2019-11-01T14:32:24Z</time>
      </trkpt>
      <trkpt lat="43.93683" lon="6.40711">
        <ele>1275</ele>
        <time>2019-11-01T14:32:25Z</time>
      </trkpt>
      <trkpt lat="43.93678" lon="6.40711">
        <ele>1275</ele>
        <time>2019-11-01T14:32:26Z</time>
      </trkpt>
      <trkpt lat="43.93676" lon="6.40714">
        <ele>1274.9</ele>
        <time>2019-11-01T14:32:27Z</time>
      </trkpt>
      <trkpt lat="43.93675" lon="6.40719">
        <ele>1274.7</ele>
        <time>2019-11-01T14:32:28Z</time>
      </trkpt>
      <trkpt lat="43.93675" lon="6.40724">
        <ele>1274.6</ele>
        <time>2019-11-01T14:32:30Z</time>
      </trkpt>
      <trkpt lat="43.93671" lon="6.40742">
        <ele>1274.1</ele>
        <time>2019-11-01T14:32:32Z</time>
      </trkpt>
      <trkpt lat="43.93669" lon="6.40749">
        <ele>1274.1</ele>
        <time>2019-11-01T14:32:33Z</time>
      </trkpt>
      <trkpt lat="43.93666" lon="6.40757">
        <ele>1274.3</ele>
        <time>2019-11-01T14:32:34Z</time>
      </trkpt>
      <trkpt lat="43.9366" lon="6.40771">
        <ele>1274.5</ele>
        <time>2019-11-01T14:32:36Z</time>
      </trkpt>
      <trkpt lat="43.93652" lon="6.40786">
        <ele>1273.6</ele>
        <time>2019-11-01T14:32:38Z</time>
      </trkpt>
      <trkpt lat="43.93649" lon="6.40794">
        <ele>1273.2</ele>
        <time>2019-11-01T14:32:39Z</time>
      </trkpt>
      <trkpt lat="43.93646" lon="6.40803">
        <ele>1273.2</ele>
        <time>2019-11-01T14:32:40Z</time>
      </trkpt>
      <trkpt lat="43.93642" lon="6.4082">
        <ele>1272.3</ele>
        <time>2019-11-01T14:32:42Z</time>
      </trkpt>
      <trkpt lat="43.93642" lon="6.4084">
        <ele>1272.1</ele>
        <time>2019-11-01T14:32:44Z</time>
      </trkpt>
      <trkpt lat="43.93644" lon="6.40849">
        <ele>1272.2</ele>
        <time>2019-11-01T14:32:45Z</time>
      </trkpt>
      <trkpt lat="43.93648" lon="6.40869">
        <ele>1272.1</ele>
        <time>2019-11-01T14:32:47Z</time>
      </trkpt>
      <trkpt lat="43.9365" lon="6.4088">
        <ele>1271.2</ele>
        <time>2019-11-01T14:32:48Z</time>
      </trkpt>
      <trkpt lat="43.93655" lon="6.40901">
        <ele>1270.9</ele>
        <time>2019-11-01T14:32:50Z</time>
      </trkpt>
      <trkpt lat="43.93656" lon="6.40913">
        <ele>1270.5</ele>
        <time>2019-11-01T14:32:51Z</time>
      </trkpt>
      <trkpt lat="43.93658" lon="6.40925">
        <ele>1270</ele>
        <time>2019-11-01T14:32:52Z</time>
      </trkpt>
      <trkpt lat="43.93659" lon="6.40936">
        <ele>1269.5</ele>
        <time>2019-11-01T14:32:53Z</time>
      </trkpt>
      <trkpt lat="43.93659" lon="6.40947">
        <ele>1267.8</ele>
        <time>2019-11-01T14:32:54Z</time>
      </trkpt>
      <trkpt lat="43.93659" lon="6.40958">
        <ele>1267.3</ele>
        <time>2019-11-01T14:32:55Z</time>
      </trkpt>
      <trkpt lat="43.93657" lon="6.40981">
        <ele>1265.8</ele>
        <time>2019-11-01T14:32:57Z</time>
      </trkpt>
      <trkpt lat="43.93655" lon="6.41003">
        <ele>1264.2</ele>
        <time>2019-11-01T14:32:59Z</time>
      </trkpt>
      <trkpt lat="43.9365" lon="6.41026">
        <ele>1261.1</ele>
        <time>2019-11-01T14:33:01Z</time>
      </trkpt>
      <trkpt lat="43.93644" lon="6.41047">
        <ele>1257.4</ele>
        <time>2019-11-01T14:33:03Z</time>
      </trkpt>
      <trkpt lat="43.93641" lon="6.41058">
        <ele>1256.2</ele>
        <time>2019-11-01T14:33:04Z</time>
      </trkpt>
      <trkpt lat="43.93637" lon="6.41068">
        <ele>1255.3</ele>
        <time>2019-11-01T14:33:05Z</time>
      </trkpt>
      <trkpt lat="43.93634" lon="6.41078">
        <ele>1254.8</ele>
        <time>2019-11-01T14:33:06Z</time>
      </trkpt>
      <trkpt lat="43.9363" lon="6.41088">
        <ele>1253.6</ele>
        <time>2019-11-01T14:33:07Z</time>
      </trkpt>
      <trkpt lat="43.93621" lon="6.41106">
        <ele>1251.7</ele>
        <time>2019-11-01T14:33:09Z</time>
      </trkpt>
      <trkpt lat="43.93611" lon="6.41122">
        <ele>1249.7</ele>
        <time>2019-11-01T14:33:11Z</time>
      </trkpt>
      <trkpt lat="43.93601" lon="6.41136">
        <ele>1250</ele>
        <time>2019-11-01T14:33:13Z</time>
      </trkpt>
      <trkpt lat="43.93596" lon="6.41149">
        <ele>1251.5</ele>
        <time>2019-11-01T14:33:15Z</time>
      </trkpt>
      <trkpt lat="43.93596" lon="6.41157">
        <ele>1252.2</ele>
        <time>2019-11-01T14:33:16Z</time>
      </trkpt>
      <trkpt lat="43.93602" lon="6.41174">
        <ele>1253.3</ele>
        <time>2019-11-01T14:33:18Z</time>
      </trkpt>
      <trkpt lat="43.93605" lon="6.41182">
        <ele>1253.6</ele>
        <time>2019-11-01T14:33:19Z</time>
      </trkpt>
      <trkpt lat="43.93611" lon="6.41199">
        <ele>1253.8</ele>
        <time>2019-11-01T14:33:21Z</time>
      </trkpt>
      <trkpt lat="43.93614" lon="6.41208">
        <ele>1253.8</ele>
        <time>2019-11-01T14:33:22Z</time>
      </trkpt>
      <trkpt lat="43.93618" lon="6.41216">
        <ele>1254.5</ele>
        <time>2019-11-01T14:33:23Z</time>
      </trkpt>
      <trkpt lat="43.93626" lon="6.41236">
        <ele>1254.8</ele>
        <time>2019-11-01T14:33:25Z</time>
      </trkpt>
      <trkpt lat="43.9363" lon="6.41247">
        <ele>1254.8</ele>
        <time>2019-11-01T14:33:26Z</time>
      </trkpt>
      <trkpt lat="43.93634" lon="6.41257">
        <ele>1254.7</ele>
        <time>2019-11-01T14:33:27Z</time>
      </trkpt>
      <trkpt lat="43.93641" lon="6.41276">
        <ele>1253.3</ele>
        <time>2019-11-01T14:33:29Z</time>
      </trkpt>
      <trkpt lat="43.93645" lon="6.41283">
        <ele>1253.2</ele>
        <time>2019-11-01T14:33:30Z</time>
      </trkpt>
      <trkpt lat="43.93653" lon="6.41296">
        <ele>1253.6</ele>
        <time>2019-11-01T14:33:32Z</time>
      </trkpt>
      <trkpt lat="43.93657" lon="6.41302">
        <ele>1253.6</ele>
        <time>2019-11-01T14:33:33Z</time>
      </trkpt>
      <trkpt lat="43.93661" lon="6.41308">
        <ele>1253.6</ele>
        <time>2019-11-01T14:33:34Z</time>
      </trkpt>
      <trkpt lat="43.93671" lon="6.41316">
        <ele>1253.2</ele>
        <time>2019-11-01T14:33:36Z</time>
      </trkpt>
      <trkpt lat="43.93682" lon="6.41324">
        <ele>1252.7</ele>
        <time>2019-11-01T14:33:38Z</time>
      </trkpt>
      <trkpt lat="43.93689" lon="6.41328">
        <ele>1252.8</ele>
        <time>2019-11-01T14:33:39Z</time>
      </trkpt>
      <trkpt lat="43.93703" lon="6.41332">
        <ele>1252.6</ele>
        <time>2019-11-01T14:33:41Z</time>
      </trkpt>
      <trkpt lat="43.93718" lon="6.41335">
        <ele>1251.4</ele>
        <time>2019-11-01T14:33:43Z</time>
      </trkpt>
      <trkpt lat="43.93726" lon="6.41336">
        <ele>1250.8</ele>
        <time>2019-11-01T14:33:44Z</time>
      </trkpt>
      <trkpt lat="43.93733" lon="6.41338">
        <ele>1249.9</ele>
        <time>2019-11-01T14:33:45Z</time>
      </trkpt>
      <trkpt lat="43.9374" lon="6.4134">
        <ele>1249.4</ele>
        <time>2019-11-01T14:33:46Z</time>
      </trkpt>
      <trkpt lat="43.93754" lon="6.41344">
        <ele>1245.8</ele>
        <time>2019-11-01T14:33:48Z</time>
      </trkpt>
      <trkpt lat="43.93761" lon="6.41346">
        <ele>1244.4</ele>
        <time>2019-11-01T14:33:49Z</time>
      </trkpt>
      <trkpt lat="43.93768" lon="6.41348">
        <ele>1243</ele>
        <time>2019-11-01T14:33:50Z</time>
      </trkpt>
      <trkpt lat="43.93775" lon="6.4135">
        <ele>1240.7</ele>
        <time>2019-11-01T14:33:51Z</time>
      </trkpt>
      <trkpt lat="43.93788" lon="6.41354">
        <ele>1238</ele>
        <time>2019-11-01T14:33:53Z</time>
      </trkpt>
      <trkpt lat="43.93803" lon="6.41358">
        <ele>1233.9</ele>
        <time>2019-11-01T14:33:55Z</time>
      </trkpt>
      <trkpt lat="43.93817" lon="6.4136">
        <ele>1228.6</ele>
        <time>2019-11-01T14:33:57Z</time>
      </trkpt>
      <trkpt lat="43.93824" lon="6.41361">
        <ele>1227</ele>
        <time>2019-11-01T14:33:58Z</time>
      </trkpt>
      <trkpt lat="43.93832" lon="6.41362">
        <ele>1225.5</ele>
        <time>2019-11-01T14:33:59Z</time>
      </trkpt>
      <trkpt lat="43.93839" lon="6.41363">
        <ele>1223.8</ele>
        <time>2019-11-01T14:34:00Z</time>
      </trkpt>
      <trkpt lat="43.93846" lon="6.41363">
        <ele>1222.1</ele>
        <time>2019-11-01T14:34:01Z</time>
      </trkpt>
      <trkpt lat="43.93861" lon="6.41364">
        <ele>1221</ele>
        <time>2019-11-01T14:34:03Z</time>
      </trkpt>
      <trkpt lat="43.93868" lon="6.41365">
        <ele>1219.2</ele>
        <time>2019-11-01T14:34:04Z</time>
      </trkpt>
      <trkpt lat="43.93876" lon="6.41364">
        <ele>1217.3</ele>
        <time>2019-11-01T14:34:05Z</time>
      </trkpt>
      <trkpt lat="43.93883" lon="6.41363">
        <ele>1215.4</ele>
        <time>2019-11-01T14:34:06Z</time>
      </trkpt>
      <trkpt lat="43.93898" lon="6.41359">
        <ele>1213.6</ele>
        <time>2019-11-01T14:34:08Z</time>
      </trkpt>
      <trkpt lat="43.93906" lon="6.41356">
        <ele>1211.7</ele>
        <time>2019-11-01T14:34:09Z</time>
      </trkpt>
      <trkpt lat="43.93922" lon="6.41351">
        <ele>1210.1</ele>
        <time>2019-11-01T14:34:11Z</time>
      </trkpt>
      <trkpt lat="43.93939" lon="6.41345">
        <ele>1209.5</ele>
        <time>2019-11-01T14:34:13Z</time>
      </trkpt>
      <trkpt lat="43.93948" lon="6.41341">
        <ele>1209</ele>
        <time>2019-11-01T14:34:14Z</time>
      </trkpt>
      <trkpt lat="43.93956" lon="6.41338">
        <ele>1209.2</ele>
        <time>2019-11-01T14:34:15Z</time>
      </trkpt>
      <trkpt lat="43.93972" lon="6.41334">
        <ele>1208.6</ele>
        <time>2019-11-01T14:34:17Z</time>
      </trkpt>
      <trkpt lat="43.9398" lon="6.41332">
        <ele>1208.9</ele>
        <time>2019-11-01T14:34:18Z</time>
      </trkpt>
      <trkpt lat="43.93988" lon="6.41329">
        <ele>1209.1</ele>
        <time>2019-11-01T14:34:19Z</time>
      </trkpt>
      <trkpt lat="43.93996" lon="6.41325">
        <ele>1209.4</ele>
        <time>2019-11-01T14:34:20Z</time>
      </trkpt>
      <trkpt lat="43.94009" lon="6.41319">
        <ele>1209.7</ele>
        <time>2019-11-01T14:34:22Z</time>
      </trkpt>
      <trkpt lat="43.9402" lon="6.41312">
        <ele>1210.7</ele>
        <time>2019-11-01T14:34:24Z</time>
      </trkpt>
      <trkpt lat="43.94024" lon="6.41311">
        <ele>1210.7</ele>
        <time>2019-11-01T14:34:25Z</time>
      </trkpt>
      <trkpt lat="43.94026" lon="6.41309">
        <ele>1210.6</ele>
        <time>2019-11-01T14:34:26Z</time>
      </trkpt>
      <trkpt lat="43.94029" lon="6.41309">
        <ele>1210.6</ele>
        <time>2019-11-01T14:34:28Z</time>
      </trkpt>
      <trkpt lat="43.94033" lon="6.41306">
        <ele>1210.5</ele>
        <time>2019-11-01T14:34:53Z</time>
      </trkpt>
      <trkpt lat="43.94036" lon="6.41304">
        <ele>1210.6</ele>
        <time>2019-11-01T14:34:54Z</time>
      </trkpt>
      <trkpt lat="43.94039" lon="6.41302">
        <ele>1211</ele>
        <time>2019-11-01T14:34:55Z</time>
      </trkpt>
      <trkpt lat="43.94042" lon="6.413">
        <ele>1211.4</ele>
        <time>2019-11-01T14:34:57Z</time>
      </trkpt>
      <trkpt lat="43.94047" lon="6.41298">
        <ele>1209.8</ele>
        <time>2019-11-01T14:34:59Z</time>
      </trkpt>
      <trkpt lat="43.9405" lon="6.41296">
        <ele>1208.6</ele>
        <time>2019-11-01T14:35:02Z</time>
      </trkpt>
      <trkpt lat="43.94053" lon="6.41296">
        <ele>1208.6</ele>
        <time>2019-11-01T14:35:09Z</time>
      </trkpt>
      <trkpt lat="43.94055" lon="6.41281">
        <ele>1210.4</ele>
        <time>2019-11-01T14:37:01Z</time>
      </trkpt>
      <trkpt lat="43.94057" lon="6.41277">
        <ele>1211.7</ele>
        <time>2019-11-01T14:37:05Z</time>
      </trkpt>
      <trkpt lat="43.94058" lon="6.41273">
        <ele>1212.7</ele>
        <time>2019-11-01T14:37:12Z</time>
      </trkpt>
      <trkpt lat="43.94061" lon="6.41271">
        <ele>1214</ele>
        <time>2019-11-01T14:37:17Z</time>
      </trkpt>
      <trkpt lat="43.94063" lon="6.41266">
        <ele>1215.3</ele>
        <time>2019-11-01T14:37:26Z</time>
      </trkpt>
      <trkpt lat="43.94064" lon="6.41262">
        <ele>1216.4</ele>
        <time>2019-11-01T14:37:34Z</time>
      </trkpt>
      <trkpt lat="43.94064" lon="6.41257">
        <ele>1217.1</ele>
        <time>2019-11-01T14:37:47Z</time>
      </trkpt>
      <trkpt lat="43.94069" lon="6.41252">
        <ele>1218.1</ele>
        <time>2019-11-01T14:38:09Z</time>
      </trkpt>
      <trkpt lat="43.9407" lon="6.41249">
        <ele>1218.2</ele>
        <time>2019-11-01T14:38:13Z</time>
      </trkpt>
      <trkpt lat="43.94073" lon="6.41245">
        <ele>1218.2</ele>
        <time>2019-11-01T14:38:17Z</time>
      </trkpt>
      <trkpt lat="43.94076" lon="6.41242">
        <ele>1217.6</ele>
        <time>2019-11-01T14:38:22Z</time>
      </trkpt>
      <trkpt lat="43.94079" lon="6.41239">
        <ele>1216.9</ele>
        <time>2019-11-01T14:38:25Z</time>
      </trkpt>
      <trkpt lat="43.94083" lon="6.41237">
        <ele>1216.9</ele>
        <time>2019-11-01T14:38:29Z</time>
      </trkpt>
      <trkpt lat="43.94086" lon="6.41235">
        <ele>1217.1</ele>
        <time>2019-11-01T14:38:32Z</time>
      </trkpt>
      <trkpt lat="43.94089" lon="6.41233">
        <ele>1217.9</ele>
        <time>2019-11-01T14:38:37Z</time>
      </trkpt>
      <trkpt lat="43.94092" lon="6.41232">
        <ele>1218.8</ele>
        <time>2019-11-01T14:38:40Z</time>
      </trkpt>
      <trkpt lat="43.94095" lon="6.4123">
        <ele>1219.2</ele>
        <time>2019-11-01T14:38:44Z</time>
      </trkpt>
      <trkpt lat="43.94098" lon="6.41229">
        <ele>1219.5</ele>
        <time>2019-11-01T14:38:48Z</time>
      </trkpt>
      <trkpt lat="43.94102" lon="6.41228">
        <ele>1220</ele>
        <time>2019-11-01T14:38:57Z</time>
      </trkpt>
      <trkpt lat="43.94105" lon="6.41229">
        <ele>1220.4</ele>
        <time>2019-11-01T14:38:59Z</time>
      </trkpt>
      <trkpt lat="43.9411" lon="6.41229">
        <ele>1221</ele>
        <time>2019-11-01T14:39:03Z</time>
      </trkpt>
      <trkpt lat="43.94113" lon="6.41228">
        <ele>1221.2</ele>
        <time>2019-11-01T14:39:06Z</time>
      </trkpt>
      <trkpt lat="43.94117" lon="6.41228">
        <ele>1220.3</ele>
        <time>2019-11-01T14:39:08Z</time>
      </trkpt>
      <trkpt lat="43.94121" lon="6.41229">
        <ele>1219.5</ele>
        <time>2019-11-01T14:39:11Z</time>
      </trkpt>
      <trkpt lat="43.94125" lon="6.4123">
        <ele>1217.7</ele>
        <time>2019-11-01T14:39:13Z</time>
      </trkpt>
      <trkpt lat="43.9413" lon="6.41231">
        <ele>1216</ele>
        <time>2019-11-01T14:39:16Z</time>
      </trkpt>
      <trkpt lat="43.94133" lon="6.41231">
        <ele>1215.4</ele>
        <time>2019-11-01T14:39:17Z</time>
      </trkpt>
      <trkpt lat="43.94136" lon="6.41231">
        <ele>1214.7</ele>
        <time>2019-11-01T14:39:18Z</time>
      </trkpt>
      <trkpt lat="43.94139" lon="6.41234">
        <ele>1213.4</ele>
        <time>2019-11-01T14:39:21Z</time>
      </trkpt>
      <trkpt lat="43.94144" lon="6.41236">
        <ele>1211.3</ele>
        <time>2019-11-01T14:39:23Z</time>
      </trkpt>
      <trkpt lat="43.94146" lon="6.41238">
        <ele>1210.6</ele>
        <time>2019-11-01T14:39:25Z</time>
      </trkpt>
      <trkpt lat="43.9415" lon="6.41241">
        <ele>1209.7</ele>
        <time>2019-11-01T14:39:26Z</time>
      </trkpt>
      <trkpt lat="43.94156" lon="6.41245">
        <ele>1208</ele>
        <time>2019-11-01T14:39:28Z</time>
      </trkpt>
      <trkpt lat="43.94158" lon="6.41247">
        <ele>1207.1</ele>
        <time>2019-11-01T14:39:29Z</time>
      </trkpt>
      <trkpt lat="43.94161" lon="6.41249">
        <ele>1206.4</ele>
        <time>2019-11-01T14:39:30Z</time>
      </trkpt>
      <trkpt lat="43.94163" lon="6.41251">
        <ele>1205.9</ele>
        <time>2019-11-01T14:39:32Z</time>
      </trkpt>
      <trkpt lat="43.94166" lon="6.41253">
        <ele>1205.4</ele>
        <time>2019-11-01T14:39:33Z</time>
      </trkpt>
      <trkpt lat="43.94172" lon="6.41255">
        <ele>1203.7</ele>
        <time>2019-11-01T14:39:36Z</time>
      </trkpt>
      <trkpt lat="43.94175" lon="6.41256">
        <ele>1202.8</ele>
        <time>2019-11-01T14:39:39Z</time>
      </trkpt>
      <trkpt lat="43.94178" lon="6.41258">
        <ele>1203.3</ele>
        <time>2019-11-01T14:39:42Z</time>
      </trkpt>
      <trkpt lat="43.9418" lon="6.41259">
        <ele>1203.9</ele>
        <time>2019-11-01T14:39:47Z</time>
      </trkpt>
      <trkpt lat="43.94183" lon="6.41259">
        <ele>1204.4</ele>
        <time>2019-11-01T14:39:51Z</time>
      </trkpt>
      <trkpt lat="43.94186" lon="6.41259">
        <ele>1204.9</ele>
        <time>2019-11-01T14:39:57Z</time>
      </trkpt>
      <trkpt lat="43.94189" lon="6.41259">
        <ele>1205.5</ele>
        <time>2019-11-01T14:40:00Z</time>
      </trkpt>
      <trkpt lat="43.94192" lon="6.41258">
        <ele>1206.1</ele>
        <time>2019-11-01T14:40:04Z</time>
      </trkpt>
      <trkpt lat="43.94196" lon="6.41257">
        <ele>1206.7</ele>
        <time>2019-11-01T14:40:08Z</time>
      </trkpt>
      <trkpt lat="43.94199" lon="6.41257">
        <ele>1207.2</ele>
        <time>2019-11-01T14:40:13Z</time>
      </trkpt>
      <trkpt lat="43.94202" lon="6.41255">
        <ele>1207.6</ele>
        <time>2019-11-01T14:40:19Z</time>
      </trkpt>
      <trkpt lat="43.94206" lon="6.41253">
        <ele>1208.2</ele>
        <time>2019-11-01T14:40:24Z</time>
      </trkpt>
      <trkpt lat="43.94209" lon="6.41251">
        <ele>1208.6</ele>
        <time>2019-11-01T14:40:27Z</time>
      </trkpt>
      <trkpt lat="43.94212" lon="6.41249">
        <ele>1208.9</ele>
        <time>2019-11-01T14:40:30Z</time>
      </trkpt>
      <trkpt lat="43.94214" lon="6.41247">
        <ele>1209</ele>
        <time>2019-11-01T14:40:34Z</time>
      </trkpt>
      <trkpt lat="43.94216" lon="6.41246">
        <ele>1209.2</ele>
        <time>2019-11-01T14:40:37Z</time>
      </trkpt>
      <trkpt lat="43.9422" lon="6.41244">
        <ele>1209</ele>
        <time>2019-11-01T14:40:43Z</time>
      </trkpt>
      <trkpt lat="43.94224" lon="6.41241">
        <ele>1208.8</ele>
        <time>2019-11-01T14:40:48Z</time>
      </trkpt>
      <trkpt lat="43.94226" lon="6.4124">
        <ele>1208.8</ele>
        <time>2019-11-01T14:40:52Z</time>
      </trkpt>
      <trkpt lat="43.9423" lon="6.41237">
        <ele>1208.8</ele>
        <time>2019-11-01T14:40:55Z</time>
      </trkpt>
      <trkpt lat="43.94233" lon="6.41236">
        <ele>1208.6</ele>
        <time>2019-11-01T14:40:58Z</time>
      </trkpt>
      <trkpt lat="43.94237" lon="6.41233">
        <ele>1208.4</ele>
        <time>2019-11-01T14:41:02Z</time>
      </trkpt>
      <trkpt lat="43.94239" lon="6.41231">
        <ele>1208.1</ele>
        <time>2019-11-01T14:41:07Z</time>
      </trkpt>
      <trkpt lat="43.94242" lon="6.41229">
        <ele>1207.8</ele>
        <time>2019-11-01T14:41:16Z</time>
      </trkpt>
      <trkpt lat="43.94245" lon="6.41226">
        <ele>1207.8</ele>
        <time>2019-11-01T14:41:18Z</time>
      </trkpt>
      <trkpt lat="43.94248" lon="6.41224">
        <ele>1208.4</ele>
        <time>2019-11-01T14:41:21Z</time>
      </trkpt>
      <trkpt lat="43.9425" lon="6.41221">
        <ele>1208.9</ele>
        <time>2019-11-01T14:41:23Z</time>
      </trkpt>
      <trkpt lat="43.94252" lon="6.41217">
        <ele>1209.4</ele>
        <time>2019-11-01T14:41:27Z</time>
      </trkpt>
      <trkpt lat="43.94253" lon="6.41214">
        <ele>1209.9</ele>
        <time>2019-11-01T14:41:30Z</time>
      </trkpt>
      <trkpt lat="43.94253" lon="6.4121">
        <ele>1210.4</ele>
        <time>2019-11-01T14:41:33Z</time>
      </trkpt>
      <trkpt lat="43.94254" lon="6.41206">
        <ele>1210.4</ele>
        <time>2019-11-01T14:41:36Z</time>
      </trkpt>
      <trkpt lat="43.94255" lon="6.41199">
        <ele>1210.5</ele>
        <time>2019-11-01T14:41:39Z</time>
      </trkpt>
      <trkpt lat="43.94256" lon="6.4119">
        <ele>1210.5</ele>
        <time>2019-11-01T14:41:42Z</time>
      </trkpt>
      <trkpt lat="43.94256" lon="6.41186">
        <ele>1210.5</ele>
        <time>2019-11-01T14:41:44Z</time>
      </trkpt>
      <trkpt lat="43.94255" lon="6.41181">
        <ele>1210.1</ele>
        <time>2019-11-01T14:41:46Z</time>
      </trkpt>
      <trkpt lat="43.94254" lon="6.41175">
        <ele>1209.6</ele>
        <time>2019-11-01T14:41:50Z</time>
      </trkpt>
      <trkpt lat="43.94254" lon="6.41168">
        <ele>1209</ele>
        <time>2019-11-01T14:41:53Z</time>
      </trkpt>
      <trkpt lat="43.94255" lon="6.41162">
        <ele>1208.6</ele>
        <time>2019-11-01T14:41:56Z</time>
      </trkpt>
      <trkpt lat="43.94255" lon="6.41158">
        <ele>1208.6</ele>
        <time>2019-11-01T14:41:58Z</time>
      </trkpt>
      <trkpt lat="43.94256" lon="6.41153">
        <ele>1208.5</ele>
        <time>2019-11-01T14:42:00Z</time>
      </trkpt>
      <trkpt lat="43.94257" lon="6.41149">
        <ele>1208</ele>
        <time>2019-11-01T14:42:02Z</time>
      </trkpt>
      <trkpt lat="43.94259" lon="6.41144">
        <ele>1207.5</ele>
        <time>2019-11-01T14:42:05Z</time>
      </trkpt>
      <trkpt lat="43.94261" lon="6.41138">
        <ele>1207.3</ele>
        <time>2019-11-01T14:42:07Z</time>
      </trkpt>
      <trkpt lat="43.94263" lon="6.41133">
        <ele>1207.3</ele>
        <time>2019-11-01T14:42:10Z</time>
      </trkpt>
      <trkpt lat="43.94264" lon="6.41127">
        <ele>1207.2</ele>
        <time>2019-11-01T14:42:11Z</time>
      </trkpt>
      <trkpt lat="43.94265" lon="6.4112">
        <ele>1205.6</ele>
        <time>2019-11-01T14:42:13Z</time>
      </trkpt>
      <trkpt lat="43.94267" lon="6.41106">
        <ele>1202.9</ele>
        <time>2019-11-01T14:42:15Z</time>
      </trkpt>
      <trkpt lat="43.9427" lon="6.41091">
        <ele>1197.3</ele>
        <time>2019-11-01T14:42:16Z</time>
      </trkpt>
      <trkpt lat="43.94274" lon="6.41071">
        <ele>1190.8</ele>
        <time>2019-11-01T14:42:17Z</time>
      </trkpt>
      <trkpt lat="43.94276" lon="6.41065">
        <ele>1188.9</ele>
        <time>2019-11-01T14:42:19Z</time>
      </trkpt>
      <trkpt lat="43.94278" lon="6.41054">
        <ele>1185.8</ele>
        <time>2019-11-01T14:42:22Z</time>
      </trkpt>
      <trkpt lat="43.9428" lon="6.4105">
        <ele>1184.1</ele>
        <time>2019-11-01T14:42:23Z</time>
      </trkpt>
      <trkpt lat="43.94281" lon="6.41046">
        <ele>1182.4</ele>
        <time>2019-11-01T14:42:25Z</time>
      </trkpt>
      <trkpt lat="43.94283" lon="6.41042">
        <ele>1180.9</ele>
        <time>2019-11-01T14:42:26Z</time>
      </trkpt>
      <trkpt lat="43.94286" lon="6.41038">
        <ele>1178.9</ele>
        <time>2019-11-01T14:42:30Z</time>
      </trkpt>
      <trkpt lat="43.94288" lon="6.41034">
        <ele>1176.8</ele>
        <time>2019-11-01T14:42:33Z</time>
      </trkpt>
      <trkpt lat="43.943" lon="6.41031">
        <ele>1170.7</ele>
        <time>2019-11-01T14:43:10Z</time>
      </trkpt>
      <trkpt lat="43.94297" lon="6.41025">
        <ele>1168.9</ele>
        <time>2019-11-01T14:43:14Z</time>
      </trkpt>
      <trkpt lat="43.94295" lon="6.41018">
        <ele>1167.4</ele>
        <time>2019-11-01T14:43:17Z</time>
      </trkpt>
      <trkpt lat="43.94294" lon="6.41012">
        <ele>1166.2</ele>
        <time>2019-11-01T14:43:19Z</time>
      </trkpt>
      <trkpt lat="43.94293" lon="6.41005">
        <ele>1164.9</ele>
        <time>2019-11-01T14:43:22Z</time>
      </trkpt>
      <trkpt lat="43.94296" lon="6.41002">
        <ele>1163.8</ele>
        <time>2019-11-01T14:43:28Z</time>
      </trkpt>
      <trkpt lat="43.94296" lon="6.40998">
        <ele>1163</ele>
        <time>2019-11-01T14:43:32Z</time>
      </trkpt>
      <trkpt lat="43.94295" lon="6.40994">
        <ele>1162</ele>
        <time>2019-11-01T14:43:36Z</time>
      </trkpt>
      <trkpt lat="43.94293" lon="6.40988">
        <ele>1160.3</ele>
        <time>2019-11-01T14:43:39Z</time>
      </trkpt>
      <trkpt lat="43.94292" lon="6.40983">
        <ele>1158.8</ele>
        <time>2019-11-01T14:43:41Z</time>
      </trkpt>
      <trkpt lat="43.9429" lon="6.40977">
        <ele>1157.5</ele>
        <time>2019-11-01T14:43:43Z</time>
      </trkpt>
      <trkpt lat="43.94289" lon="6.4097">
        <ele>1156.3</ele>
        <time>2019-11-01T14:43:45Z</time>
      </trkpt>
      <trkpt lat="43.94288" lon="6.40966">
        <ele>1155.2</ele>
        <time>2019-11-01T14:43:47Z</time>
      </trkpt>
      <trkpt lat="43.94288" lon="6.40962">
        <ele>1154.1</ele>
        <time>2019-11-01T14:43:48Z</time>
      </trkpt>
      <trkpt lat="43.94285" lon="6.40944">
        <ele>1149.6</ele>
        <time>2019-11-01T14:43:50Z</time>
      </trkpt>
      <trkpt lat="43.94285" lon="6.40948">
        <ele>1149.5</ele>
        <time>2019-11-01T14:43:53Z</time>
      </trkpt>
      <trkpt lat="43.94283" lon="6.40935">
        <ele>1148.1</ele>
        <time>2019-11-01T14:43:56Z</time>
      </trkpt>
      <trkpt lat="43.94282" lon="6.40928">
        <ele>1146.7</ele>
        <time>2019-11-01T14:43:57Z</time>
      </trkpt>
      <trkpt lat="43.94278" lon="6.40905">
        <ele>1145.6</ele>
        <time>2019-11-01T14:43:59Z</time>
      </trkpt>
      <trkpt lat="43.94277" lon="6.40898">
        <ele>1146</ele>
        <time>2019-11-01T14:44:00Z</time>
      </trkpt>
      <trkpt lat="43.94275" lon="6.40884">
        <ele>1146.6</ele>
        <time>2019-11-01T14:44:02Z</time>
      </trkpt>
      <trkpt lat="43.94274" lon="6.40875">
        <ele>1146.8</ele>
        <time>2019-11-01T14:44:03Z</time>
      </trkpt>
      <trkpt lat="43.94273" lon="6.40868">
        <ele>1147.1</ele>
        <time>2019-11-01T14:44:04Z</time>
      </trkpt>
      <trkpt lat="43.94272" lon="6.4086">
        <ele>1146.5</ele>
        <time>2019-11-01T14:44:07Z</time>
      </trkpt>
      <trkpt lat="43.94272" lon="6.40855">
        <ele>1146.2</ele>
        <time>2019-11-01T14:44:09Z</time>
      </trkpt>
      <trkpt lat="43.94273" lon="6.40851">
        <ele>1146.6</ele>
        <time>2019-11-01T14:44:11Z</time>
      </trkpt>
      <trkpt lat="43.94275" lon="6.40842">
        <ele>1147.4</ele>
        <time>2019-11-01T14:44:24Z</time>
      </trkpt>
      <trkpt lat="43.94275" lon="6.40838">
        <ele>1147.9</ele>
        <time>2019-11-01T14:44:28Z</time>
      </trkpt>
      <trkpt lat="43.94274" lon="6.40834">
        <ele>1148.4</ele>
        <time>2019-11-01T14:44:32Z</time>
      </trkpt>
      <trkpt lat="43.9427" lon="6.40831">
        <ele>1148.8</ele>
        <time>2019-11-01T14:44:35Z</time>
      </trkpt>
      <trkpt lat="43.94268" lon="6.40826">
        <ele>1149.2</ele>
        <time>2019-11-01T14:44:38Z</time>
      </trkpt>
      <trkpt lat="43.94266" lon="6.40821">
        <ele>1149.6</ele>
        <time>2019-11-01T14:44:41Z</time>
      </trkpt>
      <trkpt lat="43.94264" lon="6.40815">
        <ele>1150</ele>
        <time>2019-11-01T14:44:43Z</time>
      </trkpt>
      <trkpt lat="43.94262" lon="6.40809">
        <ele>1150.5</ele>
        <time>2019-11-01T14:44:47Z</time>
      </trkpt>
      <trkpt lat="43.9426" lon="6.40804">
        <ele>1151.1</ele>
        <time>2019-11-01T14:44:50Z</time>
      </trkpt>
      <trkpt lat="43.94258" lon="6.40798">
        <ele>1151.8</ele>
        <time>2019-11-01T14:44:52Z</time>
      </trkpt>
      <trkpt lat="43.94256" lon="6.40792">
        <ele>1152.5</ele>
        <time>2019-11-01T14:44:56Z</time>
      </trkpt>
      <trkpt lat="43.94254" lon="6.40787">
        <ele>1153.3</ele>
        <time>2019-11-01T14:44:59Z</time>
      </trkpt>
      <trkpt lat="43.94253" lon="6.40783">
        <ele>1154</ele>
        <time>2019-11-01T14:45:01Z</time>
      </trkpt>
      <trkpt lat="43.94252" lon="6.40779">
        <ele>1154.6</ele>
        <time>2019-11-01T14:45:04Z</time>
      </trkpt>
      <trkpt lat="43.94252" lon="6.40773">
        <ele>1155.5</ele>
        <time>2019-11-01T14:45:07Z</time>
      </trkpt>
      <trkpt lat="43.94251" lon="6.40769">
        <ele>1156.1</ele>
        <time>2019-11-01T14:45:11Z</time>
      </trkpt>
      <trkpt lat="43.94252" lon="6.40763">
        <ele>1157.1</ele>
        <time>2019-11-01T14:45:14Z</time>
      </trkpt>
      <trkpt lat="43.94253" lon="6.40757">
        <ele>1158</ele>
        <time>2019-11-01T14:45:17Z</time>
      </trkpt>
      <trkpt lat="43.94255" lon="6.40751">
        <ele>1158.9</ele>
        <time>2019-11-01T14:45:21Z</time>
      </trkpt>
      <trkpt lat="43.94256" lon="6.40748">
        <ele>1159.4</ele>
        <time>2019-11-01T14:45:22Z</time>
      </trkpt>
      <trkpt lat="43.94258" lon="6.40741">
        <ele>1160.1</ele>
        <time>2019-11-01T14:45:26Z</time>
      </trkpt>
      <trkpt lat="43.94259" lon="6.40738">
        <ele>1160.5</ele>
        <time>2019-11-01T14:45:29Z</time>
      </trkpt>
      <trkpt lat="43.94261" lon="6.40734">
        <ele>1159.9</ele>
        <time>2019-11-01T14:45:34Z</time>
      </trkpt>
      <trkpt lat="43.94263" lon="6.4073">
        <ele>1159.2</ele>
        <time>2019-11-01T14:45:36Z</time>
      </trkpt>
      <trkpt lat="43.94265" lon="6.40722">
        <ele>1157</ele>
        <time>2019-11-01T14:45:39Z</time>
      </trkpt>
      <trkpt lat="43.94266" lon="6.40718">
        <ele>1155.2</ele>
        <time>2019-11-01T14:45:41Z</time>
      </trkpt>
      <trkpt lat="43.94267" lon="6.40712">
        <ele>1153</ele>
        <time>2019-11-01T14:45:43Z</time>
      </trkpt>
      <trkpt lat="43.94268" lon="6.40708">
        <ele>1151.6</ele>
        <time>2019-11-01T14:45:44Z</time>
      </trkpt>
      <trkpt lat="43.94269" lon="6.40703">
        <ele>1149.9</ele>
        <time>2019-11-01T14:45:46Z</time>
      </trkpt>
      <trkpt lat="43.9427" lon="6.40697">
        <ele>1148.9</ele>
        <time>2019-11-01T14:45:49Z</time>
      </trkpt>
      <trkpt lat="43.9427" lon="6.40691">
        <ele>1147.6</ele>
        <time>2019-11-01T14:45:51Z</time>
      </trkpt>
      <trkpt lat="43.94272" lon="6.40672">
        <ele>1142.8</ele>
        <time>2019-11-01T14:45:54Z</time>
      </trkpt>
      <trkpt lat="43.94272" lon="6.40659">
        <ele>1138.6</ele>
        <time>2019-11-01T14:45:56Z</time>
      </trkpt>
      <trkpt lat="43.94272" lon="6.40652">
        <ele>1136.7</ele>
        <time>2019-11-01T14:45:57Z</time>
      </trkpt>
      <trkpt lat="43.94272" lon="6.40632">
        <ele>1132.6</ele>
        <time>2019-11-01T14:45:58Z</time>
      </trkpt>
      <trkpt lat="43.94273" lon="6.40616">
        <ele>1131.1</ele>
        <time>2019-11-01T14:46:00Z</time>
      </trkpt>
      <trkpt lat="43.94273" lon="6.40604">
        <ele>1130.2</ele>
        <time>2019-11-01T14:46:01Z</time>
      </trkpt>
      <trkpt lat="43.94272" lon="6.40598">
        <ele>1129.8</ele>
        <time>2019-11-01T14:46:03Z</time>
      </trkpt>
      <trkpt lat="43.94271" lon="6.40589">
        <ele>1127.8</ele>
        <time>2019-11-01T14:46:05Z</time>
      </trkpt>
      <trkpt lat="43.94271" lon="6.40584">
        <ele>1126.4</ele>
        <time>2019-11-01T14:46:06Z</time>
      </trkpt>
      <trkpt lat="43.94271" lon="6.40576">
        <ele>1125.2</ele>
        <time>2019-11-01T14:46:09Z</time>
      </trkpt>
      <trkpt lat="43.94271" lon="6.40573">
        <ele>1124.6</ele>
        <time>2019-11-01T14:46:10Z</time>
      </trkpt>
      <trkpt lat="43.9427" lon="6.40565">
        <ele>1123.3</ele>
        <time>2019-11-01T14:46:13Z</time>
      </trkpt>
      <trkpt lat="43.94269" lon="6.4056">
        <ele>1122.4</ele>
        <time>2019-11-01T14:46:15Z</time>
      </trkpt>
      <trkpt lat="43.94267" lon="6.40553">
        <ele>1120</ele>
        <time>2019-11-01T14:46:17Z</time>
      </trkpt>
      <trkpt lat="43.94266" lon="6.40549">
        <ele>1118.7</ele>
        <time>2019-11-01T14:46:18Z</time>
      </trkpt>
      <trkpt lat="43.94264" lon="6.40543">
        <ele>1117</ele>
        <time>2019-11-01T14:46:19Z</time>
      </trkpt>
      <trkpt lat="43.94263" lon="6.40539">
        <ele>1115.9</ele>
        <time>2019-11-01T14:46:20Z</time>
      </trkpt>
      <trkpt lat="43.94261" lon="6.40534">
        <ele>1114.6</ele>
        <time>2019-11-01T14:46:23Z</time>
      </trkpt>
      <trkpt lat="43.94259" lon="6.4053">
        <ele>1113.7</ele>
        <time>2019-11-01T14:46:25Z</time>
      </trkpt>
      <trkpt lat="43.94256" lon="6.40523">
        <ele>1112.5</ele>
        <time>2019-11-01T14:46:28Z</time>
      </trkpt>
      <trkpt lat="43.94254" lon="6.40517">
        <ele>1111.6</ele>
        <time>2019-11-01T14:46:30Z</time>
      </trkpt>
      <trkpt lat="43.94251" lon="6.40511">
        <ele>1111</ele>
        <time>2019-11-01T14:46:33Z</time>
      </trkpt>
      <trkpt lat="43.94249" lon="6.40503">
        <ele>1110.6</ele>
        <time>2019-11-01T14:46:36Z</time>
      </trkpt>
      <trkpt lat="43.94248" lon="6.40488">
        <ele>1110.3</ele>
        <time>2019-11-01T14:46:38Z</time>
      </trkpt>
      <trkpt lat="43.94245" lon="6.40469">
        <ele>1107.7</ele>
        <time>2019-11-01T14:46:39Z</time>
      </trkpt>
      <trkpt lat="43.94243" lon="6.40452">
        <ele>1105.8</ele>
        <time>2019-11-01T14:46:41Z</time>
      </trkpt>
      <trkpt lat="43.94243" lon="6.40444">
        <ele>1103.8</ele>
        <time>2019-11-01T14:46:42Z</time>
      </trkpt>
      <trkpt lat="43.94242" lon="6.40438">
        <ele>1103.3</ele>
        <time>2019-11-01T14:46:44Z</time>
      </trkpt>
      <trkpt lat="43.9424" lon="6.40429">
        <ele>1102.8</ele>
        <time>2019-11-01T14:46:47Z</time>
      </trkpt>
      <trkpt lat="43.94239" lon="6.40424">
        <ele>1101.6</ele>
        <time>2019-11-01T14:46:49Z</time>
      </trkpt>
      <trkpt lat="43.94237" lon="6.4042">
        <ele>1100.4</ele>
        <time>2019-11-01T14:46:52Z</time>
      </trkpt>
      <trkpt lat="43.94236" lon="6.40414">
        <ele>1099.5</ele>
        <time>2019-11-01T14:46:55Z</time>
      </trkpt>
      <trkpt lat="43.94236" lon="6.40409">
        <ele>1098.9</ele>
        <time>2019-11-01T14:47:00Z</time>
      </trkpt>
      <trkpt lat="43.94237" lon="6.40404">
        <ele>1097.9</ele>
        <time>2019-11-01T14:47:06Z</time>
      </trkpt>
      <trkpt lat="43.94237" lon="6.404">
        <ele>1096.6</ele>
        <time>2019-11-01T14:47:11Z</time>
      </trkpt>
      <trkpt lat="43.94239" lon="6.40396">
        <ele>1095.4</ele>
        <time>2019-11-01T14:47:23Z</time>
      </trkpt>
      <trkpt lat="43.94242" lon="6.40395">
        <ele>1093.7</ele>
        <time>2019-11-01T14:47:28Z</time>
      </trkpt>
      <trkpt lat="43.94239" lon="6.40392">
        <ele>1091.9</ele>
        <time>2019-11-01T14:47:35Z</time>
      </trkpt>
      <trkpt lat="43.94241" lon="6.40389">
        <ele>1090.1</ele>
        <time>2019-11-01T14:47:40Z</time>
      </trkpt>
      <trkpt lat="43.94243" lon="6.40386">
        <ele>1088.5</ele>
        <time>2019-11-01T14:47:43Z</time>
      </trkpt>
      <trkpt lat="43.94246" lon="6.40383">
        <ele>1086.7</ele>
        <time>2019-11-01T14:47:50Z</time>
      </trkpt>
      <trkpt lat="43.94249" lon="6.4038">
        <ele>1084.7</ele>
        <time>2019-11-01T14:47:54Z</time>
      </trkpt>
      <trkpt lat="43.94251" lon="6.40379">
        <ele>1083.3</ele>
        <time>2019-11-01T14:47:58Z</time>
      </trkpt>
      <trkpt lat="43.94255" lon="6.40378">
        <ele>1081.8</ele>
        <time>2019-11-01T14:48:02Z</time>
      </trkpt>
      <trkpt lat="43.94256" lon="6.40375">
        <ele>1080.7</ele>
        <time>2019-11-01T14:48:09Z</time>
      </trkpt>
      <trkpt lat="43.94258" lon="6.40372">
        <ele>1079.5</ele>
        <time>2019-11-01T14:48:21Z</time>
      </trkpt>
      <trkpt lat="43.94261" lon="6.4037">
        <ele>1078.1</ele>
        <time>2019-11-01T14:48:32Z</time>
      </trkpt>
      <trkpt lat="43.94264" lon="6.40367">
        <ele>1076.5</ele>
        <time>2019-11-01T14:48:37Z</time>
      </trkpt>
      <trkpt lat="43.94266" lon="6.40365">
        <ele>1075.5</ele>
        <time>2019-11-01T14:48:44Z</time>
      </trkpt>
      <trkpt lat="43.94269" lon="6.40361">
        <ele>1073.8</ele>
        <time>2019-11-01T14:48:49Z</time>
      </trkpt>
      <trkpt lat="43.94268" lon="6.40355">
        <ele>1072</ele>
        <time>2019-11-01T14:48:54Z</time>
      </trkpt>
      <trkpt lat="43.94267" lon="6.40349">
        <ele>1070</ele>
        <time>2019-11-01T14:48:58Z</time>
      </trkpt>
      <trkpt lat="43.94264" lon="6.40346">
        <ele>1069</ele>
        <time>2019-11-01T14:49:03Z</time>
      </trkpt>
      <trkpt lat="43.94261" lon="6.40343">
        <ele>1067</ele>
        <time>2019-11-01T14:49:07Z</time>
      </trkpt>
      <trkpt lat="43.94257" lon="6.4034">
        <ele>1064.6</ele>
        <time>2019-11-01T14:49:10Z</time>
      </trkpt>
      <trkpt lat="43.94255" lon="6.40339">
        <ele>1063.1</ele>
        <time>2019-11-01T14:49:12Z</time>
      </trkpt>
      <trkpt lat="43.94252" lon="6.40335">
        <ele>1061.3</ele>
        <time>2019-11-01T14:49:15Z</time>
      </trkpt>
      <trkpt lat="43.9425" lon="6.40332">
        <ele>1060</ele>
        <time>2019-11-01T14:49:18Z</time>
      </trkpt>
      <trkpt lat="43.94247" lon="6.40329">
        <ele>1060.3</ele>
        <time>2019-11-01T14:49:21Z</time>
      </trkpt>
      <trkpt lat="43.94244" lon="6.40325">
        <ele>1060.7</ele>
        <time>2019-11-01T14:49:24Z</time>
      </trkpt>
      <trkpt lat="43.94241" lon="6.40321">
        <ele>1060.8</ele>
        <time>2019-11-01T14:49:26Z</time>
      </trkpt>
      <trkpt lat="43.94237" lon="6.40314">
        <ele>1060.8</ele>
        <time>2019-11-01T14:49:29Z</time>
      </trkpt>
      <trkpt lat="43.94235" lon="6.40309">
        <ele>1060.6</ele>
        <time>2019-11-01T14:49:33Z</time>
      </trkpt>
      <trkpt lat="43.94234" lon="6.40305">
        <ele>1060.4</ele>
        <time>2019-11-01T14:49:38Z</time>
      </trkpt>
      <trkpt lat="43.94232" lon="6.40301">
        <ele>1060.5</ele>
        <time>2019-11-01T14:49:43Z</time>
      </trkpt>
      <trkpt lat="43.9423" lon="6.40297">
        <ele>1060.7</ele>
        <time>2019-11-01T14:49:44Z</time>
      </trkpt>
      <trkpt lat="43.94221" lon="6.40283">
        <ele>1060.7</ele>
        <time>2019-11-01T14:49:46Z</time>
      </trkpt>
      <trkpt lat="43.94216" lon="6.40275">
        <ele>1059.8</ele>
        <time>2019-11-01T14:49:47Z</time>
      </trkpt>
      <trkpt lat="43.94215" lon="6.40268">
        <ele>1059.1</ele>
        <time>2019-11-01T14:49:49Z</time>
      </trkpt>
      <trkpt lat="43.94214" lon="6.40264">
        <ele>1058.6</ele>
        <time>2019-11-01T14:49:50Z</time>
      </trkpt>
      <trkpt lat="43.94212" lon="6.40258">
        <ele>1058.7</ele>
        <time>2019-11-01T14:49:53Z</time>
      </trkpt>
      <trkpt lat="43.94214" lon="6.40255">
        <ele>1058.8</ele>
        <time>2019-11-01T14:50:36Z</time>
      </trkpt>
      <trkpt lat="43.94208" lon="6.40247">
        <ele>1058.9</ele>
        <time>2019-11-01T14:50:39Z</time>
      </trkpt>
      <trkpt lat="43.94204" lon="6.40242">
        <ele>1058.7</ele>
        <time>2019-11-01T14:50:41Z</time>
      </trkpt>
      <trkpt lat="43.94199" lon="6.40238">
        <ele>1058.1</ele>
        <time>2019-11-01T14:50:43Z</time>
      </trkpt>
      <trkpt lat="43.94197" lon="6.40235">
        <ele>1057.4</ele>
        <time>2019-11-01T14:50:44Z</time>
      </trkpt>
      <trkpt lat="43.94195" lon="6.40231">
        <ele>1056.6</ele>
        <time>2019-11-01T14:50:45Z</time>
      </trkpt>
      <trkpt lat="43.94191" lon="6.40225">
        <ele>1054.5</ele>
        <time>2019-11-01T14:50:47Z</time>
      </trkpt>
      <trkpt lat="43.94188" lon="6.40218">
        <ele>1052.1</ele>
        <time>2019-11-01T14:50:49Z</time>
      </trkpt>
      <trkpt lat="43.94195" lon="6.40225">
        <ele>1050.1</ele>
        <time>2019-11-01T14:50:51Z</time>
      </trkpt>
      <trkpt lat="43.94197" lon="6.40228">
        <ele>1049.4</ele>
        <time>2019-11-01T14:50:54Z</time>
      </trkpt>
      <trkpt lat="43.94193" lon="6.40223">
        <ele>1048</ele>
        <time>2019-11-01T14:50:56Z</time>
      </trkpt>
      <trkpt lat="43.94187" lon="6.40217">
        <ele>1045</ele>
        <time>2019-11-01T14:51:00Z</time>
      </trkpt>
      <trkpt lat="43.94184" lon="6.40214">
        <ele>1044.2</ele>
        <time>2019-11-01T14:51:02Z</time>
      </trkpt>
      <trkpt lat="43.94181" lon="6.40211">
        <ele>1043.3</ele>
        <time>2019-11-01T14:51:06Z</time>
      </trkpt>
      <trkpt lat="43.94178" lon="6.40208">
        <ele>1043</ele>
        <time>2019-11-01T14:51:07Z</time>
      </trkpt>
      <trkpt lat="43.94169" lon="6.40192">
        <ele>1042.4</ele>
        <time>2019-11-01T14:51:08Z</time>
      </trkpt>
      <trkpt lat="43.94162" lon="6.4018">
        <ele>1041.1</ele>
        <time>2019-11-01T14:51:10Z</time>
      </trkpt>
      <trkpt lat="43.94158" lon="6.40174">
        <ele>1040.2</ele>
        <time>2019-11-01T14:51:11Z</time>
      </trkpt>
      <trkpt lat="43.94154" lon="6.40168">
        <ele>1039.9</ele>
        <time>2019-11-01T14:51:12Z</time>
      </trkpt>
      <trkpt lat="43.94151" lon="6.40166">
        <ele>1039.9</ele>
        <time>2019-11-01T14:51:16Z</time>
      </trkpt>
      <trkpt lat="43.94149" lon="6.40163">
        <ele>1040</ele>
        <time>2019-11-01T14:51:20Z</time>
      </trkpt>
      <trkpt lat="43.94149" lon="6.40158">
        <ele>1040.1</ele>
        <time>2019-11-01T14:51:25Z</time>
      </trkpt>
      <trkpt lat="43.94146" lon="6.40155">
        <ele>1040.2</ele>
        <time>2019-11-01T14:51:35Z</time>
      </trkpt>
      <trkpt lat="43.94144" lon="6.40151">
        <ele>1040.4</ele>
        <time>2019-11-01T14:51:37Z</time>
      </trkpt>
      <trkpt lat="43.94147" lon="6.40151">
        <ele>1040.6</ele>
        <time>2019-11-01T14:51:40Z</time>
      </trkpt>
      <trkpt lat="43.94148" lon="6.40147">
        <ele>1040.6</ele>
        <time>2019-11-01T14:51:43Z</time>
      </trkpt>
      <trkpt lat="43.94149" lon="6.40142">
        <ele>1040.6</ele>
        <time>2019-11-01T14:51:48Z</time>
      </trkpt>
      <trkpt lat="43.94149" lon="6.40138">
        <ele>1039.5</ele>
        <time>2019-11-01T14:51:50Z</time>
      </trkpt>
      <trkpt lat="43.9415" lon="6.40134">
        <ele>1038.3</ele>
        <time>2019-11-01T14:51:52Z</time>
      </trkpt>
      <trkpt lat="43.9415" lon="6.40129">
        <ele>1036.9</ele>
        <time>2019-11-01T14:51:55Z</time>
      </trkpt>
      <trkpt lat="43.94151" lon="6.40125">
        <ele>1036.4</ele>
        <time>2019-11-01T14:51:57Z</time>
      </trkpt>
      <trkpt lat="43.94152" lon="6.4012">
        <ele>1035.6</ele>
        <time>2019-11-01T14:52:01Z</time>
      </trkpt>
      <trkpt lat="43.94154" lon="6.40115">
        <ele>1034.5</ele>
        <time>2019-11-01T14:52:05Z</time>
      </trkpt>
      <trkpt lat="43.94156" lon="6.40109">
        <ele>1032.8</ele>
        <time>2019-11-01T14:52:08Z</time>
      </trkpt>
      <trkpt lat="43.94159" lon="6.40102">
        <ele>1031.3</ele>
        <time>2019-11-01T14:52:12Z</time>
      </trkpt>
      <trkpt lat="43.9416" lon="6.40097">
        <ele>1030.5</ele>
        <time>2019-11-01T14:52:14Z</time>
      </trkpt>
      <trkpt lat="43.94161" lon="6.40089">
        <ele>1028.7</ele>
        <time>2019-11-01T14:52:16Z</time>
      </trkpt>
      <trkpt lat="43.94163" lon="6.40085">
        <ele>1027.4</ele>
        <time>2019-11-01T14:52:18Z</time>
      </trkpt>
      <trkpt lat="43.94164" lon="6.4008">
        <ele>1025.9</ele>
        <time>2019-11-01T14:52:20Z</time>
      </trkpt>
      <trkpt lat="43.94166" lon="6.40077">
        <ele>1024.5</ele>
        <time>2019-11-01T14:52:23Z</time>
      </trkpt>
      <trkpt lat="43.94169" lon="6.40074">
        <ele>1022.7</ele>
        <time>2019-11-01T14:52:26Z</time>
      </trkpt>
      <trkpt lat="43.94172" lon="6.40071">
        <ele>1021.1</ele>
        <time>2019-11-01T14:52:29Z</time>
      </trkpt>
      <trkpt lat="43.94176" lon="6.40065">
        <ele>1019.1</ele>
        <time>2019-11-01T14:52:31Z</time>
      </trkpt>
      <trkpt lat="43.9418" lon="6.40064">
        <ele>1016.9</ele>
        <time>2019-11-01T14:52:32Z</time>
      </trkpt>
      <trkpt lat="43.94187" lon="6.40059">
        <ele>1013.2</ele>
        <time>2019-11-01T14:52:33Z</time>
      </trkpt>
      <trkpt lat="43.94197" lon="6.40049">
        <ele>1008.2</ele>
        <time>2019-11-01T14:52:35Z</time>
      </trkpt>
      <trkpt lat="43.94203" lon="6.40043">
        <ele>1005.1</ele>
        <time>2019-11-01T14:52:36Z</time>
      </trkpt>
      <trkpt lat="43.94206" lon="6.40042">
        <ele>1003.9</ele>
        <time>2019-11-01T14:52:37Z</time>
      </trkpt>
      <trkpt lat="43.94209" lon="6.40039">
        <ele>1002.1</ele>
        <time>2019-11-01T14:52:38Z</time>
      </trkpt>
      <trkpt lat="43.94211" lon="6.40031">
        <ele>999.8</ele>
        <time>2019-11-01T14:52:39Z</time>
      </trkpt>
      <trkpt lat="43.94215" lon="6.40026">
        <ele>997.4</ele>
        <time>2019-11-01T14:52:41Z</time>
      </trkpt>
      <trkpt lat="43.94218" lon="6.40021">
        <ele>995.7</ele>
        <time>2019-11-01T14:52:43Z</time>
      </trkpt>
      <trkpt lat="43.94217" lon="6.40017">
        <ele>994.5</ele>
        <time>2019-11-01T14:52:47Z</time>
      </trkpt>
      <trkpt lat="43.94238" lon="6.39986">
        <ele>980.5</ele>
        <time>2019-11-01T14:53:26Z</time>
      </trkpt>
      <trkpt lat="43.94241" lon="6.39985">
        <ele>979.1</ele>
        <time>2019-11-01T14:53:28Z</time>
      </trkpt>
      <trkpt lat="43.94244" lon="6.39983">
        <ele>977.7</ele>
        <time>2019-11-01T14:53:30Z</time>
      </trkpt>
      <trkpt lat="43.94247" lon="6.39981">
        <ele>976.4</ele>
        <time>2019-11-01T14:53:32Z</time>
      </trkpt>
      <trkpt lat="43.94251" lon="6.39976">
        <ele>974</ele>
        <time>2019-11-01T14:53:34Z</time>
      </trkpt>
      <trkpt lat="43.94254" lon="6.3997">
        <ele>971.6</ele>
        <time>2019-11-01T14:53:36Z</time>
      </trkpt>
      <trkpt lat="43.94252" lon="6.39963">
        <ele>969.1</ele>
        <time>2019-11-01T14:53:38Z</time>
      </trkpt>
      <trkpt lat="43.94252" lon="6.39959">
        <ele>967.6</ele>
        <time>2019-11-01T14:53:41Z</time>
      </trkpt>
      <trkpt lat="43.94256" lon="6.39961">
        <ele>965.9</ele>
        <time>2019-11-01T14:53:45Z</time>
      </trkpt>
      <trkpt lat="43.94259" lon="6.3996">
        <ele>964.2</ele>
        <time>2019-11-01T14:53:48Z</time>
      </trkpt>
      <trkpt lat="43.94261" lon="6.39958">
        <ele>962.9</ele>
        <time>2019-11-01T14:53:51Z</time>
      </trkpt>
      <trkpt lat="43.94266" lon="6.39956">
        <ele>960.8</ele>
        <time>2019-11-01T14:53:55Z</time>
      </trkpt>
      <trkpt lat="43.94269" lon="6.39955">
        <ele>959.1</ele>
        <time>2019-11-01T14:53:58Z</time>
      </trkpt>
      <trkpt lat="43.94273" lon="6.39955">
        <ele>957.3</ele>
        <time>2019-11-01T14:54:02Z</time>
      </trkpt>
      <trkpt lat="43.94277" lon="6.39955">
        <ele>955.6</ele>
        <time>2019-11-01T14:54:05Z</time>
      </trkpt>
      <trkpt lat="43.94281" lon="6.39953">
        <ele>954</ele>
        <time>2019-11-01T14:54:07Z</time>
      </trkpt>
      <trkpt lat="43.94284" lon="6.3995">
        <ele>952.4</ele>
        <time>2019-11-01T14:54:08Z</time>
      </trkpt>
      <trkpt lat="43.94289" lon="6.39945">
        <ele>949.5</ele>
        <time>2019-11-01T14:54:10Z</time>
      </trkpt>
      <trkpt lat="43.94294" lon="6.39943">
        <ele>947.4</ele>
        <time>2019-11-01T14:54:12Z</time>
      </trkpt>
      <trkpt lat="43.94298" lon="6.39942">
        <ele>945.7</ele>
        <time>2019-11-01T14:54:15Z</time>
      </trkpt>
      <trkpt lat="43.94306" lon="6.39941">
        <ele>943.3</ele>
        <time>2019-11-01T14:55:20Z</time>
      </trkpt>
      <trkpt lat="43.9431" lon="6.39942">
        <ele>941.9</ele>
        <time>2019-11-01T14:55:22Z</time>
      </trkpt>
      <trkpt lat="43.94312" lon="6.39942">
        <ele>940.9</ele>
        <time>2019-11-01T14:55:23Z</time>
      </trkpt>
      <trkpt lat="43.94319" lon="6.39937">
        <ele>938.4</ele>
        <time>2019-11-01T14:55:26Z</time>
      </trkpt>
      <trkpt lat="43.94321" lon="6.39936">
        <ele>937.4</ele>
        <time>2019-11-01T14:55:28Z</time>
      </trkpt>
      <trkpt lat="43.94324" lon="6.39936">
        <ele>936.5</ele>
        <time>2019-11-01T14:55:30Z</time>
      </trkpt>
      <trkpt lat="43.94327" lon="6.39935">
        <ele>935.8</ele>
        <time>2019-11-01T14:55:33Z</time>
      </trkpt>
      <trkpt lat="43.94334" lon="6.3993">
        <ele>933.7</ele>
        <time>2019-11-01T14:55:36Z</time>
      </trkpt>
      <trkpt lat="43.94349" lon="6.39922">
        <ele>929.2</ele>
        <time>2019-11-01T14:55:38Z</time>
      </trkpt>
      <trkpt lat="43.94354" lon="6.39918">
        <ele>928.2</ele>
        <time>2019-11-01T14:55:39Z</time>
      </trkpt>
      <trkpt lat="43.94362" lon="6.39912">
        <ele>926.3</ele>
        <time>2019-11-01T14:55:41Z</time>
      </trkpt>
      <trkpt lat="43.94365" lon="6.39912">
        <ele>925.6</ele>
        <time>2019-11-01T14:55:42Z</time>
      </trkpt>
      <trkpt lat="43.94369" lon="6.39908">
        <ele>924.9</ele>
        <time>2019-11-01T14:55:44Z</time>
      </trkpt>
      <trkpt lat="43.94374" lon="6.39904">
        <ele>923.9</ele>
        <time>2019-11-01T14:55:46Z</time>
      </trkpt>
      <trkpt lat="43.9438" lon="6.39901">
        <ele>922.7</ele>
        <time>2019-11-01T14:55:49Z</time>
      </trkpt>
      <trkpt lat="43.94383" lon="6.39901">
        <ele>922.1</ele>
        <time>2019-11-01T14:55:50Z</time>
      </trkpt>
      <trkpt lat="43.94386" lon="6.39901">
        <ele>921.3</ele>
        <time>2019-11-01T14:55:52Z</time>
      </trkpt>
      <trkpt lat="43.9439" lon="6.39902">
        <ele>920.3</ele>
        <time>2019-11-01T14:55:53Z</time>
      </trkpt>
      <trkpt lat="43.94397" lon="6.39903">
        <ele>919</ele>
        <time>2019-11-01T14:55:55Z</time>
      </trkpt>
      <trkpt lat="43.94402" lon="6.39904">
        <ele>918.1</ele>
        <time>2019-11-01T14:55:56Z</time>
      </trkpt>
      <trkpt lat="43.94408" lon="6.39903">
        <ele>916.8</ele>
        <time>2019-11-01T14:55:58Z</time>
      </trkpt>
      <trkpt lat="43.9441" lon="6.39903">
        <ele>916.3</ele>
        <time>2019-11-01T14:55:59Z</time>
      </trkpt>
      <trkpt lat="43.94415" lon="6.39902">
        <ele>915.2</ele>
        <time>2019-11-01T14:56:02Z</time>
      </trkpt>
      <trkpt lat="43.94419" lon="6.39901">
        <ele>914.3</ele>
        <time>2019-11-01T14:56:04Z</time>
      </trkpt>
      <trkpt lat="43.94429" lon="6.399">
        <ele>912.4</ele>
        <time>2019-11-01T14:56:07Z</time>
      </trkpt>
      <trkpt lat="43.94427" lon="6.39898">
        <ele>912.1</ele>
        <time>2019-11-01T14:56:08Z</time>
      </trkpt>
      <trkpt lat="43.9443" lon="6.39898">
        <ele>911.5</ele>
        <time>2019-11-01T14:56:11Z</time>
      </trkpt>
      <trkpt lat="43.94435" lon="6.39898">
        <ele>910.5</ele>
        <time>2019-11-01T14:56:14Z</time>
      </trkpt>
      <trkpt lat="43.9444" lon="6.39897">
        <ele>909.4</ele>
        <time>2019-11-01T14:56:16Z</time>
      </trkpt>
      <trkpt lat="43.94445" lon="6.39894">
        <ele>908.3</ele>
        <time>2019-11-01T14:56:19Z</time>
      </trkpt>
      <trkpt lat="43.94449" lon="6.39891">
        <ele>907.7</ele>
        <time>2019-11-01T14:56:21Z</time>
      </trkpt>
      <trkpt lat="43.94455" lon="6.39888">
        <ele>906.9</ele>
        <time>2019-11-01T14:56:22Z</time>
      </trkpt>
      <trkpt lat="43.94457" lon="6.39887">
        <ele>906.4</ele>
        <time>2019-11-01T14:56:24Z</time>
      </trkpt>
      <trkpt lat="43.9446" lon="6.39885">
        <ele>906</ele>
        <time>2019-11-01T14:56:25Z</time>
      </trkpt>
      <trkpt lat="43.94463" lon="6.39884">
        <ele>905.5</ele>
        <time>2019-11-01T14:56:26Z</time>
      </trkpt>
      <trkpt lat="43.94483" lon="6.39861">
        <ele>901.4</ele>
        <time>2019-11-01T14:56:28Z</time>
      </trkpt>
      <trkpt lat="43.94491" lon="6.39852">
        <ele>899.3</ele>
        <time>2019-11-01T14:56:29Z</time>
      </trkpt>
      <trkpt lat="43.94495" lon="6.39844">
        <ele>898</ele>
        <time>2019-11-01T14:56:31Z</time>
      </trkpt>
      <trkpt lat="43.945" lon="6.3984">
        <ele>896.9</ele>
        <time>2019-11-01T14:56:32Z</time>
      </trkpt>
      <trkpt lat="43.94504" lon="6.3984">
        <ele>896.3</ele>
        <time>2019-11-01T14:56:35Z</time>
      </trkpt>
      <trkpt lat="43.94508" lon="6.39837">
        <ele>895.6</ele>
        <time>2019-11-01T14:56:37Z</time>
      </trkpt>
      <trkpt lat="43.9451" lon="6.39834">
        <ele>895</ele>
        <time>2019-11-01T14:56:38Z</time>
      </trkpt>
      <trkpt lat="43.94513" lon="6.39831">
        <ele>894.4</ele>
        <time>2019-11-01T14:56:41Z</time>
      </trkpt>
      <trkpt lat="43.94515" lon="6.39827">
        <ele>893.8</ele>
        <time>2019-11-01T14:56:42Z</time>
      </trkpt>
      <trkpt lat="43.94519" lon="6.3982">
        <ele>892.9</ele>
        <time>2019-11-01T14:56:46Z</time>
      </trkpt>
      <trkpt lat="43.94521" lon="6.39816">
        <ele>892.3</ele>
        <time>2019-11-01T14:56:47Z</time>
      </trkpt>
      <trkpt lat="43.94524" lon="6.39812">
        <ele>891.4</ele>
        <time>2019-11-01T14:56:49Z</time>
      </trkpt>
      <trkpt lat="43.94527" lon="6.39809">
        <ele>890.6</ele>
        <time>2019-11-01T14:56:51Z</time>
      </trkpt>
      <trkpt lat="43.94534" lon="6.39802">
        <ele>888.8</ele>
        <time>2019-11-01T14:56:52Z</time>
      </trkpt>
      <trkpt lat="43.94541" lon="6.39792">
        <ele>886.5</ele>
        <time>2019-11-01T14:56:53Z</time>
      </trkpt>
      <trkpt lat="43.94546" lon="6.39783">
        <ele>884.5</ele>
        <time>2019-11-01T14:56:54Z</time>
      </trkpt>
      <trkpt lat="43.94549" lon="6.39778">
        <ele>883.7</ele>
        <time>2019-11-01T14:56:55Z</time>
      </trkpt>
      <trkpt lat="43.94552" lon="6.39772">
        <ele>882.6</ele>
        <time>2019-11-01T14:56:56Z</time>
      </trkpt>
      <trkpt lat="43.94556" lon="6.39767">
        <ele>881.4</ele>
        <time>2019-11-01T14:56:57Z</time>
      </trkpt>
      <trkpt lat="43.94561" lon="6.39758">
        <ele>879.8</ele>
        <time>2019-11-01T14:56:59Z</time>
      </trkpt>
      <trkpt lat="43.94564" lon="6.39753">
        <ele>878.9</ele>
        <time>2019-11-01T14:57:00Z</time>
      </trkpt>
      <trkpt lat="43.94571" lon="6.39743">
        <ele>877.5</ele>
        <time>2019-11-01T14:57:02Z</time>
      </trkpt>
      <trkpt lat="43.94574" lon="6.39737">
        <ele>876.9</ele>
        <time>2019-11-01T14:57:03Z</time>
      </trkpt>
      <trkpt lat="43.94577" lon="6.39732">
        <ele>876.3</ele>
        <time>2019-11-01T14:57:04Z</time>
      </trkpt>
      <trkpt lat="43.9458" lon="6.39721">
        <ele>875.2</ele>
        <time>2019-11-01T14:57:06Z</time>
      </trkpt>
      <trkpt lat="43.94582" lon="6.39715">
        <ele>874.7</ele>
        <time>2019-11-01T14:57:07Z</time>
      </trkpt>
      <trkpt lat="43.94585" lon="6.39714">
        <ele>874.4</ele>
        <time>2019-11-01T14:57:09Z</time>
      </trkpt>
      <trkpt lat="43.94589" lon="6.39709">
        <ele>873.8</ele>
        <time>2019-11-01T14:57:11Z</time>
      </trkpt>
      <trkpt lat="43.94593" lon="6.39706">
        <ele>873.5</ele>
        <time>2019-11-01T14:57:12Z</time>
      </trkpt>
      <trkpt lat="43.94596" lon="6.39704">
        <ele>873.3</ele>
        <time>2019-11-01T14:57:13Z</time>
      </trkpt>
      <trkpt lat="43.946" lon="6.39699">
        <ele>873</ele>
        <time>2019-11-01T14:57:15Z</time>
      </trkpt>
      <trkpt lat="43.94603" lon="6.39693">
        <ele>872.7</ele>
        <time>2019-11-01T14:57:16Z</time>
      </trkpt>
      <trkpt lat="43.94607" lon="6.39688">
        <ele>872.3</ele>
        <time>2019-11-01T14:57:18Z</time>
      </trkpt>
      <trkpt lat="43.9461" lon="6.39685">
        <ele>872.1</ele>
        <time>2019-11-01T14:57:19Z</time>
      </trkpt>
      <trkpt lat="43.94615" lon="6.39681">
        <ele>871.6</ele>
        <time>2019-11-01T14:57:21Z</time>
      </trkpt>
      <trkpt lat="43.94619" lon="6.39676">
        <ele>871.2</ele>
        <time>2019-11-01T14:57:23Z</time>
      </trkpt>
      <trkpt lat="43.94623" lon="6.3967">
        <ele>870.9</ele>
        <time>2019-11-01T14:57:24Z</time>
      </trkpt>
      <trkpt lat="43.94627" lon="6.39664">
        <ele>870.7</ele>
        <time>2019-11-01T14:57:25Z</time>
      </trkpt>
      <trkpt lat="43.94629" lon="6.39662">
        <ele>870.6</ele>
        <time>2019-11-01T14:57:26Z</time>
      </trkpt>
      <trkpt lat="43.94634" lon="6.39657">
        <ele>870.4</ele>
        <time>2019-11-01T14:57:28Z</time>
      </trkpt>
      <trkpt lat="43.94644" lon="6.3965">
        <ele>870</ele>
        <time>2019-11-01T14:57:30Z</time>
      </trkpt>
      <trkpt lat="43.94652" lon="6.39642">
        <ele>869.6</ele>
        <time>2019-11-01T14:57:32Z</time>
      </trkpt>
      <trkpt lat="43.94657" lon="6.39638">
        <ele>869.4</ele>
        <time>2019-11-01T14:57:33Z</time>
      </trkpt>
      <trkpt lat="43.9466" lon="6.39639">
        <ele>869.4</ele>
        <time>2019-11-01T14:57:35Z</time>
      </trkpt>
      <trkpt lat="43.94666" lon="6.39638">
        <ele>869.2</ele>
        <time>2019-11-01T14:57:37Z</time>
      </trkpt>
      <trkpt lat="43.9467" lon="6.39637">
        <ele>869</ele>
        <time>2019-11-01T14:57:41Z</time>
      </trkpt>
      <trkpt lat="43.94673" lon="6.39636">
        <ele>868.9</ele>
        <time>2019-11-01T14:57:42Z</time>
      </trkpt>
      <trkpt lat="43.94678" lon="6.39632">
        <ele>868.5</ele>
        <time>2019-11-01T14:57:46Z</time>
      </trkpt>
      <trkpt lat="43.94681" lon="6.3963">
        <ele>868.3</ele>
        <time>2019-11-01T14:57:47Z</time>
      </trkpt>
      <trkpt lat="43.94684" lon="6.39628">
        <ele>868</ele>
        <time>2019-11-01T14:57:48Z</time>
      </trkpt>
      <trkpt lat="43.94688" lon="6.39627">
        <ele>867.7</ele>
        <time>2019-11-01T14:57:49Z</time>
      </trkpt>
      <trkpt lat="43.94691" lon="6.39625">
        <ele>867.5</ele>
        <time>2019-11-01T14:57:50Z</time>
      </trkpt>
      <trkpt lat="43.94694" lon="6.39623">
        <ele>867.2</ele>
        <time>2019-11-01T14:57:53Z</time>
      </trkpt>
      <trkpt lat="43.94697" lon="6.39622">
        <ele>866.8</ele>
        <time>2019-11-01T14:57:56Z</time>
      </trkpt>
      <trkpt lat="43.94699" lon="6.3962">
        <ele>866.5</ele>
        <time>2019-11-01T14:57:59Z</time>
      </trkpt>
      <trkpt lat="43.94703" lon="6.39616">
        <ele>866</ele>
        <time>2019-11-01T14:58:02Z</time>
      </trkpt>
      <trkpt lat="43.94704" lon="6.39611">
        <ele>865.8</ele>
        <time>2019-11-01T14:58:08Z</time>
      </trkpt>
      <trkpt lat="43.94706" lon="6.39607">
        <ele>865.5</ele>
        <time>2019-11-01T14:58:11Z</time>
      </trkpt>
      <trkpt lat="43.94708" lon="6.39602">
        <ele>865.2</ele>
        <time>2019-11-01T14:58:13Z</time>
      </trkpt>
      <trkpt lat="43.94709" lon="6.39595">
        <ele>864.8</ele>
        <time>2019-11-01T14:58:16Z</time>
      </trkpt>
      <trkpt lat="43.94711" lon="6.39589">
        <ele>864.4</ele>
        <time>2019-11-01T14:58:17Z</time>
      </trkpt>
      <trkpt lat="43.94714" lon="6.39567">
        <ele>862.5</ele>
        <time>2019-11-01T14:58:20Z</time>
      </trkpt>
      <trkpt lat="43.94716" lon="6.3956">
        <ele>861.7</ele>
        <time>2019-11-01T14:58:22Z</time>
      </trkpt>
      <trkpt lat="43.94719" lon="6.39553">
        <ele>860.6</ele>
        <time>2019-11-01T14:58:24Z</time>
      </trkpt>
      <trkpt lat="43.94722" lon="6.3955">
        <ele>860</ele>
        <time>2019-11-01T14:58:32Z</time>
      </trkpt>
      <trkpt lat="43.94724" lon="6.39547">
        <ele>859.2</ele>
        <time>2019-11-01T14:58:49Z</time>
      </trkpt>
      <trkpt lat="43.94727" lon="6.39543">
        <ele>858.4</ele>
        <time>2019-11-01T14:58:50Z</time>
      </trkpt>
      <trkpt lat="43.94729" lon="6.3954">
        <ele>857.8</ele>
        <time>2019-11-01T14:58:53Z</time>
      </trkpt>
      <trkpt lat="43.94727" lon="6.39533">
        <ele>857</ele>
        <time>2019-11-01T14:58:56Z</time>
      </trkpt>
      <trkpt lat="43.94729" lon="6.39527">
        <ele>856.2</ele>
        <time>2019-11-01T14:58:58Z</time>
      </trkpt>
      <trkpt lat="43.94732" lon="6.39524">
        <ele>855.5</ele>
        <time>2019-11-01T14:59:00Z</time>
      </trkpt>
      <trkpt lat="43.94735" lon="6.3952">
        <ele>854.6</ele>
        <time>2019-11-01T14:59:03Z</time>
      </trkpt>
      <trkpt lat="43.94739" lon="6.39516">
        <ele>854</ele>
        <time>2019-11-01T14:59:04Z</time>
      </trkpt>
      <trkpt lat="43.94741" lon="6.3951">
        <ele>853.4</ele>
        <time>2019-11-01T14:59:05Z</time>
      </trkpt>
      <trkpt lat="43.94742" lon="6.39504">
        <ele>852.4</ele>
        <time>2019-11-01T14:59:07Z</time>
      </trkpt>
      <trkpt lat="43.94745" lon="6.39496">
        <ele>851</ele>
        <time>2019-11-01T14:59:10Z</time>
      </trkpt>
      <trkpt lat="43.94747" lon="6.39492">
        <ele>850.1</ele>
        <time>2019-11-01T14:59:12Z</time>
      </trkpt>
      <trkpt lat="43.94749" lon="6.39489">
        <ele>849.4</ele>
        <time>2019-11-01T14:59:15Z</time>
      </trkpt>
      <trkpt lat="43.94751" lon="6.39486">
        <ele>848.9</ele>
        <time>2019-11-01T14:59:16Z</time>
      </trkpt>
      <trkpt lat="43.94752" lon="6.39481">
        <ele>848.4</ele>
        <time>2019-11-01T14:59:18Z</time>
      </trkpt>
      <trkpt lat="43.94755" lon="6.39476">
        <ele>847.6</ele>
        <time>2019-11-01T14:59:19Z</time>
      </trkpt>
      <trkpt lat="43.94759" lon="6.39472">
        <ele>846.7</ele>
        <time>2019-11-01T14:59:21Z</time>
      </trkpt>
      <trkpt lat="43.94763" lon="6.39466">
        <ele>845.8</ele>
        <time>2019-11-01T14:59:23Z</time>
      </trkpt>
      <trkpt lat="43.94765" lon="6.3946">
        <ele>845.1</ele>
        <time>2019-11-01T14:59:25Z</time>
      </trkpt>
      <trkpt lat="43.94765" lon="6.39456">
        <ele>844.7</ele>
        <time>2019-11-01T14:59:27Z</time>
      </trkpt>
      <trkpt lat="43.94767" lon="6.39452">
        <ele>844.2</ele>
        <time>2019-11-01T14:59:29Z</time>
      </trkpt>
      <trkpt lat="43.94766" lon="6.39449">
        <ele>843.8</ele>
        <time>2019-11-01T14:59:33Z</time>
      </trkpt>
      <trkpt lat="43.94765" lon="6.39439">
        <ele>842.9</ele>
        <time>2019-11-01T14:59:35Z</time>
      </trkpt>
      <trkpt lat="43.94766" lon="6.39433">
        <ele>842.3</ele>
        <time>2019-11-01T14:59:37Z</time>
      </trkpt>
      <trkpt lat="43.94769" lon="6.39429">
        <ele>842</ele>
        <time>2019-11-01T14:59:38Z</time>
      </trkpt>
      <trkpt lat="43.94773" lon="6.39425">
        <ele>841.5</ele>
        <time>2019-11-01T14:59:40Z</time>
      </trkpt>
      <trkpt lat="43.94775" lon="6.39421">
        <ele>840.9</ele>
        <time>2019-11-01T14:59:41Z</time>
      </trkpt>
      <trkpt lat="43.94776" lon="6.39416">
        <ele>840.3</ele>
        <time>2019-11-01T14:59:42Z</time>
      </trkpt>
      <trkpt lat="43.94777" lon="6.39412">
        <ele>840</ele>
        <time>2019-11-01T14:59:43Z</time>
      </trkpt>
      <trkpt lat="43.94781" lon="6.39405">
        <ele>839.4</ele>
        <time>2019-11-01T14:59:49Z</time>
      </trkpt>
      <trkpt lat="43.94783" lon="6.39403">
        <ele>839</ele>
        <time>2019-11-01T15:00:58Z</time>
      </trkpt>
      <trkpt lat="43.94786" lon="6.394">
        <ele>838.6</ele>
        <time>2019-11-01T15:00:59Z</time>
      </trkpt>
      <trkpt lat="43.94789" lon="6.39393">
        <ele>837.8</ele>
        <time>2019-11-01T15:01:01Z</time>
      </trkpt>
      <trkpt lat="43.94791" lon="6.3939">
        <ele>837.6</ele>
        <time>2019-11-01T15:01:02Z</time>
      </trkpt>
      <trkpt lat="43.94796" lon="6.39382">
        <ele>836.7</ele>
        <time>2019-11-01T15:01:06Z</time>
      </trkpt>
      <trkpt lat="43.94797" lon="6.39378">
        <ele>836.3</ele>
        <time>2019-11-01T15:01:07Z</time>
      </trkpt>
      <trkpt lat="43.94798" lon="6.39374">
        <ele>835.9</ele>
        <time>2019-11-01T15:01:08Z</time>
      </trkpt>
      <trkpt lat="43.94801" lon="6.39369">
        <ele>835.6</ele>
        <time>2019-11-01T15:01:10Z</time>
      </trkpt>
      <trkpt lat="43.94803" lon="6.39363">
        <ele>835.2</ele>
        <time>2019-11-01T15:01:11Z</time>
      </trkpt>
      <trkpt lat="43.94803" lon="6.39358">
        <ele>834.9</ele>
        <time>2019-11-01T15:01:14Z</time>
      </trkpt>
      <trkpt lat="43.94803" lon="6.39353">
        <ele>834.6</ele>
        <time>2019-11-01T15:01:15Z</time>
      </trkpt>
      <trkpt lat="43.94804" lon="6.39346">
        <ele>834.2</ele>
        <time>2019-11-01T15:01:17Z</time>
      </trkpt>
      <trkpt lat="43.94804" lon="6.39342">
        <ele>834.1</ele>
        <time>2019-11-01T15:01:18Z</time>
      </trkpt>
      <trkpt lat="43.94805" lon="6.39337">
        <ele>833.9</ele>
        <time>2019-11-01T15:01:19Z</time>
      </trkpt>
      <trkpt lat="43.94806" lon="6.39333">
        <ele>833.7</ele>
        <time>2019-11-01T15:01:20Z</time>
      </trkpt>
      <trkpt lat="43.94808" lon="6.39325">
        <ele>833.3</ele>
        <time>2019-11-01T15:01:24Z</time>
      </trkpt>
      <trkpt lat="43.94808" lon="6.39319">
        <ele>832.9</ele>
        <time>2019-11-01T15:01:25Z</time>
      </trkpt>
      <trkpt lat="43.94809" lon="6.39316">
        <ele>832.7</ele>
        <time>2019-11-01T15:01:27Z</time>
      </trkpt>
      <trkpt lat="43.9481" lon="6.39308">
        <ele>832.3</ele>
        <time>2019-11-01T15:01:29Z</time>
      </trkpt>
      <trkpt lat="43.94814" lon="6.39305">
        <ele>832.1</ele>
        <time>2019-11-01T15:01:32Z</time>
      </trkpt>
      <trkpt lat="43.94814" lon="6.39301">
        <ele>831.9</ele>
        <time>2019-11-01T15:01:34Z</time>
      </trkpt>
      <trkpt lat="43.94813" lon="6.39295">
        <ele>831.6</ele>
        <time>2019-11-01T15:01:37Z</time>
      </trkpt>
      <trkpt lat="43.94816" lon="6.39291">
        <ele>831.4</ele>
        <time>2019-11-01T15:01:38Z</time>
      </trkpt>
      <trkpt lat="43.94817" lon="6.39286">
        <ele>831.3</ele>
        <time>2019-11-01T15:01:39Z</time>
      </trkpt>
      <trkpt lat="43.94818" lon="6.39278">
        <ele>831</ele>
        <time>2019-11-01T15:01:41Z</time>
      </trkpt>
      <trkpt lat="43.94819" lon="6.39273">
        <ele>830.9</ele>
        <time>2019-11-01T15:01:42Z</time>
      </trkpt>
      <trkpt lat="43.94823" lon="6.3927">
        <ele>830.7</ele>
        <time>2019-11-01T15:01:45Z</time>
      </trkpt>
      <trkpt lat="43.94828" lon="6.39271">
        <ele>830.5</ele>
        <time>2019-11-01T15:01:48Z</time>
      </trkpt>
      <trkpt lat="43.94832" lon="6.39265">
        <ele>830.2</ele>
        <time>2019-11-01T15:01:51Z</time>
      </trkpt>
      <trkpt lat="43.94834" lon="6.39262">
        <ele>830</ele>
        <time>2019-11-01T15:01:55Z</time>
      </trkpt>
      <trkpt lat="43.94834" lon="6.39257">
        <ele>829.7</ele>
        <time>2019-11-01T15:01:56Z</time>
      </trkpt>
      <trkpt lat="43.94834" lon="6.39253">
        <ele>829.4</ele>
        <time>2019-11-01T15:01:58Z</time>
      </trkpt>
      <trkpt lat="43.94837" lon="6.39244">
        <ele>828.7</ele>
        <time>2019-11-01T15:02:00Z</time>
      </trkpt>
      <trkpt lat="43.9484" lon="6.39238">
        <ele>828.2</ele>
        <time>2019-11-01T15:02:01Z</time>
      </trkpt>
      <trkpt lat="43.94847" lon="6.39232">
        <ele>826.9</ele>
        <time>2019-11-01T15:02:03Z</time>
      </trkpt>
      <trkpt lat="43.94856" lon="6.39227">
        <ele>825.9</ele>
        <time>2019-11-01T15:02:05Z</time>
      </trkpt>
      <trkpt lat="43.94861" lon="6.39224">
        <ele>825.3</ele>
        <time>2019-11-01T15:02:06Z</time>
      </trkpt>
      <trkpt lat="43.94866" lon="6.39221">
        <ele>824.7</ele>
        <time>2019-11-01T15:02:08Z</time>
      </trkpt>
      <trkpt lat="43.9487" lon="6.39207">
        <ele>823.8</ele>
        <time>2019-11-01T15:02:10Z</time>
      </trkpt>
      <trkpt lat="43.94871" lon="6.392">
        <ele>823.4</ele>
        <time>2019-11-01T15:02:11Z</time>
      </trkpt>
      <trkpt lat="43.94873" lon="6.39184">
        <ele>823.1</ele>
        <time>2019-11-01T15:02:13Z</time>
      </trkpt>
      <trkpt lat="43.94875" lon="6.39177">
        <ele>822.9</ele>
        <time>2019-11-01T15:02:14Z</time>
      </trkpt>
      <trkpt lat="43.94877" lon="6.3917">
        <ele>822.8</ele>
        <time>2019-11-01T15:02:15Z</time>
      </trkpt>
      <trkpt lat="43.94883" lon="6.39158">
        <ele>822.6</ele>
        <time>2019-11-01T15:02:17Z</time>
      </trkpt>
      <trkpt lat="43.94887" lon="6.39149">
        <ele>822.5</ele>
        <time>2019-11-01T15:02:19Z</time>
      </trkpt>
      <trkpt lat="43.9489" lon="6.39142">
        <ele>822.5</ele>
        <time>2019-11-01T15:02:21Z</time>
      </trkpt>
      <trkpt lat="43.94892" lon="6.39137">
        <ele>822.5</ele>
        <time>2019-11-01T15:02:22Z</time>
      </trkpt>
      <trkpt lat="43.94894" lon="6.39134">
        <ele>822.5</ele>
        <time>2019-11-01T15:02:23Z</time>
      </trkpt>
      <trkpt lat="43.94897" lon="6.39129">
        <ele>822.6</ele>
        <time>2019-11-01T15:02:26Z</time>
      </trkpt>
      <trkpt lat="43.949" lon="6.39124">
        <ele>822.7</ele>
        <time>2019-11-01T15:02:28Z</time>
      </trkpt>
      <trkpt lat="43.94902" lon="6.39121">
        <ele>822.8</ele>
        <time>2019-11-01T15:02:29Z</time>
      </trkpt>
      <trkpt lat="43.94905" lon="6.39117">
        <ele>822.9</ele>
        <time>2019-11-01T15:02:30Z</time>
      </trkpt>
      <trkpt lat="43.94908" lon="6.39114">
        <ele>823.1</ele>
        <time>2019-11-01T15:02:31Z</time>
      </trkpt>
      <trkpt lat="43.9491" lon="6.39111">
        <ele>823.3</ele>
        <time>2019-11-01T15:02:33Z</time>
      </trkpt>
      <trkpt lat="43.94913" lon="6.39108">
        <ele>823.5</ele>
        <time>2019-11-01T15:02:34Z</time>
      </trkpt>
      <trkpt lat="43.94915" lon="6.39106">
        <ele>823.7</ele>
        <time>2019-11-01T15:02:35Z</time>
      </trkpt>
      <trkpt lat="43.94917" lon="6.39101">
        <ele>824.1</ele>
        <time>2019-11-01T15:02:37Z</time>
      </trkpt>
      <trkpt lat="43.94922" lon="6.39097">
        <ele>824.7</ele>
        <time>2019-11-01T15:02:39Z</time>
      </trkpt>
      <trkpt lat="43.94926" lon="6.39091">
        <ele>825.3</ele>
        <time>2019-11-01T15:02:41Z</time>
      </trkpt>
      <trkpt lat="43.94928" lon="6.39086">
        <ele>825.9</ele>
        <time>2019-11-01T15:02:44Z</time>
      </trkpt>
      <trkpt lat="43.94931" lon="6.3908">
        <ele>826.7</ele>
        <time>2019-11-01T15:02:46Z</time>
      </trkpt>
      <trkpt lat="43.94934" lon="6.39074">
        <ele>827.4</ele>
        <time>2019-11-01T15:02:49Z</time>
      </trkpt>
      <trkpt lat="43.94937" lon="6.39068">
        <ele>828.1</ele>
        <time>2019-11-01T15:02:52Z</time>
      </trkpt>
      <trkpt lat="43.94937" lon="6.39063">
        <ele>828.9</ele>
        <time>2019-11-01T15:02:56Z</time>
      </trkpt>
      <trkpt lat="43.9494" lon="6.3906">
        <ele>829.6</ele>
        <time>2019-11-01T15:02:58Z</time>
      </trkpt>
      <trkpt lat="43.94943" lon="6.39058">
        <ele>830.3</ele>
        <time>2019-11-01T15:02:59Z</time>
      </trkpt>
      <trkpt lat="43.94947" lon="6.39056">
        <ele>831</ele>
        <time>2019-11-01T15:03:02Z</time>
      </trkpt>
      <trkpt lat="43.9495" lon="6.39053">
        <ele>831.6</ele>
        <time>2019-11-01T15:03:04Z</time>
      </trkpt>
      <trkpt lat="43.94957" lon="6.39047">
        <ele>832.4</ele>
        <time>2019-11-01T15:03:08Z</time>
      </trkpt>
      <trkpt lat="43.94959" lon="6.39044">
        <ele>832.9</ele>
        <time>2019-11-01T15:03:11Z</time>
      </trkpt>
      <trkpt lat="43.94961" lon="6.39041">
        <ele>833.4</ele>
        <time>2019-11-01T15:03:15Z</time>
      </trkpt>
      <trkpt lat="43.94964" lon="6.39038">
        <ele>833.9</ele>
        <time>2019-11-01T15:03:31Z</time>
      </trkpt>
      <trkpt lat="43.94966" lon="6.39035">
        <ele>834.1</ele>
        <time>2019-11-01T15:03:37Z</time>
      </trkpt>
      <trkpt lat="43.94968" lon="6.39032">
        <ele>834.4</ele>
        <time>2019-11-01T15:03:48Z</time>
      </trkpt>
      <trkpt lat="43.94971" lon="6.39029">
        <ele>834.8</ele>
        <time>2019-11-01T15:03:49Z</time>
      </trkpt>
      <trkpt lat="43.94971" lon="6.39024">
        <ele>835.3</ele>
        <time>2019-11-01T15:03:51Z</time>
      </trkpt>
      <trkpt lat="43.94972" lon="6.3902">
        <ele>835.8</ele>
        <time>2019-11-01T15:03:53Z</time>
      </trkpt>
      <trkpt lat="43.94972" lon="6.39014">
        <ele>836.3</ele>
        <time>2019-11-01T15:03:56Z</time>
      </trkpt>
      <trkpt lat="43.94973" lon="6.39008">
        <ele>836.8</ele>
        <time>2019-11-01T15:03:59Z</time>
      </trkpt>
      <trkpt lat="43.94973" lon="6.38999">
        <ele>837.5</ele>
        <time>2019-11-01T15:04:02Z</time>
      </trkpt>
      <trkpt lat="43.94975" lon="6.3899">
        <ele>838</ele>
        <time>2019-11-01T15:04:03Z</time>
      </trkpt>
      <trkpt lat="43.94976" lon="6.38986">
        <ele>838.2</ele>
        <time>2019-11-01T15:04:04Z</time>
      </trkpt>
      <trkpt lat="43.94977" lon="6.38981">
        <ele>838.3</ele>
        <time>2019-11-01T15:04:05Z</time>
      </trkpt>
      <trkpt lat="43.94977" lon="6.38977">
        <ele>838.5</ele>
        <time>2019-11-01T15:04:06Z</time>
      </trkpt>
      <trkpt lat="43.94979" lon="6.38972">
        <ele>838.7</ele>
        <time>2019-11-01T15:04:07Z</time>
      </trkpt>
      <trkpt lat="43.9498" lon="6.38967">
        <ele>838.9</ele>
        <time>2019-11-01T15:04:08Z</time>
      </trkpt>
      <trkpt lat="43.94982" lon="6.38961">
        <ele>839.1</ele>
        <time>2019-11-01T15:04:10Z</time>
      </trkpt>
      <trkpt lat="43.94984" lon="6.38954">
        <ele>839.3</ele>
        <time>2019-11-01T15:04:12Z</time>
      </trkpt>
      <trkpt lat="43.94986" lon="6.38948">
        <ele>839.5</ele>
        <time>2019-11-01T15:04:13Z</time>
      </trkpt>
      <trkpt lat="43.94986" lon="6.38943">
        <ele>839.6</ele>
        <time>2019-11-01T15:04:14Z</time>
      </trkpt>
      <trkpt lat="43.94986" lon="6.38939">
        <ele>839.7</ele>
        <time>2019-11-01T15:04:15Z</time>
      </trkpt>
      <trkpt lat="43.94986" lon="6.38934">
        <ele>839.8</ele>
        <time>2019-11-01T15:04:16Z</time>
      </trkpt>
      <trkpt lat="43.94986" lon="6.38927">
        <ele>840</ele>
        <time>2019-11-01T15:04:18Z</time>
      </trkpt>
      <trkpt lat="43.94986" lon="6.38922">
        <ele>840.1</ele>
        <time>2019-11-01T15:04:19Z</time>
      </trkpt>
      <trkpt lat="43.94986" lon="6.38916">
        <ele>840.2</ele>
        <time>2019-11-01T15:04:21Z</time>
      </trkpt>
      <trkpt lat="43.94986" lon="6.38912">
        <ele>840.2</ele>
        <time>2019-11-01T15:04:22Z</time>
      </trkpt>
      <trkpt lat="43.94986" lon="6.38907">
        <ele>840.3</ele>
        <time>2019-11-01T15:04:23Z</time>
      </trkpt>
      <trkpt lat="43.94985" lon="6.38902">
        <ele>840.4</ele>
        <time>2019-11-01T15:04:25Z</time>
      </trkpt>
      <trkpt lat="43.94985" lon="6.38898">
        <ele>840.4</ele>
        <time>2019-11-01T15:04:26Z</time>
      </trkpt>
      <trkpt lat="43.94985" lon="6.38893">
        <ele>840.5</ele>
        <time>2019-11-01T15:04:27Z</time>
      </trkpt>
      <trkpt lat="43.94984" lon="6.38885">
        <ele>840.7</ele>
        <time>2019-11-01T15:04:28Z</time>
      </trkpt>
      <trkpt lat="43.94984" lon="6.38878">
        <ele>840.9</ele>
        <time>2019-11-01T15:04:30Z</time>
      </trkpt>
      <trkpt lat="43.94984" lon="6.38871">
        <ele>840.9</ele>
        <time>2019-11-01T15:04:31Z</time>
      </trkpt>
      <trkpt lat="43.94984" lon="6.38858">
        <ele>840.9</ele>
        <time>2019-11-01T15:04:33Z</time>
      </trkpt>
      <trkpt lat="43.94984" lon="6.38852">
        <ele>840.9</ele>
        <time>2019-11-01T15:04:34Z</time>
      </trkpt>
      <trkpt lat="43.94983" lon="6.38839">
        <ele>840.9</ele>
        <time>2019-11-01T15:04:36Z</time>
      </trkpt>
      <trkpt lat="43.94983" lon="6.38833">
        <ele>840.9</ele>
        <time>2019-11-01T15:04:37Z</time>
      </trkpt>
      <trkpt lat="43.94983" lon="6.38822">
        <ele>841.1</ele>
        <time>2019-11-01T15:04:39Z</time>
      </trkpt>
      <trkpt lat="43.94983" lon="6.38815">
        <ele>841.2</ele>
        <time>2019-11-01T15:04:40Z</time>
      </trkpt>
      <trkpt lat="43.94982" lon="6.3881">
        <ele>841.2</ele>
        <time>2019-11-01T15:04:41Z</time>
      </trkpt>
      <trkpt lat="43.94982" lon="6.38804">
        <ele>841.2</ele>
        <time>2019-11-01T15:04:42Z</time>
      </trkpt>
      <trkpt lat="43.94981" lon="6.38794">
        <ele>841.1</ele>
        <time>2019-11-01T15:04:44Z</time>
      </trkpt>
      <trkpt lat="43.9498" lon="6.38784">
        <ele>841.1</ele>
        <time>2019-11-01T15:04:46Z</time>
      </trkpt>
      <trkpt lat="43.9498" lon="6.38779">
        <ele>841</ele>
        <time>2019-11-01T15:04:47Z</time>
      </trkpt>
      <trkpt lat="43.94981" lon="6.38775">
        <ele>841</ele>
        <time>2019-11-01T15:04:48Z</time>
      </trkpt>
      <trkpt lat="43.94978" lon="6.38776">
        <ele>841</ele>
        <time>2019-11-01T15:05:34Z</time>
      </trkpt>
      <trkpt lat="43.94976" lon="6.38774">
        <ele>841</ele>
        <time>2019-11-01T15:06:11Z</time>
      </trkpt>
      <trkpt lat="43.94972" lon="6.38773">
        <ele>841</ele>
        <time>2019-11-01T15:06:12Z</time>
      </trkpt>
      <trkpt lat="43.94969" lon="6.38772">
        <ele>841</ele>
        <time>2019-11-01T15:06:13Z</time>
      </trkpt>
      <trkpt lat="43.94965" lon="6.3877">
        <ele>840.9</ele>
        <time>2019-11-01T15:06:14Z</time>
      </trkpt>
      <trkpt lat="43.94959" lon="6.38764">
        <ele>841</ele>
        <time>2019-11-01T15:06:16Z</time>
      </trkpt>
      <trkpt lat="43.94949" lon="6.38753">
        <ele>841.3</ele>
        <time>2019-11-01T15:06:18Z</time>
      </trkpt>
      <trkpt lat="43.94944" lon="6.38746">
        <ele>841.5</ele>
        <time>2019-11-01T15:06:19Z</time>
      </trkpt>
      <trkpt lat="43.94939" lon="6.38739">
        <ele>841.8</ele>
        <time>2019-11-01T15:06:20Z</time>
      </trkpt>
      <trkpt lat="43.94931" lon="6.38727">
        <ele>842</ele>
        <time>2019-11-01T15:06:22Z</time>
      </trkpt>
      <trkpt lat="43.94924" lon="6.38713">
        <ele>841.6</ele>
        <time>2019-11-01T15:06:24Z</time>
      </trkpt>
      <trkpt lat="43.9492" lon="6.38705">
        <ele>841.1</ele>
        <time>2019-11-01T15:06:25Z</time>
      </trkpt>
      <trkpt lat="43.94917" lon="6.38696">
        <ele>840.6</ele>
        <time>2019-11-01T15:06:26Z</time>
      </trkpt>
      <trkpt lat="43.94913" lon="6.38688">
        <ele>839.8</ele>
        <time>2019-11-01T15:06:27Z</time>
      </trkpt>
      <trkpt lat="43.94906" lon="6.38674">
        <ele>838.7</ele>
        <time>2019-11-01T15:06:29Z</time>
      </trkpt>
      <trkpt lat="43.94894" lon="6.38663">
        <ele>837.3</ele>
        <time>2019-11-01T15:06:31Z</time>
      </trkpt>
      <trkpt lat="43.94884" lon="6.38655">
        <ele>835.9</ele>
        <time>2019-11-01T15:06:33Z</time>
      </trkpt>
      <trkpt lat="43.9488" lon="6.3865">
        <ele>835.3</ele>
        <time>2019-11-01T15:06:34Z</time>
      </trkpt>
      <trkpt lat="43.94872" lon="6.38639">
        <ele>834.1</ele>
        <time>2019-11-01T15:06:36Z</time>
      </trkpt>
      <trkpt lat="43.94863" lon="6.38631">
        <ele>833.6</ele>
        <time>2019-11-01T15:06:38Z</time>
      </trkpt>
      <trkpt lat="43.94857" lon="6.38629">
        <ele>832.1</ele>
        <time>2019-11-01T15:06:39Z</time>
      </trkpt>
      <trkpt lat="43.94852" lon="6.38628">
        <ele>830.9</ele>
        <time>2019-11-01T15:06:40Z</time>
      </trkpt>
      <trkpt lat="43.94843" lon="6.38622">
        <ele>829.3</ele>
        <time>2019-11-01T15:06:42Z</time>
      </trkpt>
      <trkpt lat="43.94839" lon="6.38617">
        <ele>828.6</ele>
        <time>2019-11-01T15:06:43Z</time>
      </trkpt>
      <trkpt lat="43.94837" lon="6.38612">
        <ele>828.1</ele>
        <time>2019-11-01T15:06:44Z</time>
      </trkpt>
      <trkpt lat="43.94835" lon="6.38606">
        <ele>827.8</ele>
        <time>2019-11-01T15:06:46Z</time>
      </trkpt>
      <trkpt lat="43.94832" lon="6.38598">
        <ele>827.6</ele>
        <time>2019-11-01T15:06:49Z</time>
      </trkpt>
      <trkpt lat="43.9483" lon="6.38592">
        <ele>827.3</ele>
        <time>2019-11-01T15:06:51Z</time>
      </trkpt>
      <trkpt lat="43.94829" lon="6.38589">
        <ele>827.1</ele>
        <time>2019-11-01T15:06:52Z</time>
      </trkpt>
      <trkpt lat="43.94826" lon="6.38584">
        <ele>826.9</ele>
        <time>2019-11-01T15:06:53Z</time>
      </trkpt>
      <trkpt lat="43.94825" lon="6.3858">
        <ele>826.7</ele>
        <time>2019-11-01T15:06:55Z</time>
      </trkpt>
      <trkpt lat="43.94823" lon="6.38574">
        <ele>826.6</ele>
        <time>2019-11-01T15:06:56Z</time>
      </trkpt>
      <trkpt lat="43.94823" lon="6.3857">
        <ele>826.5</ele>
        <time>2019-11-01T15:06:57Z</time>
      </trkpt>
      <trkpt lat="43.94822" lon="6.38566">
        <ele>826.5</ele>
        <time>2019-11-01T15:06:59Z</time>
      </trkpt>
      <trkpt lat="43.94823" lon="6.38557">
        <ele>826.4</ele>
        <time>2019-11-01T15:07:01Z</time>
      </trkpt>
      <trkpt lat="43.94822" lon="6.3855">
        <ele>826.3</ele>
        <time>2019-11-01T15:07:04Z</time>
      </trkpt>
      <trkpt lat="43.94821" lon="6.38544">
        <ele>826.1</ele>
        <time>2019-11-01T15:07:06Z</time>
      </trkpt>
      <trkpt lat="43.9482" lon="6.3854">
        <ele>826.1</ele>
        <time>2019-11-01T15:07:08Z</time>
      </trkpt>
      <trkpt lat="43.94819" lon="6.38535">
        <ele>826.1</ele>
        <time>2019-11-01T15:07:09Z</time>
      </trkpt>
      <trkpt lat="43.94817" lon="6.38529">
        <ele>826</ele>
        <time>2019-11-01T15:07:11Z</time>
      </trkpt>
      <trkpt lat="43.94816" lon="6.38523">
        <ele>825.8</ele>
        <time>2019-11-01T15:07:14Z</time>
      </trkpt>
      <trkpt lat="43.94814" lon="6.38518">
        <ele>825.8</ele>
        <time>2019-11-01T15:07:15Z</time>
      </trkpt>
      <trkpt lat="43.94813" lon="6.38514">
        <ele>825.8</ele>
        <time>2019-11-01T15:07:16Z</time>
      </trkpt>
      <trkpt lat="43.94812" lon="6.38507">
        <ele>825.8</ele>
        <time>2019-11-01T15:07:18Z</time>
      </trkpt>
      <trkpt lat="43.94811" lon="6.38502">
        <ele>825.4</ele>
        <time>2019-11-01T15:07:21Z</time>
      </trkpt>
      <trkpt lat="43.94808" lon="6.38494">
        <ele>824.6</ele>
        <time>2019-11-01T15:07:23Z</time>
      </trkpt>
      <trkpt lat="43.94804" lon="6.38488">
        <ele>823.5</ele>
        <time>2019-11-01T15:07:26Z</time>
      </trkpt>
      <trkpt lat="43.948" lon="6.38482">
        <ele>822.5</ele>
        <time>2019-11-01T15:07:28Z</time>
      </trkpt>
      <trkpt lat="43.94798" lon="6.38478">
        <ele>821.9</ele>
        <time>2019-11-01T15:07:29Z</time>
      </trkpt>
      <trkpt lat="43.94796" lon="6.38472">
        <ele>821.5</ele>
        <time>2019-11-01T15:07:31Z</time>
      </trkpt>
      <trkpt lat="43.94795" lon="6.38468">
        <ele>821.2</ele>
        <time>2019-11-01T15:07:32Z</time>
      </trkpt>
      <trkpt lat="43.94792" lon="6.38462">
        <ele>820.8</ele>
        <time>2019-11-01T15:07:33Z</time>
      </trkpt>
      <trkpt lat="43.94788" lon="6.38458">
        <ele>820.4</ele>
        <time>2019-11-01T15:07:35Z</time>
      </trkpt>
      <trkpt lat="43.94786" lon="6.38455">
        <ele>820.2</ele>
        <time>2019-11-01T15:07:36Z</time>
      </trkpt>
      <trkpt lat="43.94783" lon="6.3845">
        <ele>820.1</ele>
        <time>2019-11-01T15:07:37Z</time>
      </trkpt>
      <trkpt lat="43.94783" lon="6.38444">
        <ele>820</ele>
        <time>2019-11-01T15:07:39Z</time>
      </trkpt>
      <trkpt lat="43.94786" lon="6.38432">
        <ele>819.4</ele>
        <time>2019-11-01T15:07:40Z</time>
      </trkpt>
      <trkpt lat="43.94786" lon="6.38423">
        <ele>819.6</ele>
        <time>2019-11-01T15:07:41Z</time>
      </trkpt>
      <trkpt lat="43.94787" lon="6.38413">
        <ele>819.9</ele>
        <time>2019-11-01T15:07:43Z</time>
      </trkpt>
      <trkpt lat="43.94789" lon="6.38406">
        <ele>820.1</ele>
        <time>2019-11-01T15:07:44Z</time>
      </trkpt>
      <trkpt lat="43.9479" lon="6.384">
        <ele>820.4</ele>
        <time>2019-11-01T15:07:45Z</time>
      </trkpt>
      <trkpt lat="43.94792" lon="6.38386">
        <ele>820.6</ele>
        <time>2019-11-01T15:07:47Z</time>
      </trkpt>
      <trkpt lat="43.94791" lon="6.38377">
        <ele>820.7</ele>
        <time>2019-11-01T15:07:48Z</time>
      </trkpt>
      <trkpt lat="43.94791" lon="6.3836">
        <ele>820.9</ele>
        <time>2019-11-01T15:07:50Z</time>
      </trkpt>
      <trkpt lat="43.94792" lon="6.38344">
        <ele>821.3</ele>
        <time>2019-11-01T15:07:52Z</time>
      </trkpt>
      <trkpt lat="43.94794" lon="6.38337">
        <ele>821.5</ele>
        <time>2019-11-01T15:07:53Z</time>
      </trkpt>
      <trkpt lat="43.94795" lon="6.38331">
        <ele>821.7</ele>
        <time>2019-11-01T15:07:54Z</time>
      </trkpt>
      <trkpt lat="43.94795" lon="6.38317">
        <ele>820.9</ele>
        <time>2019-11-01T15:07:56Z</time>
      </trkpt>
      <trkpt lat="43.94792" lon="6.38308">
        <ele>819.8</ele>
        <time>2019-11-01T15:07:58Z</time>
      </trkpt>
      <trkpt lat="43.94791" lon="6.38302">
        <ele>819.3</ele>
        <time>2019-11-01T15:07:59Z</time>
      </trkpt>
      <trkpt lat="43.94792" lon="6.38287">
        <ele>818.4</ele>
        <time>2019-11-01T15:08:01Z</time>
      </trkpt>
      <trkpt lat="43.94792" lon="6.3828">
        <ele>818.1</ele>
        <time>2019-11-01T15:08:02Z</time>
      </trkpt>
      <trkpt lat="43.94794" lon="6.38273">
        <ele>818</ele>
        <time>2019-11-01T15:08:03Z</time>
      </trkpt>
      <trkpt lat="43.94795" lon="6.38265">
        <ele>817.7</ele>
        <time>2019-11-01T15:08:04Z</time>
      </trkpt>
      <trkpt lat="43.94798" lon="6.38249">
        <ele>817.5</ele>
        <time>2019-11-01T15:08:06Z</time>
      </trkpt>
      <trkpt lat="43.948" lon="6.38242">
        <ele>817.6</ele>
        <time>2019-11-01T15:08:07Z</time>
      </trkpt>
      <trkpt lat="43.94802" lon="6.38235">
        <ele>817.5</ele>
        <time>2019-11-01T15:08:08Z</time>
      </trkpt>
      <trkpt lat="43.94802" lon="6.3822">
        <ele>816.9</ele>
        <time>2019-11-01T15:08:10Z</time>
      </trkpt>
      <trkpt lat="43.94802" lon="6.38213">
        <ele>816.6</ele>
        <time>2019-11-01T15:08:11Z</time>
      </trkpt>
      <trkpt lat="43.94802" lon="6.38199">
        <ele>816</ele>
        <time>2019-11-01T15:08:13Z</time>
      </trkpt>
      <trkpt lat="43.94803" lon="6.38188">
        <ele>815.5</ele>
        <time>2019-11-01T15:08:15Z</time>
      </trkpt>
      <trkpt lat="43.94803" lon="6.38183">
        <ele>815.3</ele>
        <time>2019-11-01T15:08:16Z</time>
      </trkpt>
      <trkpt lat="43.94803" lon="6.38174">
        <ele>814.8</ele>
        <time>2019-11-01T15:08:18Z</time>
      </trkpt>
      <trkpt lat="43.94802" lon="6.38164">
        <ele>814.2</ele>
        <time>2019-11-01T15:08:20Z</time>
      </trkpt>
      <trkpt lat="43.94803" lon="6.38159">
        <ele>813.9</ele>
        <time>2019-11-01T15:08:21Z</time>
      </trkpt>
      <trkpt lat="43.94807" lon="6.38157">
        <ele>813.6</ele>
        <time>2019-11-01T15:08:23Z</time>
      </trkpt>
      <trkpt lat="43.94807" lon="6.38147">
        <ele>812.8</ele>
        <time>2019-11-01T15:08:25Z</time>
      </trkpt>
      <trkpt lat="43.94807" lon="6.38137">
        <ele>811.9</ele>
        <time>2019-11-01T15:08:26Z</time>
      </trkpt>
      <trkpt lat="43.94806" lon="6.38127">
        <ele>811.6</ele>
        <time>2019-11-01T15:08:28Z</time>
      </trkpt>
      <trkpt lat="43.94806" lon="6.38119">
        <ele>811.7</ele>
        <time>2019-11-01T15:08:29Z</time>
      </trkpt>
      <trkpt lat="43.94811" lon="6.38106">
        <ele>811.9</ele>
        <time>2019-11-01T15:08:31Z</time>
      </trkpt>
      <trkpt lat="43.94812" lon="6.381">
        <ele>811.5</ele>
        <time>2019-11-01T15:08:32Z</time>
      </trkpt>
      <trkpt lat="43.94811" lon="6.38091">
        <ele>810.6</ele>
        <time>2019-11-01T15:08:34Z</time>
      </trkpt>
      <trkpt lat="43.9481" lon="6.3808">
        <ele>809.4</ele>
        <time>2019-11-01T15:08:36Z</time>
      </trkpt>
      <trkpt lat="43.9481" lon="6.38073">
        <ele>809.1</ele>
        <time>2019-11-01T15:08:37Z</time>
      </trkpt>
      <trkpt lat="43.94809" lon="6.38059">
        <ele>808</ele>
        <time>2019-11-01T15:08:39Z</time>
      </trkpt>
      <trkpt lat="43.94807" lon="6.38051">
        <ele>806.8</ele>
        <time>2019-11-01T15:08:40Z</time>
      </trkpt>
      <trkpt lat="43.94805" lon="6.38046">
        <ele>805.9</ele>
        <time>2019-11-01T15:08:42Z</time>
      </trkpt>
      <trkpt lat="43.94803" lon="6.38043">
        <ele>805.2</ele>
        <time>2019-11-01T15:08:43Z</time>
      </trkpt>
      <trkpt lat="43.94801" lon="6.38037">
        <ele>804.2</ele>
        <time>2019-11-01T15:08:44Z</time>
      </trkpt>
      <trkpt lat="43.94799" lon="6.38032">
        <ele>803.6</ele>
        <time>2019-11-01T15:08:46Z</time>
      </trkpt>
      <trkpt lat="43.94798" lon="6.38028">
        <ele>803.1</ele>
        <time>2019-11-01T15:08:47Z</time>
      </trkpt>
      <trkpt lat="43.94798" lon="6.38023">
        <ele>802.8</ele>
        <time>2019-11-01T15:08:48Z</time>
      </trkpt>
      <trkpt lat="43.94799" lon="6.38018">
        <ele>802.7</ele>
        <time>2019-11-01T15:08:49Z</time>
      </trkpt>
      <trkpt lat="43.94802" lon="6.3801">
        <ele>802.7</ele>
        <time>2019-11-01T15:08:51Z</time>
      </trkpt>
      <trkpt lat="43.94805" lon="6.38002">
        <ele>802.7</ele>
        <time>2019-11-01T15:08:53Z</time>
      </trkpt>
      <trkpt lat="43.94808" lon="6.37994">
        <ele>802.1</ele>
        <time>2019-11-01T15:08:54Z</time>
      </trkpt>
      <trkpt lat="43.94811" lon="6.37988">
        <ele>802</ele>
        <time>2019-11-01T15:08:55Z</time>
      </trkpt>
      <trkpt lat="43.94813" lon="6.37984">
        <ele>802.1</ele>
        <time>2019-11-01T15:08:57Z</time>
      </trkpt>
      <trkpt lat="43.94816" lon="6.37977">
        <ele>801.6</ele>
        <time>2019-11-01T15:08:59Z</time>
      </trkpt>
      <trkpt lat="43.9482" lon="6.37973">
        <ele>801.6</ele>
        <time>2019-11-01T15:09:00Z</time>
      </trkpt>
      <trkpt lat="43.94824" lon="6.37968">
        <ele>801.9</ele>
        <time>2019-11-01T15:09:01Z</time>
      </trkpt>
      <trkpt lat="43.94826" lon="6.37965">
        <ele>801.8</ele>
        <time>2019-11-01T15:09:02Z</time>
      </trkpt>
      <trkpt lat="43.94828" lon="6.37963">
        <ele>801.8</ele>
        <time>2019-11-01T15:09:04Z</time>
      </trkpt>
      <trkpt lat="43.94831" lon="6.37959">
        <ele>801.7</ele>
        <time>2019-11-01T15:09:05Z</time>
      </trkpt>
      <trkpt lat="43.94835" lon="6.37953">
        <ele>801.5</ele>
        <time>2019-11-01T15:09:06Z</time>
      </trkpt>
      <trkpt lat="43.94839" lon="6.37947">
        <ele>800.8</ele>
        <time>2019-11-01T15:09:08Z</time>
      </trkpt>
      <trkpt lat="43.94844" lon="6.3794">
        <ele>800.6</ele>
        <time>2019-11-01T15:09:09Z</time>
      </trkpt>
      <trkpt lat="43.94849" lon="6.37932">
        <ele>800</ele>
        <time>2019-11-01T15:09:11Z</time>
      </trkpt>
      <trkpt lat="43.94852" lon="6.37928">
        <ele>799.6</ele>
        <time>2019-11-01T15:09:12Z</time>
      </trkpt>
      <trkpt lat="43.94859" lon="6.37918">
        <ele>799.5</ele>
        <time>2019-11-01T15:09:14Z</time>
      </trkpt>
      <trkpt lat="43.94863" lon="6.37914">
        <ele>799.5</ele>
        <time>2019-11-01T15:09:15Z</time>
      </trkpt>
      <trkpt lat="43.9487" lon="6.37909">
        <ele>799.5</ele>
        <time>2019-11-01T15:09:17Z</time>
      </trkpt>
      <trkpt lat="43.94877" lon="6.379">
        <ele>798.8</ele>
        <time>2019-11-01T15:09:19Z</time>
      </trkpt>
      <trkpt lat="43.94886" lon="6.37891">
        <ele>797.7</ele>
        <time>2019-11-01T15:09:21Z</time>
      </trkpt>
      <trkpt lat="43.94889" lon="6.37887">
        <ele>797.4</ele>
        <time>2019-11-01T15:09:22Z</time>
      </trkpt>
      <trkpt lat="43.94892" lon="6.37886">
        <ele>797.2</ele>
        <time>2019-11-01T15:09:23Z</time>
      </trkpt>
      <trkpt lat="43.94892" lon="6.37881">
        <ele>796.9</ele>
        <time>2019-11-01T15:09:24Z</time>
      </trkpt>
      <trkpt lat="43.94894" lon="6.37875">
        <ele>796.4</ele>
        <time>2019-11-01T15:09:26Z</time>
      </trkpt>
      <trkpt lat="43.94897" lon="6.37868">
        <ele>795.7</ele>
        <time>2019-11-01T15:09:28Z</time>
      </trkpt>
      <trkpt lat="43.94899" lon="6.37864">
        <ele>795.7</ele>
        <time>2019-11-01T15:09:29Z</time>
      </trkpt>
      <trkpt lat="43.94902" lon="6.37861">
        <ele>795.6</ele>
        <time>2019-11-01T15:09:30Z</time>
      </trkpt>
      <trkpt lat="43.94905" lon="6.37858">
        <ele>795.2</ele>
        <time>2019-11-01T15:09:31Z</time>
      </trkpt>
      <trkpt lat="43.94913" lon="6.37852">
        <ele>794.6</ele>
        <time>2019-11-01T15:09:33Z</time>
      </trkpt>
      <trkpt lat="43.94917" lon="6.37849">
        <ele>794.4</ele>
        <time>2019-11-01T15:09:34Z</time>
      </trkpt>
      <trkpt lat="43.94922" lon="6.37846">
        <ele>794.4</ele>
        <time>2019-11-01T15:09:35Z</time>
      </trkpt>
      <trkpt lat="43.94928" lon="6.37843">
        <ele>794.7</ele>
        <time>2019-11-01T15:09:36Z</time>
      </trkpt>
      <trkpt lat="43.94931" lon="6.37844">
        <ele>794.8</ele>
        <time>2019-11-01T15:09:37Z</time>
      </trkpt>
      <trkpt lat="43.94933" lon="6.37841">
        <ele>794.9</ele>
        <time>2019-11-01T15:09:39Z</time>
      </trkpt>
      <trkpt lat="43.94939" lon="6.37837">
        <ele>794.2</ele>
        <time>2019-11-01T15:09:41Z</time>
      </trkpt>
      <trkpt lat="43.94942" lon="6.37835">
        <ele>794</ele>
        <time>2019-11-01T15:09:42Z</time>
      </trkpt>
      <trkpt lat="43.94946" lon="6.37833">
        <ele>793.8</ele>
        <time>2019-11-01T15:09:43Z</time>
      </trkpt>
      <trkpt lat="43.94952" lon="6.37831">
        <ele>793.6</ele>
        <time>2019-11-01T15:09:45Z</time>
      </trkpt>
      <trkpt lat="43.94957" lon="6.37827">
        <ele>793.2</ele>
        <time>2019-11-01T15:09:46Z</time>
      </trkpt>
      <trkpt lat="43.94965" lon="6.37821">
        <ele>791.9</ele>
        <time>2019-11-01T15:09:48Z</time>
      </trkpt>
      <trkpt lat="43.9497" lon="6.37817">
        <ele>791.4</ele>
        <time>2019-11-01T15:09:49Z</time>
      </trkpt>
      <trkpt lat="43.94975" lon="6.37812">
        <ele>790.2</ele>
        <time>2019-11-01T15:09:52Z</time>
      </trkpt>
      <trkpt lat="43.94978" lon="6.3781">
        <ele>789.5</ele>
        <time>2019-11-01T15:09:54Z</time>
      </trkpt>
      <trkpt lat="43.94981" lon="6.37809">
        <ele>789.7</ele>
        <time>2019-11-01T15:09:55Z</time>
      </trkpt>
      <trkpt lat="43.94984" lon="6.37809">
        <ele>789.9</ele>
        <time>2019-11-01T15:10:00Z</time>
      </trkpt>
      <trkpt lat="43.94987" lon="6.37813">
        <ele>789.6</ele>
        <time>2019-11-01T15:10:06Z</time>
      </trkpt>
      <trkpt lat="43.94989" lon="6.37816">
        <ele>789.8</ele>
        <time>2019-11-01T15:10:09Z</time>
      </trkpt>
      <trkpt lat="43.94992" lon="6.3782">
        <ele>790</ele>
        <time>2019-11-01T15:10:10Z</time>
      </trkpt>
      <trkpt lat="43.94994" lon="6.37823">
        <ele>790.1</ele>
        <time>2019-11-01T15:10:11Z</time>
      </trkpt>
      <trkpt lat="43.94997" lon="6.37828">
        <ele>790.5</ele>
        <time>2019-11-01T15:10:14Z</time>
      </trkpt>
      <trkpt lat="43.95001" lon="6.37831">
        <ele>791.1</ele>
        <time>2019-11-01T15:10:17Z</time>
      </trkpt>
      <trkpt lat="43.95003" lon="6.37835">
        <ele>791.6</ele>
        <time>2019-11-01T15:10:20Z</time>
      </trkpt>
      <trkpt lat="43.95005" lon="6.3784">
        <ele>791</ele>
        <time>2019-11-01T15:10:23Z</time>
      </trkpt>
      <trkpt lat="43.95007" lon="6.37843">
        <ele>790.7</ele>
        <time>2019-11-01T15:10:28Z</time>
      </trkpt>
      <trkpt lat="43.95012" lon="6.37846">
        <ele>790.3</ele>
        <time>2019-11-01T15:10:30Z</time>
      </trkpt>
      <trkpt lat="43.95016" lon="6.37847">
        <ele>789.9</ele>
        <time>2019-11-01T15:10:32Z</time>
      </trkpt>
      <trkpt lat="43.9502" lon="6.37847">
        <ele>789.5</ele>
        <time>2019-11-01T15:10:34Z</time>
      </trkpt>
      <trkpt lat="43.95028" lon="6.37846">
        <ele>788.7</ele>
        <time>2019-11-01T15:10:36Z</time>
      </trkpt>
      <trkpt lat="43.95034" lon="6.37847">
        <ele>788</ele>
        <time>2019-11-01T15:10:38Z</time>
      </trkpt>
      <trkpt lat="43.95036" lon="6.37848">
        <ele>787.7</ele>
        <time>2019-11-01T15:10:39Z</time>
      </trkpt>
      <trkpt lat="43.95047" lon="6.37849">
        <ele>786.5</ele>
        <time>2019-11-01T15:10:41Z</time>
      </trkpt>
      <trkpt lat="43.95056" lon="6.37849">
        <ele>785</ele>
        <time>2019-11-01T15:10:43Z</time>
      </trkpt>
      <trkpt lat="43.95066" lon="6.37851">
        <ele>784</ele>
        <time>2019-11-01T15:10:45Z</time>
      </trkpt>
      <trkpt lat="43.95071" lon="6.37851">
        <ele>783</ele>
        <time>2019-11-01T15:10:46Z</time>
      </trkpt>
      <trkpt lat="43.95075" lon="6.37851">
        <ele>782</ele>
        <time>2019-11-01T15:10:47Z</time>
      </trkpt>
      <trkpt lat="43.9508" lon="6.37848">
        <ele>781.2</ele>
        <time>2019-11-01T15:10:49Z</time>
      </trkpt>
      <trkpt lat="43.95084" lon="6.37845">
        <ele>780.6</ele>
        <time>2019-11-01T15:10:50Z</time>
      </trkpt>
      <trkpt lat="43.95088" lon="6.37841">
        <ele>779.9</ele>
        <time>2019-11-01T15:10:52Z</time>
      </trkpt>
      <trkpt lat="43.95091" lon="6.37838">
        <ele>779.4</ele>
        <time>2019-11-01T15:10:53Z</time>
      </trkpt>
      <trkpt lat="43.95095" lon="6.37835">
        <ele>778.6</ele>
        <time>2019-11-01T15:10:54Z</time>
      </trkpt>
      <trkpt lat="43.951" lon="6.37832">
        <ele>777.8</ele>
        <time>2019-11-01T15:10:55Z</time>
      </trkpt>
      <trkpt lat="43.95103" lon="6.37829">
        <ele>777.3</ele>
        <time>2019-11-01T15:10:57Z</time>
      </trkpt>
      <trkpt lat="43.95106" lon="6.37827">
        <ele>777</ele>
        <time>2019-11-01T15:10:59Z</time>
      </trkpt>
      <trkpt lat="43.9511" lon="6.37825">
        <ele>776.4</ele>
        <time>2019-11-01T15:11:00Z</time>
      </trkpt>
      <trkpt lat="43.95114" lon="6.37823">
        <ele>775.8</ele>
        <time>2019-11-01T15:11:02Z</time>
      </trkpt>
      <trkpt lat="43.95117" lon="6.37821">
        <ele>775.3</ele>
        <time>2019-11-01T15:11:07Z</time>
      </trkpt>
      <trkpt lat="43.95122" lon="6.37817">
        <ele>774.6</ele>
        <time>2019-11-01T15:11:10Z</time>
      </trkpt>
      <trkpt lat="43.95126" lon="6.37813">
        <ele>774.1</ele>
        <time>2019-11-01T15:11:12Z</time>
      </trkpt>
      <trkpt lat="43.95137" lon="6.37801">
        <ele>773.1</ele>
        <time>2019-11-01T15:11:14Z</time>
      </trkpt>
      <trkpt lat="43.95132" lon="6.378">
        <ele>772.8</ele>
        <time>2019-11-01T15:11:16Z</time>
      </trkpt>
      <trkpt lat="43.95129" lon="6.378">
        <ele>772.6</ele>
        <time>2019-11-01T15:11:17Z</time>
      </trkpt>
      <trkpt lat="43.95135" lon="6.37792">
        <ele>772.2</ele>
        <time>2019-11-01T15:11:21Z</time>
      </trkpt>
      <trkpt lat="43.95151" lon="6.37781">
        <ele>771.4</ele>
        <time>2019-11-01T15:11:22Z</time>
      </trkpt>
      <trkpt lat="43.9516" lon="6.37775">
        <ele>770.7</ele>
        <time>2019-11-01T15:11:23Z</time>
      </trkpt>
      <trkpt lat="43.95163" lon="6.37773">
        <ele>770.4</ele>
        <time>2019-11-01T15:11:25Z</time>
      </trkpt>
      <trkpt lat="43.95166" lon="6.37771">
        <ele>770.2</ele>
        <time>2019-11-01T15:11:26Z</time>
      </trkpt>
      <trkpt lat="43.9517" lon="6.37767">
        <ele>769.9</ele>
        <time>2019-11-01T15:11:28Z</time>
      </trkpt>
      <trkpt lat="43.95173" lon="6.37764">
        <ele>769.7</ele>
        <time>2019-11-01T15:11:30Z</time>
      </trkpt>
      <trkpt lat="43.95177" lon="6.37762">
        <ele>769.5</ele>
        <time>2019-11-01T15:11:32Z</time>
      </trkpt>
      <trkpt lat="43.95188" lon="6.37752">
        <ele>768.7</ele>
        <time>2019-11-01T15:11:34Z</time>
      </trkpt>
      <trkpt lat="43.95185" lon="6.37755">
        <ele>768.3</ele>
        <time>2019-11-01T15:11:36Z</time>
      </trkpt>
      <trkpt lat="43.95181" lon="6.37755">
        <ele>767.8</ele>
        <time>2019-11-01T15:11:38Z</time>
      </trkpt>
      <trkpt lat="43.95182" lon="6.3775">
        <ele>767.4</ele>
        <time>2019-11-01T15:11:40Z</time>
      </trkpt>
      <trkpt lat="43.95185" lon="6.37746">
        <ele>766.9</ele>
        <time>2019-11-01T15:11:42Z</time>
      </trkpt>
      <trkpt lat="43.95187" lon="6.37743">
        <ele>766.5</ele>
        <time>2019-11-01T15:11:44Z</time>
      </trkpt>
      <trkpt lat="43.95191" lon="6.37737">
        <ele>765.8</ele>
        <time>2019-11-01T15:11:47Z</time>
      </trkpt>
      <trkpt lat="43.95198" lon="6.37726">
        <ele>764.6</ele>
        <time>2019-11-01T15:11:50Z</time>
      </trkpt>
      <trkpt lat="43.95209" lon="6.3771">
        <ele>762.5</ele>
        <time>2019-11-01T15:11:51Z</time>
      </trkpt>
      <trkpt lat="43.95217" lon="6.37694">
        <ele>760.4</ele>
        <time>2019-11-01T15:11:54Z</time>
      </trkpt>
      <trkpt lat="43.95223" lon="6.37686">
        <ele>759.2</ele>
        <time>2019-11-01T15:11:55Z</time>
      </trkpt>
      <trkpt lat="43.95227" lon="6.37683">
        <ele>758.4</ele>
        <time>2019-11-01T15:11:56Z</time>
      </trkpt>
      <trkpt lat="43.95239" lon="6.37671">
        <ele>755.8</ele>
        <time>2019-11-01T15:11:58Z</time>
      </trkpt>
      <trkpt lat="43.95246" lon="6.37664">
        <ele>754</ele>
        <time>2019-11-01T15:11:59Z</time>
      </trkpt>
      <trkpt lat="43.95252" lon="6.37657">
        <ele>752.7</ele>
        <time>2019-11-01T15:12:00Z</time>
      </trkpt>
      <trkpt lat="43.95262" lon="6.37643">
        <ele>750.2</ele>
        <time>2019-11-01T15:12:02Z</time>
      </trkpt>
      <trkpt lat="43.95271" lon="6.3763">
        <ele>747.9</ele>
        <time>2019-11-01T15:12:04Z</time>
      </trkpt>
      <trkpt lat="43.95276" lon="6.37623">
        <ele>746.8</ele>
        <time>2019-11-01T15:12:05Z</time>
      </trkpt>
      <trkpt lat="43.95283" lon="6.37608">
        <ele>746</ele>
        <time>2019-11-01T15:12:07Z</time>
      </trkpt>
      <trkpt lat="43.95286" lon="6.376">
        <ele>745.4</ele>
        <time>2019-11-01T15:12:08Z</time>
      </trkpt>
      <trkpt lat="43.95289" lon="6.37583">
        <ele>744.1</ele>
        <time>2019-11-01T15:12:10Z</time>
      </trkpt>
      <trkpt lat="43.95289" lon="6.37573">
        <ele>743.1</ele>
        <time>2019-11-01T15:12:11Z</time>
      </trkpt>
      <trkpt lat="43.9529" lon="6.37562">
        <ele>742.1</ele>
        <time>2019-11-01T15:12:12Z</time>
      </trkpt>
      <trkpt lat="43.9529" lon="6.37552">
        <ele>741.5</ele>
        <time>2019-11-01T15:12:13Z</time>
      </trkpt>
      <trkpt lat="43.95288" lon="6.37537">
        <ele>740.5</ele>
        <time>2019-11-01T15:12:15Z</time>
      </trkpt>
      <trkpt lat="43.95288" lon="6.37522">
        <ele>739.8</ele>
        <time>2019-11-01T15:12:17Z</time>
      </trkpt>
      <trkpt lat="43.95287" lon="6.37509">
        <ele>739.7</ele>
        <time>2019-11-01T15:12:19Z</time>
      </trkpt>
      <trkpt lat="43.95287" lon="6.37501">
        <ele>739.2</ele>
        <time>2019-11-01T15:12:20Z</time>
      </trkpt>
      <trkpt lat="43.95287" lon="6.37494">
        <ele>739</ele>
        <time>2019-11-01T15:12:21Z</time>
      </trkpt>
      <trkpt lat="43.95286" lon="6.37487">
        <ele>738.8</ele>
        <time>2019-11-01T15:12:22Z</time>
      </trkpt>
      <trkpt lat="43.95285" lon="6.37478">
        <ele>738.2</ele>
        <time>2019-11-01T15:12:23Z</time>
      </trkpt>
      <trkpt lat="43.95279" lon="6.37458">
        <ele>738.1</ele>
        <time>2019-11-01T15:12:25Z</time>
      </trkpt>
      <trkpt lat="43.95272" lon="6.37442">
        <ele>737.8</ele>
        <time>2019-11-01T15:12:27Z</time>
      </trkpt>
      <trkpt lat="43.95267" lon="6.37436">
        <ele>737.7</ele>
        <time>2019-11-01T15:12:28Z</time>
      </trkpt>
      <trkpt lat="43.95264" lon="6.37429">
        <ele>737.7</ele>
        <time>2019-11-01T15:12:29Z</time>
      </trkpt>
      <trkpt lat="43.95257" lon="6.37416">
        <ele>737.8</ele>
        <time>2019-11-01T15:12:31Z</time>
      </trkpt>
      <trkpt lat="43.95249" lon="6.37405">
        <ele>737.7</ele>
        <time>2019-11-01T15:12:33Z</time>
      </trkpt>
      <trkpt lat="43.95245" lon="6.37399">
        <ele>737.9</ele>
        <time>2019-11-01T15:12:34Z</time>
      </trkpt>
      <trkpt lat="43.95239" lon="6.37387">
        <ele>737.7</ele>
        <time>2019-11-01T15:12:36Z</time>
      </trkpt>
      <trkpt lat="43.95236" lon="6.37381">
        <ele>737.5</ele>
        <time>2019-11-01T15:12:37Z</time>
      </trkpt>
      <trkpt lat="43.95229" lon="6.37368">
        <ele>737.2</ele>
        <time>2019-11-01T15:12:39Z</time>
      </trkpt>
      <trkpt lat="43.95224" lon="6.37357">
        <ele>736.7</ele>
        <time>2019-11-01T15:12:41Z</time>
      </trkpt>
      <trkpt lat="43.95221" lon="6.37352">
        <ele>736.5</ele>
        <time>2019-11-01T15:12:42Z</time>
      </trkpt>
      <trkpt lat="43.95219" lon="6.37346">
        <ele>736.6</ele>
        <time>2019-11-01T15:12:43Z</time>
      </trkpt>
      <trkpt lat="43.95213" lon="6.37336">
        <ele>736.3</ele>
        <time>2019-11-01T15:12:45Z</time>
      </trkpt>
      <trkpt lat="43.9521" lon="6.3733">
        <ele>736.1</ele>
        <time>2019-11-01T15:12:46Z</time>
      </trkpt>
      <trkpt lat="43.95204" lon="6.3732">
        <ele>735.9</ele>
        <time>2019-11-01T15:12:48Z</time>
      </trkpt>
      <trkpt lat="43.95201" lon="6.37315">
        <ele>735.6</ele>
        <time>2019-11-01T15:12:49Z</time>
      </trkpt>
      <trkpt lat="43.95198" lon="6.37311">
        <ele>735.7</ele>
        <time>2019-11-01T15:12:50Z</time>
      </trkpt>
      <trkpt lat="43.95196" lon="6.37307">
        <ele>735.8</ele>
        <time>2019-11-01T15:12:51Z</time>
      </trkpt>
      <trkpt lat="43.95194" lon="6.37303">
        <ele>736</ele>
        <time>2019-11-01T15:12:52Z</time>
      </trkpt>
      <trkpt lat="43.95193" lon="6.37299">
        <ele>736.1</ele>
        <time>2019-11-01T15:12:53Z</time>
      </trkpt>
      <trkpt lat="43.95192" lon="6.37292">
        <ele>736.4</ele>
        <time>2019-11-01T15:12:55Z</time>
      </trkpt>
      <trkpt lat="43.95191" lon="6.37288">
        <ele>736.4</ele>
        <time>2019-11-01T15:12:57Z</time>
      </trkpt>
      <trkpt lat="43.95188" lon="6.37282">
        <ele>736.4</ele>
        <time>2019-11-01T15:13:00Z</time>
      </trkpt>
      <trkpt lat="43.95187" lon="6.37278">
        <ele>736.2</ele>
        <time>2019-11-01T15:13:01Z</time>
      </trkpt>
      <trkpt lat="43.95184" lon="6.3727">
        <ele>735</ele>
        <time>2019-11-01T15:13:03Z</time>
      </trkpt>
      <trkpt lat="43.95182" lon="6.37265">
        <ele>735.4</ele>
        <time>2019-11-01T15:13:05Z</time>
      </trkpt>
      <trkpt lat="43.9518" lon="6.37255">
        <ele>735</ele>
        <time>2019-11-01T15:13:08Z</time>
      </trkpt>
      <trkpt lat="43.9518" lon="6.37249">
        <ele>734.4</ele>
        <time>2019-11-01T15:13:09Z</time>
      </trkpt>
      <trkpt lat="43.95181" lon="6.37244">
        <ele>733.9</ele>
        <time>2019-11-01T15:13:10Z</time>
      </trkpt>
      <trkpt lat="43.95181" lon="6.37239">
        <ele>733.4</ele>
        <time>2019-11-01T15:13:12Z</time>
      </trkpt>
      <trkpt lat="43.95182" lon="6.37228">
        <ele>731.7</ele>
        <time>2019-11-01T15:13:14Z</time>
      </trkpt>
      <trkpt lat="43.95183" lon="6.37217">
        <ele>730.6</ele>
        <time>2019-11-01T15:13:16Z</time>
      </trkpt>
      <trkpt lat="43.95183" lon="6.37211">
        <ele>730</ele>
        <time>2019-11-01T15:13:17Z</time>
      </trkpt>
      <trkpt lat="43.95185" lon="6.37201">
        <ele>728.3</ele>
        <time>2019-11-01T15:13:19Z</time>
      </trkpt>
      <trkpt lat="43.95185" lon="6.37195">
        <ele>727.5</ele>
        <time>2019-11-01T15:13:20Z</time>
      </trkpt>
      <trkpt lat="43.95187" lon="6.3718">
        <ele>726.2</ele>
        <time>2019-11-01T15:13:22Z</time>
      </trkpt>
      <trkpt lat="43.95189" lon="6.37171">
        <ele>725.4</ele>
        <time>2019-11-01T15:13:24Z</time>
      </trkpt>
      <trkpt lat="43.9519" lon="6.37165">
        <ele>724.9</ele>
        <time>2019-11-01T15:13:25Z</time>
      </trkpt>
      <trkpt lat="43.95191" lon="6.37154">
        <ele>724.4</ele>
        <time>2019-11-01T15:13:27Z</time>
      </trkpt>
      <trkpt lat="43.95192" lon="6.37142">
        <ele>723.9</ele>
        <time>2019-11-01T15:13:29Z</time>
      </trkpt>
      <trkpt lat="43.95193" lon="6.37136">
        <ele>723.6</ele>
        <time>2019-11-01T15:13:30Z</time>
      </trkpt>
      <trkpt lat="43.95194" lon="6.37131">
        <ele>723.6</ele>
        <time>2019-11-01T15:13:31Z</time>
      </trkpt>
      <trkpt lat="43.95195" lon="6.37125">
        <ele>723.6</ele>
        <time>2019-11-01T15:13:32Z</time>
      </trkpt>
      <trkpt lat="43.95196" lon="6.37114">
        <ele>723.5</ele>
        <time>2019-11-01T15:13:34Z</time>
      </trkpt>
      <trkpt lat="43.95199" lon="6.37098">
        <ele>723.3</ele>
        <time>2019-11-01T15:13:36Z</time>
      </trkpt>
      <trkpt lat="43.95198" lon="6.37093">
        <ele>723.2</ele>
        <time>2019-11-01T15:13:37Z</time>
      </trkpt>
      <trkpt lat="43.95199" lon="6.37081">
        <ele>723</ele>
        <time>2019-11-01T15:13:39Z</time>
      </trkpt>
      <trkpt lat="43.95198" lon="6.37077">
        <ele>722.9</ele>
        <time>2019-11-01T15:13:40Z</time>
      </trkpt>
      <trkpt lat="43.952" lon="6.37064">
        <ele>722.7</ele>
        <time>2019-11-01T15:13:42Z</time>
      </trkpt>
      <trkpt lat="43.952" lon="6.37058">
        <ele>722.6</ele>
        <time>2019-11-01T15:13:43Z</time>
      </trkpt>
      <trkpt lat="43.95201" lon="6.37049">
        <ele>722.4</ele>
        <time>2019-11-01T15:13:45Z</time>
      </trkpt>
      <trkpt lat="43.95203" lon="6.37041">
        <ele>722.3</ele>
        <time>2019-11-01T15:13:47Z</time>
      </trkpt>
      <trkpt lat="43.95205" lon="6.37037">
        <ele>722.3</ele>
        <time>2019-11-01T15:13:48Z</time>
      </trkpt>
      <trkpt lat="43.95209" lon="6.37034">
        <ele>722.2</ele>
        <time>2019-11-01T15:13:50Z</time>
      </trkpt>
      <trkpt lat="43.95214" lon="6.37033">
        <ele>722.1</ele>
        <time>2019-11-01T15:13:52Z</time>
      </trkpt>
      <trkpt lat="43.9522" lon="6.37031">
        <ele>722.1</ele>
        <time>2019-11-01T15:13:54Z</time>
      </trkpt>
      <trkpt lat="43.95226" lon="6.37028">
        <ele>722.1</ele>
        <time>2019-11-01T15:13:56Z</time>
      </trkpt>
      <trkpt lat="43.9523" lon="6.37026">
        <ele>722.1</ele>
        <time>2019-11-01T15:13:57Z</time>
      </trkpt>
      <trkpt lat="43.95235" lon="6.37024">
        <ele>722</ele>
        <time>2019-11-01T15:13:58Z</time>
      </trkpt>
      <trkpt lat="43.95241" lon="6.37022">
        <ele>722</ele>
        <time>2019-11-01T15:14:00Z</time>
      </trkpt>
      <trkpt lat="43.95247" lon="6.3702">
        <ele>722.1</ele>
        <time>2019-11-01T15:14:02Z</time>
      </trkpt>
      <trkpt lat="43.9525" lon="6.37018">
        <ele>722.1</ele>
        <time>2019-11-01T15:14:04Z</time>
      </trkpt>
      <trkpt lat="43.95258" lon="6.37016">
        <ele>722.3</ele>
        <time>2019-11-01T15:14:06Z</time>
      </trkpt>
      <trkpt lat="43.95263" lon="6.37014">
        <ele>722.4</ele>
        <time>2019-11-01T15:14:07Z</time>
      </trkpt>
      <trkpt lat="43.95274" lon="6.37011">
        <ele>722.5</ele>
        <time>2019-11-01T15:14:09Z</time>
      </trkpt>
      <trkpt lat="43.95279" lon="6.37009">
        <ele>722.7</ele>
        <time>2019-11-01T15:14:10Z</time>
      </trkpt>
      <trkpt lat="43.95284" lon="6.37007">
        <ele>722.8</ele>
        <time>2019-11-01T15:14:11Z</time>
      </trkpt>
      <trkpt lat="43.95293" lon="6.37004">
        <ele>723</ele>
        <time>2019-11-01T15:14:13Z</time>
      </trkpt>
      <trkpt lat="43.95297" lon="6.37002">
        <ele>723.1</ele>
        <time>2019-11-01T15:14:14Z</time>
      </trkpt>
      <trkpt lat="43.953" lon="6.37003">
        <ele>723.3</ele>
        <time>2019-11-01T15:14:15Z</time>
      </trkpt>
      <trkpt lat="43.95305" lon="6.37001">
        <ele>723.6</ele>
        <time>2019-11-01T15:14:17Z</time>
      </trkpt>
      <trkpt lat="43.95311" lon="6.36997">
        <ele>724.1</ele>
        <time>2019-11-01T15:14:18Z</time>
      </trkpt>
      <trkpt lat="43.9532" lon="6.36995">
        <ele>724.7</ele>
        <time>2019-11-01T15:14:20Z</time>
      </trkpt>
      <trkpt lat="43.95329" lon="6.36993">
        <ele>725.7</ele>
        <time>2019-11-01T15:14:22Z</time>
      </trkpt>
      <trkpt lat="43.95333" lon="6.36991">
        <ele>726.3</ele>
        <time>2019-11-01T15:14:23Z</time>
      </trkpt>
      <trkpt lat="43.95337" lon="6.36989">
        <ele>726.7</ele>
        <time>2019-11-01T15:14:24Z</time>
      </trkpt>
      <trkpt lat="43.95345" lon="6.36986">
        <ele>727.5</ele>
        <time>2019-11-01T15:14:26Z</time>
      </trkpt>
      <trkpt lat="43.95349" lon="6.36984">
        <ele>727.8</ele>
        <time>2019-11-01T15:14:27Z</time>
      </trkpt>
      <trkpt lat="43.95355" lon="6.36982">
        <ele>728.5</ele>
        <time>2019-11-01T15:14:29Z</time>
      </trkpt>
      <trkpt lat="43.95357" lon="6.3698">
        <ele>728.9</ele>
        <time>2019-11-01T15:14:30Z</time>
      </trkpt>
      <trkpt lat="43.95365" lon="6.36979">
        <ele>729.6</ele>
        <time>2019-11-01T15:14:32Z</time>
      </trkpt>
      <trkpt lat="43.95369" lon="6.36978">
        <ele>730.1</ele>
        <time>2019-11-01T15:14:33Z</time>
      </trkpt>
      <trkpt lat="43.95374" lon="6.36977">
        <ele>730.5</ele>
        <time>2019-11-01T15:14:34Z</time>
      </trkpt>
      <trkpt lat="43.95377" lon="6.36976">
        <ele>730.6</ele>
        <time>2019-11-01T15:14:35Z</time>
      </trkpt>
      <trkpt lat="43.9538" lon="6.36973">
        <ele>730.6</ele>
        <time>2019-11-01T15:14:43Z</time>
      </trkpt>
      <trkpt lat="43.95378" lon="6.36968">
        <ele>730.6</ele>
        <time>2019-11-01T15:14:45Z</time>
      </trkpt>
      <trkpt lat="43.95375" lon="6.36959">
        <ele>730.5</ele>
        <time>2019-11-01T15:14:47Z</time>
      </trkpt>
      <trkpt lat="43.95371" lon="6.3695">
        <ele>730.5</ele>
        <time>2019-11-01T15:14:49Z</time>
      </trkpt>
      <trkpt lat="43.95365" lon="6.36937">
        <ele>730.4</ele>
        <time>2019-11-01T15:14:52Z</time>
      </trkpt>
      <trkpt lat="43.95361" lon="6.36926">
        <ele>730.4</ele>
        <time>2019-11-01T15:14:54Z</time>
      </trkpt>
      <trkpt lat="43.95359" lon="6.36921">
        <ele>730.7</ele>
        <time>2019-11-01T15:14:55Z</time>
      </trkpt>
      <trkpt lat="43.95356" lon="6.36914">
        <ele>731.1</ele>
        <time>2019-11-01T15:14:57Z</time>
      </trkpt>
      <trkpt lat="43.95349" lon="6.36903">
        <ele>731.7</ele>
        <time>2019-11-01T15:14:59Z</time>
      </trkpt>
      <trkpt lat="43.95344" lon="6.36894">
        <ele>732</ele>
        <time>2019-11-01T15:15:01Z</time>
      </trkpt>
      <trkpt lat="43.95341" lon="6.36889">
        <ele>732.1</ele>
        <time>2019-11-01T15:15:02Z</time>
      </trkpt>
      <trkpt lat="43.95337" lon="6.3688">
        <ele>732.5</ele>
        <time>2019-11-01T15:15:04Z</time>
      </trkpt>
      <trkpt lat="43.95332" lon="6.3687">
        <ele>732.8</ele>
        <time>2019-11-01T15:15:06Z</time>
      </trkpt>
      <trkpt lat="43.9533" lon="6.36864">
        <ele>732.7</ele>
        <time>2019-11-01T15:15:07Z</time>
      </trkpt>
      <trkpt lat="43.95325" lon="6.36853">
        <ele>732.6</ele>
        <time>2019-11-01T15:15:09Z</time>
      </trkpt>
      <trkpt lat="43.95323" lon="6.36848">
        <ele>732.6</ele>
        <time>2019-11-01T15:15:10Z</time>
      </trkpt>
      <trkpt lat="43.95319" lon="6.36837">
        <ele>733</ele>
        <time>2019-11-01T15:15:12Z</time>
      </trkpt>
      <trkpt lat="43.95314" lon="6.36831">
        <ele>732.8</ele>
        <time>2019-11-01T15:15:14Z</time>
      </trkpt>
      <trkpt lat="43.9531" lon="6.3683">
        <ele>732.5</ele>
        <time>2019-11-01T15:15:15Z</time>
      </trkpt>
      <trkpt lat="43.95305" lon="6.3683">
        <ele>732.2</ele>
        <time>2019-11-01T15:15:17Z</time>
      </trkpt>
      <trkpt lat="43.95302" lon="6.36834">
        <ele>731.9</ele>
        <time>2019-11-01T15:15:19Z</time>
      </trkpt>
      <trkpt lat="43.95299" lon="6.36838">
        <ele>731.6</ele>
        <time>2019-11-01T15:15:21Z</time>
      </trkpt>
      <trkpt lat="43.95301" lon="6.36839">
        <ele>731.5</ele>
        <time>2019-11-01T15:17:10Z</time>
      </trkpt>
    </trkseg>
  </trk>
</gpx>